
Distance (Route):
Temperature : 15.8°C
Humidity : 68.6%
Pressure : 983.7hPa| Receiver | Frames | First received | Last received |
|---|---|---|---|
| BIOWL1-15 | 1310 | 2026-09-02 23:34:58 | 2026-09-03 02:56:26 |
| DM0DOS-11 | 1192 | 2026-09-02 23:33:22 | 2026-09-03 02:56:28 |
| DL1XH-west | 774 | 2026-09-02 23:53:30 | 2026-09-03 02:23:44 |
| DO2JMG | 666 | 2026-09-03 00:06:50 | 2026-09-03 02:33:38 |
| AA1-15 | 414 | 2026-09-03 00:23:25 | 2026-09-03 01:50:29 |
| DL1XH-15 | 392 | 2026-09-03 00:23:46 | 2026-09-03 02:08:36 |
| GOEST3-10 | 276 | 2026-09-02 23:54:54 | 2026-09-03 02:09:17 |
| DF8AY | 158 | 2026-09-03 00:55:51 | 2026-09-03 01:39:25 |
| DO3DL | 110 | 2026-09-03 01:14:22 | 2026-09-03 02:50:10 |
| DO9LL-15 | 93 | 2026-09-02 23:37:06 | 2026-09-03 02:49:06 |
| DL3AQ-11 | 92 | 2026-09-03 00:15:22 | 2026-09-03 02:40:18 |
| DJ2KF-10 | 90 | 2026-09-03 00:19:35 | 2026-09-03 02:44:55 |
| DB0UT-7 | 85 | 2026-09-02 23:44:39 | 2026-09-03 02:50:05 |
| DH3RM | 85 | 2026-09-03 00:24:22 | 2026-09-03 02:32:40 |
| BIOWL9-15 | 82 | 2026-09-02 23:36:59 | 2026-09-03 02:56:44 |
| HSKMA3-T | 82 | 2026-09-03 01:06:32 | 2026-09-03 02:32:34 |
| DL4BBY-15 | 72 | 2026-09-02 23:59:16 | 2026-09-03 02:41:45 |
| AU51GT2 | 69 | 2026-09-02 23:37:32 | 2026-09-03 02:42:43 |
| WEDDY | 55 | 2026-09-02 23:32:51 | 2026-09-03 01:56:22 |
| HTAHTA | 54 | 2026-09-02 23:38:39 | 2026-09-03 02:26:51 |
| BIOWL7-15 | 53 | 2026-09-02 23:43:29 | 2026-09-03 02:56:08 |
| DO1YAY-16 | 53 | 2026-09-02 23:51:36 | 2026-09-03 02:34:07 |
| DJ2DS-15 | 52 | 2026-09-02 23:40:11 | 2026-09-03 02:39:12 |
| DD1CC8 | 52 | 2026-09-03 00:35:14 | 2026-09-03 02:52:22 |
| DD1CC1-15 | 47 | 2026-09-03 00:24:20 | 2026-09-03 02:54:16 |
| WPPR-10 | 46 | 2026-09-02 23:55:56 | 2026-09-03 02:43:39 |
| DD1CC3-15 | 43 | 2026-09-03 01:29:04 | 2026-09-03 02:55:30 |
| DF5WG-10 | 41 | 2026-09-03 00:50:23 | 2026-09-03 02:12:56 |
| DK5PH-5 | 39 | 2026-09-03 00:22:22 | 2026-09-03 02:02:23 |
| MET0W-2 | 37 | 2026-09-02 23:55:55 | 2026-09-03 02:05:19 |
| DC6BW-12 | 37 | 2026-09-03 00:05:44 | 2026-09-03 02:22:30 |
| BUE01 | 37 | 2026-09-03 00:15:16 | 2026-09-03 02:29:19 |
| DO2KSM | 37 | 2026-09-03 01:11:06 | 2026-09-03 02:49:06 |
| KNMI2-11 | 36 | 2026-09-02 23:24:20 | 2026-09-02 23:52:50 |
| DL8DAS-15 | 36 | 2026-09-03 00:15:01 | 2026-09-03 02:48:52 |
| DL8DAS-14 | 36 | 2026-09-03 00:35:01 | 2026-09-03 02:46:52 |
| DB0ND-19 | 34 | 2026-09-03 00:01:54 | 2026-09-03 02:40:58 |
| SONCRA | 33 | 2026-09-03 00:19:42 | 2026-09-03 02:12:06 |
| HARRO8 | 27 | 2026-09-03 00:22:31 | 2026-09-03 02:14:49 |
| DB0NH | 26 | 2026-09-03 00:19:29 | 2026-09-03 02:12:09 |
| DO3MHA-11 | 21 | 2026-09-03 00:52:31 | 2026-09-03 01:38:30 |
| DL1LOL-11 | 19 | 2026-09-02 23:43:06 | 2026-09-03 02:38:31 |
| DJ3KS | 12 | 2026-09-03 00:33:45 | 2026-09-03 01:57:28 |
| DF2AP-13 | 7 | 2026-09-03 00:38:06 | 2026-09-03 02:20:00 |
| EDDB2-12 | 7 | 2026-09-03 01:36:34 | 2026-09-03 01:46:55 |
| SONDE2-11 | 6 | 2026-09-03 01:31:53 | 2026-09-03 01:46:53 |
| DF7PN | 5 | 2026-09-03 01:02:05 | 2026-09-03 01:25:54 |
| EDDB2-11 | 5 | 2026-09-03 01:03:45 | 2026-09-03 01:44:37 |
| DL1CLM-18 | 5 | 2026-09-03 02:04:38 | 2026-09-03 02:30:39 |
| DO3MHA-12 | 4 | 2026-09-03 00:53:00 | 2026-09-03 01:35:43 |
| DJTTGO | 4 | 2026-09-03 01:16:52 | 2026-09-03 01:26:53 |
| SMARD9-15 | 2 | 2026-09-03 01:18:07 | 2026-09-03 01:27:25 |
| SMARD9-10 | 1 | 2026-09-03 00:56:29 | 2026-09-03 00:56:29 |
| DO2LYB-13 | 1 | 2026-09-03 01:38:15 | 2026-09-03 01:38:15 |
| Receiver | Date | Latitude | Longitude | Direction | Speed | Altitude | Climb | Temperature | Humidity | Pressure | Voltage | Killtimer | Uptime | BKT | XDATA |
|---|---|---|---|---|---|---|---|---|---|---|---|---|---|---|---|
| BIOWL9-15 | 2026-09-03 02:56:44 | 51.46571 | 8.03546 | 27° | 22km/h | 337m | -2.1m/s | 15.8°C | 68.6% | 983.7hPa | 2.8V | 00:00:00 | 00:00:00 | 00:00:00 | |
| DM0DOS-11 | 2026-09-03 02:56:28 | 51.46534 | 8.03508 | 33° | 26km/h | 353m | -1.9m/s | 15.8°C | 68.2% | 981.8hPa | 2.8V | 07:01:24 | 03:40:02 | 00:00:00 | |
| DM0DOS-11 | 2026-09-03 02:56:28 | 51.46523 | 8.03496 | 38° | 26km/h | 358m | -2.2m/s | 15.8°C | 68.2% | 981.4hPa | 2.8V | 07:01:26 | 03:40:00 | 00:00:00 | |
| BIOWL1-15 | 2026-09-03 02:56:26 | 51.46534 | 8.03508 | 33° | 26km/h | 353m | -1.9m/s | 15.8°C | 72.1% | 981.8hPa | 2.8V | 07:02:08 | 03:40:02 | 00:00:00 | |
| BIOWL1-15 | 2026-09-03 02:56:26 | 51.46529 | 8.03503 | 36° | 26km/h | 355m | -2.6m/s | 15.8°C | 72.3% | 981.5hPa | 2.8V | 07:02:08 | 03:40:01 | 00:00:00 | |
| DM0DOS-11 | 2026-09-03 02:56:22 | 51.46501 | 8.03467 | 39° | 27km/h | 368m | -2.3m/s | 15.7°C | 68.7% | 980.1hPa | 2.7V | 07:01:30 | 03:39:56 | 00:00:00 | |
| BIOWL1-15 | 2026-09-03 02:56:22 | 51.46518 | 8.03490 | 40° | 27km/h | 360m | -2.8m/s | 15.8°C | 72.3% | 980.9hPa | 2.8V | 07:02:08 | 03:39:59 | 00:00:00 | |
| BIOWL1-15 | 2026-09-03 02:56:20 | 51.46507 | 8.03475 | 40° | 29km/h | 365m | -2.5m/s | 15.7°C | 72.7% | 980.6hPa | 2.8V | 07:02:08 | 03:39:57 | 00:00:00 | |
| BIOWL1-15 | 2026-09-03 02:56:18 | 51.46488 | 8.03453 | 38° | 31km/h | 373m | -2.1m/s | 15.9°C | 71.1% | 979.8hPa | 2.8V | 07:02:08 | 03:39:54 | 00:00:00 | |
| BIOWL1-15 | 2026-09-03 02:56:18 | 51.46482 | 8.03445 | 38° | 31km/h | 375m | -2.4m/s | 15.9°C | 70.9% | 979.5hPa | 2.8V | 07:02:08 | 03:39:53 | 00:00:00 | |
| DM0DOS-11 | 2026-09-03 02:56:16 | 51.46476 | 8.03437 | 37° | 31km/h | 378m | -2.5m/s | 15.9°C | 67.1% | 979.2hPa | 2.8V | 07:01:34 | 03:39:52 | 00:00:00 | |
| BIOWL1-15 | 2026-09-03 02:56:14 | 51.46463 | 8.03422 | 32° | 33km/h | 383m | -2.3m/s | 16.1°C | 68.6% | 978.7hPa | 2.8V | 07:02:08 | 03:39:50 | 00:00:00 | |
| BIOWL1-15 | 2026-09-03 02:56:14 | 51.46455 | 8.03415 | 35° | 35km/h | 385m | -2.4m/s | 16.2°C | 68.1% | 978.7hPa | 2.8V | 07:02:08 | 03:39:49 | 00:00:00 | |
| BIOWL1-15 | 2026-09-03 02:56:11 | 51.46448 | 8.03407 | 31° | 37km/h | 387m | -1.6m/s | 16.2°C | 68% | 978.3hPa | 2.8V | 07:02:08 | 03:39:48 | 00:00:00 | |
| DM0DOS-11 | 2026-09-03 02:56:10 | 51.46432 | 8.03392 | 31° | 35km/h | 391m | -2.1m/s | 16.1°C | 65.3% | 977.9hPa | 2.8V | 07:01:40 | 03:39:46 | 00:00:00 | |
| DM0DOS-11 | 2026-09-03 02:56:10 | 51.46406 | 8.03360 | 40° | 33km/h | 400m | -2.9m/s | 16.1°C | 65.4% | 977hPa | 2.8V | 07:01:44 | 03:39:42 | 00:00:00 | |
| BIOWL1-15 | 2026-09-03 02:56:09 | 51.46412 | 8.03368 | 40° | 31km/h | 397m | -2.2m/s | 16.1°C | 69.6% | 977.2hPa | 2.8V | 07:02:08 | 03:39:43 | 00:00:00 | |
| BIOWL1-15 | 2026-09-03 02:56:09 | 51.46406 | 8.03360 | 41° | 33km/h | 400m | -2.9m/s | 16.1°C | 69.9% | 977hPa | 2.8V | 07:02:08 | 03:39:42 | 00:00:00 | |
| BIOWL7-15 | 2026-09-03 02:56:08 | 51.46432 | 8.03392 | 33° | 35km/h | 391m | -2.2m/s | 16.2°C | 65.6% | 977.9hPa | 2.8V | 07:02:00 | 00:00:00 | 00:00:00 | |
| DM0DOS-11 | 2026-09-03 02:56:04 | 51.46382 | 8.03325 | 45° | 31km/h | 411m | -2.2m/s | 15.9°C | 66% | 975.7hPa | 2.8V | 07:01:48 | 03:39:38 | 00:00:00 | |
| BIOWL1-15 | 2026-09-03 02:56:03 | 51.46388 | 8.03334 | 45° | 31km/h | 408m | -2.2m/s | 16°C | 69.9% | 976.1hPa | 2.8V | 07:02:08 | 03:39:39 | 00:00:00 | |
| BIOWL1-15 | 2026-09-03 02:56:03 | 51.46382 | 8.03325 | 45° | 31km/h | 411m | -2.2m/s | 16°C | 69.9% | 975.7hPa | 2.8V | 07:02:08 | 03:39:38 | 00:00:00 | |
| BIOWL1-15 | 2026-09-03 02:55:59 | 51.46364 | 8.03297 | 45° | 33km/h | 417m | -2.1m/s | 16.1°C | 69.4% | 975hPa | 2.8V | 07:02:08 | 03:39:35 | 00:00:00 | |
| BIOWL1-15 | 2026-09-03 02:55:59 | 51.46359 | 8.03288 | 45° | 33km/h | 419m | -2.2m/s | 16.1°C | 69.4% | 974.8hPa | 2.8V | 07:02:08 | 03:39:34 | 00:00:00 | |
| DM0DOS-11 | 2026-09-03 02:55:58 | 51.46358 | 8.03288 | 44° | 33km/h | 419m | -2.2m/s | 16.1°C | 65.1% | 974.8hPa | 2.8V | 07:01:52 | 03:39:34 | 00:00:00 | |
| DM0DOS-11 | 2026-09-03 02:55:58 | 51.46335 | 8.03251 | 42° | 33km/h | 429m | -2.5m/s | 16.1°C | 65.1% | 973.7hPa | 2.8V | 07:01:56 | 03:39:30 | 00:00:00 | |
| BIOWL1-15 | 2026-09-03 02:55:55 | 51.46347 | 8.03269 | 46° | 33km/h | 424m | -2.1m/s | 16.1°C | 69.5% | 974.3hPa | 2.7V | 07:02:08 | 03:39:32 | 00:00:00 | |
| BIOWL1-15 | 2026-09-03 02:55:54 | 51.46341 | 8.03260 | 44° | 33km/h | 426m | -2.4m/s | 16.1°C | 69.4% | 974.2hPa | 2.8V | 07:02:08 | 03:39:31 | 00:00:00 | |
| BIOWL1-15 | 2026-09-03 02:55:52 | 51.46322 | 8.03232 | 43° | 33km/h | 434m | -2.5m/s | 16°C | 69.1% | 973.2hPa | 2.8V | 07:02:08 | 03:39:28 | 00:00:00 | |
| DM0DOS-11 | 2026-09-03 02:55:52 | 51.46322 | 8.03232 | 42° | 33km/h | 434m | -2.5m/s | 16°C | 65.3% | 973.2hPa | 2.8V | 07:01:58 | 03:39:28 | 00:00:00 | |
| DM0DOS-11 | 2026-09-03 02:55:52 | 51.46310 | 8.03214 | 44° | 35km/h | 439m | -2.3m/s | 16.1°C | 64.6% | 972.6hPa | 2.8V | 07:02:00 | 03:39:26 | 00:00:00 | |
| BIOWL1-15 | 2026-09-03 02:55:52 | 51.46316 | 8.03223 | 42° | 35km/h | 436m | -2.6m/s | 16°C | 68.6% | 972.9hPa | 2.8V | 07:02:08 | 03:39:27 | 00:00:00 | |
| BIOWL1-15 | 2026-09-03 02:55:48 | 51.46297 | 8.03193 | 48° | 37km/h | 443m | -2.1m/s | 16.3°C | 68% | 972.2hPa | 2.8V | 07:02:08 | 03:39:24 | 00:00:00 | |
| BIOWL1-15 | 2026-09-03 02:55:48 | 51.46291 | 8.03182 | 50° | 37km/h | 446m | -2.2m/s | 16.2°C | 68.4% | 971.8hPa | 2.8V | 07:02:08 | 03:39:23 | 00:00:00 | |
| DM0DOS-11 | 2026-09-03 02:55:46 | 51.46285 | 8.03170 | 49° | 38km/h | 448m | -2.7m/s | 16.2°C | 63.8% | 971.7hPa | 2.8V | 07:02:04 | 03:39:22 | 00:00:00 | |
| DM0DOS-11 | 2026-09-03 02:55:46 | 51.46260 | 8.03123 | 49° | 38km/h | 459m | -2.3m/s | 16.1°C | 64.4% | 970.5hPa | 2.8V | 07:02:08 | 03:39:18 | 00:00:00 | |
| BIOWL1-15 | 2026-09-03 02:55:44 | 51.46272 | 8.03147 | 49° | 38km/h | 454m | -2.2m/s | 16.1°C | 68.3% | 971hPa | 2.8V | 07:02:08 | 03:39:20 | 00:00:00 | |
| BIOWL1-15 | 2026-09-03 02:55:44 | 51.46266 | 8.03135 | 49° | 38km/h | 457m | -2.2m/s | 16.1°C | 68.1% | 970.6hPa | 2.8V | 07:02:08 | 03:39:19 | 00:00:00 | |
| BIOWL1-15 | 2026-09-03 02:55:40 | 51.46248 | 8.03100 | 50° | 37km/h | 463m | -2m/s | 16.1°C | 68.2% | 969.8hPa | 2.8V | 07:02:59 | 03:39:16 | 00:00:00 | |
| DM0DOS-11 | 2026-09-03 02:55:40 | 51.46247 | 8.03100 | 49° | 37km/h | 463m | -2m/s | 16.1°C | 64.3% | 969.8hPa | 2.8V | 07:02:10 | 03:39:16 | 00:00:00 | |
| DM0DOS-11 | 2026-09-03 02:55:40 | 51.46235 | 8.03077 | 46° | 38km/h | 468m | -2.5m/s | 16°C | 64.5% | 969.3hPa | 2.8V | 07:02:12 | 03:39:14 | 00:00:00 | |
| DM0DOS-11 | 2026-09-03 02:55:40 | 51.46221 | 8.03054 | 46° | 38km/h | 474m | -2.4m/s | 15.9°C | 64.9% | 968.7hPa | 2.8V | 07:02:14 | 03:39:12 | 00:00:00 | |
| BIOWL1-15 | 2026-09-03 02:55:40 | 51.46241 | 8.03089 | 48° | 38km/h | 466m | -2.6m/s | 16.1°C | 68.5% | 969.7hPa | 2.8V | 07:02:59 | 03:39:15 | 00:00:00 | |
| BIOWL1-15 | 2026-09-03 02:55:36 | 51.46228 | 8.03066 | 48° | 38km/h | 471m | -2.7m/s | 16°C | 68.9% | 969.2hPa | 2.8V | 07:02:59 | 03:39:13 | 00:00:00 | |
| DM0DOS-11 | 2026-09-03 02:55:34 | 51.46195 | 8.03006 | 50° | 38km/h | 486m | -2.5m/s | 16°C | 64.7% | 967.4hPa | 2.8V | 07:02:18 | 03:39:08 | 00:00:00 | |
| DM0DOS-11 | 2026-09-03 02:55:34 | 51.46182 | 8.02982 | 52° | 38km/h | 491m | -2.5m/s | 15.9°C | 64.7% | 966.9hPa | 2.8V | 07:02:20 | 03:39:06 | 00:00:00 | |
| BIOWL1-15 | 2026-09-03 02:55:34 | 51.46215 | 8.03042 | 48° | 40km/h | 477m | -2.7m/s | 16°C | 68.6% | 968.5hPa | 2.7V | 07:02:59 | 03:39:11 | 00:00:00 | |
| BIOWL1-15 | 2026-09-03 02:55:32 | 51.46195 | 8.03006 | 50° | 38km/h | 486m | -2.5m/s | 16°C | 68.5% | 967.4hPa | 2.8V | 07:02:59 | 03:39:08 | 00:00:00 | |
| BIOWL1-15 | 2026-09-03 02:55:32 | 51.46188 | 8.02994 | 51° | 38km/h | 489m | -2.3m/s | 15.9°C | 68.3% | 967.2hPa | 2.8V | 07:02:59 | 03:39:07 | 00:00:00 | |
| DD1CC3-15 | 2026-09-03 02:55:30 | 51.46195 | 8.03006 | 51° | 38km/h | 486m | -2.5m/s | 16.0°C | 64.9% | 967.4hPa | 2.8V | 07:02:00 | 00:00:00 | 00:00:00 | |
| DM0DOS-11 | 2026-09-03 02:55:28 | 51.46169 | 8.02958 | 47° | 40km/h | 495m | -1.9m/s | 16°C | 64.3% | 966.5hPa | 2.8V | 07:02:22 | 03:39:04 | 00:00:00 | |
| DM0DOS-11 | 2026-09-03 02:55:28 | 51.46156 | 8.02933 | 49° | 42km/h | 500m | -2.7m/s | 15.9°C | 64.6% | 965.9hPa | 2.8V | 07:02:24 | 03:39:02 | 00:00:00 | |
| DM0DOS-11 | 2026-09-03 02:55:28 | 51.46142 | 8.02908 | 48° | 40km/h | 505m | -1.4m/s | 15.9°C | 64.6% | 965.4hPa | 2.8V | 07:02:26 | 03:39:00 | 00:00:00 | |
| BIOWL1-15 | 2026-09-03 02:55:28 | 51.46169 | 8.02958 | 47° | 40km/h | 495m | -1.9m/s | 16°C | 68.3% | 966.5hPa | 2.8V | 07:02:59 | 03:39:04 | 00:00:00 | |
| BIOWL1-15 | 2026-09-03 02:55:28 | 51.46162 | 8.02946 | 48° | 40km/h | 498m | -2.3m/s | 16°C | 68.5% | 966.2hPa | 2.8V | 07:02:59 | 03:39:03 | 00:00:00 | |
| BIOWL1-15 | 2026-09-03 02:55:24 | 51.46149 | 8.02921 | 50° | 42km/h | 503m | -2.5m/s | 15.9°C | 68.4% | 965.6hPa | 2.8V | 07:02:59 | 03:39:01 | 00:00:00 | |
| DM0DOS-11 | 2026-09-03 02:55:22 | 51.46128 | 8.02882 | 51° | 42km/h | 508m | -1.8m/s | 15.9°C | 64.7% | 964.9hPa | 2.8V | 07:02:28 | 03:38:58 | 00:00:00 | |
| DM0DOS-11 | 2026-09-03 02:55:22 | 51.46114 | 8.02854 | 50° | 46km/h | 512m | -1.6m/s | 16.1°C | 63.5% | 964.5hPa | 2.8V | 07:02:30 | 03:38:56 | 00:00:00 | |
| BIOWL1-15 | 2026-09-03 02:55:22 | 51.46135 | 8.02895 | 47° | 42km/h | 506m | -1.4m/s | 15.9°C | 68.2% | 965.1hPa | 2.8V | 07:02:59 | 03:38:59 | 00:00:00 | |
| BIOWL1-15 | 2026-09-03 02:55:20 | 51.46121 | 8.02868 | 53° | 44km/h | 510m | -2.1m/s | 16°C | 67.9% | 964.7hPa | 2.8V | 07:02:59 | 03:38:57 | 00:00:00 | |
| BIOWL1-15 | 2026-09-03 02:55:18 | 51.46100 | 8.02826 | 55° | 44km/h | 517m | -2.4m/s | 16.1°C | 67.4% | 964hPa | 2.8V | 07:02:59 | 03:38:54 | 00:00:00 | |
| BIOWL1-15 | 2026-09-03 02:55:18 | 51.46094 | 8.02811 | 55° | 44km/h | 519m | -1.9m/s | 16.1°C | 67.5% | 963.7hPa | 2.8V | 07:02:59 | 03:38:53 | 00:00:00 | |
| BIOWL1-15 | 2026-09-03 02:55:14 | 51.46081 | 8.02781 | 57° | 44km/h | 523m | -2.8m/s | 16.1°C | 67.8% | 963.1hPa | 2.7V | 07:02:59 | 03:38:51 | 00:00:00 | |
| BIOWL1-15 | 2026-09-03 02:55:12 | 51.46069 | 8.02750 | 57° | 47km/h | 529m | -2.8m/s | 16°C | 68.4% | 962.4hPa | 2.8V | 07:02:59 | 03:38:49 | 00:00:00 | |
| BIOWL1-15 | 2026-09-03 02:55:10 | 51.46056 | 8.02718 | 59° | 47km/h | 534m | -2.5m/s | 15.9°C | 68.7% | 961.9hPa | 2.8V | 07:02:59 | 03:38:47 | 00:00:00 | |
| BIOWL1-15 | 2026-09-03 02:55:08 | 51.46043 | 8.02687 | 54° | 47km/h | 539m | -2.7m/s | 15.8°C | 69.1% | 961.4hPa | 2.8V | 07:02:59 | 03:38:45 | 00:00:00 | |
| BIOWL1-15 | 2026-09-03 02:55:07 | 51.46001 | 8.02590 | 56° | 47km/h | 552m | -2.3m/s | 15.6°C | 69.4% | 959.8hPa | 2.8V | 07:02:59 | 03:38:39 | 00:00:00 | |
| BIOWL1-15 | 2026-09-03 02:55:06 | 51.45994 | 8.02574 | 56° | 47km/h | 554m | -1.1m/s | 15.9°C | 68.9% | 959.5hPa | 2.8V | 07:02:59 | 03:38:38 | 00:00:00 | |
| DM0DOS-11 | 2026-09-03 02:55:04 | 51.45995 | 8.02574 | 55° | 47km/h | 554m | -1.1m/s | 15.8°C | 64% | 959.5hPa | 2.8V | 07:02:48 | 03:38:38 | 00:00:00 | |
| DM0DOS-11 | 2026-09-03 02:55:04 | 51.45981 | 8.02541 | 56° | 49km/h | 556m | -1.8m/s | 15.6°C | 65.2% | 959.1hPa | 2.8V | 07:02:50 | 03:38:36 | 00:00:00 | |
| BIOWL1-15 | 2026-09-03 02:55:02 | 51.45988 | 8.02557 | 58° | 47km/h | 555m | -1m/s | 15.7°C | 69% | 959.2hPa | 2.8V | 07:02:59 | 03:38:37 | 00:00:00 | |
| BIOWL1-15 | 2026-09-03 02:54:59 | 51.45981 | 8.02541 | 57° | 49km/h | 556m | -1.8m/s | 15.6°C | 68.9% | 959.1hPa | 2.8V | 07:02:59 | 03:38:36 | 00:00:00 | |
| DM0DOS-11 | 2026-09-03 02:54:58 | 51.45955 | 8.02474 | 58° | 47km/h | 563m | -1.4m/s | 15.8°C | 64.2% | 958.4hPa | 2.7V | 07:02:54 | 03:38:32 | 00:00:00 | |
| BIOWL1-15 | 2026-09-03 02:54:58 | 51.45974 | 8.02524 | 58° | 49km/h | 558m | -2.1m/s | 15.7°C | 68.9% | 959hPa | 2.8V | 07:02:59 | 03:38:35 | 00:00:00 | |
| BIOWL1-15 | 2026-09-03 02:54:57 | 51.45968 | 8.02507 | 58° | 49km/h | 560m | -1.3m/s | 15.9°C | 68.5% | 958.6hPa | 2.8V | 07:02:59 | 03:38:34 | 00:00:00 | |
| BIOWL1-15 | 2026-09-03 02:54:55 | 51.45955 | 8.02474 | 59° | 47km/h | 563m | -1.4m/s | 15.8°C | 68.4% | 958.4hPa | 2.7V | 07:02:59 | 03:38:32 | 00:00:00 | |
| BIOWL1-15 | 2026-09-03 02:54:53 | 51.45942 | 8.02441 | 57° | 49km/h | 567m | -1.9m/s | 15.9°C | 68.6% | 957.8hPa | 2.8V | 07:02:59 | 03:38:30 | 00:00:00 | |
| BIOWL1-15 | 2026-09-03 02:54:52 | 51.45935 | 8.02424 | 59° | 49km/h | 568m | -2m/s | 15.9°C | 68.5% | 957.6hPa | 2.8V | 07:02:59 | 03:38:29 | 00:00:00 | |
| BIOWL1-15 | 2026-09-03 02:54:51 | 51.45929 | 8.02407 | 61° | 49km/h | 571m | -2.3m/s | 15.8°C | 68.4% | 957.3hPa | 2.8V | 07:02:59 | 03:38:28 | 00:00:00 | |
| BIOWL1-15 | 2026-09-03 02:54:49 | 51.45917 | 8.02372 | 62° | 49km/h | 575m | -2.4m/s | 15.7°C | 68.9% | 957hPa | 2.8V | 07:03:50 | 03:38:26 | 00:00:00 | |
| BIOWL1-15 | 2026-09-03 02:54:47 | 51.45905 | 8.02338 | 62° | 47km/h | 581m | -3.4m/s | 15.6°C | 69.3% | 956.2hPa | 2.8V | 07:03:50 | 03:38:24 | 00:00:00 | |
| DM0DOS-11 | 2026-09-03 02:54:46 | 51.45882 | 8.02267 | 63° | 51km/h | 593m | -2.9m/s | 15.7°C | 64.5% | 954.8hPa | 2.8V | 07:03:06 | 03:38:20 | 00:00:00 | |
| BIOWL1-15 | 2026-09-03 02:54:46 | 51.45900 | 8.02320 | 62° | 47km/h | 584m | -3.2m/s | 15.6°C | 68.9% | 955.9hPa | 2.8V | 07:03:50 | 03:38:23 | 00:00:00 | |
| BIOWL1-15 | 2026-09-03 02:54:44 | 51.45888 | 8.02285 | 63° | 49km/h | 590m | -2.9m/s | 15.6°C | 69.1% | 955.2hPa | 2.8V | 07:03:50 | 03:38:21 | 00:00:00 | |
| BIOWL1-15 | 2026-09-03 02:54:42 | 51.45870 | 8.02230 | 62° | 53km/h | 599m | -3.4m/s | 15.6°C | 70.1% | 954.1hPa | 2.8V | 07:03:50 | 03:38:18 | 00:00:00 | |
| BIOWL1-15 | 2026-09-03 02:54:42 | 51.45864 | 8.02211 | 62° | 53km/h | 602m | -3.6m/s | 15.6°C | 70.5% | 953.9hPa | 2.8V | 07:03:50 | 03:38:17 | 00:00:00 | |
| BIOWL7-15 | 2026-09-03 02:54:41 | 51.45876 | 8.02249 | 63° | 53km/h | 596m | -3.0m/s | 15.7°C | 64.9% | 954.6hPa | 2.8V | 07:03:00 | 00:00:00 | 00:00:00 | |
| DM0DOS-11 | 2026-09-03 02:54:40 | 51.45858 | 8.02192 | 61° | 53km/h | 606m | -3.4m/s | 15.6°C | 64.6% | 953.4hPa | 2.8V | 07:03:10 | 03:38:16 | 00:00:00 | |
| BIOWL1-15 | 2026-09-03 02:54:38 | 51.45851 | 8.02173 | 61° | 53km/h | 609m | -3.8m/s | 15.6°C | 71% | 952.9hPa | 2.7V | 07:03:50 | 03:38:15 | 00:00:00 | |
| BIOWL1-15 | 2026-09-03 02:54:37 | 51.45845 | 8.02155 | 62° | 53km/h | 613m | -3.4m/s | 15.6°C | 70.9% | 952.5hPa | 2.8V | 07:03:50 | 03:38:14 | 00:00:00 | |
| BIOWL1-15 | 2026-09-03 02:54:35 | 51.45832 | 8.02117 | 62° | 53km/h | 620m | -3.4m/s | 15.5°C | 71.1% | 952hPa | 2.8V | 07:03:50 | 03:38:12 | 00:00:00 | |
| DM0DOS-11 | 2026-09-03 02:54:34 | 51.45809 | 8.02041 | 65° | 53km/h | 633m | -3.1m/s | 15.4°C | 65.3% | 950.4hPa | 2.8V | 07:03:18 | 03:38:08 | 00:00:00 | |
| BIOWL1-15 | 2026-09-03 02:54:33 | 51.45820 | 8.02079 | 64° | 53km/h | 627m | -3.5m/s | 15.4°C | 70.7% | 951.1hPa | 2.8V | 07:03:50 | 03:38:10 | 00:00:00 | |
| BIOWL1-15 | 2026-09-03 02:54:31 | 51.45809 | 8.02041 | 66° | 53km/h | 633m | -3.1m/s | 15.4°C | 70.6% | 950.4hPa | 2.8V | 07:03:50 | 03:38:08 | 00:00:00 | |
| BIOWL1-15 | 2026-09-03 02:54:29 | 51.45798 | 8.02002 | 67° | 53km/h | 639m | -2.9m/s | 15.3°C | 70.3% | 949.6hPa | 2.8V | 07:03:50 | 03:38:06 | 00:00:00 | |
| DM0DOS-11 | 2026-09-03 02:54:28 | 51.45788 | 8.01962 | 66° | 53km/h | 645m | -2.9m/s | 15.2°C | 66% | 949hPa | 2.8V | 07:03:22 | 03:38:04 | 00:00:00 | |
| BIOWL1-15 | 2026-09-03 02:54:27 | 51.45782 | 8.01943 | 67° | 53km/h | 648m | -2.9m/s | 15.1°C | 70.5% | 948.6hPa | 2.8V | 07:03:50 | 03:38:03 | 00:00:00 | |
| BIOWL1-15 | 2026-09-03 02:54:27 | 51.45777 | 8.01923 | 66° | 53km/h | 651m | -3.2m/s | 15.1°C | 70.3% | 948.3hPa | 2.8V | 07:03:50 | 03:38:02 | 00:00:00 | |
| BIOWL1-15 | 2026-09-03 02:54:23 | 51.45761 | 8.01865 | 65° | 53km/h | 660m | -3.2m/s | 15.1°C | 70.7% | 947.4hPa | 2.8V | 07:03:50 | 03:37:59 | 00:00:00 | |
| BIOWL1-15 | 2026-09-03 02:54:23 | 51.45755 | 8.01846 | 65° | 53km/h | 663m | -2.9m/s | 15.1°C | 70.9% | 947hPa | 2.7V | 07:03:50 | 03:37:58 | 00:00:00 | |
| BIOWL1-15 | 2026-09-03 02:54:19 | 51.45744 | 8.01808 | 64° | 53km/h | 668m | -2.9m/s | 15°C | 71.3% | 946.3hPa | 2.8V | 07:03:50 | 03:37:56 | 00:00:00 | |
| BIOWL1-15 | 2026-09-03 02:54:18 | 51.45738 | 8.01789 | 64° | 53km/h | 671m | -3m/s | 15°C | 71.4% | 946hPa | 2.8V | 07:03:50 | 03:37:55 | 00:00:00 | |
| BIOWL1-15 | 2026-09-03 02:54:17 | 51.45732 | 8.01769 | 63° | 53km/h | 675m | -3m/s | 15°C | 71.4% | 945.6hPa | 2.8V | 07:03:50 | 03:37:54 | 00:00:00 | |
| DD1CC1-15 | 2026-09-03 02:54:16 | 51.45732 | 8.01769 | 64° | 53km/h | 674m | -3.0m/s | 15.0°C | 67.0% | 945.6hPa | 2.8V | 00:00:00 | 00:00:00 | 00:00:00 | |
| DM0DOS-11 | 2026-09-03 02:54:16 | 51.45720 | 8.01731 | 62° | 55km/h | 680m | -2.9m/s | 14.9°C | 67.1% | 945.1hPa | 2.8V | 07:03:34 | 03:37:52 | 00:00:00 | |
| BIOWL1-15 | 2026-09-03 02:54:15 | 51.45713 | 8.01711 | 63° | 55km/h | 683m | -3.1m/s | 14.9°C | 71.9% | 944.6hPa | 2.8V | 07:03:50 | 03:37:51 | 00:00:00 | |
| BIOWL1-15 | 2026-09-03 02:54:15 | 51.45707 | 8.01692 | 62° | 55km/h | 686m | -3.1m/s | 14.9°C | 72.3% | 944.3hPa | 2.8V | 07:03:50 | 03:37:50 | 00:00:00 | |
| BIOWL1-15 | 2026-09-03 02:54:12 | 51.45688 | 8.01634 | 62° | 53km/h | 696m | -3.1m/s | 14.8°C | 72.9% | 943.2hPa | 2.8V | 07:03:50 | 03:37:47 | 00:00:00 | |
| BIOWL1-15 | 2026-09-03 02:54:11 | 51.45681 | 8.01614 | 62° | 55km/h | 699m | -2.9m/s | 14.8°C | 72.9% | 942.8hPa | 2.8V | 07:03:50 | 03:37:46 | 00:00:00 | |
| DM0DOS-11 | 2026-09-03 02:54:10 | 51.45668 | 8.01576 | 60° | 53km/h | 705m | -3.1m/s | 14.7°C | 67.8% | 942.1hPa | 2.8V | 07:03:42 | 03:37:44 | 00:00:00 | |
| BIOWL1-15 | 2026-09-03 02:54:07 | 51.45668 | 8.01576 | 61° | 53km/h | 705m | -3.1m/s | 14.7°C | 73.1% | 942.1hPa | 2.8V | 07:03:50 | 03:37:44 | 00:00:00 | |
| BIOWL1-15 | 2026-09-03 02:54:05 | 51.45655 | 8.01539 | 61° | 53km/h | 711m | -3m/s | 14.7°C | 73.6% | 941.6hPa | 2.7V | 07:03:50 | 03:37:42 | 00:00:00 | |
| DM0DOS-11 | 2026-09-03 02:54:04 | 51.45643 | 8.01502 | 61° | 53km/h | 717m | -2.9m/s | 14.6°C | 68.2% | 940.9hPa | 2.8V | 07:03:46 | 03:37:40 | 00:00:00 | |
| DM0DOS-11 | 2026-09-03 02:54:04 | 51.45630 | 8.01464 | 61° | 53km/h | 722m | -2.8m/s | 14.6°C | 68.3% | 940.2hPa | 2.8V | 07:03:48 | 03:37:38 | 00:00:00 | |
| BIOWL1-15 | 2026-09-03 02:54:03 | 51.45643 | 8.01502 | 62° | 53km/h | 717m | -2.9m/s | 14.6°C | 74.1% | 940.9hPa | 2.8V | 07:03:50 | 03:37:40 | 00:00:00 | |
| BIOWL1-15 | 2026-09-03 02:54:01 | 51.45630 | 8.01464 | 61° | 53km/h | 723m | -2.8m/s | 14.6°C | 74.2% | 940.2hPa | 2.8V | 07:03:50 | 03:37:38 | 00:00:00 | |
| BIOWL1-15 | 2026-09-03 02:54:00 | 51.45624 | 8.01446 | 62° | 53km/h | 725m | -2.8m/s | 14.6°C | 74.1% | 939.9hPa | 2.8V | 07:03:50 | 03:37:37 | 00:00:00 | |
| BIOWL7-15 | 2026-09-03 02:53:58 | 51.45617 | 8.01427 | 63° | 53km/h | 728m | -2.8m/s | 14.6°C | 68.5% | 939.6hPa | 2.8V | 07:03:00 | 00:00:00 | 00:00:00 | |
| DM0DOS-11 | 2026-09-03 02:53:58 | 51.45605 | 8.01389 | 61° | 53km/h | 733m | -2.3m/s | 14.5°C | 68.6% | 939hPa | 2.8V | 07:03:52 | 03:37:34 | 00:00:00 | |
| DM0DOS-11 | 2026-09-03 02:53:58 | 51.45580 | 8.01312 | 62° | 55km/h | 741m | -2.1m/s | 14.4°C | 69.1% | 937.9hPa | 2.8V | 07:03:56 | 03:37:30 | 00:00:00 | |
| BIOWL1-15 | 2026-09-03 02:53:58 | 51.45611 | 8.01408 | 62° | 53km/h | 731m | -2.7m/s | 14.5°C | 73.2% | 939.5hPa | 2.8V | 07:04:41 | 03:37:35 | 00:00:00 | |
| BIOWL1-15 | 2026-09-03 02:53:57 | 51.45605 | 8.01389 | 62° | 53km/h | 733m | -2.3m/s | 14.5°C | 72.8% | 939hPa | 2.8V | 07:04:41 | 03:37:34 | 00:00:00 | |
| BIOWL1-15 | 2026-09-03 02:53:55 | 51.45592 | 8.01350 | 62° | 53km/h | 737m | -2.1m/s | 14.5°C | 73.1% | 938.5hPa | 2.8V | 07:04:41 | 03:37:32 | 00:00:00 | |
| BIOWL1-15 | 2026-09-03 02:53:53 | 51.45579 | 8.01312 | 62° | 55km/h | 741m | -2.1m/s | 14.4°C | 73.5% | 937.9hPa | 2.8V | 07:04:41 | 03:37:30 | 00:00:00 | |
| DM0DOS-11 | 2026-09-03 02:53:52 | 51.45567 | 8.01272 | 63° | 55km/h | 746m | -2.1m/s | 14.4°C | 69.2% | 937.6hPa | 2.8V | 07:03:58 | 03:37:28 | 00:00:00 | |
| DM0DOS-11 | 2026-09-03 02:53:52 | 51.45555 | 8.01232 | 64° | 55km/h | 750m | -2.2m/s | 14.3°C | 69.1% | 937.2hPa | 2.8V | 07:04:00 | 03:37:26 | 00:00:00 | |
| BIOWL1-15 | 2026-09-03 02:53:52 | 51.45573 | 8.01292 | 63° | 55km/h | 743m | -2.2m/s | 14.4°C | 73.7% | 937.8hPa | 2.8V | 07:04:41 | 03:37:29 | 00:00:00 | |
| BIOWL1-15 | 2026-09-03 02:53:50 | 51.45555 | 8.01232 | 65° | 55km/h | 750m | -2.2m/s | 14.3°C | 74.1% | 937.2hPa | 2.8V | 07:04:41 | 03:37:26 | 00:00:00 | |
| BIOWL1-15 | 2026-09-03 02:53:50 | 51.45549 | 8.01212 | 66° | 55km/h | 752m | -2.5m/s | 14.3°C | 74.1% | 936.9hPa | 2.8V | 07:04:41 | 03:37:25 | 00:00:00 | |
| BIOWL1-15 | 2026-09-03 02:53:46 | 51.45520 | 8.01109 | 67° | 55km/h | 762m | -1.9m/s | 14.2°C | 73.4% | 935.9hPa | 2.8V | 07:04:41 | 03:37:20 | 00:00:00 | |
| DM0DOS-11 | 2026-09-03 02:53:46 | 51.45531 | 8.01150 | 66° | 55km/h | 759m | -2m/s | 14.2°C | 69.7% | 936.3hPa | 2.8V | 07:04:04 | 03:37:22 | 00:00:00 | |
| DM0DOS-11 | 2026-09-03 02:53:46 | 51.45509 | 8.01068 | 65° | 55km/h | 767m | -1.9m/s | 14.1°C | 70% | 935.2hPa | 2.8V | 07:04:08 | 03:37:18 | 00:00:00 | |
| BIOWL1-15 | 2026-09-03 02:53:46 | 51.45515 | 8.01089 | 66° | 55km/h | 764m | -2m/s | 14.2°C | 73.2% | 935.6hPa | 2.8V | 07:04:41 | 03:37:19 | 00:00:00 | |
| BIOWL1-15 | 2026-09-03 02:53:40 | 51.45498 | 8.01028 | 66° | 55km/h | 771m | -2.4m/s | 14.1°C | 73.8% | 934.7hPa | 2.8V | 07:04:41 | 03:37:16 | 00:00:00 | |
| DM0DOS-11 | 2026-09-03 02:53:40 | 51.45498 | 8.01028 | 66° | 55km/h | 771m | -2.4m/s | 14.1°C | 70.2% | 934.7hPa | 2.8V | 07:04:10 | 03:37:16 | 00:00:00 | |
| DM0DOS-11 | 2026-09-03 02:53:40 | 51.45487 | 8.00986 | 66° | 55km/h | 775m | -1.9m/s | 14.1°C | 70.4% | 934.4hPa | 2.8V | 07:04:12 | 03:37:14 | 00:00:00 | |
| DM0DOS-11 | 2026-09-03 02:53:40 | 51.45476 | 8.00945 | 67° | 55km/h | 779m | -1.9m/s | 14°C | 70.6% | 933.9hPa | 2.7V | 07:04:14 | 03:37:12 | 00:00:00 | |
| BIOWL1-15 | 2026-09-03 02:53:40 | 51.45492 | 8.01007 | 66° | 57km/h | 773m | -2.5m/s | 14.1°C | 73.9% | 934.6hPa | 2.8V | 07:04:41 | 03:37:15 | 00:00:00 | |
| BIOWL1-15 | 2026-09-03 02:53:36 | 51.45481 | 8.00966 | 68° | 55km/h | 777m | -1.9m/s | 14°C | 74% | 934.2hPa | 2.8V | 07:04:41 | 03:37:13 | 00:00:00 | |
| BIOWL7-15 | 2026-09-03 02:53:34 | 51.45476 | 8.00945 | 69° | 55km/h | 779m | -1.9m/s | 14.0°C | 70.7% | 933.9hPa | 2.8V | 07:04:00 | 00:00:00 | 00:00:00 | |
| DM0DOS-11 | 2026-09-03 02:53:34 | 51.45455 | 8.00865 | 66° | 53km/h | 789m | -2.3m/s | 13.9°C | 70.8% | 933hPa | 2.8V | 07:04:18 | 03:37:08 | 00:00:00 | |
| DM0DOS-11 | 2026-09-03 02:53:34 | 51.45444 | 8.00826 | 67° | 53km/h | 793m | -2.7m/s | 13.9°C | 70.9% | 932.4hPa | 2.8V | 07:04:20 | 03:37:06 | 00:00:00 | |
| BIOWL1-15 | 2026-09-03 02:53:34 | 51.45471 | 8.00925 | 67° | 55km/h | 781m | -2.3m/s | 14°C | 74.6% | 933.7hPa | 2.8V | 07:04:41 | 03:37:11 | 00:00:00 | |
| BIOWL1-15 | 2026-09-03 02:53:32 | 51.45455 | 8.00865 | 67° | 53km/h | 789m | -2.3m/s | 13.9°C | 75.1% | 933hPa | 2.8V | 07:04:41 | 03:37:08 | 00:00:00 | |
| BIOWL1-15 | 2026-09-03 02:53:32 | 51.45449 | 8.00845 | 68° | 53km/h | 791m | -2.3m/s | 13.9°C | 75.3% | 932.6hPa | 2.8V | 07:04:41 | 03:37:07 | 00:00:00 | |
| BIOWL1-15 | 2026-09-03 02:53:28 | 51.45434 | 8.00786 | 68° | 53km/h | 799m | -2.9m/s | 13.8°C | 75.7% | 931.8hPa | 2.8V | 07:04:41 | 03:37:04 | 00:00:00 | |
| BIOWL1-15 | 2026-09-03 02:53:28 | 51.45429 | 8.00766 | 68° | 53km/h | 802m | -3m/s | 13.8°C | 75.8% | 931.5hPa | 2.8V | 07:04:41 | 03:37:03 | 00:00:00 | |
| BIOWL1-15 | 2026-09-03 02:53:24 | 51.45419 | 8.00725 | 70° | 53km/h | 807m | -2.8m/s | 13.8°C | 75.8% | 930.9hPa | 2.8V | 07:04:41 | 03:37:01 | 00:00:00 | |
| DM0DOS-11 | 2026-09-03 02:53:22 | 51.45380 | 8.00564 | 69° | 53km/h | 830m | -2.9m/s | 13.8°C | 71.9% | 928.4hPa | 2.8V | 07:04:33 | 03:36:53 | 00:00:00 | |
| BIOWL1-15 | 2026-09-03 02:53:22 | 51.45410 | 8.00685 | 69° | 53km/h | 813m | -2.8m/s | 13.7°C | 76.1% | 930.1hPa | 2.8V | 07:04:41 | 03:36:59 | 00:00:00 | |
| BIOWL1-15 | 2026-09-03 02:53:20 | 51.45400 | 8.00645 | 69° | 53km/h | 819m | -3m/s | 13.7°C | 76.4% | 929.6hPa | 2.8V | 07:04:41 | 03:36:57 | 00:00:00 | |
| BIOWL1-15 | 2026-09-03 02:53:18 | 51.45385 | 8.00584 | 69° | 53km/h | 827m | -3m/s | 13.7°C | 76.5% | 928.8hPa | 2.8V | 07:04:41 | 03:36:54 | 00:00:00 | |
| BIOWL1-15 | 2026-09-03 02:53:18 | 51.45381 | 8.00564 | 69° | 53km/h | 830m | -2.9m/s | 13.8°C | 76.7% | 928.4hPa | 2.8V | 07:04:41 | 03:36:53 | 00:00:00 | |
| DM0DOS-11 | 2026-09-03 02:53:16 | 51.45376 | 8.00544 | 68° | 53km/h | 833m | -2.8m/s | 13.8°C | 72% | 928.1hPa | 2.8V | 07:04:34 | 03:36:52 | 00:00:00 | |
| DM0DOS-11 | 2026-09-03 02:53:16 | 51.45357 | 8.00464 | 69° | 53km/h | 845m | -2.8m/s | 13.7°C | 72.3% | 926.7hPa | 2.8V | 07:04:38 | 03:36:48 | 00:00:00 | |
| BIOWL1-15 | 2026-09-03 02:53:14 | 51.45371 | 8.00524 | 69° | 53km/h | 836m | -3.1m/s | 13.7°C | 77% | 927.8hPa | 2.8V | 07:04:41 | 03:36:51 | 00:00:00 | |
| BIOWL1-15 | 2026-09-03 02:53:12 | 51.45362 | 8.00484 | 70° | 53km/h | 842m | -2.8m/s | 13.7°C | 77.3% | 927hPa | 2.8V | 07:04:41 | 03:36:49 | 00:00:00 | |
| BIOWL1-15 | 2026-09-03 02:53:11 | 51.45357 | 8.00464 | 70° | 53km/h | 845m | -2.8m/s | 13.7°C | 77.4% | 926.8hPa | 2.8V | 07:04:41 | 03:36:48 | 00:00:00 | |
| DM0DOS-11 | 2026-09-03 02:53:10 | 51.45339 | 8.00383 | 70° | 53km/h | 856m | -2.7m/s | 13.6°C | 72.6% | 925.6hPa | 2.7V | 07:04:42 | 03:36:44 | 00:00:00 | |
| BIOWL1-15 | 2026-09-03 02:53:09 | 51.45348 | 8.00424 | 71° | 53km/h | 850m | -2.8m/s | 13.6°C | 77.3% | 926.1hPa | 2.8V | 07:04:41 | 03:36:46 | 00:00:00 | |
| BIOWL1-15 | 2026-09-03 02:53:08 | 51.45343 | 8.00404 | 70° | 53km/h | 853m | -2.8m/s | 13.6°C | 77.3% | 925.9hPa | 2.8V | 07:04:41 | 03:36:45 | 00:00:00 | |
| BIOWL1-15 | 2026-09-03 02:53:07 | 51.45339 | 8.00383 | 70° | 53km/h | 856m | -2.7m/s | 13.6°C | 77.3% | 925.6hPa | 2.7V | 07:05:32 | 03:36:44 | 00:00:00 | |
| BIOWL1-15 | 2026-09-03 02:53:05 | 51.45330 | 8.00342 | 70° | 53km/h | 861m | -2.8m/s | 13.5°C | 77.4% | 924.9hPa | 2.8V | 07:05:32 | 03:36:42 | 00:00:00 | |
| DM0DOS-11 | 2026-09-03 02:53:04 | 51.45311 | 8.00260 | 69° | 53km/h | 872m | -2.6m/s | 13.4°C | 73.1% | 923.8hPa | 2.8V | 07:04:48 | 03:36:38 | 00:00:00 | |
| BIOWL1-15 | 2026-09-03 02:53:03 | 51.45320 | 8.00301 | 70° | 53km/h | 866m | -2.7m/s | 13.5°C | 77.7% | 924.3hPa | 2.8V | 07:05:32 | 03:36:40 | 00:00:00 | |
| BIOWL1-15 | 2026-09-03 02:53:03 | 51.45316 | 8.00281 | 70° | 53km/h | 869m | -2.8m/s | 13.5°C | 77.9% | 924hPa | 2.8V | 07:05:32 | 03:36:39 | 00:00:00 | |
| BIOWL1-15 | 2026-09-03 02:53:00 | 51.45306 | 8.00240 | 69° | 53km/h | 874m | -2.7m/s | 13.4°C | 78.3% | 923.4hPa | 2.8V | 07:05:32 | 03:36:37 | 00:00:00 | |
| DM0DOS-11 | 2026-09-03 02:52:58 | 51.45292 | 8.00181 | 67° | 53km/h | 882m | -2.5m/s | 13.4°C | 73.4% | 922.6hPa | 2.8V | 07:04:52 | 03:36:34 | 00:00:00 | |
| DM0DOS-11 | 2026-09-03 02:52:58 | 51.45271 | 8.00104 | 66° | 51km/h | 891m | -2.3m/s | 13.3°C | 73.6% | 921.5hPa | 2.7V | 07:04:56 | 03:36:30 | 00:00:00 | |
| BIOWL1-15 | 2026-09-03 02:52:58 | 51.45296 | 8.00201 | 68° | 53km/h | 879m | -2.4m/s | 13.4°C | 78.5% | 922.9hPa | 2.8V | 07:05:32 | 03:36:35 | 00:00:00 | |
| BIOWL1-15 | 2026-09-03 02:52:57 | 51.45291 | 8.00181 | 68° | 53km/h | 882m | -2.6m/s | 13.4°C | 78.4% | 922.6hPa | 2.8V | 07:05:32 | 03:36:34 | 00:00:00 | |
| BIOWL1-15 | 2026-09-03 02:52:55 | 51.45276 | 8.00123 | 66° | 51km/h | 889m | -2.3m/s | 13.3°C | 77.9% | 921.8hPa | 2.8V | 07:05:32 | 03:36:31 | 00:00:00 | |
| BIOWL1-15 | 2026-09-03 02:52:55 | 51.45270 | 8.00104 | 66° | 51km/h | 891m | -2.3m/s | 13.3°C | 77.9% | 921.5hPa | 2.7V | 07:05:32 | 03:36:30 | 00:00:00 | |
| BIOWL1-15 | 2026-09-03 02:52:51 | 51.45254 | 8.00046 | 66° | 51km/h | 898m | -2m/s | 13.3°C | 77.4% | 920.9hPa | 2.8V | 07:05:32 | 03:36:27 | 00:00:00 | |
| BIOWL1-15 | 2026-09-03 02:52:51 | 51.45249 | 8.00027 | 66° | 53km/h | 899m | -2.1m/s | 13.3°C | 77.4% | 920.8hPa | 2.8V | 07:05:32 | 03:36:26 | 00:00:00 | |
| BIOWL1-15 | 2026-09-03 02:52:47 | 51.45238 | 7.99988 | 66° | 53km/h | 904m | -1.9m/s | 13.3°C | 77.7% | 920.2hPa | 2.8V | 07:05:32 | 03:36:24 | 00:00:00 | |
| DM0DOS-11 | 2026-09-03 02:52:46 | 51.45227 | 7.99949 | 66° | 53km/h | 908m | -2.1m/s | 13.2°C | 74.1% | 919.8hPa | 2.8V | 07:05:04 | 03:36:22 | 00:00:00 | |
| DM0DOS-11 | 2026-09-03 02:52:46 | 51.45206 | 7.99871 | 67° | 51km/h | 916m | -2.1m/s | 13.1°C | 74.6% | 918.9hPa | 2.8V | 07:05:08 | 03:36:18 | 00:00:00 | |
| BIOWL1-15 | 2026-09-03 02:52:46 | 51.45233 | 7.99968 | 66° | 53km/h | 906m | -2.1m/s | 13.2°C | 78% | 920hPa | 2.8V | 07:05:32 | 03:36:23 | 00:00:00 | |
| BIOWL1-15 | 2026-09-03 02:52:44 | 51.45222 | 7.99929 | 67° | 53km/h | 910m | -2.1m/s | 13.2°C | 78.1% | 919.6hPa | 2.8V | 07:05:32 | 03:36:21 | 00:00:00 | |
| BIOWL1-15 | 2026-09-03 02:52:43 | 51.45217 | 7.99910 | 66° | 53km/h | 912m | -2.2m/s | 13.1°C | 78.1% | 919.2hPa | 2.8V | 07:05:32 | 03:36:20 | 00:00:00 | |
| BIOWL1-15 | 2026-09-03 02:52:41 | 51.45201 | 7.99852 | 66° | 51km/h | 918m | -2.2m/s | 13.1°C | 78.4% | 918.5hPa | 2.7V | 07:05:32 | 03:36:17 | 00:00:00 | |
| BIOWL1-15 | 2026-09-03 02:52:41 | 51.45196 | 7.99833 | 67° | 51km/h | 920m | -2.2m/s | 13.1°C | 78.5% | 918.4hPa | 2.8V | 07:05:32 | 03:36:16 | 00:00:00 | |
| DM0DOS-11 | 2026-09-03 02:52:40 | 51.45196 | 7.99833 | 66° | 51km/h | 920m | -2.2m/s | 13.1°C | 74.5% | 918.4hPa | 2.8V | 07:05:10 | 03:36:16 | 00:00:00 | |
| DM0DOS-11 | 2026-09-03 02:52:40 | 51.45185 | 7.99795 | 66° | 51km/h | 925m | -2.3m/s | 13.1°C | 74.4% | 917.7hPa | 2.8V | 07:05:12 | 03:36:14 | 00:00:00 | |
| BIOWL1-15 | 2026-09-03 02:52:37 | 51.45180 | 7.99776 | 66° | 51km/h | 927m | -2.3m/s | 13.1°C | 78.5% | 917.8hPa | 2.8V | 07:05:32 | 03:36:13 | 00:00:00 | |
| BIOWL1-15 | 2026-09-03 02:52:37 | 51.45175 | 7.99757 | 67° | 51km/h | 929m | -2.3m/s | 13.1°C | 78.4% | 917.3hPa | 2.8V | 07:05:32 | 03:36:12 | 00:00:00 | |
| BIOWL9-15 | 2026-09-03 02:52:36 | 51.45180 | 7.99776 | 66° | 51km/h | 927m | -2.3m/s | 13.1°C | 74.3% | 917.8hPa | 2.8V | 00:00:00 | 00:00:00 | 00:00:00 | |
| DM0DOS-11 | 2026-09-03 02:52:34 | 51.45165 | 7.99719 | 66° | 51km/h | 934m | -2.2m/s | 13.1°C | 74.3% | 916.9hPa | 2.8V | 07:05:16 | 03:36:10 | 00:00:00 | |
| DM0DOS-11 | 2026-09-03 02:52:34 | 51.45144 | 7.99643 | 65° | 51km/h | 942m | -2.1m/s | 13.1°C | 74.5% | 916hPa | 2.8V | 07:05:20 | 03:36:06 | 00:00:00 | |
| BIOWL1-15 | 2026-09-03 02:52:33 | 51.45165 | 7.99719 | 66° | 51km/h | 934m | -2.2m/s | 13.1°C | 78.1% | 916.9hPa | 2.8V | 07:05:32 | 03:36:10 | 00:00:00 | |
| BIOWL1-15 | 2026-09-03 02:52:31 | 51.45154 | 7.99681 | 66° | 51km/h | 938m | -2m/s | 13.1°C | 78.2% | 916.5hPa | 2.8V | 07:05:32 | 03:36:08 | 00:00:00 | |
| BIOWL1-15 | 2026-09-03 02:52:30 | 51.45149 | 7.99662 | 65° | 51km/h | 940m | -2m/s | 13.1°C | 78.3% | 916.2hPa | 2.8V | 07:05:32 | 03:36:07 | 00:00:00 | |
| BIOWL1-15 | 2026-09-03 02:52:28 | 51.45133 | 7.99605 | 65° | 51km/h | 946m | -2.1m/s | 13°C | 78.8% | 915.6hPa | 2.7V | 07:05:32 | 03:36:04 | 00:00:00 | |
| DM0DOS-11 | 2026-09-03 02:52:28 | 51.45111 | 7.99530 | 65° | 51km/h | 955m | -2.3m/s | 12.9°C | 75.1% | 914.7hPa | 2.8V | 07:05:26 | 03:36:00 | 00:00:00 | |
| BIOWL1-15 | 2026-09-03 02:52:28 | 51.45127 | 7.99586 | 65° | 51km/h | 949m | -2.1m/s | 13°C | 78.8% | 915.3hPa | 2.8V | 07:05:32 | 03:36:03 | 00:00:00 | |
| BIOWL1-15 | 2026-09-03 02:52:24 | 51.45090 | 7.99455 | 66° | 49km/h | 964m | -2.3m/s | 12.9°C | 79.2% | 913.6hPa | 2.8V | 07:05:32 | 03:35:56 | 00:00:00 | |
| BIOWL1-15 | 2026-09-03 02:52:24 | 51.45085 | 7.99436 | 67° | 51km/h | 966m | -2.3m/s | 12.9°C | 79.2% | 913.4hPa | 2.8V | 07:05:32 | 03:35:55 | 00:00:00 | |
| DD1CC1-15 | 2026-09-03 02:52:23 | 51.45116 | 7.99548 | 66° | 51km/h | 953m | -2.2m/s | 13.0°C | 75.0% | 914.9hPa | 2.8V | 07:05:00 | 00:00:00 | 00:00:00 | |
| DD1CC8 | 2026-09-03 02:52:22 | 51.45106 | 7.99511 | 66° | 49km/h | 957m | -2.3m/s | 12.9°C | 75.2% | 914.5hPa | 2.8V | 00:00:00 | 00:00:00 | 00:00:00 | |
| DM0DOS-11 | 2026-09-03 02:52:22 | 51.45080 | 7.99418 | 66° | 49km/h | 969m | -2.3m/s | 12.9°C | 75.4% | 913.2hPa | 2.8V | 07:05:32 | 03:35:54 | 00:00:00 | |
| BIOWL1-15 | 2026-09-03 02:52:16 | 51.45070 | 7.99380 | 66° | 49km/h | 973m | -2.2m/s | 12.9°C | 79.6% | 912.7hPa | 2.8V | 07:06:23 | 03:35:52 | 00:00:00 | |
| DM0DOS-11 | 2026-09-03 02:52:16 | 51.45070 | 7.99380 | 65° | 49km/h | 973m | -2.2m/s | 12.8°C | 75.7% | 912.7hPa | 2.8V | 07:05:34 | 03:35:52 | 00:00:00 | |
| BIOWL1-15 | 2026-09-03 02:52:16 | 51.45065 | 7.99362 | 66° | 51km/h | 975m | -2.2m/s | 12.8°C | 79.9% | 912.4hPa | 2.7V | 07:06:23 | 03:35:51 | 00:00:00 | |
| BIOWL1-15 | 2026-09-03 02:52:12 | 51.45055 | 7.99324 | 67° | 49km/h | 980m | -2.5m/s | 12.8°C | 80.3% | 912hPa | 2.8V | 07:06:23 | 03:35:49 | 00:00:00 | |
| BIOWL1-15 | 2026-09-03 02:52:11 | 51.45050 | 7.99305 | 66° | 51km/h | 982m | -2.6m/s | 12.8°C | 80.5% | 911.7hPa | 2.8V | 07:06:23 | 03:35:48 | 00:00:00 | |
| DM0DOS-11 | 2026-09-03 02:52:10 | 51.45040 | 7.99268 | 66° | 51km/h | 987m | -2.1m/s | 12.7°C | 76.1% | 911.1hPa | 2.8V | 07:05:40 | 03:35:46 | 00:00:00 | |
| DM0DOS-11 | 2026-09-03 02:52:10 | 51.45030 | 7.99230 | 66° | 51km/h | 991m | -2.1m/s | 12.7°C | 76.3% | 910.7hPa | 2.8V | 07:05:42 | 03:35:44 | 00:00:00 | |
| BIOWL1-15 | 2026-09-03 02:52:09 | 51.45040 | 7.99268 | 67° | 51km/h | 987m | -2.1m/s | 12.7°C | 81.1% | 911.1hPa | 2.8V | 07:06:23 | 03:35:46 | 00:00:00 | |
| BIOWL1-15 | 2026-09-03 02:52:08 | 51.45035 | 7.99249 | 67° | 51km/h | 989m | -2.2m/s | 12.7°C | 81.4% | 910.9hPa | 2.8V | 07:06:23 | 03:35:45 | 00:00:00 | |
| BIOWL1-15 | 2026-09-03 02:52:06 | 51.45025 | 7.99211 | 66° | 51km/h | 993m | -2.2m/s | 12.7°C | 81.9% | 910.4hPa | 2.8V | 07:06:23 | 03:35:43 | 00:00:00 | |
| BIOWL9-15 | 2026-09-03 02:52:05 | 51.45019 | 7.99193 | 65° | 49km/h | 995m | -2.2m/s | 12.7°C | 76.4% | 910.2hPa | 2.8V | 00:00:00 | 00:00:00 | 00:00:00 | |
| BIOWL1-15 | 2026-09-03 02:52:05 | 51.45019 | 7.99193 | 65° | 51km/h | 996m | -2.2m/s | 12.7°C | 81.6% | 910.2hPa | 2.8V | 07:06:23 | 03:35:42 | 00:00:00 | |
| DM0DOS-11 | 2026-09-03 02:52:04 | 51.44999 | 7.99119 | 66° | 49km/h | 1004m | -2.1m/s | 12.6°C | 76.8% | 909.2hPa | 2.8V | 07:05:48 | 03:35:38 | 00:00:00 | |
| BIOWL1-15 | 2026-09-03 02:52:04 | 51.45009 | 7.99156 | 66° | 49km/h | 1000m | -2.1m/s | 12.6°C | 81.4% | 909.9hPa | 2.8V | 07:06:23 | 03:35:40 | 00:00:00 | |
| BIOWL1-15 | 2026-09-03 02:52:04 | 51.45004 | 7.99138 | 66° | 49km/h | 1002m | -2m/s | 12.6°C | 81.1% | 909.7hPa | 2.7V | 07:06:23 | 03:35:39 | 00:00:00 | |
| BIOWL1-15 | 2026-09-03 02:52:00 | 51.44979 | 7.99047 | 66° | 49km/h | 1012m | -2.2m/s | 12.5°C | 81.4% | 908.4hPa | 2.8V | 07:06:23 | 03:35:34 | 00:00:00 | |
| BIOWL1-15 | 2026-09-03 02:52:00 | 51.44974 | 7.99028 | 66° | 49km/h | 1014m | -2.1m/s | 12.5°C | 81.3% | 908.1hPa | 2.8V | 07:06:23 | 03:35:33 | 00:00:00 | |
| DM0DOS-11 | 2026-09-03 02:51:58 | 51.44979 | 7.99047 | 66° | 49km/h | 1012m | -2.2m/s | 12.5°C | 77.1% | 908.4hPa | 2.8V | 07:05:52 | 03:35:34 | 00:00:00 | |
| DM0DOS-11 | 2026-09-03 02:51:58 | 51.44958 | 7.98974 | 64° | 49km/h | 1020m | -2.1m/s | 12.4°C | 77.5% | 907.5hPa | 2.8V | 07:05:56 | 03:35:30 | 00:00:00 | |
| BIOWL1-15 | 2026-09-03 02:51:55 | 51.44969 | 7.99010 | 66° | 49km/h | 1016m | -2.1m/s | 12.5°C | 81.3% | 908hPa | 2.8V | 07:06:23 | 03:35:32 | 00:00:00 | |
| BIOWL1-15 | 2026-09-03 02:51:54 | 51.44963 | 7.98992 | 66° | 49km/h | 1018m | -2.2m/s | 12.4°C | 81.4% | 907.8hPa | 2.8V | 07:06:23 | 03:35:31 | 00:00:00 | |
| DM0DOS-11 | 2026-09-03 02:51:52 | 51.44948 | 7.98938 | 66° | 47km/h | 1025m | -2.2m/s | 12.4°C | 77.6% | 907.2hPa | 2.8V | 07:05:58 | 03:35:28 | 00:00:00 | |
| DM0DOS-11 | 2026-09-03 02:51:52 | 51.44929 | 7.98866 | 67° | 47km/h | 1033m | -2m/s | 12.3°C | 77.9% | 906.2hPa | 2.8V | 07:06:02 | 03:35:24 | 00:00:00 | |
| BIOWL1-15 | 2026-09-03 02:51:52 | 51.44953 | 7.98956 | 66° | 49km/h | 1023m | -2m/s | 12.4°C | 81.6% | 907.4hPa | 2.8V | 07:06:23 | 03:35:29 | 00:00:00 | |
| BIOWL1-15 | 2026-09-03 02:51:50 | 51.44943 | 7.98920 | 66° | 47km/h | 1027m | -1.9m/s | 12.4°C | 81.6% | 907hPa | 2.7V | 07:06:23 | 03:35:27 | 00:00:00 | |
| BIOWL1-15 | 2026-09-03 02:51:49 | 51.44938 | 7.98902 | 67° | 49km/h | 1029m | -2.1m/s | 12.3°C | 81.5% | 906.8hPa | 2.8V | 07:06:23 | 03:35:26 | 00:00:00 | |
| BIOWL1-15 | 2026-09-03 02:51:47 | 51.44929 | 7.98866 | 67° | 47km/h | 1033m | -2m/s | 12.3°C | 81.7% | 906.2hPa | 2.8V | 07:06:23 | 03:35:24 | 00:00:00 | |
| BIOWL7-15 | 2026-09-03 02:51:46 | 51.44929 | 7.98866 | 68° | 47km/h | 1033m | -2.0m/s | 12.3°C | 78.0% | 906.2hPa | 2.8V | 07:06:00 | 00:00:00 | 00:00:00 | |
| DM0DOS-11 | 2026-09-03 02:51:46 | 51.44910 | 7.98795 | 67° | 47km/h | 1042m | -2.5m/s | 12.2°C | 78.3% | 905.2hPa | 2.8V | 07:06:06 | 03:35:20 | 00:00:00 | |
| DM0DOS-11 | 2026-09-03 02:51:46 | 51.44901 | 7.98760 | 67° | 46km/h | 1047m | -2.3m/s | 12.2°C | 78.4% | 904.9hPa | 2.8V | 07:06:08 | 03:35:18 | 00:00:00 | |
| BIOWL1-15 | 2026-09-03 02:51:45 | 51.44915 | 7.98813 | 67° | 47km/h | 1040m | -2.2m/s | 12.2°C | 82.4% | 905.6hPa | 2.8V | 07:06:23 | 03:35:21 | 00:00:00 | |
| BIOWL1-15 | 2026-09-03 02:51:45 | 51.44910 | 7.98795 | 67° | 47km/h | 1042m | -2.5m/s | 12.2°C | 82.6% | 905.2hPa | 2.8V | 07:06:23 | 03:35:20 | 00:00:00 | |
| BIOWL1-15 | 2026-09-03 02:51:41 | 51.44897 | 7.98743 | 67° | 46km/h | 1049m | -2.3m/s | 12.2°C | 82.9% | 904.6hPa | 2.8V | 07:06:23 | 03:35:17 | 00:00:00 | |
| BIOWL1-15 | 2026-09-03 02:51:41 | 51.44892 | 7.98726 | 67° | 46km/h | 1051m | -2.2m/s | 12.1°C | 82.9% | 904.3hPa | 2.8V | 07:06:23 | 03:35:16 | 00:00:00 | |
| DM0DOS-11 | 2026-09-03 02:51:40 | 51.44892 | 7.98726 | 67° | 46km/h | 1051m | -2.2m/s | 12.1°C | 78.7% | 904.3hPa | 2.8V | 07:06:10 | 03:35:16 | 00:00:00 | |
| DM0DOS-11 | 2026-09-03 02:51:40 | 51.44874 | 7.98657 | 67° | 46km/h | 1059m | -2.1m/s | 12°C | 79% | 903.4hPa | 2.8V | 07:06:14 | 03:35:12 | 00:00:00 | |
| BIOWL1-15 | 2026-09-03 02:51:37 | 51.44870 | 7.98640 | 67° | 46km/h | 1062m | -2.2m/s | 12°C | 83.4% | 903.1hPa | 2.8V | 07:06:23 | 03:35:11 | 00:00:00 | |
| BIOWL1-15 | 2026-09-03 02:51:37 | 51.44865 | 7.98623 | 68° | 46km/h | 1063m | -2.2m/s | 12°C | 83.4% | 903hPa | 2.8V | 07:06:23 | 03:35:10 | 00:00:00 | |
| DM0DOS-11 | 2026-09-03 02:51:34 | 51.44865 | 7.98623 | 67° | 46km/h | 1063m | -2.2m/s | 12°C | 79.3% | 903hPa | 2.8V | 07:06:16 | 03:35:10 | 00:00:00 | |
| DM0DOS-11 | 2026-09-03 02:51:34 | 51.44848 | 7.98555 | 67° | 46km/h | 1072m | -2.1m/s | 11.9°C | 79.5% | 902.1hPa | 2.8V | 07:06:20 | 03:35:06 | 00:00:00 | |
| BIOWL1-15 | 2026-09-03 02:51:31 | 51.44852 | 7.98572 | 68° | 46km/h | 1070m | -2m/s | 11.9°C | 83.1% | 902.2hPa | 2.8V | 07:06:23 | 03:35:07 | 00:00:00 | |
| BIOWL1-15 | 2026-09-03 02:51:31 | 51.44848 | 7.98555 | 68° | 46km/h | 1072m | -2.1m/s | 11.9°C | 83% | 902.1hPa | 2.8V | 07:06:23 | 03:35:06 | 00:00:00 | |
| DD1CC1-15 | 2026-09-03 02:51:29 | 51.44852 | 7.98572 | 69° | 46km/h | 1070m | -2.0m/s | 11.9°C | 79.5% | 902.2hPa | 2.8V | 07:06:00 | 00:00:00 | 00:00:00 | |
| DM0DOS-11 | 2026-09-03 02:51:28 | 51.44839 | 7.98521 | 67° | 46km/h | 1076m | -2.1m/s | 11.9°C | 79.7% | 901.6hPa | 2.8V | 07:06:22 | 03:35:04 | 00:00:00 | |
| BIOWL1-15 | 2026-09-03 02:51:27 | 51.44817 | 7.98433 | 69° | 47km/h | 1086m | -2.3m/s | 11.8°C | 83.8% | 900.5hPa | 2.8V | 07:07:14 | 03:34:59 | 00:00:00 | |
| BIOWL1-15 | 2026-09-03 02:51:27 | 51.44813 | 7.98416 | 69° | 47km/h | 1088m | -2.3m/s | 11.7°C | 83.8% | 900.2hPa | 2.8V | 07:07:14 | 03:34:58 | 00:00:00 | |
| BIOWL7-15 | 2026-09-03 02:51:24 | 51.44830 | 7.98486 | 70° | 46km/h | 1080m | -1.9m/s | 11.8°C | 79.9% | 901.2hPa | 2.8V | 07:07:00 | 00:00:00 | 00:00:00 | |
| DD1CC3-15 | 2026-09-03 02:51:22 | 51.44821 | 7.98451 | 69° | 47km/h | 1084m | -2.4m/s | 11.8°C | 80.1% | 900.6hPa | 2.8V | 07:07:00 | 00:00:00 | 00:00:00 | |
| DM0DOS-11 | 2026-09-03 02:51:22 | 51.44813 | 7.98416 | 68° | 47km/h | 1088m | -2.3m/s | 11.7°C | 80.2% | 900.2hPa | 2.8V | 07:06:28 | 03:34:58 | 00:00:00 | |
| DM0DOS-11 | 2026-09-03 02:51:22 | 51.44796 | 7.98345 | 69° | 46km/h | 1098m | -2.3m/s | 11.8°C | 80% | 899.3hPa | 2.8V | 07:06:32 | 03:34:54 | 00:00:00 | |
| BIOWL1-15 | 2026-09-03 02:51:19 | 51.44792 | 7.98328 | 69° | 46km/h | 1100m | -2.3m/s | 11.8°C | 83.9% | 899hPa | 2.8V | 07:07:14 | 03:34:53 | 00:00:00 | |
| BIOWL1-15 | 2026-09-03 02:51:19 | 51.44787 | 7.98310 | 69° | 46km/h | 1102m | -2.4m/s | 11.8°C | 84% | 898.8hPa | 2.7V | 07:07:14 | 03:34:52 | 00:00:00 | |
| DM0DOS-11 | 2026-09-03 02:51:16 | 51.44788 | 7.98310 | 69° | 46km/h | 1102m | -2.4m/s | 11.8°C | 80.1% | 898.8hPa | 2.7V | 07:06:34 | 03:34:52 | 00:00:00 | |
| DM0DOS-11 | 2026-09-03 02:51:16 | 51.44772 | 7.98242 | 69° | 46km/h | 1112m | -2.5m/s | 11.7°C | 80.2% | 897.8hPa | 2.8V | 07:06:38 | 03:34:48 | 00:00:00 | |
| BIOWL1-15 | 2026-09-03 02:51:13 | 51.44767 | 7.98225 | 69° | 46km/h | 1114m | -2.6m/s | 11.7°C | 85.1% | 897.4hPa | 2.8V | 07:07:14 | 03:34:47 | 00:00:00 | |
| BIOWL1-15 | 2026-09-03 02:51:13 | 51.44763 | 7.98207 | 70° | 46km/h | 1117m | -2.5m/s | 11.6°C | 85.2% | 897.4hPa | 2.8V | 07:07:14 | 03:34:46 | 00:00:00 | |
| BIOWL1-15 | 2026-09-03 02:51:07 | 51.44755 | 7.98172 | 69° | 47km/h | 1122m | -2.5m/s | 11.6°C | 85.3% | 896.7hPa | 2.8V | 07:07:14 | 03:34:44 | 00:00:00 | |
| BIOWL1-15 | 2026-09-03 02:51:06 | 51.44751 | 7.98155 | 69° | 47km/h | 1124m | -2.6m/s | 11.6°C | 85.6% | 896.4hPa | 2.8V | 07:07:14 | 03:34:43 | 00:00:00 | |
| BIOWL7-15 | 2026-09-03 02:51:04 | 51.44747 | 7.98137 | 70° | 47km/h | 1127m | -2.7m/s | 11.5°C | 81.2% | 896.1hPa | 2.8V | 07:07:00 | 00:00:00 | 00:00:00 | |
| DM0DOS-11 | 2026-09-03 02:51:04 | 51.44729 | 7.98066 | 68° | 46km/h | 1136m | -2.4m/s | 11.5°C | 81.3% | 895.3hPa | 2.8V | 07:06:48 | 03:34:38 | 00:00:00 | |
| DM0DOS-11 | 2026-09-03 02:51:04 | 51.44721 | 7.98031 | 68° | 46km/h | 1141m | -2.3m/s | 11.4°C | 81.4% | 894.7hPa | 2.8V | 07:06:50 | 03:34:36 | 00:00:00 | |
| BIOWL1-15 | 2026-09-03 02:51:04 | 51.44742 | 7.98119 | 69° | 47km/h | 1129m | -2.3m/s | 11.5°C | 85.6% | 895.9hPa | 2.7V | 07:07:14 | 03:34:41 | 00:00:00 | |
| BIOWL1-15 | 2026-09-03 02:51:03 | 51.44738 | 7.98101 | 68° | 47km/h | 1132m | -2.3m/s | 11.5°C | 85.9% | 895.7hPa | 2.8V | 07:07:14 | 03:34:40 | 00:00:00 | |
| BIOWL1-15 | 2026-09-03 02:51:01 | 51.44717 | 7.98014 | 68° | 46km/h | 1143m | -2.4m/s | 11.4°C | 86.7% | 894.3hPa | 2.8V | 07:07:14 | 03:34:35 | 00:00:00 | |
| BIOWL1-15 | 2026-09-03 02:51:01 | 51.44712 | 7.97996 | 68° | 47km/h | 1145m | -2.4m/s | 11.4°C | 86.8% | 894hPa | 2.8V | 07:07:14 | 03:34:34 | 00:00:00 | |
| DM0DOS-11 | 2026-09-03 02:50:58 | 51.44712 | 7.97996 | 68° | 47km/h | 1145m | -2.4m/s | 11.4°C | 81.7% | 894hPa | 2.8V | 07:06:52 | 03:34:34 | 00:00:00 | |
| DM0DOS-11 | 2026-09-03 02:50:58 | 51.44704 | 7.97961 | 68° | 47km/h | 1150m | -2.3m/s | 11.3°C | 81.8% | 893.6hPa | 2.8V | 07:06:54 | 03:34:32 | 00:00:00 | |
| BIOWL1-15 | 2026-09-03 02:50:55 | 51.44699 | 7.97943 | 68° | 46km/h | 1152m | -2.2m/s | 11.3°C | 86.8% | 893.4hPa | 2.8V | 07:07:14 | 03:34:31 | 00:00:00 | |
| BIOWL1-15 | 2026-09-03 02:50:55 | 51.44695 | 7.97926 | 68° | 47km/h | 1154m | -2.1m/s | 11.3°C | 86.7% | 893.2hPa | 2.7V | 07:07:14 | 03:34:30 | 00:00:00 | |
| DM0DOS-11 | 2026-09-03 02:50:52 | 51.44686 | 7.97891 | 68° | 47km/h | 1159m | -2.3m/s | 11.3°C | 82.2% | 892.7hPa | 2.8V | 07:06:58 | 03:34:28 | 00:00:00 | |
| DM0DOS-11 | 2026-09-03 02:50:52 | 51.44668 | 7.97820 | 68° | 46km/h | 1167m | -2.2m/s | 11.2°C | 82.7% | 891.8hPa | 2.8V | 07:07:02 | 03:34:24 | 00:00:00 | |
| BIOWL1-15 | 2026-09-03 02:50:51 | 51.44686 | 7.97891 | 68° | 47km/h | 1159m | -2.3m/s | 11.3°C | 86.6% | 892.7hPa | 2.8V | 07:07:14 | 03:34:28 | 00:00:00 | |
| BIOWL1-15 | 2026-09-03 02:50:49 | 51.44677 | 7.97855 | 68° | 46km/h | 1163m | -2.4m/s | 11.2°C | 86.4% | 892.3hPa | 2.8V | 07:07:14 | 03:34:26 | 00:00:00 | |
| BIOWL1-15 | 2026-09-03 02:50:47 | 51.44668 | 7.97820 | 68° | 46km/h | 1168m | -2.2m/s | 11.2°C | 86.2% | 891.8hPa | 2.8V | 07:07:14 | 03:34:24 | 00:00:00 | |
| BIOWL1-15 | 2026-09-03 02:50:46 | 51.44664 | 7.97803 | 69° | 46km/h | 1170m | -2.3m/s | 11.2°C | 86.3% | 891.6hPa | 2.8V | 07:07:14 | 03:34:23 | 00:00:00 | |
| BIOWL1-15 | 2026-09-03 02:50:44 | 51.44655 | 7.97768 | 69° | 46km/h | 1174m | -2.4m/s | 11.1°C | 86.6% | 890.9hPa | 2.8V | 07:07:14 | 03:34:21 | 00:00:00 | |
| BIOWL1-15 | 2026-09-03 02:50:42 | 51.44647 | 7.97733 | 68° | 46km/h | 1179m | -2.3m/s | 11.1°C | 86.8% | 890.5hPa | 2.7V | 07:07:14 | 03:34:19 | 00:00:00 | |
| DD1CC3-15 | 2026-09-03 02:50:40 | 51.44642 | 7.97716 | 70° | 46km/h | 1181m | -2.4m/s | 11.0°C | 83.2% | 890.3hPa | 2.8V | 07:07:00 | 00:00:00 | 00:00:00 | |
| DM0DOS-11 | 2026-09-03 02:50:40 | 51.44627 | 7.97646 | 69° | 46km/h | 1190m | -2.4m/s | 11°C | 83.5% | 889.1hPa | 2.8V | 07:07:12 | 03:34:14 | 00:00:00 | |
| DM0DOS-11 | 2026-09-03 02:50:40 | 51.44619 | 7.97611 | 69° | 46km/h | 1195m | -2.3m/s | 10.9°C | 83.8% | 888.9hPa | 2.8V | 07:07:14 | 03:34:12 | 00:00:00 | |
| BIOWL1-15 | 2026-09-03 02:50:40 | 51.44639 | 7.97698 | 70° | 46km/h | 1184m | -2.2m/s | 11°C | 87.1% | 890hPa | 2.8V | 07:07:14 | 03:34:17 | 00:00:00 | |
| BIOWL1-15 | 2026-09-03 02:50:38 | 51.44626 | 7.97646 | 70° | 46km/h | 1190m | -2.4m/s | 11°C | 87.3% | 889.1hPa | 2.8V | 07:07:14 | 03:34:14 | 00:00:00 | |
| BIOWL1-15 | 2026-09-03 02:50:38 | 51.44622 | 7.97629 | 70° | 46km/h | 1192m | -2.4m/s | 10.9°C | 87.6% | 888.9hPa | 2.8V | 07:07:14 | 03:34:13 | 00:00:00 | |
| BIOWL1-15 | 2026-09-03 02:50:34 | 51.44614 | 7.97594 | 69° | 46km/h | 1197m | -2.5m/s | 10.9°C | 88.1% | 888.5hPa | 2.8V | 07:08:05 | 03:34:11 | 00:00:00 | |
| BIOWL1-15 | 2026-09-03 02:50:34 | 51.44610 | 7.97577 | 70° | 46km/h | 1199m | -2.4m/s | 10.9°C | 88.2% | 888.2hPa | 2.8V | 07:08:05 | 03:34:10 | 00:00:00 | |
| DM0DOS-11 | 2026-09-03 02:50:34 | 51.44603 | 7.97542 | 68° | 46km/h | 1204m | -2.5m/s | 10.8°C | 84.2% | 887.8hPa | 2.7V | 07:07:18 | 03:34:08 | 00:00:00 | |
| DM0DOS-11 | 2026-09-03 02:50:34 | 51.44594 | 7.97508 | 68° | 46km/h | 1209m | -2.6m/s | 10.8°C | 84.4% | 887.3hPa | 2.8V | 07:07:20 | 03:34:06 | 00:00:00 | |
| BIOWL1-15 | 2026-09-03 02:50:31 | 51.44598 | 7.97525 | 70° | 46km/h | 1206m | -2.3m/s | 10.8°C | 88.7% | 887.5hPa | 2.8V | 07:08:05 | 03:34:07 | 00:00:00 | |
| BIOWL1-15 | 2026-09-03 02:50:31 | 51.44594 | 7.97508 | 69° | 46km/h | 1209m | -2.6m/s | 10.8°C | 88.9% | 887.3hPa | 2.8V | 07:08:05 | 03:34:06 | 00:00:00 | |
| DM0DOS-11 | 2026-09-03 02:50:28 | 51.44578 | 7.97438 | 69° | 47km/h | 1219m | -2.5m/s | 10.7°C | 84.8% | 886.1hPa | 2.8V | 07:07:24 | 03:34:02 | 00:00:00 | |
| DM0DOS-11 | 2026-09-03 02:50:28 | 51.44569 | 7.97403 | 68° | 46km/h | 1223m | -2.4m/s | 10.6°C | 85% | 885.7hPa | 2.8V | 07:07:26 | 03:34:00 | 00:00:00 | |
| BIOWL1-15 | 2026-09-03 02:50:27 | 51.44586 | 7.97473 | 70° | 46km/h | 1213m | -2.6m/s | 10.7°C | 89% | 886.8hPa | 2.8V | 07:08:05 | 03:34:04 | 00:00:00 | |
| BIOWL1-15 | 2026-09-03 02:50:25 | 51.44578 | 7.97438 | 69° | 47km/h | 1219m | -2.5m/s | 10.7°C | 89.2% | 886.1hPa | 2.8V | 07:08:05 | 03:34:02 | 00:00:00 | |
| BIOWL1-15 | 2026-09-03 02:50:24 | 51.44574 | 7.97420 | 69° | 46km/h | 1221m | -2.5m/s | 10.7°C | 89.2% | 886hPa | 2.8V | 07:08:05 | 03:34:01 | 00:00:00 | |
| BIOWL1-15 | 2026-09-03 02:50:23 | 51.44569 | 7.97403 | 69° | 46km/h | 1223m | -2.4m/s | 10.6°C | 89.3% | 885.7hPa | 2.8V | 07:08:05 | 03:34:00 | 00:00:00 | |
| BIOWL7-15 | 2026-09-03 02:50:22 | 51.44569 | 7.97403 | 70° | 46km/h | 1223m | -2.4m/s | 10.6°C | 85.0% | 885.7hPa | 2.8V | 07:08:00 | 00:00:00 | 00:00:00 | |
| DM0DOS-11 | 2026-09-03 02:50:22 | 51.44544 | 7.97300 | 68° | 46km/h | 1238m | -2.2m/s | 10.6°C | 84.7% | 884.1hPa | 2.8V | 07:07:32 | 03:33:54 | 00:00:00 | |
| BIOWL1-15 | 2026-09-03 02:50:22 | 51.44565 | 7.97385 | 68° | 46km/h | 1226m | -2.4m/s | 10.6°C | 89.3% | 885.3hPa | 2.8V | 07:08:05 | 03:33:59 | 00:00:00 | |
| BIOWL1-15 | 2026-09-03 02:50:20 | 51.44548 | 7.97317 | 68° | 46km/h | 1235m | -2.4m/s | 10.6°C | 88% | 884.5hPa | 2.8V | 07:08:05 | 03:33:55 | 00:00:00 | |
| BIOWL1-15 | 2026-09-03 02:50:20 | 51.44544 | 7.97300 | 69° | 46km/h | 1238m | -2.3m/s | 10.6°C | 87.9% | 884.1hPa | 2.8V | 07:08:05 | 03:33:54 | 00:00:00 | |
| BIOWL1-15 | 2026-09-03 02:50:18 | 51.44540 | 7.97283 | 67° | 46km/h | 1240m | -2.5m/s | 10.5°C | 87.7% | 883.8hPa | 2.8V | 07:08:05 | 03:33:53 | 00:00:00 | |
| DM0DOS-11 | 2026-09-03 02:50:16 | 51.44527 | 7.97231 | 67° | 47km/h | 1247m | -2.5m/s | 10.5°C | 84.9% | 883.2hPa | 2.8V | 07:07:36 | 03:33:50 | 00:00:00 | |
| BIOWL1-15 | 2026-09-03 02:50:14 | 51.44518 | 7.97194 | 71° | 47km/h | 1252m | -2.5m/s | 10.4°C | 88.6% | 882.5hPa | 2.8V | 07:08:05 | 03:33:48 | 00:00:00 | |
| BIOWL1-15 | 2026-09-03 02:50:14 | 51.44514 | 7.97176 | 69° | 49km/h | 1255m | -2.5m/s | 10.4°C | 88.7% | 882.2hPa | 2.7V | 07:08:05 | 03:33:47 | 00:00:00 | |
| DO3DL | 2026-09-03 02:50:10 | 51.44518 | 7.97194 | 72° | 47km/h | 1252m | -2.5m/s | 10.4°C | 84.9% | 882.5hPa | 2.8V | 07:08:00 | 00:00:00 | 00:00:00 | |
| DM0DOS-11 | 2026-09-03 02:50:10 | 51.44501 | 7.97119 | 68° | 49km/h | 1262m | -2.8m/s | 10.3°C | 85.4% | 881.4hPa | 2.8V | 07:07:42 | 03:33:44 | 00:00:00 | |
| BIOWL1-15 | 2026-09-03 02:50:08 | 51.44505 | 7.97138 | 71° | 49km/h | 1259m | -2.7m/s | 10.4°C | 89.2% | 881.8hPa | 2.8V | 07:08:05 | 03:33:45 | 00:00:00 | |
| BIOWL1-15 | 2026-09-03 02:50:06 | 51.44496 | 7.97100 | 72° | 49km/h | 1264m | -2.4m/s | 10.3°C | 89.4% | 881.2hPa | 2.8V | 07:08:05 | 03:33:43 | 00:00:00 | |
| BIOWL1-15 | 2026-09-03 02:50:05 | 51.44493 | 7.97081 | 73° | 51km/h | 1267m | -3.1m/s | 10.3°C | 89.7% | 880.9hPa | 2.8V | 07:08:05 | 03:33:42 | 00:00:00 | |
| DB0UT-7 | 2026-09-03 02:50:05 | 51.44492 | 7.97081 | 74° | 51km/h | 1267m | -3.0m/s | 10.2°C | 85.6% | 880.9hPa | 2.7V | 00:00:00 | 00:00:00 | 00:00:00 | |
| DM0DOS-11 | 2026-09-03 02:50:04 | 51.44485 | 7.97041 | 74° | 51km/h | 1273m | -2.6m/s | 10.2°C | 85.8% | 880.4hPa | 2.8V | 07:07:46 | 03:33:40 | 00:00:00 | |
| DM0DOS-11 | 2026-09-03 02:50:04 | 51.44478 | 7.97003 | 72° | 49km/h | 1278m | -2.5m/s | 10.2°C | 86.1% | 879.9hPa | 2.8V | 07:07:48 | 03:33:38 | 00:00:00 | |
| BIOWL1-15 | 2026-09-03 02:50:03 | 51.44485 | 7.97041 | 74° | 51km/h | 1273m | -2.6m/s | 10.2°C | 89.7% | 880.4hPa | 2.8V | 07:08:05 | 03:33:40 | 00:00:00 | |
| BIOWL1-15 | 2026-09-03 02:50:03 | 51.44482 | 7.97022 | 73° | 49km/h | 1276m | -2.3m/s | 10.2°C | 89.8% | 880.1hPa | 2.8V | 07:08:05 | 03:33:39 | 00:00:00 | |
| BIOWL1-15 | 2026-09-03 02:50:00 | 51.44471 | 7.96963 | 75° | 53km/h | 1283m | -3m/s | 10.1°C | 89.8% | 879.3hPa | 2.8V | 07:08:05 | 03:33:36 | 00:00:00 | |
| BIOWL1-15 | 2026-09-03 02:50:00 | 51.44467 | 7.96943 | 72° | 51km/h | 1286m | -2.8m/s | 10.1°C | 89.7% | 879hPa | 2.8V | 07:08:05 | 03:33:35 | 00:00:00 | |
| DD1CC3-15 | 2026-09-03 02:49:59 | 51.44474 | 7.96983 | 77° | 49km/h | 1280m | -2.4m/s | 10.2°C | 86.1% | 879.7hPa | 2.8V | 07:08:00 | 00:00:00 | 00:00:00 | |
| DM0DOS-11 | 2026-09-03 02:49:58 | 51.44464 | 7.96923 | 76° | 51km/h | 1288m | -2.4m/s | 10.1°C | 86.5% | 878.7hPa | 2.8V | 07:07:52 | 03:33:34 | 00:00:00 | |
| DM0DOS-11 | 2026-09-03 02:49:58 | 51.44457 | 7.96883 | 75° | 51km/h | 1293m | -2.5m/s | 10.1°C | 86.6% | 878.2hPa | 2.8V | 07:07:54 | 03:33:32 | 00:00:00 | |
| BIOWL1-15 | 2026-09-03 02:49:56 | 51.44461 | 7.96903 | 75° | 53km/h | 1291m | -2.2m/s | 10.1°C | 89.7% | 878.5hPa | 2.8V | 07:08:05 | 03:33:33 | 00:00:00 | |
| BIOWL1-15 | 2026-09-03 02:49:55 | 51.44457 | 7.96883 | 75° | 51km/h | 1293m | -2.5m/s | 10.1°C | 89.6% | 878.2hPa | 2.8V | 07:08:05 | 03:33:32 | 00:00:00 | |
| BIOWL1-15 | 2026-09-03 02:49:53 | 51.44450 | 7.96843 | 75° | 51km/h | 1298m | -2.4m/s | 10.1°C | 89.5% | 877.7hPa | 2.8V | 07:08:05 | 03:33:30 | 00:00:00 | |
| DM0DOS-11 | 2026-09-03 02:49:52 | 51.44438 | 7.96763 | 77° | 49km/h | 1308m | -2.6m/s | 10°C | 86.2% | 876.8hPa | 2.8V | 07:08:00 | 03:33:26 | 00:00:00 | |
| BIOWL1-15 | 2026-09-03 02:49:52 | 51.44447 | 7.96823 | 77° | 49km/h | 1301m | -2.6m/s | 10°C | 89.2% | 877.6hPa | 2.8V | 07:08:05 | 03:33:29 | 00:00:00 | |
| BIOWL1-15 | 2026-09-03 02:49:50 | 51.44441 | 7.96783 | 76° | 51km/h | 1305m | -2.6m/s | 10°C | 89% | 877.1hPa | 2.7V | 07:08:05 | 03:33:27 | 00:00:00 | |
| BIOWL1-15 | 2026-09-03 02:49:49 | 51.44438 | 7.96763 | 78° | 49km/h | 1308m | -2.6m/s | 10°C | 88.7% | 876.8hPa | 2.8V | 07:08:05 | 03:33:26 | 00:00:00 | |
| BIOWL1-15 | 2026-09-03 02:49:48 | 51.44435 | 7.96743 | 76° | 49km/h | 1311m | -2.9m/s | 10°C | 88.7% | 876.5hPa | 2.8V | 07:08:05 | 03:33:25 | 00:00:00 | |
| DD1CC8 | 2026-09-03 02:49:47 | 51.44432 | 7.96723 | 75° | 51km/h | 1313m | -2.6m/s | 10.2°C | 86.9% | 876.3hPa | 2.8V | 00:00:00 | 00:00:00 | 00:00:00 | |
| DM0DOS-11 | 2026-09-03 02:49:46 | 51.44426 | 7.96683 | 76° | 51km/h | 1319m | -3.1m/s | 10.1°C | 87.1% | 875.7hPa | 2.8V | 07:08:04 | 03:33:22 | 00:00:00 | |
| BIOWL1-15 | 2026-09-03 02:49:46 | 51.44429 | 7.96703 | 77° | 51km/h | 1316m | -2.7m/s | 10.1°C | 90% | 876.1hPa | 2.8V | 07:08:05 | 03:33:23 | 00:00:00 | |
| BIOWL1-15 | 2026-09-03 02:49:44 | 51.44423 | 7.96662 | 77° | 51km/h | 1322m | -2.6m/s | 10.2°C | 90.8% | 875.5hPa | 2.8V | 07:08:05 | 03:33:21 | 00:00:00 | |
| BIOWL1-15 | 2026-09-03 02:49:43 | 51.44420 | 7.96642 | 77° | 51km/h | 1324m | -2.3m/s | 10.2°C | 90.8% | 875.2hPa | 2.8V | 07:08:56 | 03:33:20 | 00:00:00 | |
| BIOWL1-15 | 2026-09-03 02:49:41 | 51.44405 | 7.96538 | 77° | 53km/h | 1336m | -2.5m/s | 10.3°C | 92.9% | 874.1hPa | 2.8V | 07:08:56 | 03:33:15 | 00:00:00 | |
| BIOWL1-15 | 2026-09-03 02:49:41 | 51.44402 | 7.96517 | 77° | 53km/h | 1338m | -2.4m/s | 10.3°C | 92.9% | 873.7hPa | 2.8V | 07:08:56 | 03:33:14 | 00:00:00 | |
| DB0UT-7 | 2026-09-03 02:49:41 | 51.44414 | 7.96601 | 78° | 53km/h | 1329m | -2.6m/s | 10.1°C | 87.1% | 874.8hPa | 2.8V | 00:00:00 | 00:00:00 | 00:00:00 | |
| DM0DOS-11 | 2026-09-03 02:49:40 | 51.44402 | 7.96517 | 77° | 53km/h | 1338m | -2.4m/s | 10.3°C | 89.3% | 873.7hPa | 2.8V | 07:08:12 | 03:33:14 | 00:00:00 | |
| BIOWL1-15 | 2026-09-03 02:49:35 | 51.44396 | 7.96476 | 77° | 53km/h | 1343m | -2.6m/s | 10.3°C | 93% | 873.1hPa | 2.8V | 07:08:56 | 03:33:12 | 00:00:00 | |
| DM0DOS-11 | 2026-09-03 02:49:34 | 51.44384 | 7.96393 | 77° | 53km/h | 1353m | -2.5m/s | 10.2°C | 90.4% | 872.3hPa | 2.8V | 07:08:18 | 03:33:08 | 00:00:00 | |
| BIOWL1-15 | 2026-09-03 02:49:33 | 51.44387 | 7.96414 | 77° | 53km/h | 1351m | -2.5m/s | 10.2°C | 93.7% | 872.4hPa | 2.8V | 07:08:56 | 03:33:09 | 00:00:00 | |
| BIOWL1-15 | 2026-09-03 02:49:33 | 51.44384 | 7.96393 | 77° | 53km/h | 1353m | -2.5m/s | 10.2°C | 94% | 872.3hPa | 2.8V | 07:08:56 | 03:33:08 | 00:00:00 | |
| BIOWL1-15 | 2026-09-03 02:49:30 | 51.44381 | 7.96372 | 78° | 53km/h | 1356m | -2.5m/s | 10.2°C | 94.8% | 872hPa | 2.7V | 07:08:56 | 03:33:07 | 00:00:00 | |
| DO3DL | 2026-09-03 02:49:29 | 51.44381 | 7.96372 | 79° | 53km/h | 1356m | -2.5m/s | 10.2°C | 91.0% | 872.0hPa | 2.8V | 07:08:00 | 00:00:00 | 00:00:00 | |
| DM0DOS-11 | 2026-09-03 02:49:28 | 51.44368 | 7.96267 | 79° | 53km/h | 1368m | -2.4m/s | 10.2°C | 92.9% | 870.7hPa | 2.8V | 07:08:24 | 03:33:02 | 00:00:00 | |
| DM0DOS-11 | 2026-09-03 02:49:28 | 51.44363 | 7.96224 | 79° | 55km/h | 1373m | -2.6m/s | 10.1°C | 94.2% | 870.2hPa | 2.8V | 07:08:26 | 03:33:00 | 00:00:00 | |
| BIOWL1-15 | 2026-09-03 02:49:28 | 51.44375 | 7.96330 | 78° | 53km/h | 1361m | -2.3m/s | 10.2°C | 94.8% | 871.4hPa | 2.8V | 07:08:56 | 03:33:05 | 00:00:00 | |
| BIOWL1-15 | 2026-09-03 02:49:27 | 51.44373 | 7.96309 | 79° | 53km/h | 1363m | -2.3m/s | 10.2°C | 95.1% | 871.1hPa | 2.8V | 07:08:56 | 03:33:04 | 00:00:00 | |
| BIOWL1-15 | 2026-09-03 02:49:25 | 51.44368 | 7.96267 | 79° | 53km/h | 1368m | -2.4m/s | 10.2°C | 95.5% | 870.7hPa | 2.8V | 07:08:56 | 03:33:02 | 00:00:00 | |
| BIOWL1-15 | 2026-09-03 02:49:23 | 51.44363 | 7.96224 | 80° | 55km/h | 1373m | -2.6m/s | 10.1°C | 96.6% | 870.2hPa | 2.8V | 07:08:56 | 03:33:00 | 00:00:00 | |
| DM0DOS-11 | 2026-09-03 02:49:22 | 51.44358 | 7.96180 | 80° | 55km/h | 1378m | -2.4m/s | 10.1°C | 94.4% | 869.8hPa | 2.7V | 07:08:28 | 03:32:58 | 00:00:00 | |
| DM0DOS-11 | 2026-09-03 02:49:22 | 51.44350 | 7.96092 | 81° | 55km/h | 1388m | -2.7m/s | 10°C | 94.7% | 868.5hPa | 2.8V | 07:08:32 | 03:32:54 | 00:00:00 | |
| BIOWL1-15 | 2026-09-03 02:49:21 | 51.44356 | 7.96158 | 81° | 55km/h | 1381m | -2.5m/s | 10°C | 97.2% | 869.4hPa | 2.8V | 07:08:56 | 03:32:57 | 00:00:00 | |
| BIOWL1-15 | 2026-09-03 02:49:21 | 51.44354 | 7.96136 | 82° | 55km/h | 1383m | -2.5m/s | 10°C | 97.4% | 869.1hPa | 2.8V | 07:08:56 | 03:32:56 | 00:00:00 | |
| BIOWL1-15 | 2026-09-03 02:49:17 | 51.44350 | 7.96092 | 82° | 55km/h | 1388m | -2.7m/s | 10°C | 97.8% | 868.5hPa | 2.8V | 07:08:56 | 03:32:54 | 00:00:00 | |
| DM0DOS-11 | 2026-09-03 02:49:16 | 51.44339 | 7.95961 | 83° | 53km/h | 1405m | -2.7m/s | 9.8°C | 95.5% | 866.8hPa | 2.7V | 07:08:38 | 03:32:48 | 00:00:00 | |
| BIOWL1-15 | 2026-09-03 02:49:16 | 51.44348 | 7.96070 | 82° | 55km/h | 1391m | -2.8m/s | 10°C | 97.9% | 868.2hPa | 2.8V | 07:08:56 | 03:32:53 | 00:00:00 | |
| BIOWL1-15 | 2026-09-03 02:49:14 | 51.44343 | 7.96005 | 83° | 55km/h | 1399m | -2.8m/s | 9.9°C | 97.9% | 867.4hPa | 2.8V | 07:08:56 | 03:32:50 | 00:00:00 | |
| BIOWL1-15 | 2026-09-03 02:49:14 | 51.44341 | 7.95983 | 83° | 55km/h | 1402m | -2.5m/s | 9.9°C | 98% | 867.1hPa | 2.8V | 07:08:56 | 03:32:49 | 00:00:00 | |
| BIOWL1-15 | 2026-09-03 02:49:11 | 51.44339 | 7.95961 | 83° | 53km/h | 1405m | -2.7m/s | 9.8°C | 98.1% | 866.8hPa | 2.7V | 07:08:56 | 03:32:48 | 00:00:00 | |
| BIOWL1-15 | 2026-09-03 02:49:09 | 51.44326 | 7.95809 | 82° | 55km/h | 1423m | -2.4m/s | 9.7°C | 98.2% | 865hPa | 2.8V | 07:08:56 | 03:32:41 | 00:00:00 | |
| BIOWL1-15 | 2026-09-03 02:49:09 | 51.44324 | 7.95787 | 82° | 55km/h | 1425m | -2.6m/s | 9.7°C | 98.3% | 864.6hPa | 2.8V | 07:08:56 | 03:32:40 | 00:00:00 | |
| DO3DL | 2026-09-03 02:49:08 | 51.44336 | 7.95918 | 83° | 53km/h | 1410m | -2.5m/s | 9.9°C | 95.7% | 866.4hPa | 2.8V | 07:08:00 | 00:00:00 | 00:00:00 | |
| DO2KSM | 2026-09-03 02:49:06 | 51.44332 | 7.95875 | 83° | 53km/h | 1415m | -2.8m/s | 9.8°C | 96.0% | 865.8hPa | 2.8V | 07:08:00 | 00:00:00 | 00:00:00 | |
| DO9LL-15 | 2026-09-03 02:49:06 | 51.44330 | 7.95853 | 82° | 55km/h | 1418m | -2.6m/s | 9.7°C | 96.1% | 865.4hPa | 2.8V | 00:00:00 | 03:32:43 | 00:00:00 | |
| DM0DOS-11 | 2026-09-03 02:49:04 | 51.44321 | 7.95743 | 81° | 55km/h | 1430m | -2.7m/s | 9.7°C | 97.4% | 864.2hPa | 2.8V | 07:08:48 | 03:32:38 | 00:00:00 | |
| DM0DOS-11 | 2026-09-03 02:49:04 | 51.44316 | 7.95698 | 81° | 57km/h | 1436m | -2.5m/s | 9.7°C | 97.3% | 863.7hPa | 2.8V | 07:08:50 | 03:32:36 | 00:00:00 | |
| BIOWL1-15 | 2026-09-03 02:49:01 | 51.44319 | 7.95721 | 82° | 57km/h | 1433m | -2.5m/s | 9.7°C | 98.5% | 863.8hPa | 2.8V | 07:08:56 | 03:32:37 | 00:00:00 | |
| BIOWL1-15 | 2026-09-03 02:49:01 | 51.44317 | 7.95698 | 82° | 57km/h | 1436m | -2.5m/s | 9.7°C | 98.6% | 863.7hPa | 2.8V | 07:08:56 | 03:32:36 | 00:00:00 | |
| BIOWL9-15 | 2026-09-03 02:48:59 | 51.44314 | 7.95676 | 80° | 55km/h | 1438m | -2.7m/s | 9.7°C | 97.4% | 863.3hPa | 2.8V | 00:00:00 | 00:00:00 | 00:00:00 | |
| BIOWL7-15 | 2026-09-03 02:48:58 | 51.44316 | 7.95698 | 83° | 57km/h | 1436m | -2.5m/s | 9.7°C | 97.2% | 863.7hPa | 2.8V | 07:08:00 | 00:00:00 | 00:00:00 | |
| DM0DOS-11 | 2026-09-03 02:48:58 | 51.44308 | 7.95609 | 81° | 55km/h | 1446m | -2.7m/s | 9.6°C | 97.6% | 862.6hPa | 2.8V | 07:08:54 | 03:32:32 | 00:00:00 | |
| DM0DOS-11 | 2026-09-03 02:48:58 | 51.44304 | 7.95566 | 81° | 55km/h | 1451m | -2.6m/s | 9.8°C | 97.4% | 861.9hPa | 2.7V | 07:08:56 | 03:32:30 | 00:00:00 | |
| BIOWL1-15 | 2026-09-03 02:48:57 | 51.44312 | 7.95653 | 81° | 57km/h | 1441m | -2.6m/s | 9.6°C | 98.2% | 863.1hPa | 2.8V | 07:08:56 | 03:32:34 | 00:00:00 | |
| BIOWL1-15 | 2026-09-03 02:48:55 | 51.44304 | 7.95566 | 82° | 55km/h | 1451m | -2.6m/s | 9.8°C | 97.9% | 861.9hPa | 2.7V | 07:08:56 | 03:32:30 | 00:00:00 | |
| BIOWL1-15 | 2026-09-03 02:48:55 | 51.44302 | 7.95544 | 81° | 53km/h | 1454m | -2.6m/s | 9.8°C | 98% | 861.6hPa | 2.8V | 07:09:47 | 03:32:29 | 00:00:00 | |
| BIOWL1-15 | 2026-09-03 02:48:53 | 51.44300 | 7.95523 | 82° | 53km/h | 1456m | -2.5m/s | 9.9°C | 98.6% | 861.4hPa | 2.8V | 07:09:47 | 03:32:28 | 00:00:00 | |
| DL8DAS-15 | 2026-09-03 02:48:52 | 51.44303 | 7.95566 | 83° | 55km/h | 1451m | -2.6m/s | 9.8°C | 97.3% | 861.9hPa | 2.8V | 07:08:00 | 00:00:00 | 00:00:00 | |
| DM0DOS-11 | 2026-09-03 02:48:52 | 51.44296 | 7.95480 | 82° | 53km/h | 1461m | -2.5m/s | 9.9°C | 97.5% | 860.9hPa | 2.8V | 07:09:00 | 03:32:26 | 00:00:00 | |
| BIOWL1-15 | 2026-09-03 02:48:49 | 51.44296 | 7.95480 | 83° | 53km/h | 1461m | -2.5m/s | 9.9°C | 98.7% | 860.9hPa | 2.8V | 07:09:47 | 03:32:26 | 00:00:00 | |
| BIOWL1-15 | 2026-09-03 02:48:47 | 51.44293 | 7.95438 | 83° | 53km/h | 1466m | -2.8m/s | 10°C | 98.7% | 860.4hPa | 2.8V | 07:09:47 | 03:32:24 | 00:00:00 | |
| DO2KSM | 2026-09-03 02:48:46 | 51.44292 | 7.95438 | 84° | 53km/h | 1466m | -2.8m/s | 10.0°C | 97.2% | 860.4hPa | 2.8V | 00:00:00 | 00:00:00 | 00:00:00 | |
| DM0DOS-11 | 2026-09-03 02:48:46 | 51.44289 | 7.95395 | 82° | 53km/h | 1471m | -2.6m/s | 10.1°C | 97.5% | 859.8hPa | 2.8V | 07:09:04 | 03:32:22 | 00:00:00 | |
| DM0DOS-11 | 2026-09-03 02:48:46 | 51.44286 | 7.95353 | 83° | 53km/h | 1476m | -2.6m/s | 10.1°C | 97.4% | 859.2hPa | 2.8V | 07:09:06 | 03:32:20 | 00:00:00 | |
| DM0DOS-11 | 2026-09-03 02:48:46 | 51.44283 | 7.95311 | 83° | 51km/h | 1482m | -2.8m/s | 10.1°C | 97.3% | 858.8hPa | 2.8V | 07:09:08 | 03:32:18 | 00:00:00 | |
| BIOWL1-15 | 2026-09-03 02:48:46 | 51.44291 | 7.95416 | 83° | 53km/h | 1469m | -2.5m/s | 10.1°C | 99.2% | 860.2hPa | 2.8V | 07:09:47 | 03:32:23 | 00:00:00 | |
| DD1CC8 | 2026-09-03 02:48:45 | 51.44289 | 7.95395 | 82° | 51km/h | 1471m | -2.6m/s | 10.1°C | 97.4% | 859.8hPa | 2.8V | 00:00:00 | 00:00:00 | 00:00:00 | |
| BIOWL1-15 | 2026-09-03 02:48:44 | 51.44283 | 7.95311 | 83° | 51km/h | 1482m | -2.8m/s | 10.1°C | 99.8% | 858.8hPa | 2.8V | 07:09:47 | 03:32:18 | 00:00:00 | |
| BIOWL1-15 | 2026-09-03 02:48:44 | 51.44282 | 7.95290 | 84° | 53km/h | 1484m | -2.8m/s | 10°C | 99.9% | 858.2hPa | 2.8V | 07:09:47 | 03:32:17 | 00:00:00 | |
| DD1CC1-15 | 2026-09-03 02:48:43 | 51.44287 | 7.95374 | 84° | 53km/h | 1474m | -2.8m/s | 10.1°C | 97.3% | 859.6hPa | 2.8V | 07:09:00 | 00:00:00 | 00:00:00 | |
| DO3DL | 2026-09-03 02:48:41 | 51.44284 | 7.95332 | 85° | 51km/h | 1479m | -2.6m/s | 10.1°C | 97.4% | 859.0hPa | 2.8V | 00:00:00 | 00:00:00 | 00:00:00 | |
| DB0UT-7 | 2026-09-03 02:48:41 | 51.44283 | 7.95311 | 84° | 53km/h | 1482m | -2.8m/s | 10.0°C | 97.3% | 858.8hPa | 2.8V | 00:00:00 | 00:00:00 | 00:00:00 | |
| DM0DOS-11 | 2026-09-03 02:48:40 | 51.44280 | 7.95269 | 84° | 51km/h | 1487m | -2.6m/s | 10°C | 97.5% | 858.2hPa | 2.8V | 07:09:10 | 03:32:16 | 00:00:00 | |
| DM0DOS-11 | 2026-09-03 02:48:40 | 51.44275 | 7.95185 | 84° | 53km/h | 1498m | -2.9m/s | 10°C | 97.5% | 857.1hPa | 2.7V | 07:09:14 | 03:32:12 | 00:00:00 | |
| BIOWL1-15 | 2026-09-03 02:48:38 | 51.44276 | 7.95206 | 84° | 53km/h | 1495m | -2.8m/s | 10°C | 99.9% | 857.4hPa | 2.8V | 07:09:47 | 03:32:13 | 00:00:00 | |
| BIOWL1-15 | 2026-09-03 02:48:38 | 51.44275 | 7.95185 | 84° | 53km/h | 1498m | -2.9m/s | 10°C | 99.9% | 857.1hPa | 2.7V | 07:09:47 | 03:32:12 | 00:00:00 | |
| BIOWL7-15 | 2026-09-03 02:48:37 | 51.44279 | 7.95248 | 85° | 51km/h | 1490m | -2.7m/s | 10.0°C | 97.2% | 858.0hPa | 2.8V | 07:09:00 | 00:00:00 | 00:00:00 | |
| DD1CC3-15 | 2026-09-03 02:48:37 | 51.44279 | 7.95248 | 85° | 51km/h | 1490m | -2.7m/s | 10.0°C | 97.2% | 858.0hPa | 2.8V | 07:09:00 | 00:00:00 | 00:00:00 | |
| DO9LL-15 | 2026-09-03 02:48:36 | 51.44276 | 7.95206 | 85° | 53km/h | 1495m | -2.7m/s | 9.9°C | 97.5% | 857.4hPa | 2.8V | 00:00:00 | 03:32:13 | 00:00:00 | |
| BIOWL1-15 | 2026-09-03 02:48:36 | 51.44274 | 7.95164 | 84° | 53km/h | 1501m | -2.8m/s | 10°C | 99.9% | 856.8hPa | 2.8V | 07:09:47 | 03:32:11 | 00:00:00 | |
| DO3DL | 2026-09-03 02:48:35 | 51.44276 | 7.95206 | 85° | 53km/h | 1495m | -2.8m/s | 10.0°C | 97.4% | 857.4hPa | 2.8V | 00:00:00 | 00:00:00 | 00:00:00 | |
| DM0DOS-11 | 2026-09-03 02:48:34 | 51.44269 | 7.95101 | 83° | 53km/h | 1509m | -2.8m/s | 10°C | 97.2% | 856.1hPa | 2.8V | 07:09:18 | 03:32:08 | 00:00:00 | |
| DM0DOS-11 | 2026-09-03 02:48:34 | 51.44266 | 7.95059 | 83° | 53km/h | 1514m | -2.9m/s | 10°C | 97% | 855.4hPa | 2.8V | 07:09:20 | 03:32:06 | 00:00:00 | |
| BIOWL1-15 | 2026-09-03 02:48:32 | 51.44269 | 7.95101 | 83° | 53km/h | 1509m | -2.8m/s | 10°C | 99.8% | 856.1hPa | 2.8V | 07:09:47 | 03:32:08 | 00:00:00 | |
| BIOWL1-15 | 2026-09-03 02:48:32 | 51.44268 | 7.95080 | 83° | 53km/h | 1512m | -2.8m/s | 10°C | 99.6% | 855.8hPa | 2.8V | 07:09:47 | 03:32:07 | 00:00:00 | |
| DB0UT-7 | 2026-09-03 02:48:31 | 51.44269 | 7.95101 | 84° | 51km/h | 1509m | -2.7m/s | 9.9°C | 97.2% | 856.0hPa | 2.7V | 07:09:00 | 03:32:08 | 00:00:00 | |
| DO3DL | 2026-09-03 02:48:29 | 51.44268 | 7.95080 | 84° | 53km/h | 1512m | -2.8m/s | 10.0°C | 96.9% | 855.8hPa | 2.8V | 00:00:00 | 00:00:00 | 00:00:00 | |
| DM0DOS-11 | 2026-09-03 02:48:28 | 51.44258 | 7.94934 | 83° | 51km/h | 1531m | -2.8m/s | 10°C | 96.2% | 853.8hPa | 2.8V | 07:09:26 | 03:32:00 | 00:00:00 | |
| BIOWL1-15 | 2026-09-03 02:48:28 | 51.44265 | 7.95038 | 83° | 53km/h | 1517m | -3m/s | 10°C | 99.5% | 855.2hPa | 2.8V | 07:09:47 | 03:32:05 | 00:00:00 | |
| BIOWL1-15 | 2026-09-03 02:48:26 | 51.44262 | 7.94996 | 84° | 51km/h | 1523m | -2.8m/s | 10°C | 99.3% | 854.7hPa | 2.7V | 07:09:47 | 03:32:03 | 00:00:00 | |
| BIOWL1-15 | 2026-09-03 02:48:24 | 51.44255 | 7.94893 | 84° | 51km/h | 1536m | -2.8m/s | 10°C | 99.4% | 853hPa | 2.8V | 07:09:47 | 03:31:58 | 00:00:00 | |
| BIOWL1-15 | 2026-09-03 02:48:24 | 51.44254 | 7.94872 | 84° | 51km/h | 1539m | -3m/s | 10°C | 99.4% | 852.9hPa | 2.8V | 07:09:47 | 03:31:57 | 00:00:00 | |
| DO3DL | 2026-09-03 02:48:23 | 51.44258 | 7.94934 | 85° | 51km/h | 1531m | -2.8m/s | 10.0°C | 96.1% | 853.8hPa | 2.8V | 00:00:00 | 00:00:00 | 00:00:00 | |
| DM0DOS-11 | 2026-09-03 02:48:22 | 51.44252 | 7.94852 | 84° | 51km/h | 1542m | -3m/s | 9.9°C | 96% | 852.7hPa | 2.8V | 07:09:30 | 03:31:56 | 00:00:00 | |
| BIOWL1-15 | 2026-09-03 02:48:18 | 51.44250 | 7.94811 | 84° | 51km/h | 1548m | -2.8m/s | 9.9°C | 98.9% | 852hPa | 2.7V | 07:09:47 | 03:31:54 | 00:00:00 | |
| BIOWL1-15 | 2026-09-03 02:48:18 | 51.44249 | 7.94790 | 85° | 51km/h | 1551m | -2.9m/s | 9.9°C | 98.9% | 851.7hPa | 2.8V | 07:09:47 | 03:31:53 | 00:00:00 | |
| BIOWL1-15 | 2026-09-03 02:48:14 | 51.44246 | 7.94749 | 85° | 51km/h | 1556m | -2.8m/s | 10°C | 98.7% | 851.1hPa | 2.8V | 07:09:47 | 03:31:51 | 00:00:00 | |
| BIOWL1-15 | 2026-09-03 02:48:12 | 51.44243 | 7.94688 | 85° | 51km/h | 1565m | -2.8m/s | 9.9°C | 98.7% | 850.2hPa | 2.8V | 07:09:47 | 03:31:48 | 00:00:00 | |
| BIOWL1-15 | 2026-09-03 02:48:12 | 51.44241 | 7.94667 | 85° | 51km/h | 1568m | -2.9m/s | 9.9°C | 98.8% | 850hPa | 2.8V | 07:09:47 | 03:31:47 | 00:00:00 | |
| DB0UT-7 | 2026-09-03 02:48:11 | 51.44242 | 7.94688 | 85° | 51km/h | 1565m | -2.8m/s | 9.9°C | 95.2% | 850.2hPa | 2.8V | 00:00:00 | 03:31:48 | 00:00:00 | |
| DM0DOS-11 | 2026-09-03 02:48:10 | 51.44240 | 7.94646 | 84° | 51km/h | 1571m | -3m/s | 9.9°C | 95.4% | 849.6hPa | 2.8V | 07:09:40 | 03:31:46 | 00:00:00 | |
| BIOWL1-15 | 2026-09-03 02:48:09 | 51.44240 | 7.94646 | 85° | 51km/h | 1571m | -3.1m/s | 9.9°C | 98.9% | 849.6hPa | 2.8V | 07:09:47 | 03:31:46 | 00:00:00 | |
| BIOWL1-15 | 2026-09-03 02:48:07 | 51.44237 | 7.94585 | 85° | 51km/h | 1579m | -2.9m/s | 9.8°C | 99.2% | 848.7hPa | 2.8V | 07:09:47 | 03:31:43 | 00:00:00 | |
| BIOWL1-15 | 2026-09-03 02:48:07 | 51.44236 | 7.94564 | 85° | 51km/h | 1582m | -2.8m/s | 9.8°C | 99.3% | 848.5hPa | 2.8V | 07:09:47 | 03:31:42 | 00:00:00 | |
| DO3DL | 2026-09-03 02:48:06 | 51.44238 | 7.94605 | 85° | 51km/h | 1576m | -2.8m/s | 9.8°C | 95.7% | 849.1hPa | 2.8V | 00:00:00 | 00:00:00 | 00:00:00 | |
| DO9LL-15 | 2026-09-03 02:48:06 | 51.44237 | 7.94584 | 85° | 51km/h | 1579m | -2.8m/s | 9.8°C | 95.8% | 848.7hPa | 2.8V | 00:00:00 | 03:31:43 | 00:00:00 | |
| DO2KSM | 2026-09-03 02:48:05 | 51.44236 | 7.94564 | 86° | 51km/h | 1582m | -2.8m/s | 9.8°C | 95.7% | 848.4hPa | 2.8V | 00:00:00 | 00:00:00 | 00:00:00 | |
| DM0DOS-11 | 2026-09-03 02:48:04 | 51.44231 | 7.94480 | 84° | 51km/h | 1593m | -2.9m/s | 9.7°C | 96.5% | 847.4hPa | 2.8V | 07:09:48 | 03:31:38 | 00:00:00 | |
| DM0DOS-11 | 2026-09-03 02:48:04 | 51.44229 | 7.94438 | 84° | 53km/h | 1598m | -2.8m/s | 9.7°C | 96.6% | 846.8hPa | 2.8V | 07:09:50 | 03:31:36 | 00:00:00 | |
| BIOWL1-15 | 2026-09-03 02:48:04 | 51.44234 | 7.94543 | 85° | 51km/h | 1584m | -2.8m/s | 9.8°C | 99.3% | 848.2hPa | 2.8V | 07:09:47 | 03:31:41 | 00:00:00 | |
| BIOWL1-15 | 2026-09-03 02:48:02 | 51.44232 | 7.94501 | 85° | 51km/h | 1590m | -2.8m/s | 9.7°C | 99.3% | 847.6hPa | 2.8V | 07:09:47 | 03:31:39 | 00:00:00 | |
| BIOWL1-15 | 2026-09-03 02:48:01 | 51.44231 | 7.94480 | 85° | 51km/h | 1593m | -2.9m/s | 9.7°C | 99.2% | 847.4hPa | 2.8V | 07:10:38 | 03:31:38 | 00:00:00 | |
| BIOWL1-15 | 2026-09-03 02:47:59 | 51.44229 | 7.94438 | 85° | 53km/h | 1598m | -2.8m/s | 9.7°C | 99.3% | 846.9hPa | 2.8V | 07:10:38 | 03:31:36 | 00:00:00 | |
| DM0DOS-11 | 2026-09-03 02:47:58 | 51.44224 | 7.94354 | 85° | 51km/h | 1610m | -2.8m/s | 9.6°C | 96.8% | 845.7hPa | 2.8V | 07:09:54 | 03:31:32 | 00:00:00 | |
| BIOWL1-15 | 2026-09-03 02:47:58 | 51.44228 | 7.94417 | 85° | 53km/h | 1601m | -2.9m/s | 9.6°C | 99.5% | 846.5hPa | 2.8V | 07:10:38 | 03:31:35 | 00:00:00 | |
| BIOWL1-15 | 2026-09-03 02:47:57 | 51.44226 | 7.94396 | 85° | 53km/h | 1604m | -3m/s | 9.6°C | 99.6% | 846.2hPa | 2.8V | 07:10:38 | 03:31:34 | 00:00:00 | |
| BIOWL1-15 | 2026-09-03 02:47:55 | 51.44224 | 7.94354 | 85° | 51km/h | 1610m | -2.8m/s | 9.6°C | 99.6% | 845.7hPa | 2.8V | 07:10:38 | 03:31:32 | 00:00:00 | |
| BIOWL1-15 | 2026-09-03 02:47:53 | 51.44221 | 7.94291 | 85° | 51km/h | 1618m | -2.8m/s | 9.5°C | 100% | 844.9hPa | 2.8V | 07:10:38 | 03:31:29 | 00:00:00 | |
| BIOWL1-15 | 2026-09-03 02:47:53 | 51.44219 | 7.94270 | 85° | 53km/h | 1621m | -2.8m/s | 9.5°C | 100% | 844.6hPa | 2.7V | 07:10:38 | 03:31:28 | 00:00:00 | |
| DM0DOS-11 | 2026-09-03 02:47:52 | 51.44219 | 7.94270 | 84° | 53km/h | 1621m | -2.8m/s | 9.5°C | 97.2% | 844.6hPa | 2.7V | 07:09:58 | 03:31:28 | 00:00:00 | |
| BIOWL1-15 | 2026-09-03 02:47:49 | 51.44217 | 7.94228 | 86° | 53km/h | 1627m | -2.9m/s | 9.4°C | 100% | 844hPa | 2.8V | 07:10:38 | 03:31:26 | 00:00:00 | |
| BIOWL1-15 | 2026-09-03 02:47:48 | 51.44216 | 7.94206 | 85° | 53km/h | 1630m | -3m/s | 9.4°C | 100% | 843.7hPa | 2.8V | 07:10:38 | 03:31:25 | 00:00:00 | |
| BIOWL1-15 | 2026-09-03 02:47:47 | 51.44215 | 7.94185 | 85° | 53km/h | 1633m | -2.9m/s | 9.4°C | 100% | 843.3hPa | 2.8V | 07:10:38 | 03:31:24 | 00:00:00 | |
| DO3DL | 2026-09-03 02:47:46 | 51.44215 | 7.94185 | 86° | 53km/h | 1633m | -2.9m/s | 9.4°C | 97.5% | 843.3hPa | 2.8V | 07:10:00 | 00:00:00 | 00:00:00 | |
| DM0DOS-11 | 2026-09-03 02:47:46 | 51.44213 | 7.94143 | 84° | 53km/h | 1639m | -3.1m/s | 9.3°C | 97.7% | 842.9hPa | 2.8V | 07:10:04 | 03:31:22 | 00:00:00 | |
| BIOWL1-15 | 2026-09-03 02:47:46 | 51.44214 | 7.94164 | 85° | 53km/h | 1636m | -3.1m/s | 9.4°C | 100% | 843.1hPa | 2.8V | 07:10:38 | 03:31:23 | 00:00:00 | |
| BIOWL1-15 | 2026-09-03 02:47:44 | 51.44211 | 7.94122 | 85° | 53km/h | 1642m | -3m/s | 9.3°C | 100% | 842.5hPa | 2.8V | 07:10:38 | 03:31:21 | 00:00:00 | |
| BIOWL1-15 | 2026-09-03 02:47:42 | 51.44208 | 7.94059 | 85° | 53km/h | 1651m | -2.8m/s | 9.3°C | 100% | 841.7hPa | 2.8V | 07:10:38 | 03:31:18 | 00:00:00 | |
| BIOWL1-15 | 2026-09-03 02:47:42 | 51.44207 | 7.94037 | 84° | 53km/h | 1654m | -3m/s | 9.2°C | 100% | 841.4hPa | 2.8V | 07:10:38 | 03:31:17 | 00:00:00 | |
| BIOWL1-15 | 2026-09-03 02:47:38 | 51.44203 | 7.93974 | 85° | 53km/h | 1662m | -2.9m/s | 9.2°C | 100% | 840.4hPa | 2.8V | 07:10:38 | 03:31:14 | 00:00:00 | |
| BIOWL1-15 | 2026-09-03 02:47:38 | 51.44202 | 7.93953 | 86° | 53km/h | 1665m | -3m/s | 9.1°C | 100% | 840.1hPa | 2.7V | 07:10:38 | 03:31:13 | 00:00:00 | |
| BIOWL1-15 | 2026-09-03 02:47:34 | 51.44200 | 7.93890 | 86° | 51km/h | 1674m | -2.8m/s | 9.1°C | 100% | 839.2hPa | 2.8V | 07:10:38 | 03:31:10 | 00:00:00 | |
| DM0DOS-11 | 2026-09-03 02:47:34 | 51.44200 | 7.93890 | 86° | 51km/h | 1674m | -2.8m/s | 9.1°C | 98.8% | 839.2hPa | 2.8V | 07:10:16 | 03:31:10 | 00:00:00 | |
| DM0DOS-11 | 2026-09-03 02:47:34 | 51.44198 | 7.93849 | 86° | 51km/h | 1680m | -3m/s | 9°C | 99.1% | 838.7hPa | 2.8V | 07:10:18 | 03:31:08 | 00:00:00 | |
| BIOWL1-15 | 2026-09-03 02:47:34 | 51.44199 | 7.93869 | 86° | 51km/h | 1677m | -2.9m/s | 9.1°C | 100% | 839hPa | 2.8V | 07:10:38 | 03:31:09 | 00:00:00 | |
| BIOWL1-15 | 2026-09-03 02:47:30 | 51.44196 | 7.93807 | 86° | 51km/h | 1686m | -2.8m/s | 9°C | 100% | 838.1hPa | 2.7V | 07:10:38 | 03:31:06 | 00:00:00 | |
| BIOWL1-15 | 2026-09-03 02:47:30 | 51.44195 | 7.93786 | 86° | 51km/h | 1688m | -2.6m/s | 9°C | 100% | 837.9hPa | 2.8V | 07:10:38 | 03:31:05 | 00:00:00 | |
| DM0DOS-11 | 2026-09-03 02:47:28 | 51.44193 | 7.93724 | 86° | 53km/h | 1696m | -2.8m/s | 8.9°C | 99.6% | 837hPa | 2.8V | 07:10:24 | 03:31:02 | 00:00:00 | |
| BIOWL1-15 | 2026-09-03 02:47:26 | 51.44193 | 7.93745 | 86° | 51km/h | 1693m | -2.8m/s | 8.9°C | 100% | 837.2hPa | 2.8V | 07:10:38 | 03:31:03 | 00:00:00 | |
| BIOWL1-15 | 2026-09-03 02:47:24 | 51.44192 | 7.93703 | 86° | 53km/h | 1699m | -2.9m/s | 8.9°C | 100% | 836.7hPa | 2.8V | 07:10:38 | 03:31:01 | 00:00:00 | |
| DM0DOS-11 | 2026-09-03 02:47:22 | 51.44189 | 7.93639 | 86° | 53km/h | 1707m | -2.9m/s | 8.8°C | 0% | 835.7hPa | 2.7V | 07:10:28 | 03:30:58 | 00:00:00 | |
| DM0DOS-11 | 2026-09-03 02:47:22 | 51.44187 | 7.93597 | 85° | 51km/h | 1713m | -2.8m/s | 8.8°C | 0% | 835.1hPa | 2.7V | 07:10:30 | 03:30:56 | 00:00:00 | |
| BIOWL1-15 | 2026-09-03 02:47:22 | 51.44190 | 7.93660 | 86° | 53km/h | 1705m | -2.8m/s | 8.8°C | 100% | 836hPa | 2.8V | 07:10:38 | 03:30:59 | 00:00:00 | |
| BIOWL1-15 | 2026-09-03 02:47:20 | 51.44188 | 7.93618 | 87° | 51km/h | 1710m | -2.7m/s | 8.8°C | 100% | 835.5hPa | 2.7V | 07:10:38 | 03:30:57 | 00:00:00 | |
| BIOWL1-15 | 2026-09-03 02:47:19 | 51.44187 | 7.93597 | 86° | 51km/h | 1713m | -2.8m/s | 8.8°C | 100% | 835.1hPa | 2.7V | 07:10:38 | 03:30:56 | 00:00:00 | |
| BIOWL1-15 | 2026-09-03 02:47:17 | 51.44185 | 7.93555 | 86° | 51km/h | 1718m | -2.7m/s | 8.8°C | 100% | 834.7hPa | 2.8V | 07:10:38 | 03:30:54 | 00:00:00 | |
| DM0DOS-11 | 2026-09-03 02:47:16 | 51.44183 | 7.93514 | 86° | 51km/h | 1724m | -2.4m/s | 8.7°C | 0% | 834.2hPa | 2.7V | 07:10:34 | 03:30:52 | 00:00:00 | |
| BIOWL1-15 | 2026-09-03 02:47:15 | 51.44183 | 7.93493 | 85° | 51km/h | 1726m | -2.8m/s | 8.7°C | 100% | 833.9hPa | 2.7V | 07:10:38 | 03:30:51 | 00:00:00 | |
| BIOWL1-15 | 2026-09-03 02:47:15 | 51.44182 | 7.93472 | 86° | 51km/h | 1729m | -2.8m/s | 8.7°C | 100% | 833.6hPa | 2.7V | 07:10:38 | 03:30:50 | 00:00:00 | |
| BIOWL1-15 | 2026-09-03 02:47:12 | 51.44181 | 7.93451 | 86° | 51km/h | 1732m | -2.5m/s | 8.7°C | 100% | 833.3hPa | 2.7V | 07:10:38 | 03:30:49 | 00:00:00 | |
| BIOWL1-15 | 2026-09-03 02:47:11 | 51.44180 | 7.93430 | 85° | 51km/h | 1734m | -2.7m/s | 8.7°C | 100% | 833.1hPa | 2.7V | 07:10:38 | 03:30:48 | 00:00:00 | |
| DB0UT-7 | 2026-09-03 02:47:11 | 51.44180 | 7.93430 | 86° | 51km/h | 1734m | -2.7m/s | 8.7°C | 99.7% | 833.1hPa | 2.7V | 07:10:00 | 03:30:48 | 00:00:00 | |
| DM0DOS-11 | 2026-09-03 02:47:09 | 51.44171 | 7.93285 | 84° | 51km/h | 1754m | -2.8m/s | 8.7°C | 98% | 831.2hPa | 2.7V | 07:10:45 | 03:30:41 | 00:00:00 | |
| BIOWL1-15 | 2026-09-03 02:47:09 | 51.44177 | 7.93388 | 85° | 51km/h | 1739m | -2.8m/s | 8.7°C | 100% | 832.5hPa | 2.7V | 07:11:29 | 03:30:46 | 00:00:00 | |
| BIOWL1-15 | 2026-09-03 02:47:08 | 51.44176 | 7.93367 | 85° | 51km/h | 1742m | -2.9m/s | 8.8°C | 100% | 832.2hPa | 2.7V | 07:11:29 | 03:30:45 | 00:00:00 | |
| BIOWL1-15 | 2026-09-03 02:47:07 | 51.44175 | 7.93347 | 84° | 51km/h | 1745m | -2.7m/s | 8.8°C | 99.6% | 832.1hPa | 2.7V | 07:11:29 | 03:30:44 | 00:00:00 | |
| BIOWL1-15 | 2026-09-03 02:47:05 | 51.44172 | 7.93306 | 84° | 51km/h | 1751m | -2.8m/s | 8.7°C | 100% | 831.4hPa | 2.7V | 07:11:29 | 03:30:42 | 00:00:00 | |
| DM0DOS-11 | 2026-09-03 02:47:03 | 51.44166 | 7.93203 | 84° | 51km/h | 1764m | -2.7m/s | 8.7°C | 96.6% | 830hPa | 2.7V | 07:10:49 | 03:30:37 | 00:00:00 | |
| DM0DOS-11 | 2026-09-03 02:47:03 | 51.44164 | 7.93163 | 84° | 49km/h | 1770m | -2.8m/s | 8.6°C | 95.2% | 829.5hPa | 2.8V | 07:10:51 | 03:30:35 | 00:00:00 | |
| BIOWL1-15 | 2026-09-03 02:47:03 | 51.44170 | 7.93265 | 84° | 51km/h | 1756m | -2.6m/s | 8.7°C | 100% | 831hPa | 2.7V | 07:11:29 | 03:30:40 | 00:00:00 | |
| BIOWL1-15 | 2026-09-03 02:47:02 | 51.44168 | 7.93244 | 85° | 51km/h | 1759m | -2.8m/s | 8.7°C | 100% | 830.6hPa | 2.8V | 07:11:29 | 03:30:39 | 00:00:00 | |
| BIOWL1-15 | 2026-09-03 02:47:01 | 51.44167 | 7.93224 | 84° | 51km/h | 1762m | -2.8m/s | 8.7°C | 99.9% | 830.3hPa | 2.8V | 07:11:29 | 03:30:38 | 00:00:00 | |
| BIOWL1-15 | 2026-09-03 02:46:59 | 51.44165 | 7.93183 | 85° | 51km/h | 1767m | -2.7m/s | 8.7°C | 98.3% | 829.6hPa | 2.8V | 07:11:29 | 03:30:36 | 00:00:00 | |
| BIOWL1-15 | 2026-09-03 02:46:58 | 51.44163 | 7.93163 | 84° | 51km/h | 1770m | -2.8m/s | 8.6°C | 98.2% | 829.5hPa | 2.8V | 07:11:29 | 03:30:35 | 00:00:00 | |
| DM0DOS-11 | 2026-09-03 02:46:57 | 51.44160 | 7.93122 | 84° | 51km/h | 1776m | -2.8m/s | 8.6°C | 95.3% | 828.9hPa | 2.7V | 07:10:53 | 03:30:33 | 00:00:00 | |
| DM0DOS-11 | 2026-09-03 02:46:57 | 51.44158 | 7.93082 | 83° | 51km/h | 1781m | -2.8m/s | 8.6°C | 95.2% | 828.5hPa | 2.8V | 07:10:55 | 03:30:31 | 00:00:00 | |
| BIOWL1-15 | 2026-09-03 02:46:56 | 51.44161 | 7.93122 | 84° | 51km/h | 1776m | -2.8m/s | 8.6°C | 98.2% | 828.9hPa | 2.7V | 07:11:29 | 03:30:33 | 00:00:00 | |
| BIOWL1-15 | 2026-09-03 02:46:54 | 51.44156 | 7.93061 | 84° | 51km/h | 1784m | -2.6m/s | 8.6°C | 98.6% | 828.3hPa | 2.8V | 07:11:29 | 03:30:30 | 00:00:00 | |
| BIOWL1-15 | 2026-09-03 02:46:54 | 51.44155 | 7.93041 | 83° | 51km/h | 1787m | -2.8m/s | 8.5°C | 98.7% | 827.8hPa | 2.7V | 07:11:29 | 03:30:29 | 00:00:00 | |
| DL8DAS-14 | 2026-09-03 02:46:52 | 51.44155 | 7.93041 | 82° | 49km/h | 1787m | -2.8m/s | 8.5°C | 95.5% | 827.8hPa | 2.7V | 00:00:00 | 00:00:00 | 00:00:00 | |
| DM0DOS-11 | 2026-09-03 02:46:51 | 51.44152 | 7.92999 | 84° | 51km/h | 1792m | -2.8m/s | 8.5°C | 95.8% | 827.3hPa | 2.7V | 07:10:59 | 03:30:27 | 00:00:00 | |
| DM0DOS-11 | 2026-09-03 02:46:51 | 51.44147 | 7.92915 | 84° | 53km/h | 1803m | -2.6m/s | 8.4°C | 96.3% | 826.3hPa | 2.7V | 07:11:03 | 03:30:23 | 00:00:00 | |
| BIOWL1-15 | 2026-09-03 02:46:51 | 51.44154 | 7.93020 | 84° | 51km/h | 1789m | -2.8m/s | 8.5°C | 98.8% | 827.7hPa | 2.7V | 07:11:29 | 03:30:28 | 00:00:00 | |
| BIOWL1-15 | 2026-09-03 02:46:49 | 51.44150 | 7.92957 | 84° | 53km/h | 1798m | -2.6m/s | 8.4°C | 98.8% | 826.8hPa | 2.7V | 07:11:29 | 03:30:25 | 00:00:00 | |
| BIOWL1-15 | 2026-09-03 02:46:49 | 51.44148 | 7.92936 | 84° | 53km/h | 1800m | -2.7m/s | 8.4°C | 98.8% | 826.7hPa | 2.8V | 07:11:29 | 03:30:24 | 00:00:00 | |
| BIOWL1-15 | 2026-09-03 02:46:46 | 51.44147 | 7.92915 | 85° | 53km/h | 1803m | -2.6m/s | 8.4°C | 99% | 826.3hPa | 2.7V | 07:11:29 | 03:30:23 | 00:00:00 | |
| BIOWL1-15 | 2026-09-03 02:46:44 | 51.44144 | 7.92873 | 84° | 53km/h | 1808m | -2.6m/s | 8.4°C | 99.2% | 825.7hPa | 2.7V | 07:11:29 | 03:30:21 | 00:00:00 | |
| BIOWL1-15 | 2026-09-03 02:46:42 | 51.44142 | 7.92830 | 84° | 53km/h | 1813m | -2.8m/s | 8.3°C | 99.7% | 825.1hPa | 2.7V | 07:11:29 | 03:30:19 | 00:00:00 | |
| BIOWL1-15 | 2026-09-03 02:46:40 | 51.44139 | 7.92788 | 84° | 53km/h | 1818m | -2.5m/s | 8.3°C | 99.7% | 824.7hPa | 2.7V | 07:11:29 | 03:30:17 | 00:00:00 | |
| DM0DOS-11 | 2026-09-03 02:46:39 | 51.44136 | 7.92745 | 83° | 53km/h | 1824m | -2.7m/s | 8.3°C | 96.9% | 824.2hPa | 2.7V | 07:11:11 | 03:30:15 | 00:00:00 | |
| DM0DOS-11 | 2026-09-03 02:46:39 | 51.44133 | 7.92703 | 83° | 53km/h | 1829m | -2.8m/s | 8.3°C | 97.4% | 823.6hPa | 2.7V | 07:11:13 | 03:30:13 | 00:00:00 | |
| BIOWL1-15 | 2026-09-03 02:46:38 | 51.44136 | 7.92745 | 84° | 53km/h | 1824m | -2.7m/s | 8.3°C | 99.7% | 824.2hPa | 2.7V | 07:11:29 | 03:30:15 | 00:00:00 | |
| BIOWL1-15 | 2026-09-03 02:46:37 | 51.44135 | 7.92724 | 84° | 53km/h | 1826m | -2.6m/s | 8.3°C | 99.9% | 824hPa | 2.8V | 07:11:29 | 03:30:14 | 00:00:00 | |
| BIOWL1-15 | 2026-09-03 02:46:35 | 51.44130 | 7.92661 | 84° | 53km/h | 1835m | -2.7m/s | 8.3°C | 100% | 823.1hPa | 2.7V | 07:11:29 | 03:30:11 | 00:00:00 | |
| BIOWL1-15 | 2026-09-03 02:46:35 | 51.44128 | 7.92639 | 83° | 53km/h | 1837m | -3m/s | 8.3°C | 100% | 822.7hPa | 2.7V | 07:11:29 | 03:30:10 | 00:00:00 | |
| DO3DL | 2026-09-03 02:46:34 | 51.44131 | 7.92682 | 84° | 53km/h | 1832m | -2.9m/s | 8.3°C | 97.1% | 823.4hPa | 2.7V | 07:11:00 | 00:00:00 | 00:00:00 | |
| DL8DAS-15 | 2026-09-03 02:46:34 | 51.44131 | 7.92682 | 84° | 53km/h | 1832m | -2.9m/s | 8.3°C | 97.1% | 823.4hPa | 2.7V | 00:00:00 | 00:00:00 | 00:00:00 | |
| DM0DOS-11 | 2026-09-03 02:46:33 | 51.44127 | 7.92618 | 83° | 53km/h | 1840m | -2.7m/s | 8.2°C | 97.4% | 822.5hPa | 2.7V | 07:11:17 | 03:30:09 | 00:00:00 | |
| DM0DOS-11 | 2026-09-03 02:46:33 | 51.44120 | 7.92533 | 82° | 53km/h | 1851m | -2.6m/s | 8.2°C | 97.5% | 821.5hPa | 2.7V | 07:11:21 | 03:30:05 | 00:00:00 | |
| BIOWL1-15 | 2026-09-03 02:46:31 | 51.44124 | 7.92576 | 83° | 53km/h | 1846m | -2.7m/s | 8.2°C | 100% | 821.9hPa | 2.7V | 07:11:29 | 03:30:07 | 00:00:00 | |
| BIOWL1-15 | 2026-09-03 02:46:31 | 51.44122 | 7.92555 | 83° | 53km/h | 1848m | -2.7m/s | 8.2°C | 100% | 821.8hPa | 2.7V | 07:11:29 | 03:30:06 | 00:00:00 | |
| DB0UT-7 | 2026-09-03 02:46:31 | 51.44125 | 7.92597 | 83° | 53km/h | 1843m | -2.7m/s | 8.2°C | 97.3% | 822.3hPa | 2.7V | 00:00:00 | 03:30:08 | 00:00:00 | |
| BIOWL7-15 | 2026-09-03 02:46:28 | 51.44120 | 7.92533 | 83° | 53km/h | 1851m | -2.6m/s | 8.2°C | 97.2% | 821.5hPa | 2.7V | 07:11:00 | 00:00:00 | 00:00:00 | |
| DO3DL | 2026-09-03 02:46:27 | 51.44120 | 7.92533 | 83° | 53km/h | 1851m | -2.6m/s | 8.2°C | 97.2% | 821.5hPa | 2.7V | 07:11:00 | 00:00:00 | 00:00:00 | |
| DM0DOS-11 | 2026-09-03 02:46:27 | 51.44113 | 7.92448 | 82° | 53km/h | 1861m | -2.6m/s | 8.1°C | 97.6% | 820.5hPa | 2.7V | 07:11:25 | 03:30:01 | 00:00:00 | |
| BIOWL1-15 | 2026-09-03 02:46:27 | 51.44119 | 7.92512 | 83° | 53km/h | 1853m | -2.6m/s | 8.2°C | 100% | 821.1hPa | 2.7V | 07:11:29 | 03:30:04 | 00:00:00 | |
| BIOWL1-15 | 2026-09-03 02:46:25 | 51.44115 | 7.92470 | 82° | 53km/h | 1859m | -2.7m/s | 8.2°C | 100% | 820.7hPa | 2.7V | 07:11:29 | 03:30:02 | 00:00:00 | |
| BIOWL1-15 | 2026-09-03 02:46:24 | 51.44113 | 7.92448 | 82° | 53km/h | 1861m | -2.6m/s | 8.1°C | 100% | 820.5hPa | 2.7V | 07:11:29 | 03:30:01 | 00:00:00 | |
| BIOWL1-15 | 2026-09-03 02:46:22 | 51.44110 | 7.92406 | 82° | 53km/h | 1867m | -2.6m/s | 8.1°C | 100% | 820hPa | 2.7V | 07:11:29 | 03:29:59 | 00:00:00 | |
| DM0DOS-11 | 2026-09-03 02:46:21 | 51.44106 | 7.92365 | 81° | 53km/h | 1871m | -2.7m/s | 8.1°C | 97.8% | 819.5hPa | 2.7V | 07:11:29 | 03:29:57 | 00:00:00 | |
| DM0DOS-11 | 2026-09-03 02:46:21 | 51.44099 | 7.92281 | 82° | 53km/h | 1882m | -2.6m/s | 8°C | 98.1% | 818.4hPa | 2.7V | 07:11:33 | 03:29:53 | 00:00:00 | |
| BIOWL1-15 | 2026-09-03 02:46:20 | 51.44104 | 7.92344 | 82° | 53km/h | 1874m | -2.6m/s | 8°C | 100% | 819hPa | 2.7V | 07:12:20 | 03:29:56 | 00:00:00 | |
| BIOWL1-15 | 2026-09-03 02:46:20 | 51.44102 | 7.92323 | 82° | 53km/h | 1877m | -2.7m/s | 8°C | 100% | 818.8hPa | 2.7V | 07:12:20 | 03:29:55 | 00:00:00 | |
| BIOWL1-15 | 2026-09-03 02:46:16 | 51.44097 | 7.92260 | 82° | 53km/h | 1885m | -2.5m/s | 8°C | 100% | 818.1hPa | 2.7V | 07:12:20 | 03:29:52 | 00:00:00 | |
| BIOWL1-15 | 2026-09-03 02:46:16 | 51.44095 | 7.92238 | 82° | 53km/h | 1887m | -2.9m/s | 8°C | 100% | 817.8hPa | 2.7V | 07:12:20 | 03:29:51 | 00:00:00 | |
| DO2KSM | 2026-09-03 02:46:16 | 51.44099 | 7.92280 | 83° | 53km/h | 1882m | -2.6m/s | 8.0°C | 97.9% | 818.4hPa | 2.7V | 07:12:00 | 00:00:00 | 00:00:00 | |
| DD1CC3-15 | 2026-09-03 02:46:15 | 51.44099 | 7.92280 | 83° | 53km/h | 1882m | -2.6m/s | 8.0°C | 97.9% | 818.4hPa | 2.7V | 07:12:00 | 00:00:00 | 00:00:00 | |
| DM0DOS-11 | 2026-09-03 02:46:15 | 51.44091 | 7.92196 | 81° | 53km/h | 1893m | -2.8m/s | 8°C | 98% | 817.3hPa | 2.7V | 07:11:37 | 03:29:49 | 00:00:00 | |
| BIOWL1-15 | 2026-09-03 02:46:12 | 51.44089 | 7.92175 | 81° | 53km/h | 1895m | -2.7m/s | 8°C | 100% | 817hPa | 2.7V | 07:12:20 | 03:29:48 | 00:00:00 | |
| BIOWL1-15 | 2026-09-03 02:46:12 | 51.44087 | 7.92153 | 81° | 53km/h | 1898m | -2.5m/s | 7.9°C | 100% | 816.9hPa | 2.7V | 07:12:20 | 03:29:47 | 00:00:00 | |
| BIOWL1-15 | 2026-09-03 02:46:08 | 51.44081 | 7.92090 | 81° | 53km/h | 1906m | -2.6m/s | 7.9°C | 100% | 816hPa | 2.7V | 07:12:20 | 03:29:44 | 00:00:00 | |
| BIOWL1-15 | 2026-09-03 02:46:08 | 51.44079 | 7.92069 | 82° | 53km/h | 1908m | -2.9m/s | 7.8°C | 100% | 815.7hPa | 2.7V | 07:12:20 | 03:29:43 | 00:00:00 | |
| BIOWL1-15 | 2026-09-03 02:46:04 | 51.44075 | 7.92026 | 82° | 53km/h | 1914m | -2.7m/s | 7.8°C | 100% | 815.3hPa | 2.7V | 07:12:20 | 03:29:41 | 00:00:00 | |
| DL8DAS-15 | 2026-09-03 02:46:03 | 51.44075 | 7.92026 | 82° | 53km/h | 1914m | -2.7m/s | 7.8°C | 98.5% | 815.3hPa | 2.7V | 00:00:00 | 00:00:00 | 00:00:00 | |
| DM0DOS-11 | 2026-09-03 02:46:03 | 51.44067 | 7.91941 | 81° | 53km/h | 1924m | -2.7m/s | 7.7°C | 99.1% | 814.1hPa | 2.7V | 07:11:49 | 03:29:37 | 00:00:00 | |
| BIOWL1-15 | 2026-09-03 02:46:03 | 51.44073 | 7.92005 | 81° | 53km/h | 1916m | -2.6m/s | 7.8°C | 100% | 815hPa | 2.7V | 07:12:20 | 03:29:40 | 00:00:00 | |
| BIOWL1-15 | 2026-09-03 02:46:01 | 51.44067 | 7.91941 | 81° | 53km/h | 1924m | -2.7m/s | 7.7°C | 100% | 814.1hPa | 2.7V | 07:12:20 | 03:29:37 | 00:00:00 | |
| BIOWL1-15 | 2026-09-03 02:46:01 | 51.44065 | 7.91920 | 82° | 53km/h | 1927m | -2.5m/s | 7.7°C | 100% | 814hPa | 2.7V | 07:12:20 | 03:29:36 | 00:00:00 | |
| BIOWL1-15 | 2026-09-03 02:45:57 | 51.44059 | 7.91856 | 82° | 53km/h | 1935m | -2.8m/s | 7.7°C | 100% | 813.1hPa | 2.7V | 07:12:20 | 03:29:33 | 00:00:00 | |
| DM0DOS-11 | 2026-09-03 02:45:57 | 51.44054 | 7.91813 | 80° | 53km/h | 1940m | -2.8m/s | 7.6°C | 99.4% | 812.6hPa | 2.7V | 07:11:55 | 03:29:31 | 00:00:00 | |
| DM0DOS-11 | 2026-09-03 02:45:57 | 51.44050 | 7.91770 | 80° | 55km/h | 1946m | -2.7m/s | 7.6°C | 99.5% | 812hPa | 2.7V | 07:11:57 | 03:29:29 | 00:00:00 | |
| BIOWL1-15 | 2026-09-03 02:45:57 | 51.44057 | 7.91834 | 81° | 53km/h | 1938m | -2.7m/s | 7.6°C | 100% | 812.9hPa | 2.7V | 07:12:20 | 03:29:32 | 00:00:00 | |
| BIOWL1-15 | 2026-09-03 02:45:53 | 51.44052 | 7.91791 | 81° | 53km/h | 1943m | -2.8m/s | 7.6°C | 100% | 812.2hPa | 2.7V | 07:12:20 | 03:29:30 | 00:00:00 | |
| BIOWL9-15 | 2026-09-03 02:45:52 | 51.44050 | 7.91770 | 80° | 53km/h | 1946m | -2.7m/s | 7.6°C | 99.2% | 812.0hPa | 2.7V | 00:00:00 | 00:00:00 | 00:00:00 | |
| DO9LL-15 | 2026-09-03 02:45:52 | 51.44050 | 7.91769 | 81° | 53km/h | 1946m | -2.7m/s | 7.5°C | 99.5% | 812.0hPa | 2.7V | 00:00:00 | 03:29:29 | 00:00:00 | |
| DM0DOS-11 | 2026-09-03 02:45:51 | 51.44040 | 7.91684 | 79° | 53km/h | 1956m | -2.6m/s | 7.5°C | 99.8% | 811.1hPa | 2.7V | 07:12:01 | 03:29:25 | 00:00:00 | |
| DM0DOS-11 | 2026-09-03 02:45:51 | 51.44035 | 7.91642 | 80° | 53km/h | 1962m | -2.6m/s | 7.5°C | 99.9% | 810.5hPa | 2.7V | 07:12:03 | 03:29:23 | 00:00:00 | |
| BIOWL1-15 | 2026-09-03 02:45:51 | 51.44048 | 7.91748 | 80° | 53km/h | 1949m | -2.7m/s | 7.6°C | 100% | 811.8hPa | 2.7V | 07:12:20 | 03:29:28 | 00:00:00 | |
| BIOWL1-15 | 2026-09-03 02:45:49 | 51.44043 | 7.91705 | 79° | 53km/h | 1954m | -2.7m/s | 7.6°C | 100% | 811.2hPa | 2.7V | 07:12:20 | 03:29:26 | 00:00:00 | |
| BIOWL1-15 | 2026-09-03 02:45:47 | 51.44038 | 7.91663 | 80° | 53km/h | 1959m | -2.7m/s | 7.5°C | 100% | 810.8hPa | 2.7V | 07:12:20 | 03:29:24 | 00:00:00 | |
| BIOWL1-15 | 2026-09-03 02:45:46 | 51.44035 | 7.91642 | 80° | 53km/h | 1962m | -2.6m/s | 7.5°C | 100% | 810.5hPa | 2.7V | 07:12:20 | 03:29:23 | 00:00:00 | |
| DM0DOS-11 | 2026-09-03 02:45:45 | 51.44031 | 7.91599 | 80° | 53km/h | 1967m | -2.7m/s | 7.5°C | 0% | 810.1hPa | 2.7V | 07:12:05 | 03:29:21 | 00:00:00 | |
| DM0DOS-11 | 2026-09-03 02:45:45 | 51.44026 | 7.91556 | 80° | 55km/h | 1972m | -3m/s | 7.5°C | 0% | 809.5hPa | 2.7V | 07:12:07 | 03:29:19 | 00:00:00 | |
| DM0DOS-11 | 2026-09-03 02:45:45 | 51.44022 | 7.91514 | 79° | 53km/h | 1978m | -2.8m/s | 7.4°C | 0% | 808.9hPa | 2.7V | 07:12:09 | 03:29:17 | 00:00:00 | |
| BIOWL1-15 | 2026-09-03 02:45:44 | 51.44031 | 7.91599 | 80° | 53km/h | 1967m | -2.7m/s | 7.5°C | 100% | 810.1hPa | 2.7V | 07:12:20 | 03:29:21 | 00:00:00 | |
| BIOWL1-15 | 2026-09-03 02:45:43 | 51.44029 | 7.91578 | 81° | 53km/h | 1970m | -2.7m/s | 7.5°C | 100% | 809.8hPa | 2.7V | 07:12:20 | 03:29:20 | 00:00:00 | |
| BIOWL1-15 | 2026-09-03 02:45:41 | 51.44024 | 7.91535 | 80° | 53km/h | 1975m | -2.7m/s | 7.4°C | 100% | 809.3hPa | 2.7V | 07:12:20 | 03:29:18 | 00:00:00 | |
| BIOWL1-15 | 2026-09-03 02:45:39 | 51.44012 | 7.91429 | 80° | 53km/h | 1989m | -2.7m/s | 7.3°C | 100% | 808hPa | 2.7V | 07:12:20 | 03:29:13 | 00:00:00 | |
| DM0DOS-11 | 2026-09-03 02:45:39 | 51.44017 | 7.91471 | 80° | 53km/h | 1984m | -2.8m/s | 7.4°C | 0% | 808.4hPa | 2.7V | 07:12:11 | 03:29:15 | 00:00:00 | |
| DM0DOS-11 | 2026-09-03 02:45:39 | 51.44012 | 7.91429 | 79° | 53km/h | 1989m | -2.7m/s | 7.3°C | 0% | 808hPa | 2.7V | 07:12:13 | 03:29:13 | 00:00:00 | |
| DM0DOS-11 | 2026-09-03 02:45:39 | 51.44007 | 7.91387 | 79° | 53km/h | 1994m | -2.7m/s | 7.3°C | 0% | 807.4hPa | 2.7V | 07:12:15 | 03:29:11 | 00:00:00 | |
| BIOWL1-15 | 2026-09-03 02:45:39 | 51.44010 | 7.91408 | 80° | 53km/h | 1992m | -2.6m/s | 7.3°C | 100% | 807.6hPa | 2.7V | 07:12:20 | 03:29:12 | 00:00:00 | |
| DD1CC1-15 | 2026-09-03 02:45:38 | 51.44019 | 7.91492 | 81° | 53km/h | 1981m | -3.0m/s | 7.4°C | 99.9% | 808.7hPa | 2.7V | 07:12:00 | 00:00:00 | 00:00:00 | |
| DO3DL | 2026-09-03 02:45:35 | 51.44012 | 7.91429 | 81° | 53km/h | 1989m | -2.7m/s | 7.3°C | 0% | 808.0hPa | 2.7V | 07:12:00 | 00:00:00 | 00:00:00 | |
| DD1CC3-15 | 2026-09-03 02:45:34 | 51.44010 | 7.91408 | 81° | 53km/h | 1992m | -2.6m/s | 7.3°C | 100.0% | 807.6hPa | 2.7V | 07:12:00 | 00:00:00 | 00:00:00 | |
| DM0DOS-11 | 2026-09-03 02:45:34 | 51.44002 | 7.91346 | 79° | 51km/h | 2000m | -2.8m/s | 7.3°C | 0% | 806.8hPa | 2.7V | 07:12:17 | 03:29:09 | 00:00:00 | |
| DM0DOS-11 | 2026-09-03 02:45:34 | 51.43995 | 7.91284 | 79° | 51km/h | 2008m | -2.8m/s | 7.3°C | 99.4% | 806hPa | 2.7V | 07:12:20 | 03:29:06 | 00:00:00 | |
| BIOWL1-15 | 2026-09-03 02:45:34 | 51.44007 | 7.91387 | 80° | 53km/h | 1994m | -2.7m/s | 7.3°C | 100% | 807.4hPa | 2.7V | 07:12:20 | 03:29:11 | 00:00:00 | |
| BIOWL1-15 | 2026-09-03 02:45:32 | 51.44002 | 7.91346 | 79° | 51km/h | 2000m | -2.8m/s | 7.3°C | 100% | 806.8hPa | 2.7V | 07:12:20 | 03:29:09 | 00:00:00 | |
| BIOWL1-15 | 2026-09-03 02:45:26 | 51.43983 | 7.91181 | 80° | 51km/h | 2021m | -2.5m/s | 7.3°C | 100% | 804.7hPa | 2.7V | 07:13:11 | 03:29:01 | 00:00:00 | |
| DM0DOS-11 | 2026-09-03 02:45:24 | 51.43983 | 7.91181 | 80° | 51km/h | 2021m | -2.5m/s | 7.3°C | 98% | 804.7hPa | 2.7V | 07:12:25 | 03:29:01 | 00:00:00 | |
| DM0DOS-11 | 2026-09-03 02:45:24 | 51.43972 | 7.91079 | 79° | 51km/h | 2034m | -2.7m/s | 7.2°C | 98.8% | 803.3hPa | 2.7V | 07:12:30 | 03:28:56 | 00:00:00 | |
| BIOWL1-15 | 2026-09-03 02:45:17 | 51.43956 | 7.90957 | 78° | 51km/h | 2050m | -2.8m/s | 7.1°C | 100% | 801.8hPa | 2.7V | 07:13:11 | 03:28:50 | 00:00:00 | |
| DM0DOS-11 | 2026-09-03 02:45:14 | 51.43959 | 7.90977 | 78° | 51km/h | 2048m | -2.6m/s | 7.1°C | 99.3% | 802.1hPa | 2.7V | 07:12:35 | 03:28:51 | 00:00:00 | |
| DM0DOS-11 | 2026-09-03 02:45:14 | 51.43945 | 7.90876 | 78° | 51km/h | 2061m | -2.9m/s | 7°C | 99.8% | 800.8hPa | 2.7V | 07:12:40 | 03:28:46 | 00:00:00 | |
| DD1CC3-15 | 2026-09-03 02:45:13 | 51.43958 | 7.90977 | 79° | 51km/h | 2048m | -2.7m/s | 7.1°C | 98.9% | 802.2hPa | 2.7V | 07:13:00 | 00:00:00 | 00:00:00 | |
| DO2KSM | 2026-09-03 02:45:12 | 51.43956 | 7.90957 | 79° | 51km/h | 2050m | -2.8m/s | 7.1°C | 99.0% | 801.8hPa | 2.7V | 07:13:00 | 00:00:00 | 00:00:00 | |
| DB0UT-7 | 2026-09-03 02:45:11 | 51.43951 | 7.90916 | 78° | 51km/h | 2056m | -2.6m/s | 6.9°C | 99.9% | 801.2hPa | 2.7V | 00:00:00 | 00:00:00 | 00:00:00 | |
| DM0DOS-11 | 2026-09-03 02:45:09 | 51.43932 | 7.90774 | 78° | 51km/h | 2074m | -2.6m/s | 7°C | 97.8% | 799.5hPa | 2.7V | 07:12:45 | 03:28:41 | 00:00:00 | |
| DD1CC8 | 2026-09-03 02:45:07 | 51.43940 | 7.90835 | 78° | 51km/h | 2067m | -2.8m/s | 7.1°C | 97.8% | 800.3hPa | 2.7V | 00:00:00 | 00:00:00 | 00:00:00 | |
| DM0DOS-11 | 2026-09-03 02:45:04 | 51.43918 | 7.90672 | 77° | 53km/h | 2087m | -2.6m/s | 7°C | 98% | 798.3hPa | 2.7V | 07:12:50 | 03:28:36 | 00:00:00 | |
| BIOWL1-15 | 2026-09-03 02:45:03 | 51.43929 | 7.90754 | 78° | 51km/h | 2077m | -2.5m/s | 7°C | 100% | 799.2hPa | 2.7V | 07:13:11 | 03:28:40 | 00:00:00 | |
| DO9LL-15 | 2026-09-03 02:45:02 | 51.43926 | 7.90734 | 78° | 51km/h | 2079m | -2.4m/s | 7.0°C | 98.1% | 798.9hPa | 2.7V | 00:00:00 | 03:28:39 | 00:00:00 | |
| BIOWL7-15 | 2026-09-03 02:45:01 | 51.43926 | 7.90734 | 79° | 51km/h | 2079m | -2.5m/s | 7.0°C | 97.8% | 799.0hPa | 2.7V | 07:13:00 | 00:00:00 | 00:00:00 | |
| DL8DAS-15 | 2026-09-03 02:45:00 | 51.43923 | 7.90713 | 78° | 51km/h | 2082m | -2.5m/s | 7.0°C | 97.7% | 798.8hPa | 2.7V | 00:00:00 | 00:00:00 | 00:00:00 | |
| DM0DOS-11 | 2026-09-03 02:44:59 | 51.43903 | 7.90570 | 76° | 51km/h | 2099m | -2.5m/s | 6.9°C | 97.4% | 797.1hPa | 2.7V | 07:12:55 | 03:28:31 | 00:00:00 | |
| BIOWL1-15 | 2026-09-03 02:44:55 | 51.43900 | 7.90550 | 77° | 51km/h | 2102m | -2.4m/s | 6.9°C | 100% | 796.9hPa | 2.7V | 07:13:11 | 03:28:30 | 00:00:00 | |
| DJ2KF-10 | 2026-09-03 02:44:55 | 51.43906 | 7.90590 | 77° | 51km/h | 2097m | -2.5m/s | 6.9°C | 97.6% | 797.3hPa | 2.7V | 00:00:00 | 03:28:32 | 00:00:00 | |
| DM0DOS-11 | 2026-09-03 02:44:53 | 51.43884 | 7.90450 | 74° | 49km/h | 2113m | -2.4m/s | 6.8°C | 98.1% | 795.7hPa | 2.7V | 07:13:01 | 03:28:25 | 00:00:00 | |
| BIOWL9-15 | 2026-09-03 02:44:50 | 51.43890 | 7.90490 | 75° | 49km/h | 2109m | -2.4m/s | 6.8°C | 97.4% | 796.0hPa | 2.7V | 00:00:00 | 00:00:00 | 00:00:00 | |
| DL8DAS-14 | 2026-09-03 02:44:48 | 51.43884 | 7.90450 | 74° | 49km/h | 2113m | -2.4m/s | 6.8°C | 97.7% | 795.7hPa | 2.7V | 00:00:00 | 00:00:00 | 00:00:00 | |
| DM0DOS-11 | 2026-09-03 02:44:46 | 51.43861 | 7.90312 | 75° | 51km/h | 2130m | -2.3m/s | 6.7°C | 98.4% | 794hPa | 2.7V | 07:13:08 | 03:28:18 | 00:00:00 | |
| BIOWL1-15 | 2026-09-03 02:44:43 | 51.43867 | 7.90352 | 76° | 49km/h | 2125m | -2.3m/s | 6.7°C | 99.3% | 794.7hPa | 2.7V | 07:13:11 | 03:28:20 | 00:00:00 | |
| DO9LL-15 | 2026-09-03 02:44:42 | 51.43864 | 7.90332 | 76° | 51km/h | 2128m | -2.2m/s | 6.7°C | 98.3% | 794.2hPa | 2.7V | 00:00:00 | 03:28:19 | 00:00:00 | |
| BIOWL7-15 | 2026-09-03 02:44:38 | 51.43855 | 7.90271 | 77° | 51km/h | 2135m | -2.3m/s | 6.7°C | 98.2% | 793.7hPa | 2.7V | 07:13:00 | 00:00:00 | 00:00:00 | |
| DM0DOS-11 | 2026-09-03 02:44:36 | 51.43845 | 7.90211 | 75° | 51km/h | 2142m | -2.5m/s | 6.6°C | 98.6% | 793hPa | 2.7V | 07:13:13 | 03:28:13 | 00:00:00 | |
| DM0DOS-11 | 2026-09-03 02:44:36 | 51.43828 | 7.90108 | 75° | 53km/h | 2156m | -2.6m/s | 6.6°C | 97% | 791.7hPa | 2.7V | 07:13:18 | 03:28:08 | 00:00:00 | |
| BIOWL1-15 | 2026-09-03 02:44:34 | 51.43831 | 7.90128 | 76° | 53km/h | 2153m | -2.8m/s | 6.6°C | 100% | 792hPa | 2.7V | 07:14:02 | 03:28:09 | 00:00:00 | |
| DO2KSM | 2026-09-03 02:44:32 | 51.43835 | 7.90149 | 77° | 53km/h | 2150m | -2.8m/s | 6.6°C | 97.3% | 792.2hPa | 2.7V | 07:14:00 | 00:00:00 | 00:00:00 | |
| DB0UT-7 | 2026-09-03 02:44:31 | 51.43828 | 7.90108 | 76° | 51km/h | 2156m | -2.5m/s | 6.6°C | 97.0% | 791.7hPa | 2.7V | 00:00:00 | 00:00:00 | 00:00:00 | |
| DJ2KF-10 | 2026-09-03 02:44:30 | 51.43825 | 7.90087 | 76° | 51km/h | 2159m | -2.6m/s | 6.6°C | 96.9% | 791.4hPa | 2.7V | 00:00:00 | 03:28:07 | 00:00:00 | |
| DM0DOS-11 | 2026-09-03 02:44:26 | 51.43795 | 7.89906 | 73° | 51km/h | 2182m | -2.7m/s | 6.6°C | 94.7% | 789.2hPa | 2.7V | 07:13:28 | 03:27:58 | 00:00:00 | |
| BIOWL1-15 | 2026-09-03 02:44:26 | 51.43799 | 7.89926 | 75° | 51km/h | 2179m | -2.7m/s | 6.6°C | 98% | 789.5hPa | 2.7V | 07:14:02 | 03:27:59 | 00:00:00 | |
| DO3DL | 2026-09-03 02:44:24 | 51.43809 | 7.89986 | 77° | 51km/h | 2171m | -2.5m/s | 6.6°C | 96.1% | 790.1hPa | 2.7V | 07:14:00 | 00:00:00 | 00:00:00 | |
| DO9LL-15 | 2026-09-03 02:44:22 | 51.43799 | 7.89926 | 75° | 51km/h | 2179m | -2.6m/s | 6.6°C | 94.6% | 789.5hPa | 2.7V | 00:00:00 | 03:27:59 | 00:00:00 | |
| DM0DOS-11 | 2026-09-03 02:44:21 | 51.43777 | 7.89808 | 73° | 51km/h | 2195m | -2.5m/s | 6.5°C | 94.9% | 787.9hPa | 2.7V | 07:13:33 | 03:27:53 | 00:00:00 | |
| BIOWL9-15 | 2026-09-03 02:44:19 | 51.43788 | 7.89867 | 73° | 49km/h | 2187m | -2.6m/s | 6.6°C | 94.4% | 788.7hPa | 2.7V | 00:00:00 | 00:00:00 | 00:00:00 | |
| BIOWL7-15 | 2026-09-03 02:44:18 | 51.43788 | 7.89867 | 74° | 51km/h | 2188m | -2.6m/s | 6.6°C | 94.4% | 788.7hPa | 2.7V | 00:00:00 | 00:00:00 | 00:00:00 | |
| DL8DAS-14 | 2026-09-03 02:44:17 | 51.43780 | 7.89827 | 73° | 49km/h | 2193m | -2.5m/s | 6.5°C | 94.7% | 788.3hPa | 2.7V | 00:00:00 | 00:00:00 | 00:00:00 | |
| DM0DOS-11 | 2026-09-03 02:44:16 | 51.43759 | 7.89709 | 74° | 51km/h | 2208m | -2.7m/s | 6.4°C | 95.8% | 786.7hPa | 2.7V | 07:13:38 | 03:27:48 | 00:00:00 | |
| DM0DOS-11 | 2026-09-03 02:44:11 | 51.43741 | 7.89609 | 73° | 51km/h | 2221m | -2.5m/s | 6.2°C | 96.4% | 785.5hPa | 2.7V | 07:13:43 | 03:27:43 | 00:00:00 | |
| BIOWL1-15 | 2026-09-03 02:44:11 | 51.43759 | 7.89709 | 74° | 51km/h | 2208m | -2.7m/s | 6.4°C | 99.1% | 786.7hPa | 2.7V | 07:14:02 | 03:27:48 | 00:00:00 | |
| DB0UT-7 | 2026-09-03 02:44:11 | 51.43759 | 7.89708 | 75° | 51km/h | 2208m | -2.6m/s | 6.3°C | 95.8% | 786.7hPa | 2.7V | 00:00:00 | 03:27:48 | 00:00:00 | |
| DJ2KF-10 | 2026-09-03 02:44:10 | 51.43755 | 7.89689 | 75° | 51km/h | 2211m | -2.6m/s | 6.3°C | 95.7% | 786.5hPa | 2.7V | 00:00:00 | 03:27:47 | 00:00:00 | |
| DL8DAS-15 | 2026-09-03 02:44:09 | 51.43755 | 7.89689 | 75° | 51km/h | 2211m | -2.6m/s | 6.3°C | 95.3% | 786.5hPa | 2.7V | 00:00:00 | 00:00:00 | 00:00:00 | |
| DM0DOS-11 | 2026-09-03 02:44:06 | 51.43722 | 7.89511 | 72° | 51km/h | 2234m | -2.7m/s | 6.2°C | 95.9% | 784.1hPa | 2.7V | 07:13:48 | 03:27:38 | 00:00:00 | |
| DD1CC8 | 2026-09-03 02:44:05 | 51.43737 | 7.89589 | 73° | 51km/h | 2224m | -2.8m/s | 6.2°C | 95.8% | 785.2hPa | 2.7V | 00:00:00 | 00:00:00 | 00:00:00 | |
| DO3DL | 2026-09-03 02:44:04 | 51.43737 | 7.89589 | 75° | 51km/h | 2224m | -2.8m/s | 6.2°C | 95.8% | 785.2hPa | 2.7V | 07:14:00 | 00:00:00 | 00:00:00 | |
| DO9LL-15 | 2026-09-03 02:44:02 | 51.43726 | 7.89531 | 73° | 49km/h | 2232m | -2.5m/s | 6.2°C | 95.9% | 784.3hPa | 2.7V | 00:00:00 | 03:27:39 | 00:00:00 | |
| DM0DOS-11 | 2026-09-03 02:44:01 | 51.43703 | 7.89415 | 72° | 49km/h | 2247m | -2.5m/s | 6.1°C | 96.1% | 782.9hPa | 2.7V | 07:13:53 | 03:27:33 | 00:00:00 | |
| BIOWL1-15 | 2026-09-03 02:44:00 | 51.43718 | 7.89492 | 72° | 49km/h | 2237m | -2.5m/s | 6.2°C | 98.7% | 783.9hPa | 2.7V | 07:14:02 | 03:27:37 | 00:00:00 | |
| DO3DL | 2026-09-03 02:43:58 | 51.43714 | 7.89473 | 73° | 51km/h | 2239m | -2.4m/s | 6.2°C | 95.5% | 783.6hPa | 2.7V | 07:14:00 | 00:00:00 | 00:00:00 | |
| BIOWL7-15 | 2026-09-03 02:43:57 | 51.43711 | 7.89453 | 74° | 49km/h | 2242m | -2.5m/s | 6.2°C | 95.6% | 783.5hPa | 2.7V | 00:00:00 | 00:00:00 | 00:00:00 | |
| DD1CC1-15 | 2026-09-03 02:43:56 | 51.43707 | 7.89434 | 74° | 49km/h | 2244m | -2.5m/s | 6.1°C | 95.6% | 783.2hPa | 2.7V | 07:14:00 | 00:00:00 | 00:00:00 | |
| DM0DOS-11 | 2026-09-03 02:43:55 | 51.43681 | 7.89300 | 73° | 49km/h | 2262m | -2.6m/s | 6°C | 96% | 781.6hPa | 2.7V | 07:13:59 | 03:27:27 | 00:00:00 | |
| BIOWL1-15 | 2026-09-03 02:43:52 | 51.43681 | 7.89300 | 73° | 49km/h | 2262m | -2.6m/s | 6°C | 98.6% | 781.6hPa | 2.7V | 07:14:02 | 03:27:27 | 00:00:00 | |
| DB0UT-7 | 2026-09-03 02:43:51 | 51.43684 | 7.89319 | 73° | 49km/h | 2259m | -2.5m/s | 6.0°C | 95.8% | 781.7hPa | 2.7V | 00:00:00 | 00:00:00 | 00:00:00 | |
| DM0DOS-11 | 2026-09-03 02:43:50 | 51.43663 | 7.89203 | 74° | 49km/h | 2274m | -2.6m/s | 5.9°C | 96.3% | 780.4hPa | 2.7V | 07:14:04 | 03:27:22 | 00:00:00 | |
| BIOWL9-15 | 2026-09-03 02:43:48 | 51.43674 | 7.89261 | 73° | 49km/h | 2266m | -2.4m/s | 6.0°C | 95.7% | 781.0hPa | 2.7V | 00:00:00 | 00:00:00 | 00:00:00 | |
| DL8DAS-14 | 2026-09-03 02:43:46 | 51.43667 | 7.89222 | 74° | 49km/h | 2271m | -2.6m/s | 6.0°C | 95.5% | 780.6hPa | 2.7V | 00:00:00 | 00:00:00 | 00:00:00 | |
| DM0DOS-11 | 2026-09-03 02:43:45 | 51.43646 | 7.89106 | 73° | 49km/h | 2287m | -2.8m/s | 5.8°C | 96.9% | 779.2hPa | 2.7V | 07:14:09 | 03:27:17 | 00:00:00 | |
| BIOWL1-15 | 2026-09-03 02:43:39 | 51.43643 | 7.89087 | 74° | 49km/h | 2290m | -2.9m/s | 5.8°C | 99.9% | 778.9hPa | 2.7V | 07:14:53 | 03:27:16 | 00:00:00 | |
| WPPR-10 | 2026-09-03 02:43:39 | 51.43639 | 7.89068 | 73° | 47km/h | 2292m | -2.7m/s | 5.8°C | 96.5% | 778.6hPa | 2.7V | 00:00:00 | 00:00:00 | 00:00:00 | |
| BIOWL7-15 | 2026-09-03 02:43:37 | 51.43639 | 7.89068 | 74° | 49km/h | 2293m | -2.7m/s | 5.8°C | 96.5% | 778.6hPa | 2.7V | 07:14:00 | 00:00:00 | 00:00:00 | |
| DM0DOS-11 | 2026-09-03 02:43:35 | 51.43628 | 7.89011 | 72° | 49km/h | 2300m | -2.8m/s | 5.7°C | 96.9% | 777.9hPa | 2.7V | 07:14:14 | 03:27:12 | 00:00:00 | |
| DM0DOS-11 | 2026-09-03 02:43:35 | 51.43611 | 7.88915 | 75° | 49km/h | 2314m | -2.8m/s | 5.6°C | 97.2% | 776.6hPa | 2.7V | 07:14:19 | 03:27:07 | 00:00:00 | |
| BIOWL1-15 | 2026-09-03 02:43:28 | 51.43604 | 7.88875 | 76° | 49km/h | 2320m | -2.8m/s | 5.6°C | 100% | 776.1hPa | 2.7V | 07:14:53 | 03:27:05 | 00:00:00 | |
| DL8DAS-15 | 2026-09-03 02:43:27 | 51.43605 | 7.88875 | 77° | 49km/h | 2320m | -2.8m/s | 5.6°C | 96.9% | 776.1hPa | 2.7V | 00:00:00 | 00:00:00 | 00:00:00 | |
| DM0DOS-11 | 2026-09-03 02:43:25 | 51.43596 | 7.88816 | 76° | 49km/h | 2327m | -2.5m/s | 5.5°C | 97.9% | 775.3hPa | 2.7V | 07:14:24 | 03:27:02 | 00:00:00 | |
| DM0DOS-11 | 2026-09-03 02:43:25 | 51.43580 | 7.88718 | 75° | 51km/h | 2340m | -2.6m/s | 5.4°C | 98.7% | 774hPa | 2.7V | 07:14:29 | 03:26:57 | 00:00:00 | |
| DO9LL-15 | 2026-09-03 02:43:22 | 51.43586 | 7.88757 | 77° | 49km/h | 2335m | -2.6m/s | 5.4°C | 98.5% | 774.5hPa | 2.7V | 07:14:00 | 03:26:59 | 00:00:00 | |
| DM0DOS-11 | 2026-09-03 02:43:20 | 51.43564 | 7.88620 | 75° | 49km/h | 2353m | -2.7m/s | 5.2°C | 99.7% | 772.8hPa | 2.7V | 07:14:34 | 03:26:52 | 00:00:00 | |
| BIOWL1-15 | 2026-09-03 02:43:19 | 51.43571 | 7.88659 | 75° | 51km/h | 2348m | -2.7m/s | 5.3°C | 100% | 773.4hPa | 2.7V | 07:14:53 | 03:26:54 | 00:00:00 | |
| BIOWL9-15 | 2026-09-03 02:43:17 | 51.43571 | 7.88659 | 74° | 49km/h | 2348m | -2.7m/s | 5.3°C | 98.7% | 773.4hPa | 2.7V | 00:00:00 | 00:00:00 | 00:00:00 | |
| BIOWL7-15 | 2026-09-03 02:43:16 | 51.43571 | 7.88659 | 76° | 51km/h | 2348m | -2.7m/s | 5.3°C | 98.7% | 773.4hPa | 2.7V | 07:14:00 | 00:00:00 | 00:00:00 | |
| DL8DAS-14 | 2026-09-03 02:43:15 | 51.43564 | 7.88620 | 75° | 49km/h | 2353m | -2.7m/s | 5.2°C | 99.2% | 772.8hPa | 2.7V | 00:00:00 | 00:00:00 | 00:00:00 | |
| DD1CC1-15 | 2026-09-03 02:43:14 | 51.43564 | 7.88619 | 77° | 49km/h | 2353m | -2.7m/s | 5.2°C | 99.2% | 772.8hPa | 2.7V | 07:14:00 | 00:00:00 | 00:00:00 | |
| DO3DL | 2026-09-03 02:43:13 | 51.43561 | 7.88600 | 77° | 49km/h | 2356m | -2.7m/s | 5.2°C | 99.3% | 772.5hPa | 2.7V | 07:14:00 | 00:00:00 | 00:00:00 | |
| DB0UT-7 | 2026-09-03 02:43:11 | 51.43552 | 7.88541 | 77° | 49km/h | 2365m | -3.0m/s | 5.1°C | 0% | 771.7hPa | 2.7V | 00:00:00 | 00:00:00 | 00:00:00 | |
| DM0DOS-11 | 2026-09-03 02:43:10 | 51.43535 | 7.88424 | 78° | 49km/h | 2382m | -2.7m/s | 5.2°C | 98.6% | 770.1hPa | 2.7V | 07:14:44 | 03:26:42 | 00:00:00 | |
| BIOWL1-15 | 2026-09-03 02:43:06 | 51.43538 | 7.88444 | 78° | 49km/h | 2379m | -3m/s | 5.2°C | 100% | 770.4hPa | 2.7V | 07:14:53 | 03:26:43 | 00:00:00 | |
| BIOWL1-15 | 2026-09-03 02:42:57 | 51.43508 | 7.88227 | 78° | 49km/h | 2410m | -2.8m/s | 5.1°C | 100% | 767.5hPa | 2.7V | 07:15:44 | 03:26:32 | 00:00:00 | |
| DM0DOS-11 | 2026-09-03 02:42:55 | 51.43508 | 7.88227 | 77° | 49km/h | 2410m | -2.8m/s | 5.1°C | 98.1% | 767.5hPa | 2.7V | 07:14:54 | 03:26:32 | 00:00:00 | |
| BIOWL1-15 | 2026-09-03 02:42:47 | 51.43480 | 7.88031 | 77° | 49km/h | 2439m | -3m/s | 5°C | 100% | 764.8hPa | 2.7V | 07:15:44 | 03:26:22 | 00:00:00 | |
| BIOWL9-15 | 2026-09-03 02:42:46 | 51.43483 | 7.88050 | 76° | 49km/h | 2436m | -3.0m/s | 5.0°C | 96.9% | 765.1hPa | 2.7V | 00:00:00 | 00:00:00 | 00:00:00 | |
| DM0DOS-11 | 2026-09-03 02:42:45 | 51.43480 | 7.88031 | 76° | 49km/h | 2439m | -3m/s | 5°C | 97.4% | 764.8hPa | 2.7V | 07:15:04 | 03:26:22 | 00:00:00 | |
| DM0DOS-11 | 2026-09-03 02:42:45 | 51.43466 | 7.87932 | 76° | 49km/h | 2454m | -3m/s | 5°C | 97.3% | 763.4hPa | 2.6V | 07:15:09 | 03:26:17 | 00:00:00 | |
| DL8DAS-14 | 2026-09-03 02:42:44 | 51.43477 | 7.88011 | 76° | 49km/h | 2442m | -3.1m/s | 5.0°C | 97.0% | 764.5hPa | 2.7V | 00:00:00 | 00:00:00 | 00:00:00 | |
| AU51GT2 | 2026-09-03 02:42:43 | 51.43472 | 7.87971 | 76° | 49km/h | 2448m | -3.2m/s | 5.0°C | 96.9% | 764.0hPa | 2.7V | 00:00:00 | 00:00:00 | 00:00:00 | |
| DM0DOS-11 | 2026-09-03 02:42:40 | 51.43451 | 7.87834 | 77° | 49km/h | 2469m | -3.1m/s | 4.9°C | 97.8% | 762hPa | 2.7V | 07:15:14 | 03:26:12 | 00:00:00 | |
| WPPR-10 | 2026-09-03 02:42:36 | 51.43454 | 7.87853 | 76° | 49km/h | 2466m | -2.9m/s | 4.9°C | 97.1% | 762.2hPa | 2.7V | 00:00:00 | 00:00:00 | 00:00:00 | |
| DM0DOS-11 | 2026-09-03 02:42:35 | 51.43438 | 7.87736 | 77° | 49km/h | 2484m | -3m/s | 4.8°C | 97.3% | 760.6hPa | 2.7V | 07:15:19 | 03:26:07 | 00:00:00 | |
| BIOWL1-15 | 2026-09-03 02:42:35 | 51.43451 | 7.87834 | 77° | 49km/h | 2469m | -3.1m/s | 4.9°C | 99.9% | 762hPa | 2.7V | 07:15:44 | 03:26:12 | 00:00:00 | |
| DO3DL | 2026-09-03 02:42:34 | 51.43451 | 7.87834 | 78° | 49km/h | 2469m | -3.1m/s | 4.9°C | 97.2% | 762.1hPa | 2.7V | 07:15:00 | 00:00:00 | 00:00:00 | |
| DD1CC8 | 2026-09-03 02:42:32 | 51.43443 | 7.87775 | 77° | 49km/h | 2478m | -3.0m/s | 4.8°C | 97.1% | 761.1hPa | 2.7V | 00:00:00 | 00:00:00 | 00:00:00 | |
| DB0UT-7 | 2026-09-03 02:42:31 | 51.43440 | 7.87755 | 78° | 49km/h | 2481m | -2.8m/s | 4.8°C | 97.4% | 760.9hPa | 2.7V | 00:00:00 | 00:00:00 | 00:00:00 | |
| DM0DOS-11 | 2026-09-03 02:42:30 | 51.43423 | 7.87637 | 77° | 49km/h | 2499m | -3m/s | 4.8°C | 97.5% | 759.3hPa | 2.7V | 07:15:24 | 03:26:02 | 00:00:00 | |
| DD1CC3-15 | 2026-09-03 02:42:29 | 51.43438 | 7.87736 | 78° | 49km/h | 2484m | -3.0m/s | 4.9°C | 96.8% | 760.6hPa | 2.7V | 07:15:00 | 00:00:00 | 00:00:00 | |
| DJ2KF-10 | 2026-09-03 02:42:28 | 51.43432 | 7.87696 | 78° | 51km/h | 2490m | -2.9m/s | 4.8°C | 97.3% | 760.1hPa | 2.7V | 00:00:00 | 03:26:05 | 00:00:00 | |
| DM0DOS-11 | 2026-09-03 02:42:25 | 51.43409 | 7.87537 | 76° | 51km/h | 2514m | -3m/s | 4.7°C | 97.2% | 757.8hPa | 2.7V | 07:15:29 | 03:25:57 | 00:00:00 | |
| BIOWL1-15 | 2026-09-03 02:42:24 | 51.43421 | 7.87617 | 78° | 51km/h | 2502m | -3m/s | 4.8°C | 99.5% | 759hPa | 2.7V | 07:15:44 | 03:26:01 | 00:00:00 | |
| DO9LL-15 | 2026-09-03 02:42:22 | 51.43415 | 7.87577 | 77° | 51km/h | 2508m | -3.1m/s | 4.7°C | 97.3% | 758.4hPa | 2.7V | 00:00:00 | 03:25:59 | 00:00:00 | |
| DO3DL | 2026-09-03 02:42:21 | 51.43415 | 7.87577 | 78° | 51km/h | 2508m | -3.1m/s | 4.8°C | 96.7% | 758.4hPa | 2.7V | 07:15:00 | 00:00:00 | 00:00:00 | |
| DO2KSM | 2026-09-03 02:42:20 | 51.43412 | 7.87557 | 78° | 51km/h | 2511m | -3.1m/s | 4.8°C | 96.6% | 758.1hPa | 2.7V | 00:00:00 | 00:00:00 | 00:00:00 | |
| DM0DOS-11 | 2026-09-03 02:42:15 | 51.43395 | 7.87438 | 76° | 49km/h | 2529m | -3.1m/s | 4.7°C | 96.7% | 756.5hPa | 2.7V | 07:15:34 | 03:25:52 | 00:00:00 | |
| DM0DOS-11 | 2026-09-03 02:42:15 | 51.43380 | 7.87339 | 75° | 51km/h | 2544m | -3.1m/s | 4.6°C | 96.7% | 755hPa | 2.7V | 07:15:39 | 03:25:47 | 00:00:00 | |
| BIOWL1-15 | 2026-09-03 02:42:14 | 51.43392 | 7.87418 | 77° | 49km/h | 2532m | -3m/s | 4.7°C | 99.2% | 756.3hPa | 2.7V | 07:15:44 | 03:25:51 | 00:00:00 | |
| DL8DAS-14 | 2026-09-03 02:42:13 | 51.43389 | 7.87399 | 75° | 49km/h | 2535m | -3.1m/s | 4.7°C | 95.9% | 755.9hPa | 2.7V | 00:00:00 | 00:00:00 | 00:00:00 | |
| DD1CC1-15 | 2026-09-03 02:42:12 | 51.43389 | 7.87399 | 77° | 51km/h | 2535m | -3.1m/s | 4.7°C | 95.9% | 755.9hPa | 2.7V | 07:15:00 | 00:00:00 | 00:00:00 | |
| DB0UT-7 | 2026-09-03 02:42:11 | 51.43383 | 7.87359 | 77° | 51km/h | 2541m | -3.0m/s | 4.6°C | 96.5% | 755.3hPa | 2.7V | 00:00:00 | 03:25:48 | 00:00:00 | |
| DJ2KF-10 | 2026-09-03 02:42:08 | 51.43374 | 7.87299 | 77° | 51km/h | 2550m | -3.0m/s | 4.5°C | 96.9% | 754.5hPa | 2.7V | 00:00:00 | 03:25:45 | 00:00:00 | |
| DO3DL | 2026-09-03 02:42:07 | 51.43374 | 7.87299 | 78° | 51km/h | 2550m | -3.0m/s | 4.6°C | 96.4% | 754.5hPa | 2.7V | 07:15:00 | 00:00:00 | 00:00:00 | |
| DM0DOS-11 | 2026-09-03 02:42:05 | 51.43365 | 7.87239 | 76° | 51km/h | 2560m | -3.2m/s | 4.5°C | 96.9% | 753.7hPa | 2.7V | 07:15:44 | 03:25:42 | 00:00:00 | |
| DM0DOS-11 | 2026-09-03 02:42:05 | 51.43349 | 7.87139 | 75° | 51km/h | 2576m | -3.2m/s | 4.4°C | 97.4% | 752.2hPa | 2.6V | 07:15:49 | 03:25:37 | 00:00:00 | |
| BIOWL1-15 | 2026-09-03 02:42:03 | 51.43359 | 7.87199 | 76° | 51km/h | 2566m | -3.1m/s | 4.5°C | 99.8% | 753.1hPa | 2.7V | 07:16:35 | 03:25:40 | 00:00:00 | |
| DD1CC8 | 2026-09-03 02:42:01 | 51.43353 | 7.87159 | 76° | 49km/h | 2572m | -3.2m/s | 4.4°C | 96.6% | 752.5hPa | 2.6V | 00:00:00 | 00:00:00 | 00:00:00 | |
| DM0DOS-11 | 2026-09-03 02:42:00 | 51.43334 | 7.87040 | 76° | 49km/h | 2591m | -3.1m/s | 4.2°C | 98.2% | 750.9hPa | 2.6V | 07:15:54 | 03:25:32 | 00:00:00 | |
| DM0DOS-11 | 2026-09-03 02:41:55 | 51.43318 | 7.86943 | 75° | 49km/h | 2608m | -3.1m/s | 4.1°C | 98.7% | 749.3hPa | 2.7V | 07:15:59 | 03:25:27 | 00:00:00 | |
| BIOWL1-15 | 2026-09-03 02:41:53 | 51.43327 | 7.87001 | 76° | 49km/h | 2598m | -3.2m/s | 4.2°C | 100% | 750.1hPa | 2.7V | 07:16:35 | 03:25:30 | 00:00:00 | |
| DD1CC1-15 | 2026-09-03 02:41:52 | 51.43327 | 7.87001 | 77° | 49km/h | 2598m | -3.2m/s | 4.2°C | 97.6% | 750.1hPa | 2.6V | 07:16:00 | 00:00:00 | 00:00:00 | |
| DB0UT-7 | 2026-09-03 02:41:51 | 51.43321 | 7.86962 | 76° | 47km/h | 2605m | -3.2m/s | 4.1°C | 99.1% | 749.6hPa | 2.6V | 00:00:00 | 00:00:00 | 00:00:00 | |
| DM0DOS-11 | 2026-09-03 02:41:50 | 51.43302 | 7.86848 | 74° | 47km/h | 2624m | -3.1m/s | 4°C | 99.2% | 747.8hPa | 2.6V | 07:16:04 | 03:25:22 | 00:00:00 | |
| DL8DAS-15 | 2026-09-03 02:41:49 | 51.43318 | 7.86943 | 76° | 49km/h | 2608m | -3.2m/s | 4.1°C | 98.1% | 749.3hPa | 2.7V | 00:00:00 | 00:00:00 | 00:00:00 | |
| DJ2KF-10 | 2026-09-03 02:41:48 | 51.43312 | 7.86905 | 75° | 47km/h | 2614m | -3.0m/s | 4.0°C | 99.4% | 748.7hPa | 2.7V | 00:00:00 | 03:25:25 | 00:00:00 | |
| DD1CC3-15 | 2026-09-03 02:41:47 | 51.43312 | 7.86905 | 75° | 49km/h | 2614m | -3.1m/s | 4.1°C | 98.8% | 748.7hPa | 2.7V | 07:16:00 | 00:00:00 | 00:00:00 | |
| DO3DL | 2026-09-03 02:41:46 | 51.43308 | 7.86886 | 77° | 47km/h | 2617m | -3.2m/s | 4.0°C | 99.0% | 748.4hPa | 2.7V | 07:16:00 | 00:00:00 | 00:00:00 | |
| DM0DOS-11 | 2026-09-03 02:41:45 | 51.43287 | 7.86754 | 75° | 47km/h | 2640m | -3.2m/s | 4°C | 98% | 746.4hPa | 2.7V | 07:16:09 | 03:25:17 | 00:00:00 | |
| BIOWL1-15 | 2026-09-03 02:41:45 | 51.43296 | 7.86810 | 76° | 49km/h | 2630m | -3.3m/s | 4°C | 100% | 747.1hPa | 2.7V | 07:16:35 | 03:25:20 | 00:00:00 | |
| DL4BBY-15 | 2026-09-03 02:41:45 | 51.43302 | 7.86848 | 75° | 47km/h | 2624m | -3.1m/s | 4.2°C | 0% | 0hPa | 2.6V | 00:00:00 | 00:00:00 | 00:00:00 | |
| BIOWL9-15 | 2026-09-03 02:41:44 | 51.43299 | 7.86829 | 75° | 47km/h | 2627m | -3.2m/s | 4.0°C | 98.5% | 747.6hPa | 2.6V | 00:00:00 | 00:00:00 | 00:00:00 | |
| DL8DAS-14 | 2026-09-03 02:41:42 | 51.43293 | 7.86791 | 75° | 47km/h | 2633m | -2.9m/s | 4.0°C | 98.2% | 746.9hPa | 2.6V | 00:00:00 | 00:00:00 | 00:00:00 | |
| AU51GT2 | 2026-09-03 02:41:41 | 51.43290 | 7.86772 | 74° | 47km/h | 2636m | -3.3m/s | 4.0°C | 97.7% | 746.6hPa | 2.6V | 00:00:00 | 00:00:00 | 00:00:00 | |
| DM0DOS-11 | 2026-09-03 02:41:40 | 51.43272 | 7.86661 | 76° | 46km/h | 2655m | -3.1m/s | 3.9°C | 97.8% | 744.9hPa | 2.6V | 07:16:14 | 03:25:12 | 00:00:00 | |
| BIOWL1-15 | 2026-09-03 02:41:36 | 51.43263 | 7.86607 | 76° | 46km/h | 2665m | -3.2m/s | 3.9°C | 99.7% | 744hPa | 2.7V | 07:16:35 | 03:25:09 | 00:00:00 | |
| DM0DOS-11 | 2026-09-03 02:41:35 | 51.43258 | 7.86571 | 76° | 46km/h | 2671m | -3.5m/s | 3.9°C | 97% | 743.4hPa | 2.7V | 07:16:19 | 03:25:07 | 00:00:00 | |
| DO9LL-15 | 2026-09-03 02:41:34 | 51.43269 | 7.86643 | 76° | 47km/h | 2658m | -3.3m/s | 3.9°C | 97.6% | 744.5hPa | 2.7V | 00:00:00 | 03:25:11 | 00:00:00 | |
| DO3DL | 2026-09-03 02:41:33 | 51.43269 | 7.86643 | 76° | 46km/h | 2658m | -3.3m/s | 3.9°C | 97.0% | 744.6hPa | 2.7V | 07:16:00 | 00:00:00 | 00:00:00 | |
| DB0UT-7 | 2026-09-03 02:41:31 | 51.43260 | 7.86589 | 77° | 47km/h | 2668m | -3.2m/s | 3.8°C | 97.6% | 743.6hPa | 2.7V | 00:00:00 | 03:25:08 | 00:00:00 | |
| DD1CC8 | 2026-09-03 02:41:30 | 51.43258 | 7.86571 | 76° | 46km/h | 2671m | -3.5m/s | 3.9°C | 96.4% | 743.4hPa | 2.7V | 00:00:00 | 00:00:00 | 00:00:00 | |
| DJ2KF-10 | 2026-09-03 02:41:28 | 51.43252 | 7.86534 | 78° | 47km/h | 2678m | -3.4m/s | 3.9°C | 95.9% | 742.7hPa | 2.7V | 00:00:00 | 03:25:05 | 00:00:00 | |
| DO3DL | 2026-09-03 02:41:27 | 51.43253 | 7.86534 | 78° | 47km/h | 2678m | -3.4m/s | 3.9°C | 95.3% | 742.8hPa | 2.6V | 07:16:00 | 00:00:00 | 00:00:00 | |
| DM0DOS-11 | 2026-09-03 02:41:25 | 51.43244 | 7.86479 | 76° | 47km/h | 2688m | -3.5m/s | 3.9°C | 95.6% | 741.9hPa | 2.6V | 07:16:24 | 03:25:02 | 00:00:00 | |
| DM0DOS-11 | 2026-09-03 02:41:25 | 51.43230 | 7.86387 | 75° | 46km/h | 2704m | -3m/s | 3.9°C | 94.4% | 740.4hPa | 2.7V | 07:16:29 | 03:24:57 | 00:00:00 | |
| BIOWL1-15 | 2026-09-03 02:41:22 | 51.43236 | 7.86424 | 76° | 47km/h | 2698m | -3.2m/s | 3.9°C | 96.8% | 741hPa | 2.7V | 07:16:35 | 03:24:59 | 00:00:00 | |
| DM0DOS-11 | 2026-09-03 02:41:20 | 51.43216 | 7.86294 | 77° | 49km/h | 2719m | -3.3m/s | 3.8°C | 94.4% | 739.1hPa | 2.6V | 07:16:34 | 03:24:52 | 00:00:00 | |
| DO2KSM | 2026-09-03 02:41:18 | 51.43227 | 7.86369 | 76° | 47km/h | 2707m | -3.1m/s | 3.8°C | 93.6% | 740.1hPa | 2.7V | 07:16:00 | 00:00:00 | 00:00:00 | |
| DL8DAS-15 | 2026-09-03 02:41:16 | 51.43221 | 7.86332 | 77° | 47km/h | 2713m | -3.1m/s | 3.8°C | 93.8% | 739.6hPa | 2.7V | 00:00:00 | 00:00:00 | 00:00:00 | |
| DM0DOS-11 | 2026-09-03 02:41:15 | 51.43204 | 7.86198 | 79° | 47km/h | 2735m | -3.3m/s | 3.9°C | 90% | 737.6hPa | 2.7V | 07:16:39 | 03:24:47 | 00:00:00 | |
| BIOWL1-15 | 2026-09-03 02:41:11 | 51.43207 | 7.86217 | 80° | 47km/h | 2732m | -3.1m/s | 3.9°C | 92.3% | 737.9hPa | 2.7V | 07:17:26 | 03:24:48 | 00:00:00 | |
| AU51GT2 | 2026-09-03 02:41:10 | 51.43205 | 7.86198 | 79° | 46km/h | 2735m | -3.3m/s | 3.9°C | 89.4% | 737.6hPa | 2.7V | 00:00:00 | 00:00:00 | 00:00:00 | |
| DJ2KF-10 | 2026-09-03 02:41:08 | 51.43201 | 7.86161 | 82° | 46km/h | 2741m | -3.0m/s | 3.9°C | 85.7% | 736.9hPa | 2.7V | 00:00:00 | 03:24:45 | 00:00:00 | |
| DM0DOS-11 | 2026-09-03 02:41:05 | 51.43186 | 7.86016 | 81° | 46km/h | 2767m | -3.2m/s | 3.8°C | 83.5% | 734.7hPa | 2.7V | 07:16:49 | 03:24:37 | 00:00:00 | |
| BIOWL1-15 | 2026-09-03 02:41:03 | 51.43188 | 7.86034 | 81° | 46km/h | 2764m | -3.4m/s | 3.9°C | 87% | 734.9hPa | 2.7V | 07:17:26 | 03:24:38 | 00:00:00 | |
| DO3DL | 2026-09-03 02:41:02 | 51.43191 | 7.86070 | 82° | 46km/h | 2757m | -3.5m/s | 3.9°C | 83.6% | 735.5hPa | 2.7V | 07:17:00 | 00:00:00 | 00:00:00 | |
| DM0DOS-11 | 2026-09-03 02:41:00 | 51.43177 | 7.85926 | 80° | 46km/h | 2784m | -3.5m/s | 3.7°C | 83.2% | 733.1hPa | 2.7V | 07:16:54 | 03:24:32 | 00:00:00 | |
| DD1CC8 | 2026-09-03 02:40:59 | 51.43184 | 7.85998 | 82° | 44km/h | 2770m | -3.1m/s | 3.8°C | 82.9% | 734.3hPa | 2.7V | 00:00:00 | 00:00:00 | 00:00:00 | |
| DB0ND-19 | 2026-09-03 02:40:58 | 51.43166 | 7.85815 | 81° | 46km/h | 2804m | -3.6m/s | 3.9°C | 70.5% | 731.3hPa | 2.7V | 00:00:00 | 00:00:00 | 00:00:00 | |
| DM0DOS-11 | 2026-09-03 02:40:55 | 51.43167 | 7.85834 | 80° | 46km/h | 2801m | -3.4m/s | 4°C | 69.3% | 731.6hPa | 2.7V | 07:16:59 | 03:24:27 | 00:00:00 | |
| BIOWL1-15 | 2026-09-03 02:40:52 | 51.43168 | 7.85834 | 81° | 46km/h | 2801m | -3.4m/s | 4°C | 73.4% | 731.6hPa | 2.7V | 07:17:26 | 03:24:27 | 00:00:00 | |
| DO9LL-15 | 2026-09-03 02:40:51 | 51.43169 | 7.85852 | 82° | 46km/h | 2798m | -3.4m/s | 3.8°C | 78.1% | 731.8hPa | 2.7V | 00:00:00 | 03:24:28 | 00:00:00 | |
| DD1CC1-15 | 2026-09-03 02:40:50 | 51.43169 | 7.85852 | 82° | 46km/h | 2798m | -3.4m/s | 3.9°C | 77.6% | 731.9hPa | 2.7V | 07:17:00 | 00:00:00 | 00:00:00 | |
| DO3DL | 2026-09-03 02:40:49 | 51.43167 | 7.85834 | 82° | 46km/h | 2801m | -3.4m/s | 4.0°C | 68.8% | 731.6hPa | 2.7V | 07:17:00 | 00:00:00 | 00:00:00 | |
| DJ2KF-10 | 2026-09-03 02:40:48 | 51.43164 | 7.85797 | 83° | 47km/h | 2808m | -3.3m/s | 4.0°C | 68.5% | 730.9hPa | 2.7V | 00:00:00 | 03:24:25 | 00:00:00 | |
| DM0DOS-11 | 2026-09-03 02:40:45 | 51.43159 | 7.85741 | 82° | 46km/h | 2818m | -3.7m/s | 4°C | 60.7% | 730.1hPa | 2.7V | 07:17:04 | 03:24:22 | 00:00:00 | |
| DM0DOS-11 | 2026-09-03 02:40:45 | 51.43151 | 7.85648 | 83° | 46km/h | 2836m | -3.6m/s | 4°C | 56.5% | 728.5hPa | 2.6V | 07:17:09 | 03:24:17 | 00:00:00 | |
| DL4BBY-15 | 2026-09-03 02:40:45 | 51.43159 | 7.85741 | 83° | 47km/h | 2818m | -3.6m/s | 4.3°C | 0% | 0hPa | 2.7V | 00:00:00 | 00:00:00 | 00:00:00 | |
| DD1CC3-15 | 2026-09-03 02:40:44 | 51.43159 | 7.85741 | 83° | 47km/h | 2818m | -3.7m/s | 4.0°C | 60.3% | 730.1hPa | 2.7V | 07:17:00 | 00:00:00 | 00:00:00 | |
| DL8DAS-15 | 2026-09-03 02:40:43 | 51.43158 | 7.85722 | 84° | 46km/h | 2822m | -3.6m/s | 4.0°C | 58.9% | 729.7hPa | 2.7V | 07:17:00 | 00:00:00 | 00:00:00 | |
| BIOWL9-15 | 2026-09-03 02:40:42 | 51.43154 | 7.85685 | 82° | 46km/h | 2829m | -3.5m/s | 4.0°C | 60.2% | 729.2hPa | 2.7V | 00:00:00 | 00:00:00 | 00:00:00 | |
| DM0DOS-11 | 2026-09-03 02:40:40 | 51.43144 | 7.85556 | 82° | 46km/h | 2854m | -3.4m/s | 3.9°C | 56.3% | 727hPa | 2.7V | 07:17:14 | 03:24:12 | 00:00:00 | |
| BIOWL1-15 | 2026-09-03 02:40:39 | 51.43150 | 7.85630 | 83° | 46km/h | 2840m | -3.6m/s | 4°C | 61.3% | 728.1hPa | 2.7V | 07:17:26 | 03:24:16 | 00:00:00 | |
| DM0DOS-11 | 2026-09-03 02:40:35 | 51.43136 | 7.85461 | 83° | 47km/h | 2872m | -3.6m/s | 3.7°C | 56.5% | 725.3hPa | 2.6V | 07:17:19 | 03:24:07 | 00:00:00 | |
| WPPR-10 | 2026-09-03 02:40:32 | 51.43139 | 7.85499 | 84° | 47km/h | 2865m | -3.6m/s | 3.8°C | 56.1% | 726.0hPa | 2.6V | 00:00:00 | 00:00:00 | 00:00:00 | |
| DB0UT-7 | 2026-09-03 02:40:31 | 51.43138 | 7.85480 | 84° | 49km/h | 2868m | -3.7m/s | 3.7°C | 56.2% | 725.6hPa | 2.6V | 00:00:00 | 00:00:00 | 00:00:00 | |
| DM0DOS-11 | 2026-09-03 02:40:30 | 51.43130 | 7.85364 | 86° | 49km/h | 2890m | -3.7m/s | 3.6°C | 55.7% | 723.7hPa | 2.7V | 07:17:24 | 03:24:02 | 00:00:00 | |
| BIOWL1-15 | 2026-09-03 02:40:29 | 51.43135 | 7.85442 | 84° | 49km/h | 2875m | -3.7m/s | 3.6°C | 61.1% | 725hPa | 2.7V | 07:17:26 | 03:24:06 | 00:00:00 | |
| DJ2KF-10 | 2026-09-03 02:40:28 | 51.43133 | 7.85422 | 84° | 51km/h | 2879m | -3.3m/s | 3.6°C | 57.0% | 724.6hPa | 2.7V | 07:17:00 | 03:24:05 | 00:00:00 | |
| DB0ND-19 | 2026-09-03 02:40:27 | 51.43132 | 7.85403 | 86° | 47km/h | 2882m | -3.6m/s | 3.6°C | 56.5% | 724.4hPa | 2.7V | 00:00:00 | 00:00:00 | 00:00:00 | |
| BIOWL7-15 | 2026-09-03 02:40:26 | 51.43132 | 7.85403 | 88° | 47km/h | 2883m | -3.6m/s | 3.6°C | 56.5% | 724.4hPa | 2.7V | 07:17:00 | 00:00:00 | 00:00:00 | |
| DM0DOS-11 | 2026-09-03 02:40:25 | 51.43128 | 7.85265 | 89° | 49km/h | 2907m | -3.7m/s | 3.4°C | 55.4% | 722.1hPa | 2.7V | 07:17:29 | 03:23:57 | 00:00:00 | |
| DD1CC3-15 | 2026-09-03 02:40:23 | 51.43129 | 7.85344 | 91° | 47km/h | 2893m | -3.1m/s | 3.5°C | 55.2% | 723.4hPa | 2.7V | 07:17:00 | 00:00:00 | 00:00:00 | |
| DO3DL | 2026-09-03 02:40:21 | 51.43129 | 7.85305 | 91° | 49km/h | 2900m | -3.8m/s | 3.5°C | 55.3% | 722.8hPa | 2.7V | 07:18:00 | 00:00:00 | 00:00:00 | |
| DM0DOS-11 | 2026-09-03 02:40:20 | 51.43130 | 7.85162 | 94° | 51km/h | 2925m | -3.5m/s | 3.3°C | 52.9% | 720.5hPa | 2.7V | 07:17:34 | 03:23:52 | 00:00:00 | |
| BIOWL1-15 | 2026-09-03 02:40:18 | 51.43128 | 7.85223 | 91° | 53km/h | 2914m | -3.5m/s | 3.4°C | 58.3% | 721.5hPa | 2.7V | 07:18:17 | 03:23:55 | 00:00:00 | |
| DL3AQ-11 | 2026-09-03 02:40:18 | 51.43128 | 7.85203 | 93° | 51km/h | 2918m | -3.4m/s | 3.4°C | 53.6% | 721.1hPa | 2.7V | 00:00:00 | 00:00:00 | 00:00:00 | |
| DM0DOS-11 | 2026-09-03 02:40:15 | 51.43135 | 7.85058 | 93° | 51km/h | 2940m | -3m/s | 3.3°C | 49.6% | 719.2hPa | 2.7V | 07:17:39 | 03:23:47 | 00:00:00 | |
| BIOWL1-15 | 2026-09-03 02:40:08 | 51.43136 | 7.85017 | 94° | 51km/h | 2947m | -3.3m/s | 3.3°C | 50.9% | 718.6hPa | 2.7V | 07:18:17 | 03:23:45 | 00:00:00 | |
| DJ2KF-10 | 2026-09-03 02:40:08 | 51.43136 | 7.85017 | 95° | 51km/h | 2947m | -3.2m/s | 3.2°C | 47.7% | 718.6hPa | 2.7V | 00:00:00 | 03:23:45 | 00:00:00 | |
| DM0DOS-11 | 2026-09-03 02:40:05 | 51.43139 | 7.84957 | 94° | 51km/h | 2955m | -3.4m/s | 3.4°C | 43.2% | 717.9hPa | 2.7V | 07:17:44 | 03:23:42 | 00:00:00 | |
| DM0DOS-11 | 2026-09-03 02:40:05 | 51.43144 | 7.84854 | 94° | 51km/h | 2971m | -2.8m/s | 4°C | 31% | 716.5hPa | 2.7V | 07:17:49 | 03:23:37 | 00:00:00 | |
| DD1CC3-15 | 2026-09-03 02:40:03 | 51.43140 | 7.84936 | 95° | 51km/h | 2959m | -2.9m/s | 3.5°C | 39.1% | 717.6hPa | 2.7V | 07:18:00 | 00:00:00 | 00:00:00 | |
| DL3AQ-11 | 2026-09-03 02:40:02 | 51.43151 | 7.84751 | 97° | 51km/h | 2986m | -3.2m/s | 4.3°C | 26.8% | 715.1hPa | 2.7V | 00:00:00 | 00:00:00 | 00:00:00 | |
| DO3DL | 2026-09-03 02:40:01 | 51.43142 | 7.84896 | 95° | 51km/h | 2965m | -3.5m/s | 3.5°C | 37.2% | 717.0hPa | 2.7V | 07:18:00 | 00:00:00 | 00:00:00 | |
| DM0DOS-11 | 2026-09-03 02:40:00 | 51.43151 | 7.84751 | 97° | 51km/h | 2986m | -3.1m/s | 4.3°C | 27% | 715.1hPa | 2.7V | 07:17:54 | 03:23:32 | 00:00:00 | |
| BIOWL1-15 | 2026-09-03 02:40:00 | 51.43147 | 7.84813 | 96° | 51km/h | 2977m | -2.9m/s | 4.6°C | 31.9% | 715.8hPa | 2.6V | 07:18:17 | 03:23:35 | 00:00:00 | |
| DD1CC8 | 2026-09-03 02:39:57 | 51.43148 | 7.84792 | 96° | 51km/h | 2979m | -3.1m/s | 4.4°C | 26.8% | 715.7hPa | 2.7V | 00:00:00 | 00:00:00 | 00:00:00 | |
| DB0ND-19 | 2026-09-03 02:39:56 | 51.43150 | 7.84772 | 96° | 51km/h | 2982m | -3.1m/s | 4.3°C | 26.6% | 715.5hPa | 2.7V | 00:00:00 | 00:00:00 | 00:00:00 | |
| DM0DOS-11 | 2026-09-03 02:39:55 | 51.43159 | 7.84647 | 97° | 51km/h | 3001m | -3.1m/s | 4.5°C | 29.3% | 713.8hPa | 2.7V | 07:17:59 | 03:23:27 | 00:00:00 | |
| DO3DL | 2026-09-03 02:39:54 | 51.43151 | 7.84751 | 99° | 51km/h | 2986m | -3.2m/s | 4.3°C | 26.8% | 715.1hPa | 2.7V | 07:18:00 | 00:00:00 | 00:00:00 | |
| DB0UT-7 | 2026-09-03 02:39:51 | 51.43158 | 7.84668 | 98° | 51km/h | 2998m | -3.2m/s | 4.5°C | 29.0% | 714.1hPa | 2.7V | 00:00:00 | 00:00:00 | 00:00:00 | |
| DM0DOS-11 | 2026-09-03 02:39:50 | 51.43169 | 7.84544 | 98° | 51km/h | 3017m | -3.1m/s | 4.4°C | 29.8% | 712.5hPa | 2.7V | 07:18:04 | 03:23:22 | 00:00:00 | |
| BIOWL1-15 | 2026-09-03 02:39:47 | 51.43165 | 7.84585 | 99° | 51km/h | 3011m | -3.1m/s | 4.4°C | 33% | 713hPa | 2.7V | 07:18:17 | 03:23:24 | 00:00:00 | |
| DM0DOS-11 | 2026-09-03 02:39:45 | 51.43179 | 7.84440 | 99° | 53km/h | 3032m | -3.1m/s | 4.3°C | 32% | 711.1hPa | 2.6V | 07:18:09 | 03:23:17 | 00:00:00 | |
| DL4BBY-15 | 2026-09-03 02:39:45 | 51.43169 | 7.84543 | 99° | 53km/h | 3017m | -3.1m/s | 4.6°C | 0% | 0hPa | 2.7V | 00:00:00 | 00:00:00 | 00:00:00 | |
| DD1CC3-15 | 2026-09-03 02:39:43 | 51.43171 | 7.84523 | 100° | 51km/h | 3020m | -3.1m/s | 4.3°C | 29.9% | 712.2hPa | 2.7V | 07:18:00 | 00:00:00 | 00:00:00 | |
| DM0DOS-11 | 2026-09-03 02:39:40 | 51.43191 | 7.84336 | 100° | 53km/h | 3048m | -3.1m/s | 4.1°C | 32.3% | 709.6hPa | 2.7V | 07:18:14 | 03:23:12 | 00:00:00 | |
| BIOWL1-15 | 2026-09-03 02:39:36 | 51.43188 | 7.84357 | 100° | 53km/h | 3045m | -3.2m/s | 4.2°C | 36.6% | 709.9hPa | 2.7V | 07:18:17 | 03:23:13 | 00:00:00 | |
| DO3DL | 2026-09-03 02:39:33 | 51.43193 | 7.84315 | 101° | 53km/h | 3051m | -3.1m/s | 4.1°C | 32.1% | 709.5hPa | 2.6V | 07:18:00 | 00:00:00 | 00:00:00 | |
| DM0DOS-11 | 2026-09-03 02:39:30 | 51.43203 | 7.84232 | 101° | 53km/h | 3064m | -3.1m/s | 4°C | 32.8% | 708.4hPa | 2.6V | 07:18:19 | 03:23:07 | 00:00:00 | |
| DM0DOS-11 | 2026-09-03 02:39:30 | 51.43216 | 7.84128 | 101° | 53km/h | 3079m | -3.2m/s | 3.8°C | 33.3% | 707hPa | 2.7V | 07:18:24 | 03:23:02 | 00:00:00 | |
| BIOWL1-15 | 2026-09-03 02:39:26 | 51.43213 | 7.84148 | 102° | 53km/h | 3076m | -3.1m/s | 3.9°C | 37.9% | 707.3hPa | 2.7V | 07:19:08 | 03:23:03 | 00:00:00 | |
| DB0ND-19 | 2026-09-03 02:39:25 | 51.43216 | 7.84128 | 101° | 51km/h | 3079m | -3.2m/s | 3.8°C | 33.1% | 707.0hPa | 2.7V | 00:00:00 | 00:00:00 | 00:00:00 | |
| DD1CC3-15 | 2026-09-03 02:39:23 | 51.43219 | 7.84107 | 103° | 53km/h | 3082m | -3.1m/s | 3.8°C | 33.2% | 706.6hPa | 2.7V | 07:19:00 | 00:00:00 | 00:00:00 | |
| DO3DL | 2026-09-03 02:39:21 | 51.43224 | 7.84065 | 103° | 53km/h | 3089m | -3.2m/s | 3.8°C | 33.7% | 706.2hPa | 2.7V | 07:19:00 | 00:00:00 | 00:00:00 | |
| DM0DOS-11 | 2026-09-03 02:39:20 | 51.43244 | 7.83919 | 101° | 53km/h | 3110m | -3.1m/s | 3.6°C | 35% | 704.2hPa | 2.7V | 07:18:34 | 03:22:52 | 00:00:00 | |
| BIOWL1-15 | 2026-09-03 02:39:18 | 51.43241 | 7.83939 | 103° | 53km/h | 3107m | -3.2m/s | 3.6°C | 39.6% | 704.5hPa | 2.7V | 07:19:08 | 03:22:53 | 00:00:00 | |
| DJ2KF-10 | 2026-09-03 02:39:18 | 51.43235 | 7.83981 | 103° | 53km/h | 3101m | -3.0m/s | 3.6°C | 34.4% | 705.0hPa | 2.7V | 00:00:00 | 03:22:55 | 00:00:00 | |
| DL4BBY-15 | 2026-09-03 02:39:15 | 51.43244 | 7.83919 | 102° | 53km/h | 3111m | -3.1m/s | 3.8°C | 0% | 0hPa | 2.7V | 00:00:00 | 00:00:00 | 00:00:00 | |
| DJ2DS-15 | 2026-09-03 02:39:12 | 51.43252 | 7.83856 | 102° | 51km/h | 3119m | -3.2m/s | 3.5°C | 35.1% | 703.5hPa | 2.7V | 00:00:00 | 00:00:00 | 00:00:00 | |
| DM0DOS-11 | 2026-09-03 02:39:10 | 51.43274 | 7.83708 | 103° | 53km/h | 3141m | -3.1m/s | 3.3°C | 38% | 701.5hPa | 2.7V | 07:18:44 | 03:22:42 | 00:00:00 | |
| BIOWL1-15 | 2026-09-03 02:39:05 | 51.43274 | 7.83708 | 104° | 53km/h | 3141m | -3.1m/s | 3.3°C | 43% | 701.5hPa | 2.7V | 07:19:08 | 03:22:42 | 00:00:00 | |
| DM0DOS-11 | 2026-09-03 02:39:00 | 51.43311 | 7.83500 | 106° | 53km/h | 3173m | -3.2m/s | 3°C | 42.8% | 698.9hPa | 2.6V | 07:18:54 | 03:22:32 | 00:00:00 | |
| WPPR-10 | 2026-09-03 02:38:59 | 51.43299 | 7.83562 | 106° | 51km/h | 3163m | -3.2m/s | 3.1°C | 40.5% | 699.7hPa | 2.7V | 00:00:00 | 00:00:00 | 00:00:00 | |
| DL3AQ-11 | 2026-09-03 02:38:58 | 51.43303 | 7.83541 | 106° | 51km/h | 3166m | -3.1m/s | 3.0°C | 41.4% | 699.4hPa | 2.7V | 00:00:00 | 00:00:00 | 00:00:00 | |
| DO9LL-15 | 2026-09-03 02:38:57 | 51.43303 | 7.83541 | 107° | 55km/h | 3167m | -3.1m/s | 3.0°C | 41.7% | 699.4hPa | 2.7V | 00:00:00 | 03:22:34 | 00:00:00 | |
| DO3DL | 2026-09-03 02:38:56 | 51.43303 | 7.83541 | 107° | 53km/h | 3167m | -3.1m/s | 3.0°C | 41.4% | 699.4hPa | 2.7V | 07:19:00 | 00:00:00 | 00:00:00 | |
| DM0DOS-11 | 2026-09-03 02:38:55 | 51.43330 | 7.83397 | 107° | 53km/h | 3188m | -3.2m/s | 2.8°C | 46.8% | 697.6hPa | 2.7V | 07:18:59 | 03:22:27 | 00:00:00 | |
| BIOWL1-15 | 2026-09-03 02:38:55 | 51.43311 | 7.83500 | 106° | 53km/h | 3173m | -3.2m/s | 3°C | 48.2% | 698.9hPa | 2.6V | 07:19:08 | 03:22:32 | 00:00:00 | |
| BIOWL1-15 | 2026-09-03 02:38:49 | 51.43349 | 7.83293 | 106° | 53km/h | 3204m | -3m/s | 2.6°C | 55.1% | 696.2hPa | 2.6V | 07:19:08 | 03:22:22 | 00:00:00 | |
| DL8DAS-15 | 2026-09-03 02:38:48 | 51.43338 | 7.83356 | 107° | 53km/h | 3194m | -3.2m/s | 2.7°C | 48.5% | 697.1hPa | 2.6V | 07:19:00 | 00:00:00 | 00:00:00 | |
| DD1CC1-15 | 2026-09-03 02:38:47 | 51.43338 | 7.83356 | 107° | 53km/h | 3194m | -3.2m/s | 2.7°C | 48.5% | 697.1hPa | 2.6V | 07:19:00 | 00:00:00 | 00:00:00 | |
| DM0DOS-11 | 2026-09-03 02:38:45 | 51.43349 | 7.83293 | 106° | 53km/h | 3204m | -3m/s | 2.6°C | 49.6% | 696.2hPa | 2.6V | 07:19:04 | 03:22:22 | 00:00:00 | |
| DM0DOS-11 | 2026-09-03 02:38:45 | 51.43367 | 7.83186 | 105° | 55km/h | 3218m | -2.9m/s | 2.5°C | 52.9% | 695hPa | 2.7V | 07:19:09 | 03:22:17 | 00:00:00 | |
| DL4BBY-15 | 2026-09-03 02:38:45 | 51.43349 | 7.83293 | 107° | 57km/h | 3204m | -2.9m/s | 2.9°C | 0% | 0hPa | 2.7V | 00:00:00 | 00:00:00 | 00:00:00 | |
| DO3DL | 2026-09-03 02:38:43 | 51.43353 | 7.83272 | 106° | 55km/h | 3207m | -3.0m/s | 2.6°C | 49.3% | 696.0hPa | 2.7V | 07:19:00 | 00:00:00 | 00:00:00 | |
| BIOWL7-15 | 2026-09-03 02:38:42 | 51.43356 | 7.83251 | 107° | 55km/h | 3210m | -2.9m/s | 2.6°C | 49.7% | 695.7hPa | 2.7V | 07:19:00 | 00:00:00 | 00:00:00 | |
| DD1CC3-15 | 2026-09-03 02:38:41 | 51.43360 | 7.83229 | 106° | 55km/h | 3213m | -3.0m/s | 2.6°C | 50.3% | 695.5hPa | 2.7V | 07:19:00 | 00:00:00 | 00:00:00 | |
| DM0DOS-11 | 2026-09-03 02:38:40 | 51.43387 | 7.83077 | 106° | 57km/h | 3233m | -3m/s | 2.3°C | 59.7% | 693.7hPa | 2.7V | 07:19:14 | 03:22:12 | 00:00:00 | |
| BIOWL9-15 | 2026-09-03 02:38:38 | 51.43375 | 7.83143 | 105° | 55km/h | 3224m | -3.2m/s | 2.4°C | 53.5% | 694.5hPa | 2.7V | 00:00:00 | 00:00:00 | 00:00:00 | |
| DO3DL | 2026-09-03 02:38:37 | 51.43375 | 7.83143 | 107° | 57km/h | 3224m | -3.2m/s | 2.4°C | 53.5% | 694.5hPa | 2.7V | 07:19:00 | 00:00:00 | 00:00:00 | |
| DL8DAS-14 | 2026-09-03 02:38:36 | 51.43383 | 7.83099 | 106° | 55km/h | 3230m | -3.0m/s | 2.4°C | 56.0% | 693.9hPa | 2.7V | 00:00:00 | 00:00:00 | 00:00:00 | |
| DM0DOS-11 | 2026-09-03 02:38:35 | 51.43407 | 7.82967 | 105° | 57km/h | 3248m | -2.8m/s | 2.2°C | 66.8% | 692.4hPa | 2.7V | 07:19:19 | 03:22:07 | 00:00:00 | |
| BIOWL1-15 | 2026-09-03 02:38:34 | 51.43391 | 7.83055 | 106° | 57km/h | 3236m | -3.1m/s | 2.3°C | 69.6% | 693.4hPa | 2.7V | 07:19:59 | 03:22:11 | 00:00:00 | |
| DL1LOL-11 | 2026-09-03 02:38:31 | 51.43399 | 7.83011 | 107° | 57km/h | 3242m | -3.0m/s | 2.2°C | 65.6% | 692.8hPa | 2.7V | 00:00:00 | 00:00:00 | 00:00:00 | |
| DM0DOS-11 | 2026-09-03 02:38:30 | 51.43426 | 7.82856 | 105° | 57km/h | 3263m | -3m/s | 2°C | 68.9% | 691.2hPa | 2.7V | 07:19:24 | 03:22:02 | 00:00:00 | |
| BIOWL1-15 | 2026-09-03 02:38:28 | 51.43430 | 7.82833 | 105° | 58km/h | 3265m | -2.9m/s | 2°C | 75% | 690.9hPa | 2.6V | 07:19:59 | 03:22:01 | 00:00:00 | |
| DB0UT-7 | 2026-09-03 02:38:28 | 51.43414 | 7.82922 | 106° | 58km/h | 3254m | -2.9m/s | 2.1°C | 67.5% | 691.8hPa | 2.7V | 00:00:00 | 03:22:05 | 00:00:00 | |
| DO9LL-15 | 2026-09-03 02:38:27 | 51.43418 | 7.82900 | 106° | 58km/h | 3257m | -2.9m/s | 2.0°C | 68.2% | 691.6hPa | 2.7V | 00:00:00 | 03:22:04 | 00:00:00 | |
| DD1CC1-15 | 2026-09-03 02:38:26 | 51.43419 | 7.82900 | 106° | 57km/h | 3257m | -2.9m/s | 2.1°C | 67.6% | 691.7hPa | 2.7V | 07:19:00 | 00:00:00 | 00:00:00 | |
| DM0DOS-11 | 2026-09-03 02:38:25 | 51.43444 | 7.82743 | 104° | 58km/h | 3277m | -2.9m/s | 1.8°C | 79.4% | 689.9hPa | 2.7V | 07:19:29 | 03:21:57 | 00:00:00 | |
| DD1CC8 | 2026-09-03 02:38:24 | 51.43430 | 7.82833 | 104° | 57km/h | 3265m | -2.9m/s | 2.0°C | 69.7% | 690.9hPa | 2.6V | 00:00:00 | 00:00:00 | 00:00:00 | |
| DB0ND-19 | 2026-09-03 02:38:23 | 51.43433 | 7.82811 | 104° | 57km/h | 3268m | -2.8m/s | 1.9°C | 76.4% | 690.8hPa | 2.6V | 00:00:00 | 00:00:00 | 00:00:00 | |
| DM0DOS-11 | 2026-09-03 02:38:20 | 51.43462 | 7.82630 | 103° | 58km/h | 3291m | -2.9m/s | 1.7°C | 82% | 688.7hPa | 2.6V | 07:19:34 | 03:21:52 | 00:00:00 | |
| DJ2KF-10 | 2026-09-03 02:38:18 | 51.43451 | 7.82698 | 105° | 58km/h | 3283m | -3.0m/s | 1.7°C | 80.1% | 689.4hPa | 2.7V | 00:00:00 | 03:21:55 | 00:00:00 | |
| DO3DL | 2026-09-03 02:38:17 | 51.43451 | 7.82698 | 105° | 57km/h | 3283m | -3.0m/s | 1.8°C | 79.4% | 689.4hPa | 2.7V | 07:19:00 | 00:00:00 | 00:00:00 | |
| DM0DOS-11 | 2026-09-03 02:38:15 | 51.43479 | 7.82515 | 103° | 58km/h | 3306m | -2.8m/s | 1.5°C | 89.6% | 687.5hPa | 2.7V | 07:19:39 | 03:21:47 | 00:00:00 | |
| BIOWL1-15 | 2026-09-03 02:38:13 | 51.43469 | 7.82584 | 104° | 58km/h | 3297m | -2.9m/s | 1.6°C | 87.4% | 688.3hPa | 2.7V | 07:19:59 | 03:21:50 | 00:00:00 | |
| DO3DL | 2026-09-03 02:38:11 | 51.43472 | 7.82561 | 105° | 58km/h | 3300m | -3.0m/s | 1.6°C | 86.4% | 688.0hPa | 2.7V | 07:19:00 | 00:00:00 | 00:00:00 | |
| DM0DOS-11 | 2026-09-03 02:38:08 | 51.43502 | 7.82353 | 103° | 58km/h | 3325m | -2.5m/s | 1.3°C | 92.3% | 685.8hPa | 2.7V | 07:19:46 | 03:21:40 | 00:00:00 | |
| BIOWL1-15 | 2026-09-03 02:38:03 | 51.43506 | 7.82329 | 102° | 58km/h | 3328m | -2.7m/s | 1.3°C | 95.2% | 685.6hPa | 2.7V | 07:19:59 | 03:21:39 | 00:00:00 | |
| DM0DOS-11 | 2026-09-03 02:38:03 | 51.43519 | 7.82236 | 102° | 58km/h | 3338m | -2.7m/s | 1.2°C | 97.7% | 684.7hPa | 2.6V | 07:19:51 | 03:21:35 | 00:00:00 | |
| DL3AQ-11 | 2026-09-03 02:38:01 | 51.43509 | 7.82306 | 102° | 58km/h | 3331m | -2.8m/s | 1.3°C | 93.9% | 685.3hPa | 2.7V | 00:00:00 | 00:00:00 | 00:00:00 | |
| DJ2DS-15 | 2026-09-03 02:38:00 | 51.43512 | 7.82283 | 102° | 58km/h | 3333m | -2.6m/s | 1.2°C | 94.5% | 685.1hPa | 2.7V | 00:00:00 | 00:00:00 | 00:00:00 | |
| DM0DOS-11 | 2026-09-03 02:37:58 | 51.43535 | 7.82119 | 102° | 58km/h | 3352m | -2.7m/s | 1.1°C | 99.2% | 683.6hPa | 2.7V | 07:19:56 | 03:21:30 | 00:00:00 | |
| BIOWL1-15 | 2026-09-03 02:37:55 | 51.43541 | 7.82072 | 102° | 60km/h | 3357m | -2.7m/s | 1°C | 100% | 683hPa | 2.7V | 07:19:59 | 03:21:28 | 00:00:00 | |
| DM0DOS-11 | 2026-09-03 02:37:53 | 51.43550 | 7.82001 | 101° | 60km/h | 3365m | -2.8m/s | 1°C | 98.5% | 682.4hPa | 2.7V | 07:20:01 | 03:21:25 | 00:00:00 | |
| DD1CC8 | 2026-09-03 02:37:53 | 51.43538 | 7.82095 | 101° | 58km/h | 3355m | -2.8m/s | 1.1°C | 98.4% | 683.2hPa | 2.7V | 00:00:00 | 00:00:00 | 00:00:00 | |
| DB0ND-19 | 2026-09-03 02:37:52 | 51.43538 | 7.82095 | 101° | 58km/h | 3355m | -2.8m/s | 1.1°C | 98.4% | 683.2hPa | 2.7V | 00:00:00 | 00:00:00 | 00:00:00 | |
| DO3DL | 2026-09-03 02:37:50 | 51.43541 | 7.82072 | 103° | 60km/h | 3357m | -2.7m/s | 1.0°C | 98.3% | 683.0hPa | 2.7V | 07:19:00 | 00:00:00 | 00:00:00 | |
| DM0DOS-11 | 2026-09-03 02:37:48 | 51.43565 | 7.81882 | 101° | 60km/h | 3379m | -2.6m/s | 0.9°C | 98.6% | 681.2hPa | 2.7V | 07:20:06 | 03:21:20 | 00:00:00 | |
| BIOWL1-15 | 2026-09-03 02:37:40 | 51.43574 | 7.81810 | 100° | 60km/h | 3387m | -2.7m/s | 0.8°C | 100% | 680.6hPa | 2.6V | 07:20:50 | 03:21:17 | 00:00:00 | |
| DM0DOS-11 | 2026-09-03 02:37:38 | 51.43579 | 7.81762 | 100° | 60km/h | 3392m | -2.8m/s | 0.8°C | 98.2% | 680hPa | 2.7V | 07:20:11 | 03:21:15 | 00:00:00 | |
| DM0DOS-11 | 2026-09-03 02:37:38 | 51.43592 | 7.81642 | 100° | 60km/h | 3406m | -2.8m/s | 0.7°C | 98.5% | 679hPa | 2.6V | 07:20:16 | 03:21:10 | 00:00:00 | |
| BIOWL1-15 | 2026-09-03 02:37:30 | 51.43600 | 7.81571 | 100° | 60km/h | 3414m | -2.7m/s | 0.6°C | 100% | 678.4hPa | 2.7V | 07:20:50 | 03:21:07 | 00:00:00 | |
| DM0DOS-11 | 2026-09-03 02:37:28 | 51.43605 | 7.81524 | 99° | 58km/h | 3419m | -2.4m/s | 0.6°C | 97.9% | 677.9hPa | 2.7V | 07:20:21 | 03:21:05 | 00:00:00 | |
| DM0DOS-11 | 2026-09-03 02:37:28 | 51.43617 | 7.81406 | 99° | 58km/h | 3432m | -2.6m/s | 0.5°C | 94.3% | 676.7hPa | 2.6V | 07:20:26 | 03:21:00 | 00:00:00 | |
| DB0UT-7 | 2026-09-03 02:37:28 | 51.43605 | 7.81524 | 100° | 58km/h | 3419m | -2.4m/s | 0.5°C | 97.9% | 677.8hPa | 2.7V | 07:20:00 | 03:21:05 | 00:00:00 | |
| DO9LL-15 | 2026-09-03 02:37:27 | 51.43607 | 7.81500 | 100° | 58km/h | 3422m | -2.4m/s | 0.5°C | 97.0% | 677.6hPa | 2.7V | 00:00:00 | 03:21:04 | 00:00:00 | |
| WPPR-10 | 2026-09-03 02:37:26 | 51.43610 | 7.81477 | 100° | 58km/h | 3424m | -2.4m/s | 0.5°C | 96.4% | 677.4hPa | 2.7V | 00:00:00 | 00:00:00 | 00:00:00 | |
| DL1LOL-11 | 2026-09-03 02:37:25 | 51.43610 | 7.81477 | 101° | 58km/h | 3424m | -2.4m/s | 0.5°C | 96.4% | 677.4hPa | 2.7V | 07:20:00 | 00:00:00 | 00:00:00 | |
| DJ2DS-15 | 2026-09-03 02:37:24 | 51.43615 | 7.81429 | 99° | 58km/h | 3429m | -2.6m/s | 0.5°C | 94.8% | 677.0hPa | 2.7V | 00:00:00 | 00:00:00 | 00:00:00 | |
| DM0DOS-11 | 2026-09-03 02:37:23 | 51.43629 | 7.81288 | 98° | 58km/h | 3444m | -2.7m/s | 0.5°C | 90.4% | 675.7hPa | 2.7V | 07:20:31 | 03:20:55 | 00:00:00 | |
| BIOWL1-15 | 2026-09-03 02:37:20 | 51.43625 | 7.81335 | 99° | 58km/h | 3439m | -2.5m/s | 0.5°C | 95.2% | 676.1hPa | 2.7V | 07:20:50 | 03:20:57 | 00:00:00 | |
| DM0DOS-11 | 2026-09-03 02:37:18 | 51.43641 | 7.81170 | 98° | 58km/h | 3457m | -2.7m/s | 0.4°C | 86.6% | 674.6hPa | 2.7V | 07:20:36 | 03:20:50 | 00:00:00 | |
| DJ2KF-10 | 2026-09-03 02:37:18 | 51.43629 | 7.81288 | 99° | 58km/h | 3444m | -2.7m/s | 0.4°C | 90.4% | 675.7hPa | 2.6V | 00:00:00 | 03:20:55 | 00:00:00 | |
| DO3DL | 2026-09-03 02:37:17 | 51.43629 | 7.81288 | 100° | 58km/h | 3444m | -2.7m/s | 0.5°C | 89.5% | 675.7hPa | 2.6V | 07:20:00 | 00:00:00 | 00:00:00 | |
| DL4BBY-15 | 2026-09-03 02:37:15 | 51.43636 | 7.81217 | 99° | 57km/h | 3451m | -2.6m/s | 0.6°C | 0% | 0hPa | 2.6V | 00:00:00 | 00:00:00 | 00:00:00 | |
| DM0DOS-11 | 2026-09-03 02:37:13 | 51.43652 | 7.81053 | 98° | 58km/h | 3470m | -2.5m/s | 0.3°C | 87.3% | 673.5hPa | 2.6V | 07:20:41 | 03:20:45 | 00:00:00 | |
| BIOWL1-15 | 2026-09-03 02:37:11 | 51.43649 | 7.81077 | 99° | 58km/h | 3467m | -2.6m/s | 0.3°C | 90.6% | 673.8hPa | 2.7V | 07:20:50 | 03:20:46 | 00:00:00 | |
| BIOWL1-15 | 2026-09-03 02:37:01 | 51.43672 | 7.80845 | 99° | 58km/h | 3493m | -2.5m/s | 0.2°C | 88.7% | 671.6hPa | 2.6V | 07:20:50 | 03:20:36 | 00:00:00 | |
| DO2KSM | 2026-09-03 02:37:00 | 51.43667 | 7.80891 | 100° | 58km/h | 3488m | -2.5m/s | 0.2°C | 85.5% | 672.1hPa | 2.7V | 07:20:00 | 00:00:00 | 00:00:00 | |
| DM0DOS-11 | 2026-09-03 02:36:58 | 51.43674 | 7.80821 | 98° | 58km/h | 3496m | -2.7m/s | 0.2°C | 84.7% | 671.3hPa | 2.7V | 07:20:51 | 03:20:35 | 00:00:00 | |
| DL3AQ-11 | 2026-09-03 02:36:58 | 51.43676 | 7.80798 | 98° | 57km/h | 3498m | -2.6m/s | 0.2°C | 83.4% | 671.2hPa | 2.7V | 00:00:00 | 00:00:00 | 00:00:00 | |
| WPPR-10 | 2026-09-03 02:36:55 | 51.43681 | 7.80752 | 98° | 57km/h | 3503m | -2.6m/s | 0.2°C | 82.9% | 670.8hPa | 2.7V | 00:00:00 | 00:00:00 | 00:00:00 | |
| DD1CC8 | 2026-09-03 02:36:51 | 51.43692 | 7.80639 | 99° | 57km/h | 3516m | -2.6m/s | 0.1°C | 82.4% | 669.7hPa | 2.7V | 00:00:00 | 00:00:00 | 00:00:00 | |
| DB0ND-19 | 2026-09-03 02:36:50 | 51.43692 | 7.80639 | 99° | 57km/h | 3516m | -2.6m/s | 0.1°C | 82.4% | 669.7hPa | 2.7V | 00:00:00 | 00:00:00 | 00:00:00 | |
| DM0DOS-11 | 2026-09-03 02:36:48 | 51.43697 | 7.80593 | 99° | 57km/h | 3521m | -2.6m/s | 0°C | 83.6% | 669.3hPa | 2.7V | 07:21:01 | 03:20:25 | 00:00:00 | |
| DM0DOS-11 | 2026-09-03 02:36:48 | 51.43708 | 7.80481 | 99° | 57km/h | 3534m | -2.5m/s | -0.1°C | 85% | 668.2hPa | 2.6V | 07:21:06 | 03:20:20 | 00:00:00 | |
| BIOWL1-15 | 2026-09-03 02:36:48 | 51.43697 | 7.80593 | 99° | 57km/h | 3521m | -2.6m/s | 0°C | 87.3% | 669.3hPa | 2.7V | 07:21:41 | 03:20:25 | 00:00:00 | |
| DJ2KF-10 | 2026-09-03 02:36:48 | 51.43697 | 7.80593 | 100° | 55km/h | 3521m | -2.5m/s | 0.0°C | 83.6% | 669.2hPa | 2.7V | 07:21:00 | 03:20:25 | 00:00:00 | |
| DO3DL | 2026-09-03 02:36:45 | 51.43701 | 7.80548 | 100° | 57km/h | 3526m | -2.7m/s | -0.0°C | 83.5% | 668.9hPa | 2.7V | 07:21:00 | 00:00:00 | 00:00:00 | |
| DM0DOS-11 | 2026-09-03 02:36:43 | 51.43719 | 7.80369 | 99° | 57km/h | 3546m | -2.7m/s | -0.2°C | 86.1% | 667.2hPa | 2.7V | 07:21:11 | 03:20:15 | 00:00:00 | |
| BIOWL1-15 | 2026-09-03 02:36:40 | 51.43719 | 7.80369 | 99° | 57km/h | 3546m | -2.7m/s | -0.2°C | 89.6% | 667.2hPa | 2.7V | 07:21:41 | 03:20:15 | 00:00:00 | |
| DO2KSM | 2026-09-03 02:36:39 | 51.43715 | 7.80413 | 100° | 57km/h | 3541m | -2.4m/s | -0.2°C | 84.6% | 667.7hPa | 2.7V | 07:21:00 | 00:00:00 | 00:00:00 | |
| DM0DOS-11 | 2026-09-03 02:36:38 | 51.43731 | 7.80257 | 99° | 57km/h | 3559m | -2.6m/s | -0.3°C | 87.5% | 666.1hPa | 2.7V | 07:21:16 | 03:20:10 | 00:00:00 | |
| DD1CC3-15 | 2026-09-03 02:36:37 | 51.43719 | 7.80369 | 100° | 57km/h | 3546m | -2.7m/s | -0.2°C | 85.2% | 667.2hPa | 2.6V | 07:21:00 | 00:00:00 | 00:00:00 | |
| BIOWL9-15 | 2026-09-03 02:36:34 | 51.43731 | 7.80257 | 99° | 55km/h | 3559m | -2.6m/s | -0.3°C | 86.5% | 666.1hPa | 2.6V | 00:00:00 | 00:00:00 | 00:00:00 | |
| DM0DOS-11 | 2026-09-03 02:36:33 | 51.43742 | 7.80146 | 99° | 55km/h | 3572m | -2.6m/s | -0.4°C | 87.5% | 665hPa | 2.6V | 07:21:21 | 03:20:05 | 00:00:00 | |
| DL8DAS-14 | 2026-09-03 02:36:32 | 51.43735 | 7.80213 | 99° | 55km/h | 3564m | -2.7m/s | -0.4°C | 86.7% | 665.8hPa | 2.7V | 00:00:00 | 00:00:00 | 00:00:00 | |
| AU51GT2 | 2026-09-03 02:36:31 | 51.43735 | 7.80213 | 99° | 55km/h | 3564m | -2.7m/s | -0.4°C | 86.7% | 665.8hPa | 2.7V | 00:00:00 | 00:00:00 | 00:00:00 | |
| DL8DAS-15 | 2026-09-03 02:36:30 | 51.43736 | 7.80212 | 100° | 55km/h | 3564m | -2.7m/s | -0.4°C | 86.7% | 665.7hPa | 2.7V | 00:00:00 | 00:00:00 | 00:00:00 | |
| DL1LOL-11 | 2026-09-03 02:36:29 | 51.43738 | 7.80190 | 101° | 55km/h | 3567m | -2.6m/s | -0.4°C | 86.8% | 665.4hPa | 2.7V | 00:00:00 | 00:00:00 | 00:00:00 | |
| DM0DOS-11 | 2026-09-03 02:36:28 | 51.43754 | 7.80037 | 99° | 55km/h | 3585m | -2.7m/s | -0.5°C | 87.4% | 664hPa | 2.7V | 07:21:26 | 03:20:00 | 00:00:00 | |
| BIOWL1-15 | 2026-09-03 02:36:27 | 51.43744 | 7.80124 | 99° | 55km/h | 3574m | -2.7m/s | -0.4°C | 90.5% | 664.8hPa | 2.6V | 07:21:41 | 03:20:04 | 00:00:00 | |
| BIOWL1-15 | 2026-09-03 02:36:19 | 51.43767 | 7.79908 | 99° | 53km/h | 3601m | -2.6m/s | -0.7°C | 91% | 662.8hPa | 2.7V | 07:21:41 | 03:19:54 | 00:00:00 | |
| DM0DOS-11 | 2026-09-03 02:36:18 | 51.43765 | 7.79929 | 99° | 53km/h | 3598m | -2.5m/s | -0.6°C | 87.8% | 663hPa | 2.7V | 07:21:31 | 03:19:55 | 00:00:00 | |
| DM0DOS-11 | 2026-09-03 02:36:18 | 51.43776 | 7.79822 | 99° | 53km/h | 3611m | -2.6m/s | -0.7°C | 88% | 661.8hPa | 2.7V | 07:21:36 | 03:19:50 | 00:00:00 | |
| DJ2KF-10 | 2026-09-03 02:36:18 | 51.43765 | 7.79929 | 100° | 53km/h | 3598m | -2.5m/s | -0.6°C | 87.8% | 662.9hPa | 2.7V | 00:00:00 | 03:19:55 | 00:00:00 | |
| DD1CC3-15 | 2026-09-03 02:36:17 | 51.43765 | 7.79929 | 101° | 53km/h | 3598m | -2.5m/s | -0.6°C | 86.9% | 663.0hPa | 2.7V | 07:21:00 | 00:00:00 | 00:00:00 | |
| DL4BBY-15 | 2026-09-03 02:36:13 | 51.43776 | 7.79822 | 100° | 62km/h | 3611m | -2.5m/s | -0.4°C | 0% | 0hPa | 2.7V | 00:00:00 | 00:00:00 | 00:00:00 | |
| DJ2DS-15 | 2026-09-03 02:36:12 | 51.43778 | 7.79801 | 99° | 53km/h | 3613m | -2.5m/s | -0.8°C | 86.9% | 661.6hPa | 2.7V | 00:00:00 | 00:00:00 | 00:00:00 | |
| BIOWL7-15 | 2026-09-03 02:36:11 | 51.43780 | 7.79780 | 100° | 53km/h | 3616m | -2.6m/s | -0.8°C | 86.8% | 661.5hPa | 2.7V | 07:21:00 | 00:00:00 | 00:00:00 | |
| DM0DOS-11 | 2026-09-03 02:36:08 | 51.43787 | 7.79717 | 99° | 53km/h | 3623m | -2.6m/s | -0.8°C | 87.4% | 660.8hPa | 2.7V | 07:21:41 | 03:19:45 | 00:00:00 | |
| DM0DOS-11 | 2026-09-03 02:36:08 | 51.43798 | 7.79611 | 99° | 53km/h | 3636m | -2.6m/s | -0.9°C | 87.8% | 659.8hPa | 2.7V | 07:21:46 | 03:19:40 | 00:00:00 | |
| BIOWL1-15 | 2026-09-03 02:36:07 | 51.43789 | 7.79695 | 99° | 53km/h | 3626m | -2.5m/s | -0.9°C | 90.8% | 660.6hPa | 2.7V | 07:22:32 | 03:19:44 | 00:00:00 | |
| DO3DL | 2026-09-03 02:36:04 | 51.43793 | 7.79653 | 100° | 53km/h | 3631m | -2.7m/s | -0.9°C | 86.7% | 660.1hPa | 2.7V | 07:22:00 | 00:00:00 | 00:00:00 | |
| DM0DOS-11 | 2026-09-03 02:36:03 | 51.43808 | 7.79506 | 99° | 53km/h | 3649m | -2.6m/s | -1.1°C | 88.5% | 658.7hPa | 2.7V | 07:21:51 | 03:19:35 | 00:00:00 | |
| BIOWL9-15 | 2026-09-03 02:36:03 | 51.43800 | 7.79590 | 99° | 51km/h | 3639m | -2.7m/s | -1.0°C | 86.9% | 659.6hPa | 2.7V | 00:00:00 | 00:00:00 | 00:00:00 | |
| DL8DAS-14 | 2026-09-03 02:36:01 | 51.43804 | 7.79548 | 99° | 51km/h | 3644m | -2.6m/s | -1.0°C | 87.1% | 659.2hPa | 2.7V | 00:00:00 | 00:00:00 | 00:00:00 | |
| AU51GT2 | 2026-09-03 02:36:00 | 51.43804 | 7.79548 | 99° | 51km/h | 3644m | -2.6m/s | -1.0°C | 87.1% | 659.2hPa | 2.7V | 00:00:00 | 00:00:00 | 00:00:00 | |
| DL8DAS-15 | 2026-09-03 02:35:59 | 51.43804 | 7.79548 | 100° | 53km/h | 3644m | -2.6m/s | -1.0°C | 87.1% | 659.2hPa | 2.7V | 00:00:00 | 00:00:00 | 00:00:00 | |
| DM0DOS-11 | 2026-09-03 02:35:58 | 51.43819 | 7.79402 | 99° | 51km/h | 3662m | -2.7m/s | -1.1°C | 89% | 657.6hPa | 2.7V | 07:21:56 | 03:19:30 | 00:00:00 | |
| BIOWL1-15 | 2026-09-03 02:35:56 | 51.43813 | 7.79464 | 100° | 51km/h | 3655m | -2.6m/s | -1.1°C | 91.7% | 658.3hPa | 2.7V | 07:22:32 | 03:19:33 | 00:00:00 | |
| DM0DOS-11 | 2026-09-03 02:35:53 | 51.43830 | 7.79299 | 99° | 51km/h | 3675m | -2.4m/s | -1.2°C | 89.2% | 656.6hPa | 2.7V | 07:22:01 | 03:19:25 | 00:00:00 | |
| BIOWL1-15 | 2026-09-03 02:35:46 | 51.43834 | 7.79258 | 99° | 51km/h | 3680m | -2.6m/s | -1.3°C | 92.1% | 656.2hPa | 2.7V | 07:22:32 | 03:19:23 | 00:00:00 | |
| DM0DOS-11 | 2026-09-03 02:35:43 | 51.43840 | 7.79197 | 98° | 51km/h | 3687m | -2.6m/s | -1.3°C | 89.2% | 655.6hPa | 2.6V | 07:22:06 | 03:19:20 | 00:00:00 | |
| DM0DOS-11 | 2026-09-03 02:35:43 | 51.43850 | 7.79095 | 99° | 51km/h | 3700m | -2.6m/s | -1.4°C | 89.8% | 654.5hPa | 2.7V | 07:22:11 | 03:19:15 | 00:00:00 | |
| BIOWL1-15 | 2026-09-03 02:35:36 | 51.43854 | 7.79055 | 99° | 51km/h | 3705m | -2.6m/s | -1.5°C | 92.8% | 654hPa | 2.6V | 07:22:32 | 03:19:13 | 00:00:00 | |
| DM0DOS-11 | 2026-09-03 02:35:33 | 51.43860 | 7.78994 | 98° | 51km/h | 3713m | -2.7m/s | -1.6°C | 90.4% | 653.3hPa | 2.7V | 07:22:16 | 03:19:10 | 00:00:00 | |
| DM0DOS-11 | 2026-09-03 02:35:33 | 51.43869 | 7.78892 | 98° | 49km/h | 3726m | -2.8m/s | -1.7°C | 90.5% | 652.4hPa | 2.6V | 07:22:21 | 03:19:05 | 00:00:00 | |
| BIOWL9-15 | 2026-09-03 02:35:32 | 51.43864 | 7.78953 | 99° | 49km/h | 3718m | -2.5m/s | -1.6°C | 89.6% | 653.0hPa | 2.7V | 00:00:00 | 00:00:00 | 00:00:00 | |
| DL8DAS-14 | 2026-09-03 02:35:30 | 51.43868 | 7.78912 | 98° | 49km/h | 3723m | -2.7m/s | -1.6°C | 89.4% | 652.6hPa | 2.7V | 00:00:00 | 00:00:00 | 00:00:00 | |
| AU51GT2 | 2026-09-03 02:35:29 | 51.43868 | 7.78912 | 98° | 49km/h | 3723m | -2.7m/s | -1.6°C | 89.4% | 652.6hPa | 2.7V | 00:00:00 | 00:00:00 | 00:00:00 | |
| DM0DOS-11 | 2026-09-03 02:35:28 | 51.43879 | 7.78792 | 98° | 51km/h | 3740m | -2.6m/s | -1.8°C | 90.9% | 651.3hPa | 2.7V | 07:22:26 | 03:19:00 | 00:00:00 | |
| BIOWL1-15 | 2026-09-03 02:35:27 | 51.43875 | 7.78832 | 99° | 49km/h | 3734m | -3m/s | -1.7°C | 93.6% | 651.7hPa | 2.7V | 07:22:32 | 03:19:02 | 00:00:00 | |
| DO9LL-15 | 2026-09-03 02:35:27 | 51.43871 | 7.78872 | 99° | 49km/h | 3729m | -2.5m/s | -1.6°C | 90.5% | 652.1hPa | 2.7V | 00:00:00 | 03:19:04 | 00:00:00 | |
| DO3DL | 2026-09-03 02:35:26 | 51.43871 | 7.78872 | 99° | 51km/h | 3729m | -2.5m/s | -1.7°C | 89.4% | 652.1hPa | 2.6V | 07:22:00 | 00:00:00 | 00:00:00 | |
| BIOWL7-15 | 2026-09-03 02:35:24 | 51.43875 | 7.78832 | 100° | 49km/h | 3734m | -3.0m/s | -1.7°C | 89.7% | 651.7hPa | 2.6V | 00:00:00 | 00:00:00 | 00:00:00 | |
| WPPR-10 | 2026-09-03 02:35:22 | 51.43883 | 7.78752 | 98° | 47km/h | 3745m | -2.5m/s | -1.8°C | 90.2% | 650.9hPa | 2.6V | 00:00:00 | 00:00:00 | 00:00:00 | |
| DD1CC1-15 | 2026-09-03 02:35:19 | 51.43884 | 7.78732 | 99° | 49km/h | 3748m | -2.7m/s | -1.9°C | 90.4% | 650.7hPa | 2.6V | 07:22:00 | 00:00:00 | 00:00:00 | |
| DM0DOS-11 | 2026-09-03 02:35:18 | 51.43896 | 7.78594 | 97° | 49km/h | 3765m | -2.8m/s | -2°C | 92.7% | 649.1hPa | 2.6V | 07:22:36 | 03:18:50 | 00:00:00 | |
| BIOWL1-15 | 2026-09-03 02:35:14 | 51.43895 | 7.78614 | 98° | 47km/h | 3763m | -2.6m/s | -2°C | 95% | 649.3hPa | 2.7V | 07:23:23 | 03:18:51 | 00:00:00 | |
| BIOWL1-15 | 2026-09-03 02:35:03 | 51.43913 | 7.78401 | 97° | 47km/h | 3792m | -2.6m/s | -2.2°C | 95.2% | 646.9hPa | 2.7V | 07:23:23 | 03:18:40 | 00:00:00 | |
| DM0DOS-11 | 2026-09-03 02:35:03 | 51.43913 | 7.78401 | 96° | 47km/h | 3792m | -2.6m/s | -2.2°C | 93.2% | 646.9hPa | 2.7V | 07:22:46 | 03:18:40 | 00:00:00 | |
| DM0DOS-11 | 2026-09-03 02:35:03 | 51.43920 | 7.78305 | 96° | 47km/h | 3805m | -2.7m/s | -2.3°C | 92.3% | 645.9hPa | 2.6V | 07:22:51 | 03:18:35 | 00:00:00 | |
| BIOWL9-15 | 2026-09-03 02:35:01 | 51.43917 | 7.78343 | 96° | 47km/h | 3800m | -2.6m/s | -2.3°C | 91.1% | 646.3hPa | 2.7V | 00:00:00 | 00:00:00 | 00:00:00 | |
| DJ2DS-15 | 2026-09-03 02:35:00 | 51.43917 | 7.78343 | 96° | 47km/h | 3800m | -2.6m/s | -2.3°C | 91.1% | 646.3hPa | 2.7V | 00:00:00 | 00:00:00 | 00:00:00 | |
| DL8DAS-14 | 2026-09-03 02:34:59 | 51.43920 | 7.78305 | 96° | 47km/h | 3805m | -2.7m/s | -2.3°C | 91.1% | 645.9hPa | 2.7V | 00:00:00 | 00:00:00 | 00:00:00 | |
| AU51GT2 | 2026-09-03 02:34:58 | 51.43920 | 7.78305 | 96° | 47km/h | 3805m | -2.7m/s | -2.3°C | 91.1% | 645.9hPa | 2.7V | 00:00:00 | 00:00:00 | 00:00:00 | |
| DO9LL-15 | 2026-09-03 02:34:57 | 51.43921 | 7.78285 | 97° | 49km/h | 3808m | -2.7m/s | -2.3°C | 92.2% | 645.6hPa | 2.7V | 00:00:00 | 03:18:34 | 00:00:00 | |
| DD1CC3-15 | 2026-09-03 02:34:56 | 51.43921 | 7.78285 | 98° | 47km/h | 3808m | -2.8m/s | -2.4°C | 91.0% | 645.7hPa | 2.7V | 07:23:00 | 00:00:00 | 00:00:00 | |
| DM0DOS-11 | 2026-09-03 02:34:54 | 51.43928 | 7.78208 | 96° | 47km/h | 3818m | -2.7m/s | -2.4°C | 92% | 644.9hPa | 2.7V | 07:22:56 | 03:18:30 | 00:00:00 | |
| DM0DOS-11 | 2026-09-03 02:34:54 | 51.43935 | 7.78113 | 96° | 47km/h | 3832m | -3m/s | -2.5°C | 92.7% | 643.8hPa | 2.7V | 07:23:01 | 03:18:25 | 00:00:00 | |
| BIOWL1-15 | 2026-09-03 02:34:54 | 51.43928 | 7.78208 | 97° | 47km/h | 3818m | -2.7m/s | -2.4°C | 94.2% | 644.9hPa | 2.7V | 07:23:23 | 03:18:30 | 00:00:00 | |
| WPPR-10 | 2026-09-03 02:34:50 | 51.43932 | 7.78151 | 98° | 46km/h | 3826m | -2.5m/s | -2.5°C | 91.0% | 644.1hPa | 2.6V | 00:00:00 | 00:00:00 | 00:00:00 | |
| DM0DOS-11 | 2026-09-03 02:34:48 | 51.43941 | 7.78019 | 97° | 47km/h | 3846m | -2.5m/s | -2.6°C | 94% | 642.6hPa | 2.6V | 07:23:06 | 03:18:20 | 00:00:00 | |
| DD1CC8 | 2026-09-03 02:34:46 | 51.43938 | 7.78075 | 95° | 46km/h | 3837m | -2.8m/s | -2.6°C | 92.1% | 643.2hPa | 2.7V | 00:00:00 | 00:00:00 | 00:00:00 | |
| DM0DOS-11 | 2026-09-03 02:34:43 | 51.43950 | 7.77920 | 97° | 51km/h | 3859m | -2.4m/s | -2.8°C | 94.8% | 641.5hPa | 2.7V | 07:23:11 | 03:18:15 | 00:00:00 | |
| BIOWL1-15 | 2026-09-03 02:34:42 | 51.43943 | 7.78000 | 96° | 49km/h | 3849m | -2.8m/s | -2.7°C | 95.6% | 642.5hPa | 2.6V | 07:23:23 | 03:18:19 | 00:00:00 | |
| DL3AQ-11 | 2026-09-03 02:34:42 | 51.43944 | 7.77980 | 96° | 49km/h | 3851m | -2.8m/s | -2.7°C | 92.8% | 642.3hPa | 2.7V | 00:00:00 | 00:00:00 | 00:00:00 | |
| DO3DL | 2026-09-03 02:34:40 | 51.43945 | 7.77980 | 98° | 49km/h | 3851m | -2.8m/s | -2.7°C | 92.8% | 642.3hPa | 2.7V | 07:23:00 | 00:00:00 | 00:00:00 | |
| DM0DOS-11 | 2026-09-03 02:34:38 | 51.43960 | 7.77818 | 100° | 53km/h | 3872m | -2.7m/s | -2.9°C | 95.3% | 640.5hPa | 2.7V | 07:23:16 | 03:18:10 | 00:00:00 | |
| BIOWL1-15 | 2026-09-03 02:34:34 | 51.43962 | 7.77797 | 101° | 53km/h | 3874m | -2.8m/s | -2.9°C | 95.5% | 640.1hPa | 2.7V | 07:23:23 | 03:18:09 | 00:00:00 | |
| DM0DOS-11 | 2026-09-03 02:34:33 | 51.43973 | 7.77714 | 101° | 55km/h | 3886m | -2.7m/s | -3°C | 96% | 639.4hPa | 2.6V | 07:23:21 | 03:18:05 | 00:00:00 | |
| BIOWL9-15 | 2026-09-03 02:34:30 | 51.43970 | 7.77735 | 102° | 53km/h | 3883m | -3.0m/s | -3.0°C | 94.6% | 639.6hPa | 2.7V | 00:00:00 | 00:00:00 | 00:00:00 | |
| DL8DAS-14 | 2026-09-03 02:34:28 | 51.43975 | 7.77692 | 100° | 51km/h | 3888m | -3.1m/s | -3.0°C | 95.1% | 639.1hPa | 2.7V | 00:00:00 | 00:00:00 | 00:00:00 | |
| DO9LL-15 | 2026-09-03 02:34:27 | 51.43975 | 7.77692 | 101° | 57km/h | 3888m | -3.0m/s | -3.0°C | 96.3% | 639.1hPa | 2.7V | 00:00:00 | 03:18:04 | 00:00:00 | |
| DM0DOS-11 | 2026-09-03 02:34:23 | 51.43987 | 7.77608 | 102° | 53km/h | 3899m | -2.5m/s | -3.1°C | 96.1% | 638.4hPa | 2.7V | 07:23:26 | 03:18:00 | 00:00:00 | |
| DM0DOS-11 | 2026-09-03 02:34:23 | 51.44002 | 7.77501 | 102° | 53km/h | 3913m | -2.8m/s | -3°C | 90.1% | 637.1hPa | 2.7V | 07:23:31 | 03:17:55 | 00:00:00 | |
| BIOWL1-15 | 2026-09-03 02:34:21 | 51.43993 | 7.77566 | 103° | 55km/h | 3904m | -2.7m/s | -3.1°C | 94.3% | 637.9hPa | 2.6V | 07:24:14 | 03:17:58 | 00:00:00 | |
| DL8DAS-15 | 2026-09-03 02:34:20 | 51.43993 | 7.77566 | 104° | 55km/h | 3904m | -2.7m/s | -3.1°C | 94.3% | 637.9hPa | 2.6V | 00:00:00 | 00:00:00 | 00:00:00 | |
| BIOWL7-15 | 2026-09-03 02:34:19 | 51.43996 | 7.77544 | 104° | 53km/h | 3907m | -3.0m/s | -3.1°C | 93.2% | 637.6hPa | 2.6V | 00:00:00 | 00:00:00 | 00:00:00 | |
| DJ2KF-10 | 2026-09-03 02:34:18 | 51.44002 | 7.77501 | 103° | 58km/h | 3913m | -2.8m/s | -3.0°C | 90.1% | 637.1hPa | 2.6V | 00:00:00 | 03:17:55 | 00:00:00 | |
| DD1CC1-15 | 2026-09-03 02:34:17 | 51.44002 | 7.77501 | 104° | 55km/h | 3913m | -2.8m/s | -3.0°C | 88.9% | 637.1hPa | 2.6V | 07:24:00 | 00:00:00 | 00:00:00 | |
| DO2KSM | 2026-09-03 02:34:15 | 51.44008 | 7.77458 | 107° | 55km/h | 3919m | -2.9m/s | -2.9°C | 85.6% | 636.8hPa | 2.6V | 07:24:00 | 00:00:00 | 00:00:00 | |
| DM0DOS-11 | 2026-09-03 02:34:13 | 51.44019 | 7.77393 | 104° | 57km/h | 3927m | -3m/s | -2.7°C | 76.9% | 636.1hPa | 2.6V | 07:23:36 | 03:17:50 | 00:00:00 | |
| DM0DOS-11 | 2026-09-03 02:34:13 | 51.44038 | 7.77283 | 105° | 57km/h | 3941m | -3m/s | -2.5°C | 66.3% | 634.9hPa | 2.7V | 07:23:41 | 03:17:45 | 00:00:00 | |
| BIOWL1-15 | 2026-09-03 02:34:12 | 51.44031 | 7.77327 | 104° | 55km/h | 3936m | -2.7m/s | -2.6°C | 72.8% | 635.4hPa | 2.7V | 07:24:14 | 03:17:47 | 00:00:00 | |
| DL8DAS-15 | 2026-09-03 02:34:10 | 51.44027 | 7.77349 | 107° | 57km/h | 3933m | -2.9m/s | -2.6°C | 69.8% | 635.5hPa | 2.6V | 00:00:00 | 00:00:00 | 00:00:00 | |
| DO1YAY-16 | 2026-09-03 02:34:07 | 51.44068 | 7.77127 | 106° | 57km/h | 3961m | -2.9m/s | -2.5°C | 57.1% | 633.5hPa | 2.6V | 00:00:00 | 00:00:00 | 00:00:00 | |
| DM0DOS-11 | 2026-09-03 02:34:03 | 51.44082 | 7.77059 | 107° | 58km/h | 3969m | -2.6m/s | -2.4°C | 53.9% | 632.7hPa | 2.6V | 07:23:51 | 03:17:35 | 00:00:00 | |
| BIOWL1-15 | 2026-09-03 02:33:59 | 51.44078 | 7.77082 | 108° | 58km/h | 3966m | -2.8m/s | -2.4°C | 58.3% | 632.9hPa | 2.6V | 07:24:14 | 03:17:36 | 00:00:00 | |
| BIOWL9-15 | 2026-09-03 02:33:59 | 51.44082 | 7.77059 | 107° | 57km/h | 3969m | -2.6m/s | -2.4°C | 53.2% | 632.7hPa | 2.7V | 00:00:00 | 00:00:00 | 00:00:00 | |
| AU51GT2 | 2026-09-03 02:33:56 | 51.44092 | 7.77014 | 108° | 58km/h | 3974m | -2.8m/s | -2.4°C | 50.4% | 632.3hPa | 2.7V | 00:00:00 | 00:00:00 | 00:00:00 | |
| DO2KSM | 2026-09-03 02:33:54 | 51.44097 | 7.76990 | 109° | 58km/h | 3977m | -2.6m/s | -2.4°C | 50.6% | 632.1hPa | 2.7V | 07:24:00 | 00:00:00 | 00:00:00 | |
| DM0DOS-11 | 2026-09-03 02:33:53 | 51.44132 | 7.76829 | 109° | 62km/h | 3996m | -3m/s | -2.4°C | 46.7% | 630.6hPa | 2.7V | 07:24:01 | 03:17:25 | 00:00:00 | |
| BIOWL1-15 | 2026-09-03 02:33:48 | 51.44132 | 7.76829 | 109° | 62km/h | 3996m | -3m/s | -2.4°C | 50.8% | 630.6hPa | 2.7V | 07:24:14 | 03:17:25 | 00:00:00 | |
| DJ2DS-15 | 2026-09-03 02:33:48 | 51.44137 | 7.76806 | 109° | 60km/h | 3999m | -2.7m/s | -2.4°C | 45.2% | 630.3hPa | 2.6V | 00:00:00 | 00:00:00 | 00:00:00 | |
| DO3DL | 2026-09-03 02:33:46 | 51.44137 | 7.76806 | 111° | 60km/h | 3999m | -2.7m/s | -2.4°C | 45.2% | 630.3hPa | 2.6V | 07:24:00 | 00:00:00 | 00:00:00 | |
| DB0ND-19 | 2026-09-03 02:33:44 | 51.44153 | 7.76736 | 109° | 60km/h | 4007m | -3.1m/s | 0°C | -1.0% | -1.0hPa | 2.6V | 00:00:00 | 00:00:00 | 00:00:00 | |
| DM0DOS-11 | 2026-09-03 02:33:43 | 51.44187 | 7.76594 | 110° | 64km/h | 4024m | -3m/s | -2.4°C | 42.4% | 628.3hPa | 2.6V | 07:24:11 | 03:17:15 | 00:00:00 | |
| DO2JMG | 2026-09-03 02:33:38 | 51.44187 | 7.76594 | 111° | 64km/h | 4024m | -3m/s | 0°C | 0% | 0hPa | 2.6V | 18:12:15 | 03:17:15 | 00:00:00 | |
| DL3AQ-11 | 2026-09-03 02:33:37 | 51.44192 | 7.76570 | 109° | 62km/h | 4027m | -2.9m/s | -2.4°C | 41.6% | 628.1hPa | 2.7V | 00:00:00 | 00:00:00 | 00:00:00 | |
| DO1YAY-16 | 2026-09-03 02:33:36 | 51.44198 | 7.76546 | 109° | 62km/h | 4030m | -3.0m/s | -2.4°C | 41.7% | 627.9hPa | 2.7V | 00:00:00 | 00:00:00 | 00:00:00 | |
| DD1CC1-15 | 2026-09-03 02:33:35 | 51.44198 | 7.76546 | 110° | 64km/h | 4030m | -3.0m/s | -2.4°C | 41.7% | 627.9hPa | 2.7V | 07:24:00 | 00:00:00 | 00:00:00 | |
| DO3DL | 2026-09-03 02:33:34 | 51.44203 | 7.76521 | 111° | 64km/h | 4033m | -2.7m/s | -2.4°C | 41.7% | 627.7hPa | 2.7V | 07:24:00 | 00:00:00 | 00:00:00 | |
| DM0DOS-11 | 2026-09-03 02:33:33 | 51.44242 | 7.76347 | 109° | 66km/h | 4053m | -3m/s | -2.5°C | 39.6% | 626.1hPa | 2.7V | 07:24:21 | 03:17:05 | 00:00:00 | |
| DM0DOS-11 | 2026-09-03 02:33:28 | 51.44269 | 7.76218 | 107° | 68km/h | 4067m | -2.6m/s | -2.5°C | 38.4% | 625hPa | 2.6V | 07:24:26 | 03:17:00 | 00:00:00 | |
| BIOWL1-15 | 2026-09-03 02:33:28 | 51.44242 | 7.76347 | 109° | 66km/h | 4053m | -3m/s | -2.5°C | 43.8% | 626.1hPa | 2.7V | 07:25:05 | 03:17:05 | 00:00:00 | |
| DB0UT-7 | 2026-09-03 02:33:28 | 51.44242 | 7.76347 | 110° | 69km/h | 4053m | -3.0m/s | -2.4°C | 39.6% | 626.0hPa | 2.7V | 07:24:00 | 03:17:05 | 00:00:00 | |
| DO3DL | 2026-09-03 02:33:27 | 51.44242 | 7.76347 | 110° | 66km/h | 4053m | -3.0m/s | -2.5°C | 39.1% | 626.1hPa | 2.7V | 07:25:00 | 00:00:00 | 00:00:00 | |
| DL8DAS-14 | 2026-09-03 02:33:26 | 51.44258 | 7.76270 | 109° | 68km/h | 4061m | -2.6m/s | -2.5°C | 38.5% | 625.5hPa | 2.7V | 00:00:00 | 00:00:00 | 00:00:00 | |
| AU51GT2 | 2026-09-03 02:33:25 | 51.44263 | 7.76244 | 108° | 68km/h | 4064m | -3.0m/s | -2.5°C | 38.1% | 625.2hPa | 2.7V | 00:00:00 | 00:00:00 | 00:00:00 | |
| DL4BBY-15 | 2026-09-03 02:33:24 | 51.44264 | 7.76244 | 109° | 69km/h | 4064m | -2.9m/s | -2.2°C | 0% | 0hPa | 2.7V | 00:00:00 | 00:00:00 | 00:00:00 | |
| DM0DOS-11 | 2026-09-03 02:33:23 | 51.44296 | 7.76088 | 108° | 68km/h | 4080m | -2.8m/s | -2.5°C | 35.3% | 623.9hPa | 2.7V | 07:24:31 | 03:16:55 | 00:00:00 | |
| DL3AQ-11 | 2026-09-03 02:33:21 | 51.44280 | 7.76166 | 109° | 68km/h | 4072m | -2.7m/s | -2.6°C | 37.5% | 624.6hPa | 2.7V | 00:00:00 | 00:00:00 | 00:00:00 | |
| DO3DL | 2026-09-03 02:33:20 | 51.44279 | 7.76166 | 110° | 68km/h | 4072m | -2.7m/s | -2.6°C | 37.5% | 624.6hPa | 2.7V | 07:25:00 | 00:00:00 | 00:00:00 | |
| DM0DOS-11 | 2026-09-03 02:33:18 | 51.44323 | 7.75956 | 108° | 69km/h | 4095m | -2.7m/s | -2.3°C | 26.1% | 622.9hPa | 2.7V | 07:24:36 | 03:16:50 | 00:00:00 | |
| BIOWL1-15 | 2026-09-03 02:33:18 | 51.44296 | 7.76088 | 109° | 68km/h | 4081m | -2.8m/s | -2.5°C | 39.1% | 623.9hPa | 2.7V | 07:25:05 | 03:16:55 | 00:00:00 | |
| DO2JMG | 2026-09-03 02:33:17 | 51.44301 | 7.76061 | 109° | 68km/h | 4083m | -3m/s | 0°C | 0% | 0hPa | 2.6V | 18:12:15 | 03:16:54 | 00:00:00 | |
| DD1CC1-15 | 2026-09-03 02:33:15 | 51.44307 | 7.76035 | 109° | 69km/h | 4086m | -2.8m/s | -2.4°C | 29.6% | 623.5hPa | 2.7V | 07:25:00 | 00:00:00 | 00:00:00 | |
| DO3DL | 2026-09-03 02:33:14 | 51.44312 | 7.76009 | 110° | 69km/h | 4089m | -2.8m/s | -2.4°C | 29.3% | 623.3hPa | 2.7V | 07:25:00 | 00:00:00 | 00:00:00 | |
| DM0DOS-11 | 2026-09-03 02:33:13 | 51.44352 | 7.75822 | 108° | 69km/h | 4108m | -2.7m/s | -2.3°C | 25.5% | 621.8hPa | 2.7V | 07:24:41 | 03:16:45 | 00:00:00 | |
| BIOWL1-15 | 2026-09-03 02:33:07 | 51.44357 | 7.75795 | 109° | 69km/h | 4111m | -2.8m/s | -2.4°C | 29% | 621.6hPa | 2.7V | 07:25:05 | 03:16:44 | 00:00:00 | |
| DM0DOS-11 | 2026-09-03 02:33:03 | 51.44380 | 7.75688 | 108° | 69km/h | 4122m | -2.7m/s | -2.3°C | 22.2% | 620.7hPa | 2.6V | 07:24:46 | 03:16:40 | 00:00:00 | |
| DM0DOS-11 | 2026-09-03 02:33:03 | 51.44409 | 7.75553 | 108° | 71km/h | 4135m | -2.9m/s | -2.3°C | 19.9% | 619.6hPa | 2.7V | 07:24:51 | 03:16:35 | 00:00:00 | |
| BIOWL1-15 | 2026-09-03 02:32:56 | 51.44420 | 7.75499 | 109° | 71km/h | 4141m | -3m/s | -2.3°C | 21.6% | 619.2hPa | 2.6V | 07:25:05 | 03:16:33 | 00:00:00 | |
| AU51GT2 | 2026-09-03 02:32:54 | 51.44438 | 7.75418 | 108° | 69km/h | 4150m | -2.9m/s | -2.4°C | 17.7% | 618.6hPa | 2.7V | 00:00:00 | 00:00:00 | 00:00:00 | |
| DM0DOS-11 | 2026-09-03 02:32:53 | 51.44438 | 7.75418 | 108° | 71km/h | 4150m | -2.9m/s | -2.4°C | 18% | 618.6hPa | 2.7V | 07:24:56 | 03:16:30 | 00:00:00 | |
| DM0DOS-11 | 2026-09-03 02:32:53 | 51.44467 | 7.75283 | 109° | 69km/h | 4164m | -2.9m/s | -2.4°C | 16.3% | 617.4hPa | 2.6V | 07:25:01 | 03:16:25 | 00:00:00 | |
| DL8DAS-15 | 2026-09-03 02:32:52 | 51.44438 | 7.75418 | 110° | 71km/h | 4150m | -2.9m/s | -2.4°C | 17.7% | 618.6hPa | 2.7V | 00:00:00 | 00:00:00 | 00:00:00 | |
| DO2KSM | 2026-09-03 02:32:51 | 51.44443 | 7.75391 | 110° | 71km/h | 4153m | -2.7m/s | -2.4°C | 17.0% | 618.3hPa | 2.7V | 00:00:00 | 00:00:00 | 00:00:00 | |
| DM0DOS-11 | 2026-09-03 02:32:48 | 51.44496 | 7.75149 | 108° | 69km/h | 4177m | -2.9m/s | -2.5°C | 22% | 616.3hPa | 2.7V | 07:25:06 | 03:16:20 | 00:00:00 | |
| BIOWL1-15 | 2026-09-03 02:32:45 | 51.44484 | 7.75203 | 109° | 69km/h | 4172m | -2.6m/s | -2.5°C | 26.1% | 616.8hPa | 2.7V | 07:25:05 | 03:16:22 | 00:00:00 | |
| DM0DOS-11 | 2026-09-03 02:32:43 | 51.44523 | 7.75015 | 107° | 69km/h | 4192m | -2.5m/s | -2.7°C | 27.2% | 615.2hPa | 2.7V | 07:25:11 | 03:16:15 | 00:00:00 | |
| DD1CC8 | 2026-09-03 02:32:42 | 51.44501 | 7.75122 | 108° | 69km/h | 4180m | -3.0m/s | -2.6°C | 22.8% | 616.2hPa | 2.7V | 00:00:00 | 00:00:00 | 00:00:00 | |
| DH3RM | 2026-09-03 02:32:40 | 51.44507 | 7.75095 | 109° | 69km/h | 4183m | -3.0m/s | -2.6°C | 24.2% | 615.9hPa | 2.7V | 07:25:00 | 00:00:00 | 00:00:00 | |
| DO3DL | 2026-09-03 02:32:39 | 51.44512 | 7.75068 | 109° | 69km/h | 4186m | -2.8m/s | -2.6°C | 25.3% | 615.6hPa | 2.7V | 07:25:00 | 00:00:00 | 00:00:00 | |
| DM0DOS-11 | 2026-09-03 02:32:38 | 51.44549 | 7.74880 | 107° | 69km/h | 4206m | -2.8m/s | -2.8°C | 23.8% | 614.2hPa | 2.7V | 07:25:16 | 03:16:10 | 00:00:00 | |
| HSKMA3-T | 2026-09-03 02:32:34 | 51.44544 | 7.74907 | 107° | 69km/h | 4203m | -2.9m/s | -2.7°C | 28.2% | 0hPa | 2.6V | 18:12:15 | 03:16:11 | 00:00:00 | |
| DM0DOS-11 | 2026-09-03 02:32:33 | 51.44576 | 7.74745 | 106° | 69km/h | 4220m | -2.8m/s | -2.8°C | 21.8% | 613hPa | 2.6V | 07:25:21 | 03:16:05 | 00:00:00 | |
| BIOWL1-15 | 2026-09-03 02:32:24 | 51.44595 | 7.74637 | 106° | 69km/h | 4231m | -3m/s | -2.9°C | 22.6% | 612.1hPa | 2.7V | 07:25:56 | 03:16:01 | 00:00:00 | |
| DM0DOS-11 | 2026-09-03 02:32:23 | 51.44600 | 7.74611 | 106° | 69km/h | 4234m | -2.7m/s | -2.9°C | 18.1% | 611.9hPa | 2.7V | 07:25:26 | 03:16:00 | 00:00:00 | |
| BIOWL1-15 | 2026-09-03 02:32:16 | 51.44644 | 7.74369 | 106° | 69km/h | 4260m | -3m/s | -3.1°C | 21.1% | 610hPa | 2.6V | 07:25:56 | 03:15:51 | 00:00:00 | |
| DM0DOS-11 | 2026-09-03 02:32:13 | 51.44649 | 7.74342 | 105° | 69km/h | 4263m | -2.9m/s | -3.1°C | 19.7% | 609.7hPa | 2.6V | 07:25:36 | 03:15:50 | 00:00:00 | |
| DM0DOS-11 | 2026-09-03 02:32:13 | 51.44673 | 7.74208 | 105° | 68km/h | 4277m | -2.9m/s | -3.2°C | 20.5% | 608.7hPa | 2.6V | 07:25:41 | 03:15:45 | 00:00:00 | |
| DO3DL | 2026-09-03 02:32:12 | 51.44649 | 7.74342 | 106° | 69km/h | 4263m | -2.9m/s | -3.1°C | 19.3% | 609.7hPa | 2.7V | 07:25:00 | 00:00:00 | 00:00:00 | |
| DO2KSM | 2026-09-03 02:32:09 | 51.44663 | 7.74261 | 107° | 68km/h | 4271m | -2.8m/s | -3.2°C | 20.0% | 609.1hPa | 2.7V | 07:25:00 | 00:00:00 | 00:00:00 | |
| DM0DOS-11 | 2026-09-03 02:32:08 | 51.44696 | 7.74074 | 104° | 69km/h | 4292m | -2.9m/s | -3.4°C | 21.1% | 607.5hPa | 2.7V | 07:25:46 | 03:15:40 | 00:00:00 | |
| BIOWL1-15 | 2026-09-03 02:32:03 | 51.44696 | 7.74074 | 105° | 69km/h | 4292m | -2.9m/s | -3.4°C | 24.4% | 607.5hPa | 2.7V | 07:25:56 | 03:15:40 | 00:00:00 | |
| DM0DOS-11 | 2026-09-03 02:32:03 | 51.44719 | 7.73939 | 105° | 69km/h | 4305m | -3m/s | -3.6°C | 40.2% | 606.4hPa | 2.7V | 07:25:51 | 03:15:35 | 00:00:00 | |
| DL3AQ-11 | 2026-09-03 02:32:01 | 51.44710 | 7.73993 | 105° | 69km/h | 4300m | -2.8m/s | -3.5°C | 29.0% | 606.9hPa | 2.6V | 00:00:00 | 00:00:00 | 00:00:00 | |
| DJ2DS-15 | 2026-09-03 02:32:00 | 51.44714 | 7.73966 | 105° | 69km/h | 4303m | -3.0m/s | -3.6°C | 30.3% | 606.7hPa | 2.6V | 00:00:00 | 00:00:00 | 00:00:00 | |
| DL1LOL-11 | 2026-09-03 02:31:59 | 51.44710 | 7.73993 | 106° | 69km/h | 4300m | -2.8m/s | -3.5°C | 29.0% | 606.9hPa | 2.6V | 00:00:00 | 00:00:00 | 00:00:00 | |
| DM0DOS-11 | 2026-09-03 02:31:58 | 51.44742 | 7.73802 | 104° | 71km/h | 4320m | -2.8m/s | -3.6°C | 27.9% | 605.3hPa | 2.6V | 07:25:56 | 03:15:30 | 00:00:00 | |
| DB0UT-7 | 2026-09-03 02:31:58 | 51.44719 | 7.73939 | 106° | 71km/h | 4306m | -2.9m/s | -3.6°C | 40.2% | 606.4hPa | 2.7V | 00:00:00 | 00:00:00 | 00:00:00 | |
| DO9LL-15 | 2026-09-03 02:31:57 | 51.44723 | 7.73912 | 105° | 71km/h | 4309m | -3.0m/s | -3.6°C | 37.1% | 606.2hPa | 2.6V | 00:00:00 | 03:15:34 | 00:00:00 | |
| DL4BBY-15 | 2026-09-03 02:31:54 | 51.44737 | 7.73829 | 105° | 71km/h | 4318m | -2.9m/s | -3.3°C | 0% | 0hPa | 2.6V | 00:00:00 | 00:00:00 | 00:00:00 | |
| DM0DOS-11 | 2026-09-03 02:31:53 | 51.44765 | 7.73663 | 105° | 71km/h | 4335m | -2.8m/s | -3.7°C | 34.1% | 604.3hPa | 2.6V | 07:26:01 | 03:15:25 | 00:00:00 | |
| BIOWL1-15 | 2026-09-03 02:31:52 | 51.44746 | 7.73774 | 105° | 71km/h | 4323m | -3m/s | -3.6°C | 31.5% | 605hPa | 2.7V | 07:26:47 | 03:15:29 | 00:00:00 | |
| AU51GT2 | 2026-09-03 02:31:52 | 51.44751 | 7.73746 | 104° | 69km/h | 4326m | -3.0m/s | -3.6°C | 25.8% | 604.8hPa | 2.7V | 00:00:00 | 00:00:00 | 00:00:00 | |
| DO3DL | 2026-09-03 02:31:51 | 51.44746 | 7.73774 | 106° | 71km/h | 4323m | -3.0m/s | -3.6°C | 27.1% | 605.0hPa | 2.7V | 07:26:00 | 00:00:00 | 00:00:00 | |
| DD1CC3-15 | 2026-09-03 02:31:50 | 51.44751 | 7.73746 | 106° | 71km/h | 4326m | -3.0m/s | -3.6°C | 25.8% | 604.8hPa | 2.7V | 07:26:00 | 00:00:00 | 00:00:00 | |
| DL8DAS-15 | 2026-09-03 02:31:49 | 51.44756 | 7.73719 | 106° | 71km/h | 4329m | -3.0m/s | -3.7°C | 29.5% | 604.7hPa | 2.7V | 00:00:00 | 00:00:00 | 00:00:00 | |
| DM0DOS-11 | 2026-09-03 02:31:48 | 51.44789 | 7.73524 | 105° | 71km/h | 4349m | -3.1m/s | -3.8°C | 33.8% | 603hPa | 2.7V | 07:26:06 | 03:15:20 | 00:00:00 | |
| BIOWL1-15 | 2026-09-03 02:31:42 | 51.44794 | 7.73496 | 105° | 71km/h | 4353m | -3.2m/s | -3.8°C | 38.3% | 602.8hPa | 2.7V | 07:26:47 | 03:15:19 | 00:00:00 | |
| BIOWL1-15 | 2026-09-03 02:31:34 | 51.44839 | 7.73218 | 105° | 71km/h | 4382m | -3m/s | -3.9°C | 32.8% | 600.5hPa | 2.7V | 07:26:47 | 03:15:09 | 00:00:00 | |
| DM0DOS-11 | 2026-09-03 02:31:33 | 51.44856 | 7.73107 | 103° | 71km/h | 4394m | -3.1m/s | -4°C | 27.2% | 599.7hPa | 2.6V | 07:26:21 | 03:15:05 | 00:00:00 | |
| DO3DL | 2026-09-03 02:31:31 | 51.44839 | 7.73218 | 106° | 71km/h | 4382m | -3.0m/s | -3.9°C | 28.3% | 600.5hPa | 2.7V | 07:26:00 | 00:00:00 | 00:00:00 | |
| DD1CC3-15 | 2026-09-03 02:31:30 | 51.44843 | 7.73190 | 105° | 71km/h | 4385m | -3.0m/s | -4.0°C | 28.2% | 600.2hPa | 2.7V | 07:26:00 | 00:00:00 | 00:00:00 | |
| DM0DOS-11 | 2026-09-03 02:31:28 | 51.44878 | 7.72968 | 104° | 71km/h | 4409m | -3m/s | -4.1°C | 28.5% | 598.5hPa | 2.7V | 07:26:26 | 03:15:00 | 00:00:00 | |
| DB0UT-7 | 2026-09-03 02:31:28 | 51.44856 | 7.73107 | 104° | 71km/h | 4394m | -3.0m/s | -4.0°C | 27.2% | 599.6hPa | 2.7V | 00:00:00 | 03:15:05 | 00:00:00 | |
| DO9LL-15 | 2026-09-03 02:31:27 | 51.44860 | 7.73079 | 105° | 71km/h | 4397m | -2.9m/s | -4.0°C | 27.3% | 599.4hPa | 2.7V | 00:00:00 | 03:15:04 | 00:00:00 | |
| DH3RM | 2026-09-03 02:31:26 | 51.44860 | 7.73079 | 105° | 71km/h | 4397m | -2.9m/s | -4.0°C | 26.8% | 599.4hPa | 2.7V | 07:26:00 | 00:00:00 | 00:00:00 | |
| BIOWL7-15 | 2026-09-03 02:31:25 | 51.44864 | 7.73051 | 105° | 71km/h | 4400m | -3.0m/s | -4.0°C | 26.8% | 599.2hPa | 2.7V | 07:26:00 | 00:00:00 | 00:00:00 | |
| DL4BBY-15 | 2026-09-03 02:31:24 | 51.44873 | 7.72996 | 104° | 73km/h | 4406m | -3.1m/s | -3.8°C | 0% | 0hPa | 2.7V | 00:00:00 | 00:00:00 | 00:00:00 | |
| DM0DOS-11 | 2026-09-03 02:31:23 | 51.44899 | 7.72829 | 103° | 71km/h | 4424m | -3.1m/s | -4.2°C | 28.7% | 597.3hPa | 2.7V | 07:26:31 | 03:14:55 | 00:00:00 | |
| BIOWL1-15 | 2026-09-03 02:31:21 | 51.44886 | 7.72913 | 104° | 71km/h | 4415m | -3.1m/s | -4.2°C | 32.5% | 598.1hPa | 2.6V | 07:26:47 | 03:14:58 | 00:00:00 | |
| AU51GT2 | 2026-09-03 02:31:21 | 51.44891 | 7.72885 | 104° | 69km/h | 4418m | -3.1m/s | -4.2°C | 28.1% | 597.9hPa | 2.7V | 00:00:00 | 00:00:00 | 00:00:00 | |
| DL8DAS-15 | 2026-09-03 02:31:19 | 51.44890 | 7.72885 | 105° | 71km/h | 4418m | -3.1m/s | -4.2°C | 28.1% | 597.9hPa | 2.7V | 00:00:00 | 00:00:00 | 00:00:00 | |
| DM0DOS-11 | 2026-09-03 02:31:18 | 51.44920 | 7.72689 | 103° | 71km/h | 4438m | -3.2m/s | -4.3°C | 29.3% | 596.2hPa | 2.7V | 07:26:36 | 03:14:50 | 00:00:00 | |
| DJ2KF-10 | 2026-09-03 02:31:18 | 51.44899 | 7.72829 | 104° | 73km/h | 4424m | -3.1m/s | -4.2°C | 28.7% | 597.3hPa | 2.6V | 00:00:00 | 03:14:55 | 00:00:00 | |
| DM0DOS-11 | 2026-09-03 02:31:13 | 51.44941 | 7.72547 | 103° | 71km/h | 4454m | -3m/s | -4.4°C | 29.6% | 595hPa | 2.6V | 07:26:41 | 03:14:45 | 00:00:00 | |
| BIOWL1-15 | 2026-09-03 02:31:11 | 51.44929 | 7.72633 | 103° | 71km/h | 4445m | -3.1m/s | -4.4°C | 33.4% | 595.7hPa | 2.7V | 07:26:47 | 03:14:48 | 00:00:00 | |
| DL3AQ-11 | 2026-09-03 02:31:09 | 51.44941 | 7.72547 | 103° | 71km/h | 4454m | -3.0m/s | -4.4°C | 29.0% | 595.0hPa | 2.7V | 00:00:00 | 00:00:00 | 00:00:00 | |
| DH3RM | 2026-09-03 02:31:07 | 51.44941 | 7.72547 | 104° | 71km/h | 4454m | -3.0m/s | -4.4°C | 29.0% | 595.0hPa | 2.7V | 07:26:00 | 00:00:00 | 00:00:00 | |
| DO2KSM | 2026-09-03 02:31:06 | 51.44945 | 7.72519 | 104° | 71km/h | 4457m | -3.0m/s | -4.5°C | 29.0% | 594.9hPa | 2.7V | 07:26:00 | 00:00:00 | 00:00:00 | |
| DM0DOS-11 | 2026-09-03 02:31:03 | 51.44962 | 7.72404 | 102° | 73km/h | 4469m | -3m/s | -4.6°C | 29.9% | 593.9hPa | 2.7V | 07:26:46 | 03:14:40 | 00:00:00 | |
| DM0DOS-11 | 2026-09-03 02:31:03 | 51.44982 | 7.72259 | 102° | 73km/h | 4485m | -3m/s | -4.7°C | 28.9% | 592.8hPa | 2.7V | 07:26:51 | 03:14:35 | 00:00:00 | |
| BIOWL1-15 | 2026-09-03 02:31:00 | 51.44974 | 7.72317 | 103° | 73km/h | 4478m | -3m/s | -4.7°C | 34% | 593.2hPa | 2.7V | 07:27:38 | 03:14:37 | 00:00:00 | |
| DL3AQ-11 | 2026-09-03 02:30:58 | 51.44986 | 7.72230 | 102° | 73km/h | 4488m | -2.9m/s | -4.7°C | 28.7% | 592.6hPa | 2.7V | 00:00:00 | 00:00:00 | 00:00:00 | |
| DO9LL-15 | 2026-09-03 02:30:57 | 51.44986 | 7.72230 | 103° | 75km/h | 4488m | -2.9m/s | -4.7°C | 29.2% | 592.5hPa | 2.7V | 00:00:00 | 03:14:34 | 00:00:00 | |
| DM0DOS-11 | 2026-09-03 02:30:53 | 51.45003 | 7.72111 | 102° | 75km/h | 4500m | -3m/s | -4.8°C | 26.7% | 591.7hPa | 2.7V | 07:26:56 | 03:14:30 | 00:00:00 | |
| DM0DOS-11 | 2026-09-03 02:30:53 | 51.45023 | 7.71963 | 102° | 75km/h | 4515m | -3.1m/s | -4.9°C | 28.2% | 590.5hPa | 2.6V | 07:27:01 | 03:14:25 | 00:00:00 | |
| BIOWL1-15 | 2026-09-03 02:30:49 | 51.45019 | 7.71993 | 102° | 75km/h | 4512m | -3m/s | -4.9°C | 32.8% | 590.7hPa | 2.6V | 07:27:38 | 03:14:26 | 00:00:00 | |
| DJ2DS-15 | 2026-09-03 02:30:47 | 51.45027 | 7.71933 | 102° | 75km/h | 4518m | -3.4m/s | -4.9°C | 25.6% | 590.2hPa | 2.7V | 00:00:00 | 00:00:00 | 00:00:00 | |
| BIOWL7-15 | 2026-09-03 02:30:45 | 51.45035 | 7.71873 | 104° | 75km/h | 4525m | -3.1m/s | -4.9°C | 21.3% | 589.8hPa | 2.7V | 07:27:00 | 00:00:00 | 00:00:00 | |
| DO3DL | 2026-09-03 02:30:44 | 51.45035 | 7.71873 | 104° | 75km/h | 4525m | -3.1m/s | -4.9°C | 21.3% | 589.8hPa | 2.7V | 07:27:00 | 00:00:00 | 00:00:00 | |
| DM0DOS-11 | 2026-09-03 02:30:43 | 51.45065 | 7.71665 | 103° | 75km/h | 4546m | -2.9m/s | -5°C | 28% | 588.1hPa | 2.7V | 07:27:11 | 03:14:15 | 00:00:00 | |
| BIOWL1-15 | 2026-09-03 02:30:41 | 51.45060 | 7.71694 | 103° | 75km/h | 4543m | -3.2m/s | -5°C | 29.7% | 588.4hPa | 2.7V | 07:27:38 | 03:14:16 | 00:00:00 | |
| DL1CLM-18 | 2026-09-03 02:30:39 | 51.45056 | 7.71724 | 104° | 75km/h | 4540m | -3.2m/s | -5.0°C | 23.4% | 588.7hPa | 2.7V | 00:00:00 | 00:00:00 | 00:00:00 | |
| DD1CC8 | 2026-09-03 02:30:38 | 51.45064 | 7.71665 | 103° | 75km/h | 4546m | -2.9m/s | -5.1°C | 27.4% | 588.1hPa | 2.7V | 00:00:00 | 00:00:00 | 00:00:00 | |
| DO3DL | 2026-09-03 02:30:37 | 51.45064 | 7.71664 | 104° | 75km/h | 4546m | -2.9m/s | -5.1°C | 27.4% | 588.2hPa | 2.7V | 07:27:00 | 00:00:00 | 00:00:00 | |
| DL8DAS-15 | 2026-09-03 02:30:36 | 51.45069 | 7.71635 | 104° | 75km/h | 4549m | -3.0m/s | -5.1°C | 27.5% | 588.1hPa | 2.7V | 00:00:00 | 00:00:00 | 00:00:00 | |
| DM0DOS-11 | 2026-09-03 02:30:33 | 51.45109 | 7.71366 | 102° | 77km/h | 4576m | -3.1m/s | -5.2°C | 26.6% | 585.9hPa | 2.7V | 07:27:21 | 03:14:05 | 00:00:00 | |
| BIOWL1-15 | 2026-09-03 02:30:28 | 51.45109 | 7.71366 | 103° | 77km/h | 4576m | -3.1m/s | -5.3°C | 30.4% | 585.9hPa | 2.7V | 07:27:38 | 03:14:05 | 00:00:00 | |
| DB0UT-7 | 2026-09-03 02:30:28 | 51.45109 | 7.71366 | 103° | 75km/h | 4576m | -3.0m/s | -5.2°C | 26.6% | 585.9hPa | 2.7V | 00:00:00 | 03:14:05 | 00:00:00 | |
| DO9LL-15 | 2026-09-03 02:30:27 | 51.45113 | 7.71336 | 104° | 75km/h | 4579m | -3.0m/s | -5.2°C | 24.4% | 585.6hPa | 2.6V | 00:00:00 | 03:14:04 | 00:00:00 | |
| DO2KSM | 2026-09-03 02:30:25 | 51.45118 | 7.71306 | 104° | 77km/h | 4582m | -3.1m/s | -5.3°C | 23.8% | 585.4hPa | 2.6V | 07:27:00 | 00:00:00 | 00:00:00 | |
| DM0DOS-11 | 2026-09-03 02:30:23 | 51.45131 | 7.71216 | 102° | 77km/h | 4592m | -3.1m/s | -5.4°C | 24.6% | 584.8hPa | 2.6V | 07:27:26 | 03:14:00 | 00:00:00 | |
| DM0DOS-11 | 2026-09-03 02:30:23 | 51.45153 | 7.71066 | 103° | 77km/h | 4607m | -3.1m/s | -5.5°C | 24.1% | 583.6hPa | 2.7V | 07:27:31 | 03:13:55 | 00:00:00 | |
| BIOWL1-15 | 2026-09-03 02:30:18 | 51.45153 | 7.71066 | 103° | 77km/h | 4607m | -3.1m/s | -5.5°C | 27.7% | 583.6hPa | 2.7V | 07:27:38 | 03:13:55 | 00:00:00 | |
| DJ2KF-10 | 2026-09-03 02:30:18 | 51.45153 | 7.71066 | 104° | 75km/h | 4607m | -3.1m/s | -5.4°C | 24.1% | 583.6hPa | 2.7V | 00:00:00 | 03:13:55 | 00:00:00 | |
| DO3DL | 2026-09-03 02:30:17 | 51.45153 | 7.71066 | 104° | 77km/h | 4607m | -3.1m/s | -5.5°C | 23.6% | 583.6hPa | 2.7V | 07:27:00 | 00:00:00 | 00:00:00 | |
| DM0DOS-11 | 2026-09-03 02:30:13 | 51.45174 | 7.70916 | 102° | 77km/h | 4622m | -3.2m/s | -5.6°C | 23.3% | 582.5hPa | 2.7V | 07:27:36 | 03:13:50 | 00:00:00 | |
| DM0DOS-11 | 2026-09-03 02:30:13 | 51.45195 | 7.70767 | 102° | 75km/h | 4638m | -3.2m/s | -5.7°C | 21% | 581.3hPa | 2.7V | 07:27:41 | 03:13:45 | 00:00:00 | |
| DO3DL | 2026-09-03 02:30:11 | 51.45183 | 7.70856 | 104° | 77km/h | 4628m | -3.2m/s | -5.7°C | 21.9% | 582.1hPa | 2.6V | 07:27:00 | 00:00:00 | 00:00:00 | |
| DD1CC1-15 | 2026-09-03 02:30:10 | 51.45183 | 7.70856 | 104° | 77km/h | 4628m | -3.2m/s | -5.7°C | 21.9% | 582.1hPa | 2.6V | 07:27:00 | 00:00:00 | 00:00:00 | |
| DM0DOS-11 | 2026-09-03 02:30:08 | 51.45218 | 7.70618 | 103° | 75km/h | 4653m | -3.1m/s | -5.8°C | 20% | 580.3hPa | 2.6V | 07:27:46 | 03:13:40 | 00:00:00 | |
| BIOWL1-15 | 2026-09-03 02:30:07 | 51.45200 | 7.70737 | 103° | 75km/h | 4641m | -3.1m/s | -5.7°C | 23.6% | 581.1hPa | 2.7V | 07:28:29 | 03:13:44 | 00:00:00 | |
| DD1CC3-15 | 2026-09-03 02:30:06 | 51.45200 | 7.70737 | 104° | 75km/h | 4641m | -3.1m/s | -5.7°C | 20.1% | 581.1hPa | 2.6V | 07:28:00 | 00:00:00 | 00:00:00 | |
| DO2KSM | 2026-09-03 02:30:04 | 51.45209 | 7.70677 | 105° | 75km/h | 4647m | -3.1m/s | -5.7°C | 19.7% | 580.7hPa | 2.6V | 07:28:00 | 00:00:00 | 00:00:00 | |
| DM0DOS-11 | 2026-09-03 02:30:03 | 51.45240 | 7.70471 | 103° | 75km/h | 4669m | -3.2m/s | -5.9°C | 19.2% | 579.1hPa | 2.6V | 07:27:51 | 03:13:35 | 00:00:00 | |
| DL3AQ-11 | 2026-09-03 02:30:01 | 51.45227 | 7.70560 | 103° | 75km/h | 4659m | -3.2m/s | -5.8°C | 19.3% | 579.7hPa | 2.7V | 00:00:00 | 00:00:00 | 00:00:00 | |
| DO1YAY-16 | 2026-09-03 02:29:59 | 51.45236 | 7.70501 | 103° | 73km/h | 4666m | -3.3m/s | -5.9°C | 19.1% | 579.3hPa | 2.7V | 00:00:00 | 00:00:00 | 00:00:00 | |
| DM0DOS-11 | 2026-09-03 02:29:58 | 51.45262 | 7.70325 | 103° | 75km/h | 4684m | -3.1m/s | -6°C | 16.5% | 577.9hPa | 2.7V | 07:27:56 | 03:13:30 | 00:00:00 | |
| BIOWL1-15 | 2026-09-03 02:29:56 | 51.45249 | 7.70413 | 104° | 75km/h | 4675m | -3.1m/s | -5.9°C | 21.4% | 578.6hPa | 2.7V | 07:28:29 | 03:13:33 | 00:00:00 | |
| DL8DAS-15 | 2026-09-03 02:29:55 | 51.45249 | 7.70412 | 105° | 75km/h | 4675m | -3.1m/s | -5.9°C | 18.2% | 578.6hPa | 2.7V | 00:00:00 | 00:00:00 | 00:00:00 | |
| DL4BBY-15 | 2026-09-03 02:29:54 | 51.45258 | 7.70354 | 104° | 73km/h | 4681m | -3.2m/s | -5.6°C | 0% | 0hPa | 2.7V | 00:00:00 | 00:00:00 | 00:00:00 | |
| DM0DOS-11 | 2026-09-03 02:29:53 | 51.45284 | 7.70179 | 103° | 73km/h | 4700m | -3.1m/s | -6°C | 14.8% | 576.8hPa | 2.7V | 07:28:01 | 03:13:25 | 00:00:00 | |
| BIOWL1-15 | 2026-09-03 02:29:46 | 51.45292 | 7.70122 | 103° | 73km/h | 4706m | -3.2m/s | -6.1°C | 16.1% | 576.3hPa | 2.6V | 07:28:29 | 03:13:23 | 00:00:00 | |
| DM0DOS-11 | 2026-09-03 02:29:43 | 51.45304 | 7.70036 | 103° | 71km/h | 4716m | -3.2m/s | -6.2°C | 13.2% | 575.6hPa | 2.7V | 07:28:06 | 03:13:20 | 00:00:00 | |
| DM0DOS-11 | 2026-09-03 02:29:43 | 51.45325 | 7.69894 | 103° | 73km/h | 4732m | -3.1m/s | -6.2°C | 10.3% | 574.4hPa | 2.6V | 07:28:11 | 03:13:15 | 00:00:00 | |
| BIOWL1-15 | 2026-09-03 02:29:36 | 51.45334 | 7.69836 | 103° | 73km/h | 4738m | -3.4m/s | -6.2°C | 10.1% | 574hPa | 2.7V | 07:28:29 | 03:13:13 | 00:00:00 | |
| DD1CC8 | 2026-09-03 02:29:36 | 51.45334 | 7.69836 | 103° | 71km/h | 4738m | -3.4m/s | -6.2°C | 9.2% | 574.0hPa | 2.6V | 00:00:00 | 00:00:00 | 00:00:00 | |
| DM0DOS-11 | 2026-09-03 02:29:33 | 51.45347 | 7.69750 | 104° | 73km/h | 4748m | -3m/s | -6.3°C | 9.4% | 573.2hPa | 2.6V | 07:28:16 | 03:13:10 | 00:00:00 | |
| DM0DOS-11 | 2026-09-03 02:29:33 | 51.45368 | 7.69607 | 103° | 73km/h | 4763m | -3m/s | -6.4°C | 9.2% | 572.2hPa | 2.7V | 07:28:21 | 03:13:05 | 00:00:00 | |
| DO3DL | 2026-09-03 02:29:31 | 51.45351 | 7.69722 | 104° | 73km/h | 4751m | -3.2m/s | -6.3°C | 9.0% | 573.1hPa | 2.7V | 07:28:00 | 00:00:00 | 00:00:00 | |
| DD1CC1-15 | 2026-09-03 02:29:29 | 51.45360 | 7.69664 | 104° | 73km/h | 4757m | -3.2m/s | -6.3°C | 8.9% | 572.6hPa | 2.7V | 07:28:00 | 00:00:00 | 00:00:00 | |
| DM0DOS-11 | 2026-09-03 02:29:28 | 51.45388 | 7.69464 | 102° | 73km/h | 4779m | -3.3m/s | -6.5°C | 9.1% | 571.1hPa | 2.7V | 07:28:26 | 03:13:00 | 00:00:00 | |
| BIOWL1-15 | 2026-09-03 02:29:25 | 51.45381 | 7.69521 | 103° | 73km/h | 4773m | -3.1m/s | -6.4°C | 9.6% | 571.4hPa | 2.7V | 07:28:29 | 03:13:02 | 00:00:00 | |
| DL4BBY-15 | 2026-09-03 02:29:24 | 51.45385 | 7.69493 | 103° | 71km/h | 4775m | -3.2m/s | -6.2°C | 0% | 0hPa | 2.7V | 00:00:00 | 00:00:00 | 00:00:00 | |
| DL3AQ-11 | 2026-09-03 02:29:22 | 51.45397 | 7.69407 | 103° | 71km/h | 4786m | -3.0m/s | -6.5°C | 8.8% | 570.5hPa | 2.7V | 00:00:00 | 00:00:00 | 00:00:00 | |
| BUE01 | 2026-09-03 02:29:19 | 51.45409 | 7.69322 | 102° | 71km/h | 4795m | -3.2m/s | -6.6°C | 8.9% | 569.8hPa | 2.7V | 00:00:00 | 00:00:00 | 00:00:00 | |
| DM0DOS-11 | 2026-09-03 02:29:18 | 51.45429 | 7.69181 | 103° | 71km/h | 4811m | -3.2m/s | -6.7°C | 9.2% | 568.7hPa | 2.7V | 07:28:36 | 03:12:50 | 00:00:00 | |
| BIOWL1-15 | 2026-09-03 02:29:16 | 51.45425 | 7.69209 | 103° | 71km/h | 4808m | -3.1m/s | -6.7°C | 9.6% | 568.9hPa | 2.6V | 07:29:20 | 03:12:51 | 00:00:00 | |
| DO3DL | 2026-09-03 02:29:11 | 51.45433 | 7.69153 | 104° | 71km/h | 4814m | -3.2m/s | -6.7°C | 8.9% | 568.5hPa | 2.6V | 07:29:00 | 00:00:00 | 00:00:00 | |
| DD1CC1-15 | 2026-09-03 02:29:08 | 51.45445 | 7.69069 | 103° | 71km/h | 4823m | -3.2m/s | -6.8°C | 9.1% | 567.8hPa | 2.6V | 07:29:00 | 00:00:00 | 00:00:00 | |
| DL8DAS-15 | 2026-09-03 02:29:07 | 51.45449 | 7.69040 | 103° | 71km/h | 4827m | -3.2m/s | -6.8°C | 9.1% | 567.7hPa | 2.6V | 07:29:00 | 00:00:00 | 00:00:00 | |
| DD1CC3-15 | 2026-09-03 02:29:05 | 51.45457 | 7.68984 | 104° | 71km/h | 4833m | -3.2m/s | -6.9°C | 9.2% | 567.1hPa | 2.6V | 07:29:00 | 00:00:00 | 00:00:00 | |
| DM0DOS-11 | 2026-09-03 02:29:03 | 51.45469 | 7.68899 | 102° | 71km/h | 4842m | -3.1m/s | -6.9°C | 9.7% | 566.4hPa | 2.6V | 07:28:46 | 03:12:40 | 00:00:00 | |
| DM0DOS-11 | 2026-09-03 02:29:03 | 51.45490 | 7.68758 | 103° | 71km/h | 4857m | -3.2m/s | -7°C | 9.8% | 565.3hPa | 2.7V | 07:28:51 | 03:12:35 | 00:00:00 | |
| BIOWL1-15 | 2026-09-03 02:29:03 | 51.45469 | 7.68899 | 103° | 71km/h | 4842m | -3.1m/s | -6.9°C | 10.3% | 566.4hPa | 2.6V | 07:29:20 | 03:12:40 | 00:00:00 | |
| BIOWL1-15 | 2026-09-03 02:28:55 | 51.45511 | 7.68615 | 104° | 73km/h | 4873m | -3m/s | -7.1°C | 10% | 564.2hPa | 2.7V | 07:29:20 | 03:12:30 | 00:00:00 | |
| DL4BBY-15 | 2026-09-03 02:28:54 | 51.45507 | 7.68643 | 104° | 73km/h | 4870m | -3.1m/s | -6.8°C | 0% | 0hPa | 2.7V | 00:00:00 | 00:00:00 | 00:00:00 | |
| DM0DOS-11 | 2026-09-03 02:28:53 | 51.45533 | 7.68472 | 104° | 73km/h | 4888m | -3.1m/s | -7.2°C | 9.2% | 563.1hPa | 2.7V | 07:29:01 | 03:12:25 | 00:00:00 | |
| BUE01 | 2026-09-03 02:28:48 | 51.45538 | 7.68444 | 104° | 71km/h | 4891m | -3.2m/s | -7.3°C | 9.0% | 562.8hPa | 2.6V | 00:00:00 | 00:00:00 | 00:00:00 | |
| AU51GT2 | 2026-09-03 02:28:46 | 51.45547 | 7.68386 | 104° | 71km/h | 4897m | -3.2m/s | -7.3°C | 9.1% | 562.4hPa | 2.6V | 00:00:00 | 00:00:00 | 00:00:00 | |
| DD1CC3-15 | 2026-09-03 02:28:44 | 51.45547 | 7.68386 | 105° | 73km/h | 4898m | -3.2m/s | -7.3°C | 9.1% | 562.4hPa | 2.6V | 07:29:00 | 00:00:00 | 00:00:00 | |
| DM0DOS-11 | 2026-09-03 02:28:43 | 51.45579 | 7.68184 | 105° | 73km/h | 4919m | -3.1m/s | -7.5°C | 10.8% | 560.9hPa | 2.6V | 07:29:11 | 03:12:15 | 00:00:00 | |
| BIOWL1-15 | 2026-09-03 02:28:42 | 51.45561 | 7.68300 | 104° | 73km/h | 4907m | -3m/s | -7.4°C | 10.5% | 561.7hPa | 2.7V | 07:29:20 | 03:12:19 | 00:00:00 | |
| DL3AQ-11 | 2026-09-03 02:28:41 | 51.45565 | 7.68271 | 104° | 73km/h | 4910m | -3.1m/s | -7.4°C | 9.7% | 561.5hPa | 2.6V | 00:00:00 | 00:00:00 | 00:00:00 | |
| DL8DAS-15 | 2026-09-03 02:28:39 | 51.45569 | 7.68242 | 106° | 75km/h | 4913m | -2.9m/s | -7.5°C | 9.8% | 561.3hPa | 2.6V | 07:29:00 | 00:00:00 | 00:00:00 | |
| DM0DOS-11 | 2026-09-03 02:28:38 | 51.45603 | 7.68038 | 104° | 75km/h | 4934m | -3.1m/s | -7.6°C | 11.6% | 559.8hPa | 2.6V | 07:29:16 | 03:12:10 | 00:00:00 | |
| DO2JMG | 2026-09-03 02:28:38 | 51.45579 | 7.68184 | 105° | 75km/h | 4919m | -3.1m/s | 0°C | 0% | 0hPa | 2.6V | 07:29:20 | 03:12:15 | 00:00:00 | |
| DO3DL | 2026-09-03 02:28:37 | 51.45579 | 7.68184 | 106° | 75km/h | 4919m | -3.1m/s | -7.5°C | 10.4% | 560.9hPa | 2.7V | 07:29:00 | 00:00:00 | 00:00:00 | |
| DM0DOS-11 | 2026-09-03 02:28:33 | 51.45626 | 7.67892 | 104° | 75km/h | 4950m | -3m/s | -7.8°C | 11.9% | 558.6hPa | 2.7V | 07:29:21 | 03:12:05 | 00:00:00 | |
| BIOWL1-15 | 2026-09-03 02:28:32 | 51.45608 | 7.68009 | 104° | 75km/h | 4937m | -3m/s | -7.7°C | 12.9% | 559.5hPa | 2.6V | 07:29:20 | 03:12:09 | 00:00:00 | |
| DO3DL | 2026-09-03 02:28:31 | 51.45608 | 7.68009 | 105° | 75km/h | 4937m | -3.0m/s | -7.7°C | 11.3% | 559.5hPa | 2.7V | 07:29:00 | 00:00:00 | 00:00:00 | |
| DM0DOS-11 | 2026-09-03 02:28:28 | 51.45654 | 7.67715 | 104° | 75km/h | 4968m | -2.8m/s | -7.9°C | 12.2% | 557.3hPa | 2.7V | 07:29:27 | 03:11:59 | 00:00:00 | |
| DO2JMG | 2026-09-03 02:28:28 | 51.45626 | 7.67892 | 104° | 75km/h | 4950m | -3m/s | 0°C | 0% | 0hPa | 2.7V | 18:12:15 | 03:12:05 | 00:00:00 | |
| DB0UT-7 | 2026-09-03 02:28:28 | 51.45626 | 7.67892 | 105° | 75km/h | 4950m | -3.0m/s | -7.7°C | 11.9% | 558.6hPa | 2.6V | 00:00:00 | 03:12:05 | 00:00:00 | |
| DO9LL-15 | 2026-09-03 02:28:27 | 51.45631 | 7.67862 | 104° | 75km/h | 4953m | -3.2m/s | -7.8°C | 11.9% | 558.3hPa | 2.6V | 00:00:00 | 03:12:04 | 00:00:00 | |
| DO1YAY-16 | 2026-09-03 02:28:26 | 51.45645 | 7.67774 | 104° | 73km/h | 4962m | -3.0m/s | -7.9°C | 11.7% | 557.8hPa | 2.6V | 00:00:00 | 00:00:00 | 00:00:00 | |
| DL4BBY-15 | 2026-09-03 02:28:24 | 51.45645 | 7.67774 | 105° | 75km/h | 4963m | -3.0m/s | -7.6°C | 0% | 0hPa | 2.6V | 00:00:00 | 00:00:00 | 00:00:00 | |
| DJ2DS-15 | 2026-09-03 02:28:23 | 51.45649 | 7.67745 | 103° | 75km/h | 4965m | -3.1m/s | -7.9°C | 11.8% | 557.5hPa | 2.6V | 00:00:00 | 00:00:00 | 00:00:00 | |
| DM0DOS-11 | 2026-09-03 02:28:22 | 51.45676 | 7.67569 | 103° | 75km/h | 4983m | -3.1m/s | -8°C | 12.2% | 556.2hPa | 2.6V | 07:29:32 | 03:11:54 | 00:00:00 | |
| BIOWL1-15 | 2026-09-03 02:28:22 | 51.45654 | 7.67715 | 104° | 75km/h | 4968m | -2.8m/s | -7.9°C | 13.6% | 557.4hPa | 2.7V | 07:30:11 | 03:11:59 | 00:00:00 | |
| DJ2KF-10 | 2026-09-03 02:28:18 | 51.45672 | 7.67598 | 104° | 75km/h | 4980m | -3.0m/s | -8.0°C | 12.2% | 556.3hPa | 2.7V | 00:00:00 | 03:11:55 | 00:00:00 | |
| DM0DOS-11 | 2026-09-03 02:28:17 | 51.45699 | 7.67422 | 103° | 75km/h | 4999m | -3.1m/s | -8.1°C | 12.2% | 555.1hPa | 2.7V | 07:29:37 | 03:11:49 | 00:00:00 | |
| DO2JMG | 2026-09-03 02:28:17 | 51.45676 | 7.67569 | 104° | 75km/h | 4983m | -3.2m/s | 0°C | 0% | 0hPa | 2.6V | 18:12:15 | 03:11:54 | 00:00:00 | |
| BIOWL1-15 | 2026-09-03 02:28:12 | 51.45699 | 7.67422 | 103° | 75km/h | 4999m | -3.1m/s | -8.1°C | 13.5% | 555.1hPa | 2.7V | 07:30:11 | 03:11:49 | 00:00:00 | |
| DO3DL | 2026-09-03 02:28:11 | 51.45699 | 7.67422 | 104° | 75km/h | 4999m | -3.1m/s | -8.1°C | 11.8% | 555.1hPa | 2.6V | 07:30:00 | 00:00:00 | 00:00:00 | |
| DM0DOS-11 | 2026-09-03 02:28:08 | 51.45738 | 7.67155 | 102° | 75km/h | 5026m | -3.1m/s | -8.2°C | 11.4% | 553.1hPa | 2.6V | 07:29:46 | 03:11:40 | 00:00:00 | |
| BIOWL1-15 | 2026-09-03 02:28:01 | 51.45746 | 7.67095 | 102° | 77km/h | 5033m | -2.9m/s | -8.3°C | 12.4% | 552.7hPa | 2.7V | 07:30:11 | 03:11:38 | 00:00:00 | |
| DH3RM | 2026-09-03 02:28:00 | 51.45746 | 7.67095 | 103° | 77km/h | 5033m | -2.9m/s | -8.3°C | 10.9% | 552.7hPa | 2.6V | 00:00:00 | 00:00:00 | 00:00:00 | |
| DM0DOS-11 | 2026-09-03 02:27:58 | 51.45777 | 7.66853 | 100° | 77km/h | 5057m | -3m/s | -8.4°C | 11.1% | 550.9hPa | 2.6V | 07:29:56 | 03:11:30 | 00:00:00 | |
| HSKMA3-T | 2026-09-03 02:27:56 | 51.45766 | 7.66944 | 102° | 77km/h | 5048m | -3.3m/s | -8.4°C | 12.2% | 0hPa | 2.6V | 18:12:15 | 03:11:33 | 00:00:00 | |
| BIOWL1-15 | 2026-09-03 02:27:51 | 51.45785 | 7.66792 | 101° | 77km/h | 5063m | -3.2m/s | -8.5°C | 12% | 550.6hPa | 2.6V | 07:30:11 | 03:11:28 | 00:00:00 | |
| DL3AQ-11 | 2026-09-03 02:27:49 | 51.45796 | 7.66701 | 100° | 75km/h | 5073m | -3.0m/s | -8.5°C | 10.6% | 549.9hPa | 2.7V | 00:00:00 | 00:00:00 | 00:00:00 | |
| DM0DOS-11 | 2026-09-03 02:27:48 | 51.45813 | 7.66549 | 99° | 77km/h | 5088m | -2.9m/s | -8.6°C | 10.9% | 548.8hPa | 2.7V | 07:30:06 | 03:11:20 | 00:00:00 | |
| DJ2DS-15 | 2026-09-03 02:27:47 | 51.45799 | 7.66671 | 100° | 77km/h | 5076m | -3.1m/s | -8.6°C | 10.7% | 549.7hPa | 2.6V | 00:00:00 | 00:00:00 | 00:00:00 | |
| BIOWL9-15 | 2026-09-03 02:27:46 | 51.45803 | 7.66640 | 100° | 75km/h | 5079m | -3.1m/s | -8.6°C | 10.7% | 549.4hPa | 2.6V | 00:00:00 | 00:00:00 | 00:00:00 | |
| BIOWL1-15 | 2026-09-03 02:27:43 | 51.45820 | 7.66487 | 101° | 77km/h | 5094m | -2.9m/s | -8.6°C | 11.5% | 548.3hPa | 2.6V | 07:30:11 | 03:11:18 | 00:00:00 | |
| DD1CC3-15 | 2026-09-03 02:27:42 | 51.45813 | 7.66549 | 101° | 77km/h | 5088m | -2.9m/s | -8.6°C | 10.5% | 548.8hPa | 2.6V | 07:30:00 | 00:00:00 | 00:00:00 | |
| DO2KSM | 2026-09-03 02:27:41 | 51.45816 | 7.66518 | 101° | 77km/h | 5091m | -3.1m/s | -8.6°C | 10.4% | 548.5hPa | 2.6V | 07:30:00 | 00:00:00 | 00:00:00 | |
| DL1CLM-18 | 2026-09-03 02:27:39 | 51.45824 | 7.66457 | 102° | 77km/h | 5097m | -3.2m/s | -8.7°C | 10.3% | 548.1hPa | 2.6V | 00:00:00 | 00:00:00 | 00:00:00 | |
| DM0DOS-11 | 2026-09-03 02:27:38 | 51.45851 | 7.66242 | 102° | 78km/h | 5119m | -3.1m/s | -8.7°C | 10.4% | 546.6hPa | 2.6V | 07:30:16 | 03:11:10 | 00:00:00 | |
| BIOWL1-15 | 2026-09-03 02:27:30 | 51.45864 | 7.66150 | 103° | 78km/h | 5128m | -3.2m/s | -8.8°C | 11% | 546hPa | 2.6V | 07:31:02 | 03:11:07 | 00:00:00 | |
| DM0DOS-11 | 2026-09-03 02:27:28 | 51.45897 | 7.65934 | 104° | 78km/h | 5148m | -2.9m/s | -8.8°C | 10.1% | 544.6hPa | 2.6V | 07:30:26 | 03:11:00 | 00:00:00 | |
| BIOWL1-15 | 2026-09-03 02:27:22 | 51.45912 | 7.65842 | 105° | 77km/h | 5158m | -2.5m/s | -8.9°C | 10.7% | 543.9hPa | 2.7V | 07:31:02 | 03:10:57 | 00:00:00 | |
| DO2KSM | 2026-09-03 02:27:21 | 51.45902 | 7.65903 | 105° | 78km/h | 5152m | -3.3m/s | -8.9°C | 9.7% | 544.4hPa | 2.6V | 07:31:00 | 00:00:00 | 00:00:00 | |
| DO3DL | 2026-09-03 02:27:19 | 51.45912 | 7.65842 | 106° | 77km/h | 5158m | -2.5m/s | -8.9°C | 9.7% | 543.9hPa | 2.6V | 07:31:00 | 00:00:00 | 00:00:00 | |
| DM0DOS-11 | 2026-09-03 02:27:18 | 51.45949 | 7.65629 | 106° | 78km/h | 5178m | -2.5m/s | -8.9°C | 8.8% | 542.5hPa | 2.6V | 07:30:36 | 03:10:50 | 00:00:00 | |
| BIOWL1-15 | 2026-09-03 02:27:11 | 51.45971 | 7.65508 | 106° | 77km/h | 5189m | -3m/s | -9°C | 8.5% | 541.6hPa | 2.6V | 07:31:02 | 03:10:46 | 00:00:00 | |
| BIOWL1-15 | 2026-09-03 02:27:01 | 51.46030 | 7.65205 | 109° | 77km/h | 5219m | -2.9m/s | -9.1°C | 2.3% | 539.6hPa | 2.6V | 07:31:02 | 03:10:36 | 00:00:00 | |
| DB0ND-19 | 2026-09-03 02:27:00 | 51.46030 | 7.65205 | 108° | 77km/h | 5218m | -2.9m/s | -9.1°C | 3.9% | 539.6hPa | 2.6V | 00:00:00 | 00:00:00 | 00:00:00 | |
| DL3AQ-11 | 2026-09-03 02:26:58 | 51.46042 | 7.65146 | 108° | 77km/h | 5224m | -2.8m/s | -9.1°C | 3.4% | 539.2hPa | 2.6V | 00:00:00 | 00:00:00 | 00:00:00 | |
| DO1YAY-16 | 2026-09-03 02:26:52 | 51.46073 | 7.64999 | 108° | 75km/h | 5239m | -2.9m/s | -9.1°C | 2.4% | 538.2hPa | 2.6V | 00:00:00 | 00:00:00 | 00:00:00 | |
| HTAHTA | 2026-09-03 02:26:51 | 51.46080 | 7.64970 | 109° | 77km/h | 5242m | -2.9m/s | -9.1°C | 2.4% | 538.0hPa | 2.6V | 00:00:00 | 00:00:00 | 00:00:00 | |
| DH3RM | 2026-09-03 02:26:50 | 51.46080 | 7.64970 | 110° | 77km/h | 5242m | -2.9m/s | -9.1°C | 2.4% | 538.0hPa | 2.6V | 07:31:00 | 00:00:00 | 00:00:00 | |
| BIOWL7-15 | 2026-09-03 02:26:49 | 51.46086 | 7.64940 | 110° | 77km/h | 5245m | -3.1m/s | -9.2°C | 2.4% | 537.8hPa | 2.6V | 00:00:00 | 00:00:00 | 00:00:00 | |
| DM0DOS-11 | 2026-09-03 02:26:48 | 51.46132 | 7.64734 | 109° | 77km/h | 5265m | -3.1m/s | -9.2°C | 2.5% | 536.4hPa | 2.6V | 07:31:06 | 03:10:20 | 00:00:00 | |
| BIOWL1-15 | 2026-09-03 02:26:48 | 51.46099 | 7.64881 | 110° | 77km/h | 5251m | -2.8m/s | -9.2°C | 0% | 537.4hPa | 2.6V | 07:31:02 | 03:10:25 | 00:00:00 | |
| BIOWL1-15 | 2026-09-03 02:26:42 | 51.46165 | 7.64587 | 110° | 78km/h | 5280m | -2.9m/s | -9.4°C | 0% | 535.4hPa | 2.6V | 07:31:53 | 03:10:15 | 00:00:00 | |
| DL3AQ-11 | 2026-09-03 02:26:42 | 51.46145 | 7.64676 | 110° | 77km/h | 5271m | -3.0m/s | -9.3°C | 2.3% | 536.0hPa | 2.6V | 00:00:00 | 00:00:00 | 00:00:00 | |
| AU51GT2 | 2026-09-03 02:26:41 | 51.46145 | 7.64676 | 110° | 77km/h | 5271m | -3.0m/s | -9.3°C | 2.3% | 536.0hPa | 2.6V | 00:00:00 | 00:00:00 | 00:00:00 | |
| DD1CC3-15 | 2026-09-03 02:26:40 | 51.46144 | 7.64675 | 111° | 77km/h | 5272m | -3.0m/s | -9.3°C | 2.3% | 536.0hPa | 2.6V | 07:31:00 | 00:00:00 | 00:00:00 | |
| DM0DOS-11 | 2026-09-03 02:26:38 | 51.46199 | 7.64438 | 109° | 78km/h | 5294m | -3m/s | -9.4°C | 2.3% | 534.4hPa | 2.6V | 07:31:16 | 03:10:10 | 00:00:00 | |
| DH3RM | 2026-09-03 02:26:36 | 51.46172 | 7.64558 | 111° | 78km/h | 5283m | -2.8m/s | -9.4°C | 2.3% | 535.2hPa | 2.6V | 00:00:00 | 00:00:00 | 00:00:00 | |
| DJ2DS-15 | 2026-09-03 02:26:35 | 51.46186 | 7.64498 | 110° | 78km/h | 5288m | -2.8m/s | -9.4°C | 2.2% | 534.8hPa | 2.6V | 00:00:00 | 00:00:00 | 00:00:00 | |
| DO3DL | 2026-09-03 02:26:33 | 51.46192 | 7.64468 | 111° | 78km/h | 5291m | -2.8m/s | -9.4°C | 2.2% | 534.7hPa | 2.6V | 07:31:00 | 00:00:00 | 00:00:00 | |
| DH3RM | 2026-09-03 02:26:29 | 51.46219 | 7.64348 | 110° | 78km/h | 5303m | -3.0m/s | -9.5°C | 2.2% | 533.8hPa | 2.6V | 00:00:00 | 00:00:00 | 00:00:00 | |
| DM0DOS-11 | 2026-09-03 02:26:28 | 51.46265 | 7.64136 | 108° | 78km/h | 5322m | -2.7m/s | -9.4°C | 2.6% | 532.4hPa | 2.6V | 07:31:26 | 03:10:00 | 00:00:00 | |
| BIOWL1-15 | 2026-09-03 02:26:27 | 51.46239 | 7.64257 | 109° | 78km/h | 5311m | -2.9m/s | -9.5°C | 0% | 533.2hPa | 2.6V | 07:31:53 | 03:10:04 | 00:00:00 | |
| DO3DL | 2026-09-03 02:26:26 | 51.46239 | 7.64257 | 110° | 78km/h | 5311m | -2.9m/s | -9.5°C | 2.2% | 533.2hPa | 2.6V | 07:31:00 | 00:00:00 | 00:00:00 | |
| DO9LL-15 | 2026-09-03 02:26:24 | 51.46258 | 7.64166 | 109° | 80km/h | 5320m | -2.9m/s | -9.4°C | 2.5% | 532.6hPa | 2.6V | 00:00:00 | 03:10:01 | 00:00:00 | |
| DO1YAY-16 | 2026-09-03 02:26:22 | 51.46278 | 7.64075 | 108° | 78km/h | 5328m | -3.0m/s | -9.4°C | 2.7% | 532.0hPa | 2.6V | 00:00:00 | 00:00:00 | 00:00:00 | |
| DO3DL | 2026-09-03 02:26:20 | 51.46284 | 7.64044 | 110° | 78km/h | 5331m | -3.0m/s | -9.3°C | 2.8% | 531.8hPa | 2.6V | 07:31:00 | 00:00:00 | 00:00:00 | |
| DD1CC3-15 | 2026-09-03 02:26:19 | 51.46284 | 7.64044 | 110° | 78km/h | 5331m | -3.0m/s | -9.3°C | 2.8% | 531.8hPa | 2.6V | 07:31:00 | 00:00:00 | 00:00:00 | |
| DM0DOS-11 | 2026-09-03 02:26:18 | 51.46329 | 7.63831 | 108° | 80km/h | 5352m | -3m/s | -9.1°C | 2.8% | 530.4hPa | 2.6V | 07:31:36 | 03:09:50 | 00:00:00 | |
| BIOWL1-15 | 2026-09-03 02:26:16 | 51.46310 | 7.63923 | 109° | 78km/h | 5343m | -2.9m/s | -9.2°C | 0.2% | 531hPa | 2.6V | 07:31:53 | 03:09:53 | 00:00:00 | |
| BIOWL9-15 | 2026-09-03 02:26:13 | 51.46329 | 7.63831 | 108° | 78km/h | 5352m | -3.0m/s | -9.1°C | 2.6% | 530.4hPa | 2.6V | 00:00:00 | 00:00:00 | 00:00:00 | |
| BUE01 | 2026-09-03 02:26:12 | 51.46335 | 7.63800 | 108° | 78km/h | 5354m | -2.8m/s | -9.1°C | 2.6% | 530.2hPa | 2.6V | 00:00:00 | 00:00:00 | 00:00:00 | |
| AU51GT2 | 2026-09-03 02:26:10 | 51.46348 | 7.63739 | 108° | 78km/h | 5360m | -2.8m/s | -9.1°C | 2.6% | 529.8hPa | 2.6V | 00:00:00 | 00:00:00 | 00:00:00 | |
| DM0DOS-11 | 2026-09-03 02:26:08 | 51.46392 | 7.63524 | 108° | 80km/h | 5380m | -2.9m/s | -9.2°C | 2.9% | 528.4hPa | 2.6V | 07:31:46 | 03:09:40 | 00:00:00 | |
| BIOWL1-15 | 2026-09-03 02:26:08 | 51.46373 | 7.63616 | 108° | 80km/h | 5372m | -2.9m/s | -9.2°C | 0.3% | 529hPa | 2.6V | 07:31:53 | 03:09:43 | 00:00:00 | |
| BIOWL7-15 | 2026-09-03 02:26:07 | 51.46360 | 7.63678 | 109° | 80km/h | 5366m | -3.1m/s | -9.2°C | 2.6% | 529.5hPa | 2.6V | 07:31:00 | 00:00:00 | 00:00:00 | |
| DO3DL | 2026-09-03 02:26:06 | 51.46367 | 7.63647 | 109° | 80km/h | 5369m | -3.0m/s | -9.2°C | 2.7% | 529.2hPa | 2.6V | 07:31:00 | 00:00:00 | 00:00:00 | |
| DD1CC1-15 | 2026-09-03 02:26:03 | 51.46386 | 7.63555 | 110° | 80km/h | 5378m | -2.7m/s | -9.2°C | 2.7% | 528.7hPa | 2.6V | 07:31:00 | 00:00:00 | 00:00:00 | |
| DL3AQ-11 | 2026-09-03 02:26:01 | 51.46412 | 7.63431 | 108° | 80km/h | 5389m | -2.9m/s | -9.3°C | 2.8% | 527.9hPa | 2.6V | 00:00:00 | 00:00:00 | 00:00:00 | |
| DD1CC8 | 2026-09-03 02:25:59 | 51.46426 | 7.63370 | 109° | 78km/h | 5394m | -2.7m/s | -9.3°C | 2.8% | 527.5hPa | 2.6V | 00:00:00 | 00:00:00 | 00:00:00 | |
| DM0DOS-11 | 2026-09-03 02:25:58 | 51.46459 | 7.63217 | 109° | 78km/h | 5408m | -2.9m/s | -9.4°C | 3.1% | 526.5hPa | 2.6V | 07:31:56 | 03:09:30 | 00:00:00 | |
| BIOWL1-15 | 2026-09-03 02:25:57 | 51.46446 | 7.63278 | 109° | 80km/h | 5403m | -3.1m/s | -9.4°C | 0.6% | 526.9hPa | 2.6V | 07:32:44 | 03:09:32 | 00:00:00 | |
| DO1YAY-16 | 2026-09-03 02:25:50 | 51.46478 | 7.63127 | 109° | 77km/h | 5417m | -2.9m/s | -9.5°C | 3.0% | 525.9hPa | 2.6V | 00:00:00 | 00:00:00 | 00:00:00 | |
| DL3AQ-11 | 2026-09-03 02:25:49 | 51.46491 | 7.63067 | 109° | 77km/h | 5423m | -3.0m/s | -9.5°C | 3.3% | 525.5hPa | 2.6V | 00:00:00 | 00:00:00 | 00:00:00 | |
| DM0DOS-11 | 2026-09-03 02:25:48 | 51.46524 | 7.62918 | 109° | 78km/h | 5437m | -2.9m/s | -9.6°C | 4.3% | 524.5hPa | 2.6V | 07:32:06 | 03:09:20 | 00:00:00 | |
| BIOWL1-15 | 2026-09-03 02:25:46 | 51.46518 | 7.62948 | 110° | 78km/h | 5434m | -3.2m/s | -9.5°C | 2.4% | 524.7hPa | 2.6V | 07:32:44 | 03:09:21 | 00:00:00 | |
| DH3RM | 2026-09-03 02:25:45 | 51.46511 | 7.62978 | 111° | 78km/h | 5431m | -2.9m/s | -9.5°C | 3.8% | 524.9hPa | 2.6V | 07:32:00 | 00:00:00 | 00:00:00 | |
| DL8DAS-15 | 2026-09-03 02:25:44 | 51.46511 | 7.62978 | 111° | 78km/h | 5431m | -2.9m/s | -9.5°C | 3.8% | 524.9hPa | 2.6V | 00:00:00 | 00:00:00 | 00:00:00 | |
| BIOWL7-15 | 2026-09-03 02:25:43 | 51.46518 | 7.62948 | 111° | 78km/h | 5434m | -3.2m/s | -9.5°C | 3.9% | 524.7hPa | 2.6V | 07:32:00 | 00:00:00 | 00:00:00 | |
| BIOWL9-15 | 2026-09-03 02:25:42 | 51.46531 | 7.62889 | 109° | 77km/h | 5440m | -2.9m/s | -9.6°C | 4.1% | 524.4hPa | 2.6V | 00:00:00 | 00:00:00 | 00:00:00 | |
| BUE01 | 2026-09-03 02:25:41 | 51.46538 | 7.62859 | 109° | 77km/h | 5443m | -3.1m/s | -9.6°C | 4.3% | 524.2hPa | 2.6V | 00:00:00 | 00:00:00 | 00:00:00 | |
| DL8DAS-14 | 2026-09-03 02:25:40 | 51.46545 | 7.62829 | 110° | 77km/h | 5446m | -2.9m/s | -9.6°C | 4.4% | 524.0hPa | 2.6V | 00:00:00 | 00:00:00 | 00:00:00 | |
| AU51GT2 | 2026-09-03 02:25:39 | 51.46551 | 7.62799 | 110° | 78km/h | 5449m | -3.1m/s | -9.6°C | 4.6% | 523.7hPa | 2.6V | 00:00:00 | 00:00:00 | 00:00:00 | |
| DM0DOS-11 | 2026-09-03 02:25:38 | 51.46593 | 7.62622 | 110° | 77km/h | 5466m | -3m/s | -9.7°C | 5.8% | 522.6hPa | 2.6V | 07:32:16 | 03:09:10 | 00:00:00 | |
| BIOWL1-15 | 2026-09-03 02:25:34 | 51.46586 | 7.62651 | 111° | 77km/h | 5463m | -2.9m/s | -9.7°C | 4.7% | 522.8hPa | 2.6V | 07:32:44 | 03:09:11 | 00:00:00 | |
| DO3DL | 2026-09-03 02:25:32 | 51.46593 | 7.62622 | 112° | 77km/h | 5466m | -3.0m/s | -9.7°C | 5.5% | 522.6hPa | 2.6V | 07:32:00 | 00:00:00 | 00:00:00 | |
| WPPR-10 | 2026-09-03 02:25:31 | 51.46613 | 7.62534 | 110° | 77km/h | 5475m | -3.1m/s | -9.8°C | 5.6% | 522.0hPa | 2.6V | 00:00:00 | 00:00:00 | 00:00:00 | |
| DM0DOS-11 | 2026-09-03 02:25:28 | 51.46662 | 7.62332 | 111° | 77km/h | 5495m | -3m/s | -9.9°C | 6.1% | 520.6hPa | 2.6V | 07:32:26 | 03:09:00 | 00:00:00 | |
| BIOWL1-15 | 2026-09-03 02:25:23 | 51.46662 | 7.62332 | 112° | 77km/h | 5495m | -3m/s | -9.9°C | 5.4% | 520.6hPa | 2.6V | 07:32:44 | 03:09:00 | 00:00:00 | |
| DJ2DS-15 | 2026-09-03 02:25:23 | 51.46662 | 7.62332 | 111° | 75km/h | 5495m | -3.0m/s | -9.9°C | 5.8% | 520.6hPa | 2.5V | 00:00:00 | 00:00:00 | 00:00:00 | |
| DD1CC1-15 | 2026-09-03 02:25:22 | 51.46662 | 7.62332 | 112° | 77km/h | 5495m | -3.0m/s | -9.9°C | 5.8% | 520.6hPa | 2.5V | 07:32:00 | 00:00:00 | 00:00:00 | |
| DL1CLM-18 | 2026-09-03 02:25:21 | 51.46669 | 7.62304 | 112° | 75km/h | 5498m | -2.9m/s | -10.0°C | 5.8% | 520.4hPa | 2.5V | 00:00:00 | 00:00:00 | 00:00:00 | |
| DO1YAY-16 | 2026-09-03 02:25:19 | 51.46690 | 7.62218 | 111° | 75km/h | 5507m | -3.1m/s | -10.0°C | 5.8% | 519.9hPa | 2.5V | 00:00:00 | 00:00:00 | 00:00:00 | |
| DM0DOS-11 | 2026-09-03 02:25:18 | 51.46732 | 7.62048 | 111° | 75km/h | 5524m | -2.9m/s | -10.2°C | 6.5% | 518.6hPa | 2.5V | 07:32:36 | 03:08:50 | 00:00:00 | |
| BIOWL1-15 | 2026-09-03 02:25:13 | 51.46732 | 7.62048 | 112° | 75km/h | 5524m | -2.9m/s | -10.2°C | 6% | 518.6hPa | 2.5V | 07:32:44 | 03:08:50 | 00:00:00 | |
| DH3RM | 2026-09-03 02:25:12 | 51.46732 | 7.62048 | 113° | 75km/h | 5524m | -2.9m/s | -10.2°C | 6.2% | 518.6hPa | 2.6V | 07:32:00 | 00:00:00 | 00:00:00 | |
| BIOWL9-15 | 2026-09-03 02:25:11 | 51.46746 | 7.61992 | 111° | 75km/h | 5529m | -3.0m/s | -10.2°C | 6.5% | 518.4hPa | 2.6V | 00:00:00 | 00:00:00 | 00:00:00 | |
| BUE01 | 2026-09-03 02:25:10 | 51.46761 | 7.61935 | 111° | 75km/h | 5535m | -2.8m/s | -10.3°C | 6.6% | 517.9hPa | 2.6V | 00:00:00 | 00:00:00 | 00:00:00 | |
| DL3AQ-11 | 2026-09-03 02:25:09 | 51.46768 | 7.61907 | 111° | 75km/h | 5538m | -3.1m/s | -10.3°C | 6.6% | 517.8hPa | 2.6V | 00:00:00 | 00:00:00 | 00:00:00 | |
| DM0DOS-11 | 2026-09-03 02:25:08 | 51.46803 | 7.61767 | 112° | 75km/h | 5552m | -2.9m/s | -10.4°C | 7.3% | 516.7hPa | 2.6V | 07:32:46 | 03:08:40 | 00:00:00 | |
| BIOWL1-15 | 2026-09-03 02:25:02 | 51.46810 | 7.61739 | 112° | 75km/h | 5555m | -3m/s | -10.4°C | 7.3% | 516.6hPa | 2.6V | 07:33:35 | 03:08:39 | 00:00:00 | |
| BIOWL7-15 | 2026-09-03 02:25:02 | 51.46810 | 7.61739 | 113° | 75km/h | 5555m | -3.0m/s | -10.4°C | 7.0% | 516.6hPa | 2.5V | 07:33:00 | 00:00:00 | 00:00:00 | |
| DD1CC1-15 | 2026-09-03 02:25:01 | 51.46810 | 7.61739 | 113° | 75km/h | 5555m | -3.0m/s | -10.4°C | 7.0% | 516.6hPa | 2.5V | 07:33:00 | 00:00:00 | 00:00:00 | |
| DO3DL | 2026-09-03 02:25:00 | 51.46817 | 7.61711 | 113° | 75km/h | 5558m | -3.0m/s | -10.5°C | 7.0% | 516.4hPa | 2.5V | 07:33:00 | 00:00:00 | 00:00:00 | |
| DM0DOS-11 | 2026-09-03 02:24:58 | 51.46874 | 7.61489 | 112° | 73km/h | 5581m | -2.9m/s | -10.6°C | 7.7% | 514.8hPa | 2.5V | 07:32:56 | 03:08:30 | 00:00:00 | |
| BIOWL1-15 | 2026-09-03 02:24:51 | 51.46889 | 7.61433 | 113° | 75km/h | 5587m | -3m/s | -10.7°C | 7.8% | 514.4hPa | 2.6V | 07:33:35 | 03:08:28 | 00:00:00 | |
| DM0DOS-11 | 2026-09-03 02:24:48 | 51.46946 | 7.61211 | 111° | 75km/h | 5611m | -2.9m/s | -10.9°C | 8.1% | 512.8hPa | 2.6V | 07:33:06 | 03:08:20 | 00:00:00 | |
| DJ2DS-15 | 2026-09-03 02:24:47 | 51.46917 | 7.61323 | 112° | 73km/h | 5599m | -3.1m/s | -10.8°C | 7.5% | 513.5hPa | 2.6V | 00:00:00 | 00:00:00 | 00:00:00 | |
| DO2JMG | 2026-09-03 02:24:43 | 51.46946 | 7.61211 | 112° | 75km/h | 5611m | -2.9m/s | -10.9°C | 8.4% | 512.8hPa | 2.6V | 07:33:35 | 03:08:20 | 00:00:00 | |
| BIOWL1-15 | 2026-09-03 02:24:41 | 51.46960 | 7.61155 | 112° | 75km/h | 5617m | -3.1m/s | -11°C | 8.5% | 512.4hPa | 2.6V | 07:33:35 | 03:08:18 | 00:00:00 | |
| BIOWL9-15 | 2026-09-03 02:24:40 | 51.46967 | 7.61127 | 112° | 75km/h | 5620m | -2.9m/s | -11.0°C | 7.9% | 512.3hPa | 2.5V | 00:00:00 | 00:00:00 | 00:00:00 | |
| BUE01 | 2026-09-03 02:24:39 | 51.46974 | 7.61099 | 111° | 73km/h | 5623m | -2.9m/s | -11.0°C | 7.9% | 512.0hPa | 2.5V | 00:00:00 | 00:00:00 | 00:00:00 | |
| DM0DOS-11 | 2026-09-03 02:24:38 | 51.47018 | 7.60930 | 113° | 77km/h | 5640m | -3m/s | -11.2°C | 8.4% | 510.8hPa | 2.5V | 07:33:16 | 03:08:10 | 00:00:00 | |
| DO2JMG | 2026-09-03 02:24:33 | 51.47018 | 7.60930 | 113° | 77km/h | 5640m | -3m/s | -11.2°C | 8.8% | 510.8hPa | 2.5V | 07:33:35 | 03:08:10 | 00:00:00 | |
| BIOWL1-15 | 2026-09-03 02:24:30 | 51.47041 | 7.60844 | 113° | 77km/h | 5649m | -3m/s | -11.2°C | 8.9% | 510.2hPa | 2.6V | 07:33:35 | 03:08:07 | 00:00:00 | |
| HSKMA3-T | 2026-09-03 02:24:23 | 51.47092 | 7.60644 | 112° | 77km/h | 5670m | -3m/s | -11.4°C | 9.1% | 0hPa | 2.6V | 18:12:15 | 03:08:00 | 00:00:00 | |
| DO2JMG | 2026-09-03 02:24:19 | 51.47122 | 7.60528 | 113° | 77km/h | 5682m | -3m/s | -11.5°C | 9.3% | 508.1hPa | 2.6V | 07:33:35 | 03:07:56 | 00:00:00 | |
| HSKMA3-T | 2026-09-03 02:24:10 | 51.47191 | 7.60264 | 113° | 78km/h | 5709m | -3m/s | -11.7°C | 9.2% | 0hPa | 2.5V | 18:12:15 | 03:07:47 | 00:00:00 | |
| BIOWL1-15 | 2026-09-03 02:24:08 | 51.47206 | 7.60204 | 113° | 78km/h | 5714m | -3m/s | -11.8°C | 9.1% | 506hPa | 2.6V | 07:34:26 | 03:07:45 | 00:00:00 | |
| BIOWL1-15 | 2026-09-03 02:23:59 | 51.47290 | 7.59883 | 113° | 77km/h | 5748m | -3.2m/s | -12°C | 8.8% | 503.8hPa | 2.6V | 07:34:26 | 03:07:34 | 00:00:00 | |
| DM0DOS-11 | 2026-09-03 02:23:58 | 51.47320 | 7.59768 | 113° | 77km/h | 5760m | -3.2m/s | -12.1°C | 8.3% | 503hPa | 2.5V | 07:33:56 | 03:07:30 | 00:00:00 | |
| DO2JMG | 2026-09-03 02:23:58 | 51.47282 | 7.59912 | 113° | 77km/h | 5745m | -3.2m/s | -12°C | 8.9% | 0hPa | 2.5V | 07:34:26 | 03:07:35 | 00:00:00 | |
| DB0ND-19 | 2026-09-03 02:23:54 | 51.47313 | 7.59797 | 113° | 77km/h | 5757m | -2.9m/s | -12.1°C | 8.0% | 503.1hPa | 2.5V | 00:00:00 | 00:00:00 | 00:00:00 | |
| DL3AQ-11 | 2026-09-03 02:23:49 | 51.47359 | 7.59626 | 113° | 75km/h | 5775m | -3.0m/s | -12.2°C | 7.3% | 502.0hPa | 2.5V | 00:00:00 | 00:00:00 | 00:00:00 | |
| DM0DOS-11 | 2026-09-03 02:23:48 | 51.47397 | 7.59485 | 113° | 75km/h | 5791m | -3.1m/s | -12.3°C | 7.5% | 500.9hPa | 2.5V | 07:34:06 | 03:07:20 | 00:00:00 | |
| HSKMA3-T | 2026-09-03 02:23:48 | 51.47359 | 7.59626 | 114° | 77km/h | 5775m | -3m/s | -12.2°C | 7.8% | 0hPa | 2.5V | 18:12:15 | 03:07:25 | 00:00:00 | |
| BIOWL1-15 | 2026-09-03 02:23:48 | 51.47374 | 7.59570 | 113° | 77km/h | 5781m | -3.1m/s | -12.2°C | 7.7% | 501.6hPa | 2.6V | 07:34:26 | 03:07:23 | 00:00:00 | |
| DO2JMG | 2026-09-03 02:23:47 | 51.47366 | 7.59598 | 114° | 77km/h | 5778m | -3m/s | -12.2°C | 7.7% | 0hPa | 2.6V | 07:34:26 | 03:07:24 | 00:00:00 | |
| HTAHTA | 2026-09-03 02:23:45 | 51.47382 | 7.59542 | 113° | 75km/h | 5784m | -3.3m/s | -12.3°C | 7.2% | 501.4hPa | 2.5V | 00:00:00 | 00:00:00 | 00:00:00 | |
| DL1XH-west | 2026-09-03 02:23:44 | 51.47389 | 7.59513 | 114° | 75km/h | 5788m | -3.2m/s | -12.3°C | 7.7% | 501.2hPa | 2.5V | 07:34:26 | 03:07:21 | 00:00:00 | |
| BIOWL7-15 | 2026-09-03 02:23:40 | 51.47412 | 7.59429 | 115° | 75km/h | 5797m | -3.1m/s | -12.3°C | 7.0% | 500.5hPa | 2.5V | 00:00:00 | 00:00:00 | 00:00:00 | |
| DH3RM | 2026-09-03 02:23:39 | 51.47420 | 7.59401 | 115° | 75km/h | 5800m | -3.0m/s | -12.4°C | 6.9% | 500.3hPa | 2.5V | 07:34:00 | 00:00:00 | 00:00:00 | |
| DM0DOS-11 | 2026-09-03 02:23:38 | 51.47473 | 7.59207 | 113° | 75km/h | 5821m | -3.1m/s | -12.5°C | 6.8% | 499hPa | 2.5V | 07:34:16 | 03:07:10 | 00:00:00 | |
| BIOWL1-15 | 2026-09-03 02:23:38 | 51.47451 | 7.59290 | 114° | 75km/h | 5812m | -3.1m/s | -12.4°C | 6.8% | 499.6hPa | 2.6V | 07:34:26 | 03:07:13 | 00:00:00 | |
| DO2JMG | 2026-09-03 02:23:37 | 51.47443 | 7.59318 | 114° | 75km/h | 5809m | -3m/s | -12.4°C | 6.9% | 0hPa | 2.6V | 07:34:26 | 03:07:14 | 00:00:00 | |
| DL1XH-west | 2026-09-03 02:23:33 | 51.47473 | 7.59207 | 114° | 75km/h | 5821m | -3.1m/s | -12.5°C | 6.6% | 499hPa | 2.5V | 07:34:26 | 03:07:10 | 00:00:00 | |
| DO3DL | 2026-09-03 02:23:32 | 51.47473 | 7.59207 | 115° | 75km/h | 5821m | -3.1m/s | -12.5°C | 6.4% | 499.0hPa | 2.5V | 07:34:00 | 00:00:00 | 00:00:00 | |
| DL1CLM-18 | 2026-09-03 02:23:29 | 51.47495 | 7.59124 | 115° | 73km/h | 5831m | -3.2m/s | -12.6°C | 6.3% | 498.5hPa | 2.5V | 00:00:00 | 00:00:00 | 00:00:00 | |
| DM0DOS-11 | 2026-09-03 02:23:28 | 51.47547 | 7.58933 | 113° | 73km/h | 5852m | -3.1m/s | -12.7°C | 6.7% | 497hPa | 2.5V | 07:34:26 | 03:07:00 | 00:00:00 | |
| BIOWL1-15 | 2026-09-03 02:23:26 | 51.47525 | 7.59015 | 113° | 73km/h | 5843m | -3.3m/s | -12.7°C | 6.4% | 497.6hPa | 2.6V | 07:34:26 | 03:07:03 | 00:00:00 | |
| DL1XH-west | 2026-09-03 02:23:22 | 51.47555 | 7.58906 | 114° | 73km/h | 5856m | -3.1m/s | -12.8°C | 6.4% | 496.7hPa | 2.6V | 07:36:59 | 03:06:59 | 00:00:00 | |
| DO9LL-15 | 2026-09-03 02:23:22 | 51.47555 | 7.58906 | 115° | 73km/h | 5856m | -3.1m/s | -12.7°C | 6.7% | 496.7hPa | 2.6V | 00:00:00 | 03:06:59 | 00:00:00 | |
| DL3AQ-11 | 2026-09-03 02:23:21 | 51.47562 | 7.58879 | 113° | 71km/h | 5859m | -3.1m/s | -12.8°C | 6.3% | 496.6hPa | 2.5V | 00:00:00 | 00:00:00 | 00:00:00 | |
| DH3RM | 2026-09-03 02:23:20 | 51.47562 | 7.58879 | 115° | 73km/h | 5859m | -3.1m/s | -12.8°C | 6.3% | 496.6hPa | 2.5V | 07:35:00 | 00:00:00 | 00:00:00 | |
| DO3DL | 2026-09-03 02:23:19 | 51.47569 | 7.58852 | 115° | 73km/h | 5862m | -3.2m/s | -12.8°C | 6.3% | 496.3hPa | 2.5V | 07:35:00 | 00:00:00 | 00:00:00 | |
| DM0DOS-11 | 2026-09-03 02:23:18 | 51.47622 | 7.58665 | 114° | 71km/h | 5884m | -3.1m/s | -13°C | 6.8% | 494.9hPa | 2.5V | 07:34:36 | 03:06:50 | 00:00:00 | |
| BIOWL1-15 | 2026-09-03 02:23:16 | 51.47600 | 7.58745 | 115° | 73km/h | 5875m | -3m/s | -12.9°C | 6.5% | 495.6hPa | 2.6V | 07:35:17 | 03:06:53 | 00:00:00 | |
| DO1YAY-16 | 2026-09-03 02:23:15 | 51.47607 | 7.58719 | 114° | 71km/h | 5877m | -3.1m/s | -13.0°C | 6.3% | 495.3hPa | 2.5V | 00:00:00 | 00:00:00 | 00:00:00 | |
| DD1CC3-15 | 2026-09-03 02:23:14 | 51.47607 | 7.58719 | 116° | 73km/h | 5878m | -3.1m/s | -13.0°C | 6.3% | 495.3hPa | 2.5V | 07:35:00 | 00:00:00 | 00:00:00 | |
| DH3RM | 2026-09-03 02:23:13 | 51.47615 | 7.58692 | 115° | 73km/h | 5881m | -3.2m/s | -13.0°C | 6.3% | 495.1hPa | 2.5V | 07:35:00 | 00:00:00 | 00:00:00 | |
| DO3DL | 2026-09-03 02:23:12 | 51.47622 | 7.58665 | 115° | 73km/h | 5884m | -3.1m/s | -13.0°C | 6.3% | 494.9hPa | 2.5V | 07:35:00 | 00:00:00 | 00:00:00 | |
| DL3AQ-11 | 2026-09-03 02:23:09 | 51.47661 | 7.58532 | 115° | 71km/h | 5899m | -3.1m/s | -13.1°C | 6.3% | 493.9hPa | 2.5V | 00:00:00 | 00:00:00 | 00:00:00 | |
| DM0DOS-11 | 2026-09-03 02:23:08 | 51.47700 | 7.58398 | 115° | 73km/h | 5915m | -3m/s | -13.2°C | 6.5% | 492.9hPa | 2.5V | 07:34:46 | 03:06:40 | 00:00:00 | |
| DL1XH-west | 2026-09-03 02:23:05 | 51.47684 | 7.58452 | 115° | 73km/h | 5909m | -3.2m/s | -13.2°C | 6.3% | 493.3hPa | 2.6V | 07:36:59 | 03:06:42 | 00:00:00 | |
| AU51GT2 | 2026-09-03 02:23:04 | 51.47692 | 7.58425 | 115° | 73km/h | 5912m | -3.2m/s | -13.2°C | 6.1% | 493.1hPa | 2.5V | 00:00:00 | 00:00:00 | 00:00:00 | |
| DJ2DS-15 | 2026-09-03 02:22:59 | 51.47740 | 7.58264 | 115° | 73km/h | 5930m | -3.1m/s | -13.3°C | 5.8% | 491.9hPa | 2.5V | 00:00:00 | 00:00:00 | 00:00:00 | |
| DM0DOS-11 | 2026-09-03 02:22:58 | 51.47780 | 7.58129 | 115° | 75km/h | 5946m | -3.3m/s | -13.4°C | 6.2% | 490.9hPa | 2.5V | 07:34:56 | 03:06:30 | 00:00:00 | |
| DO2JMG | 2026-09-03 02:22:56 | 51.47756 | 7.58211 | 115° | 73km/h | 5936m | -3.2m/s | 0°C | 0% | 0hPa | 2.6V | 18:12:15 | 03:06:33 | 00:00:00 | |
| BIOWL1-15 | 2026-09-03 02:22:55 | 51.47764 | 7.58183 | 116° | 75km/h | 5939m | -3.1m/s | -13.4°C | 5.7% | 491.4hPa | 2.6V | 07:35:17 | 03:06:32 | 00:00:00 | |
| DL1XH-west | 2026-09-03 02:22:50 | 51.47805 | 7.58048 | 116° | 75km/h | 5955m | -3.1m/s | -13.5°C | 5.7% | 490.3hPa | 2.6V | 07:36:59 | 03:06:27 | 00:00:00 | |
| DM0DOS-11 | 2026-09-03 02:22:48 | 51.47860 | 7.57858 | 115° | 75km/h | 5977m | -3.2m/s | -13.7°C | 6% | 488.9hPa | 2.6V | 07:35:06 | 03:06:20 | 00:00:00 | |
| BIOWL1-15 | 2026-09-03 02:22:45 | 51.47844 | 7.57912 | 115° | 73km/h | 5971m | -3.2m/s | -13.6°C | 5.4% | 489.3hPa | 2.6V | 07:35:17 | 03:06:22 | 00:00:00 | |
| DO1YAY-16 | 2026-09-03 02:22:44 | 51.47852 | 7.57885 | 115° | 73km/h | 5974m | -3.1m/s | -13.6°C | 5.6% | 489.1hPa | 2.6V | 00:00:00 | 00:00:00 | 00:00:00 | |
| HTAHTA | 2026-09-03 02:22:43 | 51.47868 | 7.57831 | 114° | 73km/h | 5980m | -3.2m/s | -13.7°C | 5.6% | 488.7hPa | 2.6V | 00:00:00 | 00:00:00 | 00:00:00 | |
| DH3RM | 2026-09-03 02:22:41 | 51.47868 | 7.57831 | 116° | 75km/h | 5980m | -3.2m/s | -13.7°C | 5.6% | 488.7hPa | 2.6V | 07:35:00 | 00:00:00 | 00:00:00 | |
| DO3DL | 2026-09-03 02:22:39 | 51.47884 | 7.57776 | 116° | 75km/h | 5987m | -3.2m/s | -13.7°C | 5.6% | 488.2hPa | 2.6V | 07:35:00 | 00:00:00 | 00:00:00 | |
| DM0DOS-11 | 2026-09-03 02:22:38 | 51.47943 | 7.57583 | 115° | 75km/h | 6009m | -3.4m/s | -13.9°C | 5.9% | 486.8hPa | 2.6V | 07:35:16 | 03:06:10 | 00:00:00 | |
| BIOWL1-15 | 2026-09-03 02:22:34 | 51.47934 | 7.57610 | 116° | 77km/h | 6005m | -3.1m/s | -13.9°C | 5.3% | 487hPa | 2.6V | 07:35:17 | 03:06:11 | 00:00:00 | |
| AU51GT2 | 2026-09-03 02:22:33 | 51.47943 | 7.57583 | 115° | 75km/h | 6008m | -3.4m/s | -13.9°C | 5.5% | 486.8hPa | 2.6V | 00:00:00 | 00:00:00 | 00:00:00 | |
| DD1CC3-15 | 2026-09-03 02:22:32 | 51.47943 | 7.57582 | 117° | 75km/h | 6009m | -3.4m/s | -13.9°C | 5.5% | 486.8hPa | 2.6V | 07:35:00 | 00:00:00 | 00:00:00 | |
| DC6BW-12 | 2026-09-03 02:22:30 | 51.47960 | 7.57527 | 116° | 75km/h | 6015m | -3.2m/s | -13.9°C | 5.5% | 486.4hPa | 2.6V | 07:36:00 | 00:00:00 | 00:00:00 | |
| DM0DOS-11 | 2026-09-03 02:22:28 | 51.48026 | 7.57308 | 116° | 75km/h | 6041m | -3.4m/s | -14.1°C | 5.9% | 484.9hPa | 2.6V | 07:35:26 | 03:06:00 | 00:00:00 | |
| BIOWL1-15 | 2026-09-03 02:22:25 | 51.48026 | 7.57308 | 116° | 75km/h | 6041m | -3.4m/s | -14.1°C | 5.3% | 484.9hPa | 2.6V | 07:36:08 | 03:06:00 | 00:00:00 | |
| DL4BBY-15 | 2026-09-03 02:22:24 | 51.48018 | 7.57336 | 117° | 73km/h | 6037m | -3.3m/s | -13.7°C | 0% | 0hPa | 2.5V | 00:00:00 | 00:00:00 | 00:00:00 | |
| DJ2DS-15 | 2026-09-03 02:22:23 | 51.48035 | 7.57281 | 116° | 75km/h | 6044m | -3.4m/s | -14.1°C | 5.5% | 484.6hPa | 2.5V | 00:00:00 | 00:00:00 | 00:00:00 | |
| DO9LL-15 | 2026-09-03 02:22:22 | 51.48035 | 7.57281 | 117° | 73km/h | 6044m | -3.3m/s | -14.0°C | 5.9% | 484.5hPa | 2.5V | 00:00:00 | 03:05:59 | 00:00:00 | |
| DB0ND-19 | 2026-09-03 02:22:21 | 51.48043 | 7.57254 | 116° | 75km/h | 6047m | -3.4m/s | -14.1°C | 5.5% | 484.4hPa | 2.5V | 00:00:00 | 00:00:00 | 00:00:00 | |
| DO3DL | 2026-09-03 02:22:20 | 51.48043 | 7.57254 | 118° | 75km/h | 6048m | -3.4m/s | -14.1°C | 5.5% | 484.3hPa | 2.5V | 07:36:00 | 00:00:00 | 00:00:00 | |
| DL8DAS-15 | 2026-09-03 02:22:19 | 51.48052 | 7.57227 | 118° | 75km/h | 6051m | -3.3m/s | -14.1°C | 5.6% | 484.2hPa | 2.5V | 00:00:00 | 00:00:00 | 00:00:00 | |
| DM0DOS-11 | 2026-09-03 02:22:18 | 51.48111 | 7.57037 | 116° | 75km/h | 6073m | -3.2m/s | -14.3°C | 6.3% | 482.8hPa | 2.5V | 07:35:36 | 03:05:50 | 00:00:00 | |
| BIOWL1-15 | 2026-09-03 02:22:14 | 51.48119 | 7.57010 | 117° | 75km/h | 6076m | -3.2m/s | -14.3°C | 5.9% | 482.5hPa | 2.5V | 07:36:08 | 03:05:49 | 00:00:00 | |
| DO1YAY-16 | 2026-09-03 02:22:13 | 51.48111 | 7.57037 | 116° | 73km/h | 6073m | -3.2m/s | -14.3°C | 5.9% | 482.8hPa | 2.6V | 00:00:00 | 00:00:00 | 00:00:00 | |
| DD1CC3-15 | 2026-09-03 02:22:11 | 51.48119 | 7.57010 | 118° | 75km/h | 6076m | -3.2m/s | -14.3°C | 5.9% | 482.5hPa | 2.6V | 07:36:00 | 00:00:00 | 00:00:00 | |
| DH3RM | 2026-09-03 02:22:10 | 51.48128 | 7.56984 | 118° | 75km/h | 6080m | -3.2m/s | -14.3°C | 5.9% | 482.3hPa | 2.6V | 07:36:00 | 00:00:00 | 00:00:00 | |
| DC6BW-12 | 2026-09-03 02:22:09 | 51.48136 | 7.56957 | 118° | 73km/h | 6083m | -3.3m/s | -14.3°C | 6.0% | 482.1hPa | 2.6V | 07:36:00 | 00:00:00 | 00:00:00 | |
| DM0DOS-11 | 2026-09-03 02:22:08 | 51.48197 | 7.56772 | 117° | 73km/h | 6105m | -3.5m/s | -14.5°C | 6.6% | 480.7hPa | 2.6V | 07:35:46 | 03:05:40 | 00:00:00 | |
| BIOWL1-15 | 2026-09-03 02:22:01 | 51.48214 | 7.56720 | 118° | 73km/h | 6112m | -3.1m/s | -14.6°C | 6.2% | 480.3hPa | 2.5V | 07:36:08 | 03:05:38 | 00:00:00 | |
| DL1XH-west | 2026-09-03 02:21:59 | 51.48231 | 7.56668 | 117° | 73km/h | 6118m | -3.4m/s | -14.6°C | 6.3% | 479.8hPa | 2.6V | 07:36:59 | 03:05:36 | 00:00:00 | |
| DM0DOS-11 | 2026-09-03 02:21:58 | 51.48281 | 7.56511 | 116° | 71km/h | 6138m | -3.2m/s | -14.7°C | 6.5% | 478.7hPa | 2.6V | 07:35:56 | 03:05:30 | 00:00:00 | |
| BIOWL1-15 | 2026-09-03 02:21:50 | 51.48306 | 7.56433 | 117° | 71km/h | 6148m | -3.5m/s | -14.8°C | 5.8% | 477.9hPa | 2.5V | 07:36:08 | 03:05:27 | 00:00:00 | |
| DM0DOS-11 | 2026-09-03 02:21:48 | 51.48363 | 7.56253 | 116° | 71km/h | 6171m | -3.4m/s | -14.9°C | 6.4% | 476.5hPa | 2.5V | 07:36:06 | 03:05:20 | 00:00:00 | |
| DJ2DS-15 | 2026-09-03 02:21:47 | 51.48338 | 7.56330 | 117° | 71km/h | 6161m | -3.2m/s | -14.8°C | 5.9% | 477.2hPa | 2.6V | 00:00:00 | 00:00:00 | 00:00:00 | |
| BIOWL1-15 | 2026-09-03 02:21:40 | 51.48387 | 7.56177 | 117° | 69km/h | 6180m | -3.4m/s | -14.9°C | 6.1% | 476hPa | 2.6V | 07:36:59 | 03:05:17 | 00:00:00 | |
| DM0DOS-11 | 2026-09-03 02:21:38 | 51.48444 | 7.56001 | 118° | 69km/h | 6204m | -3.4m/s | -15.1°C | 6.7% | 474.5hPa | 2.6V | 07:36:16 | 03:05:10 | 00:00:00 | |
| BIOWL1-15 | 2026-09-03 02:21:31 | 51.48478 | 7.55902 | 120° | 69km/h | 6217m | -3.3m/s | -15.2°C | 6.3% | 473.6hPa | 2.5V | 07:36:59 | 03:05:06 | 00:00:00 | |
| DD1CC3-15 | 2026-09-03 02:21:30 | 51.48461 | 7.55951 | 120° | 69km/h | 6211m | -3.2m/s | -15.2°C | 6.1% | 474.1hPa | 2.5V | 07:36:00 | 00:00:00 | 00:00:00 | |
| DB0UT-7 | 2026-09-03 02:21:28 | 51.48487 | 7.55877 | 120° | 69km/h | 6220m | -3.4m/s | -15.2°C | 6.6% | 473.5hPa | 2.5V | 07:36:00 | 03:05:05 | 00:00:00 | |
| DO3DL | 2026-09-03 02:21:26 | 51.48495 | 7.55852 | 120° | 71km/h | 6224m | -3.2m/s | -15.3°C | 6.1% | 473.2hPa | 2.5V | 07:36:00 | 00:00:00 | 00:00:00 | |
| DM0DOS-11 | 2026-09-03 02:21:25 | 51.48557 | 7.55679 | 119° | 69km/h | 6246m | -3.2m/s | -15.5°C | 6.6% | 471.9hPa | 2.5V | 07:36:29 | 03:04:57 | 00:00:00 | |
| DL1XH-west | 2026-09-03 02:21:21 | 51.48548 | 7.55703 | 120° | 69km/h | 6243m | -3.2m/s | -15.4°C | 6.3% | 472hPa | 2.5V | 07:36:59 | 03:04:58 | 00:00:00 | |
| BIOWL1-15 | 2026-09-03 02:21:21 | 51.48565 | 7.55654 | 120° | 69km/h | 6249m | -3.4m/s | -15.5°C | 6.3% | 471.6hPa | 2.6V | 07:36:59 | 03:04:56 | 00:00:00 | |
| DO3DL | 2026-09-03 02:21:20 | 51.48548 | 7.55703 | 121° | 69km/h | 6243m | -3.2m/s | -15.4°C | 6.1% | 472.0hPa | 2.6V | 07:36:00 | 00:00:00 | 00:00:00 | |
| DB0ND-19 | 2026-09-03 02:21:19 | 51.48565 | 7.55654 | 119° | 69km/h | 6249m | -3.4m/s | -15.5°C | 6.2% | 471.6hPa | 2.6V | 00:00:00 | 00:00:00 | 00:00:00 | |
| DJ2KF-10 | 2026-09-03 02:21:18 | 51.48574 | 7.55629 | 121° | 69km/h | 6253m | -3.2m/s | -15.5°C | 6.6% | 471.4hPa | 2.6V | 00:00:00 | 03:04:55 | 00:00:00 | |
| DM0DOS-11 | 2026-09-03 02:21:15 | 51.48647 | 7.55434 | 121° | 69km/h | 6279m | -3.3m/s | -15.7°C | 6.4% | 469.8hPa | 2.6V | 07:36:39 | 03:04:47 | 00:00:00 | |
| HSKMA3-T | 2026-09-03 02:21:14 | 51.48611 | 7.55531 | 121° | 71km/h | 6266m | -3.4m/s | -15.6°C | 6.1% | 0hPa | 2.5V | 18:12:15 | 03:04:51 | 00:00:00 | |
| BIOWL1-15 | 2026-09-03 02:21:12 | 51.48665 | 7.55386 | 122° | 69km/h | 6285m | -3.3m/s | -15.7°C | 6% | 469.4hPa | 2.5V | 07:36:59 | 03:04:45 | 00:00:00 | |
| DL1XH-west | 2026-09-03 02:21:09 | 51.48656 | 7.55410 | 121° | 69km/h | 6282m | -3.4m/s | -15.7°C | 6% | 469.6hPa | 2.6V | 07:36:59 | 03:04:46 | 00:00:00 | |
| DC6BW-12 | 2026-09-03 02:21:08 | 51.48656 | 7.55410 | 122° | 69km/h | 6282m | -3.4m/s | -15.7°C | 5.9% | 469.6hPa | 2.6V | 07:36:00 | 00:00:00 | 00:00:00 | |
| DO3DL | 2026-09-03 02:21:07 | 51.48666 | 7.55386 | 122° | 69km/h | 6286m | -3.3m/s | -15.7°C | 5.9% | 469.4hPa | 2.6V | 07:36:00 | 00:00:00 | 00:00:00 | |
| DM0DOS-11 | 2026-09-03 02:21:05 | 51.48738 | 7.55195 | 121° | 69km/h | 6311m | -3.3m/s | -16°C | 6.4% | 467.8hPa | 2.6V | 07:36:49 | 03:04:37 | 00:00:00 | |
| DL1XH-west | 2026-09-03 02:20:59 | 51.48748 | 7.55171 | 122° | 69km/h | 6314m | -3.2m/s | -16°C | 6% | 467.6hPa | 2.6V | 07:36:59 | 03:04:36 | 00:00:00 | |
| BIOWL1-15 | 2026-09-03 02:20:57 | 51.48766 | 7.55123 | 122° | 69km/h | 6320m | -3.3m/s | -16.1°C | 6% | 467.2hPa | 2.5V | 07:36:59 | 03:04:34 | 00:00:00 | |
| DM0DOS-11 | 2026-09-03 02:20:55 | 51.48830 | 7.54956 | 122° | 69km/h | 6343m | -3.1m/s | -16.2°C | 6.4% | 465.8hPa | 2.5V | 07:36:59 | 03:04:27 | 00:00:00 | |
| DL1XH-west | 2026-09-03 02:20:48 | 51.48849 | 7.54909 | 122° | 69km/h | 6349m | -3.2m/s | -16.3°C | 6% | 465.4hPa | 2.6V | 07:37:50 | 03:04:25 | 00:00:00 | |
| BIOWL1-15 | 2026-09-03 02:20:46 | 51.48868 | 7.54860 | 122° | 71km/h | 6355m | -3.1m/s | -16.4°C | 5.9% | 465.1hPa | 2.6V | 07:37:50 | 03:04:23 | 00:00:00 | |
| HSKMA3-T | 2026-09-03 02:20:41 | 51.48915 | 7.54739 | 122° | 71km/h | 6371m | -3.3m/s | -16.5°C | 5.9% | 0hPa | 2.6V | 18:12:15 | 03:04:18 | 00:00:00 | |
| BIOWL1-15 | 2026-09-03 02:20:38 | 51.48962 | 7.54616 | 121° | 71km/h | 6387m | -3.2m/s | -16.5°C | 6.1% | 463hPa | 2.5V | 07:37:50 | 03:04:13 | 00:00:00 | |
| DL1XH-west | 2026-09-03 02:20:37 | 51.48953 | 7.54641 | 121° | 71km/h | 6384m | -3.1m/s | -16.5°C | 6% | 463.2hPa | 2.5V | 07:37:50 | 03:04:14 | 00:00:00 | |
| DL1XH-west | 2026-09-03 02:20:26 | 51.49054 | 7.54368 | 121° | 71km/h | 6420m | -3.3m/s | -16.8°C | 18.3% | 461hPa | 2.6V | 07:37:50 | 03:04:03 | 00:00:00 | |
| BIOWL1-15 | 2026-09-03 02:20:25 | 51.49063 | 7.54343 | 120° | 71km/h | 6423m | -3.2m/s | -16.8°C | 18.8% | 460.8hPa | 2.5V | 07:37:50 | 03:04:02 | 00:00:00 | |
| DL4BBY-15 | 2026-09-03 02:20:24 | 51.49072 | 7.54318 | 121° | 71km/h | 6427m | -3.2m/s | -16.5°C | 0% | 0hPa | 2.6V | 00:00:00 | 00:00:00 | 00:00:00 | |
| DL8DAS-15 | 2026-09-03 02:20:23 | 51.49072 | 7.54318 | 122° | 71km/h | 6426m | -3.3m/s | -16.8°C | 16.2% | 460.6hPa | 2.6V | 00:00:00 | 00:00:00 | 00:00:00 | |
| DO9LL-15 | 2026-09-03 02:20:22 | 51.49091 | 7.54267 | 121° | 71km/h | 6433m | -3.3m/s | -16.8°C | 19.1% | 460.2hPa | 2.6V | 00:00:00 | 03:03:59 | 00:00:00 | |
| WPPR-10 | 2026-09-03 02:20:21 | 51.49100 | 7.54243 | 120° | 71km/h | 6436m | -3.3m/s | -16.9°C | 19.7% | 460.0hPa | 2.6V | 00:00:00 | 00:00:00 | 00:00:00 | |
| DJ2KF-10 | 2026-09-03 02:20:18 | 51.49128 | 7.54168 | 121° | 71km/h | 6446m | -3.2m/s | -17.0°C | 23.0% | 459.4hPa | 2.6V | 00:00:00 | 03:03:55 | 00:00:00 | |
| DD1CC8 | 2026-09-03 02:20:17 | 51.49137 | 7.54143 | 120° | 71km/h | 6449m | -3.3m/s | -17.0°C | 22.9% | 459.3hPa | 2.6V | 00:00:00 | 00:00:00 | 00:00:00 | |
| DM0DOS-11 | 2026-09-03 02:20:15 | 51.49201 | 7.53967 | 119° | 73km/h | 6471m | -3.3m/s | -17.2°C | 27% | 457.9hPa | 2.6V | 07:37:39 | 03:03:47 | 00:00:00 | |
| BIOWL1-15 | 2026-09-03 02:20:15 | 51.49155 | 7.54093 | 120° | 71km/h | 6455m | -3.4m/s | -17.1°C | 27.7% | 458.9hPa | 2.6V | 07:37:50 | 03:03:52 | 00:00:00 | |
| DO3DL | 2026-09-03 02:20:12 | 51.49174 | 7.54043 | 121° | 73km/h | 6462m | -3.3m/s | -17.2°C | 24.3% | 458.4hPa | 2.5V | 07:37:00 | 00:00:00 | 00:00:00 | |
| DH3RM | 2026-09-03 02:20:11 | 51.49183 | 7.54018 | 121° | 71km/h | 6465m | -2.9m/s | -17.2°C | 24.7% | 458.2hPa | 2.5V | 00:00:00 | 00:00:00 | 00:00:00 | |
| DO2KSM | 2026-09-03 02:20:09 | 51.49201 | 7.53983 | 120° | 73km/h | 6471m | -3.3m/s | -17.3°C | 25.7% | 457.9hPa | 2.5V | 07:37:00 | 00:00:00 | 00:00:00 | |
| DD1CC3-15 | 2026-09-03 02:20:08 | 51.49210 | 7.53941 | 121° | 73km/h | 6474m | -3.4m/s | -17.3°C | 26.1% | 457.7hPa | 2.5V | 07:37:00 | 00:00:00 | 00:00:00 | |
| BIOWL7-15 | 2026-09-03 02:20:07 | 51.49219 | 7.53916 | 120° | 73km/h | 6478m | -3.3m/s | -17.3°C | 26.1% | 457.4hPa | 2.5V | 07:37:00 | 00:00:00 | 00:00:00 | |
| DM0DOS-11 | 2026-09-03 02:20:05 | 51.49292 | 7.53713 | 119° | 71km/h | 6504m | -3.4m/s | -17.6°C | 28.5% | 455.9hPa | 2.5V | 07:37:49 | 03:03:37 | 00:00:00 | |
| BIOWL1-15 | 2026-09-03 02:20:05 | 51.49246 | 7.53839 | 120° | 73km/h | 6487m | -3.6m/s | -17.4°C | 30.1% | 456.9hPa | 2.6V | 07:37:50 | 03:03:42 | 00:00:00 | |
| HSKMA3-T | 2026-09-03 02:20:03 | 51.49264 | 7.53789 | 120° | 71km/h | 6494m | -3.4m/s | -17.5°C | 30.5% | 0hPa | 2.6V | 18:12:15 | 03:03:40 | 00:00:00 | |
| BIOWL9-15 | 2026-09-03 02:20:01 | 51.49292 | 7.53713 | 119° | 71km/h | 6504m | -3.4m/s | -17.6°C | 27.2% | 455.9hPa | 2.6V | 00:00:00 | 00:00:00 | 00:00:00 | |
| DF2AP-13 | 2026-09-03 02:20:00 | 51.49292 | 7.53713 | 120° | 73km/h | 6504m | -3.4m/s | -17.5°C | 28.5% | 455.9hPa | 2.6V | 00:00:00 | 03:03:37 | 00:00:00 | |
| DB0UT-7 | 2026-09-03 02:19:58 | 51.49310 | 7.53663 | 121° | 73km/h | 6511m | -3.3m/s | -17.6°C | 28.4% | 455.4hPa | 2.6V | 00:00:00 | 00:00:00 | 00:00:00 | |
| DM0DOS-11 | 2026-09-03 02:19:55 | 51.49382 | 7.53458 | 119° | 73km/h | 6537m | -3.2m/s | -17.9°C | 30.6% | 453.9hPa | 2.6V | 07:37:59 | 03:03:27 | 00:00:00 | |
| DL1XH-west | 2026-09-03 02:19:54 | 51.49346 | 7.53561 | 119° | 73km/h | 6524m | -3.6m/s | -17.8°C | 31.2% | 454.7hPa | 2.5V | 07:38:41 | 03:03:31 | 00:00:00 | |
| DL3AQ-11 | 2026-09-03 02:19:48 | 51.49400 | 7.53407 | 120° | 71km/h | 6543m | -3.0m/s | -18.0°C | 29.6% | 453.5hPa | 2.5V | 00:00:00 | 00:00:00 | 00:00:00 | |
| DD1CC8 | 2026-09-03 02:19:46 | 51.49418 | 7.53356 | 119° | 71km/h | 6550m | -3.2m/s | -18.0°C | 29.8% | 453.1hPa | 2.5V | 00:00:00 | 00:00:00 | 00:00:00 | |
| DL1XH-west | 2026-09-03 02:19:44 | 51.49436 | 7.53306 | 120° | 71km/h | 6556m | -3.4m/s | -18.1°C | 34.8% | 452.8hPa | 2.5V | 07:38:41 | 03:03:21 | 00:00:00 | |
| BIOWL1-15 | 2026-09-03 02:19:36 | 51.49528 | 7.53047 | 118° | 73km/h | 6588m | -3.2m/s | -18.4°C | 37.6% | 450.8hPa | 2.6V | 07:38:41 | 03:03:11 | 00:00:00 | |
| DL1XH-west | 2026-09-03 02:19:33 | 51.49537 | 7.53020 | 117° | 73km/h | 6591m | -2.7m/s | -18.4°C | 37.8% | 450.7hPa | 2.6V | 07:38:41 | 03:03:10 | 00:00:00 | |
| BIOWL1-15 | 2026-09-03 02:19:27 | 51.49622 | 7.52753 | 116° | 73km/h | 6622m | -3.3m/s | -18.7°C | 37.8% | 448.8hPa | 2.6V | 07:38:41 | 03:03:00 | 00:00:00 | |
| DD1CC3-15 | 2026-09-03 02:19:26 | 51.49587 | 7.52860 | 118° | 75km/h | 6609m | -3.1m/s | -18.6°C | 33.6% | 449.6hPa | 2.5V | 07:38:00 | 00:00:00 | 00:00:00 | |
| DM0DOS-11 | 2026-09-03 02:19:25 | 51.49647 | 7.52673 | 116° | 73km/h | 6632m | -3.2m/s | -18.8°C | 36.5% | 448.2hPa | 2.5V | 07:38:29 | 03:02:57 | 00:00:00 | |
| HSKMA3-T | 2026-09-03 02:19:25 | 51.49605 | 7.52807 | 117° | 75km/h | 6615m | -3.4m/s | -18.6°C | 37.5% | 0hPa | 2.6V | 18:12:15 | 03:03:02 | 00:00:00 | |
| DL1XH-west | 2026-09-03 02:19:22 | 51.49630 | 7.52726 | 117° | 73km/h | 6625m | -3.5m/s | -18.7°C | 38.2% | 448.6hPa | 2.5V | 07:38:41 | 03:02:59 | 00:00:00 | |
| DO9LL-15 | 2026-09-03 02:19:22 | 51.49630 | 7.52726 | 117° | 75km/h | 6625m | -3.4m/s | -18.7°C | 35.9% | 448.5hPa | 2.6V | 00:00:00 | 03:02:59 | 00:00:00 | |
| DH3RM | 2026-09-03 02:19:21 | 51.49630 | 7.52726 | 118° | 73km/h | 6625m | -3.5m/s | -18.7°C | 34.3% | 448.6hPa | 2.6V | 00:00:00 | 00:00:00 | 00:00:00 | |
| DC6BW-12 | 2026-09-03 02:19:20 | 51.49638 | 7.52699 | 117° | 73km/h | 6629m | -3.3m/s | -18.8°C | 34.8% | 448.4hPa | 2.6V | 00:00:00 | 00:00:00 | 00:00:00 | |
| DJ2KF-10 | 2026-09-03 02:19:18 | 51.49663 | 7.52619 | 117° | 75km/h | 6638m | -3.2m/s | -18.8°C | 36.3% | 447.7hPa | 2.6V | 00:00:00 | 03:02:55 | 00:00:00 | |
| DM0DOS-11 | 2026-09-03 02:19:15 | 51.49728 | 7.52402 | 115° | 75km/h | 6665m | -3.6m/s | -19.1°C | 38.7% | 446.2hPa | 2.6V | 07:38:39 | 03:02:47 | 00:00:00 | |
| HSKMA3-T | 2026-09-03 02:19:15 | 51.49688 | 7.52538 | 116° | 75km/h | 6648m | -3.3m/s | -19°C | 39.4% | 0hPa | 2.5V | 18:12:15 | 03:02:52 | 00:00:00 | |
| DL1XH-west | 2026-09-03 02:19:12 | 51.49712 | 7.52457 | 115° | 75km/h | 6658m | -3.4m/s | -19.1°C | 39.8% | 446.6hPa | 2.6V | 07:38:41 | 03:02:49 | 00:00:00 | |
| DO3DL | 2026-09-03 02:19:11 | 51.49712 | 7.52457 | 116° | 75km/h | 6658m | -3.4m/s | -19.1°C | 35.3% | 446.6hPa | 2.5V | 07:38:00 | 00:00:00 | 00:00:00 | |
| DL3AQ-11 | 2026-09-03 02:19:09 | 51.49744 | 7.52347 | 115° | 75km/h | 6672m | -3.7m/s | -19.2°C | 38.5% | 445.7hPa | 2.5V | 00:00:00 | 00:00:00 | 00:00:00 | |
| DO2KSM | 2026-09-03 02:19:07 | 51.49744 | 7.52347 | 117° | 75km/h | 6672m | -3.7m/s | -19.2°C | 38.5% | 445.7hPa | 2.5V | 07:38:00 | 00:00:00 | 00:00:00 | |
| BIOWL7-15 | 2026-09-03 02:19:06 | 51.49752 | 7.52320 | 116° | 75km/h | 6676m | -3.8m/s | -19.2°C | 39.5% | 445.5hPa | 2.5V | 07:39:00 | 00:00:00 | 00:00:00 | |
| DM0DOS-11 | 2026-09-03 02:19:05 | 51.49810 | 7.52124 | 114° | 77km/h | 6701m | -3.7m/s | -19.5°C | 44.7% | 444.1hPa | 2.5V | 07:38:49 | 03:02:37 | 00:00:00 | |
| DL1XH-west | 2026-09-03 02:19:02 | 51.49793 | 7.52180 | 115° | 77km/h | 6694m | -3.4m/s | -19.4°C | 45.7% | 444.5hPa | 2.6V | 07:39:32 | 03:02:39 | 00:00:00 | |
| BIOWL1-15 | 2026-09-03 02:19:01 | 51.49802 | 7.52152 | 115° | 77km/h | 6697m | -3.6m/s | -19.4°C | 46% | 444.3hPa | 2.6V | 07:39:32 | 03:02:38 | 00:00:00 | |
| DL3AQ-11 | 2026-09-03 02:18:58 | 51.49834 | 7.52039 | 114° | 75km/h | 6711m | -3.5m/s | -19.6°C | 44.0% | 443.4hPa | 2.6V | 00:00:00 | 00:00:00 | 00:00:00 | |
| DL8DAS-14 | 2026-09-03 02:18:57 | 51.49834 | 7.52039 | 114° | 75km/h | 6711m | -3.5m/s | -19.6°C | 44.0% | 443.4hPa | 2.6V | 00:00:00 | 00:00:00 | 00:00:00 | |
| AU51GT2 | 2026-09-03 02:18:56 | 51.49842 | 7.52011 | 113° | 77km/h | 6714m | -3.5m/s | -19.6°C | 44.3% | 443.2hPa | 2.6V | 00:00:00 | 00:00:00 | 00:00:00 | |
| DM0DOS-11 | 2026-09-03 02:18:55 | 51.49887 | 7.51840 | 112° | 75km/h | 6735m | -3.8m/s | -19.8°C | 49.2% | 442hPa | 2.6V | 07:38:59 | 03:02:27 | 00:00:00 | |
| DL1XH-west | 2026-09-03 02:18:51 | 51.49880 | 7.51868 | 113° | 77km/h | 6731m | -3.5m/s | -19.8°C | 50.8% | 442.2hPa | 2.5V | 07:39:32 | 03:02:28 | 00:00:00 | |
| BIOWL1-15 | 2026-09-03 02:18:50 | 51.49887 | 7.51840 | 113° | 77km/h | 6735m | -3.8m/s | -19.8°C | 50.5% | 442hPa | 2.6V | 07:39:32 | 03:02:27 | 00:00:00 | |
| DO2JMG | 2026-09-03 02:18:46 | 51.49918 | 7.51727 | 114° | 75km/h | 6749m | -3.3m/s | -19.9°C | 51.1% | 441.2hPa | 2.5V | 07:39:32 | 03:02:23 | 00:00:00 | |
| DM0DOS-11 | 2026-09-03 02:18:45 | 51.49963 | 7.51556 | 112° | 77km/h | 6769m | -3.5m/s | -20.1°C | 57.7% | 440hPa | 2.5V | 07:39:09 | 03:02:17 | 00:00:00 | |
| DL1XH-west | 2026-09-03 02:18:40 | 51.49963 | 7.51556 | 113° | 77km/h | 6769m | -3.5m/s | -20.1°C | 58.5% | 440hPa | 2.5V | 07:39:32 | 03:02:17 | 00:00:00 | |
| BIOWL1-15 | 2026-09-03 02:18:39 | 51.49971 | 7.51527 | 112° | 77km/h | 6773m | -3.6m/s | -20.2°C | 58.2% | 439.8hPa | 2.5V | 07:39:32 | 03:02:16 | 00:00:00 | |
| HSKMA3-T | 2026-09-03 02:18:38 | 51.49978 | 7.51498 | 112° | 77km/h | 6776m | -3.6m/s | -20.2°C | 58.7% | 0hPa | 2.5V | 18:12:15 | 03:02:15 | 00:00:00 | |
| DO3DL | 2026-09-03 02:18:36 | 51.49985 | 7.51469 | 113° | 77km/h | 6780m | -3.7m/s | -20.2°C | 55.6% | 439.4hPa | 2.6V | 07:39:00 | 00:00:00 | 00:00:00 | |
| DM0DOS-11 | 2026-09-03 02:18:35 | 51.50035 | 7.51266 | 111° | 77km/h | 6804m | -3.3m/s | -20.4°C | 60.5% | 438hPa | 2.6V | 07:39:19 | 03:02:07 | 00:00:00 | |
| DO2JMG | 2026-09-03 02:18:34 | 51.50007 | 7.51382 | 111° | 77km/h | 6790m | -3.4m/s | -20.3°C | 60.6% | 438.7hPa | 2.5V | 07:39:32 | 03:02:11 | 00:00:00 | |
| BIOWL1-15 | 2026-09-03 02:18:29 | 51.50042 | 7.51237 | 111° | 77km/h | 6807m | -3.3m/s | -20.5°C | 60.9% | 437.8hPa | 2.6V | 07:39:32 | 03:02:06 | 00:00:00 | |
| DB0UT-7 | 2026-09-03 02:18:28 | 51.50049 | 7.51208 | 112° | 77km/h | 6810m | -3.2m/s | -20.5°C | 60.9% | 437.5hPa | 2.6V | 00:00:00 | 03:02:05 | 00:00:00 | |
| DO2KSM | 2026-09-03 02:18:27 | 51.50049 | 7.51208 | 112° | 77km/h | 6810m | -3.3m/s | -20.5°C | 58.4% | 437.6hPa | 2.5V | 07:39:00 | 00:00:00 | 00:00:00 | |
| DL8DAS-14 | 2026-09-03 02:18:26 | 51.50063 | 7.51151 | 111° | 75km/h | 6817m | -3.7m/s | -20.6°C | 60.5% | 437.2hPa | 2.5V | 00:00:00 | 00:00:00 | 00:00:00 | |
| DM0DOS-11 | 2026-09-03 02:18:25 | 51.50106 | 7.50978 | 111° | 77km/h | 6837m | -3.4m/s | -20.8°C | 63% | 435.9hPa | 2.5V | 07:39:29 | 03:01:57 | 00:00:00 | |
| DO2JMG | 2026-09-03 02:18:23 | 51.50085 | 7.51064 | 112° | 77km/h | 6828m | -3.3m/s | -20.7°C | 63.1% | 436.6hPa | 2.6V | 07:39:32 | 03:02:00 | 00:00:00 | |
| DL1XH-west | 2026-09-03 02:18:19 | 51.50113 | 7.50949 | 111° | 77km/h | 6841m | -3.6m/s | -20.8°C | 63.5% | 435.8hPa | 2.5V | 07:39:32 | 03:01:56 | 00:00:00 | |
| BIOWL1-15 | 2026-09-03 02:18:18 | 51.50120 | 7.50920 | 111° | 75km/h | 6844m | -3.6m/s | -20.8°C | 64.7% | 435.5hPa | 2.6V | 07:39:32 | 03:01:55 | 00:00:00 | |
| DJ2KF-10 | 2026-09-03 02:18:18 | 51.50120 | 7.50920 | 111° | 77km/h | 6844m | -3.5m/s | -20.8°C | 64.7% | 435.5hPa | 2.6V | 00:00:00 | 03:01:55 | 00:00:00 | |
| DH3RM | 2026-09-03 02:18:17 | 51.50120 | 7.50920 | 112° | 75km/h | 6844m | -3.6m/s | -20.8°C | 62.1% | 435.5hPa | 2.5V | 07:39:00 | 00:00:00 | 00:00:00 | |
| DO3DL | 2026-09-03 02:18:16 | 51.50127 | 7.50892 | 112° | 75km/h | 6848m | -3.6m/s | -20.9°C | 62.7% | 435.3hPa | 2.5V | 07:39:00 | 00:00:00 | 00:00:00 | |
| DM0DOS-11 | 2026-09-03 02:18:15 | 51.50175 | 7.50690 | 110° | 77km/h | 6872m | -3.5m/s | -21.1°C | 65.7% | 433.9hPa | 2.5V | 07:39:39 | 03:01:47 | 00:00:00 | |
| DO2JMG | 2026-09-03 02:18:13 | 51.50154 | 7.50777 | 110° | 77km/h | 6862m | -3.3m/s | -21°C | 65.5% | 434.6hPa | 2.6V | 07:40:23 | 03:01:50 | 00:00:00 | |
| BIOWL1-15 | 2026-09-03 02:18:09 | 51.50195 | 7.50604 | 110° | 77km/h | 6882m | -3.6m/s | -21.1°C | 64.5% | 433.3hPa | 2.6V | 07:40:23 | 03:01:44 | 00:00:00 | |
| DL1XH-west | 2026-09-03 02:18:08 | 51.50188 | 7.50633 | 111° | 75km/h | 6879m | -3.6m/s | -21.1°C | 64.5% | 433.6hPa | 2.5V | 07:40:23 | 03:01:45 | 00:00:00 | |
| DO2KSM | 2026-09-03 02:18:06 | 51.50195 | 7.50604 | 111° | 77km/h | 6882m | -3.6m/s | -21.1°C | 61.7% | 433.3hPa | 2.6V | 07:40:00 | 00:00:00 | 00:00:00 | |
| DM0DOS-11 | 2026-09-03 02:18:05 | 51.50242 | 7.50402 | 110° | 77km/h | 6906m | -3.4m/s | -21.4°C | 64.7% | 431.9hPa | 2.6V | 07:39:49 | 03:01:37 | 00:00:00 | |
| DO2JMG | 2026-09-03 02:18:03 | 51.50222 | 7.50488 | 110° | 75km/h | 6896m | -3.7m/s | -21.3°C | 64.3% | 432.5hPa | 2.5V | 07:40:23 | 03:01:40 | 00:00:00 | |
| BIOWL1-15 | 2026-09-03 02:17:57 | 51.50262 | 7.50315 | 110° | 77km/h | 6917m | -3.4m/s | -21.5°C | 64.7% | 431.3hPa | 2.5V | 07:40:23 | 03:01:34 | 00:00:00 | |
| BIOWL9-15 | 2026-09-03 02:17:56 | 51.50269 | 7.50285 | 110° | 77km/h | 6920m | -3.2m/s | -21.5°C | 61.7% | 431.1hPa | 2.6V | 00:00:00 | 00:00:00 | 00:00:00 | |
| DM0DOS-11 | 2026-09-03 02:17:55 | 51.50311 | 7.50110 | 111° | 77km/h | 6941m | -3.7m/s | -21.7°C | 62.5% | 429.9hPa | 2.6V | 07:39:59 | 03:01:27 | 00:00:00 | |
| DO2JMG | 2026-09-03 02:17:52 | 51.50297 | 7.50168 | 111° | 78km/h | 6934m | -3.3m/s | -21.6°C | 63% | 430.3hPa | 2.5V | 07:40:23 | 03:01:29 | 00:00:00 | |
| BIOWL1-15 | 2026-09-03 02:17:47 | 51.50333 | 7.50022 | 112° | 77km/h | 6951m | -3.6m/s | -21.8°C | 62% | 429.4hPa | 2.5V | 07:40:23 | 03:01:24 | 00:00:00 | |
| DO2JMG | 2026-09-03 02:17:42 | 51.50371 | 7.49877 | 112° | 77km/h | 6969m | -3.2m/s | -21.9°C | 63.3% | 428.3hPa | 2.6V | 07:40:23 | 03:01:19 | 00:00:00 | |
| DL1XH-west | 2026-09-03 02:17:36 | 51.50416 | 7.49705 | 113° | 77km/h | 6989m | -3.2m/s | -22°C | 72.7% | 427.2hPa | 2.5V | 07:40:23 | 03:01:13 | 00:00:00 | |
| DM0DOS-11 | 2026-09-03 02:17:35 | 51.50463 | 7.49533 | 114° | 77km/h | 7009m | -3.4m/s | -22.2°C | 83.5% | 425.9hPa | 2.5V | 07:40:19 | 03:01:07 | 00:00:00 | |
| DO2JMG | 2026-09-03 02:17:31 | 51.50455 | 7.49562 | 115° | 77km/h | 7006m | -3.5m/s | -22.1°C | 81.1% | 426.1hPa | 2.5V | 07:40:23 | 03:01:08 | 00:00:00 | |
| BIOWL1-15 | 2026-09-03 02:17:26 | 51.50497 | 7.49421 | 116° | 77km/h | 7023m | -3.6m/s | -22.3°C | 83.3% | 425.2hPa | 2.5V | 07:40:23 | 03:01:03 | 00:00:00 | |
| DL1XH-west | 2026-09-03 02:17:25 | 51.50505 | 7.49393 | 115° | 77km/h | 7026m | -3.7m/s | -22.3°C | 83.5% | 424.9hPa | 2.5V | 07:41:14 | 03:01:02 | 00:00:00 | |
| DO2JMG | 2026-09-03 02:17:21 | 51.50538 | 7.49281 | 116° | 77km/h | 7040m | -3.6m/s | -22.4°C | 85.3% | 424.1hPa | 2.6V | 07:41:14 | 03:00:58 | 00:00:00 | |
| BIOWL1-15 | 2026-09-03 02:17:16 | 51.50580 | 7.49144 | 116° | 75km/h | 7058m | -3.5m/s | -22.4°C | 84.5% | 423.2hPa | 2.5V | 07:41:14 | 03:00:53 | 00:00:00 | |
| DM0DOS-11 | 2026-09-03 02:17:15 | 51.50630 | 7.48978 | 115° | 77km/h | 7078m | -3.8m/s | -22.5°C | 86.7% | 421.9hPa | 2.6V | 07:40:39 | 03:00:47 | 00:00:00 | |
| DL1XH-west | 2026-09-03 02:17:14 | 51.50597 | 7.49089 | 116° | 75km/h | 7065m | -3.6m/s | -22.4°C | 84.5% | 422.7hPa | 2.6V | 07:41:14 | 03:00:51 | 00:00:00 | |
| DO2JMG | 2026-09-03 02:17:10 | 51.50630 | 7.48978 | 116° | 77km/h | 7078m | -3.8m/s | -22.5°C | 84.2% | 421.9hPa | 2.6V | 07:41:14 | 03:00:47 | 00:00:00 | |
| BIOWL1-15 | 2026-09-03 02:17:07 | 51.50673 | 7.48837 | 116° | 78km/h | 7096m | -3.4m/s | -22.6°C | 83.1% | 420.9hPa | 2.5V | 07:41:14 | 03:00:42 | 00:00:00 | |
| DM0DOS-11 | 2026-09-03 02:17:05 | 51.50717 | 7.48694 | 116° | 78km/h | 7113m | -3.3m/s | -22.7°C | 84.6% | 419.9hPa | 2.5V | 07:40:49 | 03:00:37 | 00:00:00 | |
| DL1XH-west | 2026-09-03 02:17:03 | 51.50690 | 7.48780 | 116° | 78km/h | 7103m | -3.3m/s | -22.7°C | 82.7% | 420.5hPa | 2.6V | 07:41:14 | 03:00:40 | 00:00:00 | |
| DO2JMG | 2026-09-03 02:16:59 | 51.50726 | 7.48665 | 116° | 78km/h | 7116m | -3.5m/s | -22.8°C | 82.3% | 419.7hPa | 2.5V | 07:41:14 | 03:00:36 | 00:00:00 | |
| DL3AQ-11 | 2026-09-03 02:16:58 | 51.50743 | 7.48609 | 116° | 77km/h | 7123m | -3.5m/s | -22.8°C | 80.9% | 419.4hPa | 2.6V | 00:00:00 | 00:00:00 | 00:00:00 | |
| DO3DL | 2026-09-03 02:16:57 | 51.50734 | 7.48637 | 118° | 78km/h | 7119m | -3.5m/s | -22.8°C | 80.9% | 419.5hPa | 2.6V | 07:41:00 | 00:00:00 | 00:00:00 | |
| DM0DOS-11 | 2026-09-03 02:16:55 | 51.50805 | 7.48409 | 116° | 78km/h | 7147m | -3.9m/s | -23°C | 86.1% | 417.9hPa | 2.6V | 07:40:59 | 03:00:27 | 00:00:00 | |
| BIOWL1-15 | 2026-09-03 02:16:54 | 51.50770 | 7.48524 | 116° | 78km/h | 7133m | -3.6m/s | -22.9°C | 82.6% | 418.8hPa | 2.5V | 07:41:14 | 03:00:31 | 00:00:00 | |
| DL1XH-west | 2026-09-03 02:16:52 | 51.50787 | 7.48467 | 116° | 78km/h | 7140m | -3.5m/s | -22.9°C | 83.3% | 418.4hPa | 2.6V | 07:41:14 | 03:00:29 | 00:00:00 | |
| DO2JMG | 2026-09-03 02:16:48 | 51.50823 | 7.48351 | 117° | 80km/h | 7154m | -3.3m/s | -23°C | 84.2% | 417.6hPa | 2.5V | 07:41:14 | 03:00:25 | 00:00:00 | |
| DJ2KF-10 | 2026-09-03 02:16:48 | 51.50823 | 7.48351 | 118° | 80km/h | 7155m | -3.3m/s | -23.0°C | 86.3% | 417.5hPa | 2.5V | 07:41:00 | 03:00:25 | 00:00:00 | |
| DH3RM | 2026-09-03 02:16:47 | 51.50823 | 7.48351 | 118° | 80km/h | 7155m | -3.3m/s | -23.0°C | 82.7% | 417.5hPa | 2.5V | 07:41:00 | 00:00:00 | 00:00:00 | |
| DM0DOS-11 | 2026-09-03 02:16:45 | 51.50896 | 7.48122 | 116° | 78km/h | 7182m | -3.4m/s | -23.2°C | 87.6% | 416hPa | 2.5V | 07:41:09 | 03:00:17 | 00:00:00 | |
| BIOWL1-15 | 2026-09-03 02:16:45 | 51.50869 | 7.48208 | 117° | 78km/h | 7172m | -3.6m/s | -23.2°C | 84.8% | 416.6hPa | 2.6V | 07:41:14 | 03:00:20 | 00:00:00 | |
| DL1XH-west | 2026-09-03 02:16:41 | 51.50887 | 7.48151 | 116° | 78km/h | 7178m | -3.3m/s | -23.2°C | 85.2% | 416.2hPa | 2.5V | 07:41:14 | 03:00:18 | 00:00:00 | |
| HSKMA3-T | 2026-09-03 02:16:40 | 51.50896 | 7.48122 | 117° | 78km/h | 7182m | -3.4m/s | -23.3°C | 85.4% | 0hPa | 2.5V | 18:12:15 | 03:00:17 | 00:00:00 | |
| DO2JMG | 2026-09-03 02:16:38 | 51.50914 | 7.48064 | 117° | 80km/h | 7188m | -3.5m/s | -23.3°C | 85.7% | 415.6hPa | 2.6V | 07:41:14 | 03:00:15 | 00:00:00 | |
| DO3DL | 2026-09-03 02:16:36 | 51.50923 | 7.48035 | 118° | 80km/h | 7192m | -3.6m/s | -23.4°C | 84.4% | 415.3hPa | 2.5V | 07:41:00 | 00:00:00 | 00:00:00 | |
| DM0DOS-11 | 2026-09-03 02:16:35 | 51.50987 | 7.47828 | 116° | 82km/h | 7217m | -3.7m/s | -23.6°C | 89% | 413.9hPa | 2.5V | 07:41:19 | 03:00:07 | 00:00:00 | |
| BIOWL1-15 | 2026-09-03 02:16:32 | 51.50968 | 7.47887 | 116° | 82km/h | 7210m | -3.9m/s | -23.5°C | 86.5% | 414.4hPa | 2.5V | 07:42:05 | 03:00:09 | 00:00:00 | |
| DL1XH-west | 2026-09-03 02:16:30 | 51.50987 | 7.47828 | 117° | 82km/h | 7217m | -3.7m/s | -23.6°C | 86.7% | 413.9hPa | 2.5V | 07:42:05 | 03:00:07 | 00:00:00 | |
| DO2JMG | 2026-09-03 02:16:27 | 51.51015 | 7.47738 | 116° | 82km/h | 7228m | -3.3m/s | -23.7°C | 87% | 413.4hPa | 2.6V | 07:42:05 | 03:00:04 | 00:00:00 | |
| DM0DOS-11 | 2026-09-03 02:16:25 | 51.51078 | 7.47527 | 115° | 84km/h | 7253m | -3.6m/s | -23.9°C | 89.7% | 411.9hPa | 2.5V | 07:41:29 | 02:59:57 | 00:00:00 | |
| BIOWL1-15 | 2026-09-03 02:16:22 | 51.51060 | 7.47588 | 115° | 84km/h | 7246m | -3.7m/s | -23.8°C | 87.2% | 412.3hPa | 2.6V | 07:42:05 | 02:59:59 | 00:00:00 | |
| DL1XH-west | 2026-09-03 02:16:19 | 51.51087 | 7.47496 | 115° | 84km/h | 7256m | -3.4m/s | -23.9°C | 86.5% | 411.8hPa | 2.5V | 07:42:05 | 02:59:56 | 00:00:00 | |
| DO2JMG | 2026-09-03 02:16:17 | 51.51105 | 7.47434 | 115° | 86km/h | 7263m | -3.6m/s | -24°C | 86.2% | 411.4hPa | 2.6V | 07:42:05 | 02:59:54 | 00:00:00 | |
| BIOWL1-15 | 2026-09-03 02:16:12 | 51.51151 | 7.47276 | 115° | 88km/h | 7281m | -3.7m/s | -24.1°C | 86.2% | 410.3hPa | 2.5V | 07:42:05 | 02:59:49 | 00:00:00 | |
| DL1XH-west | 2026-09-03 02:16:08 | 51.51190 | 7.47147 | 115° | 88km/h | 7295m | -3.6m/s | -24.2°C | 86.5% | 409.5hPa | 2.5V | 07:42:05 | 02:59:45 | 00:00:00 | |
| DO2JMG | 2026-09-03 02:16:06 | 51.51209 | 7.47082 | 116° | 89km/h | 7303m | -3.9m/s | -24.3°C | 86.5% | 409.1hPa | 2.5V | 07:42:05 | 02:59:43 | 00:00:00 | |
| BIOWL1-15 | 2026-09-03 02:16:02 | 51.51251 | 7.46950 | 117° | 91km/h | 7318m | -3.9m/s | -24.4°C | 88.4% | 408.3hPa | 2.5V | 07:42:05 | 02:59:39 | 00:00:00 | |
| DL1XH-west | 2026-09-03 02:15:57 | 51.51301 | 7.46781 | 115° | 95km/h | 7336m | -3.5m/s | -24.4°C | 85.4% | 407.3hPa | 2.6V | 07:42:05 | 02:59:34 | 00:00:00 | |
| DO2JMG | 2026-09-03 02:15:55 | 51.51321 | 7.46712 | 115° | 93km/h | 7343m | -4m/s | -24.4°C | 83.1% | 406.9hPa | 2.5V | 07:42:05 | 02:59:32 | 00:00:00 | |
| BIOWL1-15 | 2026-09-03 02:15:53 | 51.51362 | 7.46574 | 115° | 93km/h | 7357m | -3.7m/s | -24.4°C | 77.1% | 406.1hPa | 2.6V | 07:42:05 | 02:59:28 | 00:00:00 | |
| DL1XH-west | 2026-09-03 02:15:47 | 51.51402 | 7.46437 | 115° | 93km/h | 7372m | -3.6m/s | -24.3°C | 64.3% | 405.3hPa | 2.6V | 07:42:05 | 02:59:24 | 00:00:00 | |
| DO2JMG | 2026-09-03 02:15:45 | 51.51423 | 7.46369 | 116° | 95km/h | 7379m | -3.9m/s | -24.3°C | 56.2% | 404.9hPa | 2.6V | 07:42:05 | 02:59:22 | 00:00:00 | |
| HSKMA3-T | 2026-09-03 02:15:42 | 51.51454 | 7.46264 | 116° | 95km/h | 7390m | -3.9m/s | -24.2°C | 43.2% | 0hPa | 2.5V | 18:12:15 | 02:59:19 | 00:00:00 | |
| BIOWL1-15 | 2026-09-03 02:15:42 | 51.51475 | 7.46194 | 116° | 97km/h | 7398m | -3.9m/s | -24.1°C | 34.3% | 403.9hPa | 2.6V | 07:42:56 | 02:59:17 | 00:00:00 | |
| DL1XH-west | 2026-09-03 02:15:36 | 51.51518 | 7.46054 | 116° | 97km/h | 7413m | -3.6m/s | -24°C | 21.9% | 403.1hPa | 2.5V | 07:42:56 | 02:59:13 | 00:00:00 | |
| DO2JMG | 2026-09-03 02:15:35 | 51.51528 | 7.46019 | 116° | 97km/h | 7416m | -3.7m/s | -24°C | 21.8% | 402.8hPa | 2.6V | 07:42:56 | 02:59:12 | 00:00:00 | |
| BIOWL1-15 | 2026-09-03 02:15:29 | 51.51593 | 7.45808 | 117° | 97km/h | 7439m | -3.7m/s | -24.1°C | 21.9% | 401.6hPa | 2.6V | 07:42:56 | 02:59:06 | 00:00:00 | |
| DO1YAY-16 | 2026-09-03 02:15:29 | 51.51593 | 7.45808 | 116° | 97km/h | 7439m | -3.7m/s | -24.1°C | 18.1% | 401.6hPa | 2.6V | 00:00:00 | 00:00:00 | 00:00:00 | |
| DB0UT-7 | 2026-09-03 02:15:28 | 51.51604 | 7.45772 | 117° | 100km/h | 7443m | -3.5m/s | -24.1°C | 19.6% | 401.4hPa | 2.6V | 00:00:00 | 02:59:05 | 00:00:00 | |
| DM0DOS-11 | 2026-09-03 02:15:25 | 51.51693 | 7.45490 | 117° | 99km/h | 7471m | -3.8m/s | -24.3°C | 21.1% | 399.8hPa | 2.5V | 07:42:29 | 02:58:57 | 00:00:00 | |
| DO2JMG | 2026-09-03 02:15:25 | 51.51637 | 7.45667 | 117° | 97km/h | 7453m | -3.6m/s | -24.2°C | 22.5% | 400.8hPa | 2.5V | 07:42:56 | 02:59:02 | 00:00:00 | |
| BIOWL1-15 | 2026-09-03 02:15:19 | 51.51704 | 7.45454 | 117° | 99km/h | 7476m | -3.9m/s | -24.4°C | 23.9% | 399.6hPa | 2.5V | 07:42:56 | 02:58:56 | 00:00:00 | |
| AU51GT2 | 2026-09-03 02:15:19 | 51.51715 | 7.45419 | 116° | 99km/h | 7479m | -4.0m/s | -24.4°C | 20.1% | 399.4hPa | 2.5V | 00:00:00 | 00:00:00 | 00:00:00 | |
| DJ2KF-10 | 2026-09-03 02:15:18 | 51.51715 | 7.45419 | 117° | 102km/h | 7479m | -3.9m/s | -24.3°C | 21.6% | 399.4hPa | 2.5V | 00:00:00 | 02:58:55 | 00:00:00 | |
| DC6BW-12 | 2026-09-03 02:15:17 | 51.51715 | 7.45419 | 118° | 99km/h | 7479m | -4.0m/s | -24.4°C | 20.1% | 399.4hPa | 2.6V | 00:00:00 | 00:00:00 | 00:00:00 | |
| DM0DOS-11 | 2026-09-03 02:15:15 | 51.51807 | 7.45132 | 116° | 100km/h | 7508m | -3.7m/s | -24.6°C | 22.8% | 397.8hPa | 2.6V | 07:42:39 | 02:58:47 | 00:00:00 | |
| DL1XH-west | 2026-09-03 02:15:15 | 51.51750 | 7.45311 | 117° | 99km/h | 7490m | -3.4m/s | -24.5°C | 24.7% | 398.8hPa | 2.6V | 07:42:56 | 02:58:52 | 00:00:00 | |
| DO2JMG | 2026-09-03 02:15:14 | 51.51761 | 7.45276 | 117° | 99km/h | 7494m | -3.5m/s | -24.5°C | 24.7% | 398.6hPa | 2.5V | 07:42:56 | 02:58:51 | 00:00:00 | |
| HSKMA3-T | 2026-09-03 02:15:13 | 51.51773 | 7.45240 | 117° | 99km/h | 7497m | -3.6m/s | -24.5°C | 24.9% | 0hPa | 2.5V | 18:12:15 | 02:58:50 | 00:00:00 | |
| BIOWL1-15 | 2026-09-03 02:15:08 | 51.51830 | 7.45060 | 117° | 100km/h | 7516m | -3.8m/s | -24.6°C | 26% | 397.4hPa | 2.5V | 07:42:56 | 02:58:45 | 00:00:00 | |
| DL1LOL-11 | 2026-09-03 02:15:07 | 51.51830 | 7.45060 | 118° | 100km/h | 7516m | -3.8m/s | -24.6°C | 21.7% | 397.4hPa | 2.5V | 00:00:00 | 00:00:00 | 00:00:00 | |
| DD1CC8 | 2026-09-03 02:15:06 | 51.51853 | 7.44986 | 117° | 100km/h | 7523m | -3.3m/s | -24.7°C | 22.3% | 397.0hPa | 2.5V | 00:00:00 | 00:00:00 | 00:00:00 | |
| DM0DOS-11 | 2026-09-03 02:15:05 | 51.51926 | 7.44765 | 117° | 104km/h | 7545m | -3.8m/s | -24.9°C | 27.6% | 395.8hPa | 2.5V | 07:42:49 | 02:58:37 | 00:00:00 | |
| DL1XH-west | 2026-09-03 02:15:04 | 51.51877 | 7.44913 | 118° | 102km/h | 7530m | -3.5m/s | -24.8°C | 27.6% | 396.7hPa | 2.6V | 07:42:56 | 02:58:41 | 00:00:00 | |
| HSKMA3-T | 2026-09-03 02:15:01 | 51.51914 | 7.44802 | 118° | 102km/h | 7541m | -3.9m/s | -24.8°C | 29.7% | 0hPa | 2.5V | 18:12:15 | 02:58:38 | 00:00:00 | |
| BIOWL1-15 | 2026-09-03 02:15:00 | 51.51950 | 7.44691 | 118° | 104km/h | 7552m | -3.5m/s | -24.9°C | 32.1% | 395.5hPa | 2.6V | 07:42:56 | 02:58:35 | 00:00:00 | |
| DL3AQ-11 | 2026-09-03 02:14:58 | 51.51963 | 7.44653 | 117° | 104km/h | 7556m | -3.6m/s | -25.0°C | 28.9% | 395.2hPa | 2.5V | 00:00:00 | 00:00:00 | 00:00:00 | |
| HTAHTA | 2026-09-03 02:14:57 | 51.51963 | 7.44653 | 117° | 104km/h | 7556m | -3.6m/s | -25.0°C | 28.9% | 395.2hPa | 2.5V | 00:00:00 | 00:00:00 | 00:00:00 | |
| DC6BW-12 | 2026-09-03 02:14:56 | 51.51962 | 7.44653 | 119° | 104km/h | 7556m | -3.6m/s | -25.0°C | 28.9% | 395.3hPa | 2.5V | 00:00:00 | 00:00:00 | 00:00:00 | |
| DM0DOS-11 | 2026-09-03 02:14:55 | 51.52049 | 7.44391 | 117° | 104km/h | 7580m | -3.4m/s | -25.2°C | 41.6% | 393.9hPa | 2.5V | 07:42:59 | 02:58:27 | 00:00:00 | |
| DL1XH-west | 2026-09-03 02:14:53 | 51.52012 | 7.44503 | 118° | 104km/h | 7570m | -3.7m/s | -25.1°C | 39.8% | 394.4hPa | 2.6V | 07:42:56 | 02:58:30 | 00:00:00 | |
| DO2JMG | 2026-09-03 02:14:52 | 51.52024 | 7.44466 | 118° | 104km/h | 7573m | -3.4m/s | -25.1°C | 41.2% | 394.2hPa | 2.6V | 07:43:47 | 02:58:29 | 00:00:00 | |
| BIOWL1-15 | 2026-09-03 02:14:50 | 51.52074 | 7.44317 | 118° | 104km/h | 7587m | -3.4m/s | -25.2°C | 45.3% | 393.5hPa | 2.5V | 07:43:47 | 02:58:25 | 00:00:00 | |
| HARRO8 | 2026-09-03 02:14:49 | 51.52074 | 7.44317 | 118° | 104km/h | 7587m | -3.4m/s | -25.2°C | 40.6% | 393.5hPa | 2.6V | 00:00:00 | 00:00:00 | 00:00:00 | |
| AU51GT2 | 2026-09-03 02:14:48 | 51.52087 | 7.44280 | 119° | 102km/h | 7590m | -3.7m/s | -25.2°C | 40.7% | 393.3hPa | 2.6V | 00:00:00 | 00:00:00 | 00:00:00 | |
| DM0DOS-11 | 2026-09-03 02:14:45 | 51.52176 | 7.44021 | 119° | 106km/h | 7617m | -3.8m/s | -25.3°C | 41.6% | 391.8hPa | 2.6V | 07:43:09 | 02:58:17 | 00:00:00 | |
| DL1XH-west | 2026-09-03 02:14:43 | 51.52138 | 7.44132 | 119° | 104km/h | 7605m | -3.8m/s | -25.2°C | 44.7% | 392.4hPa | 2.5V | 07:43:47 | 02:58:20 | 00:00:00 | |
| DO2JMG | 2026-09-03 02:14:41 | 51.52163 | 7.44058 | 119° | 106km/h | 7613m | -3.9m/s | -25.3°C | 44.1% | 392.1hPa | 2.6V | 07:43:47 | 02:58:18 | 00:00:00 | |
| BIOWL1-15 | 2026-09-03 02:14:39 | 51.52215 | 7.43909 | 119° | 106km/h | 7628m | -3.8m/s | -25.4°C | 43.4% | 391.3hPa | 2.6V | 07:43:47 | 02:58:14 | 00:00:00 | |
| HSKMA3-T | 2026-09-03 02:14:36 | 51.52228 | 7.43872 | 119° | 104km/h | 7632m | -3.9m/s | -25.4°C | 43.2% | 0hPa | 2.6V | 18:12:15 | 02:58:13 | 00:00:00 | |
| DB0ND-19 | 2026-09-03 02:14:36 | 51.52241 | 7.43835 | 118° | 104km/h | 7636m | -3.8m/s | -25.5°C | 37.9% | 390.9hPa | 2.5V | 00:00:00 | 00:00:00 | 00:00:00 | |
| DM0DOS-11 | 2026-09-03 02:14:35 | 51.52305 | 7.43648 | 118° | 104km/h | 7654m | -3.5m/s | -25.6°C | 37.2% | 389.9hPa | 2.5V | 07:43:19 | 02:58:07 | 00:00:00 | |
| DL1XH-west | 2026-09-03 02:14:32 | 51.52280 | 7.43722 | 119° | 104km/h | 7647m | -3.7m/s | -25.5°C | 41.1% | 390.3hPa | 2.6V | 07:43:47 | 02:58:09 | 00:00:00 | |
| DO2JMG | 2026-09-03 02:14:31 | 51.52293 | 7.43685 | 119° | 104km/h | 7650m | -3.8m/s | -25.5°C | 40.4% | 390.1hPa | 2.5V | 07:43:47 | 02:58:08 | 00:00:00 | |
| BIOWL1-15 | 2026-09-03 02:14:29 | 51.52343 | 7.43537 | 119° | 104km/h | 7665m | -3.9m/s | -25.6°C | 39% | 389.4hPa | 2.6V | 07:43:47 | 02:58:04 | 00:00:00 | |
| DB0UT-7 | 2026-09-03 02:14:28 | 51.52330 | 7.43574 | 119° | 104km/h | 7661m | -3.8m/s | -25.6°C | 36.1% | 389.5hPa | 2.6V | 00:00:00 | 02:58:05 | 00:00:00 | |
| DO1YAY-16 | 2026-09-03 02:14:27 | 51.52356 | 7.43500 | 118° | 104km/h | 7668m | -3.6m/s | -25.7°C | 34.2% | 389.1hPa | 2.6V | 00:00:00 | 00:00:00 | 00:00:00 | |
| HTAHTA | 2026-09-03 02:14:26 | 51.52356 | 7.43500 | 118° | 104km/h | 7668m | -3.6m/s | -25.7°C | 34.2% | 389.1hPa | 2.6V | 00:00:00 | 00:00:00 | 00:00:00 | |
| DM0DOS-11 | 2026-09-03 02:14:25 | 51.52433 | 7.43277 | 118° | 104km/h | 7689m | -3.8m/s | -25.8°C | 39.4% | 387.9hPa | 2.6V | 07:43:29 | 02:57:57 | 00:00:00 | |
| HSKMA3-T | 2026-09-03 02:14:22 | 51.52407 | 7.43352 | 119° | 106km/h | 7683m | -3.5m/s | -25.8°C | 40.5% | 0hPa | 2.6V | 18:12:15 | 02:57:59 | 00:00:00 | |
| DO2JMG | 2026-09-03 02:14:21 | 51.52420 | 7.43314 | 119° | 106km/h | 7686m | -3.5m/s | -25.8°C | 41.2% | 388.2hPa | 2.6V | 07:43:47 | 02:57:58 | 00:00:00 | |
| BIOWL1-15 | 2026-09-03 02:14:19 | 51.52471 | 7.43165 | 119° | 104km/h | 7700m | -3.5m/s | -25.9°C | 43.5% | 387.4hPa | 2.5V | 07:43:47 | 02:57:54 | 00:00:00 | |
| HARRO8 | 2026-09-03 02:14:18 | 51.52471 | 7.43165 | 118° | 104km/h | 7700m | -3.5m/s | -25.9°C | 38.5% | 387.4hPa | 2.6V | 00:00:00 | 00:00:00 | 00:00:00 | |
| DL3AQ-11 | 2026-09-03 02:14:17 | 51.52471 | 7.43165 | 118° | 104km/h | 7700m | -3.5m/s | -25.9°C | 38.5% | 387.4hPa | 2.6V | 00:00:00 | 00:00:00 | 00:00:00 | |
| BIOWL7-15 | 2026-09-03 02:14:16 | 51.52471 | 7.43165 | 120° | 104km/h | 7701m | -3.5m/s | -25.9°C | 38.5% | 387.4hPa | 2.6V | 07:43:00 | 00:00:00 | 00:00:00 | |
| DM0DOS-11 | 2026-09-03 02:14:15 | 51.52560 | 7.42904 | 118° | 106km/h | 7726m | -3.8m/s | -26.1°C | 41.4% | 386hPa | 2.6V | 07:43:39 | 02:57:47 | 00:00:00 | |
| DL1XH-west | 2026-09-03 02:14:10 | 51.52560 | 7.42904 | 118° | 106km/h | 7726m | -3.8m/s | -26.1°C | 44% | 386hPa | 2.6V | 07:43:47 | 02:57:47 | 00:00:00 | |
| BIOWL1-15 | 2026-09-03 02:14:07 | 51.52598 | 7.42791 | 118° | 106km/h | 7738m | -3.6m/s | -26.2°C | 45.1% | 385.5hPa | 2.5V | 07:43:47 | 02:57:44 | 00:00:00 | |
| DL1XH-west | 2026-09-03 02:14:00 | 51.52686 | 7.42529 | 119° | 104km/h | 7763m | -3.5m/s | -26.4°C | 42.4% | 384.1hPa | 2.6V | 07:44:38 | 02:57:37 | 00:00:00 | |
| DO2JMG | 2026-09-03 02:13:59 | 51.52699 | 7.42491 | 119° | 104km/h | 7766m | -3.4m/s | -26.4°C | 41% | 384hPa | 2.6V | 07:44:38 | 02:57:36 | 00:00:00 | |
| BIOWL1-15 | 2026-09-03 02:13:56 | 51.52737 | 7.42380 | 119° | 104km/h | 7776m | -3.8m/s | -26.4°C | 39.1% | 383.4hPa | 2.5V | 07:44:38 | 02:57:33 | 00:00:00 | |
| DO2JMG | 2026-09-03 02:13:49 | 51.52830 | 7.42122 | 121° | 106km/h | 7801m | -3.4m/s | -26.6°C | 35.9% | 382hPa | 2.6V | 07:44:38 | 02:57:26 | 00:00:00 | |
| BIOWL1-15 | 2026-09-03 02:13:47 | 51.52884 | 7.41973 | 120° | 108km/h | 7816m | -3.5m/s | -26.7°C | 36.7% | 381.2hPa | 2.5V | 07:44:38 | 02:57:22 | 00:00:00 | |
| DL8DAS-14 | 2026-09-03 02:13:47 | 51.52870 | 7.42010 | 120° | 106km/h | 7812m | -3.8m/s | -26.7°C | 31.6% | 381.4hPa | 2.5V | 00:00:00 | 00:00:00 | 00:00:00 | |
| AU51GT2 | 2026-09-03 02:13:46 | 51.52884 | 7.41973 | 120° | 106km/h | 7816m | -3.5m/s | -26.7°C | 31.7% | 381.2hPa | 2.5V | 00:00:00 | 00:00:00 | 00:00:00 | |
| DM0DOS-11 | 2026-09-03 02:13:45 | 51.52952 | 7.41786 | 120° | 106km/h | 7834m | -3.5m/s | -26.8°C | 33.5% | 380.3hPa | 2.5V | 07:44:09 | 02:57:17 | 00:00:00 | |
| DO2JMG | 2026-09-03 02:13:38 | 51.52980 | 7.41711 | 121° | 108km/h | 7842m | -3.9m/s | -26.8°C | 35.7% | 380hPa | 2.6V | 07:44:38 | 02:57:15 | 00:00:00 | |
| BIOWL1-15 | 2026-09-03 02:13:37 | 51.53022 | 7.41599 | 121° | 108km/h | 7853m | -3.8m/s | -26.9°C | 36.4% | 379.4hPa | 2.5V | 07:44:38 | 02:57:12 | 00:00:00 | |
| DD1CC3-15 | 2026-09-03 02:13:36 | 51.52994 | 7.41674 | 123° | 108km/h | 7846m | -3.4m/s | -26.8°C | 30.1% | 379.8hPa | 2.5V | 07:44:00 | 00:00:00 | 00:00:00 | |
| DM0DOS-11 | 2026-09-03 02:13:35 | 51.53093 | 7.41411 | 121° | 108km/h | 7871m | -3.7m/s | -27°C | 38.3% | 378.4hPa | 2.5V | 07:44:19 | 02:57:07 | 00:00:00 | |
| HSKMA3-T | 2026-09-03 02:13:34 | 51.53036 | 7.41562 | 121° | 108km/h | 7857m | -3.7m/s | -26.9°C | 37.5% | 0hPa | 2.5V | 18:12:15 | 02:57:11 | 00:00:00 | |
| DO2JMG | 2026-09-03 02:13:28 | 51.53122 | 7.41336 | 121° | 108km/h | 7878m | -3.5m/s | -27.1°C | 41.7% | 378hPa | 2.6V | 07:44:38 | 02:57:05 | 00:00:00 | |
| DL1XH-west | 2026-09-03 02:13:27 | 51.53136 | 7.41298 | 122° | 110km/h | 7882m | -3.7m/s | -27.1°C | 42.1% | 377.9hPa | 2.6V | 07:44:38 | 02:57:04 | 00:00:00 | |
| BIOWL1-15 | 2026-09-03 02:13:26 | 51.53180 | 7.41186 | 123° | 110km/h | 7892m | -3.7m/s | -27.2°C | 43.1% | 377.3hPa | 2.5V | 07:44:38 | 02:57:01 | 00:00:00 | |
| HSKMA3-T | 2026-09-03 02:13:18 | 51.53270 | 7.40960 | 123° | 110km/h | 7914m | -3.8m/s | -27.4°C | 44.8% | 0hPa | 2.5V | 18:12:15 | 02:56:55 | 00:00:00 | |
| DO2JMG | 2026-09-03 02:13:17 | 51.53285 | 7.40922 | 123° | 110km/h | 7918m | -3.7m/s | -27.4°C | 45.1% | 375.9hPa | 2.6V | 07:44:38 | 02:56:54 | 00:00:00 | |
| DL1XH-west | 2026-09-03 02:13:16 | 51.53300 | 7.40885 | 123° | 111km/h | 7921m | -3.4m/s | -27.4°C | 45.6% | 375.8hPa | 2.6V | 07:44:38 | 02:56:53 | 00:00:00 | |
| BIOWL1-15 | 2026-09-03 02:13:15 | 51.53346 | 7.40771 | 123° | 111km/h | 7932m | -3.5m/s | -27.5°C | 47.2% | 375.2hPa | 2.6V | 07:44:38 | 02:56:50 | 00:00:00 | |
| DO2JMG | 2026-09-03 02:13:07 | 51.53438 | 7.40545 | 123° | 111km/h | 7954m | -3.8m/s | -27.7°C | 50% | 374hPa | 2.6V | 07:45:29 | 02:56:44 | 00:00:00 | |
| BIOWL1-15 | 2026-09-03 02:13:05 | 51.53500 | 7.40393 | 123° | 111km/h | 7970m | -3.9m/s | -27.8°C | 50.9% | 373.3hPa | 2.5V | 07:45:29 | 02:56:40 | 00:00:00 | |
| DM0DOS-11 | 2026-09-03 02:13:05 | 51.53547 | 7.40279 | 123° | 111km/h | 7981m | -3.9m/s | -27.9°C | 49% | 372.7hPa | 2.5V | 07:44:49 | 02:56:37 | 00:00:00 | |
| DL1XH-west | 2026-09-03 02:13:05 | 51.53468 | 7.40469 | 123° | 111km/h | 7962m | -4.2m/s | -27.8°C | 50.6% | 373.6hPa | 2.5V | 07:45:29 | 02:56:42 | 00:00:00 | |
| DO2JMG | 2026-09-03 02:12:57 | 51.53593 | 7.40165 | 123° | 113km/h | 7992m | -3.4m/s | -28°C | 53.4% | 372.1hPa | 2.6V | 07:45:29 | 02:56:34 | 00:00:00 | |
| DF5WG-10 | 2026-09-03 02:12:56 | 51.53609 | 7.40127 | 124° | 115km/h | 7996m | -3.8m/s | -28.0°C | 52.5% | 371.9hPa | 2.5V | 00:00:00 | 02:56:33 | 00:00:00 | |
| DM0DOS-11 | 2026-09-03 02:12:55 | 51.53703 | 7.39899 | 123° | 111km/h | 8017m | -3.5m/s | -28.3°C | 54% | 370.7hPa | 2.5V | 07:44:59 | 02:56:27 | 00:00:00 | |
| BIOWL1-15 | 2026-09-03 02:12:55 | 51.53656 | 7.40014 | 124° | 113km/h | 8006m | -3.6m/s | -28.2°C | 55.5% | 371.4hPa | 2.6V | 07:45:29 | 02:56:30 | 00:00:00 | |
| DL1XH-west | 2026-09-03 02:12:55 | 51.53624 | 7.40089 | 123° | 111km/h | 7999m | -3.5m/s | -28.1°C | 55.1% | 371.7hPa | 2.5V | 07:45:29 | 02:56:32 | 00:00:00 | |
| HSKMA3-T | 2026-09-03 02:12:54 | 51.53640 | 7.40052 | 124° | 111km/h | 8003m | -4.1m/s | -28.1°C | 55.5% | 0hPa | 2.5V | 18:12:15 | 02:56:31 | 00:00:00 | |
| DO2JMG | 2026-09-03 02:12:47 | 51.53750 | 7.39785 | 123° | 113km/h | 8028m | -3.4m/s | -28.4°C | 56.6% | 370.2hPa | 2.6V | 07:45:29 | 02:56:24 | 00:00:00 | |
| BIOWL9-15 | 2026-09-03 02:12:46 | 51.53766 | 7.39747 | 123° | 111km/h | 8032m | -3.8m/s | -28.4°C | 51.7% | 370.0hPa | 2.6V | 00:00:00 | 00:00:00 | 00:00:00 | |
| DM0DOS-11 | 2026-09-03 02:12:45 | 51.53860 | 7.39519 | 123° | 111km/h | 8053m | -3.9m/s | -28.6°C | 56.5% | 368.9hPa | 2.6V | 07:45:09 | 02:56:17 | 00:00:00 | |
| BUE01 | 2026-09-03 02:12:45 | 51.53781 | 7.39709 | 123° | 111km/h | 8035m | -3.8m/s | -28.5°C | 52.1% | 369.8hPa | 2.5V | 00:00:00 | 00:00:00 | 00:00:00 | |
| DL1XH-west | 2026-09-03 02:12:44 | 51.53797 | 7.39671 | 124° | 113km/h | 8039m | -3.8m/s | -28.5°C | 57.4% | 369.6hPa | 2.5V | 07:45:29 | 02:56:21 | 00:00:00 | |
| BIOWL1-15 | 2026-09-03 02:12:42 | 51.53829 | 7.39595 | 123° | 113km/h | 8046m | -3.5m/s | -28.6°C | 57.9% | 369.2hPa | 2.6V | 07:45:29 | 02:56:19 | 00:00:00 | |
| DO2JMG | 2026-09-03 02:12:36 | 51.53923 | 7.39367 | 123° | 111km/h | 8068m | -3.6m/s | -28.8°C | 59% | 368.1hPa | 2.6V | 07:45:29 | 02:56:13 | 00:00:00 | |
| BIOWL1-15 | 2026-09-03 02:12:35 | 51.54001 | 7.39177 | 124° | 111km/h | 8087m | -3.8m/s | -29°C | 60.3% | 367.1hPa | 2.6V | 07:45:29 | 02:56:08 | 00:00:00 | |
| DL1XH-west | 2026-09-03 02:12:33 | 51.53970 | 7.39253 | 123° | 111km/h | 8080m | -3.9m/s | -28.9°C | 59.9% | 367.5hPa | 2.5V | 07:45:29 | 02:56:10 | 00:00:00 | |
| DO2JMG | 2026-09-03 02:12:26 | 51.54080 | 7.38988 | 124° | 111km/h | 8106m | -4.1m/s | -29.1°C | 61.4% | 366.2hPa | 2.5V | 07:45:29 | 02:56:03 | 00:00:00 | |
| DM0DOS-11 | 2026-09-03 02:12:25 | 51.54174 | 7.38760 | 123° | 113km/h | 8128m | -3.7m/s | -29.4°C | 61.2% | 365.1hPa | 2.6V | 07:45:29 | 02:55:57 | 00:00:00 | |
| DL1XH-west | 2026-09-03 02:12:23 | 51.54127 | 7.38874 | 124° | 113km/h | 8117m | -3.5m/s | -29.2°C | 62.6% | 365.6hPa | 2.5V | 07:45:29 | 02:56:00 | 00:00:00 | |
| BIOWL1-15 | 2026-09-03 02:12:20 | 51.54174 | 7.38760 | 123° | 113km/h | 8128m | -3.7m/s | -29.4°C | 62.9% | 365.1hPa | 2.6V | 07:45:29 | 02:55:57 | 00:00:00 | |
| DC6BW-12 | 2026-09-03 02:12:19 | 51.54174 | 7.38760 | 124° | 113km/h | 8128m | -3.7m/s | -29.4°C | 57.7% | 365.1hPa | 2.6V | 07:45:00 | 00:00:00 | 00:00:00 | |
| DJ2KF-10 | 2026-09-03 02:12:18 | 51.54206 | 7.38684 | 124° | 113km/h | 8136m | -4.0m/s | -29.4°C | 62.0% | 364.7hPa | 2.6V | 00:00:00 | 02:55:55 | 00:00:00 | |
| DO3DL | 2026-09-03 02:12:17 | 51.54206 | 7.38684 | 124° | 113km/h | 8136m | -4.0m/s | -29.4°C | 58.5% | 364.7hPa | 2.5V | 07:46:00 | 00:00:00 | 00:00:00 | |
| DM0DOS-11 | 2026-09-03 02:12:15 | 51.54332 | 7.38380 | 123° | 111km/h | 8166m | -4.1m/s | -29.7°C | 64.2% | 363.2hPa | 2.5V | 07:45:39 | 02:55:47 | 00:00:00 | |
| DO2JMG | 2026-09-03 02:12:15 | 51.54253 | 7.38569 | 124° | 113km/h | 8148m | -3.9m/s | -29.5°C | 64.3% | 364.2hPa | 2.5V | 07:47:11 | 02:55:52 | 00:00:00 | |
| DL1XH-west | 2026-09-03 02:12:13 | 51.54285 | 7.38494 | 123° | 113km/h | 8155m | -3.4m/s | -29.6°C | 64.6% | 363.8hPa | 2.6V | 07:46:20 | 02:55:50 | 00:00:00 | |
| BIOWL1-15 | 2026-09-03 02:12:09 | 51.54348 | 7.38343 | 124° | 113km/h | 8170m | -3.6m/s | -29.8°C | 65.6% | 363hPa | 2.6V | 07:46:20 | 02:55:46 | 00:00:00 | |
| DB0NH | 2026-09-03 02:12:09 | 51.54348 | 7.38342 | 125° | 115km/h | 8170m | -3.6m/s | -29.7°C | 64.5% | 362.9hPa | 2.5V | 07:45:00 | 02:55:46 | 00:00:00 | |
| SONCRA | 2026-09-03 02:12:06 | 51.54396 | 7.38228 | 123° | 111km/h | 8181m | -3.8m/s | -29.9°C | 62.1% | 362.5hPa | 2.5V | 00:00:00 | 00:00:00 | 00:00:00 | |
| DM0DOS-11 | 2026-09-03 02:12:05 | 51.54491 | 7.37997 | 122° | 115km/h | 8203m | -3.3m/s | -30.1°C | 69.4% | 361.3hPa | 2.5V | 07:45:49 | 02:55:37 | 00:00:00 | |
| HSKMA3-T | 2026-09-03 02:12:03 | 51.54444 | 7.38113 | 123° | 113km/h | 8192m | -4.2m/s | -30°C | 69.3% | 0hPa | 2.6V | 18:12:15 | 02:55:40 | 00:00:00 | |
| DL1XH-west | 2026-09-03 02:12:02 | 51.54459 | 7.38075 | 124° | 115km/h | 8196m | -3.5m/s | -30°C | 69.6% | 361.7hPa | 2.5V | 07:46:20 | 02:55:39 | 00:00:00 | |
| BIOWL1-15 | 2026-09-03 02:11:58 | 51.54523 | 7.37919 | 123° | 115km/h | 8210m | -3.6m/s | -30.1°C | 70.6% | 360.9hPa | 2.6V | 07:46:20 | 02:55:35 | 00:00:00 | |
| DO3DL | 2026-09-03 02:11:57 | 51.54523 | 7.37919 | 124° | 115km/h | 8211m | -3.6m/s | -30.1°C | 65.9% | 361.0hPa | 2.6V | 07:46:00 | 00:00:00 | 00:00:00 | |
| DL8DAS-15 | 2026-09-03 02:11:56 | 51.54539 | 7.37880 | 124° | 113km/h | 8214m | -4.0m/s | -30.2°C | 66.2% | 360.7hPa | 2.6V | 07:46:00 | 00:00:00 | 00:00:00 | |
| DM0DOS-11 | 2026-09-03 02:11:55 | 51.54649 | 7.37609 | 122° | 115km/h | 8241m | -3.5m/s | -30.4°C | 76% | 359.4hPa | 2.6V | 07:45:59 | 02:55:27 | 00:00:00 | |
| DL1XH-west | 2026-09-03 02:11:52 | 51.54618 | 7.37687 | 123° | 113km/h | 8233m | -4m/s | -30.4°C | 74.4% | 359.8hPa | 2.5V | 07:46:20 | 02:55:29 | 00:00:00 | |
| BIOWL1-15 | 2026-09-03 02:11:50 | 51.54680 | 7.37532 | 123° | 113km/h | 8248m | -3.7m/s | -30.5°C | 76.1% | 359.1hPa | 2.5V | 07:46:20 | 02:55:25 | 00:00:00 | |
| DO2JMG | 2026-09-03 02:11:46 | 51.54712 | 7.37454 | 123° | 115km/h | 8256m | -3.5m/s | -30.6°C | 78.3% | 358.7hPa | 2.5V | 07:47:11 | 02:55:23 | 00:00:00 | |
| DM0DOS-11 | 2026-09-03 02:11:45 | 51.54806 | 7.37218 | 121° | 115km/h | 8279m | -3.8m/s | -30.8°C | 80% | 357.5hPa | 2.6V | 07:46:09 | 02:55:17 | 00:00:00 | |
| DL1XH-west | 2026-09-03 02:11:42 | 51.54775 | 7.37297 | 123° | 115km/h | 8271m | -4.2m/s | -30.7°C | 78.9% | 357.9hPa | 2.5V | 07:46:20 | 02:55:19 | 00:00:00 | |
| BIOWL1-15 | 2026-09-03 02:11:38 | 51.54837 | 7.37139 | 122° | 115km/h | 8287m | -3.5m/s | -30.9°C | 80.1% | 357.1hPa | 2.5V | 07:46:20 | 02:55:15 | 00:00:00 | |
| HSKMA3-T | 2026-09-03 02:11:37 | 51.54853 | 7.37099 | 122° | 115km/h | 8290m | -3.9m/s | -30.9°C | 80.7% | 0hPa | 2.5V | 18:12:15 | 02:55:14 | 00:00:00 | |
| DO2JMG | 2026-09-03 02:11:36 | 51.54868 | 7.37059 | 122° | 117km/h | 8294m | -3.5m/s | -31°C | 80.9% | 356.7hPa | 2.5V | 07:47:11 | 02:55:13 | 00:00:00 | |
| DM0DOS-11 | 2026-09-03 02:11:35 | 51.54961 | 7.36817 | 121° | 117km/h | 8316m | -3.9m/s | -31.2°C | 82.5% | 355.6hPa | 2.5V | 07:46:19 | 02:55:07 | 00:00:00 | |
| DL1XH-west | 2026-09-03 02:11:31 | 51.54946 | 7.36857 | 122° | 117km/h | 8312m | -3.6m/s | -31.1°C | 81.5% | 355.8hPa | 2.5V | 07:46:20 | 02:55:08 | 00:00:00 | |
| BIOWL1-15 | 2026-09-03 02:11:27 | 51.55008 | 7.36695 | 121° | 117km/h | 8327m | -3.9m/s | -31.3°C | 82.5% | 355hPa | 2.6V | 07:47:11 | 02:55:04 | 00:00:00 | |
| DL1XH-west | 2026-09-03 02:11:21 | 51.55098 | 7.36449 | 120° | 117km/h | 8349m | -3.4m/s | -31.5°C | 87.9% | 353.9hPa | 2.6V | 07:47:11 | 02:54:58 | 00:00:00 | |
| BIOWL1-15 | 2026-09-03 02:11:16 | 51.55173 | 7.36242 | 121° | 119km/h | 8368m | -3.6m/s | -31.6°C | 92.7% | 353hPa | 2.5V | 07:47:11 | 02:54:53 | 00:00:00 | |
| DL1XH-west | 2026-09-03 02:11:11 | 51.55249 | 7.36033 | 120° | 119km/h | 8387m | -3.6m/s | -31.8°C | 92.8% | 352.1hPa | 2.5V | 07:47:11 | 02:54:48 | 00:00:00 | |
| BIOWL1-15 | 2026-09-03 02:11:07 | 51.55339 | 7.35781 | 120° | 119km/h | 8408m | -3.6m/s | -31.9°C | 89.9% | 351hPa | 2.5V | 07:47:11 | 02:54:42 | 00:00:00 | |
| DL1XH-west | 2026-09-03 02:11:01 | 51.55398 | 7.35612 | 119° | 119km/h | 8423m | -4m/s | -32.1°C | 88.8% | 350.2hPa | 2.5V | 07:47:11 | 02:54:38 | 00:00:00 | |
| DL3AQ-11 | 2026-09-03 02:10:58 | 51.55458 | 7.35443 | 120° | 119km/h | 8438m | -3.8m/s | -32.1°C | 82.0% | 349.5hPa | 2.6V | 00:00:00 | 00:00:00 | 00:00:00 | |
| DD1CC1-15 | 2026-09-03 02:10:57 | 51.55443 | 7.35485 | 121° | 119km/h | 8434m | -4.1m/s | -32.1°C | 82.9% | 349.7hPa | 2.6V | 07:47:00 | 00:00:00 | 00:00:00 | |
| DC6BW-12 | 2026-09-03 02:10:56 | 51.55458 | 7.35443 | 121° | 120km/h | 8438m | -3.8m/s | -32.1°C | 82.0% | 349.5hPa | 2.6V | 07:47:00 | 00:00:00 | 00:00:00 | |
| DM0DOS-11 | 2026-09-03 02:10:55 | 51.55567 | 7.35150 | 120° | 119km/h | 8464m | -3.7m/s | -32.1°C | 80.2% | 348.2hPa | 2.6V | 07:46:59 | 02:54:27 | 00:00:00 | |
| BIOWL1-15 | 2026-09-03 02:10:55 | 51.55489 | 7.35359 | 121° | 120km/h | 8446m | -3.9m/s | -32.1°C | 82.5% | 349.1hPa | 2.5V | 07:47:11 | 02:54:32 | 00:00:00 | |
| DL1XH-west | 2026-09-03 02:10:50 | 51.55567 | 7.35150 | 121° | 119km/h | 8464m | -3.7m/s | -32.2°C | 78.7% | 348.2hPa | 2.6V | 07:47:11 | 02:54:27 | 00:00:00 | |
| BIOWL1-15 | 2026-09-03 02:10:49 | 51.55646 | 7.34942 | 122° | 119km/h | 8483m | -3.8m/s | -32.2°C | 77% | 347.3hPa | 2.5V | 07:47:11 | 02:54:22 | 00:00:00 | |
| HTAHTA | 2026-09-03 02:10:49 | 51.55598 | 7.35066 | 121° | 119km/h | 8472m | -3.7m/s | -32.2°C | 73.6% | 347.8hPa | 2.5V | 00:00:00 | 00:00:00 | 00:00:00 | |
| DL1XH-west | 2026-09-03 02:10:39 | 51.55741 | 7.34696 | 122° | 119km/h | 8505m | -3.6m/s | -32.3°C | 69.4% | 346.2hPa | 2.5V | 07:47:11 | 02:54:16 | 00:00:00 | |
| DB0NH | 2026-09-03 02:10:39 | 51.55741 | 7.34696 | 123° | 117km/h | 8505m | -3.5m/s | -32.2°C | 69.5% | 346.2hPa | 2.5V | 00:00:00 | 02:54:16 | 00:00:00 | |
| DD1CC1-15 | 2026-09-03 02:10:36 | 51.55773 | 7.34615 | 123° | 119km/h | 8512m | -4.0m/s | -32.2°C | 61.4% | 345.9hPa | 2.5V | 07:48:00 | 00:00:00 | 00:00:00 | |
| DM0DOS-11 | 2026-09-03 02:10:35 | 51.55886 | 7.34333 | 122° | 117km/h | 8538m | -3.6m/s | -32.4°C | 58.7% | 344.5hPa | 2.5V | 07:47:19 | 02:54:07 | 00:00:00 | |
| BIOWL1-15 | 2026-09-03 02:10:34 | 51.55821 | 7.34494 | 122° | 119km/h | 8523m | -3.6m/s | -32.3°C | 63.6% | 345.3hPa | 2.5V | 07:48:02 | 02:54:11 | 00:00:00 | |
| DO2JMG | 2026-09-03 02:10:32 | 51.55853 | 7.34413 | 123° | 119km/h | 8531m | -3.9m/s | -32.3°C | 62.1% | 344.9hPa | 2.5V | 07:48:02 | 02:54:09 | 00:00:00 | |
| DL1XH-west | 2026-09-03 02:10:29 | 51.55902 | 7.34293 | 123° | 117km/h | 8542m | -3.8m/s | -32.4°C | 58% | 344.4hPa | 2.6V | 07:48:02 | 02:54:06 | 00:00:00 | |
| BIOWL7-15 | 2026-09-03 02:10:28 | 51.55902 | 7.34293 | 124° | 117km/h | 8542m | -3.8m/s | -32.4°C | 53.0% | 344.4hPa | 2.5V | 07:48:00 | 00:00:00 | 00:00:00 | |
| DD1CC8 | 2026-09-03 02:10:27 | 51.55934 | 7.34214 | 123° | 115km/h | 8550m | -4.0m/s | -32.4°C | 50.1% | 344.0hPa | 2.5V | 00:00:00 | 00:00:00 | 00:00:00 | |
| DM0DOS-11 | 2026-09-03 02:10:25 | 51.56046 | 7.33938 | 123° | 115km/h | 8576m | -3.8m/s | -32.5°C | 44.3% | 342.7hPa | 2.5V | 07:47:29 | 02:53:57 | 00:00:00 | |
| HSKMA3-T | 2026-09-03 02:10:25 | 51.55966 | 7.34134 | 123° | 117km/h | 8557m | -4.1m/s | -32.4°C | 51.1% | 0hPa | 2.5V | 18:12:15 | 02:54:02 | 00:00:00 | |
| BIOWL1-15 | 2026-09-03 02:10:24 | 51.55983 | 7.34095 | 123° | 115km/h | 8561m | -3.8m/s | -32.4°C | 49.3% | 343.5hPa | 2.5V | 07:48:02 | 02:54:01 | 00:00:00 | |
| DO2JMG | 2026-09-03 02:10:21 | 51.56030 | 7.33977 | 123° | 115km/h | 8573m | -3.9m/s | -32.5°C | 47.2% | 342.9hPa | 2.5V | 07:48:02 | 02:53:58 | 00:00:00 | |
| DL1XH-west | 2026-09-03 02:10:18 | 51.56078 | 7.33860 | 123° | 115km/h | 8584m | -4.1m/s | -32.5°C | 46.2% | 342.4hPa | 2.5V | 07:48:02 | 02:53:55 | 00:00:00 | |
| DO3DL | 2026-09-03 02:10:17 | 51.56077 | 7.33860 | 124° | 115km/h | 8584m | -4.1m/s | -32.5°C | 40.6% | 342.4hPa | 2.5V | 07:48:00 | 00:00:00 | 00:00:00 | |
| DJ2KF-10 | 2026-09-03 02:10:16 | 51.56109 | 7.33782 | 124° | 113km/h | 8592m | -3.6m/s | -32.5°C | 43.7% | 341.9hPa | 2.5V | 00:00:00 | 02:53:53 | 00:00:00 | |
| DM0DOS-11 | 2026-09-03 02:10:15 | 51.56203 | 7.33547 | 122° | 113km/h | 8615m | -3.7m/s | -32.8°C | 43.2% | 340.9hPa | 2.5V | 07:47:39 | 02:53:47 | 00:00:00 | |
| BIOWL1-15 | 2026-09-03 02:10:13 | 51.56156 | 7.33664 | 122° | 115km/h | 8603m | -3.5m/s | -32.7°C | 46% | 341.4hPa | 2.5V | 07:48:02 | 02:53:50 | 00:00:00 | |
| DO2JMG | 2026-09-03 02:10:10 | 51.56203 | 7.33547 | 122° | 113km/h | 8615m | -3.7m/s | -32.8°C | 45.7% | 340.9hPa | 2.5V | 07:48:02 | 02:53:47 | 00:00:00 | |
| DL1XH-west | 2026-09-03 02:10:08 | 51.56233 | 7.33470 | 123° | 113km/h | 8622m | -4m/s | -32.8°C | 45.3% | 340.5hPa | 2.5V | 07:48:02 | 02:53:45 | 00:00:00 | |
| BIOWL7-15 | 2026-09-03 02:10:07 | 51.56234 | 7.33469 | 123° | 113km/h | 8622m | -4.0m/s | -32.8°C | 39.6% | 340.5hPa | 2.5V | 07:48:00 | 00:00:00 | 00:00:00 | |
| DH3RM | 2026-09-03 02:10:06 | 51.56249 | 7.33431 | 124° | 113km/h | 8626m | -3.5m/s | -32.8°C | 39.4% | 340.3hPa | 2.5V | 07:48:00 | 00:00:00 | 00:00:00 | |
| DM0DOS-11 | 2026-09-03 02:10:05 | 51.56356 | 7.33161 | 122° | 113km/h | 8653m | -3.7m/s | -33°C | 42.6% | 339hPa | 2.5V | 07:47:49 | 02:53:37 | 00:00:00 | |
| BIOWL1-15 | 2026-09-03 02:10:05 | 51.56310 | 7.33276 | 123° | 113km/h | 8642m | -3.9m/s | -32.9°C | 44.5% | 339.6hPa | 2.5V | 07:48:02 | 02:53:40 | 00:00:00 | |
| DO2JMG | 2026-09-03 02:09:59 | 51.56371 | 7.33123 | 122° | 111km/h | 8657m | -4.1m/s | -33°C | 45.3% | 338.8hPa | 2.5V | 07:48:02 | 02:53:36 | 00:00:00 | |
| DL1XH-west | 2026-09-03 02:09:58 | 51.56386 | 7.33084 | 122° | 113km/h | 8661m | -3.5m/s | -33.1°C | 45.6% | 338.7hPa | 2.4V | 07:48:02 | 02:53:35 | 00:00:00 | |
| DD1CC8 | 2026-09-03 02:09:56 | 51.56416 | 7.33007 | 121° | 110km/h | 8668m | -3.7m/s | -33.1°C | 40.7% | 338.2hPa | 2.5V | 00:00:00 | 00:00:00 | 00:00:00 | |
| DM0DOS-11 | 2026-09-03 02:09:55 | 51.56504 | 7.32778 | 122° | 110km/h | 8691m | -3.9m/s | -33.3°C | 46% | 337.1hPa | 2.5V | 07:47:59 | 02:53:27 | 00:00:00 | |
| BIOWL1-15 | 2026-09-03 02:09:55 | 51.56460 | 7.32892 | 121° | 111km/h | 8680m | -3.7m/s | -33.2°C | 47.9% | 337.7hPa | 2.4V | 07:48:02 | 02:53:30 | 00:00:00 | |
| DO2JMG | 2026-09-03 02:09:49 | 51.56519 | 7.32739 | 122° | 110km/h | 8695m | -4m/s | -33.3°C | 48.4% | 337hPa | 2.5V | 07:48:02 | 02:53:26 | 00:00:00 | |
| DL1XH-west | 2026-09-03 02:09:48 | 51.56534 | 7.32701 | 122° | 110km/h | 8699m | -4m/s | -33.3°C | 48.5% | 336.8hPa | 2.5V | 07:48:02 | 02:53:25 | 00:00:00 | |
| HTAHTA | 2026-09-03 02:09:47 | 51.56563 | 7.32625 | 122° | 110km/h | 8707m | -3.9m/s | -33.4°C | 43.1% | 336.4hPa | 2.5V | 00:00:00 | 00:00:00 | 00:00:00 | |
| DJ2DS-15 | 2026-09-03 02:09:46 | 51.56592 | 7.32549 | 121° | 110km/h | 8714m | -3.9m/s | -33.4°C | 43.5% | 336.0hPa | 2.5V | 00:00:00 | 00:00:00 | 00:00:00 | |
| DM0DOS-11 | 2026-09-03 02:09:45 | 51.56651 | 7.32397 | 122° | 111km/h | 8730m | -4m/s | -33.6°C | 47.9% | 335.3hPa | 2.5V | 07:48:09 | 02:53:17 | 00:00:00 | |
| BIOWL1-15 | 2026-09-03 02:09:42 | 51.56622 | 7.32473 | 122° | 111km/h | 8722m | -3.9m/s | -33.5°C | 49.8% | 335.7hPa | 2.5V | 07:48:53 | 02:53:19 | 00:00:00 | |
| DO2JMG | 2026-09-03 02:09:39 | 51.56666 | 7.32359 | 122° | 111km/h | 8734m | -4.1m/s | -33.6°C | 50.4% | 335.1hPa | 2.4V | 07:48:53 | 02:53:16 | 00:00:00 | |
| DL1XH-west | 2026-09-03 02:09:38 | 51.56681 | 7.32320 | 122° | 111km/h | 8738m | -3.6m/s | -33.7°C | 50.6% | 335hPa | 2.4V | 07:48:53 | 02:53:15 | 00:00:00 | |
| AU51GT2 | 2026-09-03 02:09:37 | 51.56696 | 7.32282 | 121° | 110km/h | 8741m | -3.8m/s | -33.7°C | 45.1% | 334.7hPa | 2.5V | 00:00:00 | 00:00:00 | 00:00:00 | |
| DO3DL | 2026-09-03 02:09:36 | 51.56696 | 7.32282 | 123° | 111km/h | 8742m | -3.8m/s | -33.7°C | 45.1% | 334.7hPa | 2.5V | 07:48:00 | 00:00:00 | 00:00:00 | |
| DM0DOS-11 | 2026-09-03 02:09:35 | 51.56799 | 7.32017 | 121° | 110km/h | 8768m | -3.9m/s | -33.9°C | 53.7% | 333.5hPa | 2.5V | 07:48:19 | 02:53:07 | 00:00:00 | |
| HSKMA3-T | 2026-09-03 02:09:32 | 51.56770 | 7.32092 | 122° | 110km/h | 8761m | -4m/s | -33.9°C | 54.7% | 0hPa | 2.5V | 18:12:15 | 02:53:09 | 00:00:00 | |
| BIOWL1-15 | 2026-09-03 02:09:31 | 51.56784 | 7.32055 | 122° | 110km/h | 8765m | -4m/s | -33.9°C | 55.4% | 333.6hPa | 2.5V | 07:48:53 | 02:53:08 | 00:00:00 | |
| DL1XH-west | 2026-09-03 02:09:28 | 51.56828 | 7.31942 | 122° | 110km/h | 8776m | -4.1m/s | -34°C | 55.8% | 333.1hPa | 2.5V | 07:48:53 | 02:53:05 | 00:00:00 | |
| BIOWL7-15 | 2026-09-03 02:09:26 | 51.56843 | 7.31904 | 123° | 110km/h | 8781m | -4.1m/s | -34.0°C | 50.0% | 332.9hPa | 2.4V | 07:48:00 | 00:00:00 | 00:00:00 | |
| DM0DOS-11 | 2026-09-03 02:09:25 | 51.56948 | 7.31639 | 122° | 110km/h | 8807m | -3.6m/s | -34.3°C | 56.4% | 331.6hPa | 2.4V | 07:48:29 | 02:52:57 | 00:00:00 | |
| HSKMA3-T | 2026-09-03 02:09:21 | 51.56933 | 7.31677 | 122° | 111km/h | 8804m | -3.6m/s | -34.3°C | 57.6% | 0hPa | 2.4V | 18:12:15 | 02:52:58 | 00:00:00 | |
| DL1XH-west | 2026-09-03 02:09:18 | 51.56978 | 7.31564 | 123° | 111km/h | 8815m | -3.9m/s | -34.4°C | 58.3% | 331.2hPa | 2.5V | 07:48:53 | 02:52:55 | 00:00:00 | |
| DO2JMG | 2026-09-03 02:09:17 | 51.56993 | 7.31526 | 123° | 110km/h | 8819m | -4.2m/s | -34.4°C | 58.3% | 331hPa | 2.5V | 07:48:53 | 02:52:54 | 00:00:00 | |
| GOEST3-10 | 2026-09-03 02:09:17 | 51.56993 | 7.31526 | 123° | 110km/h | 8819m | -4.1m/s | -34.4°C | 57.0% | 331.0hPa | 2.5V | 00:00:00 | 02:52:54 | 00:00:00 | |
| HTAHTA | 2026-09-03 02:09:16 | 51.57038 | 7.31414 | 122° | 108km/h | 8831m | -4.2m/s | -34.5°C | 53.2% | 330.5hPa | 2.4V | 00:00:00 | 00:00:00 | 00:00:00 | |
| DM0DOS-11 | 2026-09-03 02:09:15 | 51.57098 | 7.31265 | 123° | 110km/h | 8846m | -3.9m/s | -34.7°C | 58.2% | 329.8hPa | 2.4V | 07:48:39 | 02:52:47 | 00:00:00 | |
| BIOWL1-15 | 2026-09-03 02:09:11 | 51.57083 | 7.31302 | 123° | 110km/h | 8843m | -3.7m/s | -34.7°C | 59.4% | 330hPa | 2.5V | 07:48:53 | 02:52:48 | 00:00:00 | |
| DL1XH-west | 2026-09-03 02:09:07 | 51.57143 | 7.31153 | 123° | 110km/h | 8858m | -4.2m/s | -34.8°C | 59.6% | 329.2hPa | 2.5V | 07:48:53 | 02:52:44 | 00:00:00 | |
| DF5WG-10 | 2026-09-03 02:09:07 | 51.57143 | 7.31153 | 124° | 111km/h | 8858m | -4.1m/s | -34.7°C | 58.2% | 329.2hPa | 2.5V | 07:48:00 | 02:52:44 | 00:00:00 | |
| AU51GT2 | 2026-09-03 02:09:06 | 51.57159 | 7.31115 | 123° | 110km/h | 8862m | -3.7m/s | -34.8°C | 54.3% | 329.0hPa | 2.5V | 00:00:00 | 00:00:00 | 00:00:00 | |
| DM0DOS-11 | 2026-09-03 02:09:05 | 51.57252 | 7.30891 | 123° | 111km/h | 8885m | -3.6m/s | -35°C | 59.2% | 327.9hPa | 2.5V | 07:48:49 | 02:52:37 | 00:00:00 | |
| BIOWL1-15 | 2026-09-03 02:09:01 | 51.57236 | 7.30928 | 124° | 111km/h | 8882m | -4.1m/s | -35°C | 60.3% | 328.1hPa | 2.4V | 07:48:53 | 02:52:38 | 00:00:00 | |
| DL1XH-west | 2026-09-03 02:08:57 | 51.57299 | 7.30779 | 124° | 110km/h | 8897m | -3.9m/s | -35.2°C | 60.6% | 327.4hPa | 2.4V | 07:48:53 | 02:52:34 | 00:00:00 | |
| DO2JMG | 2026-09-03 02:08:56 | 51.57315 | 7.30742 | 124° | 110km/h | 8901m | -4.3m/s | -35.2°C | 60.7% | 327.2hPa | 2.4V | 07:48:53 | 02:52:33 | 00:00:00 | |
| DM0DOS-11 | 2026-09-03 02:08:55 | 51.57409 | 7.30519 | 124° | 111km/h | 8925m | -4m/s | -35.4°C | 60% | 326hPa | 2.5V | 07:48:59 | 02:52:27 | 00:00:00 | |
| BIOWL1-15 | 2026-09-03 02:08:53 | 51.57393 | 7.30556 | 124° | 111km/h | 8921m | -4.1m/s | -35.4°C | 61% | 326.3hPa | 2.4V | 07:49:44 | 02:52:28 | 00:00:00 | |
| DL1XH-west | 2026-09-03 02:08:46 | 51.57473 | 7.30369 | 124° | 113km/h | 8941m | -3.6m/s | -35.6°C | 60.9% | 325.4hPa | 2.4V | 07:49:44 | 02:52:23 | 00:00:00 | |
| DO1YAY-16 | 2026-09-03 02:08:45 | 51.57489 | 7.30331 | 124° | 111km/h | 8945m | -4.0m/s | -35.6°C | 55.4% | 325.2hPa | 2.5V | 00:00:00 | 00:00:00 | 00:00:00 | |
| BIOWL1-15 | 2026-09-03 02:08:40 | 51.57569 | 7.30143 | 125° | 111km/h | 8964m | -3.9m/s | -35.8°C | 60.9% | 324.2hPa | 2.5V | 07:49:44 | 02:52:17 | 00:00:00 | |
| DB0NH | 2026-09-03 02:08:39 | 51.57584 | 7.30106 | 125° | 113km/h | 8969m | -4.4m/s | -35.8°C | 60.0% | 324.0hPa | 2.4V | 00:00:00 | 02:52:16 | 00:00:00 | |
| GOEST3-10 | 2026-09-03 02:08:37 | 51.57617 | 7.30031 | 125° | 113km/h | 8977m | -4.0m/s | -35.8°C | 60.1% | 323.6hPa | 2.4V | 00:00:00 | 02:52:14 | 00:00:00 | |
| DL1XH-15 | 2026-09-03 02:08:36 | 51.57713 | 7.29806 | 124° | 113km/h | 9000m | -3.6m/s | -36.1°C | 60.5% | 322.6hPa | 2.4V | 07:49:18 | 02:52:08 | 00:00:00 | |
| DL1XH-west | 2026-09-03 02:08:36 | 51.57633 | 7.29994 | 124° | 111km/h | 8981m | -4m/s | -35.9°C | 60.9% | 323.5hPa | 2.4V | 07:49:44 | 02:52:13 | 00:00:00 | |
| HSKMA3-T | 2026-09-03 02:08:34 | 51.57665 | 7.29919 | 124° | 111km/h | 8988m | -4m/s | -36°C | 60.8% | 0hPa | 2.5V | 18:12:15 | 02:52:11 | 00:00:00 | |
| BIOWL1-15 | 2026-09-03 02:08:30 | 51.57729 | 7.29769 | 125° | 113km/h | 9004m | -4.1m/s | -36.1°C | 61.1% | 322.4hPa | 2.5V | 07:49:44 | 02:52:07 | 00:00:00 | |
| DO2JMG | 2026-09-03 02:08:27 | 51.57779 | 7.29656 | 126° | 113km/h | 9015m | -3.8m/s | -36.3°C | 61.3% | 321.9hPa | 2.4V | 07:50:35 | 02:52:04 | 00:00:00 | |
| DL1XH-15 | 2026-09-03 02:08:26 | 51.57878 | 7.29431 | 125° | 113km/h | 9038m | -4m/s | -36.5°C | 61.7% | 320.8hPa | 2.4V | 07:49:28 | 02:51:58 | 00:00:00 | |
| DM0DOS-11 | 2026-09-03 02:08:25 | 51.57895 | 7.29393 | 124° | 113km/h | 9041m | -3.2m/s | -36.5°C | 61.9% | 320.6hPa | 2.5V | 07:49:29 | 02:51:57 | 00:00:00 | |
| DL1XH-west | 2026-09-03 02:08:25 | 51.57812 | 7.29581 | 125° | 115km/h | 9023m | -3.6m/s | -36.3°C | 61.5% | 321.5hPa | 2.5V | 07:49:44 | 02:52:02 | 00:00:00 | |
| BIOWL1-15 | 2026-09-03 02:08:20 | 51.57895 | 7.29393 | 125° | 113km/h | 9041m | -3.2m/s | -36.5°C | 62% | 320.6hPa | 2.5V | 07:49:44 | 02:51:57 | 00:00:00 | |
| GOEST3-10 | 2026-09-03 02:08:19 | 51.57911 | 7.29355 | 126° | 113km/h | 9045m | -3.7m/s | -36.5°C | 61.9% | 320.4hPa | 2.4V | 00:00:00 | 02:51:56 | 00:00:00 | |
| DL8DAS-15 | 2026-09-03 02:08:18 | 51.57911 | 7.29355 | 126° | 113km/h | 9045m | -3.7m/s | -36.5°C | 57.3% | 320.4hPa | 2.4V | 00:00:00 | 00:00:00 | 00:00:00 | |
| DL3AQ-11 | 2026-09-03 02:08:17 | 51.57944 | 7.29280 | 125° | 113km/h | 9053m | -3.7m/s | -36.6°C | 57.5% | 320.1hPa | 2.4V | 00:00:00 | 00:00:00 | 00:00:00 | |
| DL1XH-15 | 2026-09-03 02:08:16 | 51.58046 | 7.29050 | 125° | 117km/h | 9076m | -4.5m/s | -36.8°C | 62.5% | 319.1hPa | 2.4V | 07:49:38 | 02:51:48 | 00:00:00 | |
| DJ2KF-10 | 2026-09-03 02:08:16 | 51.57961 | 7.29242 | 125° | 120km/h | 9056m | -3.4m/s | -36.6°C | 62.1% | 319.9hPa | 2.5V | 00:00:00 | 02:51:53 | 00:00:00 | |
| DM0DOS-11 | 2026-09-03 02:08:15 | 51.58063 | 7.29011 | 126° | 119km/h | 9080m | -4m/s | -36.8°C | 62.6% | 318.9hPa | 2.5V | 07:49:39 | 02:51:47 | 00:00:00 | |
| DO2JMG | 2026-09-03 02:08:15 | 51.57977 | 7.29204 | 125° | 115km/h | 9060m | -3.8m/s | -36.7°C | 62.1% | 319.8hPa | 2.5V | 07:50:35 | 02:51:52 | 00:00:00 | |
| DL1XH-west | 2026-09-03 02:08:14 | 51.57994 | 7.29166 | 125° | 115km/h | 9064m | -4.2m/s | -36.7°C | 62.1% | 319.6hPa | 2.5V | 07:49:44 | 02:51:51 | 00:00:00 | |
| BIOWL1-15 | 2026-09-03 02:08:09 | 51.58081 | 7.28971 | 126° | 119km/h | 9084m | -3.4m/s | -36.9°C | 62.4% | 318.7hPa | 2.5V | 07:49:44 | 02:51:46 | 00:00:00 | |
| DO2KSM | 2026-09-03 02:08:06 | 51.58116 | 7.28893 | 127° | 119km/h | 9092m | -3.9m/s | -36.9°C | 58.3% | 318.3hPa | 2.5V | 07:49:00 | 00:00:00 | 00:00:00 | |
| DM0DOS-11 | 2026-09-03 02:08:05 | 51.58240 | 7.28618 | 125° | 120km/h | 9120m | -4.3m/s | -37.2°C | 62.4% | 317.1hPa | 2.5V | 07:49:49 | 02:51:37 | 00:00:00 | |
| DL1XH-west | 2026-09-03 02:08:03 | 51.58187 | 7.28736 | 126° | 120km/h | 9108m | -4.1m/s | -37.1°C | 63.1% | 317.6hPa | 2.4V | 07:50:35 | 02:51:40 | 00:00:00 | |
| BIOWL1-15 | 2026-09-03 02:07:59 | 51.58258 | 7.28578 | 125° | 120km/h | 9124m | -4m/s | -37.2°C | 62.4% | 316.9hPa | 2.5V | 07:50:35 | 02:51:36 | 00:00:00 | |
| DO3DL | 2026-09-03 02:07:57 | 51.58276 | 7.28538 | 127° | 122km/h | 9128m | -3.9m/s | -37.2°C | 56.7% | 316.8hPa | 2.5V | 07:50:00 | 00:00:00 | 00:00:00 | |
| GOEST3-10 | 2026-09-03 02:07:56 | 51.58312 | 7.28457 | 126° | 122km/h | 9136m | -4.2m/s | -37.2°C | 61.2% | 316.3hPa | 2.5V | 00:00:00 | 00:00:00 | 00:00:00 | |
| DM0DOS-11 | 2026-09-03 02:07:55 | 51.58421 | 7.28216 | 126° | 122km/h | 9160m | -4.1m/s | -37.4°C | 59.9% | 315.2hPa | 2.5V | 07:49:59 | 02:51:27 | 00:00:00 | |
| DL1XH-west | 2026-09-03 02:07:53 | 51.58366 | 7.28337 | 126° | 122km/h | 9148m | -4.1m/s | -37.3°C | 60.9% | 315.9hPa | 2.4V | 07:50:35 | 02:51:30 | 00:00:00 | |
| DL1XH-15 | 2026-09-03 02:07:52 | 51.58475 | 7.28095 | 126° | 122km/h | 9172m | -4.1m/s | -37.5°C | 59% | 314.7hPa | 2.4V | 07:50:02 | 02:51:24 | 00:00:00 | |
| HSKMA3-T | 2026-09-03 02:07:52 | 51.58384 | 7.28296 | 126° | 122km/h | 9152m | -4.2m/s | -37.3°C | 60.8% | 0hPa | 2.4V | 18:12:15 | 02:51:29 | 00:00:00 | |
| BIOWL1-15 | 2026-09-03 02:07:50 | 51.58457 | 7.28135 | 126° | 122km/h | 9168m | -4m/s | -37.5°C | 59.7% | 314.9hPa | 2.4V | 07:50:35 | 02:51:25 | 00:00:00 | |
| DL3AQ-11 | 2026-09-03 02:07:49 | 51.58457 | 7.28135 | 125° | 120km/h | 9168m | -4.0m/s | -37.5°C | 54.9% | 314.9hPa | 2.4V | 00:00:00 | 00:00:00 | 00:00:00 | |
| DD1CC3-15 | 2026-09-03 02:07:47 | 51.58457 | 7.28135 | 127° | 122km/h | 9168m | -4.0m/s | -37.5°C | 54.9% | 314.9hPa | 2.4V | 07:50:00 | 00:00:00 | 00:00:00 | |
| DJ2KF-10 | 2026-09-03 02:07:46 | 51.58493 | 7.28055 | 126° | 124km/h | 9176m | -3.8m/s | -37.4°C | 58.3% | 314.5hPa | 2.4V | 00:00:00 | 02:51:23 | 00:00:00 | |
| DM0DOS-11 | 2026-09-03 02:07:45 | 51.58602 | 7.27812 | 125° | 124km/h | 9200m | -4m/s | -37.6°C | 57% | 313.4hPa | 2.4V | 07:50:09 | 02:51:17 | 00:00:00 | |
| DO2JMG | 2026-09-03 02:07:43 | 51.58548 | 7.27934 | 126° | 122km/h | 9188m | -4m/s | -37.5°C | 57.9% | 314hPa | 2.4V | 07:50:35 | 02:51:20 | 00:00:00 | |
| DL1XH-west | 2026-09-03 02:07:42 | 51.58566 | 7.27894 | 126° | 122km/h | 9192m | -4.1m/s | -37.5°C | 57.8% | 313.8hPa | 2.4V | 07:50:35 | 02:51:19 | 00:00:00 | |
| BIOWL1-15 | 2026-09-03 02:07:40 | 51.58639 | 7.27731 | 126° | 124km/h | 9208m | -4.1m/s | -37.6°C | 57.8% | 313.1hPa | 2.5V | 07:50:35 | 02:51:15 | 00:00:00 | |
| DB0NH | 2026-09-03 02:07:39 | 51.58620 | 7.27771 | 126° | 124km/h | 9204m | -4.1m/s | -37.5°C | 57.0% | 313.2hPa | 2.4V | 00:00:00 | 02:51:16 | 00:00:00 | |
| DO3DL | 2026-09-03 02:07:37 | 51.58639 | 7.27730 | 127° | 124km/h | 9208m | -4.1m/s | -37.6°C | 52.6% | 313.1hPa | 2.4V | 07:50:00 | 00:00:00 | 00:00:00 | |
| GOEST3-10 | 2026-09-03 02:07:36 | 51.58675 | 7.27649 | 126° | 124km/h | 9216m | -4.0m/s | -37.6°C | 57.1% | 312.7hPa | 2.4V | 00:00:00 | 00:00:00 | 00:00:00 | |
| DM0DOS-11 | 2026-09-03 02:07:35 | 51.58785 | 7.27402 | 125° | 124km/h | 9241m | -4.2m/s | -37.9°C | 57.5% | 311.6hPa | 2.4V | 07:50:19 | 02:51:07 | 00:00:00 | |
| DO2JMG | 2026-09-03 02:07:33 | 51.58730 | 7.27525 | 125° | 124km/h | 9228m | -4.3m/s | -37.8°C | 58% | 312.2hPa | 2.4V | 07:50:35 | 02:51:10 | 00:00:00 | |
| DL1XH-west | 2026-09-03 02:07:31 | 51.58767 | 7.27443 | 126° | 124km/h | 9236m | -3.9m/s | -37.9°C | 58.1% | 311.8hPa | 2.5V | 07:50:35 | 02:51:08 | 00:00:00 | |
| BIOWL1-15 | 2026-09-03 02:07:28 | 51.58822 | 7.27320 | 126° | 124km/h | 9249m | -4.1m/s | -38°C | 58.4% | 311.2hPa | 2.4V | 07:50:35 | 02:51:05 | 00:00:00 | |
| SONCRA | 2026-09-03 02:07:27 | 51.58840 | 7.27278 | 125° | 124km/h | 9253m | -4.0m/s | -38.0°C | 53.4% | 311.0hPa | 2.4V | 00:00:00 | 00:00:00 | 00:00:00 | |
| GOEST3-10 | 2026-09-03 02:07:26 | 51.58858 | 7.27237 | 126° | 124km/h | 9257m | -4.0m/s | -38.0°C | 58.1% | 310.8hPa | 2.4V | 00:00:00 | 00:00:00 | 00:00:00 | |
| DM0DOS-11 | 2026-09-03 02:07:25 | 51.58969 | 7.26991 | 125° | 124km/h | 9281m | -4.2m/s | -38.3°C | 59% | 309.8hPa | 2.4V | 07:50:29 | 02:50:57 | 00:00:00 | |
| DB0UT-7 | 2026-09-03 02:07:25 | 51.58877 | 7.27196 | 126° | 124km/h | 9261m | -4.0m/s | -38.0°C | 58.3% | 310.7hPa | 2.5V | 00:00:00 | 02:51:02 | 00:00:00 | |
| DL4BBY-15 | 2026-09-03 02:07:24 | 51.58895 | 7.27155 | 126° | 124km/h | 9264m | -4.2m/s | -37.8°C | 0% | 0hPa | 2.5V | 00:00:00 | 00:00:00 | 00:00:00 | |
| BIOWL7-15 | 2026-09-03 02:07:23 | 51.58895 | 7.27155 | 127° | 124km/h | 9265m | -4.3m/s | -38.1°C | 53.8% | 310.5hPa | 2.5V | 07:50:00 | 00:00:00 | 00:00:00 | |
| DL1XH-15 | 2026-09-03 02:07:22 | 51.59023 | 7.26867 | 125° | 124km/h | 9293m | -4m/s | -38.4°C | 59.2% | 309.2hPa | 2.5V | 07:50:32 | 02:50:54 | 00:00:00 | |
| DO2JMG | 2026-09-03 02:07:22 | 51.58932 | 7.27073 | 126° | 124km/h | 9273m | -4.1m/s | -38.2°C | 59.2% | 310.1hPa | 2.5V | 07:50:35 | 02:50:59 | 00:00:00 | |
| DL1XH-west | 2026-09-03 02:07:20 | 51.58969 | 7.26991 | 125° | 124km/h | 9281m | -4.2m/s | -38.3°C | 59.4% | 309.8hPa | 2.4V | 07:50:35 | 02:50:57 | 00:00:00 | |
| BIOWL1-15 | 2026-09-03 02:07:17 | 51.59023 | 7.26867 | 125° | 124km/h | 9293m | -4m/s | -38.4°C | 59.7% | 309.2hPa | 2.5V | 07:50:35 | 02:50:54 | 00:00:00 | |
| DJ2KF-10 | 2026-09-03 02:07:16 | 51.59042 | 7.26826 | 126° | 124km/h | 9298m | -4.1m/s | -38.4°C | 59.2% | 309.0hPa | 2.5V | 00:00:00 | 02:50:53 | 00:00:00 | |
| DM0DOS-11 | 2026-09-03 02:07:15 | 51.59150 | 7.26578 | 125° | 124km/h | 9322m | -4m/s | -38.6°C | 60.2% | 307.9hPa | 2.5V | 07:50:39 | 02:50:47 | 00:00:00 | |
| DH3RM | 2026-09-03 02:07:13 | 51.59078 | 7.26743 | 126° | 124km/h | 9306m | -4.1m/s | -38.5°C | 54.9% | 308.7hPa | 2.4V | 07:50:00 | 00:00:00 | 00:00:00 | |
| DL1XH-15 | 2026-09-03 02:07:12 | 51.59205 | 7.26455 | 125° | 124km/h | 9334m | -4.1m/s | -38.8°C | 60.6% | 307.4hPa | 2.4V | 07:50:42 | 02:50:44 | 00:00:00 | |
| DO2JMG | 2026-09-03 02:07:12 | 51.59114 | 7.26660 | 125° | 124km/h | 9314m | -3.9m/s | -38.6°C | 60.1% | 308.3hPa | 2.4V | 07:51:26 | 02:50:49 | 00:00:00 | |
| DL1XH-west | 2026-09-03 02:07:09 | 51.59168 | 7.26537 | 125° | 124km/h | 9326m | -4m/s | -38.7°C | 60.5% | 307.8hPa | 2.5V | 07:51:26 | 02:50:46 | 00:00:00 | |
| BIOWL1-15 | 2026-09-03 02:07:07 | 51.59205 | 7.26455 | 125° | 124km/h | 9334m | -4.1m/s | -38.8°C | 60.7% | 307.4hPa | 2.4V | 07:51:26 | 02:50:44 | 00:00:00 | |
| GOEST3-10 | 2026-09-03 02:07:06 | 51.59223 | 7.26413 | 126° | 124km/h | 9338m | -4.2m/s | -38.8°C | 60.7% | 307.1hPa | 2.4V | 07:50:00 | 00:00:00 | 00:00:00 | |
| DM0DOS-11 | 2026-09-03 02:07:05 | 51.59333 | 7.26167 | 125° | 124km/h | 9362m | -4.1m/s | -39°C | 61.4% | 306.1hPa | 2.4V | 07:50:49 | 02:50:37 | 00:00:00 | |
| BIOWL9-15 | 2026-09-03 02:07:04 | 51.59260 | 7.26331 | 125° | 124km/h | 9346m | -3.9m/s | -38.9°C | 56.0% | 306.9hPa | 2.4V | 00:00:00 | 00:00:00 | 00:00:00 | |
| HARRO8 | 2026-09-03 02:07:03 | 51.59351 | 7.26126 | 125° | 122km/h | 9367m | -4.2m/s | -39.1°C | 56.5% | 306.0hPa | 2.4V | 00:00:00 | 00:00:00 | 00:00:00 | |
| DL1XH-15 | 2026-09-03 02:07:02 | 51.59388 | 7.26044 | 125° | 122km/h | 9374m | -4.1m/s | -39.1°C | 61.9% | 305.6hPa | 2.4V | 07:50:52 | 02:50:34 | 00:00:00 | |
| DO2JMG | 2026-09-03 02:07:01 | 51.59315 | 7.26208 | 126° | 124km/h | 9358m | -4.2m/s | -39°C | 61.2% | 306.3hPa | 2.4V | 07:51:26 | 02:50:38 | 00:00:00 | |
| BIOWL1-15 | 2026-09-03 02:07:01 | 51.59388 | 7.26044 | 126° | 124km/h | 9374m | -4.1m/s | -39.2°C | 61.6% | 305.6hPa | 2.4V | 07:51:26 | 02:50:34 | 00:00:00 | |
| DL1XH-west | 2026-09-03 02:06:58 | 51.59370 | 7.26085 | 125° | 124km/h | 9370m | -4m/s | -39.1°C | 61.5% | 305.8hPa | 2.5V | 07:51:26 | 02:50:35 | 00:00:00 | |
| DL3AQ-11 | 2026-09-03 02:06:58 | 51.59388 | 7.26044 | 125° | 122km/h | 9374m | -4.1m/s | -39.2°C | 56.9% | 305.6hPa | 2.4V | 00:00:00 | 00:00:00 | 00:00:00 | |
| SONCRA | 2026-09-03 02:06:56 | 51.59406 | 7.26004 | 125° | 122km/h | 9378m | -4.0m/s | -39.2°C | 56.9% | 305.4hPa | 2.4V | 00:00:00 | 00:00:00 | 00:00:00 | |
| WPPR-10 | 2026-09-03 02:06:53 | 51.59459 | 7.25881 | 124° | 122km/h | 9391m | -4.2m/s | -39.3°C | 57.3% | 304.9hPa | 2.4V | 00:00:00 | 00:00:00 | 00:00:00 | |
| DL1XH-15 | 2026-09-03 02:06:52 | 51.59564 | 7.25635 | 124° | 122km/h | 9415m | -4.3m/s | -39.5°C | 63% | 303.7hPa | 2.4V | 07:51:02 | 02:50:24 | 00:00:00 | |
| DO2JMG | 2026-09-03 02:06:50 | 51.59512 | 7.25758 | 125° | 122km/h | 9403m | -4m/s | -39.4°C | 62.1% | 304.3hPa | 2.4V | 07:51:26 | 02:50:27 | 00:00:00 | |
| DL1XH-west | 2026-09-03 02:06:47 | 51.59564 | 7.25635 | 124° | 122km/h | 9415m | -4.3m/s | -39.6°C | 62.5% | 303.8hPa | 2.4V | 07:51:26 | 02:50:24 | 00:00:00 | |
| BIOWL1-15 | 2026-09-03 02:06:46 | 51.59581 | 7.25594 | 124° | 122km/h | 9420m | -4m/s | -39.6°C | 62.6% | 303.6hPa | 2.5V | 07:51:26 | 02:50:23 | 00:00:00 | |
| DJ2DS-15 | 2026-09-03 02:06:45 | 51.59599 | 7.25553 | 124° | 122km/h | 9424m | -4.1m/s | -39.6°C | 58.1% | 303.4hPa | 2.4V | 00:00:00 | 00:00:00 | 00:00:00 | |
| DO2JMG | 2026-09-03 02:06:39 | 51.59703 | 7.25305 | 123° | 122km/h | 9448m | -4m/s | -39.9°C | 63.2% | 302.3hPa | 2.4V | 07:51:26 | 02:50:16 | 00:00:00 | |
| DB0NH | 2026-09-03 02:06:38 | 51.59719 | 7.25263 | 124° | 122km/h | 9453m | -4.0m/s | -39.9°C | 64.2% | 302.1hPa | 2.4V | 00:00:00 | 02:50:15 | 00:00:00 | |
| DL1XH-15 | 2026-09-03 02:06:37 | 51.59821 | 7.25011 | 122° | 122km/h | 9477m | -4.2m/s | -40.1°C | 65.7% | 301hPa | 2.4V | 07:51:17 | 02:50:09 | 00:00:00 | |
| BIOWL1-15 | 2026-09-03 02:06:37 | 51.59770 | 7.25137 | 123° | 122km/h | 9465m | -4.1m/s | -40°C | 63.9% | 301.5hPa | 2.5V | 07:51:26 | 02:50:12 | 00:00:00 | |
| DL1XH-west | 2026-09-03 02:06:36 | 51.59754 | 7.25179 | 123° | 122km/h | 9461m | -4.3m/s | -40°C | 63.6% | 301.7hPa | 2.4V | 07:51:26 | 02:50:13 | 00:00:00 | |
| DO2JMG | 2026-09-03 02:06:29 | 51.59871 | 7.24884 | 122° | 122km/h | 9490m | -4.4m/s | -40.2°C | 65.1% | 300.5hPa | 2.4V | 07:51:26 | 02:50:06 | 00:00:00 | |
| DL1LOL-11 | 2026-09-03 02:06:28 | 51.59871 | 7.24884 | 123° | 122km/h | 9490m | -4.4m/s | -40.2°C | 60.7% | 300.5hPa | 2.5V | 00:00:00 | 00:00:00 | 00:00:00 | |
| DL1XH-15 | 2026-09-03 02:06:27 | 51.59986 | 7.24590 | 122° | 122km/h | 9520m | -4.3m/s | -40.4°C | 65.9% | 299.1hPa | 2.5V | 07:51:27 | 02:49:59 | 00:00:00 | |
| HSKMA3-T | 2026-09-03 02:06:27 | 51.59904 | 7.24800 | 122° | 122km/h | 9499m | -4.1m/s | 0°C | 0% | 0hPa | 2.5V | 18:12:15 | 02:50:04 | 00:00:00 | |
| GOEST3-10 | 2026-09-03 02:06:26 | 51.59920 | 7.24758 | 123° | 122km/h | 9503m | -4.0m/s | -40.2°C | 66.0% | 299.9hPa | 2.5V | 07:51:00 | 00:00:00 | 00:00:00 | |
| DM0DOS-11 | 2026-09-03 02:06:25 | 51.60019 | 7.24506 | 122° | 122km/h | 9529m | -4.6m/s | -40.5°C | 65.9% | 298.8hPa | 2.5V | 07:51:29 | 02:49:57 | 00:00:00 | |
| BIOWL1-15 | 2026-09-03 02:06:25 | 51.59937 | 7.24716 | 122° | 122km/h | 9507m | -4.3m/s | -40.3°C | 65.3% | 299.7hPa | 2.4V | 07:51:26 | 02:50:02 | 00:00:00 | |
| DO2JMG | 2026-09-03 02:06:18 | 51.60052 | 7.24421 | 122° | 122km/h | 9538m | -4.5m/s | -40.5°C | 65.1% | 298.4hPa | 2.4V | 07:52:17 | 02:49:55 | 00:00:00 | |
| DL3AQ-11 | 2026-09-03 02:06:17 | 51.60068 | 7.24379 | 122° | 122km/h | 9542m | -4.5m/s | -40.6°C | 60.1% | 298.2hPa | 2.4V | 00:00:00 | 00:00:00 | 00:00:00 | |
| DJ2KF-10 | 2026-09-03 02:06:16 | 51.60085 | 7.24337 | 122° | 122km/h | 9547m | -4.5m/s | -40.6°C | 65.3% | 297.9hPa | 2.4V | 00:00:00 | 02:49:53 | 00:00:00 | |
| DM0DOS-11 | 2026-09-03 02:06:15 | 51.60183 | 7.24083 | 121° | 122km/h | 9574m | -4.8m/s | -40.8°C | 65.5% | 296.8hPa | 2.4V | 07:51:39 | 02:49:47 | 00:00:00 | |
| BIOWL1-15 | 2026-09-03 02:06:15 | 51.60101 | 7.24295 | 122° | 122km/h | 9551m | -4.5m/s | -40.6°C | 64.7% | 297.8hPa | 2.4V | 07:52:17 | 02:49:52 | 00:00:00 | |
| DO2JMG | 2026-09-03 02:06:08 | 51.60215 | 7.23999 | 122° | 120km/h | 9584m | -4.5m/s | -40.9°C | 64.8% | 296.4hPa | 2.4V | 07:52:17 | 02:49:45 | 00:00:00 | |
| DF5WG-10 | 2026-09-03 02:06:08 | 51.60214 | 7.23999 | 122° | 120km/h | 9584m | -4.5m/s | -40.9°C | 65.6% | 296.4hPa | 2.5V | 00:00:00 | 02:49:45 | 00:00:00 | |
| DB0NH | 2026-09-03 02:06:07 | 51.60230 | 7.23957 | 122° | 122km/h | 9588m | -4.5m/s | -40.9°C | 65.6% | 296.1hPa | 2.5V | 00:00:00 | 02:49:44 | 00:00:00 | |
| GOEST3-10 | 2026-09-03 02:06:06 | 51.60247 | 7.23916 | 123° | 120km/h | 9593m | -4.3m/s | -41.0°C | 65.7% | 295.9hPa | 2.5V | 00:00:00 | 00:00:00 | 00:00:00 | |
| DM0DOS-11 | 2026-09-03 02:06:05 | 51.60347 | 7.23670 | 123° | 122km/h | 9619m | -4.5m/s | -41.3°C | 64.7% | 294.8hPa | 2.5V | 07:51:49 | 02:49:37 | 00:00:00 | |
| BIOWL1-15 | 2026-09-03 02:06:04 | 51.60279 | 7.23834 | 123° | 120km/h | 9602m | -4.6m/s | -41.1°C | 64.5% | 295.6hPa | 2.4V | 07:52:17 | 02:49:41 | 00:00:00 | |
| DO2JMG | 2026-09-03 02:05:57 | 51.60398 | 7.23546 | 123° | 122km/h | 9632m | -4.7m/s | -41.4°C | 62.3% | 294.2hPa | 2.4V | 07:52:17 | 02:49:34 | 00:00:00 | |
| BIOWL1-15 | 2026-09-03 02:05:56 | 51.60448 | 7.23422 | 123° | 120km/h | 9646m | -4.8m/s | -41.5°C | 59.7% | 293.6hPa | 2.4V | 07:52:17 | 02:49:31 | 00:00:00 | |
| DM0DOS-11 | 2026-09-03 02:05:55 | 51.60514 | 7.23255 | 122° | 122km/h | 9665m | -4.7m/s | -41.6°C | 53.8% | 292.9hPa | 2.4V | 07:51:59 | 02:49:27 | 00:00:00 | |
| DL1XH-west | 2026-09-03 02:05:53 | 51.60465 | 7.23380 | 123° | 122km/h | 9651m | -4.5m/s | -41.5°C | 58.4% | 293.4hPa | 2.5V | 07:52:17 | 02:49:30 | 00:00:00 | |
| HSKMA3-T | 2026-09-03 02:05:52 | 51.60481 | 7.23339 | 123° | 122km/h | 9655m | -4.6m/s | 0°C | 0% | 0hPa | 2.5V | 18:12:15 | 02:49:29 | 00:00:00 | |
| DO2JMG | 2026-09-03 02:05:47 | 51.60564 | 7.23130 | 123° | 122km/h | 9678m | -4.6m/s | -41.6°C | 48% | 292.3hPa | 2.4V | 07:52:17 | 02:49:24 | 00:00:00 | |
| DF5WG-10 | 2026-09-03 02:05:47 | 51.60564 | 7.23130 | 123° | 122km/h | 9678m | -4.5m/s | -41.5°C | 47.2% | 292.2hPa | 2.5V | 00:00:00 | 02:49:24 | 00:00:00 | |
| DJ2KF-10 | 2026-09-03 02:05:46 | 51.60581 | 7.23089 | 123° | 122km/h | 9683m | -4.5m/s | -41.5°C | 45.3% | 292.0hPa | 2.5V | 00:00:00 | 02:49:23 | 00:00:00 | |
| DM0DOS-11 | 2026-09-03 02:05:45 | 51.60681 | 7.22837 | 122° | 122km/h | 9710m | -4.6m/s | -41.5°C | 42.6% | 290.9hPa | 2.5V | 07:52:09 | 02:49:17 | 00:00:00 | |
| BIOWL1-15 | 2026-09-03 02:05:45 | 51.60631 | 7.22963 | 123° | 122km/h | 9697m | -4.7m/s | -41.5°C | 44.8% | 291.5hPa | 2.4V | 07:52:17 | 02:49:20 | 00:00:00 | |
| DL1XH-west | 2026-09-03 02:05:42 | 51.60648 | 7.22921 | 122° | 122km/h | 9701m | -4.4m/s | -41.5°C | 44.8% | 291.3hPa | 2.4V | 07:52:17 | 02:49:19 | 00:00:00 | |
| DO2JMG | 2026-09-03 02:05:37 | 51.60730 | 7.22710 | 122° | 122km/h | 9724m | -4.7m/s | -41.6°C | 44.8% | 290.3hPa | 2.4V | 07:52:17 | 02:49:14 | 00:00:00 | |
| DF5WG-10 | 2026-09-03 02:05:37 | 51.60730 | 7.22710 | 122° | 122km/h | 9724m | -4.7m/s | -41.6°C | 43.0% | 290.2hPa | 2.4V | 00:00:00 | 02:49:14 | 00:00:00 | |
| DL1XH-15 | 2026-09-03 02:05:36 | 51.60827 | 7.22456 | 120° | 122km/h | 9752m | -4.6m/s | -41.8°C | 44% | 289.1hPa | 2.4V | 07:52:18 | 02:49:08 | 00:00:00 | |
| BIOWL1-15 | 2026-09-03 02:05:32 | 51.60811 | 7.22498 | 122° | 122km/h | 9747m | -4.4m/s | -41.8°C | 45.5% | 289.3hPa | 2.4V | 07:52:17 | 02:49:09 | 00:00:00 | |
| GOEST3-10 | 2026-09-03 02:05:31 | 51.60827 | 7.22456 | 121° | 122km/h | 9752m | -4.6m/s | -41.8°C | 44.0% | 289.1hPa | 2.4V | 00:00:00 | 02:49:08 | 00:00:00 | |
| DL1XH-west | 2026-09-03 02:05:31 | 51.60827 | 7.22456 | 121° | 122km/h | 9752m | -4.6m/s | -41.8°C | 45.7% | 289.1hPa | 2.4V | 07:53:08 | 02:49:08 | 00:00:00 | |
| HARRO8 | 2026-09-03 02:05:30 | 51.60843 | 7.22413 | 121° | 122km/h | 9756m | -4.7m/s | -41.9°C | 39.5% | 288.9hPa | 2.4V | 00:00:00 | 00:00:00 | 00:00:00 | |
| AU51GT2 | 2026-09-03 02:05:29 | 51.60859 | 7.22371 | 120° | 122km/h | 9761m | -4.4m/s | -41.9°C | 39.7% | 288.8hPa | 2.4V | 00:00:00 | 00:00:00 | 00:00:00 | |
| DD1CC1-15 | 2026-09-03 02:05:28 | 51.60858 | 7.22371 | 122° | 122km/h | 9761m | -4.4m/s | -41.9°C | 39.7% | 288.8hPa | 2.4V | 07:53:00 | 00:00:00 | 00:00:00 | |
| DF5WG-10 | 2026-09-03 02:05:27 | 51.60890 | 7.22285 | 121° | 126km/h | 9770m | -4.5m/s | -41.9°C | 44.5% | 288.3hPa | 2.4V | 07:52:00 | 02:49:04 | 00:00:00 | |
| DL1XH-15 | 2026-09-03 02:05:26 | 51.60984 | 7.22029 | 120° | 122km/h | 9798m | -5m/s | -42.2°C | 44.2% | 287.2hPa | 2.4V | 07:52:28 | 02:48:58 | 00:00:00 | |
| DO2JMG | 2026-09-03 02:05:26 | 51.60906 | 7.22243 | 121° | 122km/h | 9775m | -4.6m/s | -42°C | 46.2% | 288.1hPa | 2.4V | 07:53:08 | 02:49:03 | 00:00:00 | |
| DL1XH-west | 2026-09-03 02:05:21 | 51.60984 | 7.22029 | 120° | 122km/h | 9798m | -5m/s | -42.2°C | 46% | 287.2hPa | 2.4V | 07:53:08 | 02:48:58 | 00:00:00 | |
| DO9LL-15 | 2026-09-03 02:05:21 | 51.60984 | 7.22029 | 121° | 124km/h | 9798m | -4.9m/s | -42.1°C | 44.2% | 287.1hPa | 2.4V | 00:00:00 | 02:48:58 | 00:00:00 | |
| WPPR-10 | 2026-09-03 02:05:20 | 51.61000 | 7.21985 | 120° | 122km/h | 9803m | -4.8m/s | -42.2°C | 39.5% | 286.9hPa | 2.4V | 00:00:00 | 00:00:00 | 00:00:00 | |
| MET0W-2 | 2026-09-03 02:05:19 | 51.61031 | 7.21899 | 120° | 122km/h | 9812m | -4.5m/s | -42.3°C | 39.2% | 286.6hPa | 2.4V | 00:00:00 | 00:00:00 | 00:00:00 | |
| DL1XH-15 | 2026-09-03 02:05:16 | 51.61140 | 7.21592 | 119° | 124km/h | 9844m | -4.6m/s | -42.5°C | 46.2% | 285.2hPa | 2.4V | 07:52:38 | 02:48:48 | 00:00:00 | |
| DO2JMG | 2026-09-03 02:05:15 | 51.61078 | 7.21768 | 120° | 124km/h | 9826m | -4.7m/s | -42.4°C | 45.9% | 286hPa | 2.4V | 07:53:08 | 02:48:52 | 00:00:00 | |
| BIOWL1-15 | 2026-09-03 02:05:13 | 51.61140 | 7.21592 | 119° | 124km/h | 9844m | -4.6m/s | -42.5°C | 48.1% | 285.2hPa | 2.4V | 07:53:08 | 02:48:48 | 00:00:00 | |
| DL1XH-west | 2026-09-03 02:05:10 | 51.61156 | 7.21548 | 119° | 124km/h | 9849m | -4.4m/s | -42.6°C | 48.5% | 285.1hPa | 2.4V | 07:53:08 | 02:48:47 | 00:00:00 | |
| DL3AQ-11 | 2026-09-03 02:05:09 | 51.61186 | 7.21459 | 118° | 124km/h | 9858m | -4.6m/s | -42.7°C | 42.8% | 284.6hPa | 2.5V | 00:00:00 | 00:00:00 | 00:00:00 | |
| DO1YAY-16 | 2026-09-03 02:05:08 | 51.61186 | 7.21459 | 118° | 124km/h | 9858m | -4.6m/s | -42.7°C | 42.8% | 284.6hPa | 2.5V | 00:00:00 | 00:00:00 | 00:00:00 | |
| DB0NH | 2026-09-03 02:05:07 | 51.61201 | 7.21414 | 119° | 126km/h | 9863m | -5.0m/s | -42.7°C | 48.1% | 284.4hPa | 2.5V | 00:00:00 | 02:48:44 | 00:00:00 | |
| DL1XH-15 | 2026-09-03 02:05:06 | 51.61292 | 7.21146 | 118° | 126km/h | 9892m | -4.8m/s | -42.9°C | 50.3% | 283.2hPa | 2.4V | 07:52:48 | 02:48:38 | 00:00:00 | |
| GOEST3-10 | 2026-09-03 02:05:06 | 51.61216 | 7.21370 | 119° | 126km/h | 9868m | -4.9m/s | -42.7°C | 48.6% | 284.2hPa | 2.4V | 07:52:00 | 00:00:00 | 00:00:00 | |
| DM0DOS-11 | 2026-09-03 02:05:05 | 51.61307 | 7.21101 | 118° | 126km/h | 9897m | -4.4m/s | -43°C | 50.5% | 283hPa | 2.4V | 07:52:49 | 02:48:37 | 00:00:00 | |
| DO2JMG | 2026-09-03 02:05:05 | 51.61231 | 7.21325 | 118° | 124km/h | 9873m | -4.9m/s | -42.8°C | 50.6% | 284hPa | 2.4V | 07:53:08 | 02:48:42 | 00:00:00 | |
| BIOWL1-15 | 2026-09-03 02:05:03 | 51.61292 | 7.21146 | 118° | 126km/h | 9892m | -4.8m/s | -42.9°C | 51.7% | 283.2hPa | 2.4V | 07:53:08 | 02:48:38 | 00:00:00 | |
| DL1XH-west | 2026-09-03 02:04:59 | 51.61322 | 7.21056 | 118° | 126km/h | 9901m | -4.5m/s | -43°C | 52.3% | 282.9hPa | 2.4V | 07:53:08 | 02:48:36 | 00:00:00 | |
| DL3AQ-11 | 2026-09-03 02:04:58 | 51.61352 | 7.20965 | 117° | 126km/h | 9910m | -4.6m/s | -43.1°C | 46.2% | 282.4hPa | 2.5V | 00:00:00 | 00:00:00 | 00:00:00 | |
| DJ2DS-15 | 2026-09-03 02:04:57 | 51.61352 | 7.20965 | 117° | 126km/h | 9910m | -4.6m/s | -43.1°C | 46.2% | 282.4hPa | 2.5V | 00:00:00 | 00:00:00 | 00:00:00 | |
| DL1XH-15 | 2026-09-03 02:04:56 | 51.61441 | 7.20693 | 117° | 126km/h | 9938m | -4.8m/s | -43.3°C | 53.3% | 281.2hPa | 2.5V | 07:52:58 | 02:48:28 | 00:00:00 | |
| GOEST3-10 | 2026-09-03 02:04:56 | 51.61367 | 7.20920 | 118° | 126km/h | 9915m | -4.6m/s | -43.1°C | 51.6% | 282.2hPa | 2.4V | 00:00:00 | 00:00:00 | 00:00:00 | |
| DM0DOS-11 | 2026-09-03 02:04:55 | 51.61455 | 7.20648 | 117° | 126km/h | 9943m | -4.6m/s | -43.4°C | 53.7% | 281.1hPa | 2.4V | 07:52:59 | 02:48:27 | 00:00:00 | |
| DO2JMG | 2026-09-03 02:04:55 | 51.61382 | 7.20875 | 118° | 126km/h | 9920m | -4.6m/s | -43.2°C | 53.3% | 282.1hPa | 2.4V | 07:53:08 | 02:48:32 | 00:00:00 | |
| BIOWL1-15 | 2026-09-03 02:04:52 | 51.61455 | 7.20648 | 117° | 126km/h | 9943m | -4.6m/s | -43.4°C | 55% | 281.1hPa | 2.4V | 07:53:08 | 02:48:27 | 00:00:00 | |
| DL1XH-west | 2026-09-03 02:04:49 | 51.61470 | 7.20602 | 117° | 126km/h | 9948m | -4.6m/s | -43.4°C | 55.3% | 280.9hPa | 2.4V | 07:53:08 | 02:48:26 | 00:00:00 | |
| DD1CC1-15 | 2026-09-03 02:04:47 | 51.61484 | 7.20557 | 118° | 126km/h | 9953m | -4.8m/s | -43.4°C | 48.9% | 280.7hPa | 2.5V | 07:53:00 | 00:00:00 | 00:00:00 | |
| DL1XH-15 | 2026-09-03 02:04:46 | 51.61586 | 7.20235 | 116° | 126km/h | 9986m | -4.6m/s | -43.7°C | 56.4% | 279.3hPa | 2.5V | 07:53:08 | 02:48:18 | 00:00:00 | |
| DJ2KF-10 | 2026-09-03 02:04:46 | 51.61513 | 7.20465 | 117° | 128km/h | 9962m | -4.8m/s | -43.5°C | 55.0% | 280.3hPa | 2.5V | 07:53:00 | 02:48:23 | 00:00:00 | |
| DM0DOS-11 | 2026-09-03 02:04:45 | 51.61600 | 7.20189 | 116° | 126km/h | 9990m | -4.5m/s | -43.8°C | 56.9% | 279.2hPa | 2.5V | 07:53:09 | 02:48:17 | 00:00:00 | |
| DO2JMG | 2026-09-03 02:04:44 | 51.61543 | 7.20373 | 117° | 128km/h | 9972m | -4.6m/s | -43.6°C | 56.8% | 279.9hPa | 2.4V | 07:53:08 | 02:48:21 | 00:00:00 | |
| BIOWL1-15 | 2026-09-03 02:04:40 | 51.61600 | 7.20189 | 117° | 126km/h | 9990m | -4.5m/s | -43.8°C | 57.9% | 279.2hPa | 2.5V | 07:53:59 | 02:48:17 | 00:00:00 | |
| DL1XH-west | 2026-09-03 02:04:39 | 51.61615 | 7.20143 | 117° | 126km/h | 9995m | -4.6m/s | -43.8°C | 58.2% | 279hPa | 2.4V | 07:53:59 | 02:48:16 | 00:00:00 | |
| DL1CLM-18 | 2026-09-03 02:04:38 | 51.61614 | 7.20143 | 118° | 126km/h | 9995m | -4.6m/s | -43.8°C | 51.5% | 279.0hPa | 2.4V | 07:53:00 | 00:00:00 | 00:00:00 | |
| DB0NH | 2026-09-03 02:04:37 | 51.61643 | 7.20051 | 117° | 128km/h | 10004m | -4.7m/s | -43.9°C | 57.6% | 278.5hPa | 2.4V | 00:00:00 | 02:48:14 | 00:00:00 | |
| DL1XH-15 | 2026-09-03 02:04:36 | 51.61728 | 7.19776 | 115° | 126km/h | 10032m | -4.8m/s | -44.1°C | 58.4% | 277.4hPa | 2.4V | 07:53:18 | 02:48:08 | 00:00:00 | |
| DM0DOS-11 | 2026-09-03 02:04:35 | 51.61742 | 7.19729 | 115° | 126km/h | 10037m | -4.5m/s | -44.2°C | 58.4% | 277.2hPa | 2.5V | 07:53:19 | 02:48:07 | 00:00:00 | |
| DO2JMG | 2026-09-03 02:04:34 | 51.61686 | 7.19914 | 116° | 126km/h | 10018m | -4.8m/s | -44°C | 59.2% | 278hPa | 2.5V | 07:53:59 | 02:48:11 | 00:00:00 | |
| BIOWL1-15 | 2026-09-03 02:04:29 | 51.61756 | 7.19683 | 116° | 128km/h | 10041m | -4.6m/s | -44.2°C | 59.3% | 277hPa | 2.5V | 07:53:59 | 02:48:06 | 00:00:00 | |
| DL1XH-west | 2026-09-03 02:04:28 | 51.61770 | 7.19636 | 116° | 128km/h | 10046m | -4.8m/s | -44.3°C | 59.2% | 276.9hPa | 2.4V | 07:53:59 | 02:48:05 | 00:00:00 | |
| AU51GT2 | 2026-09-03 02:04:27 | 51.61784 | 7.19590 | 115° | 126km/h | 10051m | -4.8m/s | -44.3°C | 52.3% | 276.7hPa | 2.4V | 00:00:00 | 00:00:00 | 00:00:00 | |
| DL1XH-15 | 2026-09-03 02:04:26 | 51.61868 | 7.19308 | 115° | 128km/h | 10079m | -4.5m/s | -44.6°C | 55.8% | 275.5hPa | 2.4V | 07:53:28 | 02:47:58 | 00:00:00 | |
| DM0DOS-11 | 2026-09-03 02:04:25 | 51.61882 | 7.19261 | 115° | 128km/h | 10083m | -4.6m/s | -44.6°C | 55.3% | 275.3hPa | 2.4V | 07:53:29 | 02:47:57 | 00:00:00 | |
| DO2JMG | 2026-09-03 02:04:23 | 51.61840 | 7.19402 | 115° | 128km/h | 10069m | -4.6m/s | -44.5°C | 57.8% | 275.9hPa | 2.5V | 07:53:59 | 02:48:00 | 00:00:00 | |
| BIOWL1-15 | 2026-09-03 02:04:18 | 51.61909 | 7.19167 | 116° | 128km/h | 10093m | -4.8m/s | -44.7°C | 56.3% | 274.9hPa | 2.5V | 07:53:59 | 02:47:55 | 00:00:00 | |
| DL3AQ-11 | 2026-09-03 02:04:17 | 51.61923 | 7.19120 | 115° | 128km/h | 10097m | -4.6m/s | -44.7°C | 49.5% | 274.7hPa | 2.4V | 00:00:00 | 00:00:00 | 00:00:00 | |
| DJ2KF-10 | 2026-09-03 02:04:16 | 51.61937 | 7.19073 | 116° | 130km/h | 10102m | -4.6m/s | -44.7°C | 55.1% | 274.5hPa | 2.4V | 00:00:00 | 02:47:53 | 00:00:00 | |
| DM0DOS-11 | 2026-09-03 02:04:15 | 51.62021 | 7.18788 | 115° | 130km/h | 10130m | -4.9m/s | -45°C | 55.9% | 273.4hPa | 2.4V | 07:53:39 | 02:47:47 | 00:00:00 | |
| DO2JMG | 2026-09-03 02:04:12 | 51.61993 | 7.18883 | 115° | 130km/h | 10121m | -4.7m/s | -44.9°C | 56.4% | 273.8hPa | 2.5V | 07:53:59 | 02:47:49 | 00:00:00 | |
| BIOWL1-15 | 2026-09-03 02:04:07 | 51.62063 | 7.18646 | 115° | 130km/h | 10144m | -4.7m/s | -45.1°C | 58.1% | 272.8hPa | 2.5V | 07:53:59 | 02:47:44 | 00:00:00 | |
| DB0NH | 2026-09-03 02:04:07 | 51.62063 | 7.18646 | 116° | 131km/h | 10144m | -4.6m/s | -45.1°C | 57.0% | 272.8hPa | 2.4V | 07:53:00 | 02:47:44 | 00:00:00 | |
| DO1YAY-16 | 2026-09-03 02:04:06 | 51.62091 | 7.18551 | 115° | 128km/h | 10153m | -4.8m/s | -45.2°C | 52.0% | 272.4hPa | 2.4V | 00:00:00 | 00:00:00 | 00:00:00 | |
| DM0DOS-11 | 2026-09-03 02:04:05 | 51.62160 | 7.18311 | 114° | 131km/h | 10176m | -4.7m/s | -45.4°C | 60.8% | 271.5hPa | 2.4V | 07:53:49 | 02:47:37 | 00:00:00 | |
| DO2JMG | 2026-09-03 02:04:01 | 51.62147 | 7.18359 | 115° | 131km/h | 10172m | -4.7m/s | -45.4°C | 61% | 271.6hPa | 2.5V | 07:53:59 | 02:47:38 | 00:00:00 | |
| BIOWL1-15 | 2026-09-03 02:03:58 | 51.62216 | 7.18118 | 115° | 131km/h | 10195m | -4.7m/s | -45.6°C | 64.4% | 270.7hPa | 2.5V | 07:53:59 | 02:47:33 | 00:00:00 | |
| DL1XH-west | 2026-09-03 02:03:57 | 51.62202 | 7.18166 | 115° | 131km/h | 10190m | -4.7m/s | -45.6°C | 63.6% | 270.9hPa | 2.4V | 07:53:59 | 02:47:34 | 00:00:00 | |
| DL1XH-15 | 2026-09-03 02:03:56 | 51.62286 | 7.17876 | 114° | 131km/h | 10218m | -4.8m/s | -45.8°C | 66.9% | 269.8hPa | 2.5V | 07:53:58 | 02:47:28 | 00:00:00 | |
| DO2JMG | 2026-09-03 02:03:50 | 51.62300 | 7.17828 | 115° | 131km/h | 10223m | -4.9m/s | -45.9°C | 67.8% | 269.6hPa | 2.5V | 07:53:59 | 02:47:27 | 00:00:00 | |
| DL1XH-west | 2026-09-03 02:03:47 | 51.62341 | 7.17682 | 115° | 131km/h | 10238m | -4.8m/s | -46°C | 69.1% | 269hPa | 2.4V | 07:54:50 | 02:47:24 | 00:00:00 | |
| BIOWL1-15 | 2026-09-03 02:03:46 | 51.62355 | 7.17633 | 115° | 131km/h | 10242m | -4.9m/s | -46°C | 69.6% | 268.8hPa | 2.4V | 07:54:50 | 02:47:23 | 00:00:00 | |
| DJ2DS-15 | 2026-09-03 02:03:45 | 51.62369 | 7.17585 | 114° | 131km/h | 10247m | -4.9m/s | -46.1°C | 62.5% | 268.6hPa | 2.5V | 00:00:00 | 00:00:00 | 00:00:00 | |
| DO2JMG | 2026-09-03 02:03:40 | 51.62440 | 7.17340 | 115° | 133km/h | 10272m | -4.8m/s | -46.3°C | 70.8% | 267.7hPa | 2.5V | 07:54:50 | 02:47:17 | 00:00:00 | |
| BIOWL1-15 | 2026-09-03 02:03:39 | 51.62512 | 7.17093 | 115° | 135km/h | 10296m | -5m/s | -46.5°C | 71.4% | 266.7hPa | 2.4V | 07:54:50 | 02:47:12 | 00:00:00 | |
| DL1XH-west | 2026-09-03 02:03:37 | 51.62483 | 7.17192 | 115° | 133km/h | 10286m | -4.8m/s | -46.4°C | 71.3% | 267.1hPa | 2.4V | 07:54:50 | 02:47:14 | 00:00:00 | |
| DB0NH | 2026-09-03 02:03:37 | 51.62483 | 7.17192 | 115° | 137km/h | 10286m | -4.7m/s | -46.4°C | 70.7% | 267.0hPa | 2.4V | 00:00:00 | 02:47:14 | 00:00:00 | |
| DL1XH-15 | 2026-09-03 02:03:36 | 51.62570 | 7.16894 | 115° | 135km/h | 10315m | -5m/s | -46.6°C | 70.8% | 265.9hPa | 2.4V | 07:54:18 | 02:47:08 | 00:00:00 | |
| DO2JMG | 2026-09-03 02:03:30 | 51.62585 | 7.16844 | 115° | 137km/h | 10320m | -5m/s | -46.7°C | 71.3% | 265.7hPa | 2.4V | 07:54:50 | 02:47:07 | 00:00:00 | |
| DO3DL | 2026-09-03 02:03:29 | 51.62585 | 7.16844 | 116° | 137km/h | 10320m | -5.0m/s | -46.7°C | 63.7% | 265.7hPa | 2.4V | 07:54:00 | 00:00:00 | 00:00:00 | |
| BIOWL9-15 | 2026-09-03 02:03:27 | 51.62629 | 7.16694 | 115° | 135km/h | 10335m | -4.7m/s | -46.8°C | 63.9% | 265.1hPa | 2.4V | 00:00:00 | 00:00:00 | 00:00:00 | |
| DL1XH-15 | 2026-09-03 02:03:26 | 51.62719 | 7.16393 | 115° | 137km/h | 10364m | -4.8m/s | -47°C | 70.6% | 263.9hPa | 2.4V | 07:54:28 | 02:46:58 | 00:00:00 | |
| DL1XH-west | 2026-09-03 02:03:26 | 51.62644 | 7.16644 | 115° | 137km/h | 10339m | -5m/s | -46.8°C | 71.4% | 264.9hPa | 2.4V | 07:54:50 | 02:47:03 | 00:00:00 | |
| BIOWL1-15 | 2026-09-03 02:03:25 | 51.62659 | 7.16594 | 116° | 137km/h | 10344m | -4.9m/s | -46.9°C | 71.4% | 264.7hPa | 2.4V | 07:54:50 | 02:47:02 | 00:00:00 | |
| DO2JMG | 2026-09-03 02:03:19 | 51.62749 | 7.16292 | 116° | 139km/h | 10373m | -4.8m/s | -47.1°C | 71.2% | 263.6hPa | 2.4V | 07:54:50 | 02:46:56 | 00:00:00 | |
| DO2KSM | 2026-09-03 02:03:18 | 51.62749 | 7.16292 | 117° | 139km/h | 10373m | -4.8m/s | -47.1°C | 63.6% | 263.6hPa | 2.5V | 07:54:00 | 00:00:00 | 00:00:00 | |
| DH3RM | 2026-09-03 02:03:17 | 51.62764 | 7.16242 | 117° | 137km/h | 10378m | -4.6m/s | -47.1°C | 63.5% | 263.4hPa | 2.5V | 07:54:00 | 00:00:00 | 00:00:00 | |
| DL1XH-15 | 2026-09-03 02:03:16 | 51.62872 | 7.15887 | 116° | 139km/h | 10411m | -5.1m/s | -47.4°C | 71.3% | 262.1hPa | 2.5V | 07:54:38 | 02:46:48 | 00:00:00 | |
| BIOWL1-15 | 2026-09-03 02:03:16 | 51.62825 | 7.16039 | 116° | 139km/h | 10397m | -4.9m/s | -47.3°C | 71.6% | 262.6hPa | 2.4V | 07:54:50 | 02:46:51 | 00:00:00 | |
| DL1XH-west | 2026-09-03 02:03:15 | 51.62810 | 7.16090 | 116° | 139km/h | 10392m | -4.9m/s | -47.2°C | 71.5% | 262.8hPa | 2.4V | 07:54:50 | 02:46:52 | 00:00:00 | |
| DO2JMG | 2026-09-03 02:03:08 | 51.62919 | 7.15734 | 116° | 141km/h | 10426m | -5.1m/s | -47.6°C | 72.7% | 261.5hPa | 2.4V | 07:54:50 | 02:46:45 | 00:00:00 | |
| DB0NH | 2026-09-03 02:03:07 | 51.62934 | 7.15682 | 117° | 141km/h | 10431m | -4.8m/s | -47.5°C | 72.2% | 261.3hPa | 2.4V | 00:00:00 | 02:46:44 | 00:00:00 | |
| DL1XH-15 | 2026-09-03 02:03:06 | 51.63029 | 7.15374 | 116° | 142km/h | 10460m | -4.9m/s | -47.8°C | 72.6% | 260.1hPa | 2.4V | 07:54:48 | 02:46:38 | 00:00:00 | |
| DM0DOS-11 | 2026-09-03 02:03:05 | 51.63046 | 7.15322 | 116° | 142km/h | 10465m | -5.1m/s | -47.9°C | 72.5% | 259.9hPa | 2.5V | 07:54:49 | 02:46:37 | 00:00:00 | |
| DL1XH-west | 2026-09-03 02:03:05 | 51.62966 | 7.15580 | 116° | 141km/h | 10441m | -4.7m/s | -47.7°C | 73% | 260.9hPa | 2.5V | 07:54:50 | 02:46:42 | 00:00:00 | |
| BIOWL1-15 | 2026-09-03 02:03:04 | 51.62982 | 7.15529 | 117° | 141km/h | 10445m | -5m/s | -47.7°C | 73% | 260.7hPa | 2.4V | 07:54:50 | 02:46:41 | 00:00:00 | |
| DO2JMG | 2026-09-03 02:02:58 | 51.63078 | 7.15219 | 117° | 142km/h | 10475m | -5.1m/s | -48°C | 73.5% | 259.6hPa | 2.4V | 07:55:41 | 02:46:35 | 00:00:00 | |
| DL3AQ-11 | 2026-09-03 02:02:58 | 51.63094 | 7.15167 | 116° | 141km/h | 10480m | -5.0m/s | -48.0°C | 65.7% | 259.3hPa | 2.4V | 00:00:00 | 00:00:00 | 00:00:00 | |
| BIOWL9-15 | 2026-09-03 02:02:56 | 51.63111 | 7.15115 | 116° | 141km/h | 10485m | -4.9m/s | -48.1°C | 65.7% | 259.2hPa | 2.4V | 00:00:00 | 00:00:00 | 00:00:00 | |
| DM0DOS-11 | 2026-09-03 02:02:55 | 51.63208 | 7.14807 | 117° | 141km/h | 10515m | -5m/s | -48.3°C | 73.2% | 258hPa | 2.4V | 07:54:59 | 02:46:27 | 00:00:00 | |
| DL1XH-west | 2026-09-03 02:02:55 | 51.63127 | 7.15064 | 117° | 142km/h | 10490m | -4.9m/s | -48.1°C | 73.6% | 259hPa | 2.4V | 07:55:41 | 02:46:32 | 00:00:00 | |
| BIOWL1-15 | 2026-09-03 02:02:53 | 51.63159 | 7.14961 | 117° | 142km/h | 10500m | -5m/s | -48.2°C | 73.6% | 258.5hPa | 2.5V | 07:55:41 | 02:46:30 | 00:00:00 | |
| DO2JMG | 2026-09-03 02:02:47 | 51.63256 | 7.14654 | 117° | 141km/h | 10530m | -4.9m/s | -48.4°C | 73.1% | 257.4hPa | 2.4V | 07:55:41 | 02:46:24 | 00:00:00 | |
| SONCRA | 2026-09-03 02:02:47 | 51.63256 | 7.14654 | 116° | 141km/h | 10530m | -4.9m/s | -48.4°C | 65.3% | 257.4hPa | 2.4V | 00:00:00 | 00:00:00 | 00:00:00 | |
| DJ2KF-10 | 2026-09-03 02:02:46 | 51.63273 | 7.14603 | 118° | 141km/h | 10535m | -4.8m/s | -48.4°C | 72.6% | 257.2hPa | 2.4V | 00:00:00 | 02:46:23 | 00:00:00 | |
| DM0DOS-11 | 2026-09-03 02:02:45 | 51.63370 | 7.14298 | 117° | 141km/h | 10565m | -5.1m/s | -48.7°C | 71.2% | 256hPa | 2.4V | 07:55:09 | 02:46:17 | 00:00:00 | |
| DL1XH-west | 2026-09-03 02:02:44 | 51.63305 | 7.14502 | 117° | 141km/h | 10545m | -5.1m/s | -48.6°C | 72.7% | 256.8hPa | 2.4V | 07:55:41 | 02:46:21 | 00:00:00 | |
| BIOWL1-15 | 2026-09-03 02:02:43 | 51.63321 | 7.14451 | 117° | 141km/h | 10550m | -5m/s | -48.6°C | 72.5% | 256.7hPa | 2.5V | 07:55:41 | 02:46:20 | 00:00:00 | |
| DL3AQ-11 | 2026-09-03 02:02:42 | 51.63354 | 7.14349 | 117° | 139km/h | 10560m | -4.9m/s | -48.7°C | 64.1% | 256.2hPa | 2.5V | 00:00:00 | 00:00:00 | 00:00:00 | |
| DD1CC8 | 2026-09-03 02:02:41 | 51.63354 | 7.14349 | 117° | 139km/h | 10560m | -4.9m/s | -48.7°C | 64.1% | 256.2hPa | 2.5V | 00:00:00 | 00:00:00 | 00:00:00 | |
| GOEST3-10 | 2026-09-03 02:02:40 | 51.63370 | 7.14298 | 118° | 141km/h | 10565m | -5.1m/s | -48.7°C | 71.2% | 256.0hPa | 2.5V | 00:00:00 | 02:46:17 | 00:00:00 | |
| DC6BW-12 | 2026-09-03 02:02:39 | 51.63370 | 7.14298 | 118° | 141km/h | 10565m | -5.1m/s | -48.7°C | 63.8% | 256.0hPa | 2.5V | 07:55:00 | 00:00:00 | 00:00:00 | |
| DH3RM | 2026-09-03 02:02:38 | 51.63386 | 7.14247 | 118° | 141km/h | 10570m | -5.0m/s | -48.7°C | 63.3% | 255.9hPa | 2.5V | 07:55:00 | 00:00:00 | 00:00:00 | |
| DB0NH | 2026-09-03 02:02:37 | 51.63419 | 7.14146 | 118° | 141km/h | 10580m | -4.9m/s | -48.8°C | 70.1% | 255.4hPa | 2.5V | 00:00:00 | 02:46:14 | 00:00:00 | |
| DL1XH-15 | 2026-09-03 02:02:36 | 51.63517 | 7.13842 | 117° | 141km/h | 10609m | -4.9m/s | -49.1°C | 68.6% | 254.3hPa | 2.5V | 07:55:18 | 02:46:08 | 00:00:00 | |
| DO2JMG | 2026-09-03 02:02:36 | 51.63435 | 7.14096 | 117° | 141km/h | 10584m | -5m/s | -48.9°C | 70.2% | 255.2hPa | 2.5V | 07:55:41 | 02:46:13 | 00:00:00 | |
| BIOWL1-15 | 2026-09-03 02:02:34 | 51.63501 | 7.13893 | 117° | 141km/h | 10604m | -5m/s | -49°C | 69.3% | 254.5hPa | 2.5V | 07:55:41 | 02:46:09 | 00:00:00 | |
| DL1XH-west | 2026-09-03 02:02:33 | 51.63484 | 7.13944 | 118° | 141km/h | 10599m | -5.1m/s | -49°C | 69.5% | 254.7hPa | 2.4V | 07:55:41 | 02:46:10 | 00:00:00 | |
| HTAHTA | 2026-09-03 02:02:32 | 51.63501 | 7.13893 | 117° | 139km/h | 10604m | -5.0m/s | -49.0°C | 61.3% | 254.5hPa | 2.4V | 00:00:00 | 00:00:00 | 00:00:00 | |
| DF5WG-10 | 2026-09-03 02:02:30 | 51.63533 | 7.13792 | 118° | 141km/h | 10614m | -5.1m/s | -49.1°C | 68.4% | 254.1hPa | 2.4V | 00:00:00 | 02:46:07 | 00:00:00 | |
| BIOWL7-15 | 2026-09-03 02:02:29 | 51.63533 | 7.13792 | 119° | 141km/h | 10614m | -5.2m/s | -49.1°C | 61.1% | 254.1hPa | 2.4V | 07:55:00 | 00:00:00 | 00:00:00 | |
| DL3AQ-11 | 2026-09-03 02:02:28 | 51.63566 | 7.13691 | 117° | 139km/h | 10624m | -5.0m/s | -49.2°C | 60.4% | 253.7hPa | 2.4V | 00:00:00 | 00:00:00 | 00:00:00 | |
| DL1XH-15 | 2026-09-03 02:02:26 | 51.63680 | 7.13336 | 117° | 141km/h | 10659m | -5m/s | -49.5°C | 67.9% | 252.4hPa | 2.4V | 07:55:28 | 02:45:58 | 00:00:00 | |
| DO2JMG | 2026-09-03 02:02:26 | 51.63599 | 7.13590 | 117° | 141km/h | 10634m | -5.1m/s | -49.3°C | 68.3% | 253.3hPa | 2.5V | 07:55:41 | 02:46:03 | 00:00:00 | |
| DM0DOS-11 | 2026-09-03 02:02:25 | 51.63696 | 7.13285 | 117° | 141km/h | 10665m | -5.1m/s | -49.5°C | 68% | 252.2hPa | 2.5V | 07:55:29 | 02:45:57 | 00:00:00 | |
| BIOWL1-15 | 2026-09-03 02:02:23 | 51.63680 | 7.13336 | 117° | 141km/h | 10659m | -5m/s | -49.5°C | 68.6% | 252.4hPa | 2.4V | 07:55:41 | 02:45:58 | 00:00:00 | |
| DL1XH-west | 2026-09-03 02:02:23 | 51.63647 | 7.13438 | 117° | 141km/h | 10649m | -5.1m/s | -49.4°C | 68.4% | 252.7hPa | 2.4V | 07:55:41 | 02:46:00 | 00:00:00 | |
| DK5PH-5 | 2026-09-03 02:02:23 | 51.63647 | 7.13438 | 118° | 141km/h | 10649m | -5.1m/s | -49.3°C | 67.5% | 252.7hPa | 2.4V | 00:00:00 | 02:46:00 | 00:00:00 | |
| DO9LL-15 | 2026-09-03 02:02:21 | 51.63680 | 7.13336 | 118° | 141km/h | 10659m | -5.0m/s | -49.4°C | 67.9% | 252.3hPa | 2.4V | 00:00:00 | 02:45:58 | 00:00:00 | |
| GOEST3-10 | 2026-09-03 02:02:20 | 51.63696 | 7.13285 | 118° | 141km/h | 10665m | -5.1m/s | -49.5°C | 68.0% | 252.2hPa | 2.5V | 00:00:00 | 02:45:57 | 00:00:00 | |
| DD1CC3-15 | 2026-09-03 02:02:18 | 51.63713 | 7.13234 | 118° | 141km/h | 10670m | -5.2m/s | -49.6°C | 60.9% | 252.0hPa | 2.4V | 07:55:00 | 00:00:00 | 00:00:00 | |
| DL3AQ-11 | 2026-09-03 02:02:17 | 51.63746 | 7.13133 | 117° | 139km/h | 10680m | -5.2m/s | -49.7°C | 61.2% | 251.6hPa | 2.4V | 00:00:00 | 00:00:00 | 00:00:00 | |
| DL1XH-15 | 2026-09-03 02:02:16 | 51.63845 | 7.12830 | 117° | 141km/h | 10710m | -4.9m/s | -50°C | 69.5% | 250.4hPa | 2.4V | 07:55:38 | 02:45:48 | 00:00:00 | |
| DJ2KF-10 | 2026-09-03 02:02:16 | 51.63762 | 7.13083 | 118° | 141km/h | 10685m | -5.0m/s | -49.7°C | 68.9% | 251.3hPa | 2.4V | 00:00:00 | 02:45:53 | 00:00:00 | |
| DM0DOS-11 | 2026-09-03 02:02:15 | 51.63861 | 7.12779 | 117° | 141km/h | 10715m | -5.1m/s | -50°C | 69.5% | 250.3hPa | 2.4V | 07:55:39 | 02:45:47 | 00:00:00 | |
| DO2JMG | 2026-09-03 02:02:15 | 51.63779 | 7.13032 | 118° | 141km/h | 10690m | -4.7m/s | -49.8°C | 69.6% | 251.2hPa | 2.4V | 07:55:41 | 02:45:52 | 00:00:00 | |
| DL1XH-west | 2026-09-03 02:02:13 | 51.63812 | 7.12931 | 118° | 141km/h | 10700m | -5.1m/s | -49.9°C | 69.9% | 250.8hPa | 2.5V | 07:55:41 | 02:45:50 | 00:00:00 | |
| BIOWL1-15 | 2026-09-03 02:02:12 | 51.63861 | 7.12779 | 118° | 141km/h | 10715m | -5.1m/s | -50°C | 70.2% | 250.3hPa | 2.4V | 07:55:41 | 02:45:47 | 00:00:00 | |
| DB0ND-19 | 2026-09-03 02:02:11 | 51.63861 | 7.12779 | 117° | 139km/h | 10715m | -5.1m/s | 0°C | -1.0% | -1.0hPa | 2.4V | 00:00:00 | 00:00:00 | 00:00:00 | |
| DD1CC8 | 2026-09-03 02:02:10 | 51.63861 | 7.12779 | 117° | 139km/h | 10715m | -5.1m/s | -50.0°C | 61.9% | 250.3hPa | 2.4V | 00:00:00 | 00:00:00 | 00:00:00 | |
| GOEST3-10 | 2026-09-03 02:02:09 | 51.63877 | 7.12729 | 118° | 141km/h | 10720m | -5.1m/s | -50.0°C | 69.5% | 250.0hPa | 2.4V | 00:00:00 | 02:45:46 | 00:00:00 | |
| DB0NH | 2026-09-03 02:02:07 | 51.63910 | 7.12627 | 118° | 142km/h | 10730m | -5.1m/s | -50.1°C | 69.7% | 249.6hPa | 2.4V | 00:00:00 | 02:45:44 | 00:00:00 | |
| DL1XH-15 | 2026-09-03 02:02:06 | 51.64008 | 7.12323 | 117° | 141km/h | 10760m | -4.9m/s | -50.4°C | 69.7% | 248.5hPa | 2.4V | 07:55:48 | 02:45:38 | 00:00:00 | |
| DM0DOS-11 | 2026-09-03 02:02:05 | 51.64025 | 7.12272 | 117° | 142km/h | 10765m | -5.1m/s | -50.5°C | 69.5% | 248.3hPa | 2.4V | 07:55:49 | 02:45:37 | 00:00:00 | |
| DO2JMG | 2026-09-03 02:02:04 | 51.63959 | 7.12475 | 117° | 141km/h | 10745m | -5.2m/s | -50.3°C | 70.3% | 249.1hPa | 2.4V | 07:56:32 | 02:45:41 | 00:00:00 | |
| DL1XH-west | 2026-09-03 02:02:03 | 51.63975 | 7.12424 | 118° | 141km/h | 10751m | -5.1m/s | -50.3°C | 70.2% | 248.8hPa | 2.5V | 07:56:32 | 02:45:40 | 00:00:00 | |
| BIOWL1-15 | 2026-09-03 02:01:59 | 51.64042 | 7.12221 | 118° | 142km/h | 10770m | -5.2m/s | -50.5°C | 69.7% | 248.1hPa | 2.4V | 07:56:32 | 02:45:36 | 00:00:00 | |
| DJ2DS-15 | 2026-09-03 02:01:57 | 51.64076 | 7.12119 | 118° | 141km/h | 10781m | -5.1m/s | -50.6°C | 61.1% | 247.7hPa | 2.5V | 00:00:00 | 00:00:00 | 00:00:00 | |
| DL1XH-15 | 2026-09-03 02:01:56 | 51.64178 | 7.11815 | 118° | 142km/h | 10812m | -5.4m/s | -50.9°C | 67.5% | 246.5hPa | 2.5V | 07:55:58 | 02:45:28 | 00:00:00 | |
| DM0DOS-11 | 2026-09-03 02:01:55 | 51.64195 | 7.11764 | 118° | 142km/h | 10817m | -5.3m/s | -50.9°C | 67.4% | 246.4hPa | 2.5V | 07:55:59 | 02:45:27 | 00:00:00 | |
| DO2JMG | 2026-09-03 02:01:54 | 51.64127 | 7.11967 | 118° | 142km/h | 10796m | -5.3m/s | -50.7°C | 68.2% | 247.2hPa | 2.4V | 07:56:32 | 02:45:31 | 00:00:00 | |
| DL1XH-west | 2026-09-03 02:01:52 | 51.64161 | 7.11865 | 118° | 142km/h | 10806m | -5m/s | -50.8°C | 67.9% | 246.8hPa | 2.4V | 07:56:32 | 02:45:29 | 00:00:00 | |
| BIOWL1-15 | 2026-09-03 02:01:51 | 51.64212 | 7.11713 | 119° | 142km/h | 10822m | -5.3m/s | -50.9°C | 67.6% | 246.2hPa | 2.4V | 07:56:32 | 02:45:26 | 00:00:00 | |
| DL3AQ-11 | 2026-09-03 02:01:49 | 51.64229 | 7.11662 | 118° | 142km/h | 10827m | -4.8m/s | -51.0°C | 59.5% | 246.0hPa | 2.4V | 00:00:00 | 00:00:00 | 00:00:00 | |
| DO3DL | 2026-09-03 02:01:48 | 51.64212 | 7.11713 | 119° | 142km/h | 10822m | -5.3m/s | -50.9°C | 59.6% | 246.2hPa | 2.4V | 07:56:00 | 00:00:00 | 00:00:00 | |
| DL1XH-15 | 2026-09-03 02:01:46 | 51.64352 | 7.11306 | 119° | 144km/h | 10863m | -5m/s | -51.2°C | 64.4% | 244.6hPa | 2.4V | 07:56:08 | 02:45:18 | 00:00:00 | |
| DJ2KF-10 | 2026-09-03 02:01:46 | 51.64264 | 7.11560 | 119° | 142km/h | 10837m | -5.1m/s | -51.0°C | 66.5% | 245.6hPa | 2.5V | 00:00:00 | 02:45:23 | 00:00:00 | |
| DM0DOS-11 | 2026-09-03 02:01:45 | 51.64370 | 7.11255 | 119° | 144km/h | 10868m | -5m/s | -51.2°C | 64.4% | 244.4hPa | 2.5V | 07:56:09 | 02:45:17 | 00:00:00 | |
| DO2JMG | 2026-09-03 02:01:44 | 51.64299 | 7.11458 | 119° | 142km/h | 10847m | -5.2m/s | -51.1°C | 65.8% | 245.2hPa | 2.4V | 07:56:32 | 02:45:21 | 00:00:00 | |
| DL1XH-west | 2026-09-03 02:01:41 | 51.64352 | 7.11306 | 120° | 144km/h | 10863m | -5m/s | -51.2°C | 65% | 244.6hPa | 2.4V | 07:56:32 | 02:45:18 | 00:00:00 | |
| BIOWL1-15 | 2026-09-03 02:01:38 | 51.64406 | 7.11153 | 119° | 144km/h | 10878m | -5.3m/s | -51.3°C | 64.7% | 244.1hPa | 2.4V | 07:56:32 | 02:45:15 | 00:00:00 | |
| DL3AQ-11 | 2026-09-03 02:01:38 | 51.64424 | 7.11102 | 119° | 142km/h | 10883m | -5.1m/s | -51.4°C | 56.5% | 243.9hPa | 2.4V | 00:00:00 | 00:00:00 | 00:00:00 | |
| DB0NH | 2026-09-03 02:01:37 | 51.64424 | 7.11102 | 120° | 142km/h | 10883m | -5.1m/s | -51.3°C | 64.2% | 243.8hPa | 2.4V | 00:00:00 | 02:45:14 | 00:00:00 | |
| DL1XH-15 | 2026-09-03 02:01:36 | 51.64531 | 7.10797 | 119° | 144km/h | 10915m | -5m/s | -51.6°C | 62.7% | 242.7hPa | 2.4V | 07:56:18 | 02:45:08 | 00:00:00 | |
| DM0DOS-11 | 2026-09-03 02:01:35 | 51.64549 | 7.10746 | 119° | 144km/h | 10919m | -4.9m/s | -51.6°C | 62.2% | 242.5hPa | 2.4V | 07:56:19 | 02:45:07 | 00:00:00 | |
| DO2JMG | 2026-09-03 02:01:34 | 51.64477 | 7.10950 | 119° | 144km/h | 10899m | -5m/s | -51.5°C | 63.8% | 243.3hPa | 2.5V | 07:56:32 | 02:45:11 | 00:00:00 | |
| DL1XH-west | 2026-09-03 02:01:30 | 51.64549 | 7.10746 | 119° | 144km/h | 10920m | -4.9m/s | -51.6°C | 62.5% | 242.5hPa | 2.4V | 07:56:32 | 02:45:07 | 00:00:00 | |
| BIOWL1-15 | 2026-09-03 02:01:27 | 51.64603 | 7.10594 | 120° | 144km/h | 10935m | -5.4m/s | -51.7°C | 61.4% | 241.9hPa | 2.5V | 07:56:32 | 02:45:04 | 00:00:00 | |
| DL1XH-15 | 2026-09-03 02:01:26 | 51.64711 | 7.10292 | 119° | 142km/h | 10967m | -5.1m/s | -51.9°C | 61.3% | 240.8hPa | 2.4V | 07:56:28 | 02:44:58 | 00:00:00 | |
| DM0DOS-11 | 2026-09-03 02:01:25 | 51.64728 | 7.10242 | 119° | 142km/h | 10972m | -5.1m/s | -51.9°C | 61% | 240.6hPa | 2.4V | 07:56:29 | 02:44:57 | 00:00:00 | |
| DO2JMG | 2026-09-03 02:01:24 | 51.64657 | 7.10443 | 120° | 142km/h | 10951m | -5.3m/s | -51.8°C | 61.6% | 241.4hPa | 2.4V | 07:56:32 | 02:45:01 | 00:00:00 | |
| DL1XH-west | 2026-09-03 02:01:19 | 51.64746 | 7.10192 | 119° | 142km/h | 10977m | -5.3m/s | -52°C | 60.9% | 240.4hPa | 2.4V | 07:56:32 | 02:44:56 | 00:00:00 | |
| BIOWL1-15 | 2026-09-03 02:01:17 | 51.64781 | 7.10091 | 120° | 142km/h | 10987m | -5.1m/s | -52.1°C | 60.1% | 240hPa | 2.5V | 07:56:32 | 02:44:54 | 00:00:00 | |
| DJ2KF-10 | 2026-09-03 02:01:16 | 51.64799 | 7.10041 | 120° | 142km/h | 10993m | -5.1m/s | -52.0°C | 59.5% | 239.8hPa | 2.5V | 00:00:00 | 02:44:53 | 00:00:00 | |
| DM0DOS-11 | 2026-09-03 02:01:15 | 51.64908 | 7.09745 | 121° | 141km/h | 11023m | -5.1m/s | -52.2°C | 55.6% | 238.7hPa | 2.5V | 07:56:39 | 02:44:47 | 00:00:00 | |
| DO2JMG | 2026-09-03 02:01:13 | 51.64853 | 7.09893 | 121° | 141km/h | 11008m | -4.9m/s | -52.2°C | 58.2% | 239.3hPa | 2.4V | 07:57:23 | 02:44:50 | 00:00:00 | |
| DL1XH-west | 2026-09-03 02:01:08 | 51.64945 | 7.09647 | 121° | 141km/h | 11033m | -5m/s | -52.3°C | 55.8% | 238.3hPa | 2.4V | 07:57:23 | 02:44:45 | 00:00:00 | |
| BIOWL1-15 | 2026-09-03 02:01:07 | 51.64964 | 7.09598 | 121° | 142km/h | 11038m | -5.1m/s | -52.3°C | 55.6% | 238.1hPa | 2.4V | 07:57:23 | 02:44:44 | 00:00:00 | |
| DL1XH-15 | 2026-09-03 02:01:06 | 51.65075 | 7.09302 | 121° | 142km/h | 11069m | -5.1m/s | -52.5°C | 56% | 237hPa | 2.4V | 07:56:48 | 02:44:38 | 00:00:00 | |
| DO2JMG | 2026-09-03 02:01:03 | 51.65038 | 7.09401 | 121° | 142km/h | 11059m | -5.3m/s | -52.5°C | 56.2% | 237.4hPa | 2.4V | 07:57:23 | 02:44:40 | 00:00:00 | |
| DL1XH-west | 2026-09-03 02:00:58 | 51.65132 | 7.09155 | 122° | 142km/h | 11085m | -5.2m/s | -52.6°C | 56.9% | 236.4hPa | 2.5V | 07:57:23 | 02:44:35 | 00:00:00 | |
| DL3AQ-11 | 2026-09-03 02:00:57 | 51.65151 | 7.09106 | 121° | 141km/h | 11090m | -5.3m/s | -52.6°C | 48.9% | 236.2hPa | 2.4V | 00:00:00 | 00:00:00 | 00:00:00 | |
| DL1XH-15 | 2026-09-03 02:00:56 | 51.65265 | 7.08809 | 122° | 144km/h | 11121m | -5.4m/s | -52.9°C | 56.9% | 235.1hPa | 2.4V | 07:56:58 | 02:44:28 | 00:00:00 | |
| BIOWL1-15 | 2026-09-03 02:00:56 | 51.65170 | 7.09056 | 122° | 142km/h | 11095m | -5.2m/s | -52.7°C | 57.1% | 236hPa | 2.4V | 07:57:23 | 02:44:33 | 00:00:00 | |
| DO2JMG | 2026-09-03 02:00:53 | 51.65227 | 7.08908 | 122° | 144km/h | 11111m | -5.4m/s | -52.8°C | 57.4% | 235.5hPa | 2.5V | 07:57:23 | 02:44:30 | 00:00:00 | |
| BIOWL1-15 | 2026-09-03 02:00:47 | 51.65383 | 7.08511 | 123° | 146km/h | 11152m | -5.4m/s | -53.2°C | 57.8% | 233.9hPa | 2.4V | 07:57:23 | 02:44:22 | 00:00:00 | |
| DL1XH-west | 2026-09-03 02:00:47 | 51.65344 | 7.08611 | 123° | 144km/h | 11142m | -5.1m/s | -53.1°C | 57.8% | 234.3hPa | 2.5V | 07:57:23 | 02:44:24 | 00:00:00 | |
| DJ2DS-15 | 2026-09-03 02:00:45 | 51.65383 | 7.08511 | 122° | 144km/h | 11152m | -5.4m/s | -53.2°C | 49.7% | 233.9hPa | 2.5V | 00:00:00 | 00:00:00 | 00:00:00 | |
| DO2JMG | 2026-09-03 02:00:42 | 51.65443 | 7.08362 | 122° | 146km/h | 11168m | -5.1m/s | -53.3°C | 57.9% | 233.4hPa | 2.5V | 07:57:23 | 02:44:19 | 00:00:00 | |
| WPPR-10 | 2026-09-03 02:00:41 | 51.65482 | 7.08263 | 122° | 142km/h | 11178m | -5.4m/s | -53.4°C | 49.9% | 233.0hPa | 2.4V | 00:00:00 | 00:00:00 | 00:00:00 | |
| DD1CC1-15 | 2026-09-03 02:00:40 | 51.65482 | 7.08262 | 123° | 144km/h | 11179m | -5.4m/s | -53.4°C | 49.9% | 233.0hPa | 2.4V | 07:57:00 | 00:00:00 | 00:00:00 | |
| MET0W-2 | 2026-09-03 02:00:39 | 51.65501 | 7.08213 | 122° | 142km/h | 11183m | -5.0m/s | -53.4°C | 49.9% | 232.8hPa | 2.4V | 00:00:00 | 00:00:00 | 00:00:00 | |
| DH3RM | 2026-09-03 02:00:38 | 51.65501 | 7.08213 | 123° | 142km/h | 11184m | -5.0m/s | -53.4°C | 49.9% | 232.8hPa | 2.4V | 07:57:00 | 00:00:00 | 00:00:00 | |
| GOEST3-10 | 2026-09-03 02:00:37 | 51.65540 | 7.08115 | 123° | 142km/h | 11194m | -5.2m/s | -53.5°C | 57.5% | 232.4hPa | 2.4V | 00:00:00 | 02:44:14 | 00:00:00 | |
| DL1XH-west | 2026-09-03 02:00:37 | 51.65540 | 7.08115 | 122° | 142km/h | 11194m | -5.3m/s | -53.5°C | 57.9% | 232.5hPa | 2.4V | 07:57:23 | 02:44:14 | 00:00:00 | |
| DL1XH-15 | 2026-09-03 02:00:36 | 51.65658 | 7.07821 | 123° | 144km/h | 11225m | -5.1m/s | -53.8°C | 57.5% | 231.4hPa | 2.4V | 07:57:18 | 02:44:08 | 00:00:00 | |
| BIOWL1-15 | 2026-09-03 02:00:35 | 51.65578 | 7.08017 | 123° | 142km/h | 11204m | -5.1m/s | -53.6°C | 57.8% | 232.2hPa | 2.5V | 07:57:23 | 02:44:12 | 00:00:00 | |
| DO2JMG | 2026-09-03 02:00:32 | 51.65638 | 7.07870 | 123° | 144km/h | 11220m | -5.4m/s | -53.8°C | 57.6% | 231.5hPa | 2.4V | 07:57:23 | 02:44:09 | 00:00:00 | |
| DH3RM | 2026-09-03 02:00:32 | 51.65638 | 7.07870 | 124° | 144km/h | 11220m | -5.4m/s | -53.8°C | 49.8% | 231.5hPa | 2.5V | 07:57:00 | 00:00:00 | 00:00:00 | |
| DL8DAS-15 | 2026-09-03 02:00:31 | 51.65638 | 7.07870 | 124° | 144km/h | 11220m | -5.4m/s | -53.8°C | 49.8% | 231.5hPa | 2.5V | 00:00:00 | 00:00:00 | 00:00:00 | |
| DB0NH | 2026-09-03 02:00:30 | 51.65678 | 7.07771 | 124° | 148km/h | 11230m | -5.2m/s | -53.8°C | 57.5% | 231.1hPa | 2.5V | 00:00:00 | 02:44:07 | 00:00:00 | |
| HTAHTA | 2026-09-03 02:00:28 | 51.65739 | 7.07622 | 123° | 146km/h | 11246m | -4.9m/s | -54.0°C | 49.4% | 230.6hPa | 2.4V | 00:00:00 | 00:00:00 | 00:00:00 | |
| GOEST3-10 | 2026-09-03 02:00:27 | 51.65739 | 7.07622 | 124° | 148km/h | 11246m | -4.9m/s | -53.9°C | 57.2% | 230.6hPa | 2.4V | 00:00:00 | 02:44:04 | 00:00:00 | |
| BIOWL1-15 | 2026-09-03 02:00:27 | 51.65780 | 7.07523 | 123° | 146km/h | 11256m | -5.4m/s | -54.1°C | 56.7% | 230.2hPa | 2.5V | 07:58:14 | 02:44:02 | 00:00:00 | |
| DL1XH-15 | 2026-09-03 02:00:26 | 51.65862 | 7.07322 | 123° | 148km/h | 11276m | -5.4m/s | -54.2°C | 55.8% | 229.5hPa | 2.4V | 07:57:28 | 02:43:58 | 00:00:00 | |
| DL1XH-west | 2026-09-03 02:00:26 | 51.65759 | 7.07572 | 123° | 148km/h | 11250m | -4.9m/s | -54°C | 56.9% | 230.4hPa | 2.4V | 07:57:23 | 02:44:03 | 00:00:00 | |
| DM0DOS-11 | 2026-09-03 02:00:25 | 51.65882 | 7.07272 | 123° | 148km/h | 11281m | -5.4m/s | -54.2°C | 55.5% | 229.3hPa | 2.4V | 07:57:29 | 02:43:57 | 00:00:00 | |
| DO2JMG | 2026-09-03 02:00:21 | 51.65862 | 7.07322 | 123° | 148km/h | 11276m | -5.4m/s | -54.2°C | 55.7% | 229.5hPa | 2.4V | 07:58:14 | 02:43:58 | 00:00:00 | |
| DO9LL-15 | 2026-09-03 02:00:21 | 51.65862 | 7.07322 | 124° | 148km/h | 11276m | -5.4m/s | -54.2°C | 55.8% | 229.5hPa | 2.4V | 00:00:00 | 02:43:58 | 00:00:00 | |
| BUE01 | 2026-09-03 02:00:20 | 51.65903 | 7.07221 | 123° | 148km/h | 11287m | -5.1m/s | -54.3°C | 47.6% | 229.1hPa | 2.4V | 00:00:00 | 00:00:00 | 00:00:00 | |
| AU51GT2 | 2026-09-03 02:00:19 | 51.65903 | 7.07221 | 123° | 148km/h | 11287m | -5.1m/s | -54.3°C | 47.6% | 229.1hPa | 2.4V | 00:00:00 | 00:00:00 | 00:00:00 | |
| DK5PH-5 | 2026-09-03 02:00:17 | 51.65945 | 7.07121 | 124° | 150km/h | 11297m | -5.4m/s | -54.3°C | 54.7% | 228.7hPa | 2.4V | 00:00:00 | 02:43:54 | 00:00:00 | |
| DL1XH-15 | 2026-09-03 02:00:16 | 51.66071 | 7.06821 | 124° | 148km/h | 11329m | -5.2m/s | -54.5°C | 52.5% | 227.7hPa | 2.4V | 07:57:38 | 02:43:48 | 00:00:00 | |
| BIOWL1-15 | 2026-09-03 02:00:16 | 51.66008 | 7.06970 | 124° | 148km/h | 11313m | -5.2m/s | -54.4°C | 53.5% | 228.2hPa | 2.4V | 07:58:14 | 02:43:51 | 00:00:00 | |
| DJ2KF-10 | 2026-09-03 02:00:16 | 51.65966 | 7.07070 | 124° | 150km/h | 11303m | -5.4m/s | -54.3°C | 54.2% | 228.6hPa | 2.4V | 00:00:00 | 02:43:53 | 00:00:00 | |
| DM0DOS-11 | 2026-09-03 02:00:15 | 51.66092 | 7.06771 | 123° | 148km/h | 11334m | -5.2m/s | -54.5°C | 52.1% | 227.5hPa | 2.4V | 07:57:39 | 02:43:47 | 00:00:00 | |
| DL1XH-west | 2026-09-03 02:00:15 | 51.65987 | 7.07020 | 124° | 148km/h | 11308m | -5.1m/s | -54.4°C | 53.9% | 228.4hPa | 2.4V | 07:58:14 | 02:43:52 | 00:00:00 | |
| DO2JMG | 2026-09-03 02:00:10 | 51.66091 | 7.06771 | 124° | 148km/h | 11334m | -5.2m/s | -54.5°C | 52.3% | 227.5hPa | 2.4V | 07:58:14 | 02:43:47 | 00:00:00 | |
| WPPR-10 | 2026-09-03 02:00:10 | 51.66112 | 7.06722 | 124° | 146km/h | 11339m | -5.3m/s | -54.5°C | 44.4% | 227.3hPa | 2.5V | 00:00:00 | 00:00:00 | 00:00:00 | |
| DJ2DS-15 | 2026-09-03 02:00:09 | 51.66112 | 7.06722 | 124° | 146km/h | 11339m | -5.3m/s | -54.5°C | 44.4% | 227.3hPa | 2.5V | 00:00:00 | 00:00:00 | 00:00:00 | |
| MET0W-2 | 2026-09-03 02:00:08 | 51.66133 | 7.06673 | 124° | 146km/h | 11344m | -5.3m/s | -54.6°C | 44.2% | 227.1hPa | 2.5V | 00:00:00 | 00:00:00 | 00:00:00 | |
| GOEST3-10 | 2026-09-03 02:00:07 | 51.66154 | 7.06623 | 125° | 146km/h | 11350m | -5.3m/s | -54.6°C | 51.5% | 226.9hPa | 2.5V | 00:00:00 | 02:43:44 | 00:00:00 | |
| DL1XH-15 | 2026-09-03 02:00:06 | 51.66281 | 7.06326 | 124° | 150km/h | 11381m | -5.6m/s | -54.8°C | 50.8% | 225.8hPa | 2.5V | 07:57:48 | 02:43:38 | 00:00:00 | |
| DM0DOS-11 | 2026-09-03 02:00:05 | 51.66303 | 7.06276 | 125° | 150km/h | 11386m | -5.2m/s | -54.8°C | 50.6% | 225.6hPa | 2.5V | 07:57:49 | 02:43:37 | 00:00:00 | |
| DL1XH-west | 2026-09-03 02:00:04 | 51.66217 | 7.06475 | 125° | 148km/h | 11365m | -5.2m/s | -54.8°C | 51.1% | 226.4hPa | 2.4V | 07:58:14 | 02:43:41 | 00:00:00 | |
| BIOWL1-15 | 2026-09-03 02:00:03 | 51.66238 | 7.06426 | 125° | 148km/h | 11371m | -5.2m/s | -54.8°C | 50.9% | 226.2hPa | 2.4V | 07:58:14 | 02:43:40 | 00:00:00 | |
| HSKMA3-T | 2026-09-03 02:00:00 | 51.66303 | 7.06276 | 125° | 150km/h | 11386m | -5.2m/s | 0°C | 0% | 0hPa | 2.5V | 18:12:15 | 02:43:37 | 00:00:00 | |
| DO2JMG | 2026-09-03 01:59:59 | 51.66325 | 7.06226 | 125° | 150km/h | 11391m | -5.2m/s | -54.9°C | 50.2% | 225.5hPa | 2.4V | 07:58:14 | 02:43:36 | 00:00:00 | |
| DB0NH | 2026-09-03 01:59:58 | 51.66346 | 7.06176 | 125° | 148km/h | 11396m | -5.2m/s | -54.8°C | 50.2% | 225.2hPa | 2.4V | 07:57:00 | 02:43:35 | 00:00:00 | |
| GOEST3-10 | 2026-09-03 01:59:57 | 51.66368 | 7.06126 | 126° | 151km/h | 11402m | -5.3m/s | -54.9°C | 50.2% | 225.0hPa | 2.4V | 00:00:00 | 02:43:34 | 00:00:00 | |
| DL1XH-15 | 2026-09-03 01:59:56 | 51.66499 | 7.05825 | 124° | 151km/h | 11433m | -5.3m/s | -55.1°C | 49.8% | 224hPa | 2.4V | 07:57:58 | 02:43:28 | 00:00:00 | |
| DM0DOS-11 | 2026-09-03 01:59:55 | 51.66521 | 7.05775 | 124° | 150km/h | 11438m | -5.3m/s | -55.1°C | 49.7% | 223.8hPa | 2.5V | 07:57:59 | 02:43:27 | 00:00:00 | |
| BIOWL1-15 | 2026-09-03 01:59:55 | 51.66456 | 7.05925 | 125° | 151km/h | 11423m | -5.5m/s | -55.1°C | 49.6% | 224.4hPa | 2.4V | 07:58:14 | 02:43:30 | 00:00:00 | |
| DL1XH-west | 2026-09-03 01:59:54 | 51.66434 | 7.05976 | 125° | 151km/h | 11418m | -5.2m/s | -55°C | 49.8% | 224.5hPa | 2.4V | 07:58:14 | 02:43:31 | 00:00:00 | |
| DO2JMG | 2026-09-03 01:59:48 | 51.66565 | 7.05674 | 125° | 151km/h | 11449m | -5.2m/s | -55.2°C | 48.7% | 223.4hPa | 2.4V | 07:58:14 | 02:43:25 | 00:00:00 | |
| AU51GT2 | 2026-09-03 01:59:48 | 51.66587 | 7.05624 | 125° | 150km/h | 11454m | -5.3m/s | -55.2°C | 41.4% | 223.2hPa | 2.4V | 00:00:00 | 00:00:00 | 00:00:00 | |
| DK5PH-5 | 2026-09-03 01:59:47 | 51.66587 | 7.05624 | 126° | 142km/h | 11454m | -5.3m/s | -55.1°C | 48.9% | 223.2hPa | 2.4V | 00:00:00 | 02:43:24 | 00:00:00 | |
| DL1XH-15 | 2026-09-03 01:59:46 | 51.66722 | 7.05329 | 126° | 148km/h | 11486m | -5.2m/s | -55.4°C | 48.4% | 222.1hPa | 2.4V | 07:58:08 | 02:43:18 | 00:00:00 | |
| DJ2KF-10 | 2026-09-03 01:59:46 | 51.66609 | 7.05574 | 126° | 144km/h | 11460m | -5.3m/s | -55.2°C | 48.8% | 223.0hPa | 2.4V | 00:00:00 | 02:43:23 | 00:00:00 | |
| DM0DOS-11 | 2026-09-03 01:59:45 | 51.66744 | 7.05280 | 126° | 148km/h | 11491m | -5.3m/s | -55.4°C | 48.3% | 221.9hPa | 2.4V | 07:58:09 | 02:43:17 | 00:00:00 | |
| BIOWL1-15 | 2026-09-03 01:59:43 | 51.66677 | 7.05426 | 127° | 150km/h | 11475m | -5.6m/s | -55.4°C | 47.8% | 222.5hPa | 2.5V | 07:58:14 | 02:43:20 | 00:00:00 | |
| DO2JMG | 2026-09-03 01:59:38 | 51.66788 | 7.05183 | 126° | 148km/h | 11502m | -5.1m/s | -55.5°C | 46.9% | 221.6hPa | 2.5V | 07:58:14 | 02:43:15 | 00:00:00 | |
| DD1CC1-15 | 2026-09-03 01:59:37 | 51.66788 | 7.05183 | 127° | 148km/h | 11502m | -5.1m/s | -55.5°C | 40.4% | 221.6hPa | 2.5V | 07:58:00 | 00:00:00 | 00:00:00 | |
| DL1XH-15 | 2026-09-03 01:59:36 | 51.66940 | 7.04850 | 126° | 144km/h | 11539m | -5.2m/s | -55.4°C | 46.8% | 220.3hPa | 2.5V | 07:58:18 | 02:43:08 | 00:00:00 | |
| DM0DOS-11 | 2026-09-03 01:59:35 | 51.66961 | 7.04803 | 126° | 144km/h | 11544m | -5.3m/s | -55.3°C | 46.4% | 220.2hPa | 2.4V | 07:58:19 | 02:43:07 | 00:00:00 | |
| DL1XH-west | 2026-09-03 01:59:33 | 51.66897 | 7.04945 | 126° | 144km/h | 11528m | -5.3m/s | -55.5°C | 46% | 220.7hPa | 2.4V | 07:59:05 | 02:43:10 | 00:00:00 | |
| DO2JMG | 2026-09-03 01:59:28 | 51.67004 | 7.04709 | 126° | 142km/h | 11555m | -5.2m/s | -55.1°C | 45.4% | 219.8hPa | 2.4V | 07:59:05 | 02:43:05 | 00:00:00 | |
| DB0NH | 2026-09-03 01:59:28 | 51.67004 | 7.04709 | 126° | 135km/h | 11555m | -5.2m/s | -55.1°C | 45.4% | 219.7hPa | 2.5V | 00:00:00 | 02:43:05 | 00:00:00 | |
| DO3DL | 2026-09-03 01:59:27 | 51.67004 | 7.04709 | 127° | 142km/h | 11555m | -5.2m/s | -55.1°C | 38.3% | 219.8hPa | 2.5V | 07:59:00 | 00:00:00 | 00:00:00 | |
| DL1XH-15 | 2026-09-03 01:59:26 | 51.67149 | 7.04385 | 125° | 139km/h | 11592m | -5.4m/s | -55.2°C | 45.7% | 218.5hPa | 2.5V | 07:58:28 | 02:42:58 | 00:00:00 | |
| HTAHTA | 2026-09-03 01:59:26 | 51.67067 | 7.04569 | 125° | 139km/h | 11570m | -5.1m/s | -55.2°C | 38.2% | 219.2hPa | 2.5V | 00:00:00 | 00:00:00 | 00:00:00 | |
| DM0DOS-11 | 2026-09-03 01:59:25 | 51.67169 | 7.04340 | 125° | 137km/h | 11597m | -5.5m/s | -55.2°C | 45.7% | 218.2hPa | 2.5V | 07:58:29 | 02:42:57 | 00:00:00 | |
| DL1XH-west | 2026-09-03 01:59:22 | 51.67128 | 7.04431 | 126° | 139km/h | 11586m | -5.7m/s | -55.2°C | 45.8% | 218.7hPa | 2.4V | 07:59:05 | 02:42:59 | 00:00:00 | |
| DO2JMG | 2026-09-03 01:59:17 | 51.67229 | 7.04203 | 125° | 135km/h | 11614m | -5.2m/s | -55.1°C | 45.9% | 217.7hPa | 2.4V | 07:59:05 | 02:42:54 | 00:00:00 | |
| AU51GT2 | 2026-09-03 01:59:17 | 51.67249 | 7.04158 | 124° | 135km/h | 11620m | -5.3m/s | -55.2°C | 38.3% | 217.5hPa | 2.4V | 00:00:00 | 00:00:00 | 00:00:00 | |
| DJ2KF-10 | 2026-09-03 01:59:16 | 51.67249 | 7.04158 | 125° | 130km/h | 11620m | -5.2m/s | -55.1°C | 45.5% | 217.5hPa | 2.4V | 00:00:00 | 02:42:53 | 00:00:00 | |
| DM0DOS-11 | 2026-09-03 01:59:15 | 51.67366 | 7.03887 | 124° | 135km/h | 11653m | -5.2m/s | -55.3°C | 45.7% | 216.5hPa | 2.4V | 07:58:39 | 02:42:47 | 00:00:00 | |
| BIOWL1-15 | 2026-09-03 01:59:14 | 51.67327 | 7.03977 | 125° | 135km/h | 11642m | -5.5m/s | -55.2°C | 46.2% | 216.8hPa | 2.4V | 07:59:05 | 02:42:49 | 00:00:00 | |
| DL1XH-west | 2026-09-03 01:59:11 | 51.67347 | 7.03932 | 125° | 135km/h | 11648m | -5.2m/s | -55.3°C | 46.2% | 216.7hPa | 2.4V | 07:59:05 | 02:42:48 | 00:00:00 | |
| DO2JMG | 2026-09-03 01:59:07 | 51.67423 | 7.03753 | 124° | 131km/h | 11669m | -5.4m/s | -55.3°C | 46.3% | 215.9hPa | 2.4V | 07:59:05 | 02:42:44 | 00:00:00 | |
| MET0W-2 | 2026-09-03 01:59:06 | 51.67460 | 7.03664 | 123° | 128km/h | 11680m | -5.6m/s | -55.4°C | 38.2% | 215.5hPa | 2.4V | 00:00:00 | 00:00:00 | 00:00:00 | |
| DM0DOS-11 | 2026-09-03 01:59:05 | 51.67548 | 7.03445 | 122° | 126km/h | 11707m | -5m/s | -55.5°C | 46.1% | 214.6hPa | 2.4V | 07:58:49 | 02:42:37 | 00:00:00 | |
| BIOWL1-15 | 2026-09-03 01:59:05 | 51.67514 | 7.03533 | 123° | 128km/h | 11697m | -5.5m/s | -55.4°C | 46.4% | 214.9hPa | 2.5V | 07:59:05 | 02:42:39 | 00:00:00 | |
| DL1XH-west | 2026-09-03 01:59:01 | 51.67531 | 7.03489 | 122° | 126km/h | 11702m | -5.5m/s | -55.5°C | 46.5% | 214.7hPa | 2.4V | 07:59:05 | 02:42:38 | 00:00:00 | |
| DO2JMG | 2026-09-03 01:58:56 | 51.67617 | 7.03270 | 122° | 128km/h | 11729m | -5.5m/s | -55.6°C | 46.9% | 213.9hPa | 2.4V | 07:59:05 | 02:42:33 | 00:00:00 | |
| DM0DOS-11 | 2026-09-03 01:58:55 | 51.67719 | 7.03010 | 122° | 124km/h | 11761m | -5.5m/s | -55.5°C | 47% | 212.8hPa | 2.4V | 07:58:59 | 02:42:27 | 00:00:00 | |
| BIOWL1-15 | 2026-09-03 01:58:51 | 51.67702 | 7.03053 | 122° | 126km/h | 11755m | -5.4m/s | -55.6°C | 47.5% | 213hPa | 2.5V | 07:59:05 | 02:42:28 | 00:00:00 | |
| DL1XH-west | 2026-09-03 01:58:50 | 51.67719 | 7.03010 | 122° | 124km/h | 11761m | -5.5m/s | -55.5°C | 47.5% | 212.8hPa | 2.4V | 07:59:05 | 02:42:27 | 00:00:00 | |
| BIOWL9-15 | 2026-09-03 01:58:48 | 51.67768 | 7.02882 | 120° | 122km/h | 11777m | -5.3m/s | -55.7°C | 40.1% | 212.2hPa | 2.5V | 00:00:00 | 00:00:00 | 00:00:00 | |
| BUE01 | 2026-09-03 01:58:47 | 51.67799 | 7.02796 | 119° | 120km/h | 11787m | -5.4m/s | -55.8°C | 40.3% | 211.9hPa | 2.5V | 00:00:00 | 00:00:00 | 00:00:00 | |
| DL1XH-15 | 2026-09-03 01:58:46 | 51.67858 | 7.02625 | 118° | 119km/h | 11808m | -5.1m/s | -55.9°C | 48.1% | 211.2hPa | 2.5V | 07:59:08 | 02:42:18 | 00:00:00 | |
| DO2JMG | 2026-09-03 01:58:46 | 51.67784 | 7.02839 | 120° | 122km/h | 11782m | -5.1m/s | -55.7°C | 48.3% | 212.1hPa | 2.5V | 07:59:05 | 02:42:23 | 00:00:00 | |
| AU51GT2 | 2026-09-03 01:58:46 | 51.67799 | 7.02796 | 119° | 120km/h | 11787m | -5.4m/s | -55.8°C | 40.3% | 211.9hPa | 2.5V | 00:00:00 | 00:00:00 | 00:00:00 | |
| BIOWL1-15 | 2026-09-03 01:58:41 | 51.67858 | 7.02625 | 119° | 119km/h | 11808m | -5.1m/s | -55.9°C | 49.2% | 211.2hPa | 2.5V | 07:59:56 | 02:42:18 | 00:00:00 | |
| DL1XH-west | 2026-09-03 01:58:39 | 51.67887 | 7.02540 | 119° | 119km/h | 11818m | -4.9m/s | -56°C | 49.4% | 210.9hPa | 2.5V | 07:59:56 | 02:42:16 | 00:00:00 | |
| SONCRA | 2026-09-03 01:58:39 | 51.67887 | 7.02540 | 119° | 119km/h | 11818m | -4.9m/s | -56.0°C | 40.6% | 210.9hPa | 2.4V | 00:00:00 | 00:00:00 | 00:00:00 | |
| WPPR-10 | 2026-09-03 01:58:37 | 51.67932 | 7.02413 | 119° | 119km/h | 11833m | -5.3m/s | -56.2°C | 40.7% | 210.4hPa | 2.4V | 00:00:00 | 00:00:00 | 00:00:00 | |
| DL1XH-15 | 2026-09-03 01:58:36 | 51.68004 | 7.02200 | 118° | 119km/h | 11859m | -5.4m/s | -56.4°C | 49.6% | 209.5hPa | 2.4V | 07:59:18 | 02:42:08 | 00:00:00 | |
| DO2JMG | 2026-09-03 01:58:36 | 51.67932 | 7.02413 | 119° | 119km/h | 11833m | -5.3m/s | -56.2°C | 49.8% | 210.4hPa | 2.4V | 07:59:56 | 02:42:13 | 00:00:00 | |
| DM0DOS-11 | 2026-09-03 01:58:35 | 51.68018 | 7.02158 | 117° | 119km/h | 11864m | -5.2m/s | -56.4°C | 49.9% | 209.3hPa | 2.4V | 07:59:19 | 02:42:07 | 00:00:00 | |
| BIOWL1-15 | 2026-09-03 01:58:30 | 51.68018 | 7.02158 | 118° | 119km/h | 11864m | -5.2m/s | -56.4°C | 50.7% | 209.3hPa | 2.4V | 07:59:56 | 02:42:07 | 00:00:00 | |
| DL1XH-west | 2026-09-03 01:58:29 | 51.68032 | 7.02116 | 118° | 119km/h | 11870m | -5.1m/s | -56.4°C | 50.8% | 209.2hPa | 2.5V | 07:59:56 | 02:42:06 | 00:00:00 | |
| DL3AQ-11 | 2026-09-03 01:58:29 | 51.68046 | 7.02073 | 117° | 117km/h | 11875m | -5.1m/s | -56.5°C | 42.2% | 209.0hPa | 2.4V | 00:00:00 | 00:00:00 | 00:00:00 | |
| DH3RM | 2026-09-03 01:58:27 | 51.68046 | 7.02073 | 119° | 117km/h | 11875m | -5.1m/s | -56.5°C | 42.2% | 209.0hPa | 2.4V | 07:59:00 | 00:00:00 | 00:00:00 | |
| DL1XH-15 | 2026-09-03 01:58:26 | 51.68140 | 7.01778 | 116° | 117km/h | 11911m | -5.3m/s | -56.8°C | 51.5% | 207.8hPa | 2.4V | 07:59:28 | 02:41:58 | 00:00:00 | |
| DM0DOS-11 | 2026-09-03 01:58:25 | 51.68153 | 7.01736 | 116° | 117km/h | 11916m | -5.2m/s | -56.9°C | 51.7% | 207.6hPa | 2.4V | 07:59:29 | 02:41:57 | 00:00:00 | |
| DO2JMG | 2026-09-03 01:58:25 | 51.68087 | 7.01946 | 117° | 117km/h | 11890m | -5.4m/s | -56.6°C | 51.3% | 208.5hPa | 2.4V | 07:59:56 | 02:42:02 | 00:00:00 | |
| BIOWL1-15 | 2026-09-03 01:58:19 | 51.68166 | 7.01694 | 117° | 115km/h | 11922m | -5.2m/s | -56.9°C | 52.2% | 207.5hPa | 2.4V | 07:59:56 | 02:41:56 | 00:00:00 | |
| DL1XH-west | 2026-09-03 01:58:18 | 51.68179 | 7.01652 | 116° | 117km/h | 11927m | -5.1m/s | -56.9°C | 52.4% | 207.2hPa | 2.4V | 07:59:56 | 02:41:55 | 00:00:00 | |
| BIOWL9-15 | 2026-09-03 01:58:17 | 51.68205 | 7.01567 | 116° | 115km/h | 11937m | -5.3m/s | -57.0°C | 44.1% | 206.9hPa | 2.5V | 00:00:00 | 00:00:00 | 00:00:00 | |
| DL1XH-15 | 2026-09-03 01:58:16 | 51.68270 | 7.01353 | 116° | 117km/h | 11963m | -5.3m/s | -57.3°C | 53.2% | 206.1hPa | 2.5V | 07:59:38 | 02:41:48 | 00:00:00 | |
| DJ2KF-10 | 2026-09-03 01:58:16 | 51.68205 | 7.01567 | 117° | 117km/h | 11937m | -5.3m/s | -57.0°C | 52.3% | 206.9hPa | 2.5V | 00:00:00 | 02:41:53 | 00:00:00 | |
| DM0DOS-11 | 2026-09-03 01:58:15 | 51.68283 | 7.01311 | 115° | 117km/h | 11969m | -5.5m/s | -57.3°C | 53.1% | 205.9hPa | 2.5V | 07:59:39 | 02:41:47 | 00:00:00 | |
| DO2JMG | 2026-09-03 01:58:14 | 51.68231 | 7.01482 | 116° | 117km/h | 11948m | -5.2m/s | -57.1°C | 52.9% | 206.6hPa | 2.4V | 07:59:56 | 02:41:51 | 00:00:00 | |
| BIOWL1-15 | 2026-09-03 01:58:09 | 51.68295 | 7.01268 | 115° | 117km/h | 11974m | -5.3m/s | -57.3°C | 53.4% | 205.7hPa | 2.4V | 07:59:56 | 02:41:46 | 00:00:00 | |
| DL1XH-west | 2026-09-03 01:58:07 | 51.68321 | 7.01183 | 116° | 117km/h | 11985m | -5.3m/s | -57.4°C | 53.6% | 205.4hPa | 2.4V | 07:59:56 | 02:41:44 | 00:00:00 | |
| DL1XH-15 | 2026-09-03 01:58:06 | 51.68395 | 7.00925 | 114° | 117km/h | 12016m | -5.2m/s | -57.7°C | 54.3% | 204.4hPa | 2.5V | 07:59:48 | 02:41:38 | 00:00:00 | |
| DO3DL | 2026-09-03 01:58:06 | 51.68333 | 7.01140 | 116° | 117km/h | 11991m | -5.4m/s | -57.5°C | 45.2% | 205.2hPa | 2.5V | 07:59:00 | 00:00:00 | 00:00:00 | |
| DM0DOS-11 | 2026-09-03 01:58:05 | 51.68407 | 7.00882 | 114° | 117km/h | 12022m | -5.2m/s | -57.8°C | 54.3% | 204.1hPa | 2.5V | 07:59:49 | 02:41:37 | 00:00:00 | |
| DO2JMG | 2026-09-03 01:58:03 | 51.68370 | 7.01011 | 115° | 117km/h | 12006m | -5.1m/s | -57.6°C | 54% | 204.7hPa | 2.4V | 07:59:56 | 02:41:40 | 00:00:00 | |
| BIOWL1-15 | 2026-09-03 01:57:58 | 51.68431 | 7.00795 | 114° | 117km/h | 12032m | -5.2m/s | -57.9°C | 54.3% | 203.8hPa | 2.4V | 07:59:56 | 02:41:35 | 00:00:00 | |
| DL1XH-west | 2026-09-03 01:57:57 | 51.68443 | 7.00752 | 114° | 117km/h | 12037m | -5.3m/s | -57.9°C | 54.3% | 203.7hPa | 2.4V | 07:59:56 | 02:41:34 | 00:00:00 | |
| DL1XH-15 | 2026-09-03 01:57:56 | 51.68513 | 7.00488 | 112° | 119km/h | 12069m | -5.4m/s | -58.2°C | 54.3% | 202.7hPa | 2.4V | 07:59:58 | 02:41:28 | 00:00:00 | |
| DM0DOS-11 | 2026-09-03 01:57:55 | 51.68525 | 7.00443 | 112° | 119km/h | 12075m | -5.4m/s | -58.2°C | 54.3% | 202.5hPa | 2.4V | 07:59:59 | 02:41:27 | 00:00:00 | |
| DO2JMG | 2026-09-03 01:57:53 | 51.68490 | 7.00576 | 113° | 117km/h | 12059m | -5.1m/s | -58.1°C | 54.3% | 203hPa | 2.5V | 07:59:56 | 02:41:30 | 00:00:00 | |
| BIOWL1-15 | 2026-09-03 01:57:48 | 51.68548 | 7.00354 | 112° | 119km/h | 12086m | -5.5m/s | -58.3°C | 54.1% | 202.2hPa | 2.5V | 08:00:47 | 02:41:25 | 00:00:00 | |
| DL1XH-west | 2026-09-03 01:57:47 | 51.68559 | 7.00309 | 112° | 120km/h | 12091m | -5.2m/s | -58.4°C | 54.1% | 201.9hPa | 2.5V | 08:00:47 | 02:41:24 | 00:00:00 | |
| BIOWL9-15 | 2026-09-03 01:57:46 | 51.68582 | 7.00218 | 112° | 119km/h | 12102m | -5.3m/s | -58.4°C | 45.7% | 201.6hPa | 2.4V | 00:00:00 | 00:00:00 | 00:00:00 | |
| DM0DOS-11 | 2026-09-03 01:57:45 | 51.68639 | 6.99991 | 111° | 120km/h | 12128m | -5.4m/s | -58.6°C | 54.4% | 200.7hPa | 2.4V | 08:00:09 | 02:41:17 | 00:00:00 | |
| DO2JMG | 2026-09-03 01:57:42 | 51.68616 | 7.00082 | 112° | 120km/h | 12118m | -5.3m/s | -58.5°C | 53.9% | 201.1hPa | 2.5V | 08:00:47 | 02:41:19 | 00:00:00 | |
| DL1XH-west | 2026-09-03 01:57:37 | 51.68673 | 6.99854 | 112° | 120km/h | 12144m | -5.3m/s | -58.7°C | 53.5% | 200.3hPa | 2.5V | 08:00:47 | 02:41:14 | 00:00:00 | |
| DL1XH-15 | 2026-09-03 01:57:36 | 51.68740 | 6.99576 | 111° | 124km/h | 12176m | -5.4m/s | -59°C | 53.7% | 199.2hPa | 2.5V | 08:00:18 | 02:41:08 | 00:00:00 | |
| DO2JMG | 2026-09-03 01:57:31 | 51.68740 | 6.99576 | 111° | 124km/h | 12176m | -5.4m/s | -59°C | 53% | 199.2hPa | 2.5V | 08:00:47 | 02:41:08 | 00:00:00 | |
| DK5PH-5 | 2026-09-03 01:57:31 | 51.68740 | 6.99576 | 112° | 131km/h | 12176m | -5.4m/s | -58.9°C | 53.7% | 199.2hPa | 2.5V | 00:00:00 | 02:41:08 | 00:00:00 | |
| GOEST3-10 | 2026-09-03 01:57:30 | 51.68752 | 6.99529 | 112° | 126km/h | 12182m | -5.3m/s | -59.0°C | 53.5% | 199.1hPa | 2.5V | 00:00:00 | 00:00:00 | 00:00:00 | |
| DJ3KS | 2026-09-03 01:57:28 | 51.68763 | 6.99481 | 112° | 126km/h | 12187m | -5.4m/s | -59.1°C | 44.6% | 198.9hPa | 2.5V | 08:00:00 | 00:00:00 | 00:00:00 | |
| DO2KSM | 2026-09-03 01:57:27 | 51.68775 | 6.99433 | 113° | 126km/h | 12192m | -5.2m/s | -59.1°C | 44.6% | 198.7hPa | 2.5V | 08:00:00 | 00:00:00 | 00:00:00 | |
| DL1XH-15 | 2026-09-03 01:57:26 | 51.68859 | 6.99098 | 112° | 128km/h | 12230m | -5.5m/s | -59.4°C | 52% | 197.6hPa | 2.5V | 08:00:28 | 02:40:58 | 00:00:00 | |
| DL1XH-west | 2026-09-03 01:57:26 | 51.68799 | 6.99338 | 112° | 126km/h | 12203m | -5.4m/s | -59.2°C | 52.3% | 198.4hPa | 2.5V | 08:00:47 | 02:41:03 | 00:00:00 | |
| DO2JMG | 2026-09-03 01:57:20 | 51.68871 | 6.99049 | 112° | 130km/h | 12236m | -5.5m/s | -59.4°C | 51% | 197.4hPa | 2.5V | 08:00:47 | 02:40:57 | 00:00:00 | |
| GOEST3-10 | 2026-09-03 01:57:19 | 51.68884 | 6.99001 | 113° | 130km/h | 12241m | -5.3m/s | -59.4°C | 51.7% | 197.1hPa | 2.4V | 00:00:00 | 00:00:00 | 00:00:00 | |
| DL1XH-15 | 2026-09-03 01:57:16 | 51.68986 | 6.98609 | 113° | 131km/h | 12285m | -5.4m/s | -59.7°C | 49.7% | 195.8hPa | 2.4V | 08:00:38 | 02:40:48 | 00:00:00 | |
| DL1XH-west | 2026-09-03 01:57:15 | 51.68934 | 6.98806 | 113° | 131km/h | 12263m | -5.5m/s | -59.6°C | 49.6% | 196.5hPa | 2.4V | 08:00:47 | 02:40:52 | 00:00:00 | |
| DO2JMG | 2026-09-03 01:57:07 | 51.69039 | 6.98412 | 114° | 131km/h | 12307m | -5.7m/s | -59.9°C | 47.5% | 195.2hPa | 2.4V | 08:00:47 | 02:40:44 | 00:00:00 | |
| BIOWL1-15 | 2026-09-03 01:57:05 | 51.69066 | 6.98314 | 114° | 131km/h | 12318m | -5.5m/s | -59.9°C | 46.9% | 194.8hPa | 2.4V | 08:00:47 | 02:40:42 | 00:00:00 | |
| DO2JMG | 2026-09-03 01:56:57 | 51.69176 | 6.97918 | 114° | 135km/h | 12363m | -5.6m/s | -60.2°C | 44% | 193.4hPa | 2.5V | 08:01:38 | 02:40:34 | 00:00:00 | |
| BIOWL1-15 | 2026-09-03 01:56:57 | 51.69204 | 6.97818 | 114° | 135km/h | 12375m | -5.6m/s | -60.3°C | 43.2% | 193hPa | 2.4V | 08:01:38 | 02:40:32 | 00:00:00 | |
| DL1XH-15 | 2026-09-03 01:56:56 | 51.69260 | 6.97617 | 114° | 137km/h | 12397m | -5.3m/s | -60.5°C | 43.2% | 192.3hPa | 2.5V | 08:00:58 | 02:40:28 | 00:00:00 | |
| DL1XH-west | 2026-09-03 01:56:54 | 51.69218 | 6.97768 | 114° | 135km/h | 12380m | -5.5m/s | -60.4°C | 42.7% | 192.9hPa | 2.4V | 08:01:38 | 02:40:31 | 00:00:00 | |
| DL4BBY-15 | 2026-09-03 01:56:54 | 51.69218 | 6.97768 | 115° | 133km/h | 12380m | -5.5m/s | -60.2°C | 0% | 0hPa | 2.4V | 00:00:00 | 00:00:00 | 00:00:00 | |
| DD1CC1-15 | 2026-09-03 01:56:53 | 51.69218 | 6.97768 | 115° | 135km/h | 12380m | -5.5m/s | -60.4°C | 35.9% | 192.9hPa | 2.4V | 08:01:00 | 00:00:00 | 00:00:00 | |
| DO9LL-15 | 2026-09-03 01:56:51 | 51.69260 | 6.97617 | 115° | 131km/h | 12397m | -5.3m/s | -60.5°C | 43.2% | 192.3hPa | 2.4V | 00:00:00 | 02:40:28 | 00:00:00 | |
| BIOWL7-15 | 2026-09-03 01:56:50 | 51.69260 | 6.97617 | 115° | 137km/h | 12397m | -5.3m/s | -60.5°C | 34.9% | 192.3hPa | 2.4V | 08:01:00 | 00:00:00 | 00:00:00 | |
| GOEST3-10 | 2026-09-03 01:56:49 | 51.69290 | 6.97516 | 116° | 139km/h | 12408m | -5.6m/s | -60.5°C | 42.1% | 192.0hPa | 2.4V | 00:00:00 | 00:00:00 | 00:00:00 | |
| DD1CC3-15 | 2026-09-03 01:56:48 | 51.69290 | 6.97516 | 116° | 137km/h | 12408m | -5.7m/s | -60.6°C | 33.9% | 192.0hPa | 2.4V | 08:01:00 | 00:00:00 | 00:00:00 | |
| DH3RM | 2026-09-03 01:56:47 | 51.69305 | 6.97466 | 117° | 139km/h | 12413m | -5.7m/s | -60.6°C | 33.3% | 191.8hPa | 2.4V | 08:01:00 | 00:00:00 | 00:00:00 | |
| DL1XH-15 | 2026-09-03 01:56:46 | 51.69413 | 6.97116 | 116° | 133km/h | 12453m | -5.4m/s | -60.9°C | 39.8% | 190.6hPa | 2.4V | 08:01:08 | 02:40:18 | 00:00:00 | |
| DO2JMG | 2026-09-03 01:56:46 | 51.69335 | 6.97364 | 116° | 139km/h | 12425m | -5.5m/s | -60.7°C | 38.4% | 191.4hPa | 2.5V | 08:01:38 | 02:40:23 | 00:00:00 | |
| BIOWL1-15 | 2026-09-03 01:56:45 | 51.69351 | 6.97314 | 117° | 139km/h | 12430m | -5.7m/s | -60.7°C | 37.9% | 191.3hPa | 2.5V | 08:01:38 | 02:40:22 | 00:00:00 | |
| DL1XH-west | 2026-09-03 01:56:44 | 51.69366 | 6.97264 | 117° | 137km/h | 12436m | -5.7m/s | -60.8°C | 37.3% | 191.1hPa | 2.4V | 08:01:38 | 02:40:21 | 00:00:00 | |
| GOEST3-10 | 2026-09-03 01:56:44 | 51.69366 | 6.97264 | 117° | 135km/h | 12436m | -5.6m/s | -60.7°C | 40.7% | 191.1hPa | 2.4V | 00:00:00 | 02:40:21 | 00:00:00 | |
| DL8DAS-14 | 2026-09-03 01:56:43 | 51.69382 | 6.97214 | 116° | 135km/h | 12441m | -5.7m/s | -60.8°C | 32.0% | 190.9hPa | 2.4V | 00:00:00 | 00:00:00 | 00:00:00 | |
| BUE01 | 2026-09-03 01:56:42 | 51.69398 | 6.97165 | 116° | 135km/h | 12447m | -5.8m/s | -60.8°C | 31.7% | 190.8hPa | 2.4V | 00:00:00 | 00:00:00 | 00:00:00 | |
| DH3RM | 2026-09-03 01:56:41 | 51.69398 | 6.97165 | 118° | 135km/h | 12447m | -5.8m/s | -60.8°C | 31.7% | 190.8hPa | 2.4V | 08:01:00 | 00:00:00 | 00:00:00 | |
| DC6BW-12 | 2026-09-03 01:56:40 | 51.69413 | 6.97116 | 118° | 133km/h | 12453m | -5.4m/s | -60.9°C | 31.6% | 190.6hPa | 2.4V | 08:01:00 | 00:00:00 | 00:00:00 | |
| GOEST3-10 | 2026-09-03 01:56:39 | 51.69443 | 6.97019 | 117° | 131km/h | 12464m | -5.9m/s | -60.8°C | 38.6% | 190.2hPa | 2.4V | 00:00:00 | 00:00:00 | 00:00:00 | |
| DL1XH-15 | 2026-09-03 01:56:36 | 51.69553 | 6.96635 | 113° | 128km/h | 12509m | -5.8m/s | -60.5°C | 32.4% | 188.9hPa | 2.4V | 08:01:18 | 02:40:08 | 00:00:00 | |
| DO2JMG | 2026-09-03 01:56:35 | 51.69500 | 6.96827 | 115° | 130km/h | 12486m | -5.3m/s | -60.8°C | 31.8% | 189.6hPa | 2.5V | 08:01:38 | 02:40:12 | 00:00:00 | |
| DL1XH-west | 2026-09-03 01:56:34 | 51.69513 | 6.96779 | 114° | 130km/h | 12492m | -5.4m/s | -60.7°C | 31% | 189.4hPa | 2.5V | 08:01:38 | 02:40:11 | 00:00:00 | |
| GOEST3-10 | 2026-09-03 01:56:34 | 51.69513 | 6.96779 | 115° | 128km/h | 12492m | -5.4m/s | -60.7°C | 34.9% | 189.4hPa | 2.4V | 00:00:00 | 02:40:11 | 00:00:00 | |
| DD1CC1-15 | 2026-09-03 01:56:32 | 51.69527 | 6.96731 | 115° | 130km/h | 12497m | -6.0m/s | -60.7°C | 26.3% | 189.3hPa | 2.4V | 08:01:00 | 00:00:00 | 00:00:00 | |
| DO3DL | 2026-09-03 01:56:31 | 51.69540 | 6.96683 | 115° | 130km/h | 12504m | -6.4m/s | -60.6°C | 25.8% | 189.1hPa | 2.4V | 08:01:00 | 00:00:00 | 00:00:00 | |
| DK5PH-5 | 2026-09-03 01:56:30 | 51.69566 | 6.96588 | 114° | 131km/h | 12515m | -5.3m/s | -60.2°C | 31.1% | 188.7hPa | 2.4V | 00:00:00 | 02:40:07 | 00:00:00 | |
| DL3AQ-11 | 2026-09-03 01:56:29 | 51.69591 | 6.96493 | 112° | 124km/h | 12526m | -5.7m/s | -59.9°C | 22.2% | 188.4hPa | 2.4V | 00:00:00 | 00:00:00 | 00:00:00 | |
| DD1CC3-15 | 2026-09-03 01:56:27 | 51.69591 | 6.96493 | 114° | 126km/h | 12526m | -5.7m/s | -59.9°C | 22.3% | 188.4hPa | 2.4V | 08:01:00 | 00:00:00 | 00:00:00 | |
| DL1XH-15 | 2026-09-03 01:56:26 | 51.69672 | 6.96157 | 110° | 130km/h | 12565m | -5.5m/s | -59.4°C | 26.3% | 187.2hPa | 2.4V | 08:01:28 | 02:39:58 | 00:00:00 | |
| BIOWL1-15 | 2026-09-03 01:56:26 | 51.69638 | 6.96303 | 111° | 126km/h | 12548m | -5.8m/s | -59.6°C | 25.4% | 187.7hPa | 2.5V | 08:01:38 | 02:40:01 | 00:00:00 | |
| DO2JMG | 2026-09-03 01:56:25 | 51.69626 | 6.96351 | 111° | 126km/h | 12543m | -5.4m/s | -59.6°C | 25.7% | 187.9hPa | 2.4V | 08:01:38 | 02:40:02 | 00:00:00 | |
| DL1XH-west | 2026-09-03 01:56:23 | 51.69649 | 6.96255 | 111° | 128km/h | 12554m | -5.8m/s | -59.6°C | 25.1% | 187.6hPa | 2.5V | 08:01:38 | 02:40:00 | 00:00:00 | |
| WEDDY | 2026-09-03 01:56:22 | 51.69649 | 6.96255 | 112° | 128km/h | 12554m | -5.8m/s | -59.6°C | 20.6% | 187.6hPa | 2.4V | 00:00:00 | 00:00:00 | 00:00:00 | |
| DO9LL-15 | 2026-09-03 01:56:21 | 51.69672 | 6.96157 | 111° | 135km/h | 12565m | -5.4m/s | -59.4°C | 26.3% | 187.2hPa | 2.4V | 08:01:00 | 02:39:58 | 00:00:00 | |
| DO1YAY-16 | 2026-09-03 01:56:20 | 51.69695 | 6.96057 | 110° | 130km/h | 12576m | -5.6m/s | -59.2°C | 19.2% | 186.9hPa | 2.5V | 00:00:00 | 00:00:00 | 00:00:00 | |
| GOEST3-10 | 2026-09-03 01:56:19 | 51.69695 | 6.96057 | 111° | 131km/h | 12576m | -5.5m/s | -59.2°C | 25.4% | 186.8hPa | 2.5V | 00:00:00 | 00:00:00 | 00:00:00 | |
| DO3DL | 2026-09-03 01:56:17 | 51.69706 | 6.96007 | 111° | 131km/h | 12582m | -5.7m/s | -59.2°C | 19.0% | 186.7hPa | 2.5V | 08:01:00 | 00:00:00 | 00:00:00 | |
| DL1XH-15 | 2026-09-03 01:56:16 | 51.69783 | 6.95652 | 109° | 133km/h | 12621m | -5.6m/s | -58.4°C | 23.4% | 185.5hPa | 2.5V | 08:01:38 | 02:39:48 | 00:00:00 | |
| DJ2KF-10 | 2026-09-03 01:56:16 | 51.69729 | 6.95906 | 110° | 135km/h | 12593m | -5.6m/s | -59.1°C | 25.0% | 186.3hPa | 2.4V | 00:00:00 | 02:39:53 | 00:00:00 | |
| DM0DOS-11 | 2026-09-03 01:56:15 | 51.69794 | 6.95601 | 109° | 133km/h | 12627m | -5.7m/s | -58.4°C | 23.4% | 185.3hPa | 2.4V | 08:01:39 | 02:39:47 | 00:00:00 | |
| DO2JMG | 2026-09-03 01:56:15 | 51.69740 | 6.95855 | 110° | 131km/h | 12598m | -5.7m/s | -59.1°C | 23.6% | 186.2hPa | 2.4V | 08:01:38 | 02:39:52 | 00:00:00 | |
| BIOWL1-15 | 2026-09-03 01:56:14 | 51.69751 | 6.95805 | 109° | 131km/h | 12604m | -5.8m/s | -58.9°C | 23.4% | 186hPa | 2.4V | 08:01:38 | 02:39:51 | 00:00:00 | |
| DL1XH-west | 2026-09-03 01:56:12 | 51.69772 | 6.95703 | 109° | 133km/h | 12616m | -5.7m/s | -58.5°C | 23.3% | 185.7hPa | 2.5V | 08:01:38 | 02:39:49 | 00:00:00 | |
| DD1CC1-15 | 2026-09-03 01:56:12 | 51.69772 | 6.95703 | 110° | 133km/h | 12616m | -5.7m/s | -58.5°C | 17.7% | 185.7hPa | 2.5V | 08:01:00 | 00:00:00 | 00:00:00 | |
| AU51GT2 | 2026-09-03 01:56:11 | 51.69794 | 6.95601 | 109° | 131km/h | 12627m | -5.7m/s | -58.4°C | 17.7% | 185.3hPa | 2.5V | 00:00:00 | 00:00:00 | 00:00:00 | |
| GOEST3-10 | 2026-09-03 01:56:09 | 51.69805 | 6.95550 | 110° | 133km/h | 12632m | -5.5m/s | -58.3°C | 23.5% | 185.1hPa | 2.5V | 00:00:00 | 00:00:00 | 00:00:00 | |
| BIOWL7-15 | 2026-09-03 01:56:08 | 51.69806 | 6.95550 | 110° | 133km/h | 12632m | -5.5m/s | -58.4°C | 17.7% | 185.2hPa | 2.5V | 08:02:00 | 00:00:00 | 00:00:00 | |
| DH3RM | 2026-09-03 01:56:07 | 51.69817 | 6.95499 | 110° | 133km/h | 12638m | -5.6m/s | -58.3°C | 17.6% | 185.0hPa | 2.5V | 08:02:00 | 00:00:00 | 00:00:00 | |
| DL1XH-15 | 2026-09-03 01:56:06 | 51.69896 | 6.95137 | 109° | 137km/h | 12677m | -5.6m/s | -58.5°C | 23.4% | 183.8hPa | 2.5V | 08:01:48 | 02:39:38 | 00:00:00 | |
| DM0DOS-11 | 2026-09-03 01:56:05 | 51.69907 | 6.95085 | 109° | 137km/h | 12683m | -5.9m/s | -58.5°C | 23.4% | 183.7hPa | 2.5V | 08:01:49 | 02:39:37 | 00:00:00 | |
| DO2JMG | 2026-09-03 01:56:05 | 51.69850 | 6.95345 | 109° | 135km/h | 12655m | -5.6m/s | -58.3°C | 23.5% | 184.5hPa | 2.4V | 08:02:29 | 02:39:42 | 00:00:00 | |
| BIOWL1-15 | 2026-09-03 01:56:03 | 51.69873 | 6.95242 | 110° | 135km/h | 12666m | -5.9m/s | -58.4°C | 23.5% | 184.2hPa | 2.4V | 08:02:29 | 02:39:40 | 00:00:00 | |
| DL1XH-west | 2026-09-03 01:56:01 | 51.69896 | 6.95137 | 109° | 137km/h | 12677m | -5.6m/s | -58.5°C | 23.5% | 183.8hPa | 2.5V | 08:02:29 | 02:39:38 | 00:00:00 | |
| MET0W-2 | 2026-09-03 01:56:00 | 51.69919 | 6.95032 | 109° | 137km/h | 12689m | -5.7m/s | -58.6°C | 17.6% | 183.6hPa | 2.5V | 00:00:00 | 00:00:00 | 00:00:00 | |
| DD1CC8 | 2026-09-03 01:55:58 | 51.69942 | 6.94926 | 109° | 137km/h | 12700m | -5.5m/s | -58.6°C | 17.7% | 183.2hPa | 2.5V | 00:00:00 | 00:00:00 | 00:00:00 | |
| DL1XH-15 | 2026-09-03 01:55:56 | 51.70008 | 6.94606 | 108° | 137km/h | 12734m | -5.9m/s | -58.9°C | 23.7% | 182.2hPa | 2.5V | 08:01:58 | 02:39:28 | 00:00:00 | |
| DM0DOS-11 | 2026-09-03 01:55:55 | 51.70020 | 6.94553 | 108° | 137km/h | 12739m | -5.9m/s | -58.9°C | 23.6% | 182.1hPa | 2.5V | 08:01:59 | 02:39:27 | 00:00:00 | |
| DO2JMG | 2026-09-03 01:55:54 | 51.69976 | 6.94766 | 109° | 139km/h | 12717m | -5.6m/s | -58.8°C | 23.3% | 182.7hPa | 2.5V | 08:02:29 | 02:39:31 | 00:00:00 | |
| BIOWL1-15 | 2026-09-03 01:55:53 | 51.69987 | 6.94712 | 109° | 139km/h | 12723m | -5.4m/s | -58.8°C | 23.2% | 182.6hPa | 2.4V | 08:02:29 | 02:39:30 | 00:00:00 | |
| DL1XH-west | 2026-09-03 01:55:51 | 51.70009 | 6.94606 | 108° | 137km/h | 12734m | -5.9m/s | -58.9°C | 23.1% | 182.2hPa | 2.5V | 08:02:29 | 02:39:28 | 00:00:00 | |
| DO1YAY-16 | 2026-09-03 01:55:49 | 51.70041 | 6.94448 | 108° | 135km/h | 12751m | -5.8m/s | -59.0°C | 17.6% | 181.7hPa | 2.4V | 00:00:00 | 00:00:00 | 00:00:00 | |
| HTAHTA | 2026-09-03 01:55:48 | 51.70041 | 6.94448 | 108° | 135km/h | 12751m | -5.8m/s | -59.0°C | 17.6% | 181.7hPa | 2.4V | 00:00:00 | 00:00:00 | 00:00:00 | |
| DH3RM | 2026-09-03 01:55:47 | 51.70041 | 6.94448 | 110° | 135km/h | 12751m | -5.8m/s | -59.0°C | 17.6% | 181.7hPa | 2.4V | 08:02:00 | 00:00:00 | 00:00:00 | |
| DL1XH-15 | 2026-09-03 01:55:46 | 51.70118 | 6.94082 | 109° | 137km/h | 12792m | -5.8m/s | -59.3°C | 23% | 180.6hPa | 2.4V | 08:02:08 | 02:39:18 | 00:00:00 | |
| DJ2KF-10 | 2026-09-03 01:55:46 | 51.70062 | 6.94344 | 109° | 135km/h | 12763m | -5.8m/s | -59.0°C | 23.4% | 181.4hPa | 2.4V | 00:00:00 | 02:39:23 | 00:00:00 | |
| DM0DOS-11 | 2026-09-03 01:55:45 | 51.70130 | 6.94029 | 109° | 137km/h | 12798m | -5.9m/s | -59.3°C | 22.9% | 180.4hPa | 2.5V | 08:02:09 | 02:39:17 | 00:00:00 | |
| BIOWL1-15 | 2026-09-03 01:55:45 | 51.70096 | 6.94187 | 109° | 137km/h | 12780m | -5.8m/s | -59.2°C | 22.1% | 180.9hPa | 2.5V | 08:02:29 | 02:39:20 | 00:00:00 | |
| DO2JMG | 2026-09-03 01:55:44 | 51.70085 | 6.94240 | 109° | 137km/h | 12774m | -5.9m/s | -59.2°C | 22.4% | 181.1hPa | 2.5V | 08:02:29 | 02:39:21 | 00:00:00 | |
| DL1XH-west | 2026-09-03 01:55:40 | 51.70130 | 6.94029 | 109° | 137km/h | 12798m | -5.9m/s | -59.3°C | 21.5% | 180.4hPa | 2.5V | 08:02:29 | 02:39:17 | 00:00:00 | |
| GOEST3-10 | 2026-09-03 01:55:39 | 51.70141 | 6.93977 | 110° | 135km/h | 12804m | -5.6m/s | -59.3°C | 22.9% | 180.2hPa | 2.4V | 00:00:00 | 00:00:00 | 00:00:00 | |
| DL3AQ-11 | 2026-09-03 01:55:38 | 51.70165 | 6.93873 | 110° | 133km/h | 12815m | -5.9m/s | -59.4°C | 16.7% | 179.9hPa | 2.4V | 00:00:00 | 00:00:00 | 00:00:00 | |
| DL1XH-15 | 2026-09-03 01:55:36 | 51.70236 | 6.93566 | 110° | 135km/h | 12849m | -5.6m/s | -58.6°C | 20.2% | 179hPa | 2.4V | 08:02:18 | 02:39:08 | 00:00:00 | |
| DM0DOS-11 | 2026-09-03 01:55:35 | 51.70248 | 6.93515 | 111° | 137km/h | 12854m | -5.4m/s | -58.6°C | 19.9% | 178.8hPa | 2.4V | 08:02:19 | 02:39:07 | 00:00:00 | |
| DO2JMG | 2026-09-03 01:55:33 | 51.70212 | 6.93668 | 111° | 133km/h | 12838m | -5.6m/s | -58.8°C | 19.7% | 179.3hPa | 2.5V | 08:02:29 | 02:39:10 | 00:00:00 | |
| BIOWL1-15 | 2026-09-03 01:55:32 | 51.70224 | 6.93617 | 111° | 135km/h | 12843m | -5.5m/s | -58.6°C | 19.4% | 179.1hPa | 2.5V | 08:02:29 | 02:39:09 | 00:00:00 | |
| DL1XH-west | 2026-09-03 01:55:30 | 51.70248 | 6.93515 | 111° | 137km/h | 12854m | -5.4m/s | -58.6°C | 18.6% | 178.8hPa | 2.4V | 08:02:29 | 02:39:07 | 00:00:00 | |
| GOEST3-10 | 2026-09-03 01:55:29 | 51.70260 | 6.93463 | 112° | 137km/h | 12860m | -5.5m/s | -58.6°C | 19.6% | 178.6hPa | 2.4V | 08:02:00 | 00:00:00 | 00:00:00 | |
| DH3RM | 2026-09-03 01:55:28 | 51.70260 | 6.93463 | 112° | 137km/h | 12860m | -5.5m/s | -58.7°C | 14.2% | 178.6hPa | 2.5V | 08:02:00 | 00:00:00 | 00:00:00 | |
| DL1XH-15 | 2026-09-03 01:55:26 | 51.70367 | 6.93052 | 113° | 133km/h | 12906m | -5.5m/s | -58.5°C | 17% | 177.3hPa | 2.5V | 08:02:28 | 02:38:58 | 00:00:00 | |
| DK5PH-5 | 2026-09-03 01:55:26 | 51.70299 | 6.93307 | 113° | 131km/h | 12877m | -5.5m/s | -58.7°C | 18.8% | 178.1hPa | 2.4V | 00:00:00 | 02:39:03 | 00:00:00 | |
| DM0DOS-11 | 2026-09-03 01:55:25 | 51.70380 | 6.93003 | 113° | 133km/h | 12911m | -5.3m/s | -58.4°C | 16.7% | 177.2hPa | 2.4V | 08:02:29 | 02:38:57 | 00:00:00 | |
| DO2JMG | 2026-09-03 01:55:23 | 51.70339 | 6.93153 | 113° | 135km/h | 12894m | -6.1m/s | -58.6°C | 16% | 177.7hPa | 2.5V | 08:02:29 | 02:39:00 | 00:00:00 | |
| BIOWL1-15 | 2026-09-03 01:55:21 | 51.70367 | 6.93052 | 114° | 133km/h | 12906m | -5.5m/s | -58.5°C | 15.2% | 177.3hPa | 2.5V | 08:02:29 | 02:38:58 | 00:00:00 | |
| DL1XH-west | 2026-09-03 01:55:19 | 51.70394 | 6.92953 | 113° | 131km/h | 12916m | -5.6m/s | -58.4°C | 14.6% | 177hPa | 2.4V | 08:03:20 | 02:38:56 | 00:00:00 | |
| GOEST3-10 | 2026-09-03 01:55:18 | 51.70407 | 6.92904 | 114° | 131km/h | 12922m | -5.7m/s | -58.2°C | 15.8% | 176.8hPa | 2.5V | 00:00:00 | 00:00:00 | 00:00:00 | |
| HTAHTA | 2026-09-03 01:55:17 | 51.70420 | 6.92855 | 112° | 130km/h | 12928m | -5.9m/s | -58.2°C | 10.6% | 176.7hPa | 2.5V | 00:00:00 | 00:00:00 | 00:00:00 | |
| DL1XH-15 | 2026-09-03 01:55:16 | 51.70495 | 6.92558 | 111° | 131km/h | 12962m | -5.9m/s | -58.1°C | 14.3% | 175.8hPa | 2.5V | 08:02:38 | 02:38:48 | 00:00:00 | |
| DJ2KF-10 | 2026-09-03 01:55:16 | 51.70433 | 6.92806 | 113° | 131km/h | 12934m | -5.8m/s | -58.1°C | 15.2% | 176.5hPa | 2.5V | 00:00:00 | 02:38:53 | 00:00:00 | |
| DM0DOS-11 | 2026-09-03 01:55:15 | 51.70507 | 6.92508 | 111° | 133km/h | 12968m | -5.8m/s | -58.1°C | 14.1% | 175.6hPa | 2.5V | 08:02:39 | 02:38:47 | 00:00:00 | |
| DO2JMG | 2026-09-03 01:55:12 | 51.70483 | 6.92608 | 112° | 133km/h | 12956m | -5.9m/s | -58.2°C | 12.6% | 175.9hPa | 2.4V | 08:03:20 | 02:38:49 | 00:00:00 | |
| BIOWL1-15 | 2026-09-03 01:55:12 | 51.70508 | 6.92508 | 112° | 133km/h | 12968m | -5.8m/s | -58.1°C | 12.1% | 175.6hPa | 2.5V | 08:03:20 | 02:38:47 | 00:00:00 | |
| DL1XH-west | 2026-09-03 01:55:09 | 51.70520 | 6.92458 | 112° | 133km/h | 12974m | -5.5m/s | -58.1°C | 11.8% | 175.4hPa | 2.4V | 08:03:20 | 02:38:46 | 00:00:00 | |
| BUE01 | 2026-09-03 01:55:09 | 51.70520 | 6.92458 | 112° | 131km/h | 12974m | -5.5m/s | -58.1°C | 9.3% | 175.4hPa | 2.4V | 00:00:00 | 00:00:00 | 00:00:00 | |
| GOEST3-10 | 2026-09-03 01:55:08 | 51.70532 | 6.92408 | 112° | 130km/h | 12979m | -5.5m/s | -57.9°C | 13.6% | 175.2hPa | 2.4V | 00:00:00 | 00:00:00 | 00:00:00 | |
| DH3RM | 2026-09-03 01:55:07 | 51.70532 | 6.92408 | 113° | 131km/h | 12979m | -5.5m/s | -57.9°C | 9.0% | 175.3hPa | 2.4V | 00:00:00 | 00:00:00 | 00:00:00 | |
| DL1XH-15 | 2026-09-03 01:55:06 | 51.70616 | 6.92065 | 109° | 128km/h | 13019m | -5.8m/s | -57.6°C | 11.8% | 174.2hPa | 2.4V | 08:02:48 | 02:38:38 | 00:00:00 | |
| DM0DOS-11 | 2026-09-03 01:55:05 | 51.70627 | 6.92016 | 109° | 130km/h | 13025m | -5.8m/s | -57.6°C | 11.6% | 174hPa | 2.4V | 08:02:49 | 02:38:37 | 00:00:00 | |
| DO2JMG | 2026-09-03 01:55:02 | 51.70605 | 6.92114 | 111° | 128km/h | 13013m | -5.9m/s | -57.7°C | 10% | 174.4hPa | 2.4V | 08:03:20 | 02:38:39 | 00:00:00 | |
| BIOWL1-15 | 2026-09-03 01:54:59 | 51.70638 | 6.91966 | 108° | 130km/h | 13031m | -5.8m/s | -57.6°C | 9.2% | 173.9hPa | 2.5V | 08:03:20 | 02:38:36 | 00:00:00 | |
| DL1XH-west | 2026-09-03 01:54:58 | 51.70648 | 6.91916 | 108° | 131km/h | 13036m | -5.8m/s | -57.5°C | 8.9% | 173.7hPa | 2.5V | 08:03:20 | 02:38:35 | 00:00:00 | |
| MET0W-2 | 2026-09-03 01:54:58 | 51.70658 | 6.91865 | 107° | 131km/h | 13042m | -6.0m/s | -57.4°C | 6.8% | 173.6hPa | 2.4V | 00:00:00 | 00:00:00 | 00:00:00 | |
| DL3AQ-11 | 2026-09-03 01:54:57 | 51.70658 | 6.91865 | 107° | 131km/h | 13042m | -6.0m/s | -57.4°C | 6.8% | 173.6hPa | 2.4V | 00:00:00 | 00:00:00 | 00:00:00 | |
| DK5PH-5 | 2026-09-03 01:54:56 | 51.70668 | 6.91814 | 108° | 128km/h | 13048m | -6.0m/s | -57.3°C | 10.7% | 173.4hPa | 2.4V | 00:00:00 | 02:38:33 | 00:00:00 | |
| DM0DOS-11 | 2026-09-03 01:54:55 | 51.70734 | 6.91506 | 111° | 133km/h | 13083m | -5.8m/s | -57.2°C | 10% | 172.4hPa | 2.4V | 08:02:59 | 02:38:27 | 00:00:00 | |
| DO2JMG | 2026-09-03 01:54:52 | 51.70710 | 6.91607 | 110° | 133km/h | 13071m | -6m/s | -57.3°C | 7.6% | 172.8hPa | 2.4V | 08:03:20 | 02:38:29 | 00:00:00 | |
| BIOWL1-15 | 2026-09-03 01:54:50 | 51.70759 | 6.91406 | 113° | 131km/h | 13094m | -5.2m/s | -57.1°C | 6.6% | 172.1hPa | 2.5V | 08:03:20 | 02:38:25 | 00:00:00 | |
| DL1XH-west | 2026-09-03 01:54:47 | 51.70772 | 6.91357 | 113° | 130km/h | 13100m | -5.6m/s | -57°C | 6.4% | 172hPa | 2.5V | 08:03:20 | 02:38:24 | 00:00:00 | |
| HTAHTA | 2026-09-03 01:54:46 | 51.70785 | 6.91309 | 113° | 128km/h | 13105m | -5.8m/s | -57.0°C | 5.3% | 171.9hPa | 2.4V | 00:00:00 | 00:00:00 | 00:00:00 | |
| DO2JMG | 2026-09-03 01:54:41 | 51.70849 | 6.91074 | 114° | 124km/h | 13134m | -5.8m/s | -56.7°C | 5.3% | 171hPa | 2.4V | 08:03:20 | 02:38:18 | 00:00:00 | |
| BIOWL1-15 | 2026-09-03 01:54:37 | 51.70900 | 6.90892 | 115° | 122km/h | 13156m | -5.5m/s | -56.1°C | 4.5% | 170.4hPa | 2.5V | 08:03:20 | 02:38:14 | 00:00:00 | |
| DL1XH-west | 2026-09-03 01:54:36 | 51.70913 | 6.90847 | 115° | 122km/h | 13162m | -5.8m/s | -55.8°C | 4.4% | 170.3hPa | 2.5V | 08:03:20 | 02:38:13 | 00:00:00 | |
| DM0DOS-11 | 2026-09-03 01:54:35 | 51.70994 | 6.90573 | 115° | 126km/h | 13196m | -6m/s | -54.5°C | 6.4% | 169.4hPa | 2.4V | 08:03:19 | 02:38:07 | 00:00:00 | |
| DO2JMG | 2026-09-03 01:54:31 | 51.70980 | 6.90619 | 115° | 124km/h | 13191m | -5.8m/s | -54.7°C | 3.8% | 169.5hPa | 2.5V | 08:03:20 | 02:38:08 | 00:00:00 | |
| BIOWL1-15 | 2026-09-03 01:54:26 | 51.71048 | 6.90390 | 116° | 122km/h | 13220m | -5.5m/s | -54°C | 3.5% | 168.8hPa | 2.5V | 08:04:11 | 02:38:03 | 00:00:00 | |
| DK5PH-5 | 2026-09-03 01:54:26 | 51.71048 | 6.90390 | 116° | 117km/h | 13220m | -5.5m/s | -54.0°C | 6.1% | 168.7hPa | 2.5V | 00:00:00 | 02:38:03 | 00:00:00 | |
| DM0DOS-11 | 2026-09-03 01:54:25 | 51.71131 | 6.90124 | 117° | 120km/h | 13254m | -5.8m/s | -54.1°C | 6.1% | 167.8hPa | 2.5V | 08:03:29 | 02:37:57 | 00:00:00 | |
| DL1XH-west | 2026-09-03 01:54:25 | 51.71062 | 6.90345 | 116° | 122km/h | 13225m | -5.7m/s | -53.9°C | 3.4% | 168.6hPa | 2.5V | 08:04:11 | 02:38:02 | 00:00:00 | |
| DO2JMG | 2026-09-03 01:54:20 | 51.71131 | 6.90124 | 117° | 120km/h | 13254m | -5.8m/s | -54.1°C | 3.5% | 167.8hPa | 2.5V | 08:04:11 | 02:37:57 | 00:00:00 | |
| BIOWL1-15 | 2026-09-03 01:54:18 | 51.71188 | 6.89950 | 119° | 119km/h | 13278m | -5.9m/s | -54.3°C | 3.4% | 167.3hPa | 2.5V | 08:04:11 | 02:37:53 | 00:00:00 | |
| DL1XH-west | 2026-09-03 01:54:14 | 51.71216 | 6.89866 | 119° | 117km/h | 13290m | -6.1m/s | -54.2°C | 3.4% | 166.9hPa | 2.5V | 08:04:11 | 02:37:51 | 00:00:00 | |
| DL1XH-15 | 2026-09-03 01:54:13 | 51.71259 | 6.89742 | 119° | 115km/h | 13308m | -5.9m/s | -54°C | 5.9% | 166.4hPa | 2.5V | 08:03:38 | 02:37:48 | 00:00:00 | |
| DO2JMG | 2026-09-03 01:54:10 | 51.71273 | 6.89702 | 120° | 113km/h | 13313m | -5.8m/s | -54°C | 3.3% | 166.3hPa | 2.5V | 08:04:11 | 02:37:47 | 00:00:00 | |
| BIOWL1-15 | 2026-09-03 01:54:06 | 51.71331 | 6.89542 | 121° | 113km/h | 13337m | -6m/s | -54.1°C | 3.4% | 165.7hPa | 2.5V | 08:04:11 | 02:37:43 | 00:00:00 | |
| DM0DOS-11 | 2026-09-03 01:54:05 | 51.71416 | 6.89302 | 119° | 111km/h | 13373m | -6m/s | -54°C | 5.9% | 164.8hPa | 2.4V | 08:03:49 | 02:37:37 | 00:00:00 | |
| DL1XH-west | 2026-09-03 01:54:03 | 51.71374 | 6.89422 | 120° | 113km/h | 13355m | -6.1m/s | -54°C | 3.4% | 165.3hPa | 2.5V | 08:04:11 | 02:37:40 | 00:00:00 | |
| DL1XH-15 | 2026-09-03 01:54:01 | 51.71403 | 6.89342 | 119° | 111km/h | 13367m | -6m/s | -53.9°C | 5.9% | 164.9hPa | 2.5V | 08:03:48 | 02:37:38 | 00:00:00 | |
| DO2JMG | 2026-09-03 01:54:00 | 51.71417 | 6.89303 | 120° | 111km/h | 13373m | -6m/s | -54°C | 3.4% | 164.8hPa | 2.4V | 08:04:11 | 02:37:37 | 00:00:00 | |
| SONCRA | 2026-09-03 01:53:59 | 51.71430 | 6.89263 | 119° | 110km/h | 13379m | -5.9m/s | -54.0°C | 3.1% | 164.6hPa | 2.4V | 00:00:00 | 00:00:00 | 00:00:00 | |
| WPPR-10 | 2026-09-03 01:53:57 | 51.71458 | 6.89186 | 119° | 108km/h | 13391m | -6.0m/s | -54.1°C | 3.1% | 164.3hPa | 2.4V | 00:00:00 | 00:00:00 | 00:00:00 | |
| DL1XH-15 | 2026-09-03 01:53:56 | 51.71539 | 6.88961 | 119° | 106km/h | 13427m | -6.1m/s | -54.2°C | 6% | 163.4hPa | 2.4V | 08:03:58 | 02:37:28 | 00:00:00 | |
| GOEST3-10 | 2026-09-03 01:53:56 | 51.71471 | 6.89148 | 121° | 106km/h | 13397m | -6.1m/s | -54.1°C | 6.0% | 164.1hPa | 2.4V | 08:03:00 | 00:00:00 | 00:00:00 | |
| DM0DOS-11 | 2026-09-03 01:53:55 | 51.71552 | 6.88923 | 119° | 106km/h | 13433m | -6.2m/s | -54.2°C | 6.1% | 163.3hPa | 2.5V | 08:03:59 | 02:37:27 | 00:00:00 | |
| BIOWL1-15 | 2026-09-03 01:53:55 | 51.71485 | 6.89110 | 120° | 106km/h | 13403m | -5.9m/s | -54.2°C | 3.4% | 164hPa | 2.5V | 08:04:11 | 02:37:32 | 00:00:00 | |
| DL1XH-west | 2026-09-03 01:53:52 | 51.71525 | 6.88998 | 120° | 106km/h | 13421m | -6.2m/s | -54.2°C | 3.5% | 163.6hPa | 2.5V | 08:04:11 | 02:37:29 | 00:00:00 | |
| DO2JMG | 2026-09-03 01:53:49 | 51.71565 | 6.88886 | 119° | 106km/h | 13440m | -5.9m/s | -54.2°C | 3.7% | 163.1hPa | 2.5V | 08:04:11 | 02:37:26 | 00:00:00 | |
| DD1CC1-15 | 2026-09-03 01:53:48 | 51.71565 | 6.88886 | 120° | 106km/h | 13440m | -5.9m/s | -54.2°C | 3.2% | 163.1hPa | 2.5V | 08:04:00 | 00:00:00 | 00:00:00 | |
| DJ2KF-10 | 2026-09-03 01:53:46 | 51.71603 | 6.88772 | 118° | 99km/h | 13458m | -6.2m/s | -54.2°C | 6.1% | 162.6hPa | 2.5V | 00:00:00 | 02:37:23 | 00:00:00 | |
| DM0DOS-11 | 2026-09-03 01:53:45 | 51.71675 | 6.88546 | 116° | 102km/h | 13494m | -6.4m/s | -54.4°C | 6.2% | 161.7hPa | 2.5V | 08:04:09 | 02:37:17 | 00:00:00 | |
| BIOWL1-15 | 2026-09-03 01:53:44 | 51.71628 | 6.88697 | 118° | 104km/h | 13470m | -6.1m/s | -54.3°C | 3.6% | 162.3hPa | 2.5V | 08:04:11 | 02:37:21 | 00:00:00 | |
| DL1XH-15 | 2026-09-03 01:53:43 | 51.71663 | 6.88584 | 116° | 102km/h | 13488m | -6.2m/s | -54.4°C | 6% | 161.9hPa | 2.5V | 08:04:08 | 02:37:18 | 00:00:00 | |
| DL1XH-west | 2026-09-03 01:53:42 | 51.71652 | 6.88621 | 117° | 104km/h | 13482m | -6.2m/s | -54.4°C | 3.6% | 162hPa | 2.5V | 08:04:11 | 02:37:19 | 00:00:00 | |
| DO2JMG | 2026-09-03 01:53:38 | 51.71698 | 6.88472 | 116° | 100km/h | 13506m | -6.2m/s | -54.5°C | 3.5% | 161.4hPa | 2.5V | 08:04:11 | 02:37:15 | 00:00:00 | |
| BIOWL1-15 | 2026-09-03 01:53:36 | 51.71741 | 6.88326 | 115° | 99km/h | 13531m | -6.2m/s | -54.4°C | 3.8% | 160.8hPa | 2.5V | 08:05:02 | 02:37:11 | 00:00:00 | |
| DM0DOS-11 | 2026-09-03 01:53:35 | 51.71783 | 6.88180 | 114° | 99km/h | 13555m | -6.2m/s | -54.5°C | 6.2% | 160.2hPa | 2.6V | 08:04:19 | 02:37:07 | 00:00:00 | |
| DL1XH-15 | 2026-09-03 01:53:31 | 51.71772 | 6.88217 | 114° | 99km/h | 13549m | -5.9m/s | -54.5°C | 6.1% | 160.4hPa | 2.5V | 08:04:18 | 02:37:08 | 00:00:00 | |
| DL1XH-west | 2026-09-03 01:53:31 | 51.71772 | 6.88217 | 115° | 99km/h | 13549m | -5.9m/s | -54.5°C | 3.6% | 160.4hPa | 2.5V | 08:05:02 | 02:37:08 | 00:00:00 | |
| DO2JMG | 2026-09-03 01:53:28 | 51.71803 | 6.88107 | 114° | 99km/h | 13568m | -6.2m/s | -54.5°C | 3.7% | 159.9hPa | 2.4V | 08:05:02 | 02:37:05 | 00:00:00 | |
| GOEST3-10 | 2026-09-03 01:53:27 | 51.71813 | 6.88071 | 114° | 97km/h | 13574m | -6.2m/s | -54.5°C | 6.1% | 159.7hPa | 2.5V | 00:00:00 | 00:00:00 | 00:00:00 | |
| DK5PH-5 | 2026-09-03 01:53:26 | 51.71822 | 6.88034 | 113° | 97km/h | 13580m | -6.2m/s | -54.5°C | 6.2% | 159.5hPa | 2.5V | 00:00:00 | 02:37:03 | 00:00:00 | |
| DM0DOS-11 | 2026-09-03 01:53:25 | 51.71876 | 6.87814 | 109° | 95km/h | 13617m | -6.3m/s | -54.7°C | 6.2% | 158.6hPa | 2.5V | 08:04:29 | 02:36:57 | 00:00:00 | |
| DL1XH-15 | 2026-09-03 01:53:25 | 51.71867 | 6.87851 | 110° | 95km/h | 13611m | -6.2m/s | -54.6°C | 6.2% | 158.8hPa | 2.5V | 08:04:28 | 02:36:58 | 00:00:00 | |
| BIOWL1-15 | 2026-09-03 01:53:25 | 51.71850 | 6.87924 | 111° | 97km/h | 13598m | -6.3m/s | -54.6°C | 3.8% | 159.1hPa | 2.5V | 08:05:02 | 02:37:00 | 00:00:00 | |
| DL1XH-west | 2026-09-03 01:53:20 | 51.71876 | 6.87814 | 110° | 95km/h | 13617m | -6.3m/s | -54.7°C | 3.7% | 158.6hPa | 2.5V | 08:05:02 | 02:36:57 | 00:00:00 | |
| DO2JMG | 2026-09-03 01:53:17 | 51.71900 | 6.87704 | 110° | 95km/h | 13636m | -6.4m/s | -54.7°C | 3.6% | 158.2hPa | 2.5V | 08:05:02 | 02:36:54 | 00:00:00 | |
| GOEST3-10 | 2026-09-03 01:53:17 | 51.71900 | 6.87704 | 110° | 95km/h | 13636m | -6.3m/s | -54.7°C | 6.2% | 158.1hPa | 2.5V | 00:00:00 | 00:00:00 | 00:00:00 | |
| DJ2KF-10 | 2026-09-03 01:53:16 | 51.71908 | 6.87668 | 110° | 97km/h | 13642m | -6.2m/s | -54.7°C | 6.4% | 158.0hPa | 2.5V | 00:00:00 | 02:36:53 | 00:00:00 | |
| DM0DOS-11 | 2026-09-03 01:53:15 | 51.71958 | 6.87450 | 110° | 95km/h | 13680m | -6.2m/s | -54.8°C | 6.4% | 157.1hPa | 2.5V | 08:04:39 | 02:36:47 | 00:00:00 | |
| DL1XH-15 | 2026-09-03 01:53:13 | 51.71949 | 6.87487 | 110° | 95km/h | 13673m | -6.2m/s | -54.8°C | 6.3% | 157.3hPa | 2.4V | 08:04:38 | 02:36:48 | 00:00:00 | |
| BIOWL1-15 | 2026-09-03 01:53:12 | 51.71941 | 6.87523 | 110° | 95km/h | 13667m | -6.4m/s | -54.8°C | 3.7% | 157.4hPa | 2.5V | 08:05:02 | 02:36:49 | 00:00:00 | |
| DL1XH-west | 2026-09-03 01:53:09 | 51.71966 | 6.87414 | 110° | 97km/h | 13686m | -6.4m/s | -54.8°C | 3.6% | 156.9hPa | 2.5V | 08:05:02 | 02:36:46 | 00:00:00 | |
| DO2JMG | 2026-09-03 01:53:07 | 51.71984 | 6.87340 | 111° | 99km/h | 13699m | -6.2m/s | -54.9°C | 3.9% | 156.6hPa | 2.5V | 08:05:02 | 02:36:44 | 00:00:00 | |
| GOEST3-10 | 2026-09-03 01:53:07 | 51.71984 | 6.87340 | 111° | 99km/h | 13699m | -6.1m/s | -54.8°C | 6.5% | 156.6hPa | 2.5V | 00:00:00 | 00:00:00 | 00:00:00 | |
| DL8DAS-14 | 2026-09-03 01:53:06 | 51.72001 | 6.87266 | 111° | 99km/h | 13711m | -6.4m/s | -54.8°C | 3.3% | 156.3hPa | 2.5V | 00:00:00 | 00:00:00 | 00:00:00 | |
| DM0DOS-11 | 2026-09-03 01:53:05 | 51.72048 | 6.87076 | 112° | 100km/h | 13743m | -6.2m/s | -54.9°C | 6.4% | 155.6hPa | 2.5V | 08:04:49 | 02:36:37 | 00:00:00 | |
| BIOWL1-15 | 2026-09-03 01:53:03 | 51.72029 | 6.87152 | 112° | 100km/h | 13730m | -6.3m/s | -54.9°C | 3.8% | 155.9hPa | 2.5V | 08:05:02 | 02:36:39 | 00:00:00 | |
| DL1XH-15 | 2026-09-03 01:53:01 | 51.72038 | 6.87114 | 111° | 100km/h | 13737m | -6.3m/s | -54.9°C | 6.3% | 155.7hPa | 2.4V | 08:04:48 | 02:36:38 | 00:00:00 | |
| DL1XH-west | 2026-09-03 01:52:58 | 51.72067 | 6.87001 | 112° | 99km/h | 13756m | -6.4m/s | -55°C | 3.9% | 155.3hPa | 2.5V | 08:05:02 | 02:36:35 | 00:00:00 | |
| DO2JMG | 2026-09-03 01:52:57 | 51.72076 | 6.86964 | 112° | 97km/h | 13762m | -6.2m/s | -55.1°C | 4.1% | 155.1hPa | 2.5V | 08:05:02 | 02:36:34 | 00:00:00 | |
| GOEST3-10 | 2026-09-03 01:52:57 | 51.72076 | 6.86964 | 112° | 97km/h | 13762m | -6.1m/s | -55.0°C | 6.5% | 155.0hPa | 2.5V | 00:00:00 | 00:00:00 | 00:00:00 | |
| DK5PH-5 | 2026-09-03 01:52:56 | 51.72085 | 6.86928 | 112° | 97km/h | 13768m | -6.5m/s | -55.1°C | 6.4% | 154.9hPa | 2.5V | 00:00:00 | 02:36:33 | 00:00:00 | |
| DM0DOS-11 | 2026-09-03 01:52:55 | 51.72141 | 6.86709 | 113° | 99km/h | 13807m | -6.2m/s | -55.4°C | 6.6% | 154hPa | 2.5V | 08:04:59 | 02:36:27 | 00:00:00 | |
| BIOWL1-15 | 2026-09-03 01:52:53 | 51.72131 | 6.86746 | 113° | 99km/h | 13800m | -6.3m/s | -55.3°C | 3.9% | 154.2hPa | 2.6V | 08:05:02 | 02:36:28 | 00:00:00 | |
| DL1XH-west | 2026-09-03 01:52:48 | 51.72161 | 6.86634 | 113° | 100km/h | 13819m | -6.4m/s | -55.4°C | 3.8% | 153.7hPa | 2.5V | 08:05:02 | 02:36:25 | 00:00:00 | |
| DO2JMG | 2026-09-03 01:52:47 | 51.72170 | 6.86597 | 112° | 99km/h | 13826m | -6.4m/s | -55.3°C | 3.9% | 153.6hPa | 2.5V | 08:05:02 | 02:36:24 | 00:00:00 | |
| GOEST3-10 | 2026-09-03 01:52:47 | 51.72170 | 6.86597 | 113° | 97km/h | 13826m | -6.3m/s | -55.3°C | 6.6% | 153.5hPa | 2.5V | 00:00:00 | 00:00:00 | 00:00:00 | |
| DJ2KF-10 | 2026-09-03 01:52:46 | 51.72180 | 6.86560 | 113° | 97km/h | 13832m | -6.5m/s | -55.3°C | 6.6% | 153.3hPa | 2.5V | 00:00:00 | 02:36:23 | 00:00:00 | |
| DD1CC1-15 | 2026-09-03 01:52:45 | 51.72180 | 6.86560 | 113° | 99km/h | 13832m | -6.5m/s | -55.3°C | 3.5% | 153.4hPa | 2.5V | 08:05:00 | 00:00:00 | 00:00:00 | |
| DL1XH-15 | 2026-09-03 01:52:43 | 51.72241 | 6.86311 | 110° | 91km/h | 13876m | -6.5m/s | -55.3°C | 6.5% | 152.3hPa | 2.5V | 08:05:10 | 02:36:16 | 00:00:00 | |
| BIOWL1-15 | 2026-09-03 01:52:43 | 51.72224 | 6.86381 | 111° | 91km/h | 13864m | -6.3m/s | -55.3°C | 4% | 152.7hPa | 2.5V | 08:05:53 | 02:36:18 | 00:00:00 | |
| DL1XH-west | 2026-09-03 01:52:37 | 51.72257 | 6.86241 | 110° | 93km/h | 13889m | -6.5m/s | -55.3°C | 3.9% | 152.1hPa | 2.5V | 08:05:53 | 02:36:14 | 00:00:00 | |
| DO2JMG | 2026-09-03 01:52:36 | 51.72265 | 6.86205 | 110° | 93km/h | 13896m | -6.3m/s | -55.3°C | 3.9% | 151.9hPa | 2.5V | 08:05:53 | 02:36:13 | 00:00:00 | |
| DM0DOS-11 | 2026-09-03 01:52:35 | 51.72316 | 6.85984 | 110° | 99km/h | 13934m | -6.4m/s | -55.6°C | 6.6% | 151hPa | 2.5V | 08:05:19 | 02:36:07 | 00:00:00 | |
| BIOWL1-15 | 2026-09-03 01:52:32 | 51.72316 | 6.85984 | 110° | 99km/h | 13934m | -6.4m/s | -55.6°C | 4% | 151hPa | 2.5V | 08:05:53 | 02:36:07 | 00:00:00 | |
| DL1XH-west | 2026-09-03 01:52:26 | 51.72350 | 6.85834 | 111° | 99km/h | 13960m | -6.6m/s | -55.8°C | 4% | 150.4hPa | 2.5V | 08:05:53 | 02:36:03 | 00:00:00 | |
| DK5PH-5 | 2026-09-03 01:52:26 | 51.72350 | 6.85834 | 111° | 102km/h | 13960m | -6.5m/s | -55.7°C | 6.6% | 150.3hPa | 2.5V | 00:00:00 | 02:36:03 | 00:00:00 | |
| DM0DOS-11 | 2026-09-03 01:52:25 | 51.72403 | 6.85603 | 109° | 102km/h | 13999m | -6.6m/s | -55.6°C | 6.5% | 149.5hPa | 2.5V | 08:05:29 | 02:35:57 | 00:00:00 | |
| DO2JMG | 2026-09-03 01:52:25 | 51.72359 | 6.85796 | 111° | 100km/h | 13966m | -6.8m/s | -55.8°C | 3.9% | 150.3hPa | 2.5V | 08:05:53 | 02:36:02 | 00:00:00 | |
| BIOWL1-15 | 2026-09-03 01:52:20 | 51.72404 | 6.85603 | 110° | 102km/h | 13999m | -6.6m/s | -55.6°C | 3.8% | 149.5hPa | 2.5V | 08:05:53 | 02:35:57 | 00:00:00 | |
| DL1XH-west | 2026-09-03 01:52:16 | 51.72438 | 6.85446 | 109° | 102km/h | 14025m | -6.4m/s | -55.8°C | 3.8% | 148.9hPa | 2.5V | 08:05:53 | 02:35:53 | 00:00:00 | |
| DJ2KF-10 | 2026-09-03 01:52:16 | 51.72438 | 6.85445 | 110° | 102km/h | 14025m | -6.4m/s | -55.7°C | 6.6% | 148.8hPa | 2.5V | 00:00:00 | 02:35:53 | 00:00:00 | |
| DC6BW-12 | 2026-09-03 01:52:15 | 51.72438 | 6.85445 | 110° | 102km/h | 14025m | -6.4m/s | -55.8°C | 3.4% | 148.9hPa | 2.5V | 08:05:00 | 00:00:00 | 00:00:00 | |
| DL1XH-15 | 2026-09-03 01:52:14 | 51.72501 | 6.85168 | 110° | 104km/h | 14070m | -6.7m/s | -55.5°C | 6.4% | 147.8hPa | 2.5V | 08:05:40 | 02:35:46 | 00:00:00 | |
| DO2JMG | 2026-09-03 01:52:14 | 51.72455 | 6.85367 | 110° | 104km/h | 14038m | -6.6m/s | -55.8°C | 3.8% | 148.6hPa | 2.5V | 08:05:53 | 02:35:51 | 00:00:00 | |
| BIOWL1-15 | 2026-09-03 01:52:10 | 51.72492 | 6.85208 | 111° | 104km/h | 14064m | -6.6m/s | -55.6°C | 3.8% | 148hPa | 2.5V | 08:05:53 | 02:35:47 | 00:00:00 | |
| DL1XH-west | 2026-09-03 01:52:06 | 51.72529 | 6.85049 | 110° | 104km/h | 14090m | -6.6m/s | -55.6°C | 3.7% | 147.3hPa | 2.5V | 08:05:53 | 02:35:43 | 00:00:00 | |
| DO2JMG | 2026-09-03 01:52:04 | 51.72547 | 6.84970 | 110° | 102km/h | 14103m | -6.6m/s | -55.7°C | 3.7% | 147hPa | 2.5V | 08:05:53 | 02:35:41 | 00:00:00 | |
| DL8DAS-14 | 2026-09-03 01:52:04 | 51.72564 | 6.84893 | 110° | 100km/h | 14117m | -6.7m/s | -55.7°C | 3.3% | 146.8hPa | 2.5V | 00:00:00 | 00:00:00 | 00:00:00 | |
| DL1XH-15 | 2026-09-03 01:52:03 | 51.72589 | 6.84778 | 109° | 99km/h | 14136m | -6.5m/s | -55.8°C | 6.4% | 146.3hPa | 2.5V | 08:05:50 | 02:35:36 | 00:00:00 | |
| BIOWL1-15 | 2026-09-03 01:51:59 | 51.72590 | 6.84778 | 110° | 99km/h | 14136m | -6.5m/s | -55.8°C | 3.6% | 146.3hPa | 2.5V | 08:05:53 | 02:35:36 | 00:00:00 | |
| DL1XH-west | 2026-09-03 01:51:55 | 51.72622 | 6.84625 | 108° | 99km/h | 14162m | -6.4m/s | -55.7°C | 3.6% | 145.7hPa | 2.5V | 08:06:44 | 02:35:32 | 00:00:00 | |
| DO2JMG | 2026-09-03 01:51:53 | 51.72638 | 6.84548 | 108° | 100km/h | 14175m | -6.8m/s | -55.6°C | 3.6% | 145.4hPa | 2.5V | 08:06:44 | 02:35:30 | 00:00:00 | |
| DF5WG-10 | 2026-09-03 01:51:53 | 51.72638 | 6.84547 | 108° | 99km/h | 14175m | -6.7m/s | -55.6°C | 6.3% | 145.4hPa | 2.5V | 00:00:00 | 02:35:30 | 00:00:00 | |
| DB0UT-7 | 2026-09-03 01:51:52 | 51.72645 | 6.84509 | 108° | 99km/h | 14182m | -6.7m/s | -55.5°C | 6.2% | 145.2hPa | 2.5V | 00:00:00 | 00:00:00 | 00:00:00 | |
| DL1XH-15 | 2026-09-03 01:51:51 | 51.72669 | 6.84393 | 109° | 99km/h | 14202m | -6.3m/s | -55.6°C | 6.3% | 144.8hPa | 2.5V | 08:06:00 | 02:35:26 | 00:00:00 | |
| BIOWL1-15 | 2026-09-03 01:51:48 | 51.72678 | 6.84355 | 110° | 99km/h | 14208m | -6.5m/s | -55.6°C | 3.6% | 144.7hPa | 2.5V | 08:06:44 | 02:35:25 | 00:00:00 | |
| DJ2KF-10 | 2026-09-03 01:51:46 | 51.72695 | 6.84279 | 112° | 99km/h | 14221m | -6.5m/s | -55.6°C | 6.2% | 144.3hPa | 2.6V | 00:00:00 | 02:35:23 | 00:00:00 | |
| DM0DOS-11 | 2026-09-03 01:51:45 | 51.72748 | 6.84055 | 109° | 97km/h | 14261m | -6.5m/s | -55.8°C | 6.3% | 143.5hPa | 2.6V | 08:06:09 | 02:35:17 | 00:00:00 | |
| DL1XH-west | 2026-09-03 01:51:45 | 51.72704 | 6.84242 | 111° | 99km/h | 14227m | -6.7m/s | -55.7°C | 3.7% | 144.2hPa | 2.6V | 08:06:44 | 02:35:22 | 00:00:00 | |
| DO2JMG | 2026-09-03 01:51:43 | 51.72722 | 6.84167 | 111° | 99km/h | 14241m | -6.8m/s | -55.7°C | 3.6% | 143.9hPa | 2.5V | 08:06:44 | 02:35:20 | 00:00:00 | |
| BIOWL1-15 | 2026-09-03 01:51:42 | 51.72764 | 6.83981 | 109° | 97km/h | 14274m | -6.7m/s | -55.8°C | 3.7% | 143.2hPa | 2.5V | 08:06:44 | 02:35:15 | 00:00:00 | |
| GOEST3-10 | 2026-09-03 01:51:41 | 51.72740 | 6.84092 | 111° | 97km/h | 14255m | -6.4m/s | -55.7°C | 6.3% | 143.6hPa | 2.5V | 00:00:00 | 02:35:18 | 00:00:00 | |
| DD1CC3-15 | 2026-09-03 01:51:40 | 51.72748 | 6.84055 | 111° | 97km/h | 14261m | -6.5m/s | -55.8°C | 3.2% | 143.5hPa | 2.5V | 08:06:00 | 00:00:00 | 00:00:00 | |
| DO3DL | 2026-09-03 01:51:39 | 51.72748 | 6.84055 | 111° | 97km/h | 14261m | -6.5m/s | -55.8°C | 3.1% | 143.5hPa | 2.5V | 08:06:00 | 00:00:00 | 00:00:00 | |
| DO2KSM | 2026-09-03 01:51:37 | 51.72764 | 6.83980 | 110° | 97km/h | 14274m | -6.7m/s | -55.8°C | 3.2% | 143.2hPa | 2.5V | 08:06:00 | 00:00:00 | 00:00:00 | |
| GOEST3-10 | 2026-09-03 01:51:36 | 51.72780 | 6.83906 | 110° | 97km/h | 14288m | -6.6m/s | -55.8°C | 6.2% | 142.8hPa | 2.5V | 00:00:00 | 00:00:00 | 00:00:00 | |
| DM0DOS-11 | 2026-09-03 01:51:35 | 51.72831 | 6.83681 | 111° | 99km/h | 14326m | -6.5m/s | -55.9°C | 6.4% | 142hPa | 2.5V | 08:06:19 | 02:35:07 | 00:00:00 | |
| DL1XH-west | 2026-09-03 01:51:35 | 51.72788 | 6.83869 | 109° | 97km/h | 14294m | -6.3m/s | -55.8°C | 3.6% | 142.7hPa | 2.5V | 08:06:44 | 02:35:12 | 00:00:00 | |
| DC6BW-12 | 2026-09-03 01:51:34 | 51.72788 | 6.83869 | 110° | 97km/h | 14294m | -6.3m/s | -55.8°C | 3.2% | 142.7hPa | 2.6V | 08:06:00 | 00:00:00 | 00:00:00 | |
| DL1XH-15 | 2026-09-03 01:51:33 | 51.72840 | 6.83644 | 112° | 99km/h | 14333m | -6.7m/s | -55.9°C | 6.3% | 141.8hPa | 2.6V | 08:06:20 | 02:35:06 | 00:00:00 | |
| DO2JMG | 2026-09-03 01:51:33 | 51.72805 | 6.83794 | 110° | 99km/h | 14307m | -6.6m/s | -55.9°C | 3.4% | 142.4hPa | 2.6V | 08:06:44 | 02:35:10 | 00:00:00 | |
| BIOWL1-15 | 2026-09-03 01:51:28 | 51.72850 | 6.83606 | 113° | 100km/h | 14340m | -6.7m/s | -55.9°C | 3.6% | 141.7hPa | 2.5V | 08:06:44 | 02:35:05 | 00:00:00 | |
| DK5PH-5 | 2026-09-03 01:51:26 | 51.72869 | 6.83532 | 113° | 97km/h | 14353m | -6.5m/s | -55.9°C | 6.3% | 141.3hPa | 2.5V | 08:06:00 | 02:35:03 | 00:00:00 | |
| DM0DOS-11 | 2026-09-03 01:51:25 | 51.72924 | 6.83310 | 110° | 97km/h | 14393m | -6.8m/s | -56°C | 6.4% | 140.5hPa | 2.5V | 08:06:29 | 02:34:57 | 00:00:00 | |
| DL1XH-west | 2026-09-03 01:51:24 | 51.72889 | 6.83458 | 112° | 99km/h | 14366m | -6.6m/s | -56°C | 3.4% | 141.1hPa | 2.5V | 08:06:44 | 02:35:01 | 00:00:00 | |
| DO2JMG | 2026-09-03 01:51:23 | 51.72898 | 6.83421 | 112° | 97km/h | 14373m | -6.7m/s | -56°C | 3.6% | 140.9hPa | 2.6V | 08:06:44 | 02:35:00 | 00:00:00 | |
| DF5WG-10 | 2026-09-03 01:51:23 | 51.72898 | 6.83421 | 112° | 97km/h | 14373m | -6.7m/s | -55.9°C | 6.4% | 140.9hPa | 2.5V | 00:00:00 | 02:35:00 | 00:00:00 | |
| DB0UT-7 | 2026-09-03 01:51:22 | 51.72907 | 6.83384 | 112° | 97km/h | 14380m | -6.9m/s | -55.9°C | 6.4% | 140.8hPa | 2.5V | 08:06:00 | 02:34:59 | 00:00:00 | |
| DL1XH-15 | 2026-09-03 01:51:21 | 51.72933 | 6.83273 | 110° | 97km/h | 14400m | -6.7m/s | -56.1°C | 6.3% | 140.4hPa | 2.5V | 08:06:30 | 02:34:56 | 00:00:00 | |
| BIOWL1-15 | 2026-09-03 01:51:19 | 51.72950 | 6.83199 | 110° | 97km/h | 14413m | -6.6m/s | -56.1°C | 3.3% | 140.1hPa | 2.5V | 08:06:44 | 02:34:54 | 00:00:00 | |
| DD1CC8 | 2026-09-03 01:51:18 | 51.72942 | 6.83236 | 110° | 97km/h | 14406m | -6.6m/s | -56.1°C | 3.0% | 140.2hPa | 2.5V | 00:00:00 | 00:00:00 | 00:00:00 | |
| DO2KSM | 2026-09-03 01:51:17 | 51.72942 | 6.83236 | 111° | 97km/h | 14406m | -6.6m/s | -56.1°C | 3.0% | 140.2hPa | 2.5V | 08:06:00 | 00:00:00 | 00:00:00 | |
| DJ2KF-10 | 2026-09-03 01:51:16 | 51.72959 | 6.83162 | 111° | 95km/h | 14419m | -6.5m/s | -56.0°C | 6.4% | 139.9hPa | 2.5V | 00:00:00 | 02:34:53 | 00:00:00 | |
| DM0DOS-11 | 2026-09-03 01:51:15 | 51.73012 | 6.82938 | 111° | 99km/h | 14459m | -6.7m/s | -56°C | 6.2% | 139.1hPa | 2.5V | 08:06:39 | 02:34:47 | 00:00:00 | |
| DO2JMG | 2026-09-03 01:51:13 | 51.72985 | 6.83050 | 111° | 99km/h | 14439m | -6.7m/s | -55.9°C | 3.4% | 139.5hPa | 2.5V | 08:06:44 | 02:34:50 | 00:00:00 | |
| DF5WG-10 | 2026-09-03 01:51:13 | 51.72985 | 6.83050 | 111° | 97km/h | 14439m | -6.6m/s | -55.8°C | 6.2% | 139.5hPa | 2.5V | 00:00:00 | 02:34:50 | 00:00:00 | |
| DO3DL | 2026-09-03 01:51:12 | 51.72985 | 6.83050 | 112° | 99km/h | 14439m | -6.7m/s | -55.9°C | 3.0% | 139.5hPa | 2.5V | 08:06:00 | 00:00:00 | 00:00:00 | |
| DL1XH-15 | 2026-09-03 01:51:09 | 51.73021 | 6.82901 | 111° | 99km/h | 14466m | -6.5m/s | -56°C | 6.2% | 138.9hPa | 2.5V | 08:06:40 | 02:34:46 | 00:00:00 | |
| BIOWL1-15 | 2026-09-03 01:51:06 | 51.73049 | 6.82790 | 112° | 97km/h | 14486m | -6.8m/s | -56.1°C | 3.5% | 138.5hPa | 2.5V | 08:06:44 | 02:34:43 | 00:00:00 | |
| DO3DL | 2026-09-03 01:51:05 | 51.73049 | 6.82790 | 113° | 97km/h | 14486m | -6.8m/s | -56.1°C | 3.1% | 138.5hPa | 2.5V | 08:06:00 | 00:00:00 | 00:00:00 | |
| DH3RM | 2026-09-03 01:51:04 | 51.73058 | 6.82754 | 114° | 97km/h | 14493m | -6.6m/s | -56.1°C | 3.0% | 138.4hPa | 2.5V | 08:06:00 | 00:00:00 | 00:00:00 | |
| DL1XH-15 | 2026-09-03 01:51:03 | 51.73113 | 6.82541 | 111° | 95km/h | 14532m | -6.7m/s | -56.1°C | 6.2% | 137.5hPa | 2.5V | 08:06:50 | 02:34:36 | 00:00:00 | |
| DL1XH-west | 2026-09-03 01:51:03 | 51.73077 | 6.82683 | 113° | 95km/h | 14506m | -6.8m/s | -56.1°C | 3.4% | 138.1hPa | 2.5V | 08:07:35 | 02:34:40 | 00:00:00 | |
| DO2JMG | 2026-09-03 01:51:02 | 51.73086 | 6.82648 | 113° | 93km/h | 14512m | -6.5m/s | -56.1°C | 3.4% | 137.9hPa | 2.5V | 08:07:35 | 02:34:39 | 00:00:00 | |
| BIOWL1-15 | 2026-09-03 01:50:56 | 51.73139 | 6.82433 | 111° | 97km/h | 14552m | -6.5m/s | -56.1°C | 3.3% | 137hPa | 2.6V | 08:07:35 | 02:34:33 | 00:00:00 | |
| DL1XH-west | 2026-09-03 01:50:53 | 51.73166 | 6.82325 | 112° | 93km/h | 14572m | -6.6m/s | -56.2°C | 3.4% | 136.7hPa | 2.5V | 08:07:35 | 02:34:30 | 00:00:00 | |
| DF5WG-10 | 2026-09-03 01:50:53 | 51.73166 | 6.82325 | 113° | 91km/h | 14572m | -6.5m/s | -56.1°C | 6.3% | 136.6hPa | 2.5V | 00:00:00 | 02:34:30 | 00:00:00 | |
| DB0UT-7 | 2026-09-03 01:50:52 | 51.73175 | 6.82290 | 113° | 93km/h | 14579m | -6.5m/s | -56.1°C | 6.2% | 136.4hPa | 2.5V | 00:00:00 | 00:00:00 | 00:00:00 | |
| DL1XH-15 | 2026-09-03 01:50:51 | 51.73201 | 6.82188 | 113° | 89km/h | 14598m | -6.7m/s | -56.1°C | 6.2% | 136.1hPa | 2.5V | 08:07:00 | 02:34:26 | 00:00:00 | |
| DO2JMG | 2026-09-03 01:50:51 | 51.73183 | 6.82256 | 113° | 91km/h | 14585m | -6.6m/s | -56.2°C | 3.4% | 136.3hPa | 2.5V | 08:07:35 | 02:34:28 | 00:00:00 | |
| DO9LL-15 | 2026-09-03 01:50:51 | 51.73183 | 6.82256 | 113° | 93km/h | 14585m | -6.5m/s | -56.1°C | 6.3% | 136.3hPa | 2.5V | 00:00:00 | 02:34:28 | 00:00:00 | |
| DH3RM | 2026-09-03 01:50:50 | 51.73183 | 6.82256 | 114° | 91km/h | 14585m | -6.6m/s | -56.2°C | 3.0% | 136.3hPa | 2.5V | 08:07:00 | 00:00:00 | 00:00:00 | |
| DJ3KS | 2026-09-03 01:50:49 | 51.73192 | 6.82222 | 114° | 89km/h | 14592m | -6.8m/s | -56.2°C | 3.0% | 136.2hPa | 2.5V | 00:00:00 | 00:00:00 | 00:00:00 | |
| DJ2KF-10 | 2026-09-03 01:50:46 | 51.73229 | 6.82086 | 114° | 93km/h | 14618m | -6.6m/s | -56.1°C | 6.2% | 135.6hPa | 2.5V | 00:00:00 | 02:34:23 | 00:00:00 | |
| DM0DOS-11 | 2026-09-03 01:50:45 | 51.73286 | 6.81874 | 114° | 95km/h | 14659m | -6.8m/s | -56.2°C | 6.1% | 134.8hPa | 2.5V | 08:07:09 | 02:34:17 | 00:00:00 | |
| BIOWL1-15 | 2026-09-03 01:50:45 | 51.73238 | 6.82052 | 113° | 93km/h | 14625m | -6.7m/s | -56.2°C | 3.2% | 135.5hPa | 2.6V | 08:07:35 | 02:34:22 | 00:00:00 | |
| DL1XH-west | 2026-09-03 01:50:42 | 51.73267 | 6.81946 | 114° | 97km/h | 14645m | -6.6m/s | -56.3°C | 3.3% | 135.1hPa | 2.5V | 08:07:35 | 02:34:19 | 00:00:00 | |
| DO2JMG | 2026-09-03 01:50:41 | 51.73277 | 6.81910 | 114° | 95km/h | 14652m | -7.1m/s | -56.3°C | 3.2% | 134.9hPa | 2.5V | 08:07:35 | 02:34:18 | 00:00:00 | |
| BIOWL1-15 | 2026-09-03 01:50:37 | 51.73336 | 6.81697 | 114° | 95km/h | 14692m | -6.8m/s | -56.1°C | 3.1% | 134.1hPa | 2.5V | 08:07:35 | 02:34:12 | 00:00:00 | |
| GOEST3-10 | 2026-09-03 01:50:36 | 51.73326 | 6.81732 | 115° | 93km/h | 14685m | -6.7m/s | -56.0°C | 6.0% | 134.2hPa | 2.5V | 00:00:00 | 00:00:00 | 00:00:00 | |
| DM0DOS-11 | 2026-09-03 01:50:35 | 51.73383 | 6.81524 | 113° | 91km/h | 14725m | -6.6m/s | -56.2°C | 5.9% | 133.4hPa | 2.5V | 08:07:19 | 02:34:07 | 00:00:00 | |
| DL1XH-15 | 2026-09-03 01:50:33 | 51.73392 | 6.81489 | 113° | 91km/h | 14732m | -6.6m/s | -56.2°C | 6% | 133.2hPa | 2.5V | 08:07:20 | 02:34:06 | 00:00:00 | |
| DL1XH-west | 2026-09-03 01:50:31 | 51.73374 | 6.81558 | 114° | 93km/h | 14719m | -6.5m/s | -56.2°C | 3.1% | 133.5hPa | 2.5V | 08:07:35 | 02:34:08 | 00:00:00 | |
| DO2JMG | 2026-09-03 01:50:30 | 51.73383 | 6.81524 | 114° | 91km/h | 14725m | -6.6m/s | -56.2°C | 2.9% | 133.4hPa | 2.5V | 08:07:35 | 02:34:07 | 00:00:00 | |
| AA1-15 | 2026-09-03 01:50:29 | 51.73392 | 6.81489 | 114° | 91km/h | 14732m | -6.6m/s | -56.2°C | 3.1% | 133.2hPa | 2.5V | 08:08:26 | 02:34:06 | 00:00:00 | |
| BIOWL1-15 | 2026-09-03 01:50:26 | 51.73440 | 6.81322 | 115° | 91km/h | 14765m | -6.6m/s | -56.3°C | 3% | 132.5hPa | 2.5V | 08:07:35 | 02:34:01 | 00:00:00 | |
| DK5PH-5 | 2026-09-03 01:50:26 | 51.73421 | 6.81389 | 115° | 86km/h | 14752m | -6.5m/s | -56.2°C | 6.1% | 132.8hPa | 2.5V | 00:00:00 | 02:34:03 | 00:00:00 | |
| DM0DOS-11 | 2026-09-03 01:50:25 | 51.73479 | 6.81188 | 114° | 91km/h | 14792m | -6.6m/s | -56.4°C | 6% | 132hPa | 2.5V | 08:07:29 | 02:33:57 | 00:00:00 | |
| DL4BBY-15 | 2026-09-03 01:50:24 | 51.73440 | 6.81322 | 116° | 86km/h | 14765m | -6.6m/s | -56.1°C | 0% | 0hPa | 2.5V | 00:00:00 | 00:00:00 | 00:00:00 | |
| DF5WG-10 | 2026-09-03 01:50:23 | 51.73449 | 6.81289 | 115° | 89km/h | 14772m | -6.8m/s | -56.3°C | 6.2% | 132.4hPa | 2.5V | 00:00:00 | 02:34:00 | 00:00:00 | |
| DB0UT-7 | 2026-09-03 01:50:22 | 51.73459 | 6.81255 | 115° | 86km/h | 14779m | -6.7m/s | -56.3°C | 6.1% | 132.2hPa | 2.5V | 00:00:00 | 02:33:59 | 00:00:00 | |
| DL1XH-15 | 2026-09-03 01:50:21 | 51.73488 | 6.81154 | 114° | 89km/h | 14799m | -6.8m/s | -56.4°C | 6.2% | 131.9hPa | 2.5V | 08:07:30 | 02:33:56 | 00:00:00 | |
| DL1XH-west | 2026-09-03 01:50:21 | 51.73469 | 6.81221 | 115° | 91km/h | 14785m | -6.5m/s | -56.3°C | 3.1% | 132.1hPa | 2.5V | 08:07:35 | 02:33:58 | 00:00:00 | |
| DO2JMG | 2026-09-03 01:50:20 | 51.73479 | 6.81188 | 115° | 91km/h | 14792m | -6.6m/s | -56.4°C | 2.8% | 132hPa | 2.5V | 08:07:35 | 02:33:57 | 00:00:00 | |
| AA1-15 | 2026-09-03 01:50:17 | 51.73506 | 6.81088 | 114° | 88km/h | 14812m | -6.5m/s | -56.4°C | 2.8% | 131.6hPa | 2.6V | 08:08:26 | 02:33:54 | 00:00:00 | |
| DJ2KF-10 | 2026-09-03 01:50:16 | 51.73515 | 6.81055 | 115° | 84km/h | 14819m | -6.6m/s | !°C | 6.0% | 131.4hPa | 2.5V | 00:00:00 | 02:33:53 | 00:00:00 | |
| DM0DOS-11 | 2026-09-03 01:50:15 | 51.73567 | 6.80863 | 113° | 86km/h | 14858m | -6.7m/s | -56.4°C | 6% | 130.6hPa | 2.5V | 08:07:39 | 02:33:47 | 00:00:00 | |
| BIOWL1-15 | 2026-09-03 01:50:15 | 51.73541 | 6.80959 | 114° | 86km/h | 14838m | -6.6m/s | -56.4°C | 2.9% | 131hPa | 2.5V | 08:08:26 | 02:33:50 | 00:00:00 | |
| DL1XH-west | 2026-09-03 01:50:10 | 51.73567 | 6.80863 | 114° | 86km/h | 14858m | -6.7m/s | -56.4°C | 2.8% | 130.6hPa | 2.5V | 08:08:26 | 02:33:47 | 00:00:00 | |
| DL1XH-15 | 2026-09-03 01:50:09 | 51.73576 | 6.80832 | 113° | 86km/h | 14865m | -6.6m/s | -56.3°C | 5.9% | 130.5hPa | 2.5V | 08:07:40 | 02:33:46 | 00:00:00 | |
| DO2JMG | 2026-09-03 01:50:09 | 51.73576 | 6.80832 | 114° | 86km/h | 14865m | -6.6m/s | -56.3°C | 2.7% | 130.5hPa | 2.5V | 08:08:26 | 02:33:46 | 00:00:00 | |
| GOEST3-10 | 2026-09-03 01:50:07 | 51.73594 | 6.80768 | 115° | 84km/h | 14879m | -6.7m/s | -55.9°C | 5.7% | 130.2hPa | 2.6V | 00:00:00 | 02:33:44 | 00:00:00 | |
| DM0DOS-11 | 2026-09-03 01:50:05 | 51.73657 | 6.80551 | 115° | 84km/h | 14925m | -6.7m/s | -55.7°C | 5.5% | 129.3hPa | 2.6V | 08:07:49 | 02:33:37 | 00:00:00 | |
| BIOWL1-15 | 2026-09-03 01:50:03 | 51.73630 | 6.80643 | 115° | 84km/h | 14905m | -6.8m/s | -55.6°C | 2.5% | 129.7hPa | 2.5V | 08:08:26 | 02:33:40 | 00:00:00 | |
| DL1XH-15 | 2026-09-03 01:50:03 | 51.73666 | 6.80520 | 115° | 82km/h | 14932m | -6.7m/s | -55.8°C | 5.6% | 129.1hPa | 2.5V | 08:07:50 | 02:33:36 | 00:00:00 | |
| AA1-15 | 2026-09-03 01:50:02 | 51.73639 | 6.80612 | 116° | 84km/h | 14912m | -6.6m/s | -55.7°C | 2.5% | 129.5hPa | 2.5V | 08:08:26 | 02:33:39 | 00:00:00 | |
| DL1XH-west | 2026-09-03 01:49:59 | 51.73666 | 6.80520 | 116° | 82km/h | 14932m | -6.7m/s | -55.8°C | 2.5% | 129.1hPa | 2.5V | 08:08:26 | 02:33:36 | 00:00:00 | |
| DO2JMG | 2026-09-03 01:49:58 | 51.73675 | 6.80490 | 115° | 82km/h | 14939m | -6.4m/s | -55.8°C | 2.5% | 129hPa | 2.5V | 08:08:26 | 02:33:35 | 00:00:00 | |
| GOEST3-10 | 2026-09-03 01:49:57 | 51.73684 | 6.80460 | 116° | 82km/h | 14945m | -6.5m/s | -55.8°C | 5.6% | 128.8hPa | 2.5V | 00:00:00 | 02:33:34 | 00:00:00 | |
| DK5PH-5 | 2026-09-03 01:49:56 | 51.73693 | 6.80429 | 115° | 84km/h | 14952m | -6.6m/s | -55.8°C | 5.6% | 128.7hPa | 2.5V | 00:00:00 | 02:33:33 | 00:00:00 | |
| DM0DOS-11 | 2026-09-03 01:49:55 | 51.73746 | 6.80246 | 114° | 84km/h | 14992m | -6.6m/s | -56.2°C | 5.6% | 127.9hPa | 2.6V | 08:07:59 | 02:33:27 | 00:00:00 | |
| BIOWL1-15 | 2026-09-03 01:49:53 | 51.73720 | 6.80338 | 115° | 82km/h | 14971m | -6.7m/s | -56°C | 2.5% | 128.3hPa | 2.5V | 08:08:26 | 02:33:30 | 00:00:00 | |
| DF5WG-10 | 2026-09-03 01:49:53 | 51.73720 | 6.80338 | 115° | 84km/h | 14972m | -6.6m/s | -56.0°C | 5.6% | 128.3hPa | 2.5V | 00:00:00 | 02:33:30 | 00:00:00 | |
| DB0UT-7 | 2026-09-03 01:49:52 | 51.73729 | 6.80307 | 115° | 84km/h | 14978m | -6.8m/s | -56.0°C | 5.6% | 128.1hPa | 2.5V | 00:00:00 | 00:00:00 | 00:00:00 | |
| DL1XH-15 | 2026-09-03 01:49:51 | 51.73755 | 6.80215 | 113° | 84km/h | 14998m | -6.6m/s | -56.2°C | 5.7% | 127.8hPa | 2.6V | 08:08:00 | 02:33:26 | 00:00:00 | |
| AA1-15 | 2026-09-03 01:49:51 | 51.73737 | 6.80277 | 115° | 84km/h | 14985m | -6.6m/s | -56.1°C | 2.4% | 128.1hPa | 2.5V | 08:08:26 | 02:33:28 | 00:00:00 | |
| DL1XH-west | 2026-09-03 01:49:48 | 51.73763 | 6.80183 | 113° | 84km/h | 15005m | -6.6m/s | -56.2°C | 2.4% | 127.6hPa | 2.5V | 08:08:26 | 02:33:25 | 00:00:00 | |
| GOEST3-10 | 2026-09-03 01:49:47 | 51.73771 | 6.80151 | 113° | 86km/h | 15011m | -6.4m/s | -56.2°C | 5.6% | 127.5hPa | 2.5V | 00:00:00 | 02:33:24 | 00:00:00 | |
| DJ2KF-10 | 2026-09-03 01:49:46 | 51.73779 | 6.80119 | 112° | 86km/h | 15018m | -6.5m/s | -56.2°C | 5.6% | 127.4hPa | 2.5V | 08:08:00 | 02:33:23 | 00:00:00 | |
| DM0DOS-11 | 2026-09-03 01:49:45 | 51.73827 | 6.79925 | 113° | 82km/h | 15057m | -6.5m/s | -56.2°C | 5.6% | 126.6hPa | 2.5V | 08:08:09 | 02:33:17 | 00:00:00 | |
| DD1CC8 | 2026-09-03 01:49:45 | 51.73787 | 6.80086 | 111° | 86km/h | 15024m | -6.5m/s | -56.2°C | 2.4% | 127.3hPa | 2.5V | 00:00:00 | 00:00:00 | 00:00:00 | |
| BIOWL1-15 | 2026-09-03 01:49:44 | 51.73811 | 6.79988 | 112° | 86km/h | 15044m | -6.6m/s | -56.3°C | 2.4% | 126.9hPa | 2.5V | 08:08:26 | 02:33:19 | 00:00:00 | |
| AA1-15 | 2026-09-03 01:49:41 | 51.73819 | 6.79956 | 112° | 84km/h | 15050m | -6.8m/s | -56.3°C | 2.3% | 126.7hPa | 2.5V | 08:08:26 | 02:33:18 | 00:00:00 | |
| DL1XH-15 | 2026-09-03 01:49:39 | 51.73835 | 6.79894 | 114° | 82km/h | 15064m | -6.9m/s | -56.2°C | 5.5% | 126.5hPa | 2.6V | 08:08:10 | 02:33:16 | 00:00:00 | |
| BIOWL1-15 | 2026-09-03 01:49:38 | 51.73899 | 6.79680 | 116° | 84km/h | 15110m | -6.6m/s | -56°C | 2.1% | 125.5hPa | 2.6V | 08:08:26 | 02:33:09 | 00:00:00 | |
| DL1XH-west | 2026-09-03 01:49:37 | 51.73853 | 6.79834 | 116° | 82km/h | 15077m | -6.7m/s | -56°C | 2.2% | 126.2hPa | 2.5V | 08:08:26 | 02:33:14 | 00:00:00 | |
| GOEST3-10 | 2026-09-03 01:49:37 | 51.73853 | 6.79834 | 116° | 84km/h | 15077m | -6.7m/s | -56.0°C | 5.4% | 126.2hPa | 2.5V | 00:00:00 | 02:33:14 | 00:00:00 | |
| DO1YAY-16 | 2026-09-03 01:49:36 | 51.73862 | 6.79803 | 115° | 82km/h | 15084m | -6.5m/s | -55.9°C | 2.2% | 126.1hPa | 2.5V | 00:00:00 | 00:00:00 | 00:00:00 | |
| DM0DOS-11 | 2026-09-03 01:49:35 | 51.73917 | 6.79619 | 116° | 84km/h | 15123m | -6.6m/s | -55.9°C | 5.3% | 125.3hPa | 2.5V | 08:08:19 | 02:33:07 | 00:00:00 | |
| DL1XH-15 | 2026-09-03 01:49:33 | 51.73927 | 6.79588 | 116° | 84km/h | 15130m | -6.8m/s | -55.8°C | 5.3% | 125.1hPa | 2.5V | 08:08:20 | 02:33:06 | 00:00:00 | |
| AA1-15 | 2026-09-03 01:49:30 | 51.73917 | 6.79619 | 116° | 84km/h | 15123m | -6.6m/s | -55.9°C | 2% | 125.3hPa | 2.5V | 08:08:26 | 02:33:07 | 00:00:00 | |
| DL1XH-west | 2026-09-03 01:49:27 | 51.73945 | 6.79527 | 116° | 84km/h | 15143m | -6.5m/s | -55.8°C | 2% | 124.9hPa | 2.6V | 08:08:26 | 02:33:04 | 00:00:00 | |
| DO2JMG | 2026-09-03 01:49:26 | 51.73955 | 6.79497 | 116° | 84km/h | 15150m | -6.6m/s | -55.8°C | 2% | 124.8hPa | 2.5V | 08:08:26 | 02:33:03 | 00:00:00 | |
| BIOWL1-15 | 2026-09-03 01:49:22 | 51.73993 | 6.79369 | 116° | 91km/h | 15177m | -6.7m/s | -55.6°C | 2% | 124.2hPa | 2.6V | 08:09:17 | 02:32:59 | 00:00:00 | |
| DB0UT-7 | 2026-09-03 01:49:22 | 51.73993 | 6.79369 | 116° | 88km/h | 15177m | -6.6m/s | -55.5°C | 5.3% | 124.2hPa | 2.5V | 00:00:00 | 02:32:59 | 00:00:00 | |
| DL1XH-15 | 2026-09-03 01:49:21 | 51.74023 | 6.79267 | 116° | 93km/h | 15197m | -6.8m/s | -55.7°C | 5.3% | 123.8hPa | 2.5V | 08:08:30 | 02:32:56 | 00:00:00 | |
| AA1-15 | 2026-09-03 01:49:20 | 51.74013 | 6.79301 | 116° | 93km/h | 15190m | -6.7m/s | -55.7°C | 2% | 124hPa | 2.5V | 08:09:17 | 02:32:57 | 00:00:00 | |
| DL1XH-west | 2026-09-03 01:49:16 | 51.74056 | 6.79165 | 118° | 93km/h | 15217m | -6.4m/s | -55.8°C | 2% | 123.5hPa | 2.6V | 08:09:17 | 02:32:53 | 00:00:00 | |
| BIOWL1-15 | 2026-09-03 01:49:11 | 51.74110 | 6.79003 | 119° | 89km/h | 15250m | -6.9m/s | -55.9°C | 2% | 122.8hPa | 2.5V | 08:09:17 | 02:32:48 | 00:00:00 | |
| AA1-15 | 2026-09-03 01:49:10 | 51.74121 | 6.78971 | 119° | 89km/h | 15257m | -6.8m/s | -55.9°C | 2% | 122.7hPa | 2.5V | 08:09:17 | 02:32:47 | 00:00:00 | |
| DL1XH-15 | 2026-09-03 01:49:09 | 51.74132 | 6.78939 | 119° | 89km/h | 15263m | -6.7m/s | -55.9°C | 5.5% | 122.5hPa | 2.5V | 08:08:40 | 02:32:46 | 00:00:00 | |
| DL1XH-west | 2026-09-03 01:49:06 | 51.74166 | 6.78844 | 120° | 88km/h | 15283m | -6.7m/s | -55.3°C | 1.9% | 122.2hPa | 2.5V | 08:09:17 | 02:32:43 | 00:00:00 | |
| DO2JMG | 2026-09-03 01:49:05 | 51.74177 | 6.78813 | 121° | 88km/h | 15290m | -7.2m/s | -55°C | 1.8% | 122hPa | 2.6V | 08:09:17 | 02:32:42 | 00:00:00 | |
| BIOWL1-15 | 2026-09-03 01:49:00 | 51.74231 | 6.78664 | 119° | 82km/h | 15325m | -7m/s | -54.8°C | 1.7% | 121.4hPa | 2.5V | 08:09:17 | 02:32:37 | 00:00:00 | |
| AA1-15 | 2026-09-03 01:48:59 | 51.74242 | 6.78635 | 120° | 82km/h | 15332m | -6.9m/s | -54.8°C | 1.7% | 121.3hPa | 2.5V | 08:09:17 | 02:32:36 | 00:00:00 | |
| DL8DAS-14 | 2026-09-03 01:48:58 | 51.74282 | 6.78521 | 120° | 78km/h | 15359m | -6.6m/s | -54.9°C | 1.9% | 120.8hPa | 2.5V | 00:00:00 | 00:00:00 | 00:00:00 | |
| DO3DL | 2026-09-03 01:48:57 | 51.74252 | 6.78606 | 121° | 80km/h | 15339m | -6.9m/s | -54.9°C | 1.9% | 121.1hPa | 2.5V | 08:09:00 | 00:00:00 | 00:00:00 | |
| DK5PH-5 | 2026-09-03 01:48:56 | 51.74272 | 6.78549 | 120° | 78km/h | 15352m | -6.8m/s | -54.9°C | 4.8% | 120.8hPa | 2.5V | 00:00:00 | 02:32:33 | 00:00:00 | |
| DM0DOS-11 | 2026-09-03 01:48:55 | 51.74334 | 6.78381 | 121° | 80km/h | 15393m | -7m/s | -55.1°C | 4.9% | 120.1hPa | 2.5V | 08:08:59 | 02:32:27 | 00:00:00 | |
| DO2JMG | 2026-09-03 01:48:55 | 51.74282 | 6.78521 | 120° | 80km/h | 15359m | -6.6m/s | -54.9°C | 1.7% | 120.8hPa | 2.6V | 08:09:17 | 02:32:32 | 00:00:00 | |
| BIOWL1-15 | 2026-09-03 01:48:54 | 51.74334 | 6.78381 | 121° | 80km/h | 15393m | -7m/s | -55.1°C | 1.7% | 120.1hPa | 2.5V | 08:09:17 | 02:32:27 | 00:00:00 | |
| AA1-15 | 2026-09-03 01:48:48 | 51.74355 | 6.78326 | 122° | 78km/h | 15407m | -7m/s | -55.1°C | 1.6% | 119.9hPa | 2.6V | 08:09:17 | 02:32:25 | 00:00:00 | |
| DJ2KF-10 | 2026-09-03 01:48:46 | 51.74376 | 6.78271 | 122° | 78km/h | 15421m | -6.7m/s | -55.1°C | 4.9% | 119.6hPa | 2.6V | 00:00:00 | 02:32:23 | 00:00:00 | |
| DM0DOS-11 | 2026-09-03 01:48:45 | 51.74438 | 6.78111 | 121° | 77km/h | 15462m | -7m/s | -55.4°C | 4.9% | 118.8hPa | 2.6V | 08:09:09 | 02:32:17 | 00:00:00 | |
| DL1XH-west | 2026-09-03 01:48:45 | 51.74387 | 6.78244 | 122° | 78km/h | 15427m | -7.1m/s | -55.2°C | 1.6% | 119.5hPa | 2.5V | 08:09:17 | 02:32:22 | 00:00:00 | |
| DO2JMG | 2026-09-03 01:48:44 | 51.74397 | 6.78217 | 122° | 77km/h | 15434m | -7.1m/s | -55.2°C | 1.7% | 119.3hPa | 2.5V | 08:09:17 | 02:32:21 | 00:00:00 | |
| BIOWL1-15 | 2026-09-03 01:48:42 | 51.74438 | 6.78111 | 121° | 77km/h | 15462m | -7m/s | -55.4°C | 1.7% | 118.8hPa | 2.6V | 08:09:17 | 02:32:17 | 00:00:00 | |
| DF5WG-10 | 2026-09-03 01:48:42 | 51.74418 | 6.78164 | 122° | 77km/h | 15448m | -6.9m/s | -55.3°C | 4.9% | 119.0hPa | 2.6V | 00:00:00 | 02:32:19 | 00:00:00 | |
| DL1XH-15 | 2026-09-03 01:48:41 | 51.74448 | 6.78084 | 120° | 77km/h | 15469m | -7.1m/s | -55.5°C | 4.9% | 118.7hPa | 2.6V | 08:09:10 | 02:32:16 | 00:00:00 | |
| AA1-15 | 2026-09-03 01:48:38 | 51.74458 | 6.78057 | 120° | 77km/h | 15476m | -6.9m/s | -55.5°C | 1.7% | 118.6hPa | 2.5V | 08:09:17 | 02:32:15 | 00:00:00 | |
| BIOWL7-15 | 2026-09-03 01:48:37 | 51.74458 | 6.78057 | 121° | 77km/h | 15476m | -6.9m/s | -55.5°C | 1.9% | 118.6hPa | 2.5V | 00:00:00 | 00:00:00 | 00:00:00 | |
| DM0DOS-11 | 2026-09-03 01:48:35 | 51.74533 | 6.77831 | 116° | 80km/h | 15531m | -7m/s | -55.9°C | 5.1% | 117.5hPa | 2.5V | 08:09:19 | 02:32:07 | 00:00:00 | |
| DO2JMG | 2026-09-03 01:48:34 | 51.74496 | 6.77945 | 118° | 78km/h | 15503m | -7.1m/s | -55.7°C | 1.7% | 118.1hPa | 2.5V | 08:09:17 | 02:32:11 | 00:00:00 | |
| DO1YAY-16 | 2026-09-03 01:48:34 | 51.74505 | 6.77917 | 117° | 78km/h | 15510m | -7.4m/s | -55.8°C | 2.0% | 118.0hPa | 2.5V | 00:00:00 | 00:00:00 | 00:00:00 | |
| GOEST3-10 | 2026-09-03 01:48:32 | 51.74514 | 6.77888 | 118° | 80km/h | 15518m | -7.0m/s | -55.8°C | 5.1% | 117.8hPa | 2.5V | 00:00:00 | 02:32:09 | 00:00:00 | |
| DL1XH-15 | 2026-09-03 01:48:31 | 51.74542 | 6.77802 | 117° | 80km/h | 15538m | -7m/s | -55.9°C | 5.1% | 117.4hPa | 2.5V | 08:09:20 | 02:32:06 | 00:00:00 | |
| BIOWL1-15 | 2026-09-03 01:48:29 | 51.74542 | 6.77802 | 118° | 80km/h | 15538m | -7.1m/s | -55.9°C | 1.7% | 117.4hPa | 2.5V | 08:10:08 | 02:32:06 | 00:00:00 | |
| AA1-15 | 2026-09-03 01:48:28 | 51.74551 | 6.77773 | 118° | 80km/h | 15545m | -7m/s | -55.9°C | 1.7% | 117.3hPa | 2.5V | 08:10:08 | 02:32:05 | 00:00:00 | |
| BIOWL9-15 | 2026-09-03 01:48:27 | 51.74570 | 6.77716 | 118° | 78km/h | 15560m | -7.0m/s | -55.9°C | 2.0% | 117.0hPa | 2.5V | 00:00:00 | 00:00:00 | 00:00:00 | |
| DK5PH-5 | 2026-09-03 01:48:26 | 51.74570 | 6.77716 | 119° | 73km/h | 15560m | -7.0m/s | -55.9°C | 5.1% | 116.9hPa | 2.5V | 00:00:00 | 02:32:03 | 00:00:00 | |
| DM0DOS-11 | 2026-09-03 01:48:25 | 51.74629 | 6.77551 | 120° | 77km/h | 15601m | -7.2m/s | -55.9°C | 5.1% | 116.2hPa | 2.5V | 08:09:29 | 02:31:57 | 00:00:00 | |
| DL1XH-west | 2026-09-03 01:48:23 | 51.74599 | 6.77632 | 120° | 78km/h | 15580m | -6.9m/s | -55.9°C | 1.7% | 116.6hPa | 2.6V | 08:10:08 | 02:32:00 | 00:00:00 | |
| DB0UT-7 | 2026-09-03 01:48:22 | 51.74609 | 6.77605 | 121° | 71km/h | 15588m | -6.9m/s | -55.8°C | 5.0% | 116.5hPa | 2.5V | 00:00:00 | 02:31:59 | 00:00:00 | |
| DL1XH-15 | 2026-09-03 01:48:21 | 51.74639 | 6.77524 | 121° | 77km/h | 15609m | -7m/s | -55.9°C | 5.1% | 116.1hPa | 2.5V | 08:09:30 | 02:31:56 | 00:00:00 | |
| BIOWL1-15 | 2026-09-03 01:48:19 | 51.74639 | 6.77524 | 121° | 77km/h | 15609m | -7.1m/s | -55.9°C | 1.7% | 116.1hPa | 2.5V | 08:10:08 | 02:31:56 | 00:00:00 | |
| AA1-15 | 2026-09-03 01:48:17 | 51.74659 | 6.77471 | 122° | 77km/h | 15623m | -7m/s | -55.9°C | 1.8% | 115.8hPa | 2.6V | 08:10:08 | 02:31:54 | 00:00:00 | |
| DJ2KF-10 | 2026-09-03 01:48:16 | 51.74669 | 6.77445 | 123° | 69km/h | 15630m | -6.9m/s | -55.8°C | 5.1% | 115.7hPa | 2.6V | 00:00:00 | 02:31:53 | 00:00:00 | |
| DM0DOS-11 | 2026-09-03 01:48:15 | 51.74732 | 6.77288 | 123° | 75km/h | 15672m | -7.4m/s | -55.7°C | 4.9% | 115hPa | 2.5V | 08:09:39 | 02:31:47 | 00:00:00 | |
| DO2JMG | 2026-09-03 01:48:13 | 51.74700 | 6.77366 | 123° | 77km/h | 15651m | -7.3m/s | -55.7°C | 1.6% | 115.3hPa | 2.5V | 08:10:08 | 02:31:50 | 00:00:00 | |
| DL1XH-west | 2026-09-03 01:48:12 | 51.74711 | 6.77340 | 124° | 77km/h | 15658m | -7.2m/s | -55.7°C | 1.7% | 115.2hPa | 2.5V | 08:10:08 | 02:31:49 | 00:00:00 | |
| GOEST3-10 | 2026-09-03 01:48:12 | 51.74711 | 6.77340 | 124° | 75km/h | 15658m | -7.1m/s | -55.6°C | 5.0% | 115.2hPa | 2.6V | 00:00:00 | 02:31:49 | 00:00:00 | |
| DL1XH-15 | 2026-09-03 01:48:11 | 51.74742 | 6.77263 | 124° | 73km/h | 15680m | -6.9m/s | -55.7°C | 5% | 114.8hPa | 2.6V | 08:09:40 | 02:31:46 | 00:00:00 | |
| BIOWL1-15 | 2026-09-03 01:48:09 | 51.74742 | 6.77263 | 124° | 73km/h | 15680m | -6.9m/s | -55.7°C | 1.6% | 114.8hPa | 2.6V | 08:10:08 | 02:31:46 | 00:00:00 | |
| AA1-15 | 2026-09-03 01:48:06 | 51.74773 | 6.77191 | 125° | 71km/h | 15701m | -7.1m/s | -55.7°C | 1.6% | 114.5hPa | 2.5V | 08:10:08 | 02:31:43 | 00:00:00 | |
| DO2JMG | 2026-09-03 01:48:03 | 51.74804 | 6.77120 | 126° | 71km/h | 15722m | -7.2m/s | -55.8°C | 1.6% | 114hPa | 2.5V | 08:10:08 | 02:31:40 | 00:00:00 | |
| DL1XH-west | 2026-09-03 01:48:02 | 51.74815 | 6.77097 | 125° | 69km/h | 15730m | -7.3m/s | -55.7°C | 1.7% | 113.9hPa | 2.5V | 08:10:08 | 02:31:39 | 00:00:00 | |
| DL1XH-15 | 2026-09-03 01:48:01 | 51.74845 | 6.77028 | 124° | 68km/h | 15751m | -7.1m/s | -55.3°C | 4.9% | 113.5hPa | 2.6V | 08:09:50 | 02:31:36 | 00:00:00 | |
| BIOWL1-15 | 2026-09-03 01:48:01 | 51.74845 | 6.77028 | 125° | 68km/h | 15751m | -7.1m/s | -55.3°C | 1.6% | 113.5hPa | 2.6V | 08:10:08 | 02:31:36 | 00:00:00 | |
| AA1-15 | 2026-09-03 01:47:56 | 51.74873 | 6.76961 | 123° | 64km/h | 15773m | -7.5m/s | -55.3°C | 1.4% | 113.2hPa | 2.5V | 08:10:08 | 02:31:33 | 00:00:00 | |
| DL8DAS-14 | 2026-09-03 01:47:56 | 51.74882 | 6.76939 | 122° | 64km/h | 15781m | -7.4m/s | -55.3°C | 1.9% | 113.0hPa | 2.5V | 00:00:00 | 00:00:00 | 00:00:00 | |
| DM0DOS-11 | 2026-09-03 01:47:55 | 51.74921 | 6.76830 | 119° | 60km/h | 15818m | -7.4m/s | -55.6°C | 4.9% | 112.3hPa | 2.5V | 08:09:59 | 02:31:27 | 00:00:00 | |
| DO2JMG | 2026-09-03 01:47:52 | 51.74906 | 6.76873 | 120° | 62km/h | 15803m | -7.5m/s | -55.5°C | 1.5% | 112.6hPa | 2.6V | 08:10:08 | 02:31:29 | 00:00:00 | |
| DL1XH-west | 2026-09-03 01:47:51 | 51.74914 | 6.76852 | 120° | 62km/h | 15811m | -7.2m/s | -55.5°C | 1.5% | 112.5hPa | 2.6V | 08:10:08 | 02:31:28 | 00:00:00 | |
| BIOWL1-15 | 2026-09-03 01:47:48 | 51.74937 | 6.76786 | 120° | 62km/h | 15833m | -7.5m/s | -55.6°C | 1.5% | 112.1hPa | 2.5V | 08:10:08 | 02:31:25 | 00:00:00 | |
| SONCRA | 2026-09-03 01:47:47 | 51.74953 | 6.76741 | 120° | 64km/h | 15847m | -7.6m/s | -55.7°C | 1.9% | 111.8hPa | 2.6V | 00:00:00 | 00:00:00 | 00:00:00 | |
| DJ2KF-10 | 2026-09-03 01:47:46 | 51.74953 | 6.76741 | 121° | 62km/h | 15847m | -7.5m/s | -55.7°C | 5.0% | 111.8hPa | 2.6V | 00:00:00 | 02:31:23 | 00:00:00 | |
| DM0DOS-11 | 2026-09-03 01:47:45 | 51.75007 | 6.76596 | 121° | 69km/h | 15894m | -8.3m/s | -55.5°C | 5% | 111hPa | 2.6V | 08:10:09 | 02:31:17 | 00:00:00 | |
| AA1-15 | 2026-09-03 01:47:45 | 51.74962 | 6.76718 | 121° | 68km/h | 15855m | -7.6m/s | -55.7°C | 1.5% | 111.7hPa | 2.6V | 08:10:08 | 02:31:22 | 00:00:00 | |
| DO2JMG | 2026-09-03 01:47:42 | 51.74989 | 6.76645 | 121° | 71km/h | 15878m | -7.8m/s | -55.6°C | 1.4% | 111.3hPa | 2.5V | 08:10:08 | 02:31:19 | 00:00:00 | |
| DL1XH-15 | 2026-09-03 01:47:41 | 51.75016 | 6.76572 | 121° | 69km/h | 15902m | -7.9m/s | -55.5°C | 4.9% | 110.9hPa | 2.5V | 08:10:10 | 02:31:16 | 00:00:00 | |
| DL1XH-west | 2026-09-03 01:47:41 | 51.74998 | 6.76620 | 121° | 71km/h | 15886m | -8.1m/s | -55.5°C | 1.6% | 111.2hPa | 2.6V | 08:10:08 | 02:31:18 | 00:00:00 | |
| BIOWL1-15 | 2026-09-03 01:47:40 | 51.75026 | 6.76548 | 122° | 68km/h | 15910m | -8m/s | -55.5°C | 1.4% | 110.8hPa | 2.5V | 08:10:59 | 02:31:15 | 00:00:00 | |
| DO3DL | 2026-09-03 01:47:38 | 51.75016 | 6.76571 | 123° | 69km/h | 15902m | -7.9m/s | -55.5°C | 1.8% | 110.9hPa | 2.5V | 08:10:00 | 00:00:00 | 00:00:00 | |
| GOEST3-10 | 2026-09-03 01:47:37 | 51.75035 | 6.76524 | 123° | 66km/h | 15918m | -7.7m/s | -55.5°C | 4.9% | 110.6hPa | 2.5V | 00:00:00 | 00:00:00 | 00:00:00 | |
| DM0DOS-11 | 2026-09-03 01:47:35 | 51.75096 | 6.76367 | 122° | 62km/h | 15972m | -7.7m/s | -55.1°C | 4.7% | 109.7hPa | 2.6V | 08:10:19 | 02:31:07 | 00:00:00 | |
| AA1-15 | 2026-09-03 01:47:34 | 51.75062 | 6.76456 | 123° | 66km/h | 15941m | -7.6m/s | -55.2°C | 1.5% | 110.2hPa | 2.6V | 08:10:59 | 02:31:11 | 00:00:00 | |
| DF5WG-10 | 2026-09-03 01:47:34 | 51.75062 | 6.76456 | 123° | 64km/h | 15941m | -7.6m/s | -55.1°C | 4.8% | 110.2hPa | 2.6V | 00:00:00 | 02:31:11 | 00:00:00 | |
| DD1CC3-15 | 2026-09-03 01:47:33 | 51.75061 | 6.76456 | 124° | 66km/h | 15941m | -7.6m/s | -55.2°C | 1.9% | 110.2hPa | 2.6V | 08:10:00 | 00:00:00 | 00:00:00 | |
| DB0NH | 2026-09-03 01:47:32 | 51.75079 | 6.76412 | 122° | 58km/h | 15957m | -8.0m/s | -55.1°C | 4.7% | 109.9hPa | 2.6V | 00:00:00 | 02:31:09 | 00:00:00 | |
| DL1XH-15 | 2026-09-03 01:47:31 | 51.75105 | 6.76346 | 121° | 62km/h | 15979m | -7.7m/s | -55°C | 4.7% | 109.6hPa | 2.6V | 08:10:20 | 02:31:06 | 00:00:00 | |
| DL1XH-west | 2026-09-03 01:47:31 | 51.75088 | 6.76389 | 122° | 64km/h | 15964m | -7.8m/s | -55.2°C | 1.4% | 109.8hPa | 2.5V | 08:10:59 | 02:31:08 | 00:00:00 | |
| BIOWL1-15 | 2026-09-03 01:47:30 | 51.75112 | 6.76325 | 121° | 60km/h | 15987m | -7.7m/s | -54.9°C | 1.3% | 109.4hPa | 2.5V | 08:10:59 | 02:31:05 | 00:00:00 | |
| DH3RM | 2026-09-03 01:47:28 | 51.75105 | 6.76346 | 122° | 62km/h | 15980m | -7.7m/s | -55.0°C | 1.7% | 109.6hPa | 2.5V | 08:10:00 | 00:00:00 | 00:00:00 | |
| GOEST3-10 | 2026-09-03 01:47:27 | 51.75120 | 6.76304 | 121° | 58km/h | 15995m | -7.4m/s | -54.8°C | 4.6% | 109.2hPa | 2.5V | 00:00:00 | 00:00:00 | 00:00:00 | |
| DK5PH-5 | 2026-09-03 01:47:26 | 51.75127 | 6.76283 | 120° | 58km/h | 16002m | -7.3m/s | -54.8°C | 4.6% | 109.1hPa | 2.5V | 00:00:00 | 02:31:03 | 00:00:00 | |
| DM0DOS-11 | 2026-09-03 01:47:25 | 51.75169 | 6.76162 | 116° | 55km/h | 16047m | -7.6m/s | -54.8°C | 4.6% | 108.4hPa | 2.5V | 08:10:29 | 02:30:57 | 00:00:00 | |
| AA1-15 | 2026-09-03 01:47:23 | 51.75149 | 6.76222 | 119° | 57km/h | 16025m | -7.7m/s | -54.8°C | 1.3% | 108.8hPa | 2.5V | 08:10:59 | 02:31:00 | 00:00:00 | |
| BIOWL1-15 | 2026-09-03 01:47:22 | 51.75181 | 6.76122 | 115° | 55km/h | 16063m | -7.6m/s | -54.9°C | 1.3% | 108.2hPa | 2.6V | 08:10:59 | 02:30:55 | 00:00:00 | |
| DB0UT-7 | 2026-09-03 01:47:22 | 51.75156 | 6.76202 | 119° | 58km/h | 16032m | -7.6m/s | -54.8°C | 4.6% | 108.6hPa | 2.6V | 00:00:00 | 02:30:59 | 00:00:00 | |
| DL1XH-15 | 2026-09-03 01:47:21 | 51.75175 | 6.76142 | 116° | 55km/h | 16055m | -7.8m/s | -54.9°C | 4.5% | 108.3hPa | 2.6V | 08:10:30 | 02:30:56 | 00:00:00 | |
| DO2JMG | 2026-09-03 01:47:21 | 51.75162 | 6.76182 | 118° | 55km/h | 16040m | -7.7m/s | -54.8°C | 1.2% | 108.5hPa | 2.5V | 08:10:59 | 02:30:58 | 00:00:00 | |
| DL1XH-west | 2026-09-03 01:47:20 | 51.75169 | 6.76162 | 117° | 55km/h | 16047m | -7.6m/s | -54.8°C | 1.3% | 108.4hPa | 2.5V | 08:10:59 | 02:30:57 | 00:00:00 | |
| BIOWL7-15 | 2026-09-03 01:47:18 | 51.75175 | 6.76142 | 118° | 55km/h | 16055m | -7.8m/s | -54.9°C | 1.6% | 108.3hPa | 2.5V | 00:00:00 | 00:00:00 | 00:00:00 | |
| GOEST3-10 | 2026-09-03 01:47:17 | 51.75187 | 6.76102 | 115° | 55km/h | 16071m | -7.6m/s | -54.9°C | 4.6% | 108.0hPa | 2.5V | 00:00:00 | 00:00:00 | 00:00:00 | |
| DJ2KF-10 | 2026-09-03 01:47:16 | 51.75192 | 6.76082 | 114° | 58km/h | 16079m | -7.7m/s | -55.0°C | 4.7% | 107.9hPa | 2.5V | 00:00:00 | 02:30:53 | 00:00:00 | |
| DM0DOS-11 | 2026-09-03 01:47:15 | 51.75225 | 6.75959 | 112° | 57km/h | 16124m | -7.8m/s | -55.4°C | 4.8% | 107.1hPa | 2.5V | 08:10:39 | 02:30:47 | 00:00:00 | |
| AA1-15 | 2026-09-03 01:47:12 | 51.75215 | 6.76000 | 113° | 55km/h | 16108m | -7.6m/s | -55.2°C | 1.3% | 107.4hPa | 2.5V | 08:10:59 | 02:30:49 | 00:00:00 | |
| GOEST3-10 | 2026-09-03 01:47:12 | 51.75214 | 6.76000 | 114° | 57km/h | 16109m | -7.6m/s | -55.2°C | 4.8% | 107.3hPa | 2.6V | 00:00:00 | 02:30:49 | 00:00:00 | |
| DL1XH-15 | 2026-09-03 01:47:11 | 51.75231 | 6.75937 | 113° | 57km/h | 16131m | -7.6m/s | -55.4°C | 4.8% | 107hPa | 2.6V | 08:10:40 | 02:30:46 | 00:00:00 | |
| DO2JMG | 2026-09-03 01:47:10 | 51.75226 | 6.75959 | 113° | 57km/h | 16124m | -7.8m/s | -55.4°C | 1.4% | 107.1hPa | 2.5V | 08:10:59 | 02:30:47 | 00:00:00 | |
| DL1XH-west | 2026-09-03 01:47:09 | 51.75231 | 6.75937 | 113° | 57km/h | 16131m | -7.6m/s | -55.4°C | 1.4% | 107hPa | 2.6V | 08:10:59 | 02:30:46 | 00:00:00 | |
| BIOWL1-15 | 2026-09-03 01:47:08 | 51.75237 | 6.75916 | 112° | 58km/h | 16139m | -7.8m/s | -55.4°C | 1.3% | 106.9hPa | 2.6V | 08:10:59 | 02:30:45 | 00:00:00 | |
| GOEST3-10 | 2026-09-03 01:47:07 | 51.75242 | 6.75893 | 112° | 60km/h | 16147m | -7.5m/s | -55.4°C | 4.9% | 106.7hPa | 2.5V | 00:00:00 | 00:00:00 | 00:00:00 | |
| WEDDY | 2026-09-03 01:47:06 | 51.75242 | 6.75893 | 113° | 58km/h | 16147m | -7.6m/s | -55.4°C | 1.8% | 106.7hPa | 2.5V | 08:10:00 | 00:00:00 | 00:00:00 | |
| DM0DOS-11 | 2026-09-03 01:47:05 | 51.75281 | 6.75731 | 112° | 62km/h | 16200m | -7.6m/s | -55.4°C | 4.9% | 105.8hPa | 2.5V | 08:10:49 | 02:30:37 | 00:00:00 | |
| AA1-15 | 2026-09-03 01:47:02 | 51.75270 | 6.75779 | 110° | 62km/h | 16185m | -7.6m/s | -55.6°C | 1.4% | 106.1hPa | 2.6V | 08:10:59 | 02:30:39 | 00:00:00 | |
| DL1XH-15 | 2026-09-03 01:47:01 | 51.75287 | 6.75708 | 112° | 62km/h | 16207m | -7.6m/s | -55.4°C | 4.9% | 105.7hPa | 2.5V | 08:10:50 | 02:30:36 | 00:00:00 | |
| DO2JMG | 2026-09-03 01:47:00 | 51.75281 | 6.75731 | 112° | 62km/h | 16200m | -7.6m/s | -55.4°C | 1.4% | 105.8hPa | 2.5V | 08:10:59 | 02:30:37 | 00:00:00 | |
| BIOWL1-15 | 2026-09-03 01:46:59 | 51.75299 | 6.75662 | 114° | 60km/h | 16223m | -7.6m/s | -55.3°C | 1.4% | 105.5hPa | 2.6V | 08:10:59 | 02:30:34 | 00:00:00 | |
| DL1XH-west | 2026-09-03 01:46:59 | 51.75287 | 6.75708 | 112° | 62km/h | 16207m | -7.6m/s | -55.4°C | 1.4% | 105.7hPa | 2.5V | 08:10:59 | 02:30:36 | 00:00:00 | |
| DO3DL | 2026-09-03 01:46:57 | 51.75293 | 6.75685 | 114° | 60km/h | 16215m | -8.0m/s | -55.3°C | 1.8% | 105.6hPa | 2.5V | 08:10:00 | 00:00:00 | 00:00:00 | |
| GOEST3-10 | 2026-09-03 01:46:56 | 51.75305 | 6.75640 | 114° | 60km/h | 16231m | -7.8m/s | -55.1°C | 4.8% | 105.3hPa | 2.5V | 00:00:00 | 00:00:00 | 00:00:00 | |
| DM0DOS-11 | 2026-09-03 01:46:55 | 51.75342 | 6.75508 | 113° | 58km/h | 16277m | -8m/s | -54.8°C | 4.7% | 104.6hPa | 2.5V | 08:10:59 | 02:30:27 | 00:00:00 | |
| EDDB2-12 | 2026-09-03 01:46:55 | 51.75324 | 6.75573 | 114° | 58km/h | 16253m | -7.5m/s | -54.9°C | 1.7% | 105.0hPa | 2.5V | 00:00:00 | 00:00:00 | 00:00:00 | |
| DL8DAS-14 | 2026-09-03 01:46:54 | 51.75330 | 6.75551 | 114° | 58km/h | 16261m | -7.9m/s | -54.9°C | 1.7% | 104.8hPa | 2.5V | 00:00:00 | 00:00:00 | 00:00:00 | |
| SONDE2-11 | 2026-09-03 01:46:53 | 51.75336 | 6.75530 | 114° | 57km/h | 16269m | -7.8m/s | -54.8°C | 1.7% | 104.8hPa | 2.5V | 00:00:00 | 00:00:00 | 00:00:00 | |
| DL1XH-15 | 2026-09-03 01:46:52 | 51.75348 | 6.75486 | 112° | 58km/h | 16285m | -7.8m/s | -54.6°C | 4.6% | 104.5hPa | 2.5V | 08:11:00 | 02:30:26 | 00:00:00 | |
| AA1-15 | 2026-09-03 01:46:51 | 51.75336 | 6.75530 | 114° | 58km/h | 16269m | -7.8m/s | -54.8°C | 1.3% | 104.8hPa | 2.5V | 08:10:59 | 02:30:28 | 00:00:00 | |
| DO2JMG | 2026-09-03 01:46:50 | 51.75342 | 6.75508 | 113° | 58km/h | 16277m | -8m/s | -54.8°C | 1.3% | 104.6hPa | 2.5V | 08:10:59 | 02:30:27 | 00:00:00 | |
| DL1XH-west | 2026-09-03 01:46:48 | 51.75353 | 6.75465 | 113° | 57km/h | 16292m | -7.9m/s | -54.4°C | 1.2% | 104.3hPa | 2.5V | 08:11:50 | 02:30:25 | 00:00:00 | |
| BIOWL1-15 | 2026-09-03 01:46:48 | 51.75364 | 6.75422 | 113° | 57km/h | 16308m | -7.9m/s | -54.1°C | 1.1% | 104.1hPa | 2.6V | 08:11:50 | 02:30:23 | 00:00:00 | |
| DH3RM | 2026-09-03 01:46:47 | 51.75353 | 6.75465 | 114° | 57km/h | 16292m | -7.9m/s | -54.4°C | 1.6% | 104.3hPa | 2.6V | 08:11:00 | 00:00:00 | 00:00:00 | |
| DJ2KF-10 | 2026-09-03 01:46:46 | 51.75364 | 6.75422 | 113° | 51km/h | 16308m | -7.9m/s | -54.1°C | 4.4% | 104.0hPa | 2.6V | 00:00:00 | 02:30:23 | 00:00:00 | |
| DM0DOS-11 | 2026-09-03 01:46:45 | 51.75398 | 6.75299 | 114° | 53km/h | 16355m | -7.9m/s | -54.2°C | 4.4% | 103.3hPa | 2.5V | 08:11:09 | 02:30:17 | 00:00:00 | |
| DF5WG-10 | 2026-09-03 01:46:44 | 51.75376 | 6.75380 | 114° | 53km/h | 16324m | -7.8m/s | -54.0°C | 4.4% | 103.8hPa | 2.5V | 00:00:00 | 02:30:21 | 00:00:00 | |
| WPPR-10 | 2026-09-03 01:46:42 | 51.75387 | 6.75339 | 114° | 53km/h | 16339m | -8.0m/s | -54.1°C | 1.6% | 103.6hPa | 2.5V | 00:00:00 | 00:00:00 | 00:00:00 | |
| DL1XH-15 | 2026-09-03 01:46:41 | 51.75403 | 6.75280 | 113° | 51km/h | 16363m | -7.9m/s | -54.2°C | 4.4% | 103.2hPa | 2.5V | 08:11:10 | 02:30:16 | 00:00:00 | |
| AA1-15 | 2026-09-03 01:46:41 | 51.75393 | 6.75319 | 114° | 53km/h | 16347m | -7.8m/s | -54.1°C | 1.1% | 103.5hPa | 2.6V | 08:11:50 | 02:30:18 | 00:00:00 | |
| DO2JMG | 2026-09-03 01:46:39 | 51.75403 | 6.75280 | 114° | 51km/h | 16363m | -7.9m/s | -54.2°C | 1.1% | 103.2hPa | 2.5V | 08:11:50 | 02:30:16 | 00:00:00 | |
| DL1XH-west | 2026-09-03 01:46:37 | 51.75413 | 6.75242 | 112° | 49km/h | 16378m | -7.8m/s | -54.3°C | 1.2% | 103hPa | 2.6V | 08:11:50 | 02:30:14 | 00:00:00 | |
| BIOWL1-15 | 2026-09-03 01:46:36 | 51.75418 | 6.75223 | 113° | 49km/h | 16386m | -8.2m/s | -54.4°C | 1.2% | 102.8hPa | 2.6V | 08:11:50 | 02:30:13 | 00:00:00 | |
| GOEST3-10 | 2026-09-03 01:46:36 | 51.75418 | 6.75223 | 113° | 49km/h | 16387m | -8.1m/s | -54.4°C | 4.5% | 102.8hPa | 2.6V | 08:11:00 | 00:00:00 | 00:00:00 | |
| DF5WG-10 | 2026-09-03 01:46:34 | 51.75427 | 6.75186 | 111° | 49km/h | 16403m | -7.8m/s | -54.5°C | 4.5% | 102.5hPa | 2.5V | 08:11:00 | 02:30:11 | 00:00:00 | |
| DH3RM | 2026-09-03 01:46:33 | 51.75427 | 6.75186 | 112° | 49km/h | 16403m | -7.9m/s | -54.5°C | 1.6% | 102.6hPa | 2.5V | 08:11:00 | 00:00:00 | 00:00:00 | |
| DL1XH-15 | 2026-09-03 01:46:31 | 51.75447 | 6.75093 | 105° | 49km/h | 16442m | -8m/s | -54.6°C | 4.6% | 102hPa | 2.5V | 08:11:20 | 02:30:06 | 00:00:00 | |
| AA1-15 | 2026-09-03 01:46:30 | 51.75443 | 6.75112 | 107° | 49km/h | 16434m | -8m/s | -54.6°C | 1.2% | 102.1hPa | 2.6V | 08:11:50 | 02:30:07 | 00:00:00 | |
| DO2JMG | 2026-09-03 01:46:29 | 51.75447 | 6.75093 | 106° | 49km/h | 16442m | -8m/s | -54.6°C | 1.2% | 102hPa | 2.5V | 08:11:50 | 02:30:06 | 00:00:00 | |
| DL1XH-west | 2026-09-03 01:46:26 | 51.75455 | 6.75035 | 101° | 49km/h | 16466m | -8.1m/s | -54.7°C | 1.2% | 101.6hPa | 2.5V | 08:11:50 | 02:30:03 | 00:00:00 | |
| AA1-15 | 2026-09-03 01:46:19 | 51.75471 | 6.74892 | 103° | 53km/h | 16522m | -7.9m/s | -54.5°C | 1.2% | 100.7hPa | 2.5V | 08:11:50 | 02:29:56 | 00:00:00 | |
| DO2JMG | 2026-09-03 01:46:18 | 51.75475 | 6.74870 | 103° | 53km/h | 16530m | -7.7m/s | -54.6°C | 1.2% | 100.5hPa | 2.5V | 08:11:50 | 02:29:55 | 00:00:00 | |
| DL1XH-west | 2026-09-03 01:46:15 | 51.75485 | 6.74806 | 104° | 55km/h | 16553m | -8.3m/s | -54.7°C | 1.3% | 100.2hPa | 2.6V | 08:11:50 | 02:29:52 | 00:00:00 | |
| DF5WG-10 | 2026-09-03 01:46:14 | 51.75488 | 6.74784 | 104° | 55km/h | 16562m | -8.3m/s | -54.7°C | 4.6% | 100.0hPa | 2.6V | 00:00:00 | 02:29:51 | 00:00:00 | |
| DH3RM | 2026-09-03 01:46:13 | 51.75488 | 6.74784 | 104° | 55km/h | 16562m | -8.4m/s | -54.8°C | 1.6% | 100.1hPa | 2.6V | 08:11:00 | 00:00:00 | 00:00:00 | |
| DL1XH-15 | 2026-09-03 01:46:11 | 51.75501 | 6.74675 | 98° | 57km/h | 16602m | -8.1m/s | -54.8°C | 4.7% | 99.4hPa | 2.6V | 08:11:40 | 02:29:46 | 00:00:00 | |
| DO2JMG | 2026-09-03 01:46:08 | 51.75503 | 6.74652 | 98° | 57km/h | 16611m | -8.3m/s | -54.7°C | 1.2% | 99.3hPa | 2.5V | 08:11:50 | 02:29:45 | 00:00:00 | |
| BIOWL1-15 | 2026-09-03 01:46:07 | 51.75509 | 6.74583 | 96° | 58km/h | 16635m | -8.2m/s | -54.3°C | 1.1% | 98.9hPa | 2.5V | 08:11:50 | 02:29:42 | 00:00:00 | |
| GOEST3-10 | 2026-09-03 01:46:06 | 51.75507 | 6.74606 | 98° | 57km/h | 16627m | -8.1m/s | -54.5°C | 4.6% | 99.0hPa | 2.5V | 00:00:00 | 00:00:00 | 00:00:00 | |
| DM0DOS-11 | 2026-09-03 01:46:05 | 51.75515 | 6.74466 | 92° | 57km/h | 16677m | -8.2m/s | -54.2°C | 4.4% | 98.3hPa | 2.5V | 08:11:49 | 02:29:37 | 00:00:00 | |
| DL1XH-west | 2026-09-03 01:46:04 | 51.75511 | 6.74560 | 96° | 57km/h | 16643m | -8.1m/s | -54.1°C | 1.1% | 98.8hPa | 2.6V | 08:11:50 | 02:29:41 | 00:00:00 | |
| AA1-15 | 2026-09-03 01:45:58 | 51.75515 | 6.74419 | 92° | 58km/h | 16693m | -8.3m/s | -54.1°C | 1.2% | 98.1hPa | 2.5V | 08:12:41 | 02:29:35 | 00:00:00 | |
| DO2JMG | 2026-09-03 01:45:57 | 51.75516 | 6.74396 | 91° | 58km/h | 16701m | -8.2m/s | -54.1°C | 1.1% | 97.9hPa | 2.5V | 08:12:41 | 02:29:34 | 00:00:00 | |
| BIOWL1-15 | 2026-09-03 01:45:55 | 51.75516 | 6.74348 | 91° | 58km/h | 16717m | -8.4m/s | -54°C | 1% | 97.7hPa | 2.6V | 08:12:41 | 02:29:32 | 00:00:00 | |
| DL1XH-west | 2026-09-03 01:45:53 | 51.75518 | 6.74300 | 92° | 60km/h | 16734m | -8.1m/s | -54°C | 1.1% | 97.4hPa | 2.5V | 08:12:41 | 02:29:30 | 00:00:00 | |
| AA1-15 | 2026-09-03 01:45:47 | 51.75521 | 6.74149 | 92° | 62km/h | 16783m | -8.2m/s | -54°C | 1% | 96.7hPa | 2.5V | 08:12:41 | 02:29:24 | 00:00:00 | |
| DO2JMG | 2026-09-03 01:45:46 | 51.75522 | 6.74124 | 92° | 62km/h | 16791m | -8m/s | -54°C | 1% | 96.6hPa | 2.5V | 08:12:41 | 02:29:23 | 00:00:00 | |
| BIOWL1-15 | 2026-09-03 01:45:44 | 51.75523 | 6.74074 | 93° | 62km/h | 16807m | -8.2m/s | -54.1°C | 1.1% | 96.3hPa | 2.5V | 08:12:41 | 02:29:21 | 00:00:00 | |
| DL1XH-west | 2026-09-03 01:45:42 | 51.75525 | 6.74025 | 95° | 60km/h | 16824m | -8.5m/s | -54.1°C | 1% | 96.1hPa | 2.6V | 08:12:41 | 02:29:19 | 00:00:00 | |
| AA1-15 | 2026-09-03 01:45:37 | 51.75534 | 6.73906 | 98° | 58km/h | 16865m | -8.1m/s | -54°C | 1.1% | 95.5hPa | 2.5V | 08:12:41 | 02:29:14 | 00:00:00 | |
| BIOWL1-15 | 2026-09-03 01:45:36 | 51.75540 | 6.73835 | 99° | 58km/h | 16890m | -8.4m/s | -54.1°C | 1% | 95.1hPa | 2.5V | 08:12:41 | 02:29:11 | 00:00:00 | |
| DM0DOS-11 | 2026-09-03 01:45:35 | 51.75550 | 6.73739 | 101° | 60km/h | 16923m | -8.3m/s | -54.3°C | 4.5% | 94.6hPa | 2.6V | 08:12:19 | 02:29:07 | 00:00:00 | |
| DO2JMG | 2026-09-03 01:45:35 | 51.75538 | 6.73859 | 98° | 58km/h | 16881m | -8.3m/s | -54.1°C | 1.1% | 95.2hPa | 2.6V | 08:12:41 | 02:29:12 | 00:00:00 | |
| DL1XH-west | 2026-09-03 01:45:31 | 51.75547 | 6.73763 | 100° | 60km/h | 16915m | -8.2m/s | -54.2°C | 1.1% | 94.7hPa | 2.5V | 08:12:41 | 02:29:08 | 00:00:00 | |
| AA1-15 | 2026-09-03 01:45:26 | 51.75564 | 6.73644 | 106° | 60km/h | 16956m | -8.1m/s | -54.4°C | 1.1% | 94.1hPa | 2.5V | 08:12:41 | 02:29:03 | 00:00:00 | |
| DK5PH-5 | 2026-09-03 01:45:26 | 51.75564 | 6.73644 | 106° | 53km/h | 16956m | -8.0m/s | -54.3°C | 4.5% | 94.1hPa | 2.5V | 00:00:00 | 02:29:03 | 00:00:00 | |
| DM0DOS-11 | 2026-09-03 01:45:25 | 51.75593 | 6.73511 | 111° | 57km/h | 17006m | -8.5m/s | -54.6°C | 4.5% | 93.4hPa | 2.6V | 08:12:29 | 02:28:57 | 00:00:00 | |
| DO2JMG | 2026-09-03 01:45:25 | 51.75569 | 6.73621 | 108° | 58km/h | 16964m | -8.2m/s | -54.4°C | 1.2% | 94hPa | 2.5V | 08:12:41 | 02:29:02 | 00:00:00 | |
| BIOWL1-15 | 2026-09-03 01:45:24 | 51.75573 | 6.73598 | 108° | 58km/h | 16972m | -8.2m/s | -54.4°C | 1.2% | 93.9hPa | 2.5V | 08:12:41 | 02:29:01 | 00:00:00 | |
| DL1XH-west | 2026-09-03 01:45:20 | 51.75593 | 6.73511 | 112° | 57km/h | 17006m | -8.5m/s | -54.6°C | 1.2% | 93.4hPa | 2.6V | 08:12:41 | 02:28:57 | 00:00:00 | |
| GOEST3-10 | 2026-09-03 01:45:19 | 51.75599 | 6.73489 | 113° | 55km/h | 17014m | -8.2m/s | -54.5°C | 4.5% | 93.2hPa | 2.5V | 00:00:00 | 02:28:56 | 00:00:00 | |
| DO3DL | 2026-09-03 01:45:17 | 51.75604 | 6.73468 | 115° | 55km/h | 17022m | -8.2m/s | -54.6°C | 1.6% | 93.1hPa | 2.5V | 08:12:00 | 00:00:00 | 00:00:00 | |
| DM0DOS-11 | 2026-09-03 01:45:16 | 51.75652 | 6.73317 | 120° | 49km/h | 17088m | -8.1m/s | -54.1°C | 4.4% | 92.2hPa | 2.5V | 08:12:39 | 02:28:47 | 00:00:00 | |
| DO2JMG | 2026-09-03 01:45:15 | 51.75627 | 6.73389 | 116° | 53km/h | 17055m | -8.4m/s | -54.2°C | 1.1% | 92.7hPa | 2.6V | 08:12:41 | 02:28:51 | 00:00:00 | |
| BIOWL1-15 | 2026-09-03 01:45:13 | 51.75633 | 6.73370 | 117° | 51km/h | 17064m | -8.3m/s | -54.2°C | 1% | 92.6hPa | 2.5V | 08:12:41 | 02:28:50 | 00:00:00 | |
| DL1XH-west | 2026-09-03 01:45:10 | 51.75652 | 6.73317 | 121° | 49km/h | 17088m | -8.1m/s | -54.1°C | 1% | 92.2hPa | 2.5V | 08:12:41 | 02:28:47 | 00:00:00 | |
| DL3AQ-11 | 2026-09-03 01:45:09 | 51.75665 | 6.73283 | 122° | 49km/h | 17105m | -8.3m/s | -54.0°C | 1.5% | 91.9hPa | 2.5V | 00:00:00 | 00:00:00 | 00:00:00 | |
| MET0W-2 | 2026-09-03 01:45:08 | 51.75672 | 6.73266 | 123° | 49km/h | 17113m | -8.5m/s | -54.0°C | 1.6% | 91.8hPa | 2.5V | 00:00:00 | 00:00:00 | 00:00:00 | |
| DM0DOS-11 | 2026-09-03 01:45:05 | 51.75723 | 6.73143 | 123° | 53km/h | 17172m | -8.1m/s | -54.1°C | 4.5% | 91hPa | 2.5V | 08:12:49 | 02:28:37 | 00:00:00 | |
| DO2JMG | 2026-09-03 01:45:04 | 51.75693 | 6.73215 | 124° | 51km/h | 17138m | -8.1m/s | -54°C | 1% | 91.5hPa | 2.5V | 08:13:32 | 02:28:41 | 00:00:00 | |
| BIOWL1-15 | 2026-09-03 01:45:02 | 51.75708 | 6.73179 | 124° | 53km/h | 17155m | -8.4m/s | -54°C | 1% | 91.2hPa | 2.6V | 08:13:32 | 02:28:39 | 00:00:00 | |
| DL1XH-15 | 2026-09-03 01:45:01 | 51.75731 | 6.73125 | 124° | 53km/h | 17180m | -8.2m/s | -54.1°C | 4.3% | 90.9hPa | 2.5V | 08:12:50 | 02:28:36 | 00:00:00 | |
| DL1XH-west | 2026-09-03 01:44:59 | 51.75731 | 6.73125 | 124° | 53km/h | 17180m | -8.2m/s | -54.1°C | 1% | 90.9hPa | 2.5V | 08:13:32 | 02:28:36 | 00:00:00 | |
| DL3AQ-11 | 2026-09-03 01:44:58 | 51.75746 | 6.73089 | 123° | 51km/h | 17196m | -8.2m/s | -54.2°C | 1.5% | 90.6hPa | 2.5V | 00:00:00 | 00:00:00 | 00:00:00 | |
| DO1YAY-16 | 2026-09-03 01:44:56 | 51.75753 | 6.73071 | 124° | 51km/h | 17204m | -8.6m/s | -54.2°C | 1.5% | 90.6hPa | 2.5V | 00:00:00 | 00:00:00 | 00:00:00 | |
| DM0DOS-11 | 2026-09-03 01:44:55 | 51.75798 | 6.72970 | 126° | 49km/h | 17254m | -8.3m/s | -54.5°C | 4.5% | 89.8hPa | 2.5V | 08:12:59 | 02:28:27 | 00:00:00 | |
| AA1-15 | 2026-09-03 01:44:54 | 51.75768 | 6.73037 | 125° | 51km/h | 17221m | -8.4m/s | -54.4°C | 1.1% | 90.3hPa | 2.6V | 08:13:32 | 02:28:31 | 00:00:00 | |
| DO2JMG | 2026-09-03 01:44:53 | 51.75776 | 6.73020 | 126° | 51km/h | 17229m | -8.4m/s | -54.4°C | 1% | 90.2hPa | 2.5V | 08:13:32 | 02:28:30 | 00:00:00 | |
| BIOWL1-15 | 2026-09-03 01:44:52 | 51.75783 | 6.73003 | 127° | 51km/h | 17238m | -8.5m/s | -54.4°C | 1.2% | 90.1hPa | 2.5V | 08:13:32 | 02:28:29 | 00:00:00 | |
| DL1XH-15 | 2026-09-03 01:44:51 | 51.75806 | 6.72954 | 126° | 49km/h | 17263m | -8.4m/s | -54.5°C | 4.4% | 89.7hPa | 2.6V | 08:13:00 | 02:28:26 | 00:00:00 | |
| DL1XH-west | 2026-09-03 01:44:48 | 51.75813 | 6.72938 | 127° | 47km/h | 17271m | -8.4m/s | -54.5°C | 1.1% | 89.6hPa | 2.6V | 08:13:32 | 02:28:25 | 00:00:00 | |
| DJ2KF-10 | 2026-09-03 01:44:46 | 51.75827 | 6.72908 | 128° | 37km/h | 17289m | -8.6m/s | -54.6°C | 4.5% | 89.3hPa | 2.5V | 00:00:00 | 02:28:23 | 00:00:00 | |
| DM0DOS-11 | 2026-09-03 01:44:45 | 51.75867 | 6.72822 | 127° | 40km/h | 17339m | -8.4m/s | -54.9°C | 4.6% | 88.7hPa | 2.5V | 08:13:09 | 02:28:17 | 00:00:00 | |
| BIOWL1-15 | 2026-09-03 01:44:43 | 51.75861 | 6.72836 | 127° | 42km/h | 17331m | -8.5m/s | -54.9°C | 1.2% | 88.8hPa | 2.6V | 08:13:32 | 02:28:18 | 00:00:00 | |
| DO2JMG | 2026-09-03 01:44:43 | 51.75848 | 6.72863 | 127° | 44km/h | 17314m | -8.5m/s | -54.8°C | 1.1% | 89hPa | 2.6V | 08:13:32 | 02:28:20 | 00:00:00 | |
| DF5WG-10 | 2026-09-03 01:44:42 | 51.75855 | 6.72849 | 128° | 38km/h | 17322m | -8.5m/s | -54.8°C | 4.6% | 88.8hPa | 2.5V | 00:00:00 | 02:28:19 | 00:00:00 | |
| DL1XH-15 | 2026-09-03 01:44:41 | 51.75874 | 6.72809 | 128° | 40km/h | 17347m | -8.6m/s | -54.9°C | 4.6% | 88.6hPa | 2.5V | 08:13:10 | 02:28:16 | 00:00:00 | |
| DL1XH-west | 2026-09-03 01:44:38 | 51.75880 | 6.72796 | 129° | 40km/h | 17356m | -8.6m/s | -54.8°C | 1.2% | 88.5hPa | 2.5V | 08:13:32 | 02:28:15 | 00:00:00 | |
| EDDB2-11 | 2026-09-03 01:44:37 | 51.75893 | 6.72771 | 128° | 38km/h | 17373m | -8.4m/s | -54.8°C | 1.6% | 88.2hPa | 2.6V | 00:00:00 | 00:00:00 | 00:00:00 | |
| DB0ND-19 | 2026-09-03 01:44:36 | 51.75899 | 6.72759 | 128° | 38km/h | 17381m | -8.4m/s | -54.8°C | 1.5% | 88.1hPa | 2.6V | 00:00:00 | 00:00:00 | 00:00:00 | |
| DM0DOS-11 | 2026-09-03 01:44:35 | 51.75927 | 6.72700 | 125° | 35km/h | 17423m | -8.1m/s | -54.6°C | 4.4% | 87.5hPa | 2.6V | 08:13:19 | 02:28:07 | 00:00:00 | |
| AA1-15 | 2026-09-03 01:44:33 | 51.75910 | 6.72734 | 127° | 37km/h | 17398m | -8.4m/s | -54.7°C | 0.8% | 87.9hPa | 2.5V | 08:13:32 | 02:28:10 | 00:00:00 | |
| DO2JMG | 2026-09-03 01:44:32 | 51.75916 | 6.72723 | 128° | 37km/h | 17407m | -8.7m/s | -54.6°C | 1.1% | 87.8hPa | 2.5V | 08:13:32 | 02:28:09 | 00:00:00 | |
| DL1XH-15 | 2026-09-03 01:44:31 | 51.75932 | 6.72689 | 124° | 33km/h | 17432m | -8.6m/s | -54.7°C | 4.4% | 87.4hPa | 2.6V | 08:13:20 | 02:28:06 | 00:00:00 | |
| BIOWL1-15 | 2026-09-03 01:44:30 | 51.75927 | 6.72700 | 125° | 35km/h | 17423m | -8.1m/s | -54.6°C | 1.1% | 87.5hPa | 2.6V | 08:13:32 | 02:28:07 | 00:00:00 | |
| DL1XH-west | 2026-09-03 01:44:28 | 51.75936 | 6.72677 | 123° | 33km/h | 17440m | -8.5m/s | -54.7°C | 1.1% | 87.3hPa | 2.6V | 08:13:32 | 02:28:05 | 00:00:00 | |
| DH3RM | 2026-09-03 01:44:27 | 51.75936 | 6.72677 | 124° | 33km/h | 17440m | -8.5m/s | -54.7°C | 1.5% | 87.3hPa | 2.5V | 08:13:00 | 00:00:00 | 00:00:00 | |
| DK5PH-5 | 2026-09-03 01:44:26 | 51.75945 | 6.72654 | 120° | 38km/h | 17457m | -8.5m/s | -54.8°C | 4.5% | 87.0hPa | 2.5V | 00:00:00 | 02:28:03 | 00:00:00 | |
| DM0DOS-11 | 2026-09-03 01:44:25 | 51.75966 | 6.72582 | 110° | 33km/h | 17509m | -8.7m/s | -55°C | 4.6% | 86.4hPa | 2.5V | 08:13:29 | 02:27:57 | 00:00:00 | |
| DO2JMG | 2026-09-03 01:44:22 | 51.75960 | 6.72606 | 113° | 33km/h | 17492m | -8.6m/s | -55°C | 1.2% | 86.6hPa | 2.6V | 08:13:32 | 02:27:59 | 00:00:00 | |
| DB0UT-7 | 2026-09-03 01:44:22 | 51.75960 | 6.72606 | 114° | 40km/h | 17492m | -8.5m/s | -54.9°C | 4.5% | 86.5hPa | 2.5V | 00:00:00 | 02:27:59 | 00:00:00 | |
| DL1XH-15 | 2026-09-03 01:44:21 | 51.75969 | 6.72570 | 109° | 33km/h | 17517m | -8.4m/s | -55°C | 4.5% | 86.2hPa | 2.5V | 08:13:30 | 02:27:56 | 00:00:00 | |
| BIOWL1-15 | 2026-09-03 01:44:19 | 51.75969 | 6.72570 | 109° | 33km/h | 17517m | -8.4m/s | -55.1°C | 1.1% | 86.2hPa | 2.5V | 08:13:32 | 02:27:56 | 00:00:00 | |
| DL1XH-west | 2026-09-03 01:44:17 | 51.75974 | 6.72545 | 107° | 33km/h | 17534m | -8.7m/s | -55°C | 1.2% | 86hPa | 2.6V | 08:13:32 | 02:27:54 | 00:00:00 | |
| AA1-15 | 2026-09-03 01:44:12 | 51.75985 | 6.72475 | 101° | 37km/h | 17577m | -8.5m/s | -55.1°C | 1.2% | 85.4hPa | 2.6V | 08:14:23 | 02:27:49 | 00:00:00 | |
| DL1XH-15 | 2026-09-03 01:44:11 | 51.75991 | 6.72429 | 101° | 38km/h | 17603m | -8.7m/s | -55.1°C | 4.6% | 85.1hPa | 2.5V | 08:13:40 | 02:27:46 | 00:00:00 | |
| DO2JMG | 2026-09-03 01:44:11 | 51.75987 | 6.72460 | 102° | 38km/h | 17586m | -8.7m/s | -55.1°C | 1.2% | 85.3hPa | 2.6V | 08:14:23 | 02:27:48 | 00:00:00 | |
| BIOWL1-15 | 2026-09-03 01:44:11 | 51.75991 | 6.72429 | 101° | 38km/h | 17603m | -8.7m/s | -55.1°C | 1.2% | 85.1hPa | 2.5V | 08:14:23 | 02:27:46 | 00:00:00 | |
| DL1XH-west | 2026-09-03 01:44:06 | 51.75997 | 6.72381 | 101° | 40km/h | 17630m | -8.8m/s | -55.2°C | 1.2% | 84.7hPa | 2.5V | 08:14:23 | 02:27:43 | 00:00:00 | |
| BIOWL1-15 | 2026-09-03 01:44:03 | 51.76010 | 6.72258 | 99° | 47km/h | 17690m | -8.8m/s | -55°C | 1.2% | 83.9hPa | 2.6V | 08:14:23 | 02:27:36 | 00:00:00 | |
| AA1-15 | 2026-09-03 01:44:02 | 51.76005 | 6.72313 | 100° | 46km/h | 17664m | -8.6m/s | -55.1°C | 1.2% | 84.3hPa | 2.5V | 08:14:23 | 02:27:39 | 00:00:00 | |
| DL1XH-15 | 2026-09-03 01:44:01 | 51.76011 | 6.72258 | 98° | 47km/h | 17690m | -8.8m/s | -55°C | 4.6% | 83.9hPa | 2.6V | 08:13:50 | 02:27:36 | 00:00:00 | |
| DO2JMG | 2026-09-03 01:44:01 | 51.76007 | 6.72295 | 100° | 46km/h | 17673m | -9m/s | -55°C | 1.2% | 84.2hPa | 2.5V | 08:14:23 | 02:27:38 | 00:00:00 | |
| DJ2DS-15 | 2026-09-03 01:43:56 | 51.76018 | 6.72180 | 99° | 49km/h | 17724m | -8.8m/s | -55.1°C | 1.6% | 83.5hPa | 2.5V | 00:00:00 | 00:00:00 | 00:00:00 | |
| DM0DOS-11 | 2026-09-03 01:43:55 | 51.76028 | 6.72079 | 100° | 49km/h | 17768m | -8.7m/s | -55°C | 4.6% | 82.9hPa | 2.5V | 08:13:59 | 02:27:27 | 00:00:00 | |
| DL1XH-west | 2026-09-03 01:43:55 | 51.76018 | 6.72180 | 99° | 49km/h | 17724m | -8.8m/s | -55.1°C | 1.2% | 83.5hPa | 2.5V | 08:14:23 | 02:27:32 | 00:00:00 | |
| BIOWL1-15 | 2026-09-03 01:43:52 | 51.76033 | 6.72039 | 101° | 49km/h | 17785m | -8.7m/s | -55.1°C | 1.2% | 82.7hPa | 2.5V | 08:14:23 | 02:27:25 | 00:00:00 | |
| AA1-15 | 2026-09-03 01:43:52 | 51.76024 | 6.72119 | 99° | 51km/h | 17751m | -8.9m/s | -54.9°C | 1.2% | 83.1hPa | 2.6V | 08:14:23 | 02:27:29 | 00:00:00 | |
| DO2JMG | 2026-09-03 01:43:50 | 51.76028 | 6.72079 | 100° | 51km/h | 17768m | -8.7m/s | -55°C | 1.2% | 82.9hPa | 2.5V | 08:14:23 | 02:27:27 | 00:00:00 | |
| DL3AQ-11 | 2026-09-03 01:43:49 | 51.76033 | 6.72039 | 100° | 49km/h | 17785m | -8.7m/s | -55.1°C | 1.5% | 82.7hPa | 2.6V | 00:00:00 | 00:00:00 | 00:00:00 | |
| EDDB2-12 | 2026-09-03 01:43:48 | 51.76033 | 6.72039 | 100° | 49km/h | 17785m | -8.7m/s | -55.1°C | 1.5% | 82.7hPa | 2.6V | 00:00:00 | 00:00:00 | 00:00:00 | |
| SONDE2-11 | 2026-09-03 01:43:47 | 51.76035 | 6.72019 | 100° | 49km/h | 17794m | -8.9m/s | -55.2°C | 1.5% | 82.6hPa | 2.6V | 00:00:00 | 00:00:00 | 00:00:00 | |
| DJ2KF-10 | 2026-09-03 01:43:46 | 51.76038 | 6.71998 | 102° | 46km/h | 17803m | -8.8m/s | -55.2°C | 4.7% | 82.4hPa | 2.6V | 00:00:00 | 02:27:23 | 00:00:00 | |
| DM0DOS-11 | 2026-09-03 01:43:45 | 51.76055 | 6.71871 | 103° | 53km/h | 17856m | -9.1m/s | -55°C | 4.6% | 81.8hPa | 2.5V | 08:14:09 | 02:27:17 | 00:00:00 | |
| DL1XH-west | 2026-09-03 01:43:45 | 51.76040 | 6.71978 | 101° | 53km/h | 17812m | -8.9m/s | -55.2°C | 1.2% | 82.4hPa | 2.5V | 08:14:23 | 02:27:22 | 00:00:00 | |
| DF5WG-10 | 2026-09-03 01:43:45 | 51.76040 | 6.71978 | 102° | 53km/h | 17812m | -8.9m/s | -55.2°C | 4.7% | 82.3hPa | 2.5V | 00:00:00 | 02:27:22 | 00:00:00 | |
| DL8DAS-15 | 2026-09-03 01:43:44 | 51.76040 | 6.71978 | 102° | 53km/h | 17812m | -8.9m/s | -55.2°C | 1.6% | 82.4hPa | 2.5V | 00:00:00 | 00:00:00 | 00:00:00 | |
| GOEST3-10 | 2026-09-03 01:43:43 | 51.76045 | 6.71935 | 103° | 53km/h | 17830m | -8.8m/s | -55.2°C | 4.8% | 82.1hPa | 2.5V | 00:00:00 | 00:00:00 | 00:00:00 | |
| DL1XH-15 | 2026-09-03 01:43:41 | 51.76058 | 6.71850 | 103° | 51km/h | 17865m | -9m/s | -54.9°C | 4.6% | 81.7hPa | 2.5V | 08:14:10 | 02:27:16 | 00:00:00 | |
| AA1-15 | 2026-09-03 01:43:41 | 51.76052 | 6.71892 | 103° | 53km/h | 17847m | -8.9m/s | -55.2°C | 1.2% | 81.9hPa | 2.6V | 08:14:23 | 02:27:18 | 00:00:00 | |
| DO2JMG | 2026-09-03 01:43:40 | 51.76055 | 6.71871 | 103° | 53km/h | 17856m | -9.1m/s | -55°C | 1.2% | 81.8hPa | 2.5V | 08:14:23 | 02:27:17 | 00:00:00 | |
| BIOWL1-15 | 2026-09-03 01:43:37 | 51.76064 | 6.71810 | 105° | 51km/h | 17883m | -8.7m/s | -54.7°C | 1.1% | 81.5hPa | 2.5V | 08:14:23 | 02:27:14 | 00:00:00 | |
| DL1XH-west | 2026-09-03 01:43:34 | 51.76075 | 6.71752 | 108° | 49km/h | 17909m | -8.7m/s | -54.8°C | 1.1% | 81.1hPa | 2.6V | 08:14:23 | 02:27:11 | 00:00:00 | |
| DB0ND-19 | 2026-09-03 01:43:34 | 51.76079 | 6.71733 | 109° | 47km/h | 17918m | -9.0m/s | -54.8°C | 1.5% | 81.0hPa | 2.5V | 00:00:00 | 00:00:00 | 00:00:00 | |
| GOEST3-10 | 2026-09-03 01:43:33 | 51.76079 | 6.71733 | 110° | 47km/h | 17918m | -8.9m/s | -54.7°C | 4.6% | 81.0hPa | 2.5V | 00:00:00 | 00:00:00 | 00:00:00 | |
| DD1CC8 | 2026-09-03 01:43:32 | 51.76083 | 6.71715 | 110° | 47km/h | 17927m | -8.9m/s | -54.8°C | 1.5% | 80.9hPa | 2.6V | 00:00:00 | 00:00:00 | 00:00:00 | |
| DL1XH-15 | 2026-09-03 01:43:31 | 51.76096 | 6.71663 | 112° | 44km/h | 17953m | -8.7m/s | -54.6°C | 4.5% | 80.6hPa | 2.6V | 08:14:20 | 02:27:06 | 00:00:00 | |
| AA1-15 | 2026-09-03 01:43:30 | 51.76091 | 6.71680 | 112° | 46km/h | 17944m | -8.7m/s | -54.6°C | 1.1% | 80.7hPa | 2.5V | 08:14:23 | 02:27:07 | 00:00:00 | |
| DO2JMG | 2026-09-03 01:43:29 | 51.76096 | 6.71663 | 113° | 44km/h | 17953m | -8.7m/s | -54.6°C | 1.1% | 80.6hPa | 2.6V | 08:14:23 | 02:27:06 | 00:00:00 | |
| BIOWL1-15 | 2026-09-03 01:43:26 | 51.76108 | 6.71615 | 112° | 40km/h | 17979m | -8.8m/s | -54.6°C | 1.1% | 80.2hPa | 2.5V | 08:14:23 | 02:27:03 | 00:00:00 | |
| DK5PH-5 | 2026-09-03 01:43:26 | 51.76108 | 6.71615 | 112° | 35km/h | 17979m | -8.7m/s | -54.5°C | 4.5% | 80.2hPa | 2.5V | 00:00:00 | 02:27:03 | 00:00:00 | |
| DM0DOS-11 | 2026-09-03 01:43:25 | 51.76129 | 6.71528 | 113° | 35km/h | 18032m | -8.9m/s | -54.6°C | 4.5% | 79.5hPa | 2.5V | 08:14:29 | 02:26:57 | 00:00:00 | |
| DL1XH-west | 2026-09-03 01:43:23 | 51.76119 | 6.71569 | 110° | 38km/h | 18005m | -8.9m/s | -54.6°C | 1.2% | 79.9hPa | 2.6V | 08:15:14 | 02:27:00 | 00:00:00 | |
| DO2JMG | 2026-09-03 01:43:19 | 51.76133 | 6.71515 | 115° | 35km/h | 18041m | -8.8m/s | -54.6°C | 1.1% | 79.5hPa | 2.5V | 08:15:14 | 02:26:56 | 00:00:00 | |
| DF5WG-10 | 2026-09-03 01:43:19 | 51.76133 | 6.71515 | 116° | 26km/h | 18041m | -8.8m/s | -54.6°C | 4.5% | 79.4hPa | 2.5V | 08:14:00 | 02:26:56 | 00:00:00 | |
| GOEST3-10 | 2026-09-03 01:43:18 | 51.76136 | 6.71502 | 117° | 35km/h | 18050m | -8.9m/s | -54.5°C | 4.5% | 79.3hPa | 2.6V | 00:00:00 | 02:26:55 | 00:00:00 | |
| DJ3KS | 2026-09-03 01:43:17 | 51.76136 | 6.71502 | 117° | 35km/h | 18050m | -8.9m/s | -54.6°C | 1.5% | 79.3hPa | 2.6V | 00:00:00 | 00:00:00 | 00:00:00 | |
| DJ2KF-10 | 2026-09-03 01:43:16 | 51.76144 | 6.71477 | 115° | 33km/h | 18068m | -9.1m/s | -54.4°C | 4.5% | 79.1hPa | 2.6V | 00:00:00 | 02:26:53 | 00:00:00 | |
| DM0DOS-11 | 2026-09-03 01:43:15 | 51.76163 | 6.71400 | 109° | 33km/h | 18122m | -9.1m/s | -54.5°C | 4.5% | 78.5hPa | 2.6V | 08:14:39 | 02:26:47 | 00:00:00 | |
| BIOWL1-15 | 2026-09-03 01:43:15 | 51.76147 | 6.71465 | 114° | 35km/h | 18076m | -8.9m/s | -54.5°C | 1.1% | 79hPa | 2.5V | 08:15:14 | 02:26:52 | 00:00:00 | |
| DL1XH-west | 2026-09-03 01:43:12 | 51.76158 | 6.71426 | 111° | 35km/h | 18103m | -9.1m/s | -54.5°C | 1.2% | 78.7hPa | 2.5V | 08:15:14 | 02:26:49 | 00:00:00 | |
| DL1XH-15 | 2026-09-03 01:43:11 | 51.76166 | 6.71387 | 107° | 33km/h | 18130m | -9.1m/s | -54.5°C | 4.5% | 78.3hPa | 2.5V | 08:14:40 | 02:26:46 | 00:00:00 | |
| AA1-15 | 2026-09-03 01:43:09 | 51.76166 | 6.71387 | 107° | 35km/h | 18130m | -9.1m/s | -54.5°C | 1.1% | 78.4hPa | 2.5V | 08:15:14 | 02:26:46 | 00:00:00 | |
| DO2JMG | 2026-09-03 01:43:08 | 51.76169 | 6.71373 | 105° | 33km/h | 18140m | -9m/s | -54.3°C | 1.1% | 78.2hPa | 2.5V | 08:15:14 | 02:26:45 | 00:00:00 | |
| GOEST3-10 | 2026-09-03 01:43:08 | 51.76169 | 6.71373 | 106° | 33km/h | 18140m | -8.9m/s | -54.3°C | 4.5% | 78.2hPa | 2.6V | 00:00:00 | 02:26:45 | 00:00:00 | |
| SONCRA | 2026-09-03 01:43:07 | 51.76171 | 6.71360 | 105° | 33km/h | 18148m | -9.0m/s | -54.2°C | 1.4% | 78.1hPa | 2.6V | 00:00:00 | 00:00:00 | 00:00:00 | |
| DM0DOS-11 | 2026-09-03 01:43:05 | 51.76186 | 6.71272 | 105° | 31km/h | 18212m | -9.1m/s | -54.1°C | 4.3% | 77.4hPa | 2.6V | 08:14:49 | 02:26:37 | 00:00:00 | |
| BIOWL1-15 | 2026-09-03 01:43:04 | 51.76178 | 6.71322 | 106° | 31km/h | 18176m | -9.2m/s | -54.2°C | 1% | 77.8hPa | 2.5V | 08:15:14 | 02:26:41 | 00:00:00 | |
| DL1XH-west | 2026-09-03 01:43:02 | 51.76182 | 6.71297 | 106° | 31km/h | 18194m | -9.2m/s | -54.1°C | 1% | 77.6hPa | 2.5V | 08:15:14 | 02:26:39 | 00:00:00 | |
| DL1XH-15 | 2026-09-03 01:43:01 | 51.76188 | 6.71260 | 104° | 31km/h | 18221m | -9m/s | -54.1°C | 4.4% | 77.2hPa | 2.5V | 08:14:50 | 02:26:36 | 00:00:00 | |
| AA1-15 | 2026-09-03 01:42:58 | 51.76190 | 6.71247 | 104° | 33km/h | 18230m | -9m/s | -54.2°C | 1.1% | 77.2hPa | 2.5V | 08:15:14 | 02:26:35 | 00:00:00 | |
| DO2JMG | 2026-09-03 01:42:57 | 51.76192 | 6.71235 | 104° | 31km/h | 18239m | -8.9m/s | -54.2°C | 1% | 77hPa | 2.5V | 08:15:14 | 02:26:34 | 00:00:00 | |
| BIOWL1-15 | 2026-09-03 01:42:53 | 51.76200 | 6.71186 | 103° | 31km/h | 18276m | -9m/s | -54.1°C | 1.1% | 76.6hPa | 2.6V | 08:15:14 | 02:26:30 | 00:00:00 | |
| DL1XH-west | 2026-09-03 01:42:51 | 51.76203 | 6.71162 | 101° | 29km/h | 18294m | -9.1m/s | -54.1°C | 1% | 76.4hPa | 2.5V | 08:15:14 | 02:26:28 | 00:00:00 | |
| DL1XH-15 | 2026-09-03 01:42:51 | 51.76206 | 6.71138 | 99° | 29km/h | 18312m | -9.3m/s | -54°C | 4.3% | 76.2hPa | 2.5V | 08:15:00 | 02:26:26 | 00:00:00 | |
| AA1-15 | 2026-09-03 01:42:48 | 51.76207 | 6.71126 | 99° | 29km/h | 18322m | -9.1m/s | -54.1°C | 1% | 76.1hPa | 2.6V | 08:15:14 | 02:26:25 | 00:00:00 | |
| DO2JMG | 2026-09-03 01:42:46 | 51.76209 | 6.71102 | 97° | 29km/h | 18340m | -9.1m/s | -54.2°C | 1.1% | 75.9hPa | 2.5V | 08:15:14 | 02:26:23 | 00:00:00 | |
| SONDE2-11 | 2026-09-03 01:42:45 | 51.76210 | 6.71090 | 97° | 29km/h | 18349m | -9.2m/s | -54.2°C | 1.4% | 75.7hPa | 2.6V | 00:00:00 | 00:00:00 | 00:00:00 | |
| BIOWL1-15 | 2026-09-03 01:42:44 | 51.76213 | 6.71052 | 98° | 31km/h | 18376m | -9.3m/s | -54.4°C | 1.1% | 75.4hPa | 2.6V | 08:15:14 | 02:26:19 | 00:00:00 | |
| DJ2DS-15 | 2026-09-03 01:42:44 | 51.76212 | 6.71065 | 97° | 31km/h | 18367m | -9.1m/s | -54.3°C | 1.5% | 75.5hPa | 2.5V | 00:00:00 | 00:00:00 | 00:00:00 | |
| GOEST3-10 | 2026-09-03 01:42:43 | 51.76212 | 6.71065 | 98° | 33km/h | 18367m | -9.1m/s | -54.3°C | 4.4% | 75.5hPa | 2.5V | 00:00:00 | 00:00:00 | 00:00:00 | |
| DM0DOS-11 | 2026-09-03 01:42:42 | 51.76216 | 6.71025 | 98° | 33km/h | 18395m | -9.3m/s | -54.5°C | 4.5% | 75.2hPa | 2.5V | 08:15:09 | 02:26:17 | 00:00:00 | |
| DL1XH-west | 2026-09-03 01:42:41 | 51.76214 | 6.71039 | 98° | 33km/h | 18386m | -9.4m/s | -54.4°C | 1% | 75.3hPa | 2.5V | 08:15:14 | 02:26:18 | 00:00:00 | |
| AA1-15 | 2026-09-03 01:42:37 | 51.76220 | 6.70983 | 100° | 37km/h | 18422m | -9.3m/s | -54.6°C | 1.1% | 74.9hPa | 2.6V | 08:15:14 | 02:26:14 | 00:00:00 | |
| DO2JMG | 2026-09-03 01:42:35 | 51.76223 | 6.70952 | 100° | 38km/h | 18441m | -9.4m/s | -54.5°C | 1.1% | 74.7hPa | 2.5V | 08:15:14 | 02:26:12 | 00:00:00 | |
| BIOWL1-15 | 2026-09-03 01:42:32 | 51.76229 | 6.70905 | 102° | 40km/h | 18469m | -9.5m/s | -54.5°C | 1.1% | 74.3hPa | 2.6V | 08:16:05 | 02:26:09 | 00:00:00 | |
| DL1XH-15 | 2026-09-03 01:42:31 | 51.76236 | 6.70857 | 103° | 40km/h | 18497m | -9.4m/s | -54.3°C | 4.4% | 74hPa | 2.5V | 08:15:20 | 02:26:06 | 00:00:00 | |
| DL1XH-west | 2026-09-03 01:42:30 | 51.76233 | 6.70873 | 104° | 40km/h | 18488m | -9.3m/s | -54.3°C | 1.1% | 74.1hPa | 2.6V | 08:16:05 | 02:26:07 | 00:00:00 | |
| AA1-15 | 2026-09-03 01:42:26 | 51.76242 | 6.70807 | 101° | 44km/h | 18525m | -9.7m/s | -54.2°C | 1% | 73.7hPa | 2.5V | 08:16:05 | 02:26:03 | 00:00:00 | |
| DO2JMG | 2026-09-03 01:42:24 | 51.76247 | 6.70771 | 101° | 46km/h | 18545m | -9.3m/s | -54.3°C | 0.9% | 73.5hPa | 2.6V | 08:16:05 | 02:26:01 | 00:00:00 | |
| BIOWL1-15 | 2026-09-03 01:42:24 | 51.76252 | 6.70733 | 104° | 47km/h | 18564m | -9.6m/s | -54.3°C | 1% | 73.2hPa | 2.5V | 08:16:05 | 02:25:59 | 00:00:00 | |
| DB0NH | 2026-09-03 01:42:24 | 51.76247 | 6.70771 | 102° | 42km/h | 18545m | -9.2m/s | -54.2°C | 4.3% | 73.4hPa | 2.6V | 00:00:00 | 02:26:01 | 00:00:00 | |
| GOEST3-10 | 2026-09-03 01:42:23 | 51.76249 | 6.70752 | 102° | 47km/h | 18554m | -9.3m/s | -54.2°C | 4.4% | 73.3hPa | 2.6V | 00:00:00 | 00:00:00 | 00:00:00 | |
| DM0DOS-11 | 2026-09-03 01:42:22 | 51.76258 | 6.70695 | 106° | 47km/h | 18582m | -9.6m/s | -54.3°C | 4.4% | 73hPa | 2.6V | 08:15:29 | 02:25:57 | 00:00:00 | |
| DL1XH-west | 2026-09-03 01:42:19 | 51.76262 | 6.70677 | 107° | 47km/h | 18592m | -9.8m/s | -54.3°C | 1% | 72.9hPa | 2.6V | 08:16:05 | 02:25:56 | 00:00:00 | |
| AA1-15 | 2026-09-03 01:42:15 | 51.76276 | 6.70606 | 109° | 42km/h | 18631m | -9.3m/s | -54.5°C | 1.1% | 72.5hPa | 2.6V | 08:16:05 | 02:25:52 | 00:00:00 | |
| DO2JMG | 2026-09-03 01:42:13 | 51.76283 | 6.70574 | 109° | 40km/h | 18649m | -9.2m/s | -54.6°C | 1.2% | 72.3hPa | 2.5V | 08:16:05 | 02:25:50 | 00:00:00 | |
| BIOWL1-15 | 2026-09-03 01:42:13 | 51.76289 | 6.70544 | 108° | 38km/h | 18668m | -9.5m/s | -54.7°C | 1.1% | 72.1hPa | 2.5V | 08:16:05 | 02:25:48 | 00:00:00 | |
| GOEST3-10 | 2026-09-03 01:42:13 | 51.76282 | 6.70574 | 109° | 38km/h | 18650m | -9.2m/s | -54.6°C | 4.6% | 72.2hPa | 2.6V | 00:00:00 | 00:00:00 | 00:00:00 | |
| DM0DOS-11 | 2026-09-03 01:42:11 | 51.76292 | 6.70529 | 107° | 38km/h | 18678m | -9.5m/s | -54.7°C | 4.6% | 71.9hPa | 2.6V | 08:15:39 | 02:25:47 | 00:00:00 | |
| DL1XH-west | 2026-09-03 01:42:09 | 51.76295 | 6.70514 | 108° | 38km/h | 18687m | -9.5m/s | -54.7°C | 1.2% | 71.8hPa | 2.6V | 08:16:05 | 02:25:46 | 00:00:00 | |
| GOEST3-10 | 2026-09-03 01:42:08 | 51.76297 | 6.70499 | 108° | 38km/h | 18697m | -9.6m/s | -54.6°C | 4.5% | 71.7hPa | 2.6V | 00:00:00 | 02:25:45 | 00:00:00 | |
| DJ2DS-15 | 2026-09-03 01:42:07 | 51.76300 | 6.70484 | 107° | 37km/h | 18706m | -9.8m/s | -54.6°C | 1.4% | 71.6hPa | 2.6V | 00:00:00 | 00:00:00 | 00:00:00 | |
| DD1CC1-15 | 2026-09-03 01:42:06 | 51.76300 | 6.70484 | 109° | 38km/h | 18707m | -9.8m/s | -54.6°C | 1.4% | 71.6hPa | 2.6V | 08:16:00 | 00:00:00 | 00:00:00 | |
| DM0DOS-11 | 2026-09-03 01:42:05 | 51.76321 | 6.70381 | 108° | 38km/h | 18774m | -9.8m/s | -54.6°C | 4.6% | 70.9hPa | 2.6V | 08:15:49 | 02:25:37 | 00:00:00 | |
| AA1-15 | 2026-09-03 01:42:05 | 51.76309 | 6.70440 | 108° | 38km/h | 18735m | -9.9m/s | -54.7°C | 1.1% | 71.3hPa | 2.6V | 08:16:05 | 02:25:41 | 00:00:00 | |
| DO2JMG | 2026-09-03 01:42:03 | 51.76312 | 6.70426 | 107° | 38km/h | 18745m | -9.9m/s | -54.6°C | 1.3% | 71.2hPa | 2.5V | 08:16:05 | 02:25:40 | 00:00:00 | |
| BIOWL1-15 | 2026-09-03 01:42:02 | 51.76321 | 6.70381 | 109° | 38km/h | 18774m | -9.8m/s | -54.6°C | 1.2% | 70.9hPa | 2.6V | 08:16:05 | 02:25:37 | 00:00:00 | |
| DL1XH-west | 2026-09-03 01:41:58 | 51.76328 | 6.70351 | 110° | 38km/h | 18793m | -9.6m/s | -54.6°C | 1.2% | 70.6hPa | 2.5V | 08:16:05 | 02:25:35 | 00:00:00 | |
| GOEST3-10 | 2026-09-03 01:41:58 | 51.76327 | 6.70351 | 111° | 38km/h | 18794m | -9.6m/s | -54.6°C | 4.6% | 70.6hPa | 2.5V | 00:00:00 | 02:25:35 | 00:00:00 | |
| DC6BW-12 | 2026-09-03 01:41:57 | 51.76327 | 6.70351 | 111° | 38km/h | 18794m | -9.6m/s | -54.6°C | 1.5% | 70.6hPa | 2.5V | 08:16:00 | 00:00:00 | 00:00:00 | |
| DH3RM | 2026-09-03 01:41:56 | 51.76331 | 6.70336 | 111° | 38km/h | 18803m | -9.5m/s | -54.6°C | 1.5% | 70.6hPa | 2.5V | 08:16:00 | 00:00:00 | 00:00:00 | |
| DM0DOS-11 | 2026-09-03 01:41:54 | 51.76358 | 6.70241 | 117° | 33km/h | 18870m | -9.8m/s | -54.2°C | 4.5% | 69.8hPa | 2.5V | 08:15:59 | 02:25:27 | 00:00:00 | |
| AA1-15 | 2026-09-03 01:41:54 | 51.76342 | 6.70293 | 113° | 37km/h | 18832m | -9.8m/s | -54.4°C | 1.2% | 70.3hPa | 2.6V | 08:16:05 | 02:25:31 | 00:00:00 | |
| DO2JMG | 2026-09-03 01:41:52 | 51.76350 | 6.70266 | 116° | 37km/h | 18851m | -9.6m/s | -54.3°C | 1.2% | 70hPa | 2.6V | 08:16:05 | 02:25:29 | 00:00:00 | |
| DB0UT-7 | 2026-09-03 01:41:52 | 51.76350 | 6.70266 | 116° | 38km/h | 18851m | -9.5m/s | -54.2°C | 4.5% | 70.0hPa | 2.5V | 00:00:00 | 00:00:00 | 00:00:00 | |
| DL1XH-15 | 2026-09-03 01:41:51 | 51.76362 | 6.70229 | 118° | 33km/h | 18880m | -9.7m/s | -54.2°C | 4.4% | 69.7hPa | 2.5V | 08:16:00 | 02:25:26 | 00:00:00 | |
| BIOWL1-15 | 2026-09-03 01:41:50 | 51.76358 | 6.70241 | 118° | 33km/h | 18870m | -9.8m/s | -54.2°C | 1.1% | 69.8hPa | 2.5V | 08:16:05 | 02:25:27 | 00:00:00 | |
| DL1XH-west | 2026-09-03 01:41:48 | 51.76366 | 6.70217 | 119° | 31km/h | 18889m | -9.7m/s | -54.2°C | 1.1% | 69.6hPa | 2.5V | 08:16:05 | 02:25:25 | 00:00:00 | |
| GOEST3-10 | 2026-09-03 01:41:48 | 51.76366 | 6.70217 | 119° | 33km/h | 18890m | -9.6m/s | -54.2°C | 4.4% | 69.6hPa | 2.5V | 00:00:00 | 02:25:25 | 00:00:00 | |
| DJ2KF-10 | 2026-09-03 01:41:46 | 51.76373 | 6.70195 | 118° | 38km/h | 18909m | -9.9m/s | -54.2°C | 4.4% | 69.3hPa | 2.5V | 00:00:00 | 02:25:23 | 00:00:00 | |
| DD1CC1-15 | 2026-09-03 01:41:45 | 51.76373 | 6.70195 | 118° | 31km/h | 18909m | -10.0m/s | -54.3°C | 1.4% | 69.4hPa | 2.5V | 08:16:00 | 00:00:00 | 00:00:00 | |
| DM0DOS-11 | 2026-09-03 01:41:44 | 51.76394 | 6.70117 | 107° | 38km/h | 18967m | -9.9m/s | -54.3°C | 4.6% | 68.8hPa | 2.5V | 08:16:09 | 02:25:17 | 00:00:00 | |
| AA1-15 | 2026-09-03 01:41:44 | 51.76381 | 6.70171 | 115° | 33km/h | 18928m | -9.6m/s | -54.3°C | 1% | 69.2hPa | 2.5V | 08:16:05 | 02:25:21 | 00:00:00 | |
| DO2JMG | 2026-09-03 01:41:42 | 51.76388 | 6.70145 | 113° | 37km/h | 18948m | -9.7m/s | -54.4°C | 1.1% | 69hPa | 2.6V | 08:16:56 | 02:25:19 | 00:00:00 | |
| DL1XH-15 | 2026-09-03 01:41:41 | 51.76397 | 6.70102 | 104° | 40km/h | 18977m | -9.8m/s | -54.2°C | 4.5% | 68.7hPa | 2.5V | 08:16:10 | 02:25:16 | 00:00:00 | |
| BIOWL1-15 | 2026-09-03 01:41:41 | 51.76397 | 6.70102 | 105° | 40km/h | 18977m | -9.8m/s | -54.2°C | 1.1% | 68.7hPa | 2.5V | 08:16:56 | 02:25:16 | 00:00:00 | |
| DL1XH-west | 2026-09-03 01:41:37 | 51.76402 | 6.70070 | 102° | 42km/h | 18996m | -9.9m/s | -54.2°C | 1.1% | 68.5hPa | 2.6V | 08:16:56 | 02:25:14 | 00:00:00 | |
| DC6BW-12 | 2026-09-03 01:41:36 | 51.76402 | 6.70069 | 103° | 42km/h | 18997m | -9.9m/s | -54.2°C | 1.5% | 68.5hPa | 2.5V | 08:16:00 | 00:00:00 | 00:00:00 | |
| DO2KSM | 2026-09-03 01:41:35 | 51.76405 | 6.70052 | 103° | 44km/h | 19006m | -9.5m/s | -54.2°C | 1.5% | 68.3hPa | 2.5V | 08:16:00 | 00:00:00 | 00:00:00 | |
| DM0DOS-11 | 2026-09-03 01:41:34 | 51.76420 | 6.69949 | 105° | 42km/h | 19065m | -9.9m/s | -54.3°C | 4.6% | 67.7hPa | 2.5V | 08:16:19 | 02:25:07 | 00:00:00 | |
| AA1-15 | 2026-09-03 01:41:33 | 51.76412 | 6.70000 | 104° | 44km/h | 19035m | -10.1m/s | -54.1°C | 1.1% | 68.1hPa | 2.5V | 08:16:56 | 02:25:10 | 00:00:00 | |
| GOEST3-10 | 2026-09-03 01:41:33 | 51.76412 | 6.69999 | 104° | 42km/h | 19035m | -10.1m/s | -54.0°C | 4.4% | 68.0hPa | 2.5V | 08:16:00 | 00:00:00 | 00:00:00 | |
| DL1XH-15 | 2026-09-03 01:41:31 | 51.76423 | 6.69933 | 106° | 40km/h | 19075m | -9.9m/s | -54.3°C | 4.7% | 67.7hPa | 2.5V | 08:16:20 | 02:25:06 | 00:00:00 | |
| DO2JMG | 2026-09-03 01:41:31 | 51.76417 | 6.69966 | 106° | 42km/h | 19055m | -9.7m/s | -54.2°C | 1.2% | 67.9hPa | 2.6V | 08:16:56 | 02:25:08 | 00:00:00 | |
| BIOWL1-15 | 2026-09-03 01:41:28 | 51.76426 | 6.69918 | 108° | 40km/h | 19084m | -9.9m/s | -54.3°C | 1.1% | 67.5hPa | 2.5V | 08:16:56 | 02:25:05 | 00:00:00 | |
| DL1XH-west | 2026-09-03 01:41:27 | 51.76429 | 6.69902 | 107° | 38km/h | 19094m | -9.6m/s | -54.3°C | 1.3% | 67.5hPa | 2.6V | 08:16:56 | 02:25:04 | 00:00:00 | |
| GOEST3-10 | 2026-09-03 01:41:27 | 51.76429 | 6.69902 | 108° | 35km/h | 19095m | -9.6m/s | -54.3°C | 4.7% | 67.4hPa | 2.5V | 00:00:00 | 02:25:04 | 00:00:00 | |
| DK5PH-5 | 2026-09-03 01:41:26 | 51.76432 | 6.69887 | 108° | 31km/h | 19104m | -9.4m/s | -54.2°C | 4.6% | 67.3hPa | 2.5V | 00:00:00 | 02:25:03 | 00:00:00 | |
| DL8DAS-15 | 2026-09-03 01:41:25 | 51.76432 | 6.69887 | 109° | 38km/h | 19104m | -9.5m/s | -54.3°C | 1.5% | 67.3hPa | 2.5V | 08:16:00 | 00:00:00 | 00:00:00 | |
| DM0DOS-11 | 2026-09-03 01:41:24 | 51.76449 | 6.69805 | 110° | 33km/h | 19162m | -9.9m/s | -53.2°C | 4.1% | 66.8hPa | 2.5V | 08:16:29 | 02:24:57 | 00:00:00 | |
| AA1-15 | 2026-09-03 01:41:22 | 51.76444 | 6.69831 | 110° | 35km/h | 19143m | -9.8m/s | -53.5°C | 1% | 67hPa | 2.6V | 08:16:56 | 02:24:59 | 00:00:00 | |
| DB0UT-7 | 2026-09-03 01:41:22 | 51.76443 | 6.69831 | 110° | 29km/h | 19143m | -9.7m/s | -53.5°C | 4.3% | 66.9hPa | 2.5V | 00:00:00 | 02:24:59 | 00:00:00 | |
| DL1XH-15 | 2026-09-03 01:41:21 | 51.76452 | 6.69792 | 109° | 33km/h | 19172m | -9.8m/s | -53.2°C | 4.1% | 66.6hPa | 2.5V | 08:16:30 | 02:24:56 | 00:00:00 | |
| DO2JMG | 2026-09-03 01:41:20 | 51.76449 | 6.69805 | 110° | 33km/h | 19162m | -9.9m/s | -53.3°C | 0.9% | 66.8hPa | 2.5V | 08:16:56 | 02:24:57 | 00:00:00 | |
| DL1XH-west | 2026-09-03 01:41:17 | 51.76457 | 6.69767 | 107° | 31km/h | 19192m | -10m/s | -53.4°C | 1% | 66.4hPa | 2.6V | 08:16:56 | 02:24:54 | 00:00:00 | |
| DJ2KF-10 | 2026-09-03 01:41:16 | 51.76460 | 6.69755 | 107° | 29km/h | 19202m | -9.6m/s | -53.4°C | 4.1% | 66.3hPa | 2.5V | 00:00:00 | 02:24:53 | 00:00:00 | |
| DC6BW-12 | 2026-09-03 01:41:15 | 51.76460 | 6.69755 | 108° | 31km/h | 19202m | -9.7m/s | -53.4°C | 1.4% | 66.3hPa | 2.5V | 08:16:00 | 00:00:00 | 00:00:00 | |
| DO2KSM | 2026-09-03 01:41:14 | 51.76462 | 6.69743 | 106° | 31km/h | 19212m | -9.9m/s | -53.5°C | 1.4% | 66.2hPa | 2.5V | 08:16:00 | 00:00:00 | 00:00:00 | |
| EDDB2-12 | 2026-09-03 01:41:13 | 51.76465 | 6.69719 | 102° | 29km/h | 19231m | -9.8m/s | -53.6°C | 1.4% | 66.0hPa | 2.5V | 00:00:00 | 00:00:00 | 00:00:00 | |
| BIOWL9-15 | 2026-09-03 01:41:12 | 51.76467 | 6.69707 | 101° | 29km/h | 19241m | -9.9m/s | -53.6°C | 1.4% | 65.9hPa | 2.5V | 00:00:00 | 00:00:00 | 00:00:00 | |
| DL1XH-15 | 2026-09-03 01:41:11 | 51.76470 | 6.69672 | 96° | 29km/h | 19270m | -10m/s | -53.6°C | 4.2% | 65.6hPa | 2.5V | 08:16:40 | 02:24:46 | 00:00:00 | |
| AA1-15 | 2026-09-03 01:41:11 | 51.76468 | 6.69695 | 99° | 29km/h | 19251m | -9.8m/s | -53.7°C | 1% | 65.8hPa | 2.6V | 08:16:56 | 02:24:48 | 00:00:00 | |
| DO2JMG | 2026-09-03 01:41:10 | 51.76469 | 6.69684 | 98° | 29km/h | 19261m | -10.1m/s | -53.6°C | 1% | 65.7hPa | 2.5V | 08:16:56 | 02:24:47 | 00:00:00 | |
| DL1XH-west | 2026-09-03 01:41:06 | 51.76472 | 6.69638 | 91° | 29km/h | 19301m | -10.1m/s | -53.8°C | 1% | 65.3hPa | 2.6V | 08:16:56 | 02:24:43 | 00:00:00 | |
| DH3RM | 2026-09-03 01:41:05 | 51.76472 | 6.69638 | 91° | 29km/h | 19301m | -10.1m/s | -53.8°C | 1.4% | 65.3hPa | 2.5V | 08:16:00 | 00:00:00 | 00:00:00 | |
| DM0DOS-11 | 2026-09-03 01:41:04 | 51.76469 | 6.69568 | 84° | 27km/h | 19360m | -9.9m/s | -54.2°C | 4.4% | 64.7hPa | 2.5V | 08:16:49 | 02:24:37 | 00:00:00 | |
| AA1-15 | 2026-09-03 01:41:01 | 51.76470 | 6.69580 | 85° | 27km/h | 19351m | -9.9m/s | -54.2°C | 1.1% | 64.8hPa | 2.6V | 08:16:56 | 02:24:38 | 00:00:00 | |
| DO2JMG | 2026-09-03 01:40:59 | 51.76469 | 6.69557 | 86° | 27km/h | 19370m | -10.1m/s | -54.3°C | 1.1% | 64.6hPa | 2.5V | 08:16:56 | 02:24:36 | 00:00:00 | |
| BIOWL1-15 | 2026-09-03 01:40:56 | 51.76467 | 6.69523 | 88° | 27km/h | 19401m | -10m/s | -54.6°C | 1.2% | 64.3hPa | 2.6V | 08:16:56 | 02:24:33 | 00:00:00 | |
| DL1XH-west | 2026-09-03 01:40:55 | 51.76467 | 6.69512 | 89° | 27km/h | 19411m | -9.9m/s | -54.7°C | 1.2% | 64.2hPa | 2.5V | 08:16:56 | 02:24:32 | 00:00:00 | |
| DL4BBY-15 | 2026-09-03 01:40:54 | 51.76467 | 6.69500 | 90° | 37km/h | 19420m | -9.8m/s | -54.5°C | 0% | 0hPa | 2.6V | 00:00:00 | 00:00:00 | 00:00:00 | |
| DO2KSM | 2026-09-03 01:40:53 | 51.76467 | 6.69500 | 90° | 29km/h | 19421m | -9.8m/s | -54.7°C | 1.5% | 64.1hPa | 2.6V | 08:16:00 | 00:00:00 | 00:00:00 | |
| DB0UT-7 | 2026-09-03 01:40:52 | 51.76467 | 6.69475 | 93° | 37km/h | 19440m | -10.0m/s | -54.6°C | 4.6% | 63.9hPa | 2.6V | 00:00:00 | 00:00:00 | 00:00:00 | |
| DL1XH-15 | 2026-09-03 01:40:51 | 51.76469 | 6.69434 | 97° | 35km/h | 19470m | -10.1m/s | -54.5°C | 4.6% | 63.6hPa | 2.5V | 08:17:00 | 02:24:26 | 00:00:00 | |
| AA1-15 | 2026-09-03 01:40:51 | 51.76468 | 6.69462 | 94° | 33km/h | 19450m | -10.1m/s | -54.6°C | 1.2% | 63.8hPa | 2.6V | 08:17:47 | 02:24:28 | 00:00:00 | |
| BIOWL1-15 | 2026-09-03 01:40:48 | 51.76474 | 6.69393 | 106° | 35km/h | 19500m | -10.1m/s | -54.5°C | 1.2% | 63.3hPa | 2.6V | 08:17:47 | 02:24:23 | 00:00:00 | |
| DO2JMG | 2026-09-03 01:40:48 | 51.76471 | 6.69420 | 100° | 35km/h | 19480m | -10.2m/s | -54.4°C | 1.2% | 63.5hPa | 2.5V | 08:17:47 | 02:24:25 | 00:00:00 | |
| DL1XH-west | 2026-09-03 01:40:44 | 51.76480 | 6.69366 | 110° | 35km/h | 19521m | -10.2m/s | -54.4°C | 1.2% | 63.1hPa | 2.5V | 08:17:47 | 02:24:21 | 00:00:00 | |
| EDDB2-12 | 2026-09-03 01:40:42 | 51.76486 | 6.69339 | 111° | 37km/h | 19541m | -10.4m/s | -54.3°C | 1.4% | 63.0hPa | 2.5V | 00:00:00 | 00:00:00 | 00:00:00 | |
| DL1XH-15 | 2026-09-03 01:40:41 | 51.76497 | 6.69295 | 111° | 40km/h | 19572m | -9.9m/s | -54°C | 4.5% | 62.6hPa | 2.5V | 08:17:10 | 02:24:16 | 00:00:00 | |
| AA1-15 | 2026-09-03 01:40:40 | 51.76494 | 6.69310 | 112° | 40km/h | 19562m | -10.2m/s | -54.2°C | 1.2% | 62.7hPa | 2.5V | 08:17:47 | 02:24:17 | 00:00:00 | |
| DO2JMG | 2026-09-03 01:40:38 | 51.76501 | 6.69279 | 112° | 40km/h | 19582m | -10m/s | -53.8°C | 1.1% | 62.5hPa | 2.5V | 08:17:47 | 02:24:15 | 00:00:00 | |
| BIOWL1-15 | 2026-09-03 01:40:37 | 51.76513 | 6.69233 | 113° | 42km/h | 19613m | -10.2m/s | -53.5°C | 1% | 62.2hPa | 2.5V | 08:17:47 | 02:24:12 | 00:00:00 | |
| DL1XH-west | 2026-09-03 01:40:33 | 51.76521 | 6.69201 | 114° | 42km/h | 19633m | -10.2m/s | -53.5°C | 1.1% | 62hPa | 2.5V | 08:17:47 | 02:24:10 | 00:00:00 | |
| SONCRA | 2026-09-03 01:40:32 | 51.76526 | 6.69186 | 115° | 42km/h | 19643m | -10.4m/s | -53.5°C | 1.4% | 61.9hPa | 2.5V | 00:00:00 | 00:00:00 | 00:00:00 | |
| DL1XH-15 | 2026-09-03 01:40:31 | 51.76539 | 6.69140 | 115° | 40km/h | 19674m | -10.4m/s | -53.5°C | 4.3% | 61.6hPa | 2.5V | 08:17:20 | 02:24:06 | 00:00:00 | |
| AA1-15 | 2026-09-03 01:40:29 | 51.76539 | 6.69140 | 116° | 40km/h | 19674m | -10.4m/s | -53.5°C | 1% | 61.6hPa | 2.5V | 08:17:47 | 02:24:06 | 00:00:00 | |
| DO2JMG | 2026-09-03 01:40:28 | 51.76543 | 6.69126 | 116° | 38km/h | 19684m | -10.4m/s | -53.5°C | 1% | 61.5hPa | 2.5V | 08:17:47 | 02:24:05 | 00:00:00 | |
| BIOWL1-15 | 2026-09-03 01:40:27 | 51.76554 | 6.69086 | 112° | 33km/h | 19716m | -10.5m/s | -53.4°C | 1% | 61.3hPa | 2.5V | 08:17:47 | 02:24:02 | 00:00:00 | |
| DK5PH-5 | 2026-09-03 01:40:26 | 51.76551 | 6.69099 | 114° | 35km/h | 19705m | -10.6m/s | -53.4°C | 4.3% | 61.3hPa | 2.5V | 00:00:00 | 02:24:03 | 00:00:00 | |
| DH3RM | 2026-09-03 01:40:25 | 51.76551 | 6.69099 | 114° | 35km/h | 19705m | -10.6m/s | -53.4°C | 1.4% | 61.3hPa | 2.5V | 08:17:00 | 00:00:00 | 00:00:00 | |
| DM0DOS-11 | 2026-09-03 01:40:24 | 51.76565 | 6.69027 | 101° | 27km/h | 19768m | -10.8m/s | -53.4°C | 4.4% | 60.7hPa | 2.5V | 08:17:29 | 02:23:57 | 00:00:00 | |
| DL1XH-west | 2026-09-03 01:40:22 | 51.76562 | 6.69050 | 105° | 29km/h | 19747m | -10.4m/s | -53.5°C | 1% | 61hPa | 2.6V | 08:17:47 | 02:23:59 | 00:00:00 | |
| BIOWL1-15 | 2026-09-03 01:40:21 | 51.76570 | 6.68971 | 96° | 29km/h | 19821m | -10.5m/s | -53.2°C | 1% | 60.2hPa | 2.5V | 08:17:47 | 02:23:52 | 00:00:00 | |
| AA1-15 | 2026-09-03 01:40:19 | 51.76567 | 6.69016 | 99° | 27km/h | 19779m | -10.5m/s | -53.4°C | 1% | 60.6hPa | 2.5V | 08:17:47 | 02:23:56 | 00:00:00 | |
| DO2JMG | 2026-09-03 01:40:17 | 51.76568 | 6.68994 | 97° | 27km/h | 19800m | -10.7m/s | -53.2°C | 1% | 60.5hPa | 2.6V | 08:17:47 | 02:23:54 | 00:00:00 | |
| DO1YAY-16 | 2026-09-03 01:40:17 | 51.76569 | 6.68982 | 96° | 27km/h | 19810m | -10.5m/s | -53.2°C | 1.3% | 60.4hPa | 2.5V | 00:00:00 | 00:00:00 | 00:00:00 | |
| DJ2KF-10 | 2026-09-03 01:40:16 | 51.76569 | 6.68982 | 97° | 37km/h | 19810m | -10.5m/s | -53.1°C | 4.3% | 60.3hPa | 2.5V | 00:00:00 | 02:23:53 | 00:00:00 | |
| GOEST3-10 | 2026-09-03 01:40:15 | 51.76570 | 6.68971 | 97° | 33km/h | 19821m | -10.4m/s | -53.1°C | 4.3% | 60.2hPa | 2.5V | 00:00:00 | 02:23:52 | 00:00:00 | |
| DM0DOS-11 | 2026-09-03 01:40:14 | 51.76576 | 6.68905 | 101° | 37km/h | 19873m | -10.8m/s | -53°C | 4.3% | 59.8hPa | 2.5V | 08:17:39 | 02:23:47 | 00:00:00 | |
| DL1XH-west | 2026-09-03 01:40:11 | 51.76574 | 6.68919 | 99° | 35km/h | 19863m | -10.7m/s | -53.1°C | 1% | 59.9hPa | 2.6V | 08:17:47 | 02:23:48 | 00:00:00 | |
| AA1-15 | 2026-09-03 01:40:09 | 51.76578 | 6.68890 | 103° | 37km/h | 19884m | -10.8m/s | -52.9°C | 1% | 59.7hPa | 2.5V | 08:17:47 | 02:23:46 | 00:00:00 | |
| DO2JMG | 2026-09-03 01:40:07 | 51.76582 | 6.68861 | 108° | 37km/h | 19905m | -10.7m/s | -53°C | 1% | 59.5hPa | 2.6V | 08:17:47 | 02:23:44 | 00:00:00 | |
| BIOWL1-15 | 2026-09-03 01:40:05 | 51.76592 | 6.68819 | 110° | 37km/h | 19937m | -10.7m/s | -53°C | 1% | 59.1hPa | 2.5V | 08:17:47 | 02:23:41 | 00:00:00 | |
| GOEST3-10 | 2026-09-03 01:40:05 | 51.76588 | 6.68833 | 110° | 37km/h | 19927m | -10.6m/s | -53.0°C | 4.3% | 59.2hPa | 2.5V | 00:00:00 | 02:23:42 | 00:00:00 | |
| DM0DOS-11 | 2026-09-03 01:40:04 | 51.76606 | 6.68761 | 111° | 38km/h | 19981m | -11m/s | -52.3°C | 4% | 58.8hPa | 2.5V | 08:17:49 | 02:23:37 | 00:00:00 | |
| DL1LOL-11 | 2026-09-03 01:40:03 | 51.76591 | 6.68819 | 111° | 37km/h | 19937m | -10.7m/s | -53.0°C | 1.3% | 59.2hPa | 2.5V | 00:00:00 | 00:00:00 | 00:00:00 | |
| DL3AQ-11 | 2026-09-03 01:40:02 | 51.76602 | 6.68776 | 111° | 38km/h | 19970m | -11.0m/s | -52.4°C | 1.3% | 58.9hPa | 2.5V | 00:00:00 | 00:00:00 | 00:00:00 | |
| DL1XH-15 | 2026-09-03 01:40:01 | 51.76609 | 6.68747 | 113° | 40km/h | 19992m | -11.1m/s | -52.2°C | 4% | 58.7hPa | 2.5V | 08:17:50 | 02:23:36 | 00:00:00 | |
| DL1XH-west | 2026-09-03 01:40:00 | 51.76606 | 6.68761 | 112° | 38km/h | 19981m | -11m/s | -52.3°C | 0.8% | 58.8hPa | 2.5V | 08:18:38 | 02:23:37 | 00:00:00 | |
| AA1-15 | 2026-09-03 01:39:58 | 51.76614 | 6.68732 | 116° | 40km/h | 20003m | -11.1m/s | -52.1°C | 0.8% | 58.6hPa | 2.5V | 08:18:38 | 02:23:35 | 00:00:00 | |
| DO2JMG | 2026-09-03 01:39:56 | 51.76623 | 6.68703 | 121° | 40km/h | 20025m | -11.3m/s | -51.9°C | 0.7% | 58.4hPa | 2.6V | 08:18:38 | 02:23:33 | 00:00:00 | |
| BIOWL1-15 | 2026-09-03 01:39:56 | 51.76634 | 6.68676 | 125° | 38km/h | 20047m | -11.3m/s | -52°C | 0.8% | 58.2hPa | 2.5V | 08:18:38 | 02:23:31 | 00:00:00 | |
| DK5PH-5 | 2026-09-03 01:39:56 | 51.76623 | 6.68703 | 121° | 29km/h | 20025m | -11.2m/s | -51.9°C | 3.9% | 58.3hPa | 2.5V | 00:00:00 | 02:23:33 | 00:00:00 | |
| GOEST3-10 | 2026-09-03 01:39:55 | 51.76628 | 6.68690 | 123° | 37km/h | 20036m | -11.3m/s | -51.9°C | 3.9% | 58.2hPa | 2.5V | 00:00:00 | 02:23:32 | 00:00:00 | |
| DM0DOS-11 | 2026-09-03 01:39:54 | 51.76656 | 6.68630 | 128° | 33km/h | 20092m | -11.2m/s | -52.2°C | 4% | 57.8hPa | 2.5V | 08:17:59 | 02:23:27 | 00:00:00 | |
| DL4BBY-15 | 2026-09-03 01:39:54 | 51.76633 | 6.68676 | 125° | 27km/h | 20048m | -11.3m/s | -51.8°C | 0% | 0hPa | 2.5V | 00:00:00 | 00:00:00 | 00:00:00 | |
| DH3RM | 2026-09-03 01:39:53 | 51.76634 | 6.68676 | 126° | 38km/h | 20048m | -11.3m/s | -52.0°C | 1.2% | 58.2hPa | 2.5V | 08:18:00 | 00:00:00 | 00:00:00 | |
| DB0UT-7 | 2026-09-03 01:39:52 | 51.76645 | 6.68652 | 129° | 26km/h | 20070m | -11.1m/s | -52.0°C | 3.9% | 57.9hPa | 2.5V | 00:00:00 | 00:00:00 | 00:00:00 | |
| DL1XH-15 | 2026-09-03 01:39:51 | 51.76661 | 6.68619 | 127° | 31km/h | 20104m | -11.1m/s | -52.3°C | 4% | 57.7hPa | 2.5V | 08:18:00 | 02:23:26 | 00:00:00 | |
| DL1XH-west | 2026-09-03 01:39:49 | 51.76661 | 6.68619 | 127° | 31km/h | 20104m | -11.1m/s | -52.3°C | 0.8% | 57.7hPa | 2.5V | 08:18:38 | 02:23:26 | 00:00:00 | |
| AA1-15 | 2026-09-03 01:39:47 | 51.76670 | 6.68599 | 126° | 31km/h | 20126m | -10.9m/s | -52.3°C | 0.9% | 57.5hPa | 2.6V | 08:18:38 | 02:23:24 | 00:00:00 | |
| DO2JMG | 2026-09-03 01:39:46 | 51.76675 | 6.68589 | 126° | 29km/h | 20136m | -10.9m/s | -52.3°C | 0.9% | 57.4hPa | 2.6V | 08:18:38 | 02:23:23 | 00:00:00 | |
| DO1YAY-16 | 2026-09-03 01:39:46 | 51.76679 | 6.68579 | 125° | 29km/h | 20148m | -11.2m/s | -52.3°C | 1.3% | 57.3hPa | 2.5V | 00:00:00 | 00:00:00 | 00:00:00 | |
| BIOWL1-15 | 2026-09-03 01:39:45 | 51.76688 | 6.68559 | 124° | 31km/h | 20170m | -11.2m/s | -52.2°C | 0.8% | 57.1hPa | 2.5V | 08:18:38 | 02:23:20 | 00:00:00 | |
| DJ2DS-15 | 2026-09-03 01:39:43 | 51.76688 | 6.68559 | 123° | 29km/h | 20170m | -11.2m/s | -52.2°C | 1.2% | 57.1hPa | 2.5V | 00:00:00 | 00:00:00 | 00:00:00 | |
| DD1CC3-15 | 2026-09-03 01:39:42 | 51.76688 | 6.68559 | 125° | 31km/h | 20170m | -11.2m/s | -52.2°C | 1.3% | 57.1hPa | 2.5V | 08:18:00 | 00:00:00 | 00:00:00 | |
| DL1XH-15 | 2026-09-03 01:39:41 | 51.76704 | 6.68520 | 121° | 26km/h | 20215m | -11.2m/s | -52.2°C | 4% | 56.7hPa | 2.5V | 08:18:10 | 02:23:16 | 00:00:00 | |
| DL1XH-west | 2026-09-03 01:39:39 | 51.76703 | 6.68520 | 122° | 26km/h | 20215m | -11.2m/s | -52.2°C | 0.8% | 56.7hPa | 2.5V | 08:18:38 | 02:23:16 | 00:00:00 | |
| AA1-15 | 2026-09-03 01:39:37 | 51.76710 | 6.68503 | 121° | 24km/h | 20238m | -11.1m/s | -52.1°C | 0.8% | 56.5hPa | 2.6V | 08:18:38 | 02:23:14 | 00:00:00 | |
| DO2JMG | 2026-09-03 01:39:36 | 51.76713 | 6.68494 | 119° | 22km/h | 20249m | -11.5m/s | -52.1°C | 0.8% | 56.4hPa | 2.6V | 08:18:38 | 02:23:13 | 00:00:00 | |
| BIOWL1-15 | 2026-09-03 01:39:33 | 51.76721 | 6.68470 | 119° | 22km/h | 20284m | -11.2m/s | -52.2°C | 0.8% | 56.1hPa | 2.5V | 08:18:38 | 02:23:10 | 00:00:00 | |
| DC6BW-12 | 2026-09-03 01:39:32 | 51.76721 | 6.68470 | 120° | 22km/h | 20284m | -11.2m/s | -52.2°C | 1.3% | 56.1hPa | 2.5V | 08:18:00 | 00:00:00 | 00:00:00 | |
| DL1XH-15 | 2026-09-03 01:39:31 | 51.76733 | 6.68438 | 120° | 22km/h | 20329m | -11.6m/s | -52°C | 4% | 55.7hPa | 2.5V | 08:18:20 | 02:23:06 | 00:00:00 | |
| DL1XH-west | 2026-09-03 01:39:28 | 51.76736 | 6.68430 | 118° | 22km/h | 20341m | -11.7m/s | -52°C | 0.8% | 55.6hPa | 2.5V | 08:18:38 | 02:23:05 | 00:00:00 | |
| DO2JMG | 2026-09-03 01:39:26 | 51.76741 | 6.68415 | 112° | 20km/h | 20364m | -11.3m/s | -51.9°C | 0.7% | 55.4hPa | 2.6V | 08:18:38 | 02:23:03 | 00:00:00 | |
| DF8AY | 2026-09-03 01:39:25 | 51.76742 | 6.68407 | 109° | 20km/h | 20375m | -11.4m/s | 0°C | 0% | 0hPa | 2.5V | 18:12:15 | 02:23:02 | 00:00:00 | |
| BIOWL1-15 | 2026-09-03 01:39:25 | 51.76745 | 6.68393 | 105° | 18km/h | 20398m | -11.6m/s | -52°C | 0.8% | 55.1hPa | 2.5V | 08:18:38 | 02:23:00 | 00:00:00 | |
| GOEST3-10 | 2026-09-03 01:39:25 | 51.76742 | 6.68407 | 109° | 18km/h | 20376m | -11.3m/s | -51.9°C | 3.9% | 55.3hPa | 2.6V | 00:00:00 | 02:23:02 | 00:00:00 | |
| DL4BBY-15 | 2026-09-03 01:39:24 | 51.76744 | 6.68400 | 107° | 24km/h | 20387m | -11.5m/s | -51.7°C | 0% | 0hPa | 2.6V | 00:00:00 | 00:00:00 | 00:00:00 | |
| DD1CC8 | 2026-09-03 01:39:23 | 51.76745 | 6.68393 | 104° | 16km/h | 20398m | -11.6m/s | -52.0°C | 1.2% | 55.1hPa | 2.6V | 00:00:00 | 00:00:00 | 00:00:00 | |
| DB0UT-7 | 2026-09-03 01:39:22 | 51.76746 | 6.68386 | 103° | 26km/h | 20410m | -11.5m/s | -52.0°C | 4.0% | 55.0hPa | 2.6V | 00:00:00 | 02:22:59 | 00:00:00 | |
| DL1XH-15 | 2026-09-03 01:39:21 | 51.76749 | 6.68367 | 103° | 16km/h | 20444m | -11.4m/s | -52.3°C | 4.1% | 54.7hPa | 2.5V | 08:18:30 | 02:22:56 | 00:00:00 | |
| DL1XH-west | 2026-09-03 01:39:18 | 51.76750 | 6.68360 | 104° | 16km/h | 20456m | -11.6m/s | -52.3°C | 0.9% | 54.6hPa | 2.5V | 08:18:38 | 02:22:55 | 00:00:00 | |
| DO2JMG | 2026-09-03 01:39:15 | 51.76753 | 6.68338 | 105° | 20km/h | 20491m | -11.7m/s | -52.3°C | 0.9% | 54.3hPa | 2.5V | 08:18:38 | 02:22:52 | 00:00:00 | |
| DF8AY | 2026-09-03 01:39:12 | 51.76757 | 6.68311 | 106° | 26km/h | 20525m | -11.7m/s | 0°C | 0% | 0hPa | 2.6V | 18:12:15 | 02:22:49 | 00:00:00 | |
| DL1XH-west | 2026-09-03 01:39:07 | 51.76767 | 6.68258 | 110° | 29km/h | 20584m | -11.9m/s | -52°C | 0.8% | 53.6hPa | 2.6V | 08:19:29 | 02:22:44 | 00:00:00 | |
| DO2JMG | 2026-09-03 01:39:05 | 51.76773 | 6.68236 | 115° | 27km/h | 20607m | -11.8m/s | -52.1°C | 0.9% | 53.4hPa | 2.5V | 08:19:29 | 02:22:42 | 00:00:00 | |
| BIOWL1-15 | 2026-09-03 01:39:01 | 51.76785 | 6.68196 | 117° | 27km/h | 20654m | -11.6m/s | -52.1°C | 0.8% | 53hPa | 2.6V | 08:19:29 | 02:22:38 | 00:00:00 | |
| DL1XH-west | 2026-09-03 01:38:56 | 51.76803 | 6.68145 | 126° | 31km/h | 20713m | -11.8m/s | -52.1°C | 0.8% | 52.5hPa | 2.6V | 08:19:29 | 02:22:33 | 00:00:00 | |
| AA1-15 | 2026-09-03 01:38:55 | 51.76808 | 6.68135 | 129° | 31km/h | 20725m | -11.9m/s | -52.1°C | 0.8% | 52.4hPa | 2.5V | 08:19:29 | 02:22:32 | 00:00:00 | |
| DO2JMG | 2026-09-03 01:38:54 | 51.76813 | 6.68126 | 133° | 29km/h | 20737m | -11.8m/s | -52.1°C | 0.8% | 52.3hPa | 2.5V | 08:19:29 | 02:22:31 | 00:00:00 | |
| BIOWL1-15 | 2026-09-03 01:38:53 | 51.76829 | 6.68102 | 142° | 27km/h | 20772m | -12.2m/s | -52.2°C | 0.8% | 52hPa | 2.6V | 08:19:29 | 02:22:28 | 00:00:00 | |
| DF8AY | 2026-09-03 01:38:52 | 51.76823 | 6.68109 | 140° | 29km/h | 20761m | -12m/s | 0°C | 0% | 0hPa | 2.6V | 18:12:15 | 02:22:29 | 00:00:00 | |
| BIOWL1-15 | 2026-09-03 01:38:46 | 51.76885 | 6.68051 | 155° | 16km/h | 20905m | -12.2m/s | -51.7°C | 0.7% | 51hPa | 2.5V | 08:19:29 | 02:22:17 | 00:00:00 | |
| DL1XH-west | 2026-09-03 01:38:45 | 51.76862 | 6.68067 | 153° | 24km/h | 20844m | -12.1m/s | -52°C | 0.8% | 51.5hPa | 2.5V | 08:19:29 | 02:22:22 | 00:00:00 | |
| DM0DOS-11 | 2026-09-03 01:38:44 | 51.76885 | 6.68051 | 155° | 16km/h | 20905m | -12.2m/s | -51.7°C | 3.8% | 51hPa | 2.5V | 08:19:09 | 02:22:17 | 00:00:00 | |
| DO2JMG | 2026-09-03 01:38:44 | 51.76867 | 6.68063 | 156° | 22km/h | 20856m | -12.1m/s | -51.9°C | 0.7% | 51.4hPa | 2.5V | 08:19:29 | 02:22:21 | 00:00:00 | |
| DF8AY | 2026-09-03 01:38:36 | 51.76896 | 6.68040 | 140° | 9km/h | 20953m | -12.1m/s | 0°C | 0% | 0hPa | 2.6V | 18:12:15 | 02:22:13 | 00:00:00 | |
| DL1XH-west | 2026-09-03 01:38:35 | 51.76898 | 6.68038 | 133° | 9km/h | 20966m | -12.3m/s | -52.1°C | 0.7% | 50.5hPa | 2.5V | 08:19:29 | 02:22:12 | 00:00:00 | |
| DM0DOS-11 | 2026-09-03 01:38:34 | 51.76904 | 6.68023 | 128° | 11km/h | 21026m | -12.2m/s | -52.5°C | 4% | 50hPa | 2.5V | 08:19:19 | 02:22:07 | 00:00:00 | |
| AA1-15 | 2026-09-03 01:38:34 | 51.76899 | 6.68035 | 128° | 7km/h | 20978m | -12.1m/s | -52.1°C | 0.8% | 50.4hPa | 2.5V | 08:19:29 | 02:22:11 | 00:00:00 | |
| DO2JMG | 2026-09-03 01:38:33 | 51.76900 | 6.68033 | 124° | 7km/h | 20990m | -12.4m/s | -52.2°C | 0.8% | 50.3hPa | 2.5V | 08:19:29 | 02:22:10 | 00:00:00 | |
| BIOWL1-15 | 2026-09-03 01:38:30 | 51.76904 | 6.68023 | 128° | 11km/h | 21027m | -12.2m/s | -52.5°C | 0.9% | 50hPa | 2.5V | 08:19:29 | 02:22:07 | 00:00:00 | |
| DO3MHA-11 | 2026-09-03 01:38:30 | 51.76904 | 6.68023 | 129° | 15km/h | 21027m | -12.2m/s | -52.4°C | 4.0% | 50.0hPa | 2.6V | 00:00:00 | 02:22:07 | 00:00:00 | |
| DL3AQ-11 | 2026-09-03 01:38:29 | 51.76908 | 6.68016 | 125° | 11km/h | 21051m | -12.1m/s | -52.6°C | 1.3% | 49.9hPa | 2.6V | 00:00:00 | 00:00:00 | 00:00:00 | |
| DH3RM | 2026-09-03 01:38:27 | 51.76907 | 6.68016 | 126° | 13km/h | 21051m | -12.1m/s | -52.6°C | 1.3% | 49.8hPa | 2.6V | 08:19:00 | 00:00:00 | 00:00:00 | |
| DK5PH-5 | 2026-09-03 01:38:26 | 51.76911 | 6.68006 | 119° | 24km/h | 21075m | -12.3m/s | -52.7°C | 4.2% | 49.6hPa | 2.6V | 00:00:00 | 02:22:03 | 00:00:00 | |
| WPPR-10 | 2026-09-03 01:38:25 | 51.76913 | 6.68001 | 116° | 15km/h | 21088m | -12.3m/s | -52.8°C | 1.3% | 49.6hPa | 2.6V | 00:00:00 | 00:00:00 | 00:00:00 | |
| DM0DOS-11 | 2026-09-03 01:38:24 | 51.76922 | 6.67965 | 112° | 26km/h | 21149m | -12.2m/s | -52.6°C | 4.2% | 49.1hPa | 2.6V | 08:19:29 | 02:21:57 | 00:00:00 | |
| DL1XH-west | 2026-09-03 01:38:24 | 51.76914 | 6.67996 | 115° | 16km/h | 21100m | -12.2m/s | -52.7°C | 0.9% | 49.5hPa | 2.6V | 08:19:29 | 02:22:01 | 00:00:00 | |
| DO2JMG | 2026-09-03 01:38:23 | 51.76916 | 6.67989 | 113° | 18km/h | 21112m | -12.3m/s | -52.6°C | 0.9% | 49.4hPa | 2.5V | 08:19:29 | 02:22:00 | 00:00:00 | |
| BIOWL1-15 | 2026-09-03 01:38:19 | 51.76925 | 6.67955 | 112° | 27km/h | 21161m | -12.3m/s | -52.6°C | 0.9% | 49hPa | 2.6V | 08:20:20 | 02:21:56 | 00:00:00 | |
| GOEST3-10 | 2026-09-03 01:38:19 | 51.76925 | 6.67955 | 112° | 31km/h | 21161m | -12.2m/s | -52.5°C | 4.1% | 49.0hPa | 2.6V | 00:00:00 | 02:21:56 | 00:00:00 | |
| DL3AQ-11 | 2026-09-03 01:38:18 | 51.76931 | 6.67933 | 114° | 31km/h | 21186m | -13.0m/s | -52.6°C | 1.3% | 48.8hPa | 2.5V | 00:00:00 | 00:00:00 | 00:00:00 | |
| DO9LL-15 | 2026-09-03 01:38:17 | 51.76931 | 6.67932 | 115° | 26km/h | 21186m | -13.0m/s | -52.6°C | 4.1% | 48.8hPa | 2.5V | 08:19:00 | 02:21:54 | 00:00:00 | |
| DJ2KF-10 | 2026-09-03 01:38:16 | 51.76934 | 6.67921 | 116° | 26km/h | 21199m | -12.6m/s | -52.6°C | 4.2% | 48.7hPa | 2.6V | 00:00:00 | 02:21:53 | 00:00:00 | |
| DO2LYB-13 | 2026-09-03 01:38:15 | 51.76934 | 6.67921 | 116° | 33km/h | 21199m | -12.6m/s | 0°C | 0% | 0hPa | 2.6V | 00:00:00 | 00:00:00 | 00:00:00 | |
| DM0DOS-11 | 2026-09-03 01:38:14 | 51.76960 | 6.67854 | 126° | 29km/h | 21273m | -12.1m/s | -52.7°C | 4.1% | 48.2hPa | 2.6V | 08:19:39 | 02:21:47 | 00:00:00 | |
| DL1XH-west | 2026-09-03 01:38:14 | 51.76942 | 6.67897 | 119° | 33km/h | 21224m | -12.4m/s | -52.8°C | 1% | 48.5hPa | 2.6V | 08:20:20 | 02:21:51 | 00:00:00 | |
| DO2JMG | 2026-09-03 01:38:13 | 51.76946 | 6.67885 | 121° | 33km/h | 21236m | -12.1m/s | -52.8°C | 0.9% | 48.5hPa | 2.5V | 08:20:20 | 02:21:50 | 00:00:00 | |
| DO1YAY-16 | 2026-09-03 01:38:12 | 51.76951 | 6.67874 | 123° | 31km/h | 21249m | -12.1m/s | -52.8°C | 1.3% | 48.4hPa | 2.6V | 00:00:00 | 00:00:00 | 00:00:00 | |
| DL1XH-15 | 2026-09-03 01:38:11 | 51.76964 | 6.67845 | 127° | 27km/h | 21285m | -12.2m/s | -52.6°C | 4.1% | 48.1hPa | 2.6V | 08:19:40 | 02:21:46 | 00:00:00 | |
| BIOWL1-15 | 2026-09-03 01:38:10 | 51.76968 | 6.67837 | 128° | 26km/h | 21297m | -12.4m/s | -52.6°C | 0.9% | 48hPa | 2.5V | 08:20:20 | 02:21:45 | 00:00:00 | |
| GOEST3-10 | 2026-09-03 01:38:09 | 51.76964 | 6.67845 | 128° | 24km/h | 21285m | -12.1m/s | -52.6°C | 4.1% | 48.0hPa | 2.6V | 00:00:00 | 02:21:46 | 00:00:00 | |
| DH3RM | 2026-09-03 01:38:08 | 51.76964 | 6.67845 | 128° | 27km/h | 21285m | -12.2m/s | -52.6°C | 1.3% | 48.1hPa | 2.6V | 08:20:00 | 00:00:00 | 00:00:00 | |
| EDDB2-12 | 2026-09-03 01:38:07 | 51.76972 | 6.67829 | 128° | 22km/h | 21309m | -12.5m/s | -52.6°C | 1.3% | 47.9hPa | 2.6V | 00:00:00 | 00:00:00 | 00:00:00 | |
| BIOWL9-15 | 2026-09-03 01:38:06 | 51.76975 | 6.67822 | 128° | 20km/h | 21322m | -12.7m/s | -52.5°C | 1.2% | 47.8hPa | 2.6V | 00:00:00 | 00:00:00 | 00:00:00 | |
| SONDE2-11 | 2026-09-03 01:38:05 | 51.76978 | 6.67815 | 127° | 18km/h | 21334m | -12.6m/s | -52.4°C | 1.2% | 47.7hPa | 2.6V | 00:00:00 | 00:00:00 | 00:00:00 | |
| DM0DOS-11 | 2026-09-03 01:38:04 | 51.76990 | 6.67785 | 113° | 18km/h | 21398m | -12.6m/s | -52.1°C | 3.9% | 47.2hPa | 2.6V | 08:19:49 | 02:21:37 | 00:00:00 | |
| DL1XH-15 | 2026-09-03 01:38:04 | 51.76992 | 6.67778 | 111° | 18km/h | 21410m | -12.7m/s | -52.2°C | 3.9% | 47.2hPa | 2.6V | 08:19:50 | 02:21:36 | 00:00:00 | |
| DL1XH-west | 2026-09-03 01:38:04 | 51.76981 | 6.67809 | 126° | 18km/h | 21347m | -12.6m/s | -52.3°C | 0.8% | 47.6hPa | 2.6V | 08:20:20 | 02:21:41 | 00:00:00 | |
| AA1-15 | 2026-09-03 01:38:02 | 51.76986 | 6.67797 | 122° | 16km/h | 21372m | -12.9m/s | -52.1°C | 0.8% | 47.4hPa | 2.5V | 08:20:20 | 02:21:39 | 00:00:00 | |
| DF8AY | 2026-09-03 01:37:59 | 51.76992 | 6.67778 | 111° | 18km/h | 21410m | -12.7m/s | 0°C | 0% | 0hPa | 2.6V | 18:12:15 | 02:21:36 | 00:00:00 | |
| BIOWL1-15 | 2026-09-03 01:37:57 | 51.76995 | 6.67762 | 107° | 22km/h | 21435m | -12.4m/s | -52.3°C | 0.8% | 47hPa | 2.5V | 08:20:20 | 02:21:34 | 00:00:00 | |
| SONCRA | 2026-09-03 01:37:57 | 51.76997 | 6.67753 | 104° | 22km/h | 21448m | -12.6m/s | -52.4°C | 1.2% | 46.9hPa | 2.5V | 00:00:00 | 00:00:00 | 00:00:00 | |
| DJ2DS-15 | 2026-09-03 01:37:55 | 51.76998 | 6.67744 | 104° | 24km/h | 21460m | -12.3m/s | -52.4°C | 1.2% | 46.8hPa | 2.5V | 00:00:00 | 00:00:00 | 00:00:00 | |
| DM0DOS-11 | 2026-09-03 01:37:54 | 51.77007 | 6.67692 | 105° | 27km/h | 21523m | -12.8m/s | -52.6°C | 4.1% | 46.3hPa | 2.5V | 08:19:59 | 02:21:27 | 00:00:00 | |
| DL1XH-west | 2026-09-03 01:37:53 | 51.77001 | 6.67724 | 106° | 26km/h | 21485m | -12.5m/s | -52.5°C | 0.9% | 46.6hPa | 2.6V | 08:20:20 | 02:21:30 | 00:00:00 | |
| DO2JMG | 2026-09-03 01:37:52 | 51.77003 | 6.67714 | 106° | 27km/h | 21498m | -12.6m/s | -52.5°C | 0.9% | 46.5hPa | 2.6V | 08:20:20 | 02:21:29 | 00:00:00 | |
| DB0UT-7 | 2026-09-03 01:37:52 | 51.77003 | 6.67714 | 107° | 29km/h | 21498m | -12.6m/s | -52.5°C | 4.1% | 46.4hPa | 2.6V | 08:19:00 | 00:00:00 | 00:00:00 | |
| DL1XH-15 | 2026-09-03 01:37:51 | 51.77009 | 6.67681 | 104° | 27km/h | 21535m | -13m/s | -52.6°C | 4.1% | 46.2hPa | 2.5V | 08:20:00 | 02:21:26 | 00:00:00 | |
| AA1-15 | 2026-09-03 01:37:51 | 51.77005 | 6.67703 | 105° | 27km/h | 21510m | -12.5m/s | -52.6°C | 0.9% | 46.5hPa | 2.5V | 08:20:20 | 02:21:28 | 00:00:00 | |
| BIOWL1-15 | 2026-09-03 01:37:49 | 51.77012 | 6.67658 | 103° | 31km/h | 21561m | -13m/s | -52.6°C | 0.9% | 46.1hPa | 2.6V | 08:20:20 | 02:21:24 | 00:00:00 | |
| GOEST3-10 | 2026-09-03 01:37:49 | 51.77008 | 6.67681 | 105° | 31km/h | 21536m | -13.0m/s | -52.6°C | 4.1% | 46.2hPa | 2.5V | 00:00:00 | 02:21:26 | 00:00:00 | |
| DO2KSM | 2026-09-03 01:37:48 | 51.77009 | 6.67681 | 106° | 27km/h | 21536m | -13.0m/s | -52.6°C | 1.3% | 46.2hPa | 2.5V | 08:20:00 | 00:00:00 | 00:00:00 | |
| DO9LL-15 | 2026-09-03 01:37:47 | 51.77012 | 6.67658 | 103° | 22km/h | 21561m | -12.9m/s | -52.6°C | 4.2% | 46.0hPa | 2.5V | 00:00:00 | 02:21:24 | 00:00:00 | |
| DJ2KF-10 | 2026-09-03 01:37:46 | 51.77014 | 6.67645 | 102° | 24km/h | 21574m | -12.8m/s | -52.6°C | 4.2% | 45.9hPa | 2.5V | 00:00:00 | 02:21:23 | 00:00:00 | |
| DO3DL | 2026-09-03 01:37:45 | 51.77014 | 6.67645 | 103° | 33km/h | 21574m | -12.9m/s | -52.6°C | 1.3% | 46.0hPa | 2.5V | 08:20:00 | 00:00:00 | 00:00:00 | |
| DL1XH-15 | 2026-09-03 01:37:44 | 51.77033 | 6.67547 | 117° | 38km/h | 21663m | -13m/s | -52.8°C | 4.2% | 45.4hPa | 2.5V | 08:20:10 | 02:21:16 | 00:00:00 | |
| GOEST3-10 | 2026-09-03 01:37:44 | 51.77017 | 6.67618 | 104° | 37km/h | 21599m | -12.8m/s | -52.6°C | 4.2% | 45.7hPa | 2.5V | 00:00:00 | 00:00:00 | 00:00:00 | |
| DM0DOS-11 | 2026-09-03 01:37:43 | 51.77029 | 6.67561 | 112° | 38km/h | 21650m | -13.1m/s | -52.7°C | 4.2% | 45.4hPa | 2.5V | 08:20:09 | 02:21:17 | 00:00:00 | |
| DL1XH-west | 2026-09-03 01:37:43 | 51.77020 | 6.67604 | 105° | 37km/h | 21612m | -12.8m/s | -52.6°C | 0.9% | 45.7hPa | 2.6V | 08:20:20 | 02:21:20 | 00:00:00 | |
| DO2JMG | 2026-09-03 01:37:41 | 51.77025 | 6.67575 | 110° | 38km/h | 21637m | -12.8m/s | -52.7°C | 0.9% | 45.5hPa | 2.5V | 08:20:20 | 02:21:18 | 00:00:00 | |
| AA1-15 | 2026-09-03 01:37:40 | 51.77029 | 6.67561 | 113° | 38km/h | 21650m | -13.1m/s | -52.7°C | 0.9% | 45.4hPa | 2.5V | 08:20:20 | 02:21:17 | 00:00:00 | |
| BIOWL1-15 | 2026-09-03 01:37:36 | 51.77047 | 6.67508 | 125° | 37km/h | 21702m | -13.1m/s | -52.8°C | 1% | 45.1hPa | 2.6V | 08:20:20 | 02:21:13 | 00:00:00 | |
| EDDB2-12 | 2026-09-03 01:37:36 | 51.77047 | 6.67508 | 124° | 37km/h | 21702m | -13.1m/s | -52.8°C | 1.3% | 45.1hPa | 2.5V | 00:00:00 | 00:00:00 | 00:00:00 | |
| BIOWL9-15 | 2026-09-03 01:37:35 | 51.77053 | 6.67496 | 126° | 35km/h | 21715m | -13.1m/s | -52.9°C | 1.3% | 45.0hPa | 2.5V | 00:00:00 | 00:00:00 | 00:00:00 | |
| GOEST3-10 | 2026-09-03 01:37:34 | 51.77058 | 6.67485 | 130° | 29km/h | 21728m | -12.8m/s | -52.8°C | 4.3% | 44.9hPa | 2.5V | 00:00:00 | 00:00:00 | 00:00:00 | |
| DM0DOS-11 | 2026-09-03 01:37:33 | 51.77079 | 6.67450 | 138° | 26km/h | 21780m | -13.4m/s | -52.3°C | 4.1% | 44.5hPa | 2.6V | 08:20:19 | 02:21:07 | 00:00:00 | |
| DL1XH-west | 2026-09-03 01:37:32 | 51.77069 | 6.67466 | 133° | 29km/h | 21754m | -12.9m/s | -52.6°C | 1% | 44.7hPa | 2.5V | 08:20:20 | 02:21:09 | 00:00:00 | |
| DO2JMG | 2026-09-03 01:37:31 | 51.77074 | 6.67457 | 136° | 27km/h | 21767m | -13.2m/s | -52.5°C | 0.9% | 44.6hPa | 2.6V | 08:20:20 | 02:21:08 | 00:00:00 | |
| AA1-15 | 2026-09-03 01:37:30 | 51.77079 | 6.67450 | 138° | 26km/h | 21780m | -13.4m/s | -52.3°C | 0.9% | 44.5hPa | 2.6V | 08:20:20 | 02:21:07 | 00:00:00 | |
| BIOWL1-15 | 2026-09-03 01:37:28 | 51.77096 | 6.67431 | 151° | 16km/h | 21833m | -13m/s | -52.1°C | 0.8% | 44.2hPa | 2.6V | 08:21:11 | 02:21:03 | 00:00:00 | |
| DL1XH-west | 2026-09-03 01:37:22 | 51.77109 | 6.67422 | 171° | 11km/h | 21886m | -13.1m/s | -51.9°C | 0.8% | 43.8hPa | 2.5V | 08:21:11 | 02:20:59 | 00:00:00 | |
| DO2JMG | 2026-09-03 01:37:20 | 51.77114 | 6.67421 | 177° | 5km/h | 21912m | -13.4m/s | -51.7°C | 0.7% | 43.6hPa | 2.6V | 08:22:02 | 02:20:57 | 00:00:00 | |
| BIOWL1-15 | 2026-09-03 01:37:16 | 51.77115 | 6.67421 | 40° | 2km/h | 21965m | -13.3m/s | -52°C | 0.8% | 43.3hPa | 2.5V | 08:21:11 | 02:20:53 | 00:00:00 | |
| DL1XH-west | 2026-09-03 01:37:11 | 51.77113 | 6.67419 | 60° | 2km/h | 22033m | -14.6m/s | -52.3°C | 0.8% | 42.8hPa | 2.5V | 08:21:11 | 02:20:48 | 00:00:00 | |
| HSKMA3-T | 2026-09-03 01:37:09 | 51.77113 | 6.67417 | 64° | 4km/h | 22062m | -14.4m/s | -52.3°C | 0.8% | 42.6hPa | 2.5V | 18:12:15 | 02:20:46 | 00:00:00 | |
| DO2JMG | 2026-09-03 01:37:06 | 51.77111 | 6.67411 | 51° | 7km/h | 22105m | -14.4m/s | -52.4°C | 0.9% | 42.4hPa | 2.6V | 08:22:02 | 02:20:43 | 00:00:00 | |
| BIOWL1-15 | 2026-09-03 01:37:05 | 51.77109 | 6.67408 | 49° | 9km/h | 22119m | -14.5m/s | -52.5°C | 0.8% | 42.3hPa | 2.5V | 08:21:11 | 02:20:42 | 00:00:00 | |
| DL1XH-west | 2026-09-03 01:37:01 | 51.77103 | 6.67393 | 57° | 13km/h | 22178m | -14.5m/s | -52.4°C | 0.9% | 41.9hPa | 2.6V | 08:21:11 | 02:20:38 | 00:00:00 | |
| AA1-15 | 2026-09-03 01:36:58 | 51.77098 | 6.67381 | 69° | 11km/h | 22221m | -14.6m/s | -52.4°C | 0.9% | 41.6hPa | 2.5V | 08:21:11 | 02:20:35 | 00:00:00 | |
| BIOWL1-15 | 2026-09-03 01:36:55 | 51.77096 | 6.67367 | 77° | 13km/h | 22265m | -14.6m/s | -52.4°C | 0.8% | 41.4hPa | 2.6V | 08:21:11 | 02:20:32 | 00:00:00 | |
| SONCRA | 2026-09-03 01:36:55 | 51.77095 | 6.67362 | 79° | 13km/h | 22279m | -14.7m/s | -52.5°C | 1.2% | 41.3hPa | 2.5V | 00:00:00 | 00:00:00 | 00:00:00 | |
| DL4BBY-15 | 2026-09-03 01:36:54 | 51.77095 | 6.67362 | 80° | 20km/h | 22279m | -14.7m/s | -52.3°C | 0% | 0hPa | 2.5V | 00:00:00 | 00:00:00 | 00:00:00 | |
| DO3DL | 2026-09-03 01:36:53 | 51.77095 | 6.67362 | 81° | 13km/h | 22280m | -14.7m/s | -52.5°C | 1.2% | 41.3hPa | 2.5V | 08:21:00 | 00:00:00 | 00:00:00 | |
| DL1XH-15 | 2026-09-03 01:36:52 | 51.77092 | 6.67323 | 81° | 16km/h | 22381m | -14.6m/s | -52.1°C | 4% | 40.6hPa | 2.5V | 08:21:02 | 02:20:24 | 00:00:00 | |
| HSKMA3-T | 2026-09-03 01:36:52 | 51.77094 | 6.67351 | 80° | 15km/h | 22308m | -14.5m/s | -52.5°C | 0.9% | 41.1hPa | 2.5V | 18:12:15 | 02:20:29 | 00:00:00 | |
| DL1XH-west | 2026-09-03 01:36:51 | 51.77093 | 6.67346 | 80° | 13km/h | 22323m | -14.8m/s | -52.4°C | 1% | 41hPa | 2.5V | 08:21:11 | 02:20:28 | 00:00:00 | |
| AA1-15 | 2026-09-03 01:36:47 | 51.77092 | 6.67323 | 81° | 16km/h | 22381m | -14.6m/s | -52.1°C | 0.8% | 40.6hPa | 2.5V | 08:21:11 | 02:20:24 | 00:00:00 | |
| BIOWL1-15 | 2026-09-03 01:36:45 | 51.77090 | 6.67309 | 75° | 20km/h | 22411m | -14.7m/s | -52.3°C | 0.8% | 40.4hPa | 2.5V | 08:21:11 | 02:20:22 | 00:00:00 | |
| DH3RM | 2026-09-03 01:36:44 | 51.77090 | 6.67308 | 76° | 20km/h | 22411m | -14.7m/s | -52.3°C | 1.2% | 40.4hPa | 2.6V | 08:21:00 | 00:00:00 | 00:00:00 | |
| DF2AP-13 | 2026-09-03 01:36:43 | 51.77087 | 6.67292 | 73° | 22km/h | 22441m | -14.8m/s | -52.3°C | 4.0% | 40.2hPa | 2.6V | 08:21:00 | 02:20:20 | 00:00:00 | |
| DL1XH-15 | 2026-09-03 01:36:42 | 51.77076 | 6.67239 | 76° | 22km/h | 22529m | -14.8m/s | -52.4°C | 4% | 39.7hPa | 2.6V | 08:21:12 | 02:20:14 | 00:00:00 | |
| DL1XH-west | 2026-09-03 01:36:41 | 51.77083 | 6.67275 | 70° | 24km/h | 22470m | -14.9m/s | -52.2°C | 0.8% | 40.1hPa | 2.5V | 08:21:11 | 02:20:18 | 00:00:00 | |
| AA1-15 | 2026-09-03 01:36:36 | 51.77075 | 6.67231 | 82° | 22km/h | 22544m | -14.9m/s | -52.5°C | 0.8% | 39.6hPa | 2.5V | 08:22:02 | 02:20:13 | 00:00:00 | |
| BIOWL1-15 | 2026-09-03 01:36:35 | 51.77074 | 6.67222 | 85° | 22km/h | 22559m | -14.9m/s | -52.6°C | 0.8% | 39.5hPa | 2.5V | 08:22:02 | 02:20:12 | 00:00:00 | |
| EDDB2-12 | 2026-09-03 01:36:34 | 51.77074 | 6.67213 | 91° | 22km/h | 22573m | -14.8m/s | -52.7°C | 1.2% | 39.4hPa | 2.5V | 00:00:00 | 00:00:00 | 00:00:00 | |
| BIOWL9-15 | 2026-09-03 01:36:33 | 51.77074 | 6.67204 | 95° | 22km/h | 22588m | -14.8m/s | -52.8°C | 1.2% | 39.4hPa | 2.5V | 00:00:00 | 00:00:00 | 00:00:00 | |
| DL1XH-15 | 2026-09-03 01:36:32 | 51.77087 | 6.67152 | 124° | 24km/h | 22677m | -14.6m/s | -52.8°C | 4.2% | 38.8hPa | 2.5V | 08:21:22 | 02:20:04 | 00:00:00 | |
| DL1XH-west | 2026-09-03 01:36:30 | 51.77079 | 6.67177 | 113° | 24km/h | 22633m | -14.7m/s | -52.8°C | 1% | 39.1hPa | 2.6V | 08:22:02 | 02:20:07 | 00:00:00 | |
| BIOWL1-15 | 2026-09-03 01:36:25 | 51.77094 | 6.67137 | 130° | 24km/h | 22706m | -14.9m/s | -52.8°C | 0.9% | 38.6hPa | 2.6V | 08:22:02 | 02:20:02 | 00:00:00 | |
| SONCRA | 2026-09-03 01:36:24 | 51.77102 | 6.67123 | 133° | 24km/h | 22736m | -14.9m/s | -52.8°C | 1.2% | 38.4hPa | 2.5V | 00:00:00 | 00:00:00 | 00:00:00 | |
| DL1XH-15 | 2026-09-03 01:36:22 | 51.77129 | 6.67088 | 144° | 18km/h | 22826m | -15m/s | -52.9°C | 4.3% | 37.9hPa | 2.5V | 08:21:32 | 02:19:54 | 00:00:00 | |
| DL1XH-west | 2026-09-03 01:36:20 | 51.77116 | 6.67103 | 141° | 24km/h | 22781m | -15.1m/s | -52.7°C | 0.9% | 38.2hPa | 2.5V | 08:22:02 | 02:19:57 | 00:00:00 | |
| DO2JMG | 2026-09-03 01:36:15 | 51.77136 | 6.67080 | 149° | 16km/h | 22856m | -15m/s | -52.7°C | 1.1% | 37.7hPa | 2.5V | 08:22:02 | 02:19:52 | 00:00:00 | |
| AA1-15 | 2026-09-03 01:36:14 | 51.77139 | 6.67077 | 147° | 15km/h | 22871m | -15m/s | -52.7°C | 1% | 37.6hPa | 2.5V | 08:22:02 | 02:19:51 | 00:00:00 | |
| DM0DOS-11 | 2026-09-03 01:36:13 | 51.77152 | 6.67062 | 142° | 18km/h | 22932m | -15.6m/s | -52.6°C | 4.1% | 37.3hPa | 2.5V | 08:21:39 | 02:19:47 | 00:00:00 | |
| DL1XH-15 | 2026-09-03 01:36:13 | 51.77163 | 6.67048 | 138° | 18km/h | 22978m | -15.2m/s | -52.6°C | 4.2% | 37hPa | 2.5V | 08:21:42 | 02:19:44 | 00:00:00 | |
| DL1XH-west | 2026-09-03 01:36:09 | 51.77156 | 6.67057 | 142° | 18km/h | 22947m | -15.4m/s | -52.6°C | 0.9% | 37.2hPa | 2.5V | 08:22:02 | 02:19:46 | 00:00:00 | |
| DO2JMG | 2026-09-03 01:36:05 | 51.77170 | 6.67039 | 141° | 18km/h | 23008m | -15.2m/s | -52.3°C | 0.9% | 36.8hPa | 2.6V | 08:22:02 | 02:19:42 | 00:00:00 | |
| DH3RM | 2026-09-03 01:36:04 | 51.77170 | 6.67039 | 142° | 18km/h | 23009m | -15.2m/s | -52.3°C | 1.2% | 36.8hPa | 2.6V | 08:22:00 | 00:00:00 | 00:00:00 | |
| DM0DOS-11 | 2026-09-03 01:36:03 | 51.77184 | 6.67015 | 124° | 18km/h | 23085m | -15.8m/s | -52.1°C | 4.1% | 36.4hPa | 2.6V | 08:21:49 | 02:19:37 | 00:00:00 | |
| BIOWL1-15 | 2026-09-03 01:36:03 | 51.77176 | 6.67030 | 136° | 16km/h | 23039m | -15.4m/s | -52.1°C | 0.8% | 36.7hPa | 2.5V | 08:22:02 | 02:19:40 | 00:00:00 | |
| DL1XH-west | 2026-09-03 01:35:58 | 51.77189 | 6.67002 | 121° | 20km/h | 23116m | -15.6m/s | -52.1°C | 0.9% | 36.2hPa | 2.5V | 08:22:02 | 02:19:35 | 00:00:00 | |
| DO2JMG | 2026-09-03 01:35:54 | 51.77199 | 6.66970 | 117° | 24km/h | 23178m | -15.6m/s | -52.4°C | 0.9% | 35.9hPa | 2.6V | 08:22:02 | 02:19:31 | 00:00:00 | |
| DL4BBY-15 | 2026-09-03 01:35:54 | 51.77199 | 6.66970 | 118° | 24km/h | 23179m | -15.5m/s | -52.2°C | 0% | 0hPa | 2.5V | 00:00:00 | 00:00:00 | 00:00:00 | |
| DM0DOS-11 | 2026-09-03 01:35:53 | 51.77209 | 6.66938 | 119° | 22km/h | 23240m | -15.6m/s | -52.6°C | 4.3% | 35.5hPa | 2.5V | 08:21:59 | 02:19:27 | 00:00:00 | |
| BIOWL1-15 | 2026-09-03 01:35:53 | 51.77202 | 6.66962 | 116° | 22km/h | 23194m | -15.5m/s | -52.5°C | 1% | 35.8hPa | 2.6V | 08:22:02 | 02:19:30 | 00:00:00 | |
| DL1XH-west | 2026-09-03 01:35:47 | 51.77219 | 6.66917 | 132° | 20km/h | 23287m | -15.5m/s | -52.3°C | 1% | 35.3hPa | 2.6V | 08:22:02 | 02:19:24 | 00:00:00 | |
| DD1CC8 | 2026-09-03 01:35:46 | 51.77223 | 6.66911 | 136° | 20km/h | 23302m | -15.5m/s | -52.1°C | 1.2% | 35.2hPa | 2.5V | 00:00:00 | 00:00:00 | 00:00:00 | |
| DO2JMG | 2026-09-03 01:35:44 | 51.77231 | 6.66901 | 151° | 22km/h | 23333m | -15.6m/s | -51.7°C | 0.8% | 35.1hPa | 2.5V | 08:22:53 | 02:19:21 | 00:00:00 | |
| DO3MHA-12 | 2026-09-03 01:35:43 | 51.77236 | 6.66897 | 158° | 26km/h | 23349m | -15.5m/s | 0°C | 0% | 0hPa | 2.5V | 00:00:00 | 02:19:20 | 00:00:00 | |
| DL1XH-15 | 2026-09-03 01:35:42 | 51.77274 | 6.66894 | 196° | 26km/h | 23442m | -15.7m/s | -51.3°C | 3.9% | 34.4hPa | 2.5V | 08:22:12 | 02:19:14 | 00:00:00 | |
| BIOWL1-15 | 2026-09-03 01:35:42 | 51.77242 | 6.66894 | 165° | 24km/h | 23364m | -15.7m/s | -51.4°C | 0.7% | 34.9hPa | 2.5V | 08:22:53 | 02:19:19 | 00:00:00 | |
| DL1XH-west | 2026-09-03 01:35:37 | 51.77274 | 6.66894 | 197° | 26km/h | 23442m | -15.7m/s | -51.3°C | 0.8% | 34.4hPa | 2.5V | 08:22:53 | 02:19:14 | 00:00:00 | |
| DF8AY | 2026-09-03 01:35:36 | 51.77280 | 6.66898 | 203° | 26km/h | 23458m | -15.7m/s | -51.3°C | 0.7% | 34.4hPa | 2.5V | 08:22:53 | 02:19:13 | 00:00:00 | |
| DO2JMG | 2026-09-03 01:35:34 | 51.77291 | 6.66908 | 215° | 24km/h | 23489m | -15.9m/s | -51.2°C | 0.7% | 34.2hPa | 2.5V | 08:22:53 | 02:19:11 | 00:00:00 | |
| DM0DOS-11 | 2026-09-03 01:35:33 | 51.77310 | 6.66934 | 225° | 26km/h | 23553m | -15.8m/s | -50.9°C | 3.8% | 33.9hPa | 2.5V | 08:22:19 | 02:19:07 | 00:00:00 | |
| AA1-15 | 2026-09-03 01:35:32 | 51.77301 | 6.66920 | 221° | 26km/h | 23521m | -16.1m/s | -51°C | 0.7% | 34.1hPa | 2.6V | 08:22:53 | 02:19:09 | 00:00:00 | |
| DL1XH-west | 2026-09-03 01:35:26 | 51.77327 | 6.66963 | 227° | 24km/h | 23617m | -16m/s | -50.8°C | 0.6% | 33.6hPa | 2.6V | 08:22:53 | 02:19:03 | 00:00:00 | |
| DF8AY | 2026-09-03 01:35:25 | 51.77331 | 6.66970 | 229° | 24km/h | 23633m | -16m/s | -50.8°C | 0.5% | 33.5hPa | 2.6V | 08:22:53 | 02:19:02 | 00:00:00 | |
| DO2JMG | 2026-09-03 01:35:23 | 51.77338 | 6.66984 | 234° | 18km/h | 23665m | -16.5m/s | -50.9°C | 0.6% | 33.3hPa | 2.5V | 08:22:53 | 02:19:00 | 00:00:00 | |
| AA1-15 | 2026-09-03 01:35:21 | 51.77342 | 6.66994 | 236° | 13km/h | 23697m | -16.2m/s | -51°C | 0.7% | 33.1hPa | 2.5V | 08:22:53 | 02:18:58 | 00:00:00 | |
| DL1XH-west | 2026-09-03 01:35:16 | 51.77348 | 6.67009 | 216° | 4km/h | 23778m | -16.5m/s | -51.1°C | 0.7% | 32.8hPa | 2.5V | 08:22:53 | 02:18:53 | 00:00:00 | |
| DO2JMG | 2026-09-03 01:35:13 | 51.77350 | 6.67010 | 131° | 2km/h | 23828m | -16.6m/s | -51°C | 0.6% | 32.5hPa | 2.5V | 08:22:53 | 02:18:50 | 00:00:00 | |
| DF2AP-13 | 2026-09-03 01:35:13 | 51.77350 | 6.67010 | 132° | 9km/h | 23828m | -16.6m/s | -51.0°C | 3.7% | 32.5hPa | 2.5V | 00:00:00 | 02:18:50 | 00:00:00 | |
| DM0DOS-11 | 2026-09-03 01:35:12 | 51.77351 | 6.67006 | 111° | 4km/h | 23877m | -16.2m/s | -51.1°C | 3.8% | 32.3hPa | 2.6V | 08:22:39 | 02:18:47 | 00:00:00 | |
| DL1XH-15 | 2026-09-03 01:35:12 | 51.77352 | 6.67001 | 120° | 4km/h | 23926m | -16.5m/s | -51.2°C | 3.8% | 32hPa | 2.5V | 08:22:42 | 02:18:44 | 00:00:00 | |
| DF8AY | 2026-09-03 01:35:12 | 51.77350 | 6.67009 | 104° | 2km/h | 23845m | -16.3m/s | -51°C | 0.7% | 32.4hPa | 2.6V | 08:22:53 | 02:18:49 | 00:00:00 | |
| BIOWL1-15 | 2026-09-03 01:35:10 | 51.77351 | 6.67006 | 111° | 4km/h | 23877m | -16.3m/s | -51.1°C | 0.7% | 32.3hPa | 2.6V | 08:22:53 | 02:18:47 | 00:00:00 | |
| DL1XH-west | 2026-09-03 01:35:05 | 51.77353 | 6.66998 | 115° | 5km/h | 23959m | -16.2m/s | -51.2°C | 0.7% | 31.9hPa | 2.6V | 08:22:53 | 02:18:42 | 00:00:00 | |
| DO2KSM | 2026-09-03 01:35:04 | 51.77353 | 6.66998 | 116° | 5km/h | 23960m | -16.2m/s | -51.2°C | 1.1% | 31.8hPa | 2.6V | 08:22:00 | 00:00:00 | 00:00:00 | |
| DC6BW-12 | 2026-09-03 01:35:03 | 51.77354 | 6.66996 | 138° | 7km/h | 23976m | -16.6m/s | -51.1°C | 1.2% | 31.8hPa | 2.6V | 08:22:00 | 00:00:00 | 00:00:00 | |
| DL1XH-15 | 2026-09-03 01:35:02 | 51.77369 | 6.67006 | 228° | 18km/h | 24092m | -16.8m/s | -51.2°C | 3.8% | 31.2hPa | 2.6V | 08:22:52 | 02:18:34 | 00:00:00 | |
| DM0DOS-11 | 2026-09-03 01:35:02 | 51.77361 | 6.66995 | 213° | 9km/h | 24043m | -16.5m/s | -51°C | 3.8% | 31.4hPa | 2.5V | 08:22:49 | 02:18:37 | 00:00:00 | |
| DO2JMG | 2026-09-03 01:35:02 | 51.77357 | 6.66993 | 168° | 7km/h | 24009m | -16.9m/s | -51°C | 0.7% | 31.6hPa | 2.5V | 08:22:53 | 02:18:39 | 00:00:00 | |
| DF8AY | 2026-09-03 01:35:01 | 51.77359 | 6.66994 | 196° | 9km/h | 24026m | -16.7m/s | -51°C | 0.7% | 31.5hPa | 2.5V | 08:22:53 | 02:18:38 | 00:00:00 | |
| AA1-15 | 2026-09-03 01:35:00 | 51.77361 | 6.66995 | 213° | 9km/h | 24043m | -16.5m/s | -51.1°C | 0.7% | 31.4hPa | 2.5V | 08:22:53 | 02:18:37 | 00:00:00 | |
| DL1XH-west | 2026-09-03 01:34:54 | 51.77378 | 6.67025 | 237° | 18km/h | 24143m | -16.6m/s | -51.4°C | 0.8% | 31hPa | 2.5V | 08:23:44 | 02:18:31 | 00:00:00 | |
| DL4BBY-15 | 2026-09-03 01:34:54 | 51.77378 | 6.67025 | 237° | 7km/h | 24144m | -16.6m/s | -51.2°C | 0% | 0hPa | 2.6V | 00:00:00 | 00:00:00 | 00:00:00 | |
| DH3RM | 2026-09-03 01:34:53 | 51.77378 | 6.67025 | 238° | 18km/h | 24143m | -16.6m/s | -51.4°C | 1.2% | 31.0hPa | 2.6V | 08:23:00 | 00:00:00 | 00:00:00 | |
| DM0DOS-11 | 2026-09-03 01:34:52 | 51.77385 | 6.67045 | 241° | 9km/h | 24210m | -16.9m/s | -51.3°C | 3.9% | 30.6hPa | 2.6V | 08:22:59 | 02:18:27 | 00:00:00 | |
| DL1XH-15 | 2026-09-03 01:34:52 | 51.77386 | 6.67050 | 327° | 4km/h | 24261m | -16.6m/s | -51.2°C | 3.9% | 30.4hPa | 2.5V | 08:23:02 | 02:18:24 | 00:00:00 | |
| DO2JMG | 2026-09-03 01:34:51 | 51.77384 | 6.67041 | 237° | 11km/h | 24194m | -16.9m/s | -51.4°C | 0.7% | 30.7hPa | 2.6V | 08:23:44 | 02:18:28 | 00:00:00 | |
| AA1-15 | 2026-09-03 01:34:50 | 51.77386 | 6.67045 | 241° | 9km/h | 24211m | -16.9m/s | -51.3°C | 0.7% | 30.6hPa | 2.6V | 08:23:44 | 02:18:27 | 00:00:00 | |
| BIOWL1-15 | 2026-09-03 01:34:49 | 51.77385 | 6.67051 | 8° | 2km/h | 24278m | -17.1m/s | -51.2°C | 0.7% | 30.4hPa | 2.5V | 08:23:44 | 02:18:23 | 00:00:00 | |
| WPPR-10 | 2026-09-03 01:34:48 | 51.77386 | 6.67049 | 278° | 2km/h | 24244m | -16.9m/s | -51.2°C | 1.1% | 30.4hPa | 2.6V | 00:00:00 | 00:00:00 | 00:00:00 | |
| EDDB2-11 | 2026-09-03 01:34:47 | 51.77386 | 6.67050 | 327° | 2km/h | 24261m | -16.6m/s | -51.2°C | 1.1% | 30.4hPa | 2.6V | 00:00:00 | 00:00:00 | 00:00:00 | |
| DL1XH-west | 2026-09-03 01:34:44 | 51.77384 | 6.67050 | 25° | 4km/h | 24312m | -17m/s | -51.3°C | 0.7% | 30.2hPa | 2.6V | 08:23:44 | 02:18:21 | 00:00:00 | |
| DO9LL-15 | 2026-09-03 01:34:43 | 51.77384 | 6.67050 | 323° | 5km/h | 24329m | -17.1m/s | -51.3°C | 3.9% | 30.0hPa | 2.5V | 00:00:00 | 02:18:20 | 00:00:00 | |
| DM0DOS-11 | 2026-09-03 01:34:42 | 51.77383 | 6.67052 | 245° | 4km/h | 24380m | -17.3m/s | -51.4°C | 3.9% | 29.8hPa | 2.5V | 08:23:09 | 02:18:17 | 00:00:00 | |
| DO2JMG | 2026-09-03 01:34:41 | 51.77383 | 6.67051 | 286° | 2km/h | 24363m | -16.9m/s | -51.4°C | 0.8% | 29.9hPa | 2.5V | 08:23:44 | 02:18:18 | 00:00:00 | |
| AA1-15 | 2026-09-03 01:34:40 | 51.77383 | 6.67052 | 246° | 4km/h | 24380m | -17.3m/s | -51.4°C | 0.8% | 29.9hPa | 2.5V | 08:23:44 | 02:18:17 | 00:00:00 | |
| BIOWL1-15 | 2026-09-03 01:34:39 | 51.77384 | 6.67054 | 260° | 4km/h | 24397m | -17.4m/s | -51.3°C | 0.8% | 29.8hPa | 2.5V | 08:23:44 | 02:18:16 | 00:00:00 | |
| DL1XH-west | 2026-09-03 01:34:33 | 51.77382 | 6.67066 | 333° | 4km/h | 24501m | -17.4m/s | -51.1°C | 0.7% | 29.3hPa | 2.5V | 08:23:44 | 02:18:10 | 00:00:00 | |
| DL1XH-15 | 2026-09-03 01:34:32 | 51.77371 | 6.67056 | 45° | 16km/h | 24606m | -17.2m/s | -51.1°C | 3.8% | 28.8hPa | 2.5V | 08:23:22 | 02:18:04 | 00:00:00 | |
| DM0DOS-11 | 2026-09-03 01:34:31 | 51.77378 | 6.67066 | 31° | 7km/h | 24554m | -17.3m/s | -51.1°C | 3.8% | 29.1hPa | 2.6V | 08:23:19 | 02:18:07 | 00:00:00 | |
| DO2JMG | 2026-09-03 01:34:31 | 51.77380 | 6.67067 | 8° | 5km/h | 24536m | -17.4m/s | -51.1°C | 0.7% | 29.1hPa | 2.5V | 08:23:44 | 02:18:08 | 00:00:00 | |
| AA1-15 | 2026-09-03 01:34:30 | 51.77378 | 6.67066 | 32° | 7km/h | 24554m | -17.3m/s | -51.1°C | 0.7% | 29.1hPa | 2.6V | 08:23:44 | 02:18:07 | 00:00:00 | |
| DF8AY | 2026-09-03 01:34:29 | 51.77376 | 6.67063 | 42° | 11km/h | 24571m | -17.1m/s | -51.1°C | 0.7% | 29hPa | 2.6V | 08:23:44 | 02:18:06 | 00:00:00 | |
| DH3RM | 2026-09-03 01:34:29 | 51.77377 | 6.67063 | 43° | 11km/h | 24571m | -17.1m/s | -51.1°C | 1.1% | 29.0hPa | 2.5V | 08:23:00 | 00:00:00 | 00:00:00 | |
| SONDE2-11 | 2026-09-03 01:34:28 | 51.77374 | 6.67060 | 43° | 13km/h | 24589m | -17.5m/s | -51.1°C | 1.1% | 28.9hPa | 2.5V | 00:00:00 | 00:00:00 | 00:00:00 | |
| BIOWL1-15 | 2026-09-03 01:34:28 | 51.77374 | 6.67060 | 44° | 15km/h | 24589m | -17.5m/s | -51.1°C | 0.7% | 28.9hPa | 2.6V | 08:23:44 | 02:18:05 | 00:00:00 | |
| BUE01 | 2026-09-03 01:34:27 | 51.77369 | 6.67051 | 46° | 15km/h | 24623m | -17.6m/s | -51.1°C | 1.1% | 28.8hPa | 2.5V | 00:00:00 | 00:00:00 | 00:00:00 | |
| DK5PH-5 | 2026-09-03 01:34:26 | 51.77369 | 6.67051 | 47° | 7km/h | 24623m | -17.6m/s | -51.0°C | 3.9% | 28.7hPa | 2.5V | 00:00:00 | 02:18:03 | 00:00:00 | |
| DL4BBY-15 | 2026-09-03 01:34:24 | 51.77363 | 6.67042 | 40° | 7km/h | 24660m | -17.5m/s | -50.7°C | 0% | 0hPa | 2.5V | 00:00:00 | 00:00:00 | 00:00:00 | |
| DO2KSM | 2026-09-03 01:34:23 | 51.77363 | 6.67042 | 41° | 16km/h | 24659m | -17.6m/s | -51.0°C | 1.1% | 28.6hPa | 2.5V | 08:23:00 | 00:00:00 | 00:00:00 | |
| DL1XH-15 | 2026-09-03 01:34:22 | 51.77351 | 6.67026 | 83° | 4km/h | 24782m | -17.8m/s | -50.7°C | 3.8% | 28.1hPa | 2.5V | 08:23:32 | 02:17:54 | 00:00:00 | |
| DL1XH-west | 2026-09-03 01:34:22 | 51.77357 | 6.67035 | 32° | 13km/h | 24693m | -17.5m/s | -50.9°C | 0.6% | 28.4hPa | 2.6V | 08:23:44 | 02:17:59 | 00:00:00 | |
| DM0DOS-11 | 2026-09-03 01:34:21 | 51.77353 | 6.67031 | 40° | 7km/h | 24729m | -17.5m/s | -50.8°C | 3.8% | 28.3hPa | 2.5V | 08:23:29 | 02:17:57 | 00:00:00 | |
| DO2JMG | 2026-09-03 01:34:20 | 51.77353 | 6.67031 | 40° | 7km/h | 24729m | -17.5m/s | -50.8°C | 0.7% | 28.3hPa | 2.5V | 08:23:44 | 02:17:57 | 00:00:00 | |
| AA1-15 | 2026-09-03 01:34:19 | 51.77352 | 6.67029 | 49° | 5km/h | 24746m | -18m/s | -50.7°C | 0.6% | 28.2hPa | 2.5V | 08:23:44 | 02:17:56 | 00:00:00 | |
| BIOWL1-15 | 2026-09-03 01:34:19 | 51.77351 | 6.67026 | 84° | 4km/h | 24782m | -17.8m/s | -50.7°C | 0.7% | 28.1hPa | 2.5V | 08:23:44 | 02:17:54 | 00:00:00 | |
| DF8AY | 2026-09-03 01:34:18 | 51.77351 | 6.67027 | 59° | 4km/h | 24764m | -17.4m/s | -50.7°C | 0.7% | 28.2hPa | 2.5V | 08:23:44 | 02:17:55 | 00:00:00 | |
| DL3AQ-11 | 2026-09-03 01:34:18 | 51.77351 | 6.67026 | 83° | 2km/h | 24782m | -17.8m/s | -50.7°C | 1.1% | 28.1hPa | 2.6V | 00:00:00 | 00:00:00 | 00:00:00 | |
| DO3MHA-11 | 2026-09-03 01:34:17 | 51.77351 | 6.67026 | 84° | 4km/h | 24782m | -17.7m/s | -50.7°C | 3.8% | 28.0hPa | 2.6V | 00:00:00 | 02:17:54 | 00:00:00 | |
| DJ2KF-10 | 2026-09-03 01:34:16 | 51.77351 | 6.67025 | 126° | 9km/h | 24800m | -17.9m/s | -50.8°C | 3.8% | 28.0hPa | 2.6V | 00:00:00 | 02:17:53 | 00:00:00 | |
| DB0ND-19 | 2026-09-03 01:34:15 | 51.77351 | 6.67024 | 135° | 2km/h | 24818m | -17.6m/s | -50.9°C | 1.1% | 27.9hPa | 2.6V | 00:00:00 | 00:00:00 | 00:00:00 | |
| GOEST3-10 | 2026-09-03 01:34:14 | 51.77352 | 6.67023 | 161° | 4km/h | 24835m | -17.9m/s | -50.9°C | 3.9% | 27.8hPa | 2.6V | 00:00:00 | 00:00:00 | 00:00:00 | |
| DD1CC8 | 2026-09-03 01:34:13 | 51.77353 | 6.67023 | 182° | 2km/h | 24853m | -18.1m/s | -50.9°C | 1.1% | 27.8hPa | 2.6V | 00:00:00 | 00:00:00 | 00:00:00 | |
| DL1XH-15 | 2026-09-03 01:34:12 | 51.77353 | 6.67029 | 295° | 7km/h | 24961m | -17.7m/s | -51.1°C | 4% | 27.3hPa | 2.6V | 08:23:42 | 02:17:44 | 00:00:00 | |
| DM0DOS-11 | 2026-09-03 01:34:11 | 51.77354 | 6.67025 | 266° | 2km/h | 24908m | -17.9m/s | -51.2°C | 4% | 27.5hPa | 2.5V | 08:23:39 | 02:17:47 | 00:00:00 | |
| DL1XH-west | 2026-09-03 01:34:11 | 51.77354 | 6.67024 | 247° | 2km/h | 24889m | -18.2m/s | -51.1°C | 0.8% | 27.6hPa | 2.5V | 08:23:44 | 02:17:48 | 00:00:00 | |
| DO2JMG | 2026-09-03 01:34:10 | 51.77354 | 6.67025 | 267° | 2km/h | 24908m | -17.9m/s | -51.2°C | 0.8% | 27.5hPa | 2.5V | 08:23:44 | 02:17:47 | 00:00:00 | |
| BIOWL1-15 | 2026-09-03 01:34:09 | 51.77353 | 6.67029 | 296° | 7km/h | 24961m | -17.7m/s | -51.2°C | 0.8% | 27.3hPa | 2.6V | 08:23:44 | 02:17:44 | 00:00:00 | |
| DF8AY | 2026-09-03 01:34:08 | 51.77354 | 6.67027 | 283° | 5km/h | 24943m | -18.1m/s | -51.2°C | 0.9% | 27.4hPa | 2.6V | 08:23:44 | 02:17:45 | 00:00:00 | |
| DO3MHA-11 | 2026-09-03 01:34:07 | 51.77353 | 6.67029 | 296° | 9km/h | 24962m | -17.7m/s | -51.1°C | 4.0% | 27.3hPa | 2.6V | 00:00:00 | 02:17:44 | 00:00:00 | |
| BIOWL7-15 | 2026-09-03 01:34:05 | 51.77353 | 6.67032 | 307° | 9km/h | 24980m | -17.8m/s | -51.1°C | 1.2% | 27.2hPa | 2.5V | 00:00:00 | 00:00:00 | 00:00:00 | |
| GOEST3-10 | 2026-09-03 01:34:04 | 51.77349 | 6.67038 | 312° | 9km/h | 25016m | -18.0m/s | -50.8°C | 4.0% | 27.0hPa | 2.5V | 00:00:00 | 00:00:00 | 00:00:00 | |
| DH3RM | 2026-09-03 01:34:03 | 51.77349 | 6.67038 | 312° | 9km/h | 25016m | -18.1m/s | -50.9°C | 1.1% | 27.1hPa | 2.5V | 08:24:00 | 00:00:00 | 00:00:00 | |
| DL1XH-15 | 2026-09-03 01:34:02 | 51.77334 | 6.67047 | 15° | 11km/h | 25142m | -18.1m/s | -50.2°C | 3.8% | 26.6hPa | 2.5V | 08:23:52 | 02:17:34 | 00:00:00 | |
| DL1XH-west | 2026-09-03 01:34:01 | 51.77344 | 6.67045 | 332° | 9km/h | 25070m | -18.4m/s | -50.6°C | 0.7% | 26.9hPa | 2.6V | 08:24:35 | 02:17:38 | 00:00:00 | |
| DO2JMG | 2026-09-03 01:33:59 | 51.77339 | 6.67047 | 348° | 11km/h | 25106m | -18.2m/s | -50.5°C | 0.6% | 26.7hPa | 2.5V | 08:24:35 | 02:17:36 | 00:00:00 | |
| AA1-15 | 2026-09-03 01:33:57 | 51.77334 | 6.67047 | 16° | 11km/h | 25142m | -18.1m/s | -50.2°C | 0.7% | 26.6hPa | 2.5V | 08:24:35 | 02:17:34 | 00:00:00 | |
| BIOWL1-15 | 2026-09-03 01:33:56 | 51.77332 | 6.67045 | 28° | 9km/h | 25160m | -18.2m/s | -50.1°C | 0.6% | 26.5hPa | 2.5V | 08:24:35 | 02:17:33 | 00:00:00 | |
| BUE01 | 2026-09-03 01:33:56 | 51.77330 | 6.67043 | 36° | 9km/h | 25179m | -18.5m/s | -50.1°C | 1.1% | 26.4hPa | 2.6V | 00:00:00 | 00:00:00 | 00:00:00 | |
| DL4BBY-15 | 2026-09-03 01:33:54 | 51.77328 | 6.67041 | 41° | 16km/h | 25198m | -18.7m/s | -49.7°C | 0% | 0hPa | 2.6V | 00:00:00 | 00:00:00 | 00:00:00 | |
| DL1XH-15 | 2026-09-03 01:33:52 | 51.77315 | 6.67001 | 80° | 20km/h | 25326m | -18.1m/s | -49.2°C | 3.5% | 25.8hPa | 2.6V | 08:24:02 | 02:17:24 | 00:00:00 | |
| DM0DOS-11 | 2026-09-03 01:33:51 | 51.77319 | 6.67023 | 64° | 16km/h | 25270m | -18.5m/s | -49.3°C | 3.5% | 26.1hPa | 2.5V | 08:23:59 | 02:17:27 | 00:00:00 | |
| DL1XH-west | 2026-09-03 01:33:50 | 51.77319 | 6.67023 | 65° | 16km/h | 25270m | -18.5m/s | -49.3°C | 0.5% | 26.1hPa | 2.5V | 08:24:35 | 02:17:27 | 00:00:00 | |
| DO2JMG | 2026-09-03 01:33:48 | 51.77316 | 6.67009 | 77° | 20km/h | 25308m | -18.6m/s | -49.2°C | 0.5% | 25.9hPa | 2.6V | 08:24:35 | 02:17:25 | 00:00:00 | |
| HSKMA3-T | 2026-09-03 01:33:46 | 51.77314 | 6.66993 | 87° | 20km/h | 25344m | -18.4m/s | -49.3°C | 0.5% | 25.8hPa | 2.6V | 18:12:15 | 02:17:23 | 00:00:00 | |
| BIOWL1-15 | 2026-09-03 01:33:45 | 51.77314 | 6.66985 | 92° | 22km/h | 25362m | -18.2m/s | -49.4°C | 0.5% | 25.7hPa | 2.5V | 08:24:35 | 02:17:22 | 00:00:00 | |
| DF2AP-13 | 2026-09-03 01:33:44 | 51.77315 | 6.66976 | 104° | 9km/h | 25381m | -18.5m/s | -49.4°C | 3.6% | 25.6hPa | 2.5V | 00:00:00 | 02:17:21 | 00:00:00 | |
| DO2KSM | 2026-09-03 01:33:43 | 51.77333 | 6.66967 | 110° | 22km/h | 25399m | -18.8m/s | -49.4°C | 1.0% | 25.5hPa | 2.5V | 08:24:00 | 00:00:00 | 00:00:00 | |
| DL1XH-15 | 2026-09-03 01:33:42 | 51.77336 | 6.66928 | 146° | 18km/h | 25510m | -18.8m/s | -49.2°C | 3.5% | 25.1hPa | 2.5V | 08:24:12 | 02:17:14 | 00:00:00 | |
| DL1XH-west | 2026-09-03 01:33:39 | 51.77328 | 6.66938 | 135° | 20km/h | 25473m | -18.3m/s | -49.3°C | 0.5% | 25.3hPa | 2.6V | 08:24:35 | 02:17:16 | 00:00:00 | |
| DO2JMG | 2026-09-03 01:33:38 | 51.77332 | 6.66932 | 142° | 20km/h | 25492m | -18.8m/s | -49.3°C | 0.5% | 25.2hPa | 2.5V | 08:24:35 | 02:17:15 | 00:00:00 | |
| AA1-15 | 2026-09-03 01:33:36 | 51.77340 | 6.66924 | 152° | 16km/h | 25529m | -18.7m/s | -49.2°C | 0.5% | 25hPa | 2.5V | 08:24:35 | 02:17:13 | 00:00:00 | |
| BIOWL1-15 | 2026-09-03 01:33:34 | 51.77347 | 6.66919 | 164° | 13km/h | 25566m | -18.4m/s | -49.1°C | 0.4% | 24.9hPa | 2.6V | 08:24:35 | 02:17:11 | 00:00:00 | |
| DF8AY | 2026-09-03 01:33:33 | 51.77350 | 6.66918 | 167° | 13km/h | 25585m | -18.7m/s | -49.1°C | 0.4% | 24.9hPa | 2.6V | 08:24:35 | 02:17:10 | 00:00:00 | |
| DD1CC3-15 | 2026-09-03 01:33:32 | 51.77350 | 6.66918 | 168° | 13km/h | 25585m | -18.7m/s | -49.1°C | 1.0% | 24.8hPa | 2.5V | 08:24:00 | 00:00:00 | 00:00:00 | |
| DM0DOS-11 | 2026-09-03 01:33:31 | 51.77359 | 6.66915 | 165° | 11km/h | 25640m | -18.7m/s | -49.2°C | 3.5% | 24.6hPa | 2.5V | 08:24:19 | 02:17:07 | 00:00:00 | |
| DL1XH-west | 2026-09-03 01:33:29 | 51.77361 | 6.66914 | 165° | 11km/h | 25659m | -18.6m/s | -49.4°C | 0.4% | 24.5hPa | 2.5V | 08:24:35 | 02:17:06 | 00:00:00 | |
| DO2JMG | 2026-09-03 01:33:28 | 51.77363 | 6.66913 | 162° | 9km/h | 25678m | -18.7m/s | -49.4°C | 0.5% | 24.5hPa | 2.5V | 08:24:35 | 02:17:05 | 00:00:00 | |
| AA1-15 | 2026-09-03 01:33:25 | 51.77367 | 6.66909 | 128° | 5km/h | 25734m | -18.6m/s | -49.5°C | 0.5% | 24.3hPa | 2.6V | 08:24:35 | 02:17:02 | 00:00:00 | |
| BIOWL1-15 | 2026-09-03 01:33:24 | 51.77368 | 6.66906 | 127° | 7km/h | 25753m | -18.9m/s | -49.5°C | 0.6% | 24.2hPa | 2.5V | 08:24:35 | 02:17:01 | 00:00:00 | |
| DF8AY | 2026-09-03 01:33:23 | 51.77370 | 6.66904 | 125° | 7km/h | 25772m | -18.8m/s | -49.6°C | 0.6% | 24.1hPa | 2.5V | 08:24:35 | 02:17:00 | 00:00:00 | |
| DL1XH-15 | 2026-09-03 01:33:22 | 51.77376 | 6.66883 | 119° | 11km/h | 25886m | -19.4m/s | -49.5°C | 3.6% | 23.7hPa | 2.5V | 08:24:32 | 02:16:54 | 00:00:00 | |
| DM0DOS-11 | 2026-09-03 01:33:21 | 51.77372 | 6.66895 | 109° | 9km/h | 25829m | -19.1m/s | -49.6°C | 3.7% | 23.9hPa | 2.6V | 08:24:29 | 02:16:57 | 00:00:00 | |
| DL1XH-west | 2026-09-03 01:33:19 | 51.77373 | 6.66891 | 114° | 9km/h | 25848m | -19m/s | -49.6°C | 0.5% | 23.9hPa | 2.5V | 08:24:35 | 02:16:56 | 00:00:00 | |
| DO2JMG | 2026-09-03 01:33:18 | 51.77374 | 6.66887 | 116° | 11km/h | 25867m | -19m/s | -49.6°C | 0.5% | 23.8hPa | 2.5V | 08:24:35 | 02:16:55 | 00:00:00 | |
| BIOWL1-15 | 2026-09-03 01:33:14 | 51.77380 | 6.66872 | 123° | 11km/h | 25944m | -19.2m/s | -49.6°C | 0.6% | 23.5hPa | 2.5V | 08:24:35 | 02:16:51 | 00:00:00 | |
| DF8AY | 2026-09-03 01:33:12 | 51.77383 | 6.66865 | 124° | 11km/h | 25983m | -19.2m/s | -49.5°C | 0.6% | 23.4hPa | 2.5V | 08:25:26 | 02:16:49 | 00:00:00 | |
| DM0DOS-11 | 2026-09-03 01:33:11 | 51.77386 | 6.66860 | 151° | 7km/h | 26021m | -19.1m/s | -49.3°C | 3.6% | 23.2hPa | 2.6V | 08:24:39 | 02:16:47 | 00:00:00 | |
| DL1XH-west | 2026-09-03 01:33:08 | 51.77388 | 6.66859 | 211° | 4km/h | 26059m | -19.1m/s | -49.2°C | 0.6% | 23.1hPa | 2.5V | 08:25:26 | 02:16:45 | 00:00:00 | |
| HSKMA3-T | 2026-09-03 01:33:07 | 51.77389 | 6.66860 | 235° | 4km/h | 26078m | -19.2m/s | -49.2°C | 0.5% | 23hPa | 2.5V | 18:12:15 | 02:16:44 | 00:00:00 | |
| BIOWL1-15 | 2026-09-03 01:33:04 | 51.77390 | 6.66867 | 252° | 7km/h | 26136m | -19.5m/s | -49.2°C | 0.5% | 22.8hPa | 2.6V | 08:25:26 | 02:16:41 | 00:00:00 | |
| AA1-15 | 2026-09-03 01:33:03 | 51.77390 | 6.66870 | 266° | 7km/h | 26155m | -19.2m/s | -49.2°C | 0.5% | 22.8hPa | 2.6V | 08:25:26 | 02:16:40 | 00:00:00 | |
| DL1XH-15 | 2026-09-03 01:33:02 | 51.77391 | 6.66885 | 262° | 4km/h | 26272m | -19.6m/s | -48.9°C | 3.5% | 22.4hPa | 2.6V | 08:24:52 | 02:16:34 | 00:00:00 | |
| DM0DOS-11 | 2026-09-03 01:33:01 | 51.77391 | 6.66878 | 270° | 5km/h | 26213m | -19.3m/s | -49.1°C | 3.6% | 22.5hPa | 2.5V | 08:24:49 | 02:16:37 | 00:00:00 | |
| DF8AY | 2026-09-03 01:33:01 | 51.77390 | 6.66876 | 257° | 7km/h | 26194m | -19.5m/s | -49.2°C | 0.6% | 22.6hPa | 2.5V | 08:25:26 | 02:16:38 | 00:00:00 | |
| DL1XH-west | 2026-09-03 01:32:58 | 51.77391 | 6.66883 | 251° | 5km/h | 26252m | -19.9m/s | -49°C | 0.5% | 22.4hPa | 2.5V | 08:25:26 | 02:16:35 | 00:00:00 | |
| DO2JMG | 2026-09-03 01:32:57 | 51.77391 | 6.66885 | 263° | 4km/h | 26272m | -19.6m/s | -48.9°C | 0.5% | 22.4hPa | 2.6V | 08:25:26 | 02:16:34 | 00:00:00 | |
| BIOWL1-15 | 2026-09-03 01:32:53 | 51.77388 | 6.66887 | 21° | 5km/h | 26350m | -20.1m/s | -48.8°C | 0.4% | 22.1hPa | 2.5V | 08:25:26 | 02:16:30 | 00:00:00 | |
| AA1-15 | 2026-09-03 01:32:52 | 51.77387 | 6.66886 | 31° | 7km/h | 26370m | -19.8m/s | -48.8°C | 0.4% | 22hPa | 2.5V | 08:25:26 | 02:16:29 | 00:00:00 | |
| DF8AY | 2026-09-03 01:32:51 | 51.77385 | 6.66884 | 43° | 9km/h | 26390m | -19.6m/s | -48.7°C | 0.6% | 22hPa | 2.6V | 08:25:26 | 02:16:28 | 00:00:00 | |
| DL1XH-west | 2026-09-03 01:32:47 | 51.77378 | 6.66869 | 66° | 13km/h | 26469m | -19.5m/s | -48.7°C | 0.4% | 21.7hPa | 2.5V | 08:25:26 | 02:16:24 | 00:00:00 | |
| DO2JMG | 2026-09-03 01:32:46 | 51.77377 | 6.66865 | 73° | 13km/h | 26488m | -19.7m/s | -48.6°C | 0.3% | 21.6hPa | 2.6V | 08:25:26 | 02:16:23 | 00:00:00 | |
| BIOWL1-15 | 2026-09-03 01:32:43 | 51.77378 | 6.66852 | 123° | 9km/h | 26547m | -19.7m/s | -48.7°C | 0.4% | 21.4hPa | 2.5V | 08:25:26 | 02:16:20 | 00:00:00 | |
| DL1XH-15 | 2026-09-03 01:32:42 | 51.77391 | 6.66838 | 151° | 15km/h | 26666m | -19.8m/s | -48.5°C | 3.4% | 21.1hPa | 2.5V | 08:25:12 | 02:16:14 | 00:00:00 | |
| AA1-15 | 2026-09-03 01:32:41 | 51.77381 | 6.66847 | 152° | 9km/h | 26586m | -20.1m/s | -48.7°C | 0.5% | 21.3hPa | 2.6V | 08:25:26 | 02:16:18 | 00:00:00 | |
| DF8AY | 2026-09-03 01:32:40 | 51.77383 | 6.66845 | 149° | 11km/h | 26607m | -20m/s | -48.7°C | 0.4% | 21.2hPa | 2.6V | 08:25:26 | 02:16:17 | 00:00:00 | |
| DO2JMG | 2026-09-03 01:32:36 | 51.77395 | 6.66834 | 141° | 15km/h | 26686m | -19.9m/s | -48.5°C | 0.5% | 21hPa | 2.5V | 08:25:26 | 02:16:13 | 00:00:00 | |
| HSKMA3-T | 2026-09-03 01:32:35 | 51.77398 | 6.66830 | 136° | 16km/h | 26706m | -20.2m/s | -48.6°C | 0.4% | 21hPa | 2.5V | 18:12:15 | 02:16:12 | 00:00:00 | |
| GOEST3-10 | 2026-09-03 01:32:34 | 51.77400 | 6.66825 | 127° | 20km/h | 26727m | -20.0m/s | -48.6°C | 3.4% | 20.8hPa | 2.6V | 00:00:00 | 00:00:00 | 00:00:00 | |
| DD1CC1-15 | 2026-09-03 01:32:33 | 51.77400 | 6.66825 | 128° | 18km/h | 26727m | -20.1m/s | -48.6°C | 0.9% | 20.9hPa | 2.6V | 08:25:00 | 00:00:00 | 00:00:00 | |
| DL1XH-15 | 2026-09-03 01:32:32 | 51.77425 | 6.66780 | 143° | 22km/h | 26869m | -21m/s | -48.5°C | 3.4% | 20.4hPa | 2.6V | 08:25:22 | 02:16:04 | 00:00:00 | |
| BIOWL1-15 | 2026-09-03 01:32:32 | 51.77406 | 6.66813 | 126° | 20km/h | 26767m | -20.6m/s | -48.6°C | 0.5% | 20.7hPa | 2.6V | 08:25:26 | 02:16:09 | 00:00:00 | |
| DM0DOS-11 | 2026-09-03 01:32:31 | 51.77413 | 6.66799 | 128° | 22km/h | 26808m | -20.2m/s | -48.5°C | 3.4% | 20.6hPa | 2.5V | 08:25:19 | 02:16:07 | 00:00:00 | |
| AA1-15 | 2026-09-03 01:32:30 | 51.77413 | 6.66799 | 128° | 22km/h | 26808m | -20.2m/s | -48.5°C | 0.4% | 20.6hPa | 2.5V | 08:25:26 | 02:16:07 | 00:00:00 | |
| DL1XH-west | 2026-09-03 01:32:25 | 51.77434 | 6.66772 | 159° | 18km/h | 26911m | -20m/s | -48.5°C | 0.5% | 20.3hPa | 2.6V | 08:25:26 | 02:16:02 | 00:00:00 | |
| DL8DAS-14 | 2026-09-03 01:32:25 | 51.77438 | 6.66769 | 165° | 16km/h | 26931m | -20.6m/s | -48.5°C | 0.9% | 20.2hPa | 2.5V | 00:00:00 | 00:00:00 | 00:00:00 | |
| DL4BBY-15 | 2026-09-03 01:32:24 | 51.77438 | 6.66769 | 166° | 15km/h | 26931m | -20.5m/s | -48.3°C | 0% | 0hPa | 2.5V | 00:00:00 | 00:00:00 | 00:00:00 | |
| HARRO8 | 2026-09-03 01:32:23 | 51.77443 | 6.66769 | 180° | 18km/h | 26952m | -20.9m/s | -48.5°C | 1.0% | 20.1hPa | 2.5V | 00:00:00 | 00:00:00 | 00:00:00 | |
| DL1XH-15 | 2026-09-03 01:32:22 | 51.77468 | 6.66784 | 209° | 18km/h | 27076m | -20.6m/s | -48.3°C | 3.4% | 19.8hPa | 2.5V | 08:25:32 | 02:15:54 | 00:00:00 | |
| DM0DOS-11 | 2026-09-03 01:32:21 | 51.77456 | 6.66773 | 200° | 16km/h | 27014m | -20.5m/s | -48.5°C | 3.5% | 20hPa | 2.6V | 08:25:29 | 02:15:57 | 00:00:00 | |
| BIOWL1-15 | 2026-09-03 01:32:21 | 51.77451 | 6.66771 | 197° | 16km/h | 26993m | -20.8m/s | -48.5°C | 0.4% | 20.1hPa | 2.5V | 08:26:17 | 02:15:58 | 00:00:00 | |
| AA1-15 | 2026-09-03 01:32:19 | 51.77460 | 6.66776 | 207° | 20km/h | 27034m | -20.8m/s | -48.4°C | 0.4% | 19.9hPa | 2.6V | 08:26:17 | 02:15:56 | 00:00:00 | |
| DL1XH-west | 2026-09-03 01:32:14 | 51.77480 | 6.66795 | 213° | 15km/h | 27138m | -20.9m/s | -48.4°C | 0.4% | 19.6hPa | 2.6V | 08:26:17 | 02:15:51 | 00:00:00 | |
| DO3MHA-11 | 2026-09-03 01:32:14 | 51.77480 | 6.66795 | 214° | 7km/h | 27138m | -20.9m/s | -48.3°C | 3.4% | 19.6hPa | 2.6V | 00:00:00 | 02:15:51 | 00:00:00 | |
| WPPR-10 | 2026-09-03 01:32:13 | 51.77486 | 6.66800 | 206° | 11km/h | 27181m | -20.6m/s | -48.3°C | 1.0% | 19.5hPa | 2.6V | 00:00:00 | 00:00:00 | 00:00:00 | |
| DL1XH-15 | 2026-09-03 01:32:12 | 51.77495 | 6.66816 | 256° | 11km/h | 27286m | -20.2m/s | -48.2°C | 3.5% | 19.2hPa | 2.6V | 08:25:42 | 02:15:44 | 00:00:00 | |
| BIOWL1-15 | 2026-09-03 01:32:12 | 51.77491 | 6.66805 | 221° | 11km/h | 27223m | -21.5m/s | -48.1°C | 0.4% | 19.4hPa | 2.5V | 08:26:17 | 02:15:47 | 00:00:00 | |
| DM0DOS-11 | 2026-09-03 01:32:11 | 51.77491 | 6.66805 | 220° | 11km/h | 27223m | -21.5m/s | -48.1°C | 3.4% | 19.4hPa | 2.5V | 08:25:39 | 02:15:47 | 00:00:00 | |
| AA1-15 | 2026-09-03 01:32:09 | 51.77493 | 6.66808 | 232° | 11km/h | 27245m | -21.3m/s | -48.1°C | 0.2% | 19.3hPa | 2.6V | 08:26:17 | 02:15:46 | 00:00:00 | |
| HSKMA3-T | 2026-09-03 01:32:08 | 51.77494 | 6.66812 | 245° | 11km/h | 27266m | -20.6m/s | -48.1°C | 0.3% | 19.2hPa | 2.6V | 18:12:15 | 02:15:45 | 00:00:00 | |
| DL1XH-west | 2026-09-03 01:32:04 | 51.77497 | 6.66831 | 263° | 15km/h | 27349m | -21.2m/s | -48.2°C | 0.4% | 19hPa | 2.5V | 08:26:17 | 02:15:41 | 00:00:00 | |
| DL1XH-15 | 2026-09-03 01:32:02 | 51.77493 | 6.66876 | 284° | 16km/h | 27496m | -21.9m/s | -48°C | 3.4% | 18.6hPa | 2.5V | 08:25:52 | 02:15:34 | 00:00:00 | |
| BIOWL1-15 | 2026-09-03 01:31:59 | 51.77495 | 6.66862 | 285° | 18km/h | 27454m | -21.1m/s | -48.1°C | 0.5% | 18.7hPa | 2.5V | 08:26:17 | 02:15:36 | 00:00:00 | |
| AA1-15 | 2026-09-03 01:31:58 | 51.77494 | 6.66869 | 284° | 16km/h | 27475m | -21.2m/s | -48.1°C | 0.5% | 18.6hPa | 2.5V | 08:26:17 | 02:15:35 | 00:00:00 | |
| DL1XH-west | 2026-09-03 01:31:54 | 51.77489 | 6.66891 | 302° | 11km/h | 27561m | -21.2m/s | -48°C | 0.4% | 18.4hPa | 2.6V | 08:26:17 | 02:15:31 | 00:00:00 | |
| DL8DAS-14 | 2026-09-03 01:31:54 | 51.77488 | 6.66895 | 300° | 7km/h | 27583m | -21.8m/s | -48.0°C | 0.9% | 18.3hPa | 2.6V | 00:00:00 | 00:00:00 | 00:00:00 | |
| SONDE2-11 | 2026-09-03 01:31:53 | 51.77488 | 6.66895 | 300° | 7km/h | 27583m | -21.8m/s | -48.0°C | 0.9% | 18.3hPa | 2.6V | 00:00:00 | 00:00:00 | 00:00:00 | |
| DL1XH-15 | 2026-09-03 01:31:52 | 51.77487 | 6.66900 | 157° | 2km/h | 27713m | -22.4m/s | -47.7°C | 3.3% | 18hPa | 2.6V | 08:26:02 | 02:15:24 | 00:00:00 | |
| AA1-15 | 2026-09-03 01:31:48 | 51.77487 | 6.66900 | 134° | 2km/h | 27691m | -21.9m/s | -47.8°C | 0.4% | 18hPa | 2.6V | 08:26:17 | 02:15:25 | 00:00:00 | |
| DF8AY | 2026-09-03 01:31:47 | 51.77487 | 6.66900 | 158° | 2km/h | 27713m | -22.4m/s | -47.7°C | 0.4% | 18hPa | 2.6V | 08:26:17 | 02:15:24 | 00:00:00 | |
| DJ2KF-10 | 2026-09-03 01:31:46 | 51.77488 | 6.66899 | 160° | 7km/h | 27735m | -21.4m/s | -47.6°C | 3.3% | 17.8hPa | 2.6V | 08:26:00 | 02:15:23 | 00:00:00 | |
| DM0DOS-11 | 2026-09-03 01:31:45 | 51.77493 | 6.66898 | 144° | 2km/h | 27868m | -22.5m/s | -47.5°C | 3.3% | 17.5hPa | 2.5V | 08:26:09 | 02:15:17 | 00:00:00 | |
| HSKMA3-T | 2026-09-03 01:31:45 | 51.77489 | 6.66899 | 172° | 5km/h | 27757m | -22.1m/s | -47.6°C | 0.4% | 17.8hPa | 2.5V | 18:12:15 | 02:15:22 | 00:00:00 | |
| DL1XH-west | 2026-09-03 01:31:43 | 51.77491 | 6.66898 | 152° | 4km/h | 27801m | -22.1m/s | -47.6°C | 0.3% | 17.7hPa | 2.5V | 08:26:17 | 02:15:20 | 00:00:00 | |
| BIOWL1-15 | 2026-09-03 01:31:39 | 51.77493 | 6.66898 | 81° | 0km/h | 27936m | -23.2m/s | -47.4°C | 0.3% | 17.4hPa | 2.6V | 08:26:17 | 02:15:14 | 00:00:00 | |
| AA1-15 | 2026-09-03 01:31:38 | 51.77493 | 6.66898 | 246° | 0km/h | 27913m | -22.6m/s | -47.5°C | 0.4% | 17.4hPa | 2.5V | 08:26:17 | 02:15:15 | 00:00:00 | |
| DF8AY | 2026-09-03 01:31:36 | 51.77493 | 6.66898 | 2° | 2km/h | 27960m | -22.4m/s | -47.3°C | 0.3% | 17.3hPa | 2.6V | 08:26:17 | 02:15:13 | 00:00:00 | |
| HSKMA3-T | 2026-09-03 01:31:35 | 51.77492 | 6.66899 | 330° | 5km/h | 27982m | -22m/s | -47.2°C | 0.3% | 17.3hPa | 2.6V | 18:12:15 | 02:15:12 | 00:00:00 | |
| DL1XH-west | 2026-09-03 01:31:33 | 51.77490 | 6.66902 | 327° | 5km/h | 28027m | -22.5m/s | -47.1°C | 0.3% | 17.1hPa | 2.5V | 08:26:17 | 02:15:10 | 00:00:00 | |
| DO3MHA-11 | 2026-09-03 01:31:33 | 51.77490 | 6.66901 | 328° | 11km/h | 28027m | -22.5m/s | -47.0°C | 3.2% | 17.1hPa | 2.5V | 00:00:00 | 02:15:10 | 00:00:00 | |
| DL1LOL-11 | 2026-09-03 01:31:32 | 51.77490 | 6.66901 | 328° | 5km/h | 28027m | -22.5m/s | -47.1°C | 0.9% | 17.1hPa | 2.6V | 00:00:00 | 00:00:00 | 00:00:00 | |
| DM0DOS-11 | 2026-09-03 01:31:30 | 51.77486 | 6.66909 | 311° | 9km/h | 28094m | -22.8m/s | -47.1°C | 3.2% | 16.9hPa | 2.6V | 08:26:19 | 02:15:07 | 00:00:00 | |
| AA1-15 | 2026-09-03 01:31:27 | 51.77482 | 6.66921 | 299° | 13km/h | 28162m | -22.9m/s | -47°C | 0.3% | 16.8hPa | 2.5V | 08:27:08 | 02:15:04 | 00:00:00 | |
| BIOWL1-15 | 2026-09-03 01:31:26 | 51.77481 | 6.66926 | 291° | 15km/h | 28185m | -23.1m/s | -46.9°C | 0.3% | 16.7hPa | 2.5V | 08:27:08 | 02:15:03 | 00:00:00 | |
| HSKMA3-T | 2026-09-03 01:31:24 | 51.77477 | 6.66935 | 298° | 15km/h | 28231m | -22.6m/s | -46.6°C | 0.2% | 16.6hPa | 2.5V | 18:12:15 | 02:15:01 | 00:00:00 | |
| DL1XH-west | 2026-09-03 01:31:23 | 51.77475 | 6.66940 | 314° | 13km/h | 28254m | -23.3m/s | -46.5°C | 0.2% | 16.5hPa | 2.6V | 08:27:08 | 02:15:00 | 00:00:00 | |
| DO2JMG | 2026-09-03 01:31:22 | 51.77473 | 6.66944 | 306° | 15km/h | 28278m | -23.7m/s | -46.5°C | 0.2% | 16.5hPa | 2.6V | 08:27:08 | 02:14:59 | 00:00:00 | |
| BIOWL1-15 | 2026-09-03 01:31:16 | 51.77457 | 6.66967 | 329° | 13km/h | 28419m | -23.7m/s | -47°C | 0.3% | 16.2hPa | 2.6V | 08:27:08 | 02:14:53 | 00:00:00 | |
| HSKMA3-T | 2026-09-03 01:31:14 | 51.77453 | 6.66972 | 328° | 9km/h | 28466m | -23m/s | -47°C | 0.3% | 16hPa | 2.5V | 18:12:15 | 02:14:51 | 00:00:00 | |
| DL1XH-west | 2026-09-03 01:31:13 | 51.77451 | 6.66973 | 353° | 5km/h | 28489m | -23.7m/s | -47°C | 0.3% | 16hPa | 2.5V | 08:27:08 | 02:14:50 | 00:00:00 | |
| DO2JMG | 2026-09-03 01:31:12 | 51.77450 | 6.66974 | 328° | 2km/h | 28513m | -23.6m/s | -47°C | 0.3% | 15.9hPa | 2.6V | 08:27:08 | 02:14:49 | 00:00:00 | |
| DF8AY | 2026-09-03 01:31:11 | 51.77449 | 6.66972 | 79° | 5km/h | 28559m | -23.8m/s | -47.1°C | 0.3% | 15.8hPa | 2.6V | 08:27:08 | 02:14:47 | 00:00:00 | |
| BIOWL1-15 | 2026-09-03 01:31:06 | 51.77449 | 6.66958 | 104° | 13km/h | 28654m | -23.9m/s | -47.2°C | 0.4% | 15.6hPa | 2.5V | 08:27:08 | 02:14:43 | 00:00:00 | |
| AA1-15 | 2026-09-03 01:31:05 | 51.77450 | 6.66953 | 85° | 11km/h | 28678m | -23.5m/s | -47.2°C | 0.4% | 15.5hPa | 2.6V | 08:27:08 | 02:14:42 | 00:00:00 | |
| DL1XH-west | 2026-09-03 01:31:02 | 51.77449 | 6.66938 | 85° | 9km/h | 28749m | -23.9m/s | -46.8°C | 0.4% | 15.4hPa | 2.5V | 08:27:08 | 02:14:39 | 00:00:00 | |
| DO2JMG | 2026-09-03 01:31:01 | 51.77449 | 6.66934 | 69° | 11km/h | 28773m | -24.1m/s | -46.7°C | 0.3% | 15.3hPa | 2.5V | 08:27:08 | 02:14:38 | 00:00:00 | |
| HSKMA3-T | 2026-09-03 01:31:00 | 51.77448 | 6.66929 | 71° | 13km/h | 28797m | -24.6m/s | -46.7°C | 0.3% | 15.3hPa | 2.5V | 18:12:15 | 02:14:37 | 00:00:00 | |
| BIOWL1-15 | 2026-09-03 01:30:56 | 51.77443 | 6.66907 | 77° | 16km/h | 28894m | -24.5m/s | -46.5°C | 0.3% | 15hPa | 2.6V | 08:27:08 | 02:14:33 | 00:00:00 | |
| AA1-15 | 2026-09-03 01:30:55 | 51.77443 | 6.66900 | 88° | 16km/h | 28919m | -24.8m/s | -46.5°C | 0.3% | 15hPa | 2.5V | 08:27:08 | 02:14:32 | 00:00:00 | |
| DL4BBY-15 | 2026-09-03 01:30:54 | 51.77443 | 6.66895 | 100° | 13km/h | 28944m | -24.3m/s | -46.2°C | 0% | 0hPa | 2.6V | 00:00:00 | 00:00:00 | 00:00:00 | |
| DL1XH-15 | 2026-09-03 01:30:52 | 51.77452 | 6.66867 | 116° | 9km/h | 29116m | -24.9m/s | -46°C | 3.2% | 14.5hPa | 2.6V | 08:27:02 | 02:14:24 | 00:00:00 | |
| DL1XH-west | 2026-09-03 01:30:52 | 51.77444 | 6.66884 | 106° | 13km/h | 28992m | -24.9m/s | -46.3°C | 0.3% | 14.8hPa | 2.6V | 08:27:08 | 02:14:29 | 00:00:00 | |
| DO2JMG | 2026-09-03 01:30:51 | 51.77445 | 6.66879 | 115° | 13km/h | 29017m | -25m/s | -46.3°C | 0.3% | 14.8hPa | 2.6V | 08:27:08 | 02:14:28 | 00:00:00 | |
| HSKMA3-T | 2026-09-03 01:30:49 | 51.77449 | 6.66872 | 137° | 9km/h | 29067m | -24.3m/s | -46.2°C | 0.3% | 14.7hPa | 2.5V | 18:12:15 | 02:14:26 | 00:00:00 | |
| AA1-15 | 2026-09-03 01:30:45 | 51.77453 | 6.66860 | 98° | 7km/h | 29165m | -25m/s | -45.7°C | 0.2% | 14.4hPa | 2.6V | 08:27:08 | 02:14:22 | 00:00:00 | |
| GOEST3-10 | 2026-09-03 01:30:44 | 51.77453 | 6.66857 | 90° | 11km/h | 29191m | -24.6m/s | -45.6°C | 3.1% | 14.3hPa | 2.5V | 00:00:00 | 00:00:00 | 00:00:00 | |
| DL1XH-15 | 2026-09-03 01:30:42 | 51.77437 | 6.66838 | 30° | 13km/h | 29364m | -25.7m/s | -44.9°C | 3% | 14hPa | 2.5V | 08:27:12 | 02:14:14 | 00:00:00 | |
| DL1XH-west | 2026-09-03 01:30:42 | 51.77451 | 6.66852 | 33° | 11km/h | 29239m | -24.6m/s | -45.3°C | 0.1% | 14.3hPa | 2.5V | 08:27:08 | 02:14:19 | 00:00:00 | |
| DO2JMG | 2026-09-03 01:30:41 | 51.77449 | 6.66850 | 29° | 13km/h | 29264m | -24.7m/s | -45.1°C | 0.1% | 14.2hPa | 2.5V | 08:27:08 | 02:14:18 | 00:00:00 | |
| DF8AY | 2026-09-03 01:30:40 | 51.77446 | 6.66847 | 29° | 15km/h | 29289m | -25m/s | -45°C | 0.1% | 14.2hPa | 2.6V | 08:27:59 | 02:14:17 | 00:00:00 | |
| HSKMA3-T | 2026-09-03 01:30:39 | 51.77443 | 6.66844 | 32° | 15km/h | 29314m | -25.2m/s | -45°C | 0.1% | 14.1hPa | 2.6V | 18:12:15 | 02:14:16 | 00:00:00 | |
| BIOWL1-15 | 2026-09-03 01:30:35 | 51.77432 | 6.66834 | 23° | 9km/h | 29414m | -25m/s | -44.9°C | 0% | 13.9hPa | 2.5V | 08:27:59 | 02:14:12 | 00:00:00 | |
| GOEST3-10 | 2026-09-03 01:30:34 | 51.77430 | 6.66832 | 21° | 13km/h | 29439m | -24.8m/s | -44.9°C | 3.0% | 13.8hPa | 2.6V | 00:00:00 | 00:00:00 | 00:00:00 | |
| DO3DL | 2026-09-03 01:30:33 | 51.77430 | 6.66832 | 21° | 9km/h | 29439m | -24.8m/s | -44.9°C | 0.8% | 13.8hPa | 2.6V | 08:27:00 | 00:00:00 | 00:00:00 | |
| DL1XH-15 | 2026-09-03 01:30:32 | 51.77419 | 6.66798 | 88° | 18km/h | 29615m | -25.2m/s | -45.1°C | 3.1% | 13.5hPa | 2.6V | 08:27:22 | 02:14:04 | 00:00:00 | |
| DL1XH-west | 2026-09-03 01:30:31 | 51.77424 | 6.66824 | 55° | 15km/h | 29514m | -24.9m/s | -45°C | 0.1% | 13.7hPa | 2.6V | 08:27:59 | 02:14:08 | 00:00:00 | |
| DM0DOS-11 | 2026-09-03 01:30:30 | 51.77422 | 6.66819 | 63° | 16km/h | 29538m | -25.4m/s | -45.1°C | 3% | 13.6hPa | 2.5V | 08:27:19 | 02:14:07 | 00:00:00 | |
| HSKMA3-T | 2026-09-03 01:30:29 | 51.77420 | 6.66813 | 73° | 18km/h | 29564m | -25.8m/s | -45.1°C | 0.2% | 13.6hPa | 2.5V | 18:12:15 | 02:14:06 | 00:00:00 | |
| BIOWL1-15 | 2026-09-03 01:30:26 | 51.77420 | 6.66775 | 95° | 20km/h | 29690m | -25.2m/s | -44.9°C | 0.2% | 13.3hPa | 2.5V | 08:27:59 | 02:14:01 | 00:00:00 | |
| AA1-15 | 2026-09-03 01:30:25 | 51.77419 | 6.66783 | 92° | 18km/h | 29665m | -25m/s | -45°C | 0.2% | 13.4hPa | 2.5V | 08:27:59 | 02:14:02 | 00:00:00 | |
| DL4BBY-15 | 2026-09-03 01:30:24 | 51.77419 | 6.66775 | 96° | 18km/h | 29690m | -25.2m/s | -44.7°C | 0% | 0hPa | 2.6V | 00:00:00 | 00:00:00 | 00:00:00 | |
| DM0DOS-11 | 2026-09-03 01:30:20 | 51.77426 | 6.66746 | 117° | 18km/h | 29791m | -26m/s | -44.4°C | 3% | 13.1hPa | 2.6V | 08:27:29 | 02:13:57 | 00:00:00 | |
| DL1XH-west | 2026-09-03 01:30:20 | 51.77426 | 6.66746 | 118° | 18km/h | 29791m | -26m/s | -44.4°C | 0.1% | 13.1hPa | 2.6V | 08:27:59 | 02:13:57 | 00:00:00 | |
| HSKMA3-T | 2026-09-03 01:30:18 | 51.77430 | 6.66732 | 118° | 20km/h | 29843m | -26.8m/s | -44°C | 0% | 13hPa | 2.5V | 18:12:15 | 02:13:55 | 00:00:00 | |
| AA1-15 | 2026-09-03 01:30:14 | 51.77440 | 6.66704 | 115° | 18km/h | 29949m | -26.8m/s | -43.8°C | 0% | 12.8hPa | 2.6V | 08:27:59 | 02:13:51 | 00:00:00 | |
| BIOWL1-15 | 2026-09-03 01:30:13 | 51.77441 | 6.66697 | 110° | 18km/h | 29976m | -26.5m/s | -43.8°C | 0% | 12.8hPa | 2.6V | 08:27:59 | 02:13:50 | 00:00:00 | |
| DL1XH-15 | 2026-09-03 01:30:12 | 51.77444 | 6.66663 | 76° | 13km/h | 30134m | -25.7m/s | -43.5°C | 2.8% | 12.5hPa | 2.6V | 08:27:42 | 02:13:44 | 00:00:00 | |
| DM0DOS-11 | 2026-09-03 01:30:10 | 51.77444 | 6.66679 | 95° | 13km/h | 30055m | -26.4m/s | -43.6°C | 2.8% | 12.6hPa | 2.5V | 08:27:39 | 02:13:47 | 00:00:00 | |
| DL1XH-west | 2026-09-03 01:30:09 | 51.77444 | 6.66673 | 88° | 13km/h | 30082m | -26.6m/s | -43.5°C | 0% | 12.6hPa | 2.5V | 08:27:59 | 02:13:46 | 00:00:00 | |
| HSKMA3-T | 2026-09-03 01:30:08 | 51.77444 | 6.66669 | 82° | 13km/h | 30108m | -25.8m/s | -43.5°C | 0% | 12.6hPa | 2.6V | 18:12:15 | 02:13:45 | 00:00:00 | |
| DF8AY | 2026-09-03 01:30:07 | 51.77444 | 6.66663 | 77° | 13km/h | 30134m | -25.7m/s | -43.5°C | 0% | 12.5hPa | 2.6V | 08:27:59 | 02:13:44 | 00:00:00 | |
| AA1-15 | 2026-09-03 01:30:04 | 51.77442 | 6.66647 | 84° | 15km/h | 30211m | -26.3m/s | -43.4°C | 0% | 12.3hPa | 2.5V | 08:27:59 | 02:13:41 | 00:00:00 | |
| BIOWL1-15 | 2026-09-03 01:30:03 | 51.77442 | 6.66633 | 87° | 16km/h | 30264m | -26.7m/s | -43.3°C | 0% | 12.2hPa | 2.6V | 08:27:59 | 02:13:39 | 00:00:00 | |
| DL1XH-15 | 2026-09-03 01:30:02 | 51.77440 | 6.66592 | 85° | 24km/h | 30398m | -27.4m/s | -42.7°C | 2.7% | 12hPa | 2.6V | 08:27:52 | 02:13:34 | 00:00:00 | |
| DL1XH-west | 2026-09-03 01:29:59 | 51.77441 | 6.66610 | 86° | 22km/h | 30344m | -27m/s | -42.8°C | 0% | 12.1hPa | 2.5V | 08:27:59 | 02:13:36 | 00:00:00 | |
| DF8AY | 2026-09-03 01:29:57 | 51.77440 | 6.66592 | 86° | 24km/h | 30398m | -27.4m/s | -42.7°C | 0% | 12hPa | 2.6V | 08:27:59 | 02:13:34 | 00:00:00 | |
| HSKMA3-T | 2026-09-03 01:29:56 | 51.77440 | 6.66582 | 89° | 24km/h | 30425m | -27.3m/s | -42.7°C | 0% | 12hPa | 2.6V | 18:12:15 | 02:13:33 | 00:00:00 | |
| AA1-15 | 2026-09-03 01:29:53 | 51.77442 | 6.66553 | 101° | 24km/h | 30506m | -25.8m/s | -42.5°C | 0% | 11.8hPa | 2.5V | 08:27:59 | 02:13:30 | 00:00:00 | |
| BIOWL1-15 | 2026-09-03 01:29:51 | 51.77445 | 6.66535 | 109° | 22km/h | 30557m | -26.5m/s | -42.4°C | 0% | 11.7hPa | 2.5V | 08:27:59 | 02:13:28 | 00:00:00 | |
| DL1XH-west | 2026-09-03 01:29:48 | 51.77453 | 6.66510 | 121° | 22km/h | 30637m | -27.5m/s | -42.4°C | 0% | 11.6hPa | 2.6V | 08:28:50 | 02:13:25 | 00:00:00 | |
| DF8AY | 2026-09-03 01:29:46 | 51.77458 | 6.66495 | 119° | 20km/h | 30692m | -27.8m/s | -42.4°C | 0% | 11.5hPa | 2.5V | 08:28:50 | 02:13:23 | 00:00:00 | |
| DJ2KF-10 | 2026-09-03 01:29:46 | 51.77458 | 6.66495 | 120° | 18km/h | 30693m | -27.8m/s | -42.3°C | 2.6% | 11.4hPa | 2.5V | 00:00:00 | 02:13:23 | 00:00:00 | |
| DM0DOS-11 | 2026-09-03 01:29:45 | 51.77465 | 6.66460 | 83° | 11km/h | 30859m | -27.1m/s | -42.5°C | 2.6% | 11.2hPa | 2.5V | 08:28:09 | 02:13:17 | 00:00:00 | |
| HSKMA3-T | 2026-09-03 01:29:45 | 51.77461 | 6.66488 | 118° | 18km/h | 30720m | -28m/s | -42.3°C | 0% | 11.4hPa | 2.5V | 18:12:15 | 02:13:22 | 00:00:00 | |
| AA1-15 | 2026-09-03 01:29:43 | 51.77464 | 6.66476 | 107° | 15km/h | 30777m | -27.8m/s | -42.3°C | 0% | 11.3hPa | 2.6V | 08:28:50 | 02:13:20 | 00:00:00 | |
| BIOWL1-15 | 2026-09-03 01:29:41 | 51.77465 | 6.66465 | 92° | 11km/h | 30832m | -27.6m/s | -42.4°C | 0% | 11.2hPa | 2.6V | 08:28:50 | 02:13:18 | 00:00:00 | |
| DO2JMG | 2026-09-03 01:29:38 | 51.77465 | 6.66451 | 73° | 11km/h | 30914m | -26.8m/s | -42.4°C | 0% | 11.1hPa | 2.5V | 08:28:50 | 02:13:15 | 00:00:00 | |
| DL1XH-west | 2026-09-03 01:29:37 | 51.77464 | 6.66447 | 75° | 9km/h | 30941m | -26.8m/s | -42.4°C | 0% | 11.1hPa | 2.6V | 08:28:50 | 02:13:14 | 00:00:00 | |
| DB0ND-19 | 2026-09-03 01:29:36 | 51.77463 | 6.66443 | 69° | 9km/h | 30969m | -27.3m/s | -42.3°C | 0.7% | 11.0hPa | 2.6V | 00:00:00 | 00:00:00 | 00:00:00 | |
| DM0DOS-11 | 2026-09-03 01:29:35 | 51.77456 | 6.66408 | 66° | 22km/h | 31132m | -27.9m/s | -42.5°C | 2.6% | 10.8hPa | 2.6V | 08:28:19 | 02:13:07 | 00:00:00 | |
| HSKMA3-T | 2026-09-03 01:29:35 | 51.77463 | 6.66439 | 70° | 11km/h | 30996m | -27.1m/s | -42.3°C | 0% | 11hPa | 2.5V | 18:12:15 | 02:13:12 | 00:00:00 | |
| AA1-15 | 2026-09-03 01:29:32 | 51.77460 | 6.66423 | 64° | 16km/h | 31077m | -27.4m/s | -42.4°C | 0% | 10.8hPa | 2.6V | 08:28:50 | 02:13:09 | 00:00:00 | |
| BIOWL1-15 | 2026-09-03 01:29:30 | 51.77456 | 6.66408 | 66° | 22km/h | 31132m | -27.9m/s | -42.5°C | 0% | 10.8hPa | 2.6V | 08:28:50 | 02:13:07 | 00:00:00 | |
| DO2JMG | 2026-09-03 01:29:28 | 51.77452 | 6.66390 | 74° | 24km/h | 31187m | -28.4m/s | -42.4°C | 0% | 10.7hPa | 2.5V | 08:28:50 | 02:13:05 | 00:00:00 | |
| DL1XH-west | 2026-09-03 01:29:26 | 51.77450 | 6.66371 | 85° | 24km/h | 31243m | -28.3m/s | -42.4°C | 0% | 10.6hPa | 2.5V | 08:28:50 | 02:13:03 | 00:00:00 | |
| DM0DOS-11 | 2026-09-03 01:29:25 | 51.77458 | 6.66320 | 106° | 20km/h | 31411m | -29.1m/s | -42.1°C | 2.7% | 10.3hPa | 2.5V | 08:28:29 | 02:12:57 | 00:00:00 | |
| DF8AY | 2026-09-03 01:29:24 | 51.77452 | 6.66352 | 99° | 22km/h | 31299m | -28.4m/s | -42.4°C | 0% | 10.5hPa | 2.6V | 08:28:50 | 02:13:01 | 00:00:00 | |
| HSKMA3-T | 2026-09-03 01:29:23 | 51.77453 | 6.66344 | 104° | 22km/h | 31327m | -28.5m/s | -42.3°C | 0% | 10.4hPa | 2.6V | 18:12:15 | 02:13:00 | 00:00:00 | |
| GOEST3-10 | 2026-09-03 01:29:23 | 51.77453 | 6.66344 | 104° | 20km/h | 31328m | -28.5m/s | -42.3°C | 2.7% | 10.4hPa | 2.6V | 08:28:00 | 00:00:00 | 00:00:00 | |
| DL1XH-15 | 2026-09-03 01:29:22 | 51.77462 | 6.66299 | 98° | 18km/h | 31498m | -29.2m/s | -41.6°C | 2.6% | 10.2hPa | 2.6V | 08:28:32 | 02:12:54 | 00:00:00 | |
| AA1-15 | 2026-09-03 01:29:22 | 51.77455 | 6.66336 | 106° | 22km/h | 31355m | -28.6m/s | -42.3°C | 0% | 10.4hPa | 2.5V | 08:28:50 | 02:12:59 | 00:00:00 | |
| BIOWL1-15 | 2026-09-03 01:29:21 | 51.77460 | 6.66313 | 103° | 20km/h | 31440m | -29.5m/s | -41.9°C | 0% | 10.3hPa | 2.5V | 08:28:50 | 02:12:56 | 00:00:00 | |
| DF8AY | 2026-09-03 01:29:18 | 51.77465 | 6.66278 | 106° | 11km/h | 31614m | -29.6m/s | -40.9°C | 0% | 10hPa | 2.5V | 08:28:50 | 02:12:50 | 00:00:00 | |
| DO2JMG | 2026-09-03 01:29:17 | 51.77462 | 6.66299 | 99° | 18km/h | 31498m | -29.2m/s | -41.6°C | 0% | 10.2hPa | 2.6V | 08:28:50 | 02:12:54 | 00:00:00 | |
| DL1XH-west | 2026-09-03 01:29:16 | 51.77462 | 6.66292 | 98° | 16km/h | 31527m | -29.2m/s | -41.4°C | 0% | 10.1hPa | 2.6V | 08:28:50 | 02:12:53 | 00:00:00 | |
| DJ2KF-10 | 2026-09-03 01:29:16 | 51.77462 | 6.66292 | 99° | 16km/h | 31528m | -29.1m/s | -41.3°C | 2.6% | 10.1hPa | 2.6V | 00:00:00 | 02:12:53 | 00:00:00 | |
| DO3DL | 2026-09-03 01:29:15 | 51.77462 | 6.66292 | 99° | 16km/h | 31528m | -29.2m/s | -41.4°C | 0.7% | 10.1hPa | 2.6V | 08:28:00 | 00:00:00 | 00:00:00 | |
| GOEST3-10 | 2026-09-03 01:29:13 | 51.77465 | 6.66278 | 106° | 9km/h | 31614m | -29.5m/s | -40.8°C | 2.4% | 9.9hPa | 2.6V | 00:00:00 | 00:00:00 | 00:00:00 | |
| DL1XH-15 | 2026-09-03 01:29:12 | 51.77469 | 6.66260 | 88° | 11km/h | 31789m | -30.3m/s | -40.9°C | 2.5% | 9.7hPa | 2.6V | 08:28:42 | 02:12:44 | 00:00:00 | |
| AA1-15 | 2026-09-03 01:29:12 | 51.77466 | 6.66275 | 110° | 9km/h | 31643m | -29.8m/s | -40.8°C | 0% | 10hPa | 2.6V | 08:28:50 | 02:12:49 | 00:00:00 | |
| BIOWL1-15 | 2026-09-03 01:29:11 | 51.77468 | 6.66267 | 109° | 9km/h | 31731m | -29.9m/s | -41°C | 0% | 9.8hPa | 2.5V | 08:28:50 | 02:12:46 | 00:00:00 | |
| HSKMA3-T | 2026-09-03 01:29:10 | 51.77467 | 6.66269 | 114° | 7km/h | 31701m | -30m/s | -40.9°C | 0% | 9.9hPa | 2.5V | 18:12:15 | 02:12:47 | 00:00:00 | |
| DO2JMG | 2026-09-03 01:29:07 | 51.77469 | 6.66260 | 88° | 11km/h | 31789m | -30.3m/s | -40.9°C | 0% | 9.7hPa | 2.6V | 08:28:50 | 02:12:44 | 00:00:00 | |
| DL1XH-west | 2026-09-03 01:29:06 | 51.77469 | 6.66256 | 80° | 11km/h | 31819m | -30.4m/s | -40.9°C | 0% | 9.7hPa | 2.6V | 08:28:50 | 02:12:43 | 00:00:00 | |
| DB0ND-19 | 2026-09-03 01:29:05 | 51.77468 | 6.66252 | 73° | 11km/h | 31849m | -30.6m/s | -41.0°C | 0.7% | 9.7hPa | 2.5V | 00:00:00 | 00:00:00 | 00:00:00 | |
| DD1CC3-15 | 2026-09-03 01:29:04 | 51.77468 | 6.66251 | 75° | 13km/h | 31849m | -30.6m/s | -41.0°C | 0.7% | 9.7hPa | 2.5V | 08:28:00 | 00:00:00 | 00:00:00 | |
| GOEST3-10 | 2026-09-03 01:29:03 | 51.77466 | 6.66242 | 73° | 16km/h | 31909m | -30.3m/s | -41.0°C | 2.5% | 9.5hPa | 2.5V | 00:00:00 | 00:00:00 | 00:00:00 | |
| DL1XH-15 | 2026-09-03 01:29:02 | 51.77465 | 6.66198 | 103° | 26km/h | 32091m | -30.8m/s | -41.2°C | 2.6% | 9.3hPa | 2.5V | 08:28:52 | 02:12:34 | 00:00:00 | |
| AA1-15 | 2026-09-03 01:29:01 | 51.77464 | 6.66230 | 80° | 16km/h | 31969m | -30.5m/s | -41.2°C | 0% | 9.5hPa | 2.5V | 08:28:50 | 02:12:38 | 00:00:00 | |
| HSKMA3-T | 2026-09-03 01:29:00 | 51.77463 | 6.66223 | 87° | 18km/h | 31999m | -30.9m/s | -41.2°C | 0% | 9.4hPa | 2.6V | 18:12:15 | 02:12:37 | 00:00:00 | |
| BIOWL1-15 | 2026-09-03 01:28:58 | 51.77463 | 6.66207 | 100° | 24km/h | 32060m | -30.9m/s | -41.2°C | 0% | 9.4hPa | 2.6V | 08:29:41 | 02:12:35 | 00:00:00 | |
| DO2JMG | 2026-09-03 01:28:57 | 51.77465 | 6.66198 | 104° | 26km/h | 32091m | -30.8m/s | -41.2°C | 0% | 9.3hPa | 2.5V | 08:29:41 | 02:12:34 | 00:00:00 | |
| DL1XH-west | 2026-09-03 01:28:55 | 51.77468 | 6.66177 | 106° | 29km/h | 32152m | -30.9m/s | -41.1°C | 0% | 9.2hPa | 2.5V | 08:29:41 | 02:12:32 | 00:00:00 | |
| DL4BBY-15 | 2026-09-03 01:28:54 | 51.77470 | 6.66166 | 107° | 18km/h | 32184m | -30.8m/s | -40.8°C | 0% | 0hPa | 2.6V | 00:00:00 | 00:00:00 | 00:00:00 | |
| GOEST3-10 | 2026-09-03 01:28:53 | 51.77472 | 6.66156 | 107° | 16km/h | 32214m | -30.9m/s | -40.9°C | 2.6% | 9.1hPa | 2.6V | 00:00:00 | 00:00:00 | 00:00:00 | |
| DL1XH-15 | 2026-09-03 01:28:52 | 51.77473 | 6.66124 | 29° | 11km/h | 32401m | -30.8m/s | -40.2°C | 2.5% | 8.9hPa | 2.6V | 08:29:02 | 02:12:24 | 00:00:00 | |
| DF8AY | 2026-09-03 01:28:51 | 51.77475 | 6.66140 | 104° | 16km/h | 32275m | -31.3m/s | -40.8°C | 0% | 9.1hPa | 2.6V | 08:29:41 | 02:12:28 | 00:00:00 | |
| AA1-15 | 2026-09-03 01:28:50 | 51.77475 | 6.66134 | 95° | 13km/h | 32307m | -31.3m/s | -40.7°C | 0% | 9hPa | 2.5V | 08:29:41 | 02:12:27 | 00:00:00 | |
| BIOWL1-15 | 2026-09-03 01:28:47 | 51.77473 | 6.66124 | 29° | 11km/h | 32401m | -30.8m/s | -40.2°C | 0% | 8.9hPa | 2.6V | 08:29:41 | 02:12:24 | 00:00:00 | |
| DO2JMG | 2026-09-03 01:28:46 | 51.77470 | 6.66122 | 23° | 13km/h | 32431m | -30.7m/s | -40.1°C | 0% | 8.9hPa | 2.6V | 08:29:41 | 02:12:23 | 00:00:00 | |
| DL1XH-west | 2026-09-03 01:28:46 | 51.77467 | 6.66120 | 23° | 15km/h | 32462m | -30.7m/s | -39.9°C | 0% | 8.8hPa | 2.5V | 08:29:41 | 02:12:22 | 00:00:00 | |
| BUE01 | 2026-09-03 01:28:45 | 51.77464 | 6.66117 | 29° | 15km/h | 32493m | -30.6m/s | -39.9°C | 0.6% | 8.8hPa | 2.6V | 00:00:00 | 00:00:00 | 00:00:00 | |
| GOEST3-10 | 2026-09-03 01:28:43 | 51.77460 | 6.66112 | 38° | 20km/h | 32523m | -30.9m/s | -39.7°C | 2.4% | 8.7hPa | 2.6V | 00:00:00 | 00:00:00 | 00:00:00 | |
| DL1XH-15 | 2026-09-03 01:28:42 | 51.77442 | 6.66072 | 60° | 20km/h | 32709m | -31.6m/s | -39.4°C | 2.3% | 8.5hPa | 2.6V | 08:29:12 | 02:12:14 | 00:00:00 | |
| AA1-15 | 2026-09-03 01:28:40 | 51.77451 | 6.66094 | 52° | 22km/h | 32616m | -31m/s | -39.6°C | 0% | 8.6hPa | 2.5V | 08:29:41 | 02:12:17 | 00:00:00 | |
| BIOWL1-15 | 2026-09-03 01:28:37 | 51.77442 | 6.66072 | 61° | 20km/h | 32709m | -31.6m/s | -39.4°C | 0% | 8.5hPa | 2.6V | 08:29:41 | 02:12:14 | 00:00:00 | |
| DM0DOS-11 | 2026-09-03 01:28:35 | 51.77437 | 6.66017 | 90° | 22km/h | 32932m | -32m/s | -39°C | 2.3% | 8.2hPa | 2.6V | 08:30:00 | 02:12:07 | 00:00:00 | |
| DO2JMG | 2026-09-03 01:28:35 | 51.77438 | 6.66057 | 72° | 20km/h | 32772m | -32.1m/s | -39.4°C | 0% | 8.4hPa | 2.6V | 08:29:41 | 02:12:12 | 00:00:00 | |
| DL1XH-west | 2026-09-03 01:28:34 | 51.77437 | 6.66049 | 78° | 20km/h | 32804m | -32.4m/s | -39.4°C | 0% | 8.4hPa | 2.5V | 08:29:41 | 02:12:11 | 00:00:00 | |
| AA1-15 | 2026-09-03 01:28:30 | 51.77437 | 6.66017 | 91° | 22km/h | 32932m | -32.1m/s | -39°C | 0% | 8.2hPa | 2.6V | 08:29:41 | 02:12:07 | 00:00:00 | |
| BIOWL1-15 | 2026-09-03 01:28:27 | 51.77437 | 6.65990 | 81° | 20km/h | 33029m | -31.7m/s | -38.7°C | 0% | 8.1hPa | 2.5V | 08:29:41 | 02:12:04 | 00:00:00 | |
| HSKMA3-T | 2026-09-03 01:28:26 | 51.77436 | 6.65983 | 72° | 16km/h | 33060m | -31.8m/s | -38.7°C | 0% | 8.1hPa | 2.5V | 18:12:15 | 02:12:03 | 00:00:00 | |
| DM0DOS-11 | 2026-09-03 01:28:25 | 51.77425 | 6.65968 | 14° | 11km/h | 33224m | -22.2m/s | -38.7°C | 2.4% | 7.9hPa | 2.5V | 08:30:00 | 02:11:57 | 00:00:00 | |
| DO2JMG | 2026-09-03 01:28:25 | 51.77434 | 6.65977 | 72° | 13km/h | 33092m | -30.9m/s | -38.7°C | 0% | 8.1hPa | 2.5V | 08:29:41 | 02:12:02 | 00:00:00 | |
| DL4BBY-15 | 2026-09-03 01:28:24 | 51.77433 | 6.65973 | 57° | 11km/h | 33122m | -30.1m/s | -38.5°C | 0% | 0hPa | 2.6V | 00:00:00 | 00:00:00 | 00:00:00 | |
| HTAHTA | 2026-09-03 01:28:23 | 51.77430 | 6.65970 | 20° | 9km/h | 33178m | -23.7m/s | -38.8°C | 0.6% | 7.9hPa | 2.6V | 00:00:00 | 00:00:00 | 00:00:00 | |
| DL1XH-west | 2026-09-03 01:28:23 | 51.77432 | 6.65971 | 33° | 7km/h | 33151m | -29.7m/s | -38.8°C | 0% | 8hPa | 2.6V | 08:29:41 | 02:12:00 | 00:00:00 | |
| DL1XH-15 | 2026-09-03 01:28:22 | 51.77419 | 6.65965 | 44° | 9km/h | 33289m | -22.1m/s | -38.4°C | 2.4% | 7.8hPa | 2.6V | 08:29:32 | 02:11:54 | 00:00:00 | |
| AA1-15 | 2026-09-03 01:28:20 | 51.77425 | 6.65968 | 15° | 11km/h | 33224m | -22.2m/s | -38.7°C | 0% | 7.9hPa | 2.5V | 08:29:41 | 02:11:57 | 00:00:00 | |
| BIOWL1-15 | 2026-09-03 01:28:16 | 51.77417 | 6.65962 | 40° | 9km/h | 33311m | -22.1m/s | -38.3°C | 0% | 7.8hPa | 2.6V | 08:29:41 | 02:11:53 | 00:00:00 | |
| DJ2KF-10 | 2026-09-03 01:28:16 | 51.77417 | 6.65962 | 41° | 27km/h | 33311m | -22.0m/s | -38.2°C | 2.3% | 7.7hPa | 2.5V | 00:00:00 | 02:11:53 | 00:00:00 | |
| DM0DOS-11 | 2026-09-03 01:28:15 | 51.77402 | 6.65941 | 34° | 15km/h | 33444m | -22.3m/s | -37.8°C | 2.3% | 7.6hPa | 2.5V | 08:30:00 | 02:11:47 | 00:00:00 | |
| DO2JMG | 2026-09-03 01:28:14 | 51.77414 | 6.65956 | 52° | 9km/h | 33355m | -22.9m/s | -38.1°C | 0% | 7.7hPa | 2.5V | 08:29:41 | 02:11:51 | 00:00:00 | |
| BUE01 | 2026-09-03 01:28:14 | 51.77412 | 6.65953 | 42° | 15km/h | 33378m | -23.0m/s | -38.0°C | 0.5% | 7.7hPa | 2.6V | 00:00:00 | 00:00:00 | 00:00:00 | |
| GOEST3-10 | 2026-09-03 01:28:13 | 51.77412 | 6.65953 | 43° | 16km/h | 33378m | -22.9m/s | -38.0°C | 2.2% | 7.7hPa | 2.6V | 00:00:00 | 00:00:00 | 00:00:00 | |
| DL1XH-15 | 2026-09-03 01:28:12 | 51.77393 | 6.65931 | 37° | 9km/h | 33510m | -22.1m/s | -37.6°C | 2.2% | 7.5hPa | 2.6V | 08:30:00 | 02:11:44 | 00:00:00 | |
| DL1XH-west | 2026-09-03 01:28:12 | 51.77409 | 6.65949 | 42° | 16km/h | 33401m | -21.8m/s | -38°C | 0% | 7.7hPa | 2.6V | 08:29:41 | 02:11:49 | 00:00:00 | |
| HSKMA3-T | 2026-09-03 01:28:10 | 51.77402 | 6.65941 | 35° | 16km/h | 33444m | -22.3m/s | -37.8°C | 0% | 7.6hPa | 2.5V | 18:12:15 | 02:11:47 | 00:00:00 | |
| AA1-15 | 2026-09-03 01:28:09 | 51.77398 | 6.65937 | 32° | 18km/h | 33466m | -21.6m/s | -37.8°C | 0% | 7.6hPa | 2.5V | 08:29:41 | 02:11:46 | 00:00:00 | |
| BIOWL1-15 | 2026-09-03 01:28:06 | 51.77392 | 6.65928 | 73° | 7km/h | 33532m | -21.7m/s | -37.5°C | 0% | 7.5hPa | 2.6V | 18:12:15 | 02:11:43 | 00:00:00 | |
| DD1CC1-15 | 2026-09-03 01:28:05 | 51.77392 | 6.65928 | 74° | 7km/h | 33532m | -21.7m/s | -37.5°C | 0.5% | 7.5hPa | 2.6V | 00:00:00 | 00:00:00 | 00:00:00 | |
| DM0DOS-11 | 2026-09-03 01:28:04 | 51.77395 | 6.65909 | 49° | 7km/h | 33684m | -21.7m/s | -37.1°C | 2.3% | 7.3hPa | 2.6V | 08:30:00 | 02:11:36 | 00:00:00 | |
| DO2JMG | 2026-09-03 01:28:04 | 51.77392 | 6.65923 | 120° | 9km/h | 33576m | -23.1m/s | -37.3°C | 0% | 7.5hPa | 2.5V | 18:12:15 | 02:11:41 | 00:00:00 | |
| DB0ND-19 | 2026-09-03 01:28:03 | 51.77395 | 6.65917 | 114° | 7km/h | 33620m | -21.0m/s | -37.2°C | 0.6% | 7.4hPa | 2.5V | 00:00:00 | 00:00:00 | 00:00:00 | |
| DL1XH-15 | 2026-09-03 01:28:02 | 51.77392 | 6.65903 | 51° | 11km/h | 33727m | -22.2m/s | -36.9°C | 2.3% | 7.3hPa | 2.5V | 08:30:00 | 02:11:34 | 00:00:00 | |
| DL1XH-west | 2026-09-03 01:28:01 | 51.77396 | 6.65914 | 115° | 7km/h | 33641m | -21.5m/s | -37.1°C | 0% | 7.4hPa | 2.5V | 18:12:15 | 02:11:38 | 00:00:00 | |
| AA1-15 | 2026-09-03 01:27:59 | 51.77395 | 6.65909 | 50° | 7km/h | 33684m | -21.7m/s | -37.1°C | 0% | 7.4hPa | 2.6V | 18:12:15 | 02:11:36 | 00:00:00 | |
| DF8AY | 2026-09-03 01:27:58 | 51.77394 | 6.65906 | 45° | 11km/h | 33705m | -21.5m/s | -37°C | 0% | 7.3hPa | 2.6V | 18:12:15 | 02:11:35 | 00:00:00 | |
| BIOWL1-15 | 2026-09-03 01:27:56 | 51.77390 | 6.65899 | 54° | 13km/h | 33749m | -22.8m/s | -36.8°C | 0% | 7.3hPa | 2.5V | 18:12:15 | 02:11:33 | 00:00:00 | |
| DO2JMG | 2026-09-03 01:27:53 | 51.77391 | 6.65889 | 139° | 13km/h | 33820m | -22.9m/s | -36.1°C | 0% | 7.2hPa | 2.6V | 18:12:15 | 02:11:30 | 00:00:00 | |
| DL1XH-west | 2026-09-03 01:27:50 | 51.77404 | 6.65883 | 172° | 22km/h | 33888m | -22.7m/s | -35.4°C | 0% | 7.1hPa | 2.5V | 18:12:15 | 02:11:27 | 00:00:00 | |
| HSKMA3-T | 2026-09-03 01:27:49 | 51.77409 | 6.65882 | 175° | 18km/h | 33912m | -23.4m/s | -35.1°C | 0% | 7.1hPa | 2.5V | 18:12:15 | 02:11:26 | 00:00:00 | |
| DF8AY | 2026-09-03 01:27:48 | 51.77413 | 6.65881 | 171° | 13km/h | 33935m | -23.4m/s | -35°C | 0% | 7.1hPa | 2.5V | 18:12:15 | 02:11:25 | 00:00:00 | |
| BIOWL1-15 | 2026-09-03 01:27:45 | 51.77412 | 6.65875 | 30° | 20km/h | 34004m | -23.6m/s | -34.5°C | 0% | 7hPa | 2.6V | 18:12:15 | 02:11:22 | 00:00:00 | |
| DM0DOS-11 | 2026-09-03 01:27:44 | 51.77372 | 6.65843 | 33° | 18km/h | 34150m | -21.8m/s | -33.9°C | 1.9% | 6.9hPa | 2.6V | 08:30:00 | 02:11:16 | 00:00:00 | |
| DO2JMG | 2026-09-03 01:27:43 | 51.77399 | 6.65864 | 26° | 35km/h | 34052m | -24.1m/s | -34.2°C | 0% | 7hPa | 2.5V | 18:12:15 | 02:11:20 | 00:00:00 | |
| DL1XH-west | 2026-09-03 01:27:40 | 51.77376 | 6.65848 | 28° | 26km/h | 34127m | -24.7m/s | -34°C | 0% | 6.9hPa | 2.6V | 18:12:15 | 02:11:17 | 00:00:00 | |
| HSKMA3-T | 2026-09-03 01:27:38 | 51.77370 | 6.65840 | 81° | 7km/h | 34171m | -19.1m/s | -33.9°C | 0% | 6.8hPa | 2.5V | 18:12:15 | 02:11:15 | 00:00:00 | |
| AA1-15 | 2026-09-03 01:27:37 | 51.77371 | 6.65837 | 148° | 16km/h | 34191m | -20.1m/s | -33.9°C | 0% | 6.8hPa | 2.5V | 18:12:15 | 02:11:14 | 00:00:00 | |
| DF5WG-10 | 2026-09-03 01:27:37 | 51.77371 | 6.65836 | 149° | 31km/h | 34192m | -20.1m/s | -33.8°C | 1.8% | 6.8hPa | 2.6V | 00:00:00 | 02:11:14 | 00:00:00 | |
| DO3DL | 2026-09-03 01:27:35 | 51.77376 | 6.65834 | 164° | 26km/h | 34211m | -20.2m/s | -33.8°C | 0.5% | 6.8hPa | 2.6V | 00:00:00 | 00:00:00 | 00:00:00 | |
| DM0DOS-11 | 2026-09-03 01:27:34 | 51.77361 | 6.65766 | 24° | 64km/h | 34448m | -36.8m/s | -33.1°C | 1.6% | 6.6hPa | 2.6V | 08:30:00 | 02:11:06 | 00:00:00 | |
| BIOWL1-15 | 2026-09-03 01:27:34 | 51.77389 | 6.65822 | 141° | 31km/h | 34262m | -31.7m/s | -33.7°C | 0% | 6.8hPa | 2.6V | 18:12:15 | 02:11:11 | 00:00:00 | |
| GOEST3-10 | 2026-09-03 01:27:33 | 51.77394 | 6.65813 | 112° | 46km/h | 34296m | -34.0m/s | -33.5°C | 1.8% | 6.7hPa | 2.5V | 00:00:00 | 00:00:00 | 00:00:00 | |
| DL1XH-15 | 2026-09-03 01:27:32 | 51.77336 | 6.65752 | 17° | 35km/h | 34541m | -57.2m/s | -32.6°C | 1.6% | 6.6hPa | 2.5V | 08:30:00 | 02:11:04 | 00:00:00 | |
| DO2JMG | 2026-09-03 01:27:32 | 51.77393 | 6.65802 | 55° | 33km/h | 34333m | -38.7m/s | -33.4°C | 0% | 6.7hPa | 2.5V | 18:12:15 | 02:11:09 | 00:00:00 | |
| DL1XH-west | 2026-09-03 01:27:29 | 51.77361 | 6.65766 | 25° | 64km/h | 34449m | -36.8m/s | -33.1°C | 0% | 6.6hPa | 2.6V | 18:12:15 | 02:11:06 | 00:00:00 | |
| HSKMA3-T | 2026-09-03 01:27:27 | 51.77336 | 6.65752 | 18° | 35km/h | 34541m | -57.2m/s | -32.6°C | 0% | 6.6hPa | 2.5V | 18:12:15 | 02:11:04 | 00:00:00 | |
| AA1-15 | 2026-09-03 01:27:26 | 51.77328 | 6.65747 | 17° | 35km/h | 34596m | -52.5m/s | -32.7°C | 0% | 6.5hPa | 2.5V | 18:12:15 | 02:11:03 | 00:00:00 | |
| SMARD9-15 | 2026-09-03 01:27:25 | 51.77320 | 6.65743 | 17° | 33km/h | 34646m | -45.8m/s | -32.9°C | 0.4% | 6.5hPa | 2.5V | 00:00:00 | 00:00:00 | 00:00:00 | |
| DM0DOS-11 | 2026-09-03 01:27:24 | 51.77299 | 6.65715 | 90° | 13km/h | 34786m | 1.8m/s | -33.5°C | 1.7% | 6.3hPa | 2.5V | 08:30:00 | 02:10:56 | 00:00:00 | |
| BIOWL1-15 | 2026-09-03 01:27:23 | 51.77306 | 6.65735 | 25° | 24km/h | 34724m | -32.1m/s | -33.3°C | 0% | 6.3hPa | 2.6V | 18:12:15 | 02:11:00 | 00:00:00 | |
| DO2JMG | 2026-09-03 01:27:22 | 51.77302 | 6.65731 | 43° | 18km/h | 34752m | -23.7m/s | -33.5°C | 0% | 6.3hPa | 2.6V | 18:12:15 | 02:10:59 | 00:00:00 | |
| DL1XH-west | 2026-09-03 01:27:18 | 51.77300 | 6.65709 | 101° | 13km/h | 34780m | 11.1m/s | -33.5°C | 0% | 6.3hPa | 2.5V | 18:12:15 | 02:10:55 | 00:00:00 | |
| HSKMA3-T | 2026-09-03 01:27:17 | 51.77302 | 6.65705 | 142° | 16km/h | 34771m | 6.5m/s | -33.4°C | 0% | 6.3hPa | 2.5V | 18:12:15 | 02:10:54 | 00:00:00 | |
| AA1-15 | 2026-09-03 01:27:16 | 51.77305 | 6.65701 | 147° | 18km/h | 34765m | 4.7m/s | -33.4°C | 0% | 6.3hPa | 2.6V | 18:12:15 | 02:10:53 | 00:00:00 | |
| DL8DAS-14 | 2026-09-03 01:27:15 | 51.77311 | 6.65691 | 104° | 15km/h | 34757m | 5.0m/s | -33.4°C | 0.4% | 6.3hPa | 2.6V | 00:00:00 | 00:00:00 | 00:00:00 | |
| DM0DOS-11 | 2026-09-03 01:27:14 | 51.77283 | 6.65647 | 28° | 44km/h | 34726m | 5.4m/s | -33.4°C | 1.8% | 6.3hPa | 2.6V | 08:30:00 | 02:10:46 | 00:00:00 | |
| BIOWL1-15 | 2026-09-03 01:27:13 | 51.77310 | 6.65684 | 70° | 20km/h | 34751m | 6.3m/s | -33.4°C | 0% | 6.3hPa | 2.5V | 18:12:15 | 02:10:50 | 00:00:00 | |
| DO2JMG | 2026-09-03 01:27:11 | 51.77301 | 6.65666 | 39° | 38km/h | 34738m | 6.7m/s | -33.4°C | 0% | 6.3hPa | 2.5V | 18:12:15 | 02:10:48 | 00:00:00 | |
| DL1XH-west | 2026-09-03 01:27:09 | 51.77274 | 6.65640 | 26° | 38km/h | 34720m | 5.3m/s | -33.4°C | 0% | 6.3hPa | 2.6V | 18:12:15 | 02:10:45 | 00:00:00 | |
| HSKMA3-T | 2026-09-03 01:27:07 | 51.77267 | 6.65634 | 25° | 29km/h | 34715m | 5.6m/s | -33.4°C | 0% | 0hPa | 2.6V | 18:12:15 | 02:10:44 | 00:00:00 | |
| DF8AY | 2026-09-03 01:27:05 | 51.77259 | 6.65627 | 46° | 7km/h | 34703m | 6.3m/s | -33.4°C | 0% | 6.3hPa | 2.5V | 18:12:15 | 02:10:42 | 00:00:00 | |
| DD1CC1-15 | 2026-09-03 01:27:04 | 51.77259 | 6.65627 | 47° | 7km/h | 34703m | 6.3m/s | -33.4°C | 0.5% | 6.3hPa | 2.5V | 00:00:00 | 00:00:00 | 00:00:00 | |
| DL1XH-15 | 2026-09-03 01:27:02 | 51.77258 | 6.65572 | 61° | 29km/h | 34655m | 5.6m/s | -33.3°C | 1.7% | 6.4hPa | 2.5V | 08:30:00 | 02:10:34 | 00:00:00 | |
| BIOWL1-15 | 2026-09-03 01:27:02 | 51.77262 | 6.65618 | 123° | 15km/h | 34685m | 6m/s | -33.3°C | 0% | 6.3hPa | 2.6V | 18:12:15 | 02:10:39 | 00:00:00 | |
| DO2JMG | 2026-09-03 01:27:00 | 51.77264 | 6.65604 | 90° | 22km/h | 34673m | 6.2m/s | -33.3°C | 0% | 6.3hPa | 2.6V | 18:12:15 | 02:10:37 | 00:00:00 | |
| DL1XH-west | 2026-09-03 01:26:57 | 51.77258 | 6.65572 | 62° | 29km/h | 34655m | 5.6m/s | -33.3°C | 0% | 6.4hPa | 2.5V | 18:12:15 | 02:10:34 | 00:00:00 | |
| HSKMA3-T | 2026-09-03 01:26:56 | 51.77254 | 6.65562 | 56° | 27km/h | 34650m | 6.2m/s | -33.3°C | 0% | 0hPa | 2.5V | 18:12:15 | 02:10:33 | 00:00:00 | |
| DF8AY | 2026-09-03 01:26:55 | 51.77251 | 6.65554 | 50° | 22km/h | 34643m | 6.5m/s | -33.3°C | 0% | 6.4hPa | 2.6V | 18:12:15 | 02:10:32 | 00:00:00 | |
| DL4BBY-15 | 2026-09-03 01:26:54 | 51.77247 | 6.65548 | 42° | 22km/h | 34637m | 6.1m/s | -33.0°C | 0% | 0hPa | 2.6V | 00:00:00 | 00:00:00 | 00:00:00 | |
| DJTTGO | 2026-09-03 01:26:53 | 51.77247 | 6.65548 | 42° | 18km/h | 34637m | 6.2m/s | -33.3°C | 0.4% | 6.4hPa | 2.6V | 00:00:00 | 00:00:00 | 00:00:00 | |
| DL1XH-15 | 2026-09-03 01:26:52 | 51.77225 | 6.65518 | 63° | 24km/h | 34597m | 5.3m/s | -33.5°C | 1.7% | 6.4hPa | 2.6V | 08:30:00 | 02:10:24 | 00:00:00 | |
| BIOWL1-15 | 2026-09-03 01:26:52 | 51.77241 | 6.65542 | 26° | 13km/h | 34625m | 5.6m/s | -33.4°C | 0% | 6.4hPa | 2.5V | 18:12:15 | 02:10:29 | 00:00:00 | |
| DO2JMG | 2026-09-03 01:26:49 | 51.77232 | 6.65532 | 44° | 18km/h | 34608m | 5.9m/s | -33.4°C | 0% | 6.4hPa | 2.5V | 18:12:15 | 02:10:26 | 00:00:00 | |
| DL1XH-west | 2026-09-03 01:26:47 | 51.77225 | 6.65518 | 63° | 24km/h | 34597m | 5.3m/s | -33.5°C | 0% | 6.4hPa | 2.6V | 18:12:15 | 02:10:24 | 00:00:00 | |
| HSKMA3-T | 2026-09-03 01:26:45 | 51.77222 | 6.65499 | 84° | 24km/h | 34586m | 5.1m/s | -33.6°C | 0% | 0hPa | 2.5V | 18:12:15 | 02:10:22 | 00:00:00 | |
| DM0DOS-11 | 2026-09-03 01:26:44 | 51.77230 | 6.65450 | 91° | 22km/h | 34552m | 5.9m/s | -33.8°C | 1.8% | 6.5hPa | 2.6V | 08:30:00 | 02:10:16 | 00:00:00 | |
| AA1-15 | 2026-09-03 01:26:44 | 51.77222 | 6.65489 | 96° | 22km/h | 34580m | 6.4m/s | -33.7°C | 0% | 6.5hPa | 2.5V | 18:12:15 | 02:10:21 | 00:00:00 | |
| BIOWL1-15 | 2026-09-03 01:26:41 | 51.77228 | 6.65466 | 119° | 20km/h | 34562m | 5.1m/s | -33.8°C | 0% | 6.5hPa | 2.6V | 18:12:15 | 02:10:18 | 00:00:00 | |
| DO2JMG | 2026-09-03 01:26:38 | 51.77230 | 6.65440 | 75° | 26km/h | 34546m | 6.5m/s | -33.9°C | 0% | 6.5hPa | 2.5V | 18:12:15 | 02:10:15 | 00:00:00 | |
| DL1XH-west | 2026-09-03 01:26:37 | 51.77227 | 6.65430 | 61° | 29km/h | 34539m | 5.9m/s | -33.9°C | 0% | 6.5hPa | 2.5V | 18:12:15 | 02:10:14 | 00:00:00 | |
| DF5WG-10 | 2026-09-03 01:26:37 | 51.77227 | 6.65430 | 62° | 22km/h | 34540m | 5.8m/s | -33.9°C | 1.8% | 6.4hPa | 2.5V | 00:00:00 | 02:10:14 | 00:00:00 | |
| DM0DOS-11 | 2026-09-03 01:26:34 | 51.77200 | 6.65378 | 88° | 18km/h | 34496m | 6.1m/s | -34°C | 1.8% | 6.5hPa | 2.5V | 08:30:00 | 02:10:06 | 00:00:00 | |
| AA1-15 | 2026-09-03 01:26:34 | 51.77212 | 6.65403 | 40° | 27km/h | 34523m | 6m/s | -33.9°C | 0% | 6.5hPa | 2.6V | 18:12:15 | 02:10:11 | 00:00:00 | |
| DF8AY | 2026-09-03 01:26:33 | 51.77208 | 6.65397 | 35° | 22km/h | 34517m | 6.1m/s | -34°C | 0% | 6.5hPa | 2.6V | 18:12:15 | 02:10:10 | 00:00:00 | |
| BIOWL1-15 | 2026-09-03 01:26:33 | 51.77201 | 6.65389 | 53° | 13km/h | 34506m | 4.5m/s | -34°C | 0% | 6.5hPa | 2.5V | 18:12:15 | 02:10:08 | 00:00:00 | |
| DO2JMG | 2026-09-03 01:26:28 | 51.77200 | 6.65369 | 92° | 26km/h | 34490m | 6.5m/s | -34°C | 0% | 6.5hPa | 2.5V | 18:12:15 | 02:10:05 | 00:00:00 | |
| DL1XH-west | 2026-09-03 01:26:26 | 51.77200 | 6.65345 | 94° | 33km/h | 34478m | 5.4m/s | -34°C | 0% | 6.6hPa | 2.6V | 18:12:15 | 02:10:03 | 00:00:00 | |
| HSKMA3-T | 2026-09-03 01:26:23 | 51.77202 | 6.65311 | 96° | 22km/h | 34462m | 5.6m/s | 0°C | 0% | 0hPa | 2.5V | 18:12:15 | 02:10:00 | 00:00:00 | |
| DL1XH-15 | 2026-09-03 01:26:22 | 51.77193 | 6.65278 | 37° | 26km/h | 34430m | 6.4m/s | -34°C | 1.8% | 6.6hPa | 2.5V | 08:30:00 | 02:09:54 | 00:00:00 | |
| DF8AY | 2026-09-03 01:26:22 | 51.77203 | 6.65303 | 96° | 16km/h | 34457m | 5.3m/s | -34°C | 0% | 6.6hPa | 2.5V | 18:12:15 | 02:09:59 | 00:00:00 | |
| BIOWL1-15 | 2026-09-03 01:26:21 | 51.77203 | 6.65297 | 88° | 13km/h | 34452m | 5m/s | -34°C | 0% | 6.6hPa | 2.5V | 18:12:15 | 02:09:58 | 00:00:00 | |
| DO2JMG | 2026-09-03 01:26:18 | 51.77198 | 6.65284 | 40° | 20km/h | 34436m | 6.4m/s | -34°C | 0% | 6.6hPa | 2.6V | 18:12:15 | 02:09:55 | 00:00:00 | |
| DL1XH-west | 2026-09-03 01:26:15 | 51.77182 | 6.65264 | 37° | 31km/h | 34419m | 4.6m/s | -34°C | 0% | 6.6hPa | 2.5V | 18:12:15 | 02:09:52 | 00:00:00 | |
| HSKMA3-T | 2026-09-03 01:26:13 | 51.77171 | 6.65250 | 42° | 22km/h | 34409m | 5.4m/s | 0°C | 0% | 0hPa | 2.6V | 18:12:15 | 02:09:50 | 00:00:00 | |
| AA1-15 | 2026-09-03 01:26:12 | 51.77168 | 6.65245 | 49° | 15km/h | 34404m | 6.3m/s | -34°C | 0% | 6.6hPa | 2.6V | 18:12:15 | 02:09:49 | 00:00:00 | |
| DL1XH-15 | 2026-09-03 01:26:12 | 51.77170 | 6.65227 | 94° | 16km/h | 34377m | 5.6m/s | -34.1°C | 1.8% | 6.7hPa | 2.5V | 08:30:00 | 02:09:44 | 00:00:00 | |
| BIOWL1-15 | 2026-09-03 01:26:11 | 51.77167 | 6.65242 | 75° | 7km/h | 34397m | 6.3m/s | -34°C | 0% | 6.6hPa | 2.6V | 18:12:15 | 02:09:48 | 00:00:00 | |
| DO2JMG | 2026-09-03 01:26:07 | 51.77170 | 6.65227 | 95° | 16km/h | 34377m | 5.6m/s | -34.1°C | 0% | 6.7hPa | 2.5V | 18:12:15 | 02:09:44 | 00:00:00 | |
| DF5WG-10 | 2026-09-03 01:26:07 | 51.77170 | 6.65227 | 95° | 22km/h | 34377m | 5.6m/s | -34.0°C | 1.8% | 6.6hPa | 2.6V | 00:00:00 | 02:09:44 | 00:00:00 | |
| DC6BW-12 | 2026-09-03 01:26:06 | 51.77170 | 6.65227 | 96° | 16km/h | 34377m | 5.6m/s | -34.1°C | 0.5% | 6.7hPa | 2.6V | 00:00:00 | 00:00:00 | 00:00:00 | |
| GOEST3-10 | 2026-09-03 01:26:04 | 51.77165 | 6.65198 | 62° | 26km/h | 34361m | 4.8m/s | -34.1°C | 1.8% | 6.6hPa | 2.6V | 00:00:00 | 00:00:00 | 00:00:00 | |
| DL1XH-west | 2026-09-03 01:26:04 | 51.77165 | 6.65198 | 61° | 31km/h | 34361m | 4.8m/s | -34.2°C | 0% | 6.7hPa | 2.6V | 18:12:15 | 02:09:41 | 00:00:00 | |
| SONCRA | 2026-09-03 01:26:03 | 51.77156 | 6.65179 | 46° | 26km/h | 34351m | 5.9m/s | -34.2°C | 0.4% | 6.7hPa | 2.6V | 00:00:00 | 00:00:00 | 00:00:00 | |
| DL1XH-15 | 2026-09-03 01:26:02 | 51.77134 | 6.65168 | 0° | 20km/h | 34323m | 5.6m/s | -34.3°C | 1.8% | 6.7hPa | 2.6V | 08:30:00 | 02:09:34 | 00:00:00 | |
| AA1-15 | 2026-09-03 01:26:01 | 51.77152 | 6.65173 | 34° | 22km/h | 34345m | 6m/s | -34.2°C | 0% | 6.7hPa | 2.5V | 18:12:15 | 02:09:38 | 00:00:00 | |
| BIOWL1-15 | 2026-09-03 01:26:00 | 51.77147 | 6.65170 | 17° | 18km/h | 34339m | 5.7m/s | -34.2°C | 0% | 6.7hPa | 2.5V | 18:12:15 | 02:09:37 | 00:00:00 | |
| HSKMA3-T | 2026-09-03 01:25:58 | 51.77138 | 6.65168 | 357° | 18km/h | 34328m | 4.8m/s | 0°C | 0% | 0hPa | 2.6V | 18:12:15 | 02:09:35 | 00:00:00 | |
| DO2JMG | 2026-09-03 01:25:56 | 51.77128 | 6.65167 | 10° | 22km/h | 34317m | 6m/s | -34.3°C | 0% | 6.7hPa | 2.5V | 18:12:15 | 02:09:33 | 00:00:00 | |
| DL1XH-west | 2026-09-03 01:25:54 | 51.77118 | 6.65161 | 31° | 22km/h | 34306m | 4.8m/s | -34.3°C | 0% | 6.7hPa | 2.5V | 18:12:15 | 02:09:31 | 00:00:00 | |
| DF7PN | 2026-09-03 01:25:54 | 51.77108 | 6.65145 | 61° | 15km/h | 34290m | 6.1m/s | -34.3°C | -1.0% | -1.0hPa | 2.5V | 00:00:00 | 00:00:00 | 00:00:00 | |
| DL1XH-15 | 2026-09-03 01:25:52 | 51.77101 | 6.65125 | 47° | 18km/h | 34270m | 5.9m/s | -34.2°C | 1.8% | 6.8hPa | 2.5V | 08:30:00 | 02:09:24 | 00:00:00 | |
| BIOWL1-15 | 2026-09-03 01:25:51 | 51.77105 | 6.65135 | 67° | 13km/h | 34280m | 4.6m/s | -34.3°C | 0% | 6.7hPa | 2.5V | 18:12:15 | 02:09:26 | 00:00:00 | |
| AA1-15 | 2026-09-03 01:25:50 | 51.77106 | 6.65140 | 70° | 13km/h | 34285m | 5.2m/s | -34.2°C | 0% | 6.7hPa | 2.6V | 18:12:15 | 02:09:27 | 00:00:00 | |
| HSKMA3-T | 2026-09-03 01:25:48 | 51.77103 | 6.65130 | 56° | 15km/h | 34275m | 4.5m/s | 0°C | 0% | 0hPa | 2.5V | 18:12:15 | 02:09:25 | 00:00:00 | |
| DO2JMG | 2026-09-03 01:25:46 | 51.77097 | 6.65119 | 41° | 22km/h | 34264m | 6.1m/s | -34.3°C | 0% | 6.8hPa | 2.5V | 18:12:15 | 02:09:23 | 00:00:00 | |
| DL1XH-west | 2026-09-03 01:25:44 | 51.77087 | 6.65107 | 34° | 26km/h | 34253m | 4.4m/s | -34.3°C | 0% | 6.8hPa | 2.6V | 18:12:15 | 02:09:21 | 00:00:00 | |
| DB0NH | 2026-09-03 01:25:43 | 51.77082 | 6.65101 | 33° | 13km/h | 34249m | 4.2m/s | -34.2°C | 1.8% | 6.7hPa | 2.6V | 00:00:00 | 02:09:20 | 00:00:00 | |
| DL1XH-15 | 2026-09-03 01:25:42 | 51.77074 | 6.65090 | 90° | 9km/h | 34218m | 4.5m/s | -34.3°C | 1.8% | 6.8hPa | 2.6V | 08:30:00 | 02:09:14 | 00:00:00 | |
| AA1-15 | 2026-09-03 01:25:40 | 51.77074 | 6.65094 | 29° | 2km/h | 34232m | 5.8m/s | -34.3°C | 0% | 6.8hPa | 2.5V | 18:12:15 | 02:09:17 | 00:00:00 | |
| BIOWL1-15 | 2026-09-03 01:25:40 | 51.77074 | 6.65092 | 122° | 5km/h | 34223m | 4m/s | -34.3°C | 0% | 6.8hPa | 2.6V | 18:12:15 | 02:09:15 | 00:00:00 | |
| DF8AY | 2026-09-03 01:25:39 | 51.77068 | 6.65070 | 50° | 29km/h | 34202m | 5.3m/s | -34.3°C | 0% | 6.8hPa | 2.5V | 18:12:15 | 02:09:11 | 00:00:00 | |
| DO2JMG | 2026-09-03 01:25:35 | 51.77072 | 6.65078 | 58° | 22km/h | 34207m | 5.9m/s | -34.3°C | 0% | 6.8hPa | 2.5V | 18:12:15 | 02:09:12 | 00:00:00 | |
| DL1XH-west | 2026-09-03 01:25:33 | 51.77063 | 6.65061 | 44° | 31km/h | 34197m | 4.5m/s | -34.3°C | 0% | 6.8hPa | 2.5V | 18:12:15 | 02:09:10 | 00:00:00 | |
| AA1-15 | 2026-09-03 01:25:30 | 51.77044 | 6.65041 | 6° | 9km/h | 34176m | 5.8m/s | -34.4°C | 0% | 6.8hPa | 2.6V | 18:12:15 | 02:09:06 | 00:00:00 | |
| DF8AY | 2026-09-03 01:25:28 | 51.77042 | 6.65041 | 323° | 4km/h | 34171m | 5.4m/s | -34.4°C | 0% | 6.8hPa | 2.5V | 18:12:15 | 02:09:05 | 00:00:00 | |
| DO2JMG | 2026-09-03 01:25:24 | 51.77046 | 6.65035 | 107° | 15km/h | 34149m | 5.9m/s | -34.6°C | 0% | 6.9hPa | 2.6V | 18:12:15 | 02:09:01 | 00:00:00 | |
| DL1XH-west | 2026-09-03 01:25:23 | 51.77047 | 6.65028 | 98° | 20km/h | 34143m | 5.3m/s | -34.7°C | 0% | 6.9hPa | 2.6V | 18:12:15 | 02:09:00 | 00:00:00 | |
| AA1-15 | 2026-09-03 01:25:18 | 51.77047 | 6.64991 | 88° | 11km/h | 34116m | 5m/s | -34.8°C | 0% | 6.9hPa | 2.5V | 18:12:15 | 02:08:55 | 00:00:00 | |
| DF8AY | 2026-09-03 01:25:17 | 51.77047 | 6.64988 | 74° | 7km/h | 34111m | 4.8m/s | -34.8°C | 0% | 6.9hPa | 2.6V | 18:12:15 | 02:08:54 | 00:00:00 | |
| HTAHTA | 2026-09-03 01:25:17 | 51.77046 | 6.64985 | 55° | 7km/h | 34107m | 5.0m/s | -34.9°C | 0.5% | 6.9hPa | 2.6V | 00:00:00 | 00:00:00 | 00:00:00 | |
| DO1YAY-16 | 2026-09-03 01:25:16 | 51.77045 | 6.64982 | 43° | 11km/h | 34101m | 6.1m/s | -34.9°C | 0.4% | 6.9hPa | 2.6V | 00:00:00 | 00:00:00 | 00:00:00 | |
| DM0DOS-11 | 2026-09-03 01:25:14 | 51.77030 | 6.64966 | 23° | 4km/h | 34068m | 5.8m/s | -35.1°C | 1.9% | 6.9hPa | 2.6V | 08:30:00 | 02:08:46 | 00:00:00 | |
| DO2JMG | 2026-09-03 01:25:14 | 51.77042 | 6.64978 | 38° | 15km/h | 34095m | 6m/s | -34.9°C | 0% | 6.9hPa | 2.5V | 18:12:15 | 02:08:51 | 00:00:00 | |
| DL1XH-west | 2026-09-03 01:25:12 | 51.77036 | 6.64971 | 33° | 15km/h | 34084m | 4.6m/s | -35°C | 0% | 6.9hPa | 2.5V | 18:12:15 | 02:08:49 | 00:00:00 | |
| AA1-15 | 2026-09-03 01:25:08 | 51.77029 | 6.64965 | 48° | 2km/h | 34063m | 4.9m/s | -35.2°C | 0% | 6.9hPa | 2.6V | 18:12:15 | 02:08:45 | 00:00:00 | |
| DF8AY | 2026-09-03 01:25:07 | 51.77029 | 6.64964 | 73° | 4km/h | 34058m | 4.3m/s | -35.2°C | 0% | 7hPa | 2.5V | 18:12:15 | 02:08:44 | 00:00:00 | |
| BIOWL1-15 | 2026-09-03 01:25:06 | 51.77029 | 6.64962 | 69° | 9km/h | 34053m | 4.6m/s | -35.3°C | 0% | 7hPa | 2.5V | 18:12:15 | 02:08:43 | 00:00:00 | |
| DM0DOS-11 | 2026-09-03 01:25:04 | 51.77014 | 6.64919 | 97° | 5km/h | 34016m | 5.9m/s | -35.6°C | 1.9% | 7hPa | 2.5V | 08:30:00 | 02:08:36 | 00:00:00 | |
| DO2JMG | 2026-09-03 01:25:04 | 51.77025 | 6.64951 | 61° | 20km/h | 34042m | 6.2m/s | -35.4°C | 0% | 7hPa | 2.5V | 18:12:15 | 02:08:41 | 00:00:00 | |
| DL1XH-west | 2026-09-03 01:25:02 | 51.77019 | 6.64935 | 57° | 24km/h | 34032m | 4.2m/s | -35.5°C | 0% | 7hPa | 2.6V | 18:12:15 | 02:08:39 | 00:00:00 | |
| AA1-15 | 2026-09-03 01:24:58 | 51.77015 | 6.64918 | 171° | 7km/h | 34011m | 5.3m/s | -35.6°C | 0% | 7hPa | 2.5V | 18:12:15 | 02:08:35 | 00:00:00 | |
| BIOWL1-15 | 2026-09-03 01:24:56 | 51.77020 | 6.64917 | 170° | 15km/h | 34001m | 4.6m/s | -35.7°C | 0% | 7hPa | 2.6V | 18:12:15 | 02:08:33 | 00:00:00 | |
| DM0DOS-11 | 2026-09-03 01:24:54 | 51.77033 | 6.64874 | 93° | 11km/h | 33966m | 5.7m/s | -36.1°C | 1.9% | 7hPa | 2.6V | 08:30:00 | 02:08:26 | 00:00:00 | |
| DO2JMG | 2026-09-03 01:24:53 | 51.77029 | 6.64905 | 114° | 20km/h | 33985m | 5.3m/s | -35.9°C | 0% | 7hPa | 2.5V | 18:12:15 | 02:08:30 | 00:00:00 | |
| DL1XH-west | 2026-09-03 01:24:52 | 51.77031 | 6.64897 | 105° | 22km/h | 33980m | 4.6m/s | -35.9°C | 0% | 7hPa | 2.5V | 18:12:15 | 02:08:29 | 00:00:00 | |
| AA1-15 | 2026-09-03 01:24:48 | 51.77032 | 6.64871 | 306° | 5km/h | 33954m | 5.7m/s | -36.3°C | 0% | 7.1hPa | 2.6V | 18:12:15 | 02:08:24 | 00:00:00 | |
| BIOWL1-15 | 2026-09-03 01:24:46 | 51.77031 | 6.64873 | 302° | 9km/h | 33949m | 5m/s | -36.4°C | 0% | 7.1hPa | 2.5V | 18:12:15 | 02:08:23 | 00:00:00 | |
| HTAHTA | 2026-09-03 01:24:46 | 51.77030 | 6.64876 | 307° | 9km/h | 33944m | 4.4m/s | -36.4°C | 0.5% | 7.1hPa | 2.5V | 00:00:00 | 00:00:00 | 00:00:00 | |
| DO1YAY-16 | 2026-09-03 01:24:45 | 51.77028 | 6.64879 | 325° | 7km/h | 33940m | 4.6m/s | -36.5°C | 0.5% | 7.1hPa | 2.5V | 00:00:00 | 00:00:00 | 00:00:00 | |
| DM0DOS-11 | 2026-09-03 01:24:44 | 51.77029 | 6.64853 | 122° | 29km/h | 33914m | 5m/s | -36.8°C | 2% | 7.1hPa | 2.5V | 08:30:00 | 02:08:16 | 00:00:00 | |
| DO2JMG | 2026-09-03 01:24:42 | 51.77026 | 6.64877 | 72° | 11km/h | 33929m | 5.5m/s | -36.6°C | 0% | 7.1hPa | 2.6V | 18:12:15 | 02:08:19 | 00:00:00 | |
| AA1-15 | 2026-09-03 01:24:36 | 51.77047 | 6.64830 | 159° | 31km/h | 33897m | 4.8m/s | -36.9°C | 0% | 7.1hPa | 2.5V | 18:12:15 | 02:08:13 | 00:00:00 | |
| BIOWL7-15 | 2026-09-03 01:24:35 | 51.77054 | 6.64826 | 168° | 26km/h | 33893m | 4.1m/s | -37.0°C | 0.5% | 7.1hPa | 2.6V | 00:00:00 | 00:00:00 | 00:00:00 | |
| DO3DL | 2026-09-03 01:24:34 | 51.77054 | 6.64826 | 168° | 26km/h | 33893m | 4.1m/s | -37.0°C | 0.5% | 7.1hPa | 2.6V | 00:00:00 | 00:00:00 | 00:00:00 | |
| GOEST3-10 | 2026-09-03 01:24:33 | 51.77063 | 6.64824 | 169° | 13km/h | 33883m | 5.8m/s | -37.1°C | 2.0% | 7.1hPa | 2.6V | 00:00:00 | 00:00:00 | 00:00:00 | |
| DF5WG-10 | 2026-09-03 01:24:32 | 51.77064 | 6.64823 | 103° | 15km/h | 33877m | 6.1m/s | -37.2°C | 2.0% | 7.1hPa | 2.6V | 00:00:00 | 02:08:09 | 00:00:00 | |
| DO2JMG | 2026-09-03 01:24:32 | 51.77064 | 6.64823 | 103° | 4km/h | 33877m | 6.1m/s | -37.2°C | 0% | 7.2hPa | 2.5V | 18:12:15 | 02:08:09 | 00:00:00 | |
| DL1XH-15 | 2026-09-03 01:24:31 | 51.77058 | 6.64800 | 139° | 11km/h | 33846m | 6.1m/s | -37.5°C | 2.2% | 7.2hPa | 2.6V | 08:30:00 | 02:08:03 | 00:00:00 | |
| DL1XH-west | 2026-09-03 01:24:31 | 51.77063 | 6.64821 | 46° | 9km/h | 33871m | 5.7m/s | -37.3°C | 0% | 7.2hPa | 2.5V | 18:12:15 | 02:08:08 | 00:00:00 | |
| AA1-15 | 2026-09-03 01:24:25 | 51.77061 | 6.64798 | 161° | 16km/h | 33840m | 6m/s | -37.6°C | 0% | 7.2hPa | 2.5V | 18:12:15 | 02:08:02 | 00:00:00 | |
| DL4BBY-15 | 2026-09-03 01:24:24 | 51.77065 | 6.64795 | 167° | 16km/h | 33835m | 5.1m/s | -37.4°C | 0% | 0hPa | 2.5V | 00:00:00 | 00:00:00 | 00:00:00 | |
| DD1CC8 | 2026-09-03 01:24:23 | 51.77071 | 6.64793 | 163° | 22km/h | 33830m | 4.6m/s | -37.7°C | 0.5% | 7.2hPa | 2.5V | 00:00:00 | 00:00:00 | 00:00:00 | |
| DF5WG-10 | 2026-09-03 01:24:22 | 51.77076 | 6.64790 | 154° | 15km/h | 33825m | 5.0m/s | -37.7°C | 2.1% | 7.2hPa | 2.5V | 00:00:00 | 02:07:59 | 00:00:00 | |
| DL1XH-15 | 2026-09-03 01:24:21 | 51.77082 | 6.64752 | 71° | 11km/h | 33792m | 6.2m/s | -37.8°C | 2.1% | 7.2hPa | 2.5V | 08:30:00 | 02:07:53 | 00:00:00 | |
| DO2JMG | 2026-09-03 01:24:21 | 51.77080 | 6.64785 | 138° | 20km/h | 33819m | 5.7m/s | -37.8°C | 0% | 7.2hPa | 2.6V | 18:12:15 | 02:07:58 | 00:00:00 | |
| DL1XH-west | 2026-09-03 01:24:20 | 51.77083 | 6.64779 | 115° | 20km/h | 33814m | 5.7m/s | -37.8°C | 0% | 7.2hPa | 2.6V | 18:12:15 | 02:07:57 | 00:00:00 | |
| AA1-15 | 2026-09-03 01:24:15 | 51.77082 | 6.64749 | 83° | 7km/h | 33786m | 5.9m/s | -37.8°C | 0% | 7.2hPa | 2.6V | 18:12:15 | 02:07:52 | 00:00:00 | |
| DO3DL | 2026-09-03 01:24:15 | 51.77082 | 6.64749 | 84° | 7km/h | 33787m | 5.9m/s | -37.8°C | 0.5% | 7.2hPa | 2.6V | 00:00:00 | 00:00:00 | 00:00:00 | |
| DM0DOS-11 | 2026-09-03 01:24:14 | 51.77092 | 6.64724 | 108° | 24km/h | 33754m | 6.2m/s | -37.8°C | 2.1% | 7.3hPa | 2.6V | 08:30:00 | 02:07:46 | 00:00:00 | |
| BIOWL1-15 | 2026-09-03 01:24:14 | 51.77082 | 6.64747 | 127° | 5km/h | 33781m | 5.2m/s | -37.8°C | 0% | 7.2hPa | 2.6V | 18:12:15 | 02:07:51 | 00:00:00 | |
| DO1YAY-16 | 2026-09-03 01:24:13 | 51.77083 | 6.64745 | 144° | 7km/h | 33776m | 4.5m/s | -37.8°C | 0.6% | 7.3hPa | 2.5V | 00:00:00 | 00:00:00 | 00:00:00 | |
| GOEST3-10 | 2026-09-03 01:24:12 | 51.77085 | 6.64742 | 138° | 20km/h | 33772m | 4.4m/s | -37.7°C | 2.1% | 7.2hPa | 2.5V | 00:00:00 | 00:00:00 | 08:30:00 | |
| DL1XH-15 | 2026-09-03 01:24:11 | 51.77097 | 6.64696 | 110° | 20km/h | 33737m | 5.9m/s | -37.8°C | 2.1% | 7.3hPa | 2.5V | 08:30:00 | 02:07:43 | 00:00:00 | |
| DO2JMG | 2026-09-03 01:24:10 | 51.77090 | 6.64732 | 116° | 20km/h | 33760m | 6.6m/s | -37.8°C | 0% | 7.3hPa | 2.5V | 18:12:15 | 02:07:47 | 00:00:00 | |
| DL1XH-west | 2026-09-03 01:24:09 | 51.77092 | 6.64724 | 108° | 24km/h | 33754m | 6.2m/s | -37.8°C | 0% | 7.3hPa | 2.6V | 18:12:15 | 02:07:46 | 00:00:00 | |
| BIOWL1-15 | 2026-09-03 01:24:04 | 51.77101 | 6.64685 | 126° | 9km/h | 33726m | 5.4m/s | -37.8°C | 0% | 7.3hPa | 2.5V | 18:12:15 | 02:07:41 | 00:00:00 | |
| DL3AQ-11 | 2026-09-03 01:24:02 | 51.77102 | 6.64677 | 77° | 9km/h | 33709m | 6.4m/s | -37.9°C | 0.5% | 7.3hPa | 2.5V | 00:00:00 | 00:00:00 | 00:00:00 | |
| DM0DOS-11 | 2026-09-03 01:24:00 | 51.77101 | 6.64667 | 80° | 15km/h | 33698m | 5m/s | -37.9°C | 2.1% | 7.3hPa | 2.5V | 08:30:00 | 02:07:36 | 00:00:00 | |
| DO2JMG | 2026-09-03 01:23:59 | 51.77101 | 6.64667 | 81° | 15km/h | 33698m | 5m/s | -37.9°C | 0% | 7.3hPa | 2.5V | 18:12:15 | 02:07:36 | 00:00:00 | |
| DL1XH-west | 2026-09-03 01:23:58 | 51.77100 | 6.64661 | 92° | 16km/h | 33693m | 5.2m/s | -37.9°C | 0% | 7.3hPa | 2.5V | 18:12:15 | 02:07:35 | 00:00:00 | |
| DL1XH-15 | 2026-09-03 01:23:56 | 51.77103 | 6.64649 | 121° | 15km/h | 33681m | 6.4m/s | -37.9°C | 2.1% | 7.3hPa | 2.5V | 08:30:00 | 02:07:33 | 00:00:00 | |
| BIOWL1-15 | 2026-09-03 01:23:53 | 51.77112 | 6.64634 | 134° | 18km/h | 33665m | 4.3m/s | -38°C | 0% | 7.4hPa | 2.6V | 18:12:15 | 02:07:30 | 00:00:00 | |
| DF5WG-10 | 2026-09-03 01:23:52 | 51.77115 | 6.64628 | 119° | 18km/h | 33662m | 4.7m/s | -38.0°C | 2.2% | 7.3hPa | 2.6V | 00:00:00 | 02:07:29 | 00:00:00 | |
| DL1XH-15 | 2026-09-03 01:23:51 | 51.77105 | 6.64576 | 40° | 18km/h | 33626m | 6.2m/s | -38.2°C | 2.2% | 7.4hPa | 2.6V | 08:30:00 | 02:07:23 | 00:00:00 | |
| DM0DOS-11 | 2026-09-03 01:23:50 | 51.77115 | 6.64600 | 70° | 27km/h | 33643m | 5.7m/s | -38.1°C | 2.1% | 7.4hPa | 2.5V | 08:30:00 | 02:07:26 | 00:00:00 | |
| DO2JMG | 2026-09-03 01:23:48 | 51.77112 | 6.64590 | 60° | 27km/h | 33638m | 5.1m/s | -38.2°C | 0% | 7.4hPa | 2.6V | 18:12:15 | 02:07:25 | 00:00:00 | |
| DL1XH-west | 2026-09-03 01:23:47 | 51.77108 | 6.64582 | 51° | 24km/h | 33632m | 5.7m/s | -38.2°C | 0% | 7.4hPa | 2.6V | 18:12:15 | 02:07:24 | 00:00:00 | |
| AA1-15 | 2026-09-03 01:23:43 | 51.77097 | 6.64570 | 15° | 7km/h | 33610m | 4.8m/s | -38.4°C | 0% | 7.4hPa | 2.5V | 18:12:15 | 02:07:20 | 00:00:00 | |
| DF8AY | 2026-09-03 01:23:42 | 51.77087 | 6.64544 | 73° | 24km/h | 33582m | 5.1m/s | -38.4°C | 0% | 7.5hPa | 2.5V | 18:12:15 | 02:07:15 | 00:00:00 | |
| DF5WG-10 | 2026-09-03 01:23:42 | 51.77095 | 6.64568 | 37° | 16km/h | 33605m | 5.4m/s | -38.4°C | 2.2% | 7.4hPa | 2.5V | 00:00:00 | 02:07:19 | 08:30:00 | |
| DC6BW-12 | 2026-09-03 01:23:41 | 51.77095 | 6.64568 | 38° | 9km/h | 33605m | 5.5m/s | -38.4°C | 0.6% | 7.4hPa | 2.6V | 00:00:00 | 00:00:00 | 00:00:00 | |
| DM0DOS-11 | 2026-09-03 01:23:40 | 51.77089 | 6.64553 | 68° | 22km/h | 33587m | 5.5m/s | -38.4°C | 2.2% | 7.5hPa | 2.6V | 08:30:00 | 02:07:16 | 00:00:00 | |
| DL1XH-west | 2026-09-03 01:23:37 | 51.77086 | 6.64536 | 76° | 22km/h | 33576m | 5.9m/s | -38.4°C | 0% | 7.5hPa | 2.5V | 18:12:15 | 02:07:14 | 00:00:00 | |
| AA1-15 | 2026-09-03 01:23:32 | 51.77079 | 6.64506 | 45° | 16km/h | 33548m | 5.6m/s | -38.5°C | 0% | 7.5hPa | 2.5V | 18:12:15 | 02:07:09 | 00:00:00 | |
| DF5WG-10 | 2026-09-03 01:23:32 | 51.77079 | 6.64506 | 45° | 15km/h | 33548m | 5.6m/s | -38.4°C | 2.2% | 7.4hPa | 2.5V | 00:00:00 | 02:07:09 | 00:00:00 | |
| DL1XH-15 | 2026-09-03 01:23:31 | 51.77059 | 6.64476 | 75° | 9km/h | 33514m | 6.8m/s | -38.5°C | 2.2% | 7.5hPa | 2.5V | 08:30:00 | 02:07:03 | 00:00:00 | |
| DM0DOS-11 | 2026-09-03 01:23:30 | 51.77068 | 6.64491 | 38° | 22km/h | 33530m | 4.9m/s | -38.5°C | 2.2% | 7.5hPa | 2.6V | 08:30:00 | 02:07:06 | 00:00:00 | |
| DF8AY | 2026-09-03 01:23:30 | 51.77072 | 6.64496 | 38° | 24km/h | 33535m | 5.8m/s | -38.5°C | 0% | 7.5hPa | 2.5V | 18:12:15 | 02:07:07 | 00:00:00 | |
| DL1XH-west | 2026-09-03 01:23:26 | 51.77059 | 6.64476 | 75° | 9km/h | 33514m | 6.8m/s | -38.5°C | 0% | 7.5hPa | 2.5V | 18:12:15 | 02:07:03 | 00:00:00 | |
| BIOWL1-15 | 2026-09-03 01:23:22 | 51.77064 | 6.64460 | 102° | 16km/h | 33491m | 6.3m/s | -38.5°C | 0% | 7.5hPa | 2.6V | 18:12:15 | 02:06:59 | 00:00:00 | |
| Es werden nur die letzten 3500 von 7052 Frames angezeigt. GPX/KML und Diagramme bleiben verfügbar. | |||||||||||||||